<?xml version="1.0" encoding="UTF-8" standalone="no" ?>
<gpx xmlns="http://www.topografix.com/GPX/1/1" xmlns:xsi="http://www.w3.org/2001/XMLSchema-instance" xsi:schemaLocation="http://www.topografix.com/GPX/1/1 http://www.topografix.com/GPX/1/1/gpx.xsd" version="1.1" creator="VisuGPX - https://www.visugpx.com">
  <metadata>
    <name>2017-12-09 Bike ride-Georges de Reneins O</name>
    <desc><![CDATA[2017-12-09 Bike ride-Georges de Reneins O]]></desc>
  </metadata>
  <wpt lat="45.92457" lon="4.73707">
    <ele>174</ele>
    <name><![CDATA[2017-12-09 10:51 (Start)]]></name>
  </wpt>
  <wpt lat="45.92466" lon="4.73713">
    <ele>174</ele>
    <name><![CDATA[2017-12-09 10:51 (End)]]></name>
    <desc><![CDATA[Created by Google My Tracks on Android  Name: 2017-12-09 10:51 Activity type: biking Description: - Total distance: 46.42 km (28.8 mi) Total time: 2:30:49 Moving time: 2:24:10 Average speed: 18.47 km/h (11.5 mi/h) Average moving speed: 19.32 km/h (12.0 mi/h) Max speed: 41.47 km/h (25.8 mi/h) Average pace: 3:15 min/km (5:14 min/mi) Average moving pace: 3:06 min/km (4:60 min/mi) Fastest pace: 1:27 min/km (2:20 min/mi) Max elevation: 292 m (957 ft) Min elevation: 206 m (675 ft) Elevation gain: 606 m (1988 ft) Max grade: 31 % Min grade: -34 % Recorded: 09/12/2017 10:51]]></desc>
  </wpt>
  <trk>
    <name><![CDATA[2017-12-09 10:51]]></name>
    <trkseg>
      <trkpt lat="45.92457" lon="4.73707">
        <ele>174</ele>
        <time>2017-12-09T09:51:46.451Z</time>
      </trkpt>
      <trkpt lat="45.92465" lon="4.7371">
        <ele>174</ele>
        <time>2017-12-09T09:52:41Z</time>
      </trkpt>
      <trkpt lat="45.92466" lon="4.73707">
        <ele>174</ele>
        <time>2017-12-09T09:52:42Z</time>
      </trkpt>
      <trkpt lat="45.92467" lon="4.73696">
        <ele>174</ele>
        <time>2017-12-09T09:52:45Z</time>
      </trkpt>
      <trkpt lat="45.92467" lon="4.73692">
        <ele>174</ele>
        <time>2017-12-09T09:52:46Z</time>
      </trkpt>
      <trkpt lat="45.92468" lon="4.73683">
        <ele>174</ele>
        <time>2017-12-09T09:52:48Z</time>
      </trkpt>
      <trkpt lat="45.92469" lon="4.73679">
        <ele>174</ele>
        <time>2017-12-09T09:52:49Z</time>
      </trkpt>
      <trkpt lat="45.9247" lon="4.73669">
        <ele>174</ele>
        <time>2017-12-09T09:52:51Z</time>
      </trkpt>
      <trkpt lat="45.9247" lon="4.73664">
        <ele>174</ele>
        <time>2017-12-09T09:52:52Z</time>
      </trkpt>
      <trkpt lat="45.92471" lon="4.73653">
        <ele>174</ele>
        <time>2017-12-09T09:52:54Z</time>
      </trkpt>
      <trkpt lat="45.92472" lon="4.73648">
        <ele>174</ele>
        <time>2017-12-09T09:52:55Z</time>
      </trkpt>
      <trkpt lat="45.92476" lon="4.7364">
        <ele>174</ele>
        <time>2017-12-09T09:52:57Z</time>
      </trkpt>
      <trkpt lat="45.9248" lon="4.73637">
        <ele>174</ele>
        <time>2017-12-09T09:52:58Z</time>
      </trkpt>
      <trkpt lat="45.92487" lon="4.73636">
        <ele>174</ele>
        <time>2017-12-09T09:53:00Z</time>
      </trkpt>
      <trkpt lat="45.92491" lon="4.73637">
        <ele>174</ele>
        <time>2017-12-09T09:53:01Z</time>
      </trkpt>
      <trkpt lat="45.925" lon="4.73638">
        <ele>174</ele>
        <time>2017-12-09T09:53:03Z</time>
      </trkpt>
      <trkpt lat="45.92504" lon="4.73638">
        <ele>174</ele>
        <time>2017-12-09T09:53:04Z</time>
      </trkpt>
      <trkpt lat="45.92512" lon="4.73637">
        <ele>174</ele>
        <time>2017-12-09T09:53:06Z</time>
      </trkpt>
      <trkpt lat="45.92516" lon="4.73636">
        <ele>173</ele>
        <time>2017-12-09T09:53:07Z</time>
      </trkpt>
      <trkpt lat="45.92525" lon="4.73635">
        <ele>173</ele>
        <time>2017-12-09T09:53:09Z</time>
      </trkpt>
      <trkpt lat="45.9253" lon="4.73634">
        <ele>173</ele>
        <time>2017-12-09T09:53:10Z</time>
      </trkpt>
      <trkpt lat="45.92535" lon="4.73634">
        <ele>173</ele>
        <time>2017-12-09T09:53:11Z</time>
      </trkpt>
      <trkpt lat="45.9254" lon="4.73634">
        <ele>173</ele>
        <time>2017-12-09T09:53:12Z</time>
      </trkpt>
      <trkpt lat="45.92549" lon="4.73633">
        <ele>173</ele>
        <time>2017-12-09T09:53:14Z</time>
      </trkpt>
      <trkpt lat="45.92553" lon="4.73632">
        <ele>173</ele>
        <time>2017-12-09T09:53:15Z</time>
      </trkpt>
      <trkpt lat="45.92558" lon="4.7363">
        <ele>173</ele>
        <time>2017-12-09T09:53:16Z</time>
      </trkpt>
      <trkpt lat="45.92563" lon="4.73629">
        <ele>173</ele>
        <time>2017-12-09T09:53:17Z</time>
      </trkpt>
      <trkpt lat="45.92567" lon="4.73627">
        <ele>173</ele>
        <time>2017-12-09T09:53:18Z</time>
      </trkpt>
      <trkpt lat="45.92572" lon="4.73625">
        <ele>173</ele>
        <time>2017-12-09T09:53:19Z</time>
      </trkpt>
      <trkpt lat="45.92576" lon="4.73624">
        <ele>173</ele>
        <time>2017-12-09T09:53:20Z</time>
      </trkpt>
      <trkpt lat="45.92581" lon="4.73622">
        <ele>173</ele>
        <time>2017-12-09T09:53:21Z</time>
      </trkpt>
      <trkpt lat="45.92586" lon="4.73622">
        <ele>173</ele>
        <time>2017-12-09T09:53:22Z</time>
      </trkpt>
      <trkpt lat="45.92591" lon="4.73621">
        <ele>173</ele>
        <time>2017-12-09T09:53:23Z</time>
      </trkpt>
      <trkpt lat="45.92596" lon="4.73621">
        <ele>173</ele>
        <time>2017-12-09T09:53:24Z</time>
      </trkpt>
      <trkpt lat="45.92601" lon="4.73621">
        <ele>173</ele>
        <time>2017-12-09T09:53:25Z</time>
      </trkpt>
      <trkpt lat="45.92607" lon="4.73624">
        <ele>173</ele>
        <time>2017-12-09T09:53:26Z</time>
      </trkpt>
      <trkpt lat="45.92611" lon="4.73627">
        <ele>173</ele>
        <time>2017-12-09T09:53:27Z</time>
      </trkpt>
      <trkpt lat="45.92616" lon="4.7363">
        <ele>173</ele>
        <time>2017-12-09T09:53:28Z</time>
      </trkpt>
      <trkpt lat="45.9262" lon="4.73636">
        <ele>173</ele>
        <time>2017-12-09T09:53:29Z</time>
      </trkpt>
      <trkpt lat="45.92623" lon="4.73642">
        <ele>173</ele>
        <time>2017-12-09T09:53:30Z</time>
      </trkpt>
      <trkpt lat="45.92626" lon="4.73648">
        <ele>173</ele>
        <time>2017-12-09T09:53:31Z</time>
      </trkpt>
      <trkpt lat="45.92628" lon="4.73655">
        <ele>173</ele>
        <time>2017-12-09T09:53:32Z</time>
      </trkpt>
      <trkpt lat="45.92631" lon="4.73662">
        <ele>173</ele>
        <time>2017-12-09T09:53:33Z</time>
      </trkpt>
      <trkpt lat="45.92634" lon="4.73667">
        <ele>173</ele>
        <time>2017-12-09T09:53:34Z</time>
      </trkpt>
      <trkpt lat="45.92638" lon="4.73673">
        <ele>173</ele>
        <time>2017-12-09T09:53:35Z</time>
      </trkpt>
      <trkpt lat="45.92641" lon="4.73679">
        <ele>173</ele>
        <time>2017-12-09T09:53:36Z</time>
      </trkpt>
      <trkpt lat="45.92645" lon="4.73684">
        <ele>173</ele>
        <time>2017-12-09T09:53:37Z</time>
      </trkpt>
      <trkpt lat="45.92649" lon="4.7369">
        <ele>173</ele>
        <time>2017-12-09T09:53:38Z</time>
      </trkpt>
      <trkpt lat="45.92653" lon="4.73694">
        <ele>173</ele>
        <time>2017-12-09T09:53:39Z</time>
      </trkpt>
      <trkpt lat="45.92658" lon="4.73698">
        <ele>173</ele>
        <time>2017-12-09T09:53:40Z</time>
      </trkpt>
      <trkpt lat="45.92663" lon="4.73702">
        <ele>173</ele>
        <time>2017-12-09T09:53:41Z</time>
      </trkpt>
      <trkpt lat="45.92669" lon="4.73705">
        <ele>174</ele>
        <time>2017-12-09T09:53:42Z</time>
      </trkpt>
      <trkpt lat="45.92674" lon="4.73708">
        <ele>174</ele>
        <time>2017-12-09T09:53:43Z</time>
      </trkpt>
      <trkpt lat="45.92679" lon="4.7371">
        <ele>173</ele>
        <time>2017-12-09T09:53:44Z</time>
      </trkpt>
      <trkpt lat="45.92685" lon="4.73712">
        <ele>173</ele>
        <time>2017-12-09T09:53:45Z</time>
      </trkpt>
      <trkpt lat="45.9269" lon="4.73712">
        <ele>173</ele>
        <time>2017-12-09T09:53:46Z</time>
      </trkpt>
      <trkpt lat="45.92695" lon="4.73713">
        <ele>173</ele>
        <time>2017-12-09T09:53:47Z</time>
      </trkpt>
      <trkpt lat="45.92701" lon="4.73715">
        <ele>173</ele>
        <time>2017-12-09T09:53:48Z</time>
      </trkpt>
      <trkpt lat="45.92706" lon="4.73716">
        <ele>173</ele>
        <time>2017-12-09T09:53:49Z</time>
      </trkpt>
      <trkpt lat="45.92711" lon="4.73716">
        <ele>173</ele>
        <time>2017-12-09T09:53:50Z</time>
      </trkpt>
      <trkpt lat="45.92716" lon="4.73717">
        <ele>173</ele>
        <time>2017-12-09T09:53:51Z</time>
      </trkpt>
      <trkpt lat="45.92722" lon="4.73718">
        <ele>173</ele>
        <time>2017-12-09T09:53:52Z</time>
      </trkpt>
      <trkpt lat="45.92727" lon="4.73719">
        <ele>173</ele>
        <time>2017-12-09T09:53:53Z</time>
      </trkpt>
      <trkpt lat="45.92732" lon="4.73721">
        <ele>173</ele>
        <time>2017-12-09T09:53:54Z</time>
      </trkpt>
      <trkpt lat="45.92738" lon="4.73722">
        <ele>173</ele>
        <time>2017-12-09T09:53:55Z</time>
      </trkpt>
      <trkpt lat="45.92743" lon="4.73724">
        <ele>173</ele>
        <time>2017-12-09T09:53:56Z</time>
      </trkpt>
      <trkpt lat="45.92748" lon="4.73726">
        <ele>173</ele>
        <time>2017-12-09T09:53:57Z</time>
      </trkpt>
      <trkpt lat="45.92756" lon="4.7373">
        <ele>172</ele>
        <time>2017-12-09T09:53:59Z</time>
      </trkpt>
      <trkpt lat="45.9276" lon="4.73732">
        <ele>172</ele>
        <time>2017-12-09T09:54:00Z</time>
      </trkpt>
      <trkpt lat="45.92767" lon="4.73735">
        <ele>172</ele>
        <time>2017-12-09T09:54:02Z</time>
      </trkpt>
      <trkpt lat="45.9277" lon="4.73737">
        <ele>172</ele>
        <time>2017-12-09T09:54:03Z</time>
      </trkpt>
      <trkpt lat="45.92777" lon="4.73736">
        <ele>172</ele>
        <time>2017-12-09T09:54:05Z</time>
      </trkpt>
      <trkpt lat="45.92781" lon="4.73732">
        <ele>172</ele>
        <time>2017-12-09T09:54:06Z</time>
      </trkpt>
      <trkpt lat="45.92784" lon="4.73726">
        <ele>172</ele>
        <time>2017-12-09T09:54:07Z</time>
      </trkpt>
      <trkpt lat="45.92786" lon="4.7372">
        <ele>172</ele>
        <time>2017-12-09T09:54:08Z</time>
      </trkpt>
      <trkpt lat="45.92787" lon="4.73712">
        <ele>172</ele>
        <time>2017-12-09T09:54:09Z</time>
      </trkpt>
      <trkpt lat="45.92789" lon="4.73704">
        <ele>172</ele>
        <time>2017-12-09T09:54:10Z</time>
      </trkpt>
      <trkpt lat="45.9279" lon="4.73697">
        <ele>172</ele>
        <time>2017-12-09T09:54:11Z</time>
      </trkpt>
      <trkpt lat="45.92792" lon="4.7369">
        <ele>172</ele>
        <time>2017-12-09T09:54:12Z</time>
      </trkpt>
      <trkpt lat="45.92794" lon="4.73682">
        <ele>172</ele>
        <time>2017-12-09T09:54:13Z</time>
      </trkpt>
      <trkpt lat="45.92796" lon="4.73676">
        <ele>172</ele>
        <time>2017-12-09T09:54:14Z</time>
      </trkpt>
      <trkpt lat="45.92797" lon="4.7367">
        <ele>172</ele>
        <time>2017-12-09T09:54:15Z</time>
      </trkpt>
      <trkpt lat="45.92799" lon="4.73662">
        <ele>172</ele>
        <time>2017-12-09T09:54:16Z</time>
      </trkpt>
      <trkpt lat="45.92801" lon="4.73657">
        <ele>172</ele>
        <time>2017-12-09T09:54:17Z</time>
      </trkpt>
      <trkpt lat="45.92802" lon="4.7365">
        <ele>172</ele>
        <time>2017-12-09T09:54:18Z</time>
      </trkpt>
      <trkpt lat="45.92804" lon="4.73644">
        <ele>172</ele>
        <time>2017-12-09T09:54:19Z</time>
      </trkpt>
      <trkpt lat="45.92807" lon="4.73638">
        <ele>172</ele>
        <time>2017-12-09T09:54:20Z</time>
      </trkpt>
      <trkpt lat="45.92812" lon="4.73629">
        <ele>172</ele>
        <time>2017-12-09T09:54:22Z</time>
      </trkpt>
      <trkpt lat="45.92813" lon="4.73624">
        <ele>172</ele>
        <time>2017-12-09T09:54:23Z</time>
      </trkpt>
      <trkpt lat="45.92815" lon="4.73615">
        <ele>172</ele>
        <time>2017-12-09T09:54:25Z</time>
      </trkpt>
      <trkpt lat="45.92816" lon="4.73611">
        <ele>172</ele>
        <time>2017-12-09T09:54:26Z</time>
      </trkpt>
      <trkpt lat="45.92817" lon="4.73602">
        <ele>171</ele>
        <time>2017-12-09T09:54:28Z</time>
      </trkpt>
      <trkpt lat="45.92817" lon="4.73597">
        <ele>171</ele>
        <time>2017-12-09T09:54:29Z</time>
      </trkpt>
      <trkpt lat="45.92819" lon="4.73588">
        <ele>171</ele>
        <time>2017-12-09T09:54:31Z</time>
      </trkpt>
      <trkpt lat="45.92819" lon="4.73579">
        <ele>171</ele>
        <time>2017-12-09T09:54:32Z</time>
      </trkpt>
      <trkpt lat="45.92819" lon="4.73572">
        <ele>171</ele>
        <time>2017-12-09T09:54:33Z</time>
      </trkpt>
      <trkpt lat="45.92819" lon="4.73565">
        <ele>171</ele>
        <time>2017-12-09T09:54:34Z</time>
      </trkpt>
      <trkpt lat="45.9282" lon="4.73556">
        <ele>171</ele>
        <time>2017-12-09T09:54:35Z</time>
      </trkpt>
      <trkpt lat="45.92821" lon="4.73549">
        <ele>171</ele>
        <time>2017-12-09T09:54:36Z</time>
      </trkpt>
      <trkpt lat="45.92822" lon="4.73541">
        <ele>172</ele>
        <time>2017-12-09T09:54:37Z</time>
      </trkpt>
      <trkpt lat="45.92822" lon="4.73533">
        <ele>172</ele>
        <time>2017-12-09T09:54:38Z</time>
      </trkpt>
      <trkpt lat="45.92822" lon="4.73525">
        <ele>172</ele>
        <time>2017-12-09T09:54:39Z</time>
      </trkpt>
      <trkpt lat="45.92824" lon="4.73517">
        <ele>172</ele>
        <time>2017-12-09T09:54:40Z</time>
      </trkpt>
      <trkpt lat="45.92826" lon="4.73509">
        <ele>172</ele>
        <time>2017-12-09T09:54:41Z</time>
      </trkpt>
      <trkpt lat="45.92827" lon="4.73501">
        <ele>172</ele>
        <time>2017-12-09T09:54:42Z</time>
      </trkpt>
      <trkpt lat="45.92828" lon="4.73493">
        <ele>172</ele>
        <time>2017-12-09T09:54:43Z</time>
      </trkpt>
      <trkpt lat="45.92829" lon="4.73484">
        <ele>172</ele>
        <time>2017-12-09T09:54:44Z</time>
      </trkpt>
      <trkpt lat="45.9283" lon="4.73474">
        <ele>172</ele>
        <time>2017-12-09T09:54:45Z</time>
      </trkpt>
      <trkpt lat="45.92831" lon="4.73465">
        <ele>172</ele>
        <time>2017-12-09T09:54:46Z</time>
      </trkpt>
      <trkpt lat="45.92832" lon="4.73455">
        <ele>172</ele>
        <time>2017-12-09T09:54:47Z</time>
      </trkpt>
      <trkpt lat="45.92833" lon="4.73446">
        <ele>172</ele>
        <time>2017-12-09T09:54:48Z</time>
      </trkpt>
      <trkpt lat="45.92834" lon="4.73437">
        <ele>172</ele>
        <time>2017-12-09T09:54:49Z</time>
      </trkpt>
      <trkpt lat="45.92835" lon="4.73428">
        <ele>172</ele>
        <time>2017-12-09T09:54:50Z</time>
      </trkpt>
      <trkpt lat="45.92837" lon="4.73419">
        <ele>172</ele>
        <time>2017-12-09T09:54:51Z</time>
      </trkpt>
      <trkpt lat="45.92837" lon="4.73411">
        <ele>172</ele>
        <time>2017-12-09T09:54:52Z</time>
      </trkpt>
      <trkpt lat="45.92839" lon="4.73402">
        <ele>172</ele>
        <time>2017-12-09T09:54:53Z</time>
      </trkpt>
      <trkpt lat="45.9284" lon="4.73394">
        <ele>172</ele>
        <time>2017-12-09T09:54:54Z</time>
      </trkpt>
      <trkpt lat="45.92842" lon="4.73385">
        <ele>172</ele>
        <time>2017-12-09T09:54:55Z</time>
      </trkpt>
      <trkpt lat="45.92843" lon="4.73378">
        <ele>172</ele>
        <time>2017-12-09T09:54:56Z</time>
      </trkpt>
      <trkpt lat="45.92844" lon="4.7337">
        <ele>171</ele>
        <time>2017-12-09T09:54:57Z</time>
      </trkpt>
      <trkpt lat="45.92845" lon="4.73363">
        <ele>171</ele>
        <time>2017-12-09T09:54:58Z</time>
      </trkpt>
      <trkpt lat="45.92847" lon="4.73355">
        <ele>171</ele>
        <time>2017-12-09T09:54:59Z</time>
      </trkpt>
      <trkpt lat="45.92847" lon="4.73347">
        <ele>171</ele>
        <time>2017-12-09T09:55:00Z</time>
      </trkpt>
      <trkpt lat="45.92848" lon="4.7334">
        <ele>171</ele>
        <time>2017-12-09T09:55:01Z</time>
      </trkpt>
      <trkpt lat="45.9285" lon="4.73333">
        <ele>171</ele>
        <time>2017-12-09T09:55:02Z</time>
      </trkpt>
      <trkpt lat="45.92851" lon="4.73324">
        <ele>171</ele>
        <time>2017-12-09T09:55:03Z</time>
      </trkpt>
      <trkpt lat="45.92852" lon="4.73315">
        <ele>171</ele>
        <time>2017-12-09T09:55:04Z</time>
      </trkpt>
      <trkpt lat="45.92853" lon="4.73306">
        <ele>171</ele>
        <time>2017-12-09T09:55:05Z</time>
      </trkpt>
      <trkpt lat="45.92854" lon="4.73297">
        <ele>171</ele>
        <time>2017-12-09T09:55:06Z</time>
      </trkpt>
      <trkpt lat="45.92855" lon="4.73289">
        <ele>171</ele>
        <time>2017-12-09T09:55:07Z</time>
      </trkpt>
      <trkpt lat="45.92856" lon="4.73281">
        <ele>171</ele>
        <time>2017-12-09T09:55:08Z</time>
      </trkpt>
      <trkpt lat="45.92857" lon="4.73272">
        <ele>171</ele>
        <time>2017-12-09T09:55:09Z</time>
      </trkpt>
      <trkpt lat="45.92859" lon="4.73263">
        <ele>171</ele>
        <time>2017-12-09T09:55:10Z</time>
      </trkpt>
      <trkpt lat="45.92861" lon="4.73254">
        <ele>171</ele>
        <time>2017-12-09T09:55:11Z</time>
      </trkpt>
      <trkpt lat="45.92862" lon="4.73246">
        <ele>171</ele>
        <time>2017-12-09T09:55:12Z</time>
      </trkpt>
      <trkpt lat="45.92863" lon="4.73237">
        <ele>171</ele>
        <time>2017-12-09T09:55:13Z</time>
      </trkpt>
      <trkpt lat="45.92864" lon="4.73228">
        <ele>171</ele>
        <time>2017-12-09T09:55:14Z</time>
      </trkpt>
      <trkpt lat="45.92865" lon="4.7322">
        <ele>171</ele>
        <time>2017-12-09T09:55:15Z</time>
      </trkpt>
      <trkpt lat="45.92866" lon="4.73212">
        <ele>171</ele>
        <time>2017-12-09T09:55:16Z</time>
      </trkpt>
      <trkpt lat="45.92868" lon="4.73203">
        <ele>171</ele>
        <time>2017-12-09T09:55:17Z</time>
      </trkpt>
      <trkpt lat="45.92869" lon="4.73194">
        <ele>171</ele>
        <time>2017-12-09T09:55:18Z</time>
      </trkpt>
      <trkpt lat="45.92869" lon="4.73185">
        <ele>171</ele>
        <time>2017-12-09T09:55:19Z</time>
      </trkpt>
      <trkpt lat="45.9287" lon="4.73178">
        <ele>171</ele>
        <time>2017-12-09T09:55:20Z</time>
      </trkpt>
      <trkpt lat="45.92871" lon="4.7317">
        <ele>171</ele>
        <time>2017-12-09T09:55:21Z</time>
      </trkpt>
      <trkpt lat="45.92872" lon="4.73163">
        <ele>171</ele>
        <time>2017-12-09T09:55:22Z</time>
      </trkpt>
      <trkpt lat="45.92873" lon="4.73155">
        <ele>171</ele>
        <time>2017-12-09T09:55:23Z</time>
      </trkpt>
      <trkpt lat="45.92874" lon="4.73147">
        <ele>171</ele>
        <time>2017-12-09T09:55:24Z</time>
      </trkpt>
      <trkpt lat="45.92875" lon="4.73139">
        <ele>171</ele>
        <time>2017-12-09T09:55:25Z</time>
      </trkpt>
      <trkpt lat="45.92876" lon="4.73131">
        <ele>171</ele>
        <time>2017-12-09T09:55:26Z</time>
      </trkpt>
      <trkpt lat="45.92878" lon="4.73124">
        <ele>172</ele>
        <time>2017-12-09T09:55:27Z</time>
      </trkpt>
      <trkpt lat="45.9288" lon="4.73114">
        <ele>172</ele>
        <time>2017-12-09T09:55:28Z</time>
      </trkpt>
      <trkpt lat="45.92882" lon="4.73106">
        <ele>172</ele>
        <time>2017-12-09T09:55:29Z</time>
      </trkpt>
      <trkpt lat="45.92884" lon="4.73098">
        <ele>172</ele>
        <time>2017-12-09T09:55:30Z</time>
      </trkpt>
      <trkpt lat="45.92887" lon="4.73091">
        <ele>172</ele>
        <time>2017-12-09T09:55:31Z</time>
      </trkpt>
      <trkpt lat="45.92889" lon="4.73083">
        <ele>172</ele>
        <time>2017-12-09T09:55:32Z</time>
      </trkpt>
      <trkpt lat="45.92892" lon="4.73077">
        <ele>172</ele>
        <time>2017-12-09T09:55:33Z</time>
      </trkpt>
      <trkpt lat="45.92895" lon="4.73069">
        <ele>172</ele>
        <time>2017-12-09T09:55:34Z</time>
      </trkpt>
      <trkpt lat="45.92898" lon="4.73062">
        <ele>172</ele>
        <time>2017-12-09T09:55:35Z</time>
      </trkpt>
      <trkpt lat="45.92902" lon="4.73055">
        <ele>172</ele>
        <time>2017-12-09T09:55:36Z</time>
      </trkpt>
      <trkpt lat="45.92906" lon="4.73049">
        <ele>172</ele>
        <time>2017-12-09T09:55:37Z</time>
      </trkpt>
      <trkpt lat="45.92909" lon="4.73042">
        <ele>172</ele>
        <time>2017-12-09T09:55:38Z</time>
      </trkpt>
      <trkpt lat="45.92913" lon="4.73035">
        <ele>172</ele>
        <time>2017-12-09T09:55:39Z</time>
      </trkpt>
      <trkpt lat="45.92917" lon="4.73028">
        <ele>172</ele>
        <time>2017-12-09T09:55:40Z</time>
      </trkpt>
      <trkpt lat="45.92921" lon="4.73022">
        <ele>172</ele>
        <time>2017-12-09T09:55:41Z</time>
      </trkpt>
      <trkpt lat="45.92926" lon="4.73016">
        <ele>172</ele>
        <time>2017-12-09T09:55:42Z</time>
      </trkpt>
      <trkpt lat="45.9293" lon="4.7301">
        <ele>172</ele>
        <time>2017-12-09T09:55:43Z</time>
      </trkpt>
      <trkpt lat="45.92933" lon="4.73003">
        <ele>171</ele>
        <time>2017-12-09T09:55:44Z</time>
      </trkpt>
      <trkpt lat="45.92938" lon="4.72997">
        <ele>171</ele>
        <time>2017-12-09T09:55:45Z</time>
      </trkpt>
      <trkpt lat="45.92942" lon="4.72992">
        <ele>171</ele>
        <time>2017-12-09T09:55:46Z</time>
      </trkpt>
      <trkpt lat="45.92947" lon="4.72988">
        <ele>171</ele>
        <time>2017-12-09T09:55:47Z</time>
      </trkpt>
      <trkpt lat="45.9295" lon="4.72983">
        <ele>171</ele>
        <time>2017-12-09T09:55:48Z</time>
      </trkpt>
      <trkpt lat="45.92955" lon="4.72978">
        <ele>171</ele>
        <time>2017-12-09T09:55:49Z</time>
      </trkpt>
      <trkpt lat="45.92959" lon="4.72973">
        <ele>171</ele>
        <time>2017-12-09T09:55:50Z</time>
      </trkpt>
      <trkpt lat="45.92963" lon="4.72969">
        <ele>171</ele>
        <time>2017-12-09T09:55:51Z</time>
      </trkpt>
      <trkpt lat="45.92967" lon="4.72963">
        <ele>171</ele>
        <time>2017-12-09T09:55:52Z</time>
      </trkpt>
      <trkpt lat="45.92972" lon="4.72958">
        <ele>171</ele>
        <time>2017-12-09T09:55:53Z</time>
      </trkpt>
      <trkpt lat="45.92977" lon="4.72952">
        <ele>171</ele>
        <time>2017-12-09T09:55:54Z</time>
      </trkpt>
      <trkpt lat="45.92982" lon="4.72946">
        <ele>171</ele>
        <time>2017-12-09T09:55:55Z</time>
      </trkpt>
      <trkpt lat="45.92986" lon="4.7294">
        <ele>171</ele>
        <time>2017-12-09T09:55:56Z</time>
      </trkpt>
      <trkpt lat="45.9299" lon="4.72935">
        <ele>171</ele>
        <time>2017-12-09T09:55:57Z</time>
      </trkpt>
      <trkpt lat="45.92996" lon="4.72929">
        <ele>171</ele>
        <time>2017-12-09T09:55:58Z</time>
      </trkpt>
      <trkpt lat="45.93001" lon="4.72923">
        <ele>171</ele>
        <time>2017-12-09T09:55:59Z</time>
      </trkpt>
      <trkpt lat="45.93006" lon="4.72918">
        <ele>171</ele>
        <time>2017-12-09T09:56:00Z</time>
      </trkpt>
      <trkpt lat="45.93011" lon="4.72912">
        <ele>171</ele>
        <time>2017-12-09T09:56:01Z</time>
      </trkpt>
      <trkpt lat="45.93016" lon="4.72905">
        <ele>172</ele>
        <time>2017-12-09T09:56:02Z</time>
      </trkpt>
      <trkpt lat="45.9302" lon="4.729">
        <ele>172</ele>
        <time>2017-12-09T09:56:03Z</time>
      </trkpt>
      <trkpt lat="45.93025" lon="4.72894">
        <ele>172</ele>
        <time>2017-12-09T09:56:04Z</time>
      </trkpt>
      <trkpt lat="45.9303" lon="4.72888">
        <ele>172</ele>
        <time>2017-12-09T09:56:05Z</time>
      </trkpt>
      <trkpt lat="45.93034" lon="4.72883">
        <ele>172</ele>
        <time>2017-12-09T09:56:06Z</time>
      </trkpt>
      <trkpt lat="45.93039" lon="4.72878">
        <ele>172</ele>
        <time>2017-12-09T09:56:07Z</time>
      </trkpt>
      <trkpt lat="45.93043" lon="4.72873">
        <ele>172</ele>
        <time>2017-12-09T09:56:08Z</time>
      </trkpt>
      <trkpt lat="45.93047" lon="4.72866">
        <ele>172</ele>
        <time>2017-12-09T09:56:09Z</time>
      </trkpt>
      <trkpt lat="45.93052" lon="4.72861">
        <ele>172</ele>
        <time>2017-12-09T09:56:10Z</time>
      </trkpt>
      <trkpt lat="45.93056" lon="4.72856">
        <ele>172</ele>
        <time>2017-12-09T09:56:11Z</time>
      </trkpt>
      <trkpt lat="45.9306" lon="4.72852">
        <ele>172</ele>
        <time>2017-12-09T09:56:12Z</time>
      </trkpt>
      <trkpt lat="45.93064" lon="4.72847">
        <ele>172</ele>
        <time>2017-12-09T09:56:13Z</time>
      </trkpt>
      <trkpt lat="45.93068" lon="4.72842">
        <ele>173</ele>
        <time>2017-12-09T09:56:14Z</time>
      </trkpt>
      <trkpt lat="45.93078" lon="4.72818">
        <ele>172</ele>
        <time>2017-12-09T09:56:18Z</time>
      </trkpt>
      <trkpt lat="45.93078" lon="4.72807">
        <ele>172</ele>
        <time>2017-12-09T09:56:19Z</time>
      </trkpt>
      <trkpt lat="45.93091" lon="4.72799">
        <ele>171</ele>
        <time>2017-12-09T09:56:20Z</time>
      </trkpt>
      <trkpt lat="45.93095" lon="4.72797">
        <ele>171</ele>
        <time>2017-12-09T09:56:21Z</time>
      </trkpt>
      <trkpt lat="45.93101" lon="4.72793">
        <ele>171</ele>
        <time>2017-12-09T09:56:22Z</time>
      </trkpt>
      <trkpt lat="45.93107" lon="4.72789">
        <ele>171</ele>
        <time>2017-12-09T09:56:23Z</time>
      </trkpt>
      <trkpt lat="45.93112" lon="4.72786">
        <ele>171</ele>
        <time>2017-12-09T09:56:24Z</time>
      </trkpt>
      <trkpt lat="45.93116" lon="4.7278">
        <ele>171</ele>
        <time>2017-12-09T09:56:25Z</time>
      </trkpt>
      <trkpt lat="45.93122" lon="4.72775">
        <ele>171</ele>
        <time>2017-12-09T09:56:26Z</time>
      </trkpt>
      <trkpt lat="45.93128" lon="4.72771">
        <ele>171</ele>
        <time>2017-12-09T09:56:27Z</time>
      </trkpt>
      <trkpt lat="45.93132" lon="4.72766">
        <ele>171</ele>
        <time>2017-12-09T09:56:28Z</time>
      </trkpt>
      <trkpt lat="45.93137" lon="4.72761">
        <ele>171</ele>
        <time>2017-12-09T09:56:29Z</time>
      </trkpt>
      <trkpt lat="45.93142" lon="4.72757">
        <ele>171</ele>
        <time>2017-12-09T09:56:30Z</time>
      </trkpt>
      <trkpt lat="45.93149" lon="4.72754">
        <ele>170</ele>
        <time>2017-12-09T09:56:31Z</time>
      </trkpt>
      <trkpt lat="45.93153" lon="4.72749">
        <ele>170</ele>
        <time>2017-12-09T09:56:32Z</time>
      </trkpt>
      <trkpt lat="45.93158" lon="4.72744">
        <ele>170</ele>
        <time>2017-12-09T09:56:33Z</time>
      </trkpt>
      <trkpt lat="45.93162" lon="4.72738">
        <ele>170</ele>
        <time>2017-12-09T09:56:34Z</time>
      </trkpt>
      <trkpt lat="45.93167" lon="4.72733">
        <ele>170</ele>
        <time>2017-12-09T09:56:35Z</time>
      </trkpt>
      <trkpt lat="45.93172" lon="4.72726">
        <ele>170</ele>
        <time>2017-12-09T09:56:36Z</time>
      </trkpt>
      <trkpt lat="45.93177" lon="4.7272">
        <ele>170</ele>
        <time>2017-12-09T09:56:37Z</time>
      </trkpt>
      <trkpt lat="45.93181" lon="4.72715">
        <ele>169</ele>
        <time>2017-12-09T09:56:38Z</time>
      </trkpt>
      <trkpt lat="45.93185" lon="4.72709">
        <ele>169</ele>
        <time>2017-12-09T09:56:39Z</time>
      </trkpt>
      <trkpt lat="45.93191" lon="4.72704">
        <ele>169</ele>
        <time>2017-12-09T09:56:40Z</time>
      </trkpt>
      <trkpt lat="45.93195" lon="4.72698">
        <ele>169</ele>
        <time>2017-12-09T09:56:41Z</time>
      </trkpt>
      <trkpt lat="45.93199" lon="4.72693">
        <ele>169</ele>
        <time>2017-12-09T09:56:42Z</time>
      </trkpt>
      <trkpt lat="45.93204" lon="4.72686">
        <ele>169</ele>
        <time>2017-12-09T09:56:43Z</time>
      </trkpt>
      <trkpt lat="45.93209" lon="4.72681">
        <ele>169</ele>
        <time>2017-12-09T09:56:44Z</time>
      </trkpt>
      <trkpt lat="45.93213" lon="4.72676">
        <ele>169</ele>
        <time>2017-12-09T09:56:45Z</time>
      </trkpt>
      <trkpt lat="45.93218" lon="4.7267">
        <ele>169</ele>
        <time>2017-12-09T09:56:46Z</time>
      </trkpt>
      <trkpt lat="45.93223" lon="4.72664">
        <ele>170</ele>
        <time>2017-12-09T09:56:47Z</time>
      </trkpt>
      <trkpt lat="45.93227" lon="4.72659">
        <ele>170</ele>
        <time>2017-12-09T09:56:48Z</time>
      </trkpt>
      <trkpt lat="45.93232" lon="4.72652">
        <ele>170</ele>
        <time>2017-12-09T09:56:49Z</time>
      </trkpt>
      <trkpt lat="45.93237" lon="4.72647">
        <ele>170</ele>
        <time>2017-12-09T09:56:50Z</time>
      </trkpt>
      <trkpt lat="45.93241" lon="4.7264">
        <ele>170</ele>
        <time>2017-12-09T09:56:51Z</time>
      </trkpt>
      <trkpt lat="45.93247" lon="4.72634">
        <ele>170</ele>
        <time>2017-12-09T09:56:52Z</time>
      </trkpt>
      <trkpt lat="45.93252" lon="4.72629">
        <ele>170</ele>
        <time>2017-12-09T09:56:53Z</time>
      </trkpt>
      <trkpt lat="45.93257" lon="4.72622">
        <ele>170</ele>
        <time>2017-12-09T09:56:54Z</time>
      </trkpt>
      <trkpt lat="45.93262" lon="4.72617">
        <ele>170</ele>
        <time>2017-12-09T09:56:55Z</time>
      </trkpt>
      <trkpt lat="45.93266" lon="4.72611">
        <ele>170</ele>
        <time>2017-12-09T09:56:56Z</time>
      </trkpt>
      <trkpt lat="45.93272" lon="4.72606">
        <ele>170</ele>
        <time>2017-12-09T09:56:57Z</time>
      </trkpt>
      <trkpt lat="45.93277" lon="4.72599">
        <ele>170</ele>
        <time>2017-12-09T09:56:58Z</time>
      </trkpt>
      <trkpt lat="45.93281" lon="4.72594">
        <ele>170</ele>
        <time>2017-12-09T09:56:59Z</time>
      </trkpt>
      <trkpt lat="45.93286" lon="4.72588">
        <ele>170</ele>
        <time>2017-12-09T09:57:00Z</time>
      </trkpt>
      <trkpt lat="45.9329" lon="4.72584">
        <ele>170</ele>
        <time>2017-12-09T09:57:01Z</time>
      </trkpt>
      <trkpt lat="45.93295" lon="4.72579">
        <ele>171</ele>
        <time>2017-12-09T09:57:02Z</time>
      </trkpt>
      <trkpt lat="45.93299" lon="4.72574">
        <ele>171</ele>
        <time>2017-12-09T09:57:03Z</time>
      </trkpt>
      <trkpt lat="45.93303" lon="4.7257">
        <ele>171</ele>
        <time>2017-12-09T09:57:04Z</time>
      </trkpt>
      <trkpt lat="45.93309" lon="4.72565">
        <ele>171</ele>
        <time>2017-12-09T09:57:05Z</time>
      </trkpt>
      <trkpt lat="45.93313" lon="4.7256">
        <ele>171</ele>
        <time>2017-12-09T09:57:06Z</time>
      </trkpt>
      <trkpt lat="45.93317" lon="4.72554">
        <ele>172</ele>
        <time>2017-12-09T09:57:07Z</time>
      </trkpt>
      <trkpt lat="45.93322" lon="4.72549">
        <ele>172</ele>
        <time>2017-12-09T09:57:08Z</time>
      </trkpt>
      <trkpt lat="45.93326" lon="4.72543">
        <ele>172</ele>
        <time>2017-12-09T09:57:09Z</time>
      </trkpt>
      <trkpt lat="45.93331" lon="4.72537">
        <ele>172</ele>
        <time>2017-12-09T09:57:10Z</time>
      </trkpt>
      <trkpt lat="45.93336" lon="4.72533">
        <ele>172</ele>
        <time>2017-12-09T09:57:11Z</time>
      </trkpt>
      <trkpt lat="45.93341" lon="4.72528">
        <ele>172</ele>
        <time>2017-12-09T09:57:12Z</time>
      </trkpt>
      <trkpt lat="45.93346" lon="4.72522">
        <ele>172</ele>
        <time>2017-12-09T09:57:13Z</time>
      </trkpt>
      <trkpt lat="45.93351" lon="4.72517">
        <ele>172</ele>
        <time>2017-12-09T09:57:14Z</time>
      </trkpt>
      <trkpt lat="45.93355" lon="4.72511">
        <ele>172</ele>
        <time>2017-12-09T09:57:15Z</time>
      </trkpt>
      <trkpt lat="45.9336" lon="4.72506">
        <ele>172</ele>
        <time>2017-12-09T09:57:16Z</time>
      </trkpt>
      <trkpt lat="45.93365" lon="4.72502">
        <ele>172</ele>
        <time>2017-12-09T09:57:17Z</time>
      </trkpt>
      <trkpt lat="45.9337" lon="4.72496">
        <ele>173</ele>
        <time>2017-12-09T09:57:18Z</time>
      </trkpt>
      <trkpt lat="45.93375" lon="4.7249">
        <ele>173</ele>
        <time>2017-12-09T09:57:19Z</time>
      </trkpt>
      <trkpt lat="45.9338" lon="4.72484">
        <ele>173</ele>
        <time>2017-12-09T09:57:20Z</time>
      </trkpt>
      <trkpt lat="45.93385" lon="4.72479">
        <ele>173</ele>
        <time>2017-12-09T09:57:21Z</time>
      </trkpt>
      <trkpt lat="45.93389" lon="4.72473">
        <ele>173</ele>
        <time>2017-12-09T09:57:22Z</time>
      </trkpt>
      <trkpt lat="45.93392" lon="4.72467">
        <ele>173</ele>
        <time>2017-12-09T09:57:23Z</time>
      </trkpt>
      <trkpt lat="45.93395" lon="4.7246">
        <ele>173</ele>
        <time>2017-12-09T09:57:24Z</time>
      </trkpt>
      <trkpt lat="45.93397" lon="4.72455">
        <ele>173</ele>
        <time>2017-12-09T09:57:25Z</time>
      </trkpt>
      <trkpt lat="45.93399" lon="4.72447">
        <ele>173</ele>
        <time>2017-12-09T09:57:26Z</time>
      </trkpt>
      <trkpt lat="45.93401" lon="4.72441">
        <ele>173</ele>
        <time>2017-12-09T09:57:27Z</time>
      </trkpt>
      <trkpt lat="45.93403" lon="4.72436">
        <ele>173</ele>
        <time>2017-12-09T09:57:28Z</time>
      </trkpt>
      <trkpt lat="45.93405" lon="4.7243">
        <ele>173</ele>
        <time>2017-12-09T09:57:29Z</time>
      </trkpt>
      <trkpt lat="45.93409" lon="4.72424">
        <ele>174</ele>
        <time>2017-12-09T09:57:30Z</time>
      </trkpt>
      <trkpt lat="45.93414" lon="4.72421">
        <ele>174</ele>
        <time>2017-12-09T09:57:31Z</time>
      </trkpt>
      <trkpt lat="45.93419" lon="4.72417">
        <ele>174</ele>
        <time>2017-12-09T09:57:32Z</time>
      </trkpt>
      <trkpt lat="45.93424" lon="4.72414">
        <ele>174</ele>
        <time>2017-12-09T09:57:33Z</time>
      </trkpt>
      <trkpt lat="45.93429" lon="4.72411">
        <ele>174</ele>
        <time>2017-12-09T09:57:34Z</time>
      </trkpt>
      <trkpt lat="45.93435" lon="4.72407">
        <ele>174</ele>
        <time>2017-12-09T09:57:35Z</time>
      </trkpt>
      <trkpt lat="45.9344" lon="4.72404">
        <ele>173</ele>
        <time>2017-12-09T09:57:36Z</time>
      </trkpt>
      <trkpt lat="45.93445" lon="4.72401">
        <ele>173</ele>
        <time>2017-12-09T09:57:37Z</time>
      </trkpt>
      <trkpt lat="45.9345" lon="4.72397">
        <ele>173</ele>
        <time>2017-12-09T09:57:38Z</time>
      </trkpt>
      <trkpt lat="45.93456" lon="4.72391">
        <ele>173</ele>
        <time>2017-12-09T09:57:39Z</time>
      </trkpt>
      <trkpt lat="45.93461" lon="4.72385">
        <ele>173</ele>
        <time>2017-12-09T09:57:40Z</time>
      </trkpt>
      <trkpt lat="45.93466" lon="4.7238">
        <ele>173</ele>
        <time>2017-12-09T09:57:41Z</time>
      </trkpt>
      <trkpt lat="45.93471" lon="4.72374">
        <ele>173</ele>
        <time>2017-12-09T09:57:42Z</time>
      </trkpt>
      <trkpt lat="45.93475" lon="4.72368">
        <ele>173</ele>
        <time>2017-12-09T09:57:43Z</time>
      </trkpt>
      <trkpt lat="45.93479" lon="4.72364">
        <ele>173</ele>
        <time>2017-12-09T09:57:44Z</time>
      </trkpt>
      <trkpt lat="45.93483" lon="4.72359">
        <ele>173</ele>
        <time>2017-12-09T09:57:45Z</time>
      </trkpt>
      <trkpt lat="45.93488" lon="4.72354">
        <ele>173</ele>
        <time>2017-12-09T09:57:46Z</time>
      </trkpt>
      <trkpt lat="45.93493" lon="4.72349">
        <ele>173</ele>
        <time>2017-12-09T09:57:47Z</time>
      </trkpt>
      <trkpt lat="45.93496" lon="4.72343">
        <ele>173</ele>
        <time>2017-12-09T09:57:48Z</time>
      </trkpt>
      <trkpt lat="45.935" lon="4.72336">
        <ele>173</ele>
        <time>2017-12-09T09:57:49Z</time>
      </trkpt>
      <trkpt lat="45.93504" lon="4.7233">
        <ele>173</ele>
        <time>2017-12-09T09:57:50Z</time>
      </trkpt>
      <trkpt lat="45.93508" lon="4.72324">
        <ele>173</ele>
        <time>2017-12-09T09:57:51Z</time>
      </trkpt>
      <trkpt lat="45.93512" lon="4.72317">
        <ele>173</ele>
        <time>2017-12-09T09:57:52Z</time>
      </trkpt>
      <trkpt lat="45.93515" lon="4.72312">
        <ele>173</ele>
        <time>2017-12-09T09:57:53Z</time>
      </trkpt>
      <trkpt lat="45.93519" lon="4.72306">
        <ele>173</ele>
        <time>2017-12-09T09:57:54Z</time>
      </trkpt>
      <trkpt lat="45.93522" lon="4.72301">
        <ele>172</ele>
        <time>2017-12-09T09:57:55Z</time>
      </trkpt>
      <trkpt lat="45.93525" lon="4.72295">
        <ele>172</ele>
        <time>2017-12-09T09:57:56Z</time>
      </trkpt>
      <trkpt lat="45.93528" lon="4.72288">
        <ele>172</ele>
        <time>2017-12-09T09:57:57Z</time>
      </trkpt>
      <trkpt lat="45.93531" lon="4.72282">
        <ele>172</ele>
        <time>2017-12-09T09:57:58Z</time>
      </trkpt>
      <trkpt lat="45.93533" lon="4.72276">
        <ele>172</ele>
        <time>2017-12-09T09:57:59Z</time>
      </trkpt>
      <trkpt lat="45.93536" lon="4.7227">
        <ele>172</ele>
        <time>2017-12-09T09:58:00Z</time>
      </trkpt>
      <trkpt lat="45.93539" lon="4.72264">
        <ele>172</ele>
        <time>2017-12-09T09:58:01Z</time>
      </trkpt>
      <trkpt lat="45.93542" lon="4.72257">
        <ele>172</ele>
        <time>2017-12-09T09:58:02Z</time>
      </trkpt>
      <trkpt lat="45.93545" lon="4.7225">
        <ele>172</ele>
        <time>2017-12-09T09:58:03Z</time>
      </trkpt>
      <trkpt lat="45.93548" lon="4.72243">
        <ele>172</ele>
        <time>2017-12-09T09:58:04Z</time>
      </trkpt>
      <trkpt lat="45.93552" lon="4.72237">
        <ele>172</ele>
        <time>2017-12-09T09:58:05Z</time>
      </trkpt>
      <trkpt lat="45.93555" lon="4.72229">
        <ele>173</ele>
        <time>2017-12-09T09:58:06Z</time>
      </trkpt>
      <trkpt lat="45.93559" lon="4.72221">
        <ele>173</ele>
        <time>2017-12-09T09:58:07Z</time>
      </trkpt>
      <trkpt lat="45.93562" lon="4.72215">
        <ele>173</ele>
        <time>2017-12-09T09:58:08Z</time>
      </trkpt>
      <trkpt lat="45.93567" lon="4.7221">
        <ele>173</ele>
        <time>2017-12-09T09:58:09Z</time>
      </trkpt>
      <trkpt lat="45.93571" lon="4.72205">
        <ele>173</ele>
        <time>2017-12-09T09:58:10Z</time>
      </trkpt>
      <trkpt lat="45.93576" lon="4.72199">
        <ele>173</ele>
        <time>2017-12-09T09:58:11Z</time>
      </trkpt>
      <trkpt lat="45.9358" lon="4.72195">
        <ele>173</ele>
        <time>2017-12-09T09:58:12Z</time>
      </trkpt>
      <trkpt lat="45.93586" lon="4.7219">
        <ele>173</ele>
        <time>2017-12-09T09:58:13Z</time>
      </trkpt>
      <trkpt lat="45.93591" lon="4.72185">
        <ele>173</ele>
        <time>2017-12-09T09:58:14Z</time>
      </trkpt>
      <trkpt lat="45.93595" lon="4.72182">
        <ele>173</ele>
        <time>2017-12-09T09:58:15Z</time>
      </trkpt>
      <trkpt lat="45.936" lon="4.72178">
        <ele>173</ele>
        <time>2017-12-09T09:58:16Z</time>
      </trkpt>
      <trkpt lat="45.93607" lon="4.72171">
        <ele>173</ele>
        <time>2017-12-09T09:58:18Z</time>
      </trkpt>
      <trkpt lat="45.93609" lon="4.72174">
        <ele>173</ele>
        <time>2017-12-09T09:58:19Z</time>
      </trkpt>
      <trkpt lat="45.93612" lon="4.72169">
        <ele>173</ele>
        <time>2017-12-09T09:58:20Z</time>
      </trkpt>
      <trkpt lat="45.93618" lon="4.72166">
        <ele>173</ele>
        <time>2017-12-09T09:58:21Z</time>
      </trkpt>
      <trkpt lat="45.93623" lon="4.72162">
        <ele>173</ele>
        <time>2017-12-09T09:58:22Z</time>
      </trkpt>
      <trkpt lat="45.93627" lon="4.72157">
        <ele>173</ele>
        <time>2017-12-09T09:58:23Z</time>
      </trkpt>
      <trkpt lat="45.93631" lon="4.72151">
        <ele>173</ele>
        <time>2017-12-09T09:58:24Z</time>
      </trkpt>
      <trkpt lat="45.93634" lon="4.72145">
        <ele>173</ele>
        <time>2017-12-09T09:58:25Z</time>
      </trkpt>
      <trkpt lat="45.93638" lon="4.72139">
        <ele>173</ele>
        <time>2017-12-09T09:58:26Z</time>
      </trkpt>
      <trkpt lat="45.93641" lon="4.72134">
        <ele>173</ele>
        <time>2017-12-09T09:58:27Z</time>
      </trkpt>
      <trkpt lat="45.93643" lon="4.72126">
        <ele>173</ele>
        <time>2017-12-09T09:58:28Z</time>
      </trkpt>
      <trkpt lat="45.93645" lon="4.72121">
        <ele>173</ele>
        <time>2017-12-09T09:58:29Z</time>
      </trkpt>
      <trkpt lat="45.93651" lon="4.72118">
        <ele>173</ele>
        <time>2017-12-09T09:58:30Z</time>
      </trkpt>
      <trkpt lat="45.93654" lon="4.72114">
        <ele>173</ele>
        <time>2017-12-09T09:58:31Z</time>
      </trkpt>
      <trkpt lat="45.93658" lon="4.72106">
        <ele>173</ele>
        <time>2017-12-09T09:58:32Z</time>
      </trkpt>
      <trkpt lat="45.93662" lon="4.72099">
        <ele>173</ele>
        <time>2017-12-09T09:58:33Z</time>
      </trkpt>
      <trkpt lat="45.93667" lon="4.72094">
        <ele>172</ele>
        <time>2017-12-09T09:58:34Z</time>
      </trkpt>
      <trkpt lat="45.9367" lon="4.72087">
        <ele>172</ele>
        <time>2017-12-09T09:58:35Z</time>
      </trkpt>
      <trkpt lat="45.93673" lon="4.7208">
        <ele>172</ele>
        <time>2017-12-09T09:58:36Z</time>
      </trkpt>
      <trkpt lat="45.93679" lon="4.72073">
        <ele>172</ele>
        <time>2017-12-09T09:58:37Z</time>
      </trkpt>
      <trkpt lat="45.93681" lon="4.72065">
        <ele>172</ele>
        <time>2017-12-09T09:58:38Z</time>
      </trkpt>
      <trkpt lat="45.93685" lon="4.72057">
        <ele>172</ele>
        <time>2017-12-09T09:58:39Z</time>
      </trkpt>
      <trkpt lat="45.93689" lon="4.7205">
        <ele>172</ele>
        <time>2017-12-09T09:58:40Z</time>
      </trkpt>
      <trkpt lat="45.93694" lon="4.72043">
        <ele>173</ele>
        <time>2017-12-09T09:58:41Z</time>
      </trkpt>
      <trkpt lat="45.93698" lon="4.72036">
        <ele>172</ele>
        <time>2017-12-09T09:58:42Z</time>
      </trkpt>
      <trkpt lat="45.93701" lon="4.72029">
        <ele>172</ele>
        <time>2017-12-09T09:58:43Z</time>
      </trkpt>
      <trkpt lat="45.93704" lon="4.72023">
        <ele>172</ele>
        <time>2017-12-09T09:58:44Z</time>
      </trkpt>
      <trkpt lat="45.93709" lon="4.72018">
        <ele>172</ele>
        <time>2017-12-09T09:58:45Z</time>
      </trkpt>
      <trkpt lat="45.93712" lon="4.72011">
        <ele>172</ele>
        <time>2017-12-09T09:58:46Z</time>
      </trkpt>
      <trkpt lat="45.93715" lon="4.72005">
        <ele>172</ele>
        <time>2017-12-09T09:58:47Z</time>
      </trkpt>
      <trkpt lat="45.93719" lon="4.71998">
        <ele>172</ele>
        <time>2017-12-09T09:58:48Z</time>
      </trkpt>
      <trkpt lat="45.93723" lon="4.71992">
        <ele>172</ele>
        <time>2017-12-09T09:58:49Z</time>
      </trkpt>
      <trkpt lat="45.93727" lon="4.71986">
        <ele>172</ele>
        <time>2017-12-09T09:58:50Z</time>
      </trkpt>
      <trkpt lat="45.93731" lon="4.71979">
        <ele>172</ele>
        <time>2017-12-09T09:58:51Z</time>
      </trkpt>
      <trkpt lat="45.93735" lon="4.71971">
        <ele>172</ele>
        <time>2017-12-09T09:58:52Z</time>
      </trkpt>
      <trkpt lat="45.93738" lon="4.71966">
        <ele>172</ele>
        <time>2017-12-09T09:58:53Z</time>
      </trkpt>
      <trkpt lat="45.93744" lon="4.71963">
        <ele>172</ele>
        <time>2017-12-09T09:58:54Z</time>
      </trkpt>
      <trkpt lat="45.93749" lon="4.71957">
        <ele>172</ele>
        <time>2017-12-09T09:58:55Z</time>
      </trkpt>
      <trkpt lat="45.93754" lon="4.71951">
        <ele>171</ele>
        <time>2017-12-09T09:58:56Z</time>
      </trkpt>
      <trkpt lat="45.93758" lon="4.71944">
        <ele>171</ele>
        <time>2017-12-09T09:58:57Z</time>
      </trkpt>
      <trkpt lat="45.93763" lon="4.71937">
        <ele>171</ele>
        <time>2017-12-09T09:58:58Z</time>
      </trkpt>
      <trkpt lat="45.93766" lon="4.7193">
        <ele>171</ele>
        <time>2017-12-09T09:58:59Z</time>
      </trkpt>
      <trkpt lat="45.93769" lon="4.71924">
        <ele>171</ele>
        <time>2017-12-09T09:59:00Z</time>
      </trkpt>
      <trkpt lat="45.93773" lon="4.71919">
        <ele>171</ele>
        <time>2017-12-09T09:59:01Z</time>
      </trkpt>
      <trkpt lat="45.93778" lon="4.71915">
        <ele>172</ele>
        <time>2017-12-09T09:59:02Z</time>
      </trkpt>
      <trkpt lat="45.9378" lon="4.71908">
        <ele>172</ele>
        <time>2017-12-09T09:59:03Z</time>
      </trkpt>
      <trkpt lat="45.93781" lon="4.71901">
        <ele>172</ele>
        <time>2017-12-09T09:59:04Z</time>
      </trkpt>
      <trkpt lat="45.93783" lon="4.71895">
        <ele>172</ele>
        <time>2017-12-09T09:59:05Z</time>
      </trkpt>
      <trkpt lat="45.93785" lon="4.71883">
        <ele>172</ele>
        <time>2017-12-09T09:59:07Z</time>
      </trkpt>
      <trkpt lat="45.93786" lon="4.71878">
        <ele>172</ele>
        <time>2017-12-09T09:59:08Z</time>
      </trkpt>
      <trkpt lat="45.93792" lon="4.71871">
        <ele>172</ele>
        <time>2017-12-09T09:59:09Z</time>
      </trkpt>
      <trkpt lat="45.93795" lon="4.71865">
        <ele>172</ele>
        <time>2017-12-09T09:59:10Z</time>
      </trkpt>
      <trkpt lat="45.93799" lon="4.71858">
        <ele>172</ele>
        <time>2017-12-09T09:59:11Z</time>
      </trkpt>
      <trkpt lat="45.93802" lon="4.71851">
        <ele>172</ele>
        <time>2017-12-09T09:59:12Z</time>
      </trkpt>
      <trkpt lat="45.93807" lon="4.71843">
        <ele>172</ele>
        <time>2017-12-09T09:59:13Z</time>
      </trkpt>
      <trkpt lat="45.9381" lon="4.71837">
        <ele>172</ele>
        <time>2017-12-09T09:59:14Z</time>
      </trkpt>
      <trkpt lat="45.93813" lon="4.71829">
        <ele>173</ele>
        <time>2017-12-09T09:59:15Z</time>
      </trkpt>
      <trkpt lat="45.93816" lon="4.71822">
        <ele>173</ele>
        <time>2017-12-09T09:59:16Z</time>
      </trkpt>
      <trkpt lat="45.9382" lon="4.71816">
        <ele>173</ele>
        <time>2017-12-09T09:59:17Z</time>
      </trkpt>
      <trkpt lat="45.93824" lon="4.7181">
        <ele>173</ele>
        <time>2017-12-09T09:59:18Z</time>
      </trkpt>
      <trkpt lat="45.93827" lon="4.71804">
        <ele>174</ele>
        <time>2017-12-09T09:59:19Z</time>
      </trkpt>
      <trkpt lat="45.9383" lon="4.71797">
        <ele>174</ele>
        <time>2017-12-09T09:59:20Z</time>
      </trkpt>
      <trkpt lat="45.93835" lon="4.71788">
        <ele>173</ele>
        <time>2017-12-09T09:59:21Z</time>
      </trkpt>
      <trkpt lat="45.9384" lon="4.71782">
        <ele>173</ele>
        <time>2017-12-09T09:59:22Z</time>
      </trkpt>
      <trkpt lat="45.93846" lon="4.71777">
        <ele>173</ele>
        <time>2017-12-09T09:59:23Z</time>
      </trkpt>
      <trkpt lat="45.9385" lon="4.7177">
        <ele>173</ele>
        <time>2017-12-09T09:59:24Z</time>
      </trkpt>
      <trkpt lat="45.93854" lon="4.71764">
        <ele>173</ele>
        <time>2017-12-09T09:59:25Z</time>
      </trkpt>
      <trkpt lat="45.93858" lon="4.71758">
        <ele>173</ele>
        <time>2017-12-09T09:59:26Z</time>
      </trkpt>
      <trkpt lat="45.93863" lon="4.71753">
        <ele>173</ele>
        <time>2017-12-09T09:59:27Z</time>
      </trkpt>
      <trkpt lat="45.93867" lon="4.71748">
        <ele>174</ele>
        <time>2017-12-09T09:59:28Z</time>
      </trkpt>
      <trkpt lat="45.93872" lon="4.7174">
        <ele>174</ele>
        <time>2017-12-09T09:59:29Z</time>
      </trkpt>
      <trkpt lat="45.93876" lon="4.71734">
        <ele>174</ele>
        <time>2017-12-09T09:59:30Z</time>
      </trkpt>
      <trkpt lat="45.93881" lon="4.71729">
        <ele>174</ele>
        <time>2017-12-09T09:59:31Z</time>
      </trkpt>
      <trkpt lat="45.93886" lon="4.71724">
        <ele>174</ele>
        <time>2017-12-09T09:59:32Z</time>
      </trkpt>
      <trkpt lat="45.93891" lon="4.7172">
        <ele>174</ele>
        <time>2017-12-09T09:59:33Z</time>
      </trkpt>
      <trkpt lat="45.93896" lon="4.71715">
        <ele>174</ele>
        <time>2017-12-09T09:59:34Z</time>
      </trkpt>
      <trkpt lat="45.93901" lon="4.7171">
        <ele>174</ele>
        <time>2017-12-09T09:59:35Z</time>
      </trkpt>
      <trkpt lat="45.93906" lon="4.71705">
        <ele>174</ele>
        <time>2017-12-09T09:59:36Z</time>
      </trkpt>
      <trkpt lat="45.93912" lon="4.71702">
        <ele>174</ele>
        <time>2017-12-09T09:59:37Z</time>
      </trkpt>
      <trkpt lat="45.93917" lon="4.71699">
        <ele>174</ele>
        <time>2017-12-09T09:59:38Z</time>
      </trkpt>
      <trkpt lat="45.93923" lon="4.71697">
        <ele>174</ele>
        <time>2017-12-09T09:59:39Z</time>
      </trkpt>
      <trkpt lat="45.93929" lon="4.71694">
        <ele>175</ele>
        <time>2017-12-09T09:59:40Z</time>
      </trkpt>
      <trkpt lat="45.93935" lon="4.71692">
        <ele>175</ele>
        <time>2017-12-09T09:59:41Z</time>
      </trkpt>
      <trkpt lat="45.9394" lon="4.71689">
        <ele>175</ele>
        <time>2017-12-09T09:59:42Z</time>
      </trkpt>
      <trkpt lat="45.93946" lon="4.71686">
        <ele>175</ele>
        <time>2017-12-09T09:59:43Z</time>
      </trkpt>
      <trkpt lat="45.93951" lon="4.71684">
        <ele>175</ele>
        <time>2017-12-09T09:59:44Z</time>
      </trkpt>
      <trkpt lat="45.93955" lon="4.7168">
        <ele>175</ele>
        <time>2017-12-09T09:59:45Z</time>
      </trkpt>
      <trkpt lat="45.9396" lon="4.71678">
        <ele>175</ele>
        <time>2017-12-09T09:59:46Z</time>
      </trkpt>
      <trkpt lat="45.93965" lon="4.71676">
        <ele>175</ele>
        <time>2017-12-09T09:59:47Z</time>
      </trkpt>
      <trkpt lat="45.93971" lon="4.71674">
        <ele>175</ele>
        <time>2017-12-09T09:59:48Z</time>
      </trkpt>
      <trkpt lat="45.93976" lon="4.71671">
        <ele>175</ele>
        <time>2017-12-09T09:59:49Z</time>
      </trkpt>
      <trkpt lat="45.93982" lon="4.7167">
        <ele>176</ele>
        <time>2017-12-09T09:59:50Z</time>
      </trkpt>
      <trkpt lat="45.93987" lon="4.71669">
        <ele>176</ele>
        <time>2017-12-09T09:59:51Z</time>
      </trkpt>
      <trkpt lat="45.93993" lon="4.7167">
        <ele>176</ele>
        <time>2017-12-09T09:59:52Z</time>
      </trkpt>
      <trkpt lat="45.93997" lon="4.71674">
        <ele>176</ele>
        <time>2017-12-09T09:59:53Z</time>
      </trkpt>
      <trkpt lat="45.94001" lon="4.71678">
        <ele>176</ele>
        <time>2017-12-09T09:59:54Z</time>
      </trkpt>
      <trkpt lat="45.94006" lon="4.7168">
        <ele>176</ele>
        <time>2017-12-09T09:59:55Z</time>
      </trkpt>
      <trkpt lat="45.94011" lon="4.7168">
        <ele>176</ele>
        <time>2017-12-09T09:59:56Z</time>
      </trkpt>
      <trkpt lat="45.94015" lon="4.71676">
        <ele>176</ele>
        <time>2017-12-09T09:59:57Z</time>
      </trkpt>
      <trkpt lat="45.94018" lon="4.7167">
        <ele>176</ele>
        <time>2017-12-09T09:59:58Z</time>
      </trkpt>
      <trkpt lat="45.94021" lon="4.71665">
        <ele>176</ele>
        <time>2017-12-09T09:59:59Z</time>
      </trkpt>
      <trkpt lat="45.94024" lon="4.71659">
        <ele>175</ele>
        <time>2017-12-09T10:00:00Z</time>
      </trkpt>
      <trkpt lat="45.94029" lon="4.71655">
        <ele>175</ele>
        <time>2017-12-09T10:00:01Z</time>
      </trkpt>
      <trkpt lat="45.94033" lon="4.71652">
        <ele>175</ele>
        <time>2017-12-09T10:00:02Z</time>
      </trkpt>
      <trkpt lat="45.94039" lon="4.7165">
        <ele>175</ele>
        <time>2017-12-09T10:00:03Z</time>
      </trkpt>
      <trkpt lat="45.94044" lon="4.71648">
        <ele>175</ele>
        <time>2017-12-09T10:00:04Z</time>
      </trkpt>
      <trkpt lat="45.9405" lon="4.71645">
        <ele>175</ele>
        <time>2017-12-09T10:00:05Z</time>
      </trkpt>
      <trkpt lat="45.94055" lon="4.71643">
        <ele>174</ele>
        <time>2017-12-09T10:00:06Z</time>
      </trkpt>
      <trkpt lat="45.94061" lon="4.71639">
        <ele>174</ele>
        <time>2017-12-09T10:00:07Z</time>
      </trkpt>
      <trkpt lat="45.94068" lon="4.71636">
        <ele>174</ele>
        <time>2017-12-09T10:00:08Z</time>
      </trkpt>
      <trkpt lat="45.94074" lon="4.71634">
        <ele>174</ele>
        <time>2017-12-09T10:00:09Z</time>
      </trkpt>
      <trkpt lat="45.94079" lon="4.71632">
        <ele>174</ele>
        <time>2017-12-09T10:00:10Z</time>
      </trkpt>
      <trkpt lat="45.94085" lon="4.7163">
        <ele>173</ele>
        <time>2017-12-09T10:00:11Z</time>
      </trkpt>
      <trkpt lat="45.9409" lon="4.71629">
        <ele>173</ele>
        <time>2017-12-09T10:00:12Z</time>
      </trkpt>
      <trkpt lat="45.94097" lon="4.71626">
        <ele>173</ele>
        <time>2017-12-09T10:00:13Z</time>
      </trkpt>
      <trkpt lat="45.94102" lon="4.71624">
        <ele>173</ele>
        <time>2017-12-09T10:00:14Z</time>
      </trkpt>
      <trkpt lat="45.94108" lon="4.7162">
        <ele>173</ele>
        <time>2017-12-09T10:00:15Z</time>
      </trkpt>
      <trkpt lat="45.94113" lon="4.71618">
        <ele>173</ele>
        <time>2017-12-09T10:00:16Z</time>
      </trkpt>
      <trkpt lat="45.94118" lon="4.71616">
        <ele>173</ele>
        <time>2017-12-09T10:00:17Z</time>
      </trkpt>
      <trkpt lat="45.94123" lon="4.71615">
        <ele>173</ele>
        <time>2017-12-09T10:00:18Z</time>
      </trkpt>
      <trkpt lat="45.94128" lon="4.71614">
        <ele>173</ele>
        <time>2017-12-09T10:00:19Z</time>
      </trkpt>
      <trkpt lat="45.94136" lon="4.71613">
        <ele>173</ele>
        <time>2017-12-09T10:00:20Z</time>
      </trkpt>
      <trkpt lat="45.94141" lon="4.71612">
        <ele>173</ele>
        <time>2017-12-09T10:00:21Z</time>
      </trkpt>
      <trkpt lat="45.94146" lon="4.71609">
        <ele>173</ele>
        <time>2017-12-09T10:00:22Z</time>
      </trkpt>
      <trkpt lat="45.94152" lon="4.71607">
        <ele>173</ele>
        <time>2017-12-09T10:00:23Z</time>
      </trkpt>
      <trkpt lat="45.94159" lon="4.71603">
        <ele>173</ele>
        <time>2017-12-09T10:00:24Z</time>
      </trkpt>
      <trkpt lat="45.94164" lon="4.716">
        <ele>173</ele>
        <time>2017-12-09T10:00:25Z</time>
      </trkpt>
      <trkpt lat="45.94169" lon="4.71598">
        <ele>173</ele>
        <time>2017-12-09T10:00:26Z</time>
      </trkpt>
      <trkpt lat="45.94174" lon="4.71595">
        <ele>173</ele>
        <time>2017-12-09T10:00:27Z</time>
      </trkpt>
      <trkpt lat="45.94179" lon="4.71594">
        <ele>173</ele>
        <time>2017-12-09T10:00:28Z</time>
      </trkpt>
      <trkpt lat="45.94185" lon="4.71592">
        <ele>173</ele>
        <time>2017-12-09T10:00:29Z</time>
      </trkpt>
      <trkpt lat="45.9419" lon="4.71589">
        <ele>173</ele>
        <time>2017-12-09T10:00:30Z</time>
      </trkpt>
      <trkpt lat="45.94195" lon="4.71587">
        <ele>173</ele>
        <time>2017-12-09T10:00:31Z</time>
      </trkpt>
      <trkpt lat="45.94201" lon="4.71585">
        <ele>173</ele>
        <time>2017-12-09T10:00:32Z</time>
      </trkpt>
      <trkpt lat="45.94206" lon="4.71582">
        <ele>174</ele>
        <time>2017-12-09T10:00:33Z</time>
      </trkpt>
      <trkpt lat="45.94212" lon="4.7158">
        <ele>174</ele>
        <time>2017-12-09T10:00:34Z</time>
      </trkpt>
      <trkpt lat="45.94217" lon="4.71578">
        <ele>174</ele>
        <time>2017-12-09T10:00:35Z</time>
      </trkpt>
      <trkpt lat="45.94223" lon="4.71575">
        <ele>174</ele>
        <time>2017-12-09T10:00:36Z</time>
      </trkpt>
      <trkpt lat="45.94228" lon="4.71574">
        <ele>174</ele>
        <time>2017-12-09T10:00:37Z</time>
      </trkpt>
      <trkpt lat="45.94233" lon="4.71572">
        <ele>174</ele>
        <time>2017-12-09T10:00:38Z</time>
      </trkpt>
      <trkpt lat="45.94239" lon="4.71569">
        <ele>174</ele>
        <time>2017-12-09T10:00:39Z</time>
      </trkpt>
      <trkpt lat="45.94244" lon="4.71566">
        <ele>174</ele>
        <time>2017-12-09T10:00:40Z</time>
      </trkpt>
      <trkpt lat="45.94249" lon="4.71563">
        <ele>174</ele>
        <time>2017-12-09T10:00:41Z</time>
      </trkpt>
      <trkpt lat="45.94254" lon="4.7156">
        <ele>175</ele>
        <time>2017-12-09T10:00:42Z</time>
      </trkpt>
      <trkpt lat="45.94259" lon="4.71557">
        <ele>175</ele>
        <time>2017-12-09T10:00:43Z</time>
      </trkpt>
      <trkpt lat="45.94264" lon="4.71556">
        <ele>175</ele>
        <time>2017-12-09T10:00:44Z</time>
      </trkpt>
      <trkpt lat="45.9427" lon="4.71554">
        <ele>175</ele>
        <time>2017-12-09T10:00:45Z</time>
      </trkpt>
      <trkpt lat="45.94275" lon="4.71552">
        <ele>175</ele>
        <time>2017-12-09T10:00:46Z</time>
      </trkpt>
      <trkpt lat="45.9428" lon="4.7155">
        <ele>175</ele>
        <time>2017-12-09T10:00:47Z</time>
      </trkpt>
      <trkpt lat="45.94287" lon="4.71547">
        <ele>175</ele>
        <time>2017-12-09T10:00:48Z</time>
      </trkpt>
      <trkpt lat="45.94292" lon="4.71546">
        <ele>175</ele>
        <time>2017-12-09T10:00:49Z</time>
      </trkpt>
      <trkpt lat="45.94298" lon="4.71544">
        <ele>175</ele>
        <time>2017-12-09T10:00:50Z</time>
      </trkpt>
      <trkpt lat="45.94303" lon="4.71541">
        <ele>175</ele>
        <time>2017-12-09T10:00:51Z</time>
      </trkpt>
      <trkpt lat="45.94307" lon="4.71539">
        <ele>175</ele>
        <time>2017-12-09T10:00:52Z</time>
      </trkpt>
      <trkpt lat="45.94314" lon="4.71536">
        <ele>175</ele>
        <time>2017-12-09T10:00:54Z</time>
      </trkpt>
      <trkpt lat="45.9432" lon="4.71534">
        <ele>175</ele>
        <time>2017-12-09T10:00:55Z</time>
      </trkpt>
      <trkpt lat="45.94327" lon="4.71528">
        <ele>176</ele>
        <time>2017-12-09T10:00:57Z</time>
      </trkpt>
      <trkpt lat="45.94332" lon="4.71526">
        <ele>176</ele>
        <time>2017-12-09T10:00:58Z</time>
      </trkpt>
      <trkpt lat="45.94337" lon="4.71525">
        <ele>176</ele>
        <time>2017-12-09T10:00:59Z</time>
      </trkpt>
      <trkpt lat="45.94341" lon="4.71524">
        <ele>176</ele>
        <time>2017-12-09T10:01:00Z</time>
      </trkpt>
      <trkpt lat="45.94347" lon="4.71523">
        <ele>176</ele>
        <time>2017-12-09T10:01:01Z</time>
      </trkpt>
      <trkpt lat="45.94352" lon="4.71521">
        <ele>176</ele>
        <time>2017-12-09T10:01:02Z</time>
      </trkpt>
      <trkpt lat="45.94359" lon="4.71521">
        <ele>176</ele>
        <time>2017-12-09T10:01:03Z</time>
      </trkpt>
      <trkpt lat="45.94365" lon="4.71519">
        <ele>176</ele>
        <time>2017-12-09T10:01:04Z</time>
      </trkpt>
      <trkpt lat="45.9437" lon="4.71517">
        <ele>176</ele>
        <time>2017-12-09T10:01:05Z</time>
      </trkpt>
      <trkpt lat="45.94375" lon="4.71515">
        <ele>176</ele>
        <time>2017-12-09T10:01:06Z</time>
      </trkpt>
      <trkpt lat="45.94381" lon="4.71513">
        <ele>177</ele>
        <time>2017-12-09T10:01:07Z</time>
      </trkpt>
      <trkpt lat="45.94386" lon="4.71512">
        <ele>177</ele>
        <time>2017-12-09T10:01:08Z</time>
      </trkpt>
      <trkpt lat="45.94391" lon="4.71511">
        <ele>177</ele>
        <time>2017-12-09T10:01:09Z</time>
      </trkpt>
      <trkpt lat="45.94397" lon="4.71508">
        <ele>177</ele>
        <time>2017-12-09T10:01:10Z</time>
      </trkpt>
      <trkpt lat="45.94401" lon="4.71506">
        <ele>177</ele>
        <time>2017-12-09T10:01:11Z</time>
      </trkpt>
      <trkpt lat="45.94406" lon="4.71504">
        <ele>177</ele>
        <time>2017-12-09T10:01:12Z</time>
      </trkpt>
      <trkpt lat="45.94411" lon="4.71502">
        <ele>178</ele>
        <time>2017-12-09T10:01:13Z</time>
      </trkpt>
      <trkpt lat="45.94417" lon="4.71503">
        <ele>178</ele>
        <time>2017-12-09T10:01:14Z</time>
      </trkpt>
      <trkpt lat="45.94422" lon="4.71502">
        <ele>178</ele>
        <time>2017-12-09T10:01:15Z</time>
      </trkpt>
      <trkpt lat="45.94427" lon="4.715">
        <ele>178</ele>
        <time>2017-12-09T10:01:16Z</time>
      </trkpt>
      <trkpt lat="45.94431" lon="4.71498">
        <ele>178</ele>
        <time>2017-12-09T10:01:17Z</time>
      </trkpt>
      <trkpt lat="45.94438" lon="4.71496">
        <ele>178</ele>
        <time>2017-12-09T10:01:18Z</time>
      </trkpt>
      <trkpt lat="45.94443" lon="4.71494">
        <ele>178</ele>
        <time>2017-12-09T10:01:19Z</time>
      </trkpt>
      <trkpt lat="45.94448" lon="4.71493">
        <ele>178</ele>
        <time>2017-12-09T10:01:20Z</time>
      </trkpt>
      <trkpt lat="45.94452" lon="4.71491">
        <ele>179</ele>
        <time>2017-12-09T10:01:21Z</time>
      </trkpt>
      <trkpt lat="45.94456" lon="4.71489">
        <ele>179</ele>
        <time>2017-12-09T10:01:22Z</time>
      </trkpt>
      <trkpt lat="45.94461" lon="4.71487">
        <ele>179</ele>
        <time>2017-12-09T10:01:23Z</time>
      </trkpt>
      <trkpt lat="45.94465" lon="4.71485">
        <ele>179</ele>
        <time>2017-12-09T10:01:24Z</time>
      </trkpt>
      <trkpt lat="45.94473" lon="4.71482">
        <ele>179</ele>
        <time>2017-12-09T10:01:26Z</time>
      </trkpt>
      <trkpt lat="45.94478" lon="4.7148">
        <ele>179</ele>
        <time>2017-12-09T10:01:27Z</time>
      </trkpt>
      <trkpt lat="45.94483" lon="4.71479">
        <ele>178</ele>
        <time>2017-12-09T10:01:28Z</time>
      </trkpt>
      <trkpt lat="45.94487" lon="4.71477">
        <ele>178</ele>
        <time>2017-12-09T10:01:29Z</time>
      </trkpt>
      <trkpt lat="45.94495" lon="4.71474">
        <ele>179</ele>
        <time>2017-12-09T10:01:31Z</time>
      </trkpt>
      <trkpt lat="45.94499" lon="4.71473">
        <ele>179</ele>
        <time>2017-12-09T10:01:32Z</time>
      </trkpt>
      <trkpt lat="45.94507" lon="4.7147">
        <ele>179</ele>
        <time>2017-12-09T10:01:34Z</time>
      </trkpt>
      <trkpt lat="45.94511" lon="4.71468">
        <ele>179</ele>
        <time>2017-12-09T10:01:35Z</time>
      </trkpt>
      <trkpt lat="45.94516" lon="4.71466">
        <ele>180</ele>
        <time>2017-12-09T10:01:36Z</time>
      </trkpt>
      <trkpt lat="45.9452" lon="4.71463">
        <ele>180</ele>
        <time>2017-12-09T10:01:37Z</time>
      </trkpt>
      <trkpt lat="45.94525" lon="4.71461">
        <ele>180</ele>
        <time>2017-12-09T10:01:38Z</time>
      </trkpt>
      <trkpt lat="45.9453" lon="4.71458">
        <ele>180</ele>
        <time>2017-12-09T10:01:39Z</time>
      </trkpt>
      <trkpt lat="45.94535" lon="4.71456">
        <ele>180</ele>
        <time>2017-12-09T10:01:40Z</time>
      </trkpt>
      <trkpt lat="45.94539" lon="4.71454">
        <ele>180</ele>
        <time>2017-12-09T10:01:41Z</time>
      </trkpt>
      <trkpt lat="45.94544" lon="4.71453">
        <ele>180</ele>
        <time>2017-12-09T10:01:42Z</time>
      </trkpt>
      <trkpt lat="45.9455" lon="4.71451">
        <ele>180</ele>
        <time>2017-12-09T10:01:43Z</time>
      </trkpt>
      <trkpt lat="45.94558" lon="4.71447">
        <ele>181</ele>
        <time>2017-12-09T10:01:45Z</time>
      </trkpt>
      <trkpt lat="45.94562" lon="4.71446">
        <ele>181</ele>
        <time>2017-12-09T10:01:46Z</time>
      </trkpt>
      <trkpt lat="45.94571" lon="4.71445">
        <ele>181</ele>
        <time>2017-12-09T10:01:48Z</time>
      </trkpt>
      <trkpt lat="45.94576" lon="4.71446">
        <ele>181</ele>
        <time>2017-12-09T10:01:49Z</time>
      </trkpt>
      <trkpt lat="45.94581" lon="4.71446">
        <ele>181</ele>
        <time>2017-12-09T10:01:50Z</time>
      </trkpt>
      <trkpt lat="45.94586" lon="4.71446">
        <ele>181</ele>
        <time>2017-12-09T10:01:51Z</time>
      </trkpt>
      <trkpt lat="45.94595" lon="4.71446">
        <ele>181</ele>
        <time>2017-12-09T10:01:53Z</time>
      </trkpt>
      <trkpt lat="45.946" lon="4.71446">
        <ele>181</ele>
        <time>2017-12-09T10:01:54Z</time>
      </trkpt>
      <trkpt lat="45.94605" lon="4.71446">
        <ele>181</ele>
        <time>2017-12-09T10:01:55Z</time>
      </trkpt>
      <trkpt lat="45.9461" lon="4.71446">
        <ele>181</ele>
        <time>2017-12-09T10:01:56Z</time>
      </trkpt>
      <trkpt lat="45.94615" lon="4.71446">
        <ele>181</ele>
        <time>2017-12-09T10:01:57Z</time>
      </trkpt>
      <trkpt lat="45.9462" lon="4.71447">
        <ele>181</ele>
        <time>2017-12-09T10:01:58Z</time>
      </trkpt>
      <trkpt lat="45.94626" lon="4.71445">
        <ele>181</ele>
        <time>2017-12-09T10:01:59Z</time>
      </trkpt>
      <trkpt lat="45.94631" lon="4.71445">
        <ele>181</ele>
        <time>2017-12-09T10:02:00Z</time>
      </trkpt>
      <trkpt lat="45.94636" lon="4.71445">
        <ele>181</ele>
        <time>2017-12-09T10:02:01Z</time>
      </trkpt>
      <trkpt lat="45.94642" lon="4.71446">
        <ele>181</ele>
        <time>2017-12-09T10:02:02Z</time>
      </trkpt>
      <trkpt lat="45.94647" lon="4.71447">
        <ele>181</ele>
        <time>2017-12-09T10:02:03Z</time>
      </trkpt>
      <trkpt lat="45.94652" lon="4.71447">
        <ele>181</ele>
        <time>2017-12-09T10:02:04Z</time>
      </trkpt>
      <trkpt lat="45.94658" lon="4.71448">
        <ele>181</ele>
        <time>2017-12-09T10:02:05Z</time>
      </trkpt>
      <trkpt lat="45.94664" lon="4.71448">
        <ele>181</ele>
        <time>2017-12-09T10:02:06Z</time>
      </trkpt>
      <trkpt lat="45.94669" lon="4.71448">
        <ele>182</ele>
        <time>2017-12-09T10:02:07Z</time>
      </trkpt>
      <trkpt lat="45.94674" lon="4.71448">
        <ele>182</ele>
        <time>2017-12-09T10:02:08Z</time>
      </trkpt>
      <trkpt lat="45.9468" lon="4.71448">
        <ele>182</ele>
        <time>2017-12-09T10:02:09Z</time>
      </trkpt>
      <trkpt lat="45.94685" lon="4.71448">
        <ele>182</ele>
        <time>2017-12-09T10:02:10Z</time>
      </trkpt>
      <trkpt lat="45.9469" lon="4.71449">
        <ele>182</ele>
        <time>2017-12-09T10:02:11Z</time>
      </trkpt>
      <trkpt lat="45.94695" lon="4.71449">
        <ele>182</ele>
        <time>2017-12-09T10:02:12Z</time>
      </trkpt>
      <trkpt lat="45.947" lon="4.71449">
        <ele>182</ele>
        <time>2017-12-09T10:02:13Z</time>
      </trkpt>
      <trkpt lat="45.94706" lon="4.7145">
        <ele>182</ele>
        <time>2017-12-09T10:02:14Z</time>
      </trkpt>
      <trkpt lat="45.94711" lon="4.7145">
        <ele>182</ele>
        <time>2017-12-09T10:02:15Z</time>
      </trkpt>
      <trkpt lat="45.94716" lon="4.71451">
        <ele>182</ele>
        <time>2017-12-09T10:02:16Z</time>
      </trkpt>
      <trkpt lat="45.94722" lon="4.71452">
        <ele>182</ele>
        <time>2017-12-09T10:02:17Z</time>
      </trkpt>
      <trkpt lat="45.94727" lon="4.71454">
        <ele>182</ele>
        <time>2017-12-09T10:02:18Z</time>
      </trkpt>
      <trkpt lat="45.94732" lon="4.71454">
        <ele>182</ele>
        <time>2017-12-09T10:02:19Z</time>
      </trkpt>
      <trkpt lat="45.94737" lon="4.71454">
        <ele>182</ele>
        <time>2017-12-09T10:02:20Z</time>
      </trkpt>
      <trkpt lat="45.94742" lon="4.71455">
        <ele>182</ele>
        <time>2017-12-09T10:02:21Z</time>
      </trkpt>
      <trkpt lat="45.94747" lon="4.71455">
        <ele>182</ele>
        <time>2017-12-09T10:02:22Z</time>
      </trkpt>
      <trkpt lat="45.94753" lon="4.71455">
        <ele>183</ele>
        <time>2017-12-09T10:02:23Z</time>
      </trkpt>
      <trkpt lat="45.94758" lon="4.71456">
        <ele>183</ele>
        <time>2017-12-09T10:02:24Z</time>
      </trkpt>
      <trkpt lat="45.94763" lon="4.71456">
        <ele>183</ele>
        <time>2017-12-09T10:02:25Z</time>
      </trkpt>
      <trkpt lat="45.94769" lon="4.71457">
        <ele>183</ele>
        <time>2017-12-09T10:02:26Z</time>
      </trkpt>
      <trkpt lat="45.94774" lon="4.71458">
        <ele>183</ele>
        <time>2017-12-09T10:02:27Z</time>
      </trkpt>
      <trkpt lat="45.94779" lon="4.71458">
        <ele>183</ele>
        <time>2017-12-09T10:02:28Z</time>
      </trkpt>
      <trkpt lat="45.94785" lon="4.71458">
        <ele>183</ele>
        <time>2017-12-09T10:02:29Z</time>
      </trkpt>
      <trkpt lat="45.94791" lon="4.71458">
        <ele>183</ele>
        <time>2017-12-09T10:02:30Z</time>
      </trkpt>
      <trkpt lat="45.94796" lon="4.71458">
        <ele>183</ele>
        <time>2017-12-09T10:02:31Z</time>
      </trkpt>
      <trkpt lat="45.94803" lon="4.71459">
        <ele>183</ele>
        <time>2017-12-09T10:02:32Z</time>
      </trkpt>
      <trkpt lat="45.94807" lon="4.7146">
        <ele>183</ele>
        <time>2017-12-09T10:02:33Z</time>
      </trkpt>
      <trkpt lat="45.94813" lon="4.7146">
        <ele>183</ele>
        <time>2017-12-09T10:02:34Z</time>
      </trkpt>
      <trkpt lat="45.94818" lon="4.7146">
        <ele>183</ele>
        <time>2017-12-09T10:02:35Z</time>
      </trkpt>
      <trkpt lat="45.94825" lon="4.71461">
        <ele>183</ele>
        <time>2017-12-09T10:02:36Z</time>
      </trkpt>
      <trkpt lat="45.9483" lon="4.71461">
        <ele>183</ele>
        <time>2017-12-09T10:02:37Z</time>
      </trkpt>
      <trkpt lat="45.94836" lon="4.71462">
        <ele>183</ele>
        <time>2017-12-09T10:02:38Z</time>
      </trkpt>
      <trkpt lat="45.94842" lon="4.71462">
        <ele>183</ele>
        <time>2017-12-09T10:02:39Z</time>
      </trkpt>
      <trkpt lat="45.94847" lon="4.71463">
        <ele>183</ele>
        <time>2017-12-09T10:02:40Z</time>
      </trkpt>
      <trkpt lat="45.94853" lon="4.71464">
        <ele>183</ele>
        <time>2017-12-09T10:02:41Z</time>
      </trkpt>
      <trkpt lat="45.94858" lon="4.71466">
        <ele>183</ele>
        <time>2017-12-09T10:02:42Z</time>
      </trkpt>
      <trkpt lat="45.94864" lon="4.71466">
        <ele>183</ele>
        <time>2017-12-09T10:02:43Z</time>
      </trkpt>
      <trkpt lat="45.94869" lon="4.71468">
        <ele>183</ele>
        <time>2017-12-09T10:02:44Z</time>
      </trkpt>
      <trkpt lat="45.94874" lon="4.71469">
        <ele>183</ele>
        <time>2017-12-09T10:02:45Z</time>
      </trkpt>
      <trkpt lat="45.94879" lon="4.7147">
        <ele>183</ele>
        <time>2017-12-09T10:02:46Z</time>
      </trkpt>
      <trkpt lat="45.94885" lon="4.71471">
        <ele>183</ele>
        <time>2017-12-09T10:02:47Z</time>
      </trkpt>
      <trkpt lat="45.94891" lon="4.71471">
        <ele>183</ele>
        <time>2017-12-09T10:02:48Z</time>
      </trkpt>
      <trkpt lat="45.94896" lon="4.71473">
        <ele>183</ele>
        <time>2017-12-09T10:02:49Z</time>
      </trkpt>
      <trkpt lat="45.94902" lon="4.71473">
        <ele>183</ele>
        <time>2017-12-09T10:02:50Z</time>
      </trkpt>
      <trkpt lat="45.94907" lon="4.71474">
        <ele>183</ele>
        <time>2017-12-09T10:02:51Z</time>
      </trkpt>
      <trkpt lat="45.94912" lon="4.71475">
        <ele>182</ele>
        <time>2017-12-09T10:02:52Z</time>
      </trkpt>
      <trkpt lat="45.94921" lon="4.71475">
        <ele>182</ele>
        <time>2017-12-09T10:02:54Z</time>
      </trkpt>
      <trkpt lat="45.94925" lon="4.71475">
        <ele>182</ele>
        <time>2017-12-09T10:02:55Z</time>
      </trkpt>
      <trkpt lat="45.94932" lon="4.71474">
        <ele>183</ele>
        <time>2017-12-09T10:02:57Z</time>
      </trkpt>
      <trkpt lat="45.94935" lon="4.71473">
        <ele>183</ele>
        <time>2017-12-09T10:02:58Z</time>
      </trkpt>
      <trkpt lat="45.94942" lon="4.71475">
        <ele>183</ele>
        <time>2017-12-09T10:03:00Z</time>
      </trkpt>
      <trkpt lat="45.94945" lon="4.71478">
        <ele>183</ele>
        <time>2017-12-09T10:03:01Z</time>
      </trkpt>
      <trkpt lat="45.94949" lon="4.71482">
        <ele>183</ele>
        <time>2017-12-09T10:03:02Z</time>
      </trkpt>
      <trkpt lat="45.94955" lon="4.71486">
        <ele>182</ele>
        <time>2017-12-09T10:03:03Z</time>
      </trkpt>
      <trkpt lat="45.94959" lon="4.7149">
        <ele>182</ele>
        <time>2017-12-09T10:03:04Z</time>
      </trkpt>
      <trkpt lat="45.94964" lon="4.71494">
        <ele>182</ele>
        <time>2017-12-09T10:03:05Z</time>
      </trkpt>
      <trkpt lat="45.94968" lon="4.71493">
        <ele>182</ele>
        <time>2017-12-09T10:03:06Z</time>
      </trkpt>
      <trkpt lat="45.94973" lon="4.71492">
        <ele>182</ele>
        <time>2017-12-09T10:03:07Z</time>
      </trkpt>
      <trkpt lat="45.94978" lon="4.71489">
        <ele>182</ele>
        <time>2017-12-09T10:03:08Z</time>
      </trkpt>
      <trkpt lat="45.94982" lon="4.71485">
        <ele>182</ele>
        <time>2017-12-09T10:03:09Z</time>
      </trkpt>
      <trkpt lat="45.94987" lon="4.71482">
        <ele>182</ele>
        <time>2017-12-09T10:03:10Z</time>
      </trkpt>
      <trkpt lat="45.94992" lon="4.71482">
        <ele>182</ele>
        <time>2017-12-09T10:03:11Z</time>
      </trkpt>
      <trkpt lat="45.94997" lon="4.71482">
        <ele>182</ele>
        <time>2017-12-09T10:03:12Z</time>
      </trkpt>
      <trkpt lat="45.95003" lon="4.7148">
        <ele>181</ele>
        <time>2017-12-09T10:03:13Z</time>
      </trkpt>
      <trkpt lat="45.95009" lon="4.71481">
        <ele>181</ele>
        <time>2017-12-09T10:03:14Z</time>
      </trkpt>
      <trkpt lat="45.95015" lon="4.71482">
        <ele>181</ele>
        <time>2017-12-09T10:03:15Z</time>
      </trkpt>
      <trkpt lat="45.95021" lon="4.71481">
        <ele>181</ele>
        <time>2017-12-09T10:03:16Z</time>
      </trkpt>
      <trkpt lat="45.95027" lon="4.71482">
        <ele>181</ele>
        <time>2017-12-09T10:03:17Z</time>
      </trkpt>
      <trkpt lat="45.95034" lon="4.71483">
        <ele>181</ele>
        <time>2017-12-09T10:03:18Z</time>
      </trkpt>
      <trkpt lat="45.95041" lon="4.71483">
        <ele>181</ele>
        <time>2017-12-09T10:03:19Z</time>
      </trkpt>
      <trkpt lat="45.95048" lon="4.71484">
        <ele>181</ele>
        <time>2017-12-09T10:03:20Z</time>
      </trkpt>
      <trkpt lat="45.95055" lon="4.71485">
        <ele>181</ele>
        <time>2017-12-09T10:03:21Z</time>
      </trkpt>
      <trkpt lat="45.95063" lon="4.71483">
        <ele>181</ele>
        <time>2017-12-09T10:03:22Z</time>
      </trkpt>
      <trkpt lat="45.9507" lon="4.71483">
        <ele>180</ele>
        <time>2017-12-09T10:03:23Z</time>
      </trkpt>
      <trkpt lat="45.95077" lon="4.71483">
        <ele>180</ele>
        <time>2017-12-09T10:03:24Z</time>
      </trkpt>
      <trkpt lat="45.95085" lon="4.71483">
        <ele>179</ele>
        <time>2017-12-09T10:03:25Z</time>
      </trkpt>
      <trkpt lat="45.95093" lon="4.71483">
        <ele>179</ele>
        <time>2017-12-09T10:03:26Z</time>
      </trkpt>
      <trkpt lat="45.95101" lon="4.71483">
        <ele>179</ele>
        <time>2017-12-09T10:03:27Z</time>
      </trkpt>
      <trkpt lat="45.95109" lon="4.71483">
        <ele>179</ele>
        <time>2017-12-09T10:03:28Z</time>
      </trkpt>
      <trkpt lat="45.95117" lon="4.71483">
        <ele>179</ele>
        <time>2017-12-09T10:03:29Z</time>
      </trkpt>
      <trkpt lat="45.95125" lon="4.71483">
        <ele>178</ele>
        <time>2017-12-09T10:03:30Z</time>
      </trkpt>
      <trkpt lat="45.95133" lon="4.71483">
        <ele>178</ele>
        <time>2017-12-09T10:03:31Z</time>
      </trkpt>
      <trkpt lat="45.95142" lon="4.71485">
        <ele>178</ele>
        <time>2017-12-09T10:03:32Z</time>
      </trkpt>
      <trkpt lat="45.9515" lon="4.71485">
        <ele>178</ele>
        <time>2017-12-09T10:03:33Z</time>
      </trkpt>
      <trkpt lat="45.95158" lon="4.71486">
        <ele>178</ele>
        <time>2017-12-09T10:03:34Z</time>
      </trkpt>
      <trkpt lat="45.95166" lon="4.71487">
        <ele>178</ele>
        <time>2017-12-09T10:03:35Z</time>
      </trkpt>
      <trkpt lat="45.95173" lon="4.71487">
        <ele>177</ele>
        <time>2017-12-09T10:03:36Z</time>
      </trkpt>
      <trkpt lat="45.95181" lon="4.71486">
        <ele>177</ele>
        <time>2017-12-09T10:03:37Z</time>
      </trkpt>
      <trkpt lat="45.95189" lon="4.71487">
        <ele>177</ele>
        <time>2017-12-09T10:03:38Z</time>
      </trkpt>
      <trkpt lat="45.95197" lon="4.71488">
        <ele>177</ele>
        <time>2017-12-09T10:03:39Z</time>
      </trkpt>
      <trkpt lat="45.95205" lon="4.71489">
        <ele>177</ele>
        <time>2017-12-09T10:03:40Z</time>
      </trkpt>
      <trkpt lat="45.95213" lon="4.71489">
        <ele>177</ele>
        <time>2017-12-09T10:03:41Z</time>
      </trkpt>
      <trkpt lat="45.95221" lon="4.71489">
        <ele>177</ele>
        <time>2017-12-09T10:03:42Z</time>
      </trkpt>
      <trkpt lat="45.95229" lon="4.71489">
        <ele>177</ele>
        <time>2017-12-09T10:03:43Z</time>
      </trkpt>
      <trkpt lat="45.95236" lon="4.7149">
        <ele>177</ele>
        <time>2017-12-09T10:03:44Z</time>
      </trkpt>
      <trkpt lat="45.95244" lon="4.7149">
        <ele>177</ele>
        <time>2017-12-09T10:03:45Z</time>
      </trkpt>
      <trkpt lat="45.95251" lon="4.71491">
        <ele>177</ele>
        <time>2017-12-09T10:03:46Z</time>
      </trkpt>
      <trkpt lat="45.95258" lon="4.71491">
        <ele>176</ele>
        <time>2017-12-09T10:03:47Z</time>
      </trkpt>
      <trkpt lat="45.95265" lon="4.71492">
        <ele>176</ele>
        <time>2017-12-09T10:03:48Z</time>
      </trkpt>
      <trkpt lat="45.95272" lon="4.71493">
        <ele>176</ele>
        <time>2017-12-09T10:03:49Z</time>
      </trkpt>
      <trkpt lat="45.9528" lon="4.71494">
        <ele>176</ele>
        <time>2017-12-09T10:03:50Z</time>
      </trkpt>
      <trkpt lat="45.95286" lon="4.71493">
        <ele>176</ele>
        <time>2017-12-09T10:03:51Z</time>
      </trkpt>
      <trkpt lat="45.95292" lon="4.71495">
        <ele>176</ele>
        <time>2017-12-09T10:03:52Z</time>
      </trkpt>
      <trkpt lat="45.95299" lon="4.71497">
        <ele>175</ele>
        <time>2017-12-09T10:03:53Z</time>
      </trkpt>
      <trkpt lat="45.95305" lon="4.71498">
        <ele>175</ele>
        <time>2017-12-09T10:03:54Z</time>
      </trkpt>
      <trkpt lat="45.95311" lon="4.715">
        <ele>174</ele>
        <time>2017-12-09T10:03:55Z</time>
      </trkpt>
      <trkpt lat="45.95317" lon="4.71501">
        <ele>174</ele>
        <time>2017-12-09T10:03:56Z</time>
      </trkpt>
      <trkpt lat="45.95324" lon="4.71501">
        <ele>174</ele>
        <time>2017-12-09T10:03:57Z</time>
      </trkpt>
      <trkpt lat="45.95331" lon="4.71501">
        <ele>174</ele>
        <time>2017-12-09T10:03:58Z</time>
      </trkpt>
      <trkpt lat="45.95337" lon="4.71502">
        <ele>174</ele>
        <time>2017-12-09T10:03:59Z</time>
      </trkpt>
      <trkpt lat="45.95343" lon="4.71502">
        <ele>174</ele>
        <time>2017-12-09T10:04:00Z</time>
      </trkpt>
      <trkpt lat="45.95349" lon="4.71502">
        <ele>174</ele>
        <time>2017-12-09T10:04:01Z</time>
      </trkpt>
      <trkpt lat="45.95355" lon="4.71503">
        <ele>174</ele>
        <time>2017-12-09T10:04:02Z</time>
      </trkpt>
      <trkpt lat="45.95362" lon="4.71504">
        <ele>174</ele>
        <time>2017-12-09T10:04:03Z</time>
      </trkpt>
      <trkpt lat="45.95367" lon="4.71505">
        <ele>174</ele>
        <time>2017-12-09T10:04:04Z</time>
      </trkpt>
      <trkpt lat="45.95373" lon="4.71505">
        <ele>174</ele>
        <time>2017-12-09T10:04:05Z</time>
      </trkpt>
      <trkpt lat="45.95379" lon="4.71505">
        <ele>174</ele>
        <time>2017-12-09T10:04:06Z</time>
      </trkpt>
      <trkpt lat="45.95385" lon="4.71505">
        <ele>174</ele>
        <time>2017-12-09T10:04:07Z</time>
      </trkpt>
      <trkpt lat="45.95391" lon="4.71506">
        <ele>174</ele>
        <time>2017-12-09T10:04:08Z</time>
      </trkpt>
      <trkpt lat="45.95396" lon="4.71506">
        <ele>174</ele>
        <time>2017-12-09T10:04:09Z</time>
      </trkpt>
      <trkpt lat="45.95402" lon="4.71506">
        <ele>174</ele>
        <time>2017-12-09T10:04:10Z</time>
      </trkpt>
      <trkpt lat="45.95408" lon="4.71505">
        <ele>174</ele>
        <time>2017-12-09T10:04:11Z</time>
      </trkpt>
      <trkpt lat="45.95415" lon="4.71505">
        <ele>174</ele>
        <time>2017-12-09T10:04:12Z</time>
      </trkpt>
      <trkpt lat="45.95421" lon="4.71506">
        <ele>174</ele>
        <time>2017-12-09T10:04:13Z</time>
      </trkpt>
      <trkpt lat="45.95426" lon="4.71506">
        <ele>174</ele>
        <time>2017-12-09T10:04:14Z</time>
      </trkpt>
      <trkpt lat="45.95431" lon="4.71506">
        <ele>175</ele>
        <time>2017-12-09T10:04:15Z</time>
      </trkpt>
      <trkpt lat="45.95437" lon="4.71507">
        <ele>175</ele>
        <time>2017-12-09T10:04:16Z</time>
      </trkpt>
      <trkpt lat="45.95442" lon="4.71507">
        <ele>175</ele>
        <time>2017-12-09T10:04:17Z</time>
      </trkpt>
      <trkpt lat="45.95447" lon="4.71507">
        <ele>175</ele>
        <time>2017-12-09T10:04:18Z</time>
      </trkpt>
      <trkpt lat="45.95452" lon="4.71508">
        <ele>175</ele>
        <time>2017-12-09T10:04:19Z</time>
      </trkpt>
      <trkpt lat="45.9546" lon="4.71511">
        <ele>175</ele>
        <time>2017-12-09T10:04:20Z</time>
      </trkpt>
      <trkpt lat="45.95466" lon="4.71511">
        <ele>175</ele>
        <time>2017-12-09T10:04:21Z</time>
      </trkpt>
      <trkpt lat="45.95473" lon="4.71512">
        <ele>176</ele>
        <time>2017-12-09T10:04:22Z</time>
      </trkpt>
      <trkpt lat="45.95478" lon="4.71513">
        <ele>176</ele>
        <time>2017-12-09T10:04:23Z</time>
      </trkpt>
      <trkpt lat="45.95484" lon="4.71513">
        <ele>176</ele>
        <time>2017-12-09T10:04:24Z</time>
      </trkpt>
      <trkpt lat="45.95489" lon="4.71513">
        <ele>176</ele>
        <time>2017-12-09T10:04:25Z</time>
      </trkpt>
      <trkpt lat="45.95496" lon="4.71513">
        <ele>176</ele>
        <time>2017-12-09T10:04:26Z</time>
      </trkpt>
      <trkpt lat="45.95501" lon="4.71513">
        <ele>177</ele>
        <time>2017-12-09T10:04:27Z</time>
      </trkpt>
      <trkpt lat="45.95507" lon="4.71514">
        <ele>177</ele>
        <time>2017-12-09T10:04:28Z</time>
      </trkpt>
      <trkpt lat="45.95513" lon="4.71513">
        <ele>177</ele>
        <time>2017-12-09T10:04:29Z</time>
      </trkpt>
      <trkpt lat="45.95518" lon="4.71513">
        <ele>177</ele>
        <time>2017-12-09T10:04:30Z</time>
      </trkpt>
      <trkpt lat="45.95524" lon="4.71513">
        <ele>177</ele>
        <time>2017-12-09T10:04:31Z</time>
      </trkpt>
      <trkpt lat="45.95529" lon="4.71513">
        <ele>177</ele>
        <time>2017-12-09T10:04:32Z</time>
      </trkpt>
      <trkpt lat="45.95535" lon="4.71512">
        <ele>177</ele>
        <time>2017-12-09T10:04:33Z</time>
      </trkpt>
      <trkpt lat="45.9554" lon="4.71514">
        <ele>177</ele>
        <time>2017-12-09T10:04:34Z</time>
      </trkpt>
      <trkpt lat="45.95545" lon="4.71514">
        <ele>178</ele>
        <time>2017-12-09T10:04:35Z</time>
      </trkpt>
      <trkpt lat="45.95551" lon="4.71515">
        <ele>178</ele>
        <time>2017-12-09T10:04:36Z</time>
      </trkpt>
      <trkpt lat="45.95555" lon="4.71515">
        <ele>178</ele>
        <time>2017-12-09T10:04:37Z</time>
      </trkpt>
      <trkpt lat="45.95564" lon="4.71514">
        <ele>178</ele>
        <time>2017-12-09T10:04:39Z</time>
      </trkpt>
      <trkpt lat="45.95568" lon="4.71514">
        <ele>178</ele>
        <time>2017-12-09T10:04:40Z</time>
      </trkpt>
      <trkpt lat="45.95573" lon="4.71515">
        <ele>178</ele>
        <time>2017-12-09T10:04:41Z</time>
      </trkpt>
      <trkpt lat="45.95578" lon="4.71515">
        <ele>179</ele>
        <time>2017-12-09T10:04:42Z</time>
      </trkpt>
      <trkpt lat="45.95585" lon="4.71515">
        <ele>179</ele>
        <time>2017-12-09T10:04:43Z</time>
      </trkpt>
      <trkpt lat="45.95589" lon="4.71516">
        <ele>179</ele>
        <time>2017-12-09T10:04:44Z</time>
      </trkpt>
      <trkpt lat="45.95595" lon="4.71515">
        <ele>179</ele>
        <time>2017-12-09T10:04:45Z</time>
      </trkpt>
      <trkpt lat="45.95599" lon="4.71515">
        <ele>179</ele>
        <time>2017-12-09T10:04:46Z</time>
      </trkpt>
      <trkpt lat="45.95605" lon="4.71515">
        <ele>179</ele>
        <time>2017-12-09T10:04:47Z</time>
      </trkpt>
      <trkpt lat="45.9561" lon="4.71514">
        <ele>179</ele>
        <time>2017-12-09T10:04:48Z</time>
      </trkpt>
      <trkpt lat="45.95615" lon="4.71515">
        <ele>179</ele>
        <time>2017-12-09T10:04:49Z</time>
      </trkpt>
      <trkpt lat="45.9562" lon="4.71515">
        <ele>179</ele>
        <time>2017-12-09T10:04:50Z</time>
      </trkpt>
      <trkpt lat="45.95626" lon="4.71516">
        <ele>179</ele>
        <time>2017-12-09T10:04:51Z</time>
      </trkpt>
      <trkpt lat="45.95632" lon="4.71518">
        <ele>179</ele>
        <time>2017-12-09T10:04:52Z</time>
      </trkpt>
      <trkpt lat="45.9564" lon="4.71519">
        <ele>180</ele>
        <time>2017-12-09T10:04:54Z</time>
      </trkpt>
      <trkpt lat="45.95645" lon="4.71519">
        <ele>180</ele>
        <time>2017-12-09T10:04:55Z</time>
      </trkpt>
      <trkpt lat="45.9565" lon="4.71519">
        <ele>180</ele>
        <time>2017-12-09T10:04:56Z</time>
      </trkpt>
      <trkpt lat="45.95655" lon="4.71519">
        <ele>180</ele>
        <time>2017-12-09T10:04:57Z</time>
      </trkpt>
      <trkpt lat="45.95662" lon="4.71519">
        <ele>180</ele>
        <time>2017-12-09T10:04:59Z</time>
      </trkpt>
      <trkpt lat="45.95665" lon="4.71518">
        <ele>180</ele>
        <time>2017-12-09T10:05:00Z</time>
      </trkpt>
      <trkpt lat="45.95668" lon="4.71517">
        <ele>181</ele>
        <time>2017-12-09T10:05:01Z</time>
      </trkpt>
      <trkpt lat="45.95674" lon="4.71518">
        <ele>181</ele>
        <time>2017-12-09T10:05:02Z</time>
      </trkpt>
      <trkpt lat="45.95679" lon="4.71518">
        <ele>181</ele>
        <time>2017-12-09T10:05:03Z</time>
      </trkpt>
      <trkpt lat="45.95683" lon="4.71519">
        <ele>180</ele>
        <time>2017-12-09T10:05:04Z</time>
      </trkpt>
      <trkpt lat="45.95688" lon="4.71519">
        <ele>180</ele>
        <time>2017-12-09T10:05:05Z</time>
      </trkpt>
      <trkpt lat="45.95693" lon="4.7152">
        <ele>180</ele>
        <time>2017-12-09T10:05:06Z</time>
      </trkpt>
      <trkpt lat="45.95698" lon="4.7152">
        <ele>180</ele>
        <time>2017-12-09T10:05:07Z</time>
      </trkpt>
      <trkpt lat="45.95702" lon="4.71522">
        <ele>180</ele>
        <time>2017-12-09T10:05:08Z</time>
      </trkpt>
      <trkpt lat="45.95707" lon="4.71522">
        <ele>180</ele>
        <time>2017-12-09T10:05:09Z</time>
      </trkpt>
      <trkpt lat="45.95712" lon="4.71523">
        <ele>180</ele>
        <time>2017-12-09T10:05:10Z</time>
      </trkpt>
      <trkpt lat="45.95716" lon="4.71523">
        <ele>180</ele>
        <time>2017-12-09T10:05:11Z</time>
      </trkpt>
      <trkpt lat="45.95721" lon="4.71523">
        <ele>180</ele>
        <time>2017-12-09T10:05:12Z</time>
      </trkpt>
      <trkpt lat="45.95726" lon="4.71524">
        <ele>180</ele>
        <time>2017-12-09T10:05:13Z</time>
      </trkpt>
      <trkpt lat="45.9573" lon="4.71525">
        <ele>180</ele>
        <time>2017-12-09T10:05:14Z</time>
      </trkpt>
      <trkpt lat="45.95735" lon="4.71524">
        <ele>180</ele>
        <time>2017-12-09T10:05:15Z</time>
      </trkpt>
      <trkpt lat="45.95741" lon="4.71523">
        <ele>180</ele>
        <time>2017-12-09T10:05:16Z</time>
      </trkpt>
      <trkpt lat="45.95749" lon="4.71525">
        <ele>180</ele>
        <time>2017-12-09T10:05:18Z</time>
      </trkpt>
      <trkpt lat="45.95754" lon="4.71527">
        <ele>181</ele>
        <time>2017-12-09T10:05:19Z</time>
      </trkpt>
      <trkpt lat="45.95759" lon="4.71526">
        <ele>181</ele>
        <time>2017-12-09T10:05:20Z</time>
      </trkpt>
      <trkpt lat="45.95764" lon="4.71527">
        <ele>181</ele>
        <time>2017-12-09T10:05:21Z</time>
      </trkpt>
      <trkpt lat="45.95769" lon="4.71529">
        <ele>181</ele>
        <time>2017-12-09T10:05:22Z</time>
      </trkpt>
      <trkpt lat="45.95775" lon="4.71531">
        <ele>180</ele>
        <time>2017-12-09T10:05:23Z</time>
      </trkpt>
      <trkpt lat="45.9578" lon="4.71531">
        <ele>181</ele>
        <time>2017-12-09T10:05:24Z</time>
      </trkpt>
      <trkpt lat="45.95785" lon="4.71532">
        <ele>181</ele>
        <time>2017-12-09T10:05:25Z</time>
      </trkpt>
      <trkpt lat="45.95793" lon="4.71532">
        <ele>181</ele>
        <time>2017-12-09T10:05:27Z</time>
      </trkpt>
      <trkpt lat="45.95796" lon="4.7153">
        <ele>181</ele>
        <time>2017-12-09T10:05:28Z</time>
      </trkpt>
      <trkpt lat="45.958" lon="4.7153">
        <ele>181</ele>
        <time>2017-12-09T10:05:29Z</time>
      </trkpt>
      <trkpt lat="45.95805" lon="4.71531">
        <ele>181</ele>
        <time>2017-12-09T10:05:30Z</time>
      </trkpt>
      <trkpt lat="45.95814" lon="4.71531">
        <ele>181</ele>
        <time>2017-12-09T10:05:32Z</time>
      </trkpt>
      <trkpt lat="45.95818" lon="4.71531">
        <ele>181</ele>
        <time>2017-12-09T10:05:33Z</time>
      </trkpt>
      <trkpt lat="45.95824" lon="4.71533">
        <ele>181</ele>
        <time>2017-12-09T10:05:34Z</time>
      </trkpt>
      <trkpt lat="45.9583" lon="4.71534">
        <ele>181</ele>
        <time>2017-12-09T10:05:35Z</time>
      </trkpt>
      <trkpt lat="45.95835" lon="4.71532">
        <ele>182</ele>
        <time>2017-12-09T10:05:36Z</time>
      </trkpt>
      <trkpt lat="45.95841" lon="4.71533">
        <ele>182</ele>
        <time>2017-12-09T10:05:37Z</time>
      </trkpt>
      <trkpt lat="45.95849" lon="4.71533">
        <ele>182</ele>
        <time>2017-12-09T10:05:39Z</time>
      </trkpt>
      <trkpt lat="45.95853" lon="4.71533">
        <ele>182</ele>
        <time>2017-12-09T10:05:40Z</time>
      </trkpt>
      <trkpt lat="45.95858" lon="4.71534">
        <ele>182</ele>
        <time>2017-12-09T10:05:41Z</time>
      </trkpt>
      <trkpt lat="45.95862" lon="4.71535">
        <ele>181</ele>
        <time>2017-12-09T10:05:42Z</time>
      </trkpt>
      <trkpt lat="45.95867" lon="4.71536">
        <ele>181</ele>
        <time>2017-12-09T10:05:43Z</time>
      </trkpt>
      <trkpt lat="45.95871" lon="4.71537">
        <ele>181</ele>
        <time>2017-12-09T10:05:44Z</time>
      </trkpt>
      <trkpt lat="45.95876" lon="4.71536">
        <ele>181</ele>
        <time>2017-12-09T10:05:45Z</time>
      </trkpt>
      <trkpt lat="45.95881" lon="4.71538">
        <ele>181</ele>
        <time>2017-12-09T10:05:46Z</time>
      </trkpt>
      <trkpt lat="45.9589" lon="4.71538">
        <ele>181</ele>
        <time>2017-12-09T10:05:48Z</time>
      </trkpt>
      <trkpt lat="45.95895" lon="4.71539">
        <ele>181</ele>
        <time>2017-12-09T10:05:49Z</time>
      </trkpt>
      <trkpt lat="45.95902" lon="4.71539">
        <ele>181</ele>
        <time>2017-12-09T10:05:51Z</time>
      </trkpt>
      <trkpt lat="45.95906" lon="4.71539">
        <ele>181</ele>
        <time>2017-12-09T10:05:52Z</time>
      </trkpt>
      <trkpt lat="45.95913" lon="4.7154">
        <ele>181</ele>
        <time>2017-12-09T10:05:54Z</time>
      </trkpt>
      <trkpt lat="45.95917" lon="4.71541">
        <ele>183</ele>
        <time>2017-12-09T10:05:55Z</time>
      </trkpt>
      <trkpt lat="45.95921" lon="4.71542">
        <ele>183</ele>
        <time>2017-12-09T10:05:56Z</time>
      </trkpt>
      <trkpt lat="45.95926" lon="4.71543">
        <ele>183</ele>
        <time>2017-12-09T10:05:57Z</time>
      </trkpt>
      <trkpt lat="45.95934" lon="4.71544">
        <ele>183</ele>
        <time>2017-12-09T10:05:59Z</time>
      </trkpt>
      <trkpt lat="45.95938" lon="4.71544">
        <ele>183</ele>
        <time>2017-12-09T10:06:00Z</time>
      </trkpt>
      <trkpt lat="45.95946" lon="4.71545">
        <ele>183</ele>
        <time>2017-12-09T10:06:02Z</time>
      </trkpt>
      <trkpt lat="45.9595" lon="4.71545">
        <ele>183</ele>
        <time>2017-12-09T10:06:03Z</time>
      </trkpt>
      <trkpt lat="45.95957" lon="4.71546">
        <ele>183</ele>
        <time>2017-12-09T10:06:05Z</time>
      </trkpt>
      <trkpt lat="45.95961" lon="4.71547">
        <ele>183</ele>
        <time>2017-12-09T10:06:06Z</time>
      </trkpt>
      <trkpt lat="45.95968" lon="4.71551">
        <ele>183</ele>
        <time>2017-12-09T10:06:08Z</time>
      </trkpt>
      <trkpt lat="45.95972" lon="4.71553">
        <ele>183</ele>
        <time>2017-12-09T10:06:09Z</time>
      </trkpt>
      <trkpt lat="45.95979" lon="4.71557">
        <ele>183</ele>
        <time>2017-12-09T10:06:11Z</time>
      </trkpt>
      <trkpt lat="45.95983" lon="4.71558">
        <ele>183</ele>
        <time>2017-12-09T10:06:12Z</time>
      </trkpt>
      <trkpt lat="45.9599" lon="4.71557">
        <ele>183</ele>
        <time>2017-12-09T10:06:14Z</time>
      </trkpt>
      <trkpt lat="45.95994" lon="4.71555">
        <ele>183</ele>
        <time>2017-12-09T10:06:15Z</time>
      </trkpt>
      <trkpt lat="45.96002" lon="4.7155">
        <ele>185</ele>
        <time>2017-12-09T10:06:17Z</time>
      </trkpt>
      <trkpt lat="45.96006" lon="4.71548">
        <ele>185</ele>
        <time>2017-12-09T10:06:18Z</time>
      </trkpt>
      <trkpt lat="45.96015" lon="4.71548">
        <ele>185</ele>
        <time>2017-12-09T10:06:20Z</time>
      </trkpt>
      <trkpt lat="45.9602" lon="4.71548">
        <ele>185</ele>
        <time>2017-12-09T10:06:21Z</time>
      </trkpt>
      <trkpt lat="45.96024" lon="4.71548">
        <ele>185</ele>
        <time>2017-12-09T10:06:22Z</time>
      </trkpt>
      <trkpt lat="45.96029" lon="4.71548">
        <ele>185</ele>
        <time>2017-12-09T10:06:23Z</time>
      </trkpt>
      <trkpt lat="45.96037" lon="4.71549">
        <ele>185</ele>
        <time>2017-12-09T10:06:25Z</time>
      </trkpt>
      <trkpt lat="45.96041" lon="4.7155">
        <ele>185</ele>
        <time>2017-12-09T10:06:26Z</time>
      </trkpt>
      <trkpt lat="45.96049" lon="4.71552">
        <ele>185</ele>
        <time>2017-12-09T10:06:28Z</time>
      </trkpt>
      <trkpt lat="45.96054" lon="4.71553">
        <ele>185</ele>
        <time>2017-12-09T10:06:29Z</time>
      </trkpt>
      <trkpt lat="45.96059" lon="4.71554">
        <ele>185</ele>
        <time>2017-12-09T10:06:30Z</time>
      </trkpt>
      <trkpt lat="45.96064" lon="4.71556">
        <ele>185</ele>
        <time>2017-12-09T10:06:31Z</time>
      </trkpt>
      <trkpt lat="45.96068" lon="4.71555">
        <ele>185</ele>
        <time>2017-12-09T10:06:32Z</time>
      </trkpt>
      <trkpt lat="45.96073" lon="4.71557">
        <ele>185</ele>
        <time>2017-12-09T10:06:33Z</time>
      </trkpt>
      <trkpt lat="45.96078" lon="4.71558">
        <ele>185</ele>
        <time>2017-12-09T10:06:34Z</time>
      </trkpt>
      <trkpt lat="45.96084" lon="4.7156">
        <ele>184</ele>
        <time>2017-12-09T10:06:35Z</time>
      </trkpt>
      <trkpt lat="45.9609" lon="4.71562">
        <ele>184</ele>
        <time>2017-12-09T10:06:36Z</time>
      </trkpt>
      <trkpt lat="45.96095" lon="4.71562">
        <ele>184</ele>
        <time>2017-12-09T10:06:37Z</time>
      </trkpt>
      <trkpt lat="45.96099" lon="4.71562">
        <ele>184</ele>
        <time>2017-12-09T10:06:38Z</time>
      </trkpt>
      <trkpt lat="45.96104" lon="4.71563">
        <ele>184</ele>
        <time>2017-12-09T10:06:39Z</time>
      </trkpt>
      <trkpt lat="45.96109" lon="4.71563">
        <ele>184</ele>
        <time>2017-12-09T10:06:40Z</time>
      </trkpt>
      <trkpt lat="45.96114" lon="4.71564">
        <ele>184</ele>
        <time>2017-12-09T10:06:41Z</time>
      </trkpt>
      <trkpt lat="45.96119" lon="4.71565">
        <ele>184</ele>
        <time>2017-12-09T10:06:42Z</time>
      </trkpt>
      <trkpt lat="45.96124" lon="4.71565">
        <ele>184</ele>
        <time>2017-12-09T10:06:43Z</time>
      </trkpt>
      <trkpt lat="45.96129" lon="4.71566">
        <ele>184</ele>
        <time>2017-12-09T10:06:44Z</time>
      </trkpt>
      <trkpt lat="45.96135" lon="4.71566">
        <ele>184</ele>
        <time>2017-12-09T10:06:45Z</time>
      </trkpt>
      <trkpt lat="45.9614" lon="4.71566">
        <ele>183</ele>
        <time>2017-12-09T10:06:46Z</time>
      </trkpt>
      <trkpt lat="45.96145" lon="4.71567">
        <ele>183</ele>
        <time>2017-12-09T10:06:47Z</time>
      </trkpt>
      <trkpt lat="45.96151" lon="4.71567">
        <ele>183</ele>
        <time>2017-12-09T10:06:48Z</time>
      </trkpt>
      <trkpt lat="45.96156" lon="4.71569">
        <ele>183</ele>
        <time>2017-12-09T10:06:49Z</time>
      </trkpt>
      <trkpt lat="45.96163" lon="4.7157">
        <ele>182</ele>
        <time>2017-12-09T10:06:50Z</time>
      </trkpt>
      <trkpt lat="45.96168" lon="4.7157">
        <ele>182</ele>
        <time>2017-12-09T10:06:51Z</time>
      </trkpt>
      <trkpt lat="45.96173" lon="4.7157">
        <ele>182</ele>
        <time>2017-12-09T10:06:52Z</time>
      </trkpt>
      <trkpt lat="45.96178" lon="4.71572">
        <ele>182</ele>
        <time>2017-12-09T10:06:53Z</time>
      </trkpt>
      <trkpt lat="45.96183" lon="4.71572">
        <ele>182</ele>
        <time>2017-12-09T10:06:54Z</time>
      </trkpt>
      <trkpt lat="45.96188" lon="4.71573">
        <ele>182</ele>
        <time>2017-12-09T10:06:55Z</time>
      </trkpt>
      <trkpt lat="45.96194" lon="4.71574">
        <ele>183</ele>
        <time>2017-12-09T10:06:56Z</time>
      </trkpt>
      <trkpt lat="45.96198" lon="4.71575">
        <ele>183</ele>
        <time>2017-12-09T10:06:57Z</time>
      </trkpt>
      <trkpt lat="45.96203" lon="4.71575">
        <ele>183</ele>
        <time>2017-12-09T10:06:58Z</time>
      </trkpt>
      <trkpt lat="45.96208" lon="4.71576">
        <ele>183</ele>
        <time>2017-12-09T10:06:59Z</time>
      </trkpt>
      <trkpt lat="45.96213" lon="4.71577">
        <ele>183</ele>
        <time>2017-12-09T10:07:00Z</time>
      </trkpt>
      <trkpt lat="45.96218" lon="4.71578">
        <ele>183</ele>
        <time>2017-12-09T10:07:01Z</time>
      </trkpt>
      <trkpt lat="45.96224" lon="4.71578">
        <ele>183</ele>
        <time>2017-12-09T10:07:02Z</time>
      </trkpt>
      <trkpt lat="45.96229" lon="4.71578">
        <ele>183</ele>
        <time>2017-12-09T10:07:03Z</time>
      </trkpt>
      <trkpt lat="45.96235" lon="4.71581">
        <ele>182</ele>
        <time>2017-12-09T10:07:04Z</time>
      </trkpt>
      <trkpt lat="45.96241" lon="4.71581">
        <ele>182</ele>
        <time>2017-12-09T10:07:05Z</time>
      </trkpt>
      <trkpt lat="45.96247" lon="4.71581">
        <ele>181</ele>
        <time>2017-12-09T10:07:06Z</time>
      </trkpt>
      <trkpt lat="45.96252" lon="4.71583">
        <ele>181</ele>
        <time>2017-12-09T10:07:07Z</time>
      </trkpt>
      <trkpt lat="45.96258" lon="4.71583">
        <ele>182</ele>
        <time>2017-12-09T10:07:08Z</time>
      </trkpt>
      <trkpt lat="45.96264" lon="4.71584">
        <ele>181</ele>
        <time>2017-12-09T10:07:09Z</time>
      </trkpt>
      <trkpt lat="45.96269" lon="4.71586">
        <ele>180</ele>
        <time>2017-12-09T10:07:10Z</time>
      </trkpt>
      <trkpt lat="45.96274" lon="4.71587">
        <ele>180</ele>
        <time>2017-12-09T10:07:11Z</time>
      </trkpt>
      <trkpt lat="45.9628" lon="4.71588">
        <ele>180</ele>
        <time>2017-12-09T10:07:12Z</time>
      </trkpt>
      <trkpt lat="45.96286" lon="4.71589">
        <ele>180</ele>
        <time>2017-12-09T10:07:13Z</time>
      </trkpt>
      <trkpt lat="45.96292" lon="4.7159">
        <ele>181</ele>
        <time>2017-12-09T10:07:14Z</time>
      </trkpt>
      <trkpt lat="45.96298" lon="4.71592">
        <ele>181</ele>
        <time>2017-12-09T10:07:15Z</time>
      </trkpt>
      <trkpt lat="45.96304" lon="4.71592">
        <ele>181</ele>
        <time>2017-12-09T10:07:16Z</time>
      </trkpt>
      <trkpt lat="45.9631" lon="4.71594">
        <ele>181</ele>
        <time>2017-12-09T10:07:17Z</time>
      </trkpt>
      <trkpt lat="45.96318" lon="4.71596">
        <ele>181</ele>
        <time>2017-12-09T10:07:19Z</time>
      </trkpt>
      <trkpt lat="45.96323" lon="4.71596">
        <ele>181</ele>
        <time>2017-12-09T10:07:20Z</time>
      </trkpt>
      <trkpt lat="45.96328" lon="4.71597">
        <ele>182</ele>
        <time>2017-12-09T10:07:21Z</time>
      </trkpt>
      <trkpt lat="45.96332" lon="4.71597">
        <ele>182</ele>
        <time>2017-12-09T10:07:22Z</time>
      </trkpt>
      <trkpt lat="45.96341" lon="4.71597">
        <ele>182</ele>
        <time>2017-12-09T10:07:24Z</time>
      </trkpt>
      <trkpt lat="45.96346" lon="4.71599">
        <ele>182</ele>
        <time>2017-12-09T10:07:25Z</time>
      </trkpt>
      <trkpt lat="45.9635" lon="4.71599">
        <ele>182</ele>
        <time>2017-12-09T10:07:26Z</time>
      </trkpt>
      <trkpt lat="45.96355" lon="4.716">
        <ele>182</ele>
        <time>2017-12-09T10:07:27Z</time>
      </trkpt>
      <trkpt lat="45.9636" lon="4.716">
        <ele>182</ele>
        <time>2017-12-09T10:07:28Z</time>
      </trkpt>
      <trkpt lat="45.96364" lon="4.71602">
        <ele>182</ele>
        <time>2017-12-09T10:07:29Z</time>
      </trkpt>
      <trkpt lat="45.96369" lon="4.71603">
        <ele>182</ele>
        <time>2017-12-09T10:07:30Z</time>
      </trkpt>
      <trkpt lat="45.96374" lon="4.71604">
        <ele>182</ele>
        <time>2017-12-09T10:07:31Z</time>
      </trkpt>
      <trkpt lat="45.96379" lon="4.71604">
        <ele>182</ele>
        <time>2017-12-09T10:07:32Z</time>
      </trkpt>
      <trkpt lat="45.96384" lon="4.71605">
        <ele>182</ele>
        <time>2017-12-09T10:07:33Z</time>
      </trkpt>
      <trkpt lat="45.96389" lon="4.71606">
        <ele>182</ele>
        <time>2017-12-09T10:07:34Z</time>
      </trkpt>
      <trkpt lat="45.96394" lon="4.71607">
        <ele>182</ele>
        <time>2017-12-09T10:07:35Z</time>
      </trkpt>
      <trkpt lat="45.96399" lon="4.71607">
        <ele>182</ele>
        <time>2017-12-09T10:07:36Z</time>
      </trkpt>
      <trkpt lat="45.96405" lon="4.71607">
        <ele>183</ele>
        <time>2017-12-09T10:07:37Z</time>
      </trkpt>
      <trkpt lat="45.96409" lon="4.71607">
        <ele>183</ele>
        <time>2017-12-09T10:07:38Z</time>
      </trkpt>
      <trkpt lat="45.96415" lon="4.71608">
        <ele>183</ele>
        <time>2017-12-09T10:07:39Z</time>
      </trkpt>
      <trkpt lat="45.9642" lon="4.71609">
        <ele>183</ele>
        <time>2017-12-09T10:07:40Z</time>
      </trkpt>
      <trkpt lat="45.96424" lon="4.71609">
        <ele>183</ele>
        <time>2017-12-09T10:07:41Z</time>
      </trkpt>
      <trkpt lat="45.9643" lon="4.7161">
        <ele>183</ele>
        <time>2017-12-09T10:07:42Z</time>
      </trkpt>
      <trkpt lat="45.96435" lon="4.71611">
        <ele>183</ele>
        <time>2017-12-09T10:07:43Z</time>
      </trkpt>
      <trkpt lat="45.9644" lon="4.71612">
        <ele>183</ele>
        <time>2017-12-09T10:07:44Z</time>
      </trkpt>
      <trkpt lat="45.96445" lon="4.71613">
        <ele>183</ele>
        <time>2017-12-09T10:07:45Z</time>
      </trkpt>
      <trkpt lat="45.96451" lon="4.71613">
        <ele>183</ele>
        <time>2017-12-09T10:07:46Z</time>
      </trkpt>
      <trkpt lat="45.96456" lon="4.71615">
        <ele>183</ele>
        <time>2017-12-09T10:07:47Z</time>
      </trkpt>
      <trkpt lat="45.96461" lon="4.71615">
        <ele>183</ele>
        <time>2017-12-09T10:07:48Z</time>
      </trkpt>
      <trkpt lat="45.96469" lon="4.71618">
        <ele>183</ele>
        <time>2017-12-09T10:07:49Z</time>
      </trkpt>
      <trkpt lat="45.96474" lon="4.71619">
        <ele>183</ele>
        <time>2017-12-09T10:07:50Z</time>
      </trkpt>
      <trkpt lat="45.96479" lon="4.7162">
        <ele>183</ele>
        <time>2017-12-09T10:07:51Z</time>
      </trkpt>
      <trkpt lat="45.96487" lon="4.71621">
        <ele>183</ele>
        <time>2017-12-09T10:07:53Z</time>
      </trkpt>
      <trkpt lat="45.96492" lon="4.7162">
        <ele>183</ele>
        <time>2017-12-09T10:07:54Z</time>
      </trkpt>
      <trkpt lat="45.96496" lon="4.71621">
        <ele>183</ele>
        <time>2017-12-09T10:07:55Z</time>
      </trkpt>
      <trkpt lat="45.96501" lon="4.71622">
        <ele>184</ele>
        <time>2017-12-09T10:07:56Z</time>
      </trkpt>
      <trkpt lat="45.96509" lon="4.71624">
        <ele>184</ele>
        <time>2017-12-09T10:07:58Z</time>
      </trkpt>
      <trkpt lat="45.96513" lon="4.71627">
        <ele>184</ele>
        <time>2017-12-09T10:07:59Z</time>
      </trkpt>
      <trkpt lat="45.9652" lon="4.71633">
        <ele>183</ele>
        <time>2017-12-09T10:08:01Z</time>
      </trkpt>
      <trkpt lat="45.96524" lon="4.71638">
        <ele>183</ele>
        <time>2017-12-09T10:08:02Z</time>
      </trkpt>
      <trkpt lat="45.96528" lon="4.71641">
        <ele>183</ele>
        <time>2017-12-09T10:08:03Z</time>
      </trkpt>
      <trkpt lat="45.96533" lon="4.71643">
        <ele>183</ele>
        <time>2017-12-09T10:08:04Z</time>
      </trkpt>
      <trkpt lat="45.96539" lon="4.71643">
        <ele>184</ele>
        <time>2017-12-09T10:08:05Z</time>
      </trkpt>
      <trkpt lat="45.96543" lon="4.71641">
        <ele>184</ele>
        <time>2017-12-09T10:08:06Z</time>
      </trkpt>
      <trkpt lat="45.96547" lon="4.71636">
        <ele>184</ele>
        <time>2017-12-09T10:08:07Z</time>
      </trkpt>
      <trkpt lat="45.96552" lon="4.71633">
        <ele>184</ele>
        <time>2017-12-09T10:08:08Z</time>
      </trkpt>
      <trkpt lat="45.96556" lon="4.7163">
        <ele>184</ele>
        <time>2017-12-09T10:08:09Z</time>
      </trkpt>
      <trkpt lat="45.96561" lon="4.71629">
        <ele>184</ele>
        <time>2017-12-09T10:08:10Z</time>
      </trkpt>
      <trkpt lat="45.96568" lon="4.7163">
        <ele>185</ele>
        <time>2017-12-09T10:08:12Z</time>
      </trkpt>
      <trkpt lat="45.96573" lon="4.7163">
        <ele>185</ele>
        <time>2017-12-09T10:08:13Z</time>
      </trkpt>
      <trkpt lat="45.96582" lon="4.71631">
        <ele>185</ele>
        <time>2017-12-09T10:08:15Z</time>
      </trkpt>
      <trkpt lat="45.96586" lon="4.71633">
        <ele>187</ele>
        <time>2017-12-09T10:08:16Z</time>
      </trkpt>
      <trkpt lat="45.96591" lon="4.71632">
        <ele>187</ele>
        <time>2017-12-09T10:08:17Z</time>
      </trkpt>
      <trkpt lat="45.96595" lon="4.71634">
        <ele>187</ele>
        <time>2017-12-09T10:08:18Z</time>
      </trkpt>
      <trkpt lat="45.96603" lon="4.71635">
        <ele>187</ele>
        <time>2017-12-09T10:08:20Z</time>
      </trkpt>
      <trkpt lat="45.96607" lon="4.71636">
        <ele>187</ele>
        <time>2017-12-09T10:08:21Z</time>
      </trkpt>
      <trkpt lat="45.96616" lon="4.71638">
        <ele>187</ele>
        <time>2017-12-09T10:08:23Z</time>
      </trkpt>
      <trkpt lat="45.9662" lon="4.71638">
        <ele>187</ele>
        <time>2017-12-09T10:08:24Z</time>
      </trkpt>
      <trkpt lat="45.96625" lon="4.71639">
        <ele>187</ele>
        <time>2017-12-09T10:08:25Z</time>
      </trkpt>
      <trkpt lat="45.96631" lon="4.7164">
        <ele>187</ele>
        <time>2017-12-09T10:08:26Z</time>
      </trkpt>
      <trkpt lat="45.96636" lon="4.71641">
        <ele>187</ele>
        <time>2017-12-09T10:08:27Z</time>
      </trkpt>
      <trkpt lat="45.96641" lon="4.71642">
        <ele>188</ele>
        <time>2017-12-09T10:08:28Z</time>
      </trkpt>
      <trkpt lat="45.96649" lon="4.71643">
        <ele>188</ele>
        <time>2017-12-09T10:08:30Z</time>
      </trkpt>
      <trkpt lat="45.96655" lon="4.71644">
        <ele>188</ele>
        <time>2017-12-09T10:08:31Z</time>
      </trkpt>
      <trkpt lat="45.96663" lon="4.71647">
        <ele>188</ele>
        <time>2017-12-09T10:08:33Z</time>
      </trkpt>
      <trkpt lat="45.96667" lon="4.71648">
        <ele>189</ele>
        <time>2017-12-09T10:08:34Z</time>
      </trkpt>
      <trkpt lat="45.96672" lon="4.71648">
        <ele>189</ele>
        <time>2017-12-09T10:08:35Z</time>
      </trkpt>
      <trkpt lat="45.96677" lon="4.71648">
        <ele>189</ele>
        <time>2017-12-09T10:08:36Z</time>
      </trkpt>
      <trkpt lat="45.96682" lon="4.71649">
        <ele>189</ele>
        <time>2017-12-09T10:08:37Z</time>
      </trkpt>
      <trkpt lat="45.96686" lon="4.71649">
        <ele>189</ele>
        <time>2017-12-09T10:08:38Z</time>
      </trkpt>
      <trkpt lat="45.96691" lon="4.71649">
        <ele>189</ele>
        <time>2017-12-09T10:08:39Z</time>
      </trkpt>
      <trkpt lat="45.96696" lon="4.7165">
        <ele>190</ele>
        <time>2017-12-09T10:08:40Z</time>
      </trkpt>
      <trkpt lat="45.967" lon="4.7165">
        <ele>190</ele>
        <time>2017-12-09T10:08:41Z</time>
      </trkpt>
      <trkpt lat="45.96705" lon="4.71651">
        <ele>190</ele>
        <time>2017-12-09T10:08:42Z</time>
      </trkpt>
      <trkpt lat="45.96713" lon="4.71654">
        <ele>190</ele>
        <time>2017-12-09T10:08:44Z</time>
      </trkpt>
      <trkpt lat="45.96718" lon="4.71654">
        <ele>190</ele>
        <time>2017-12-09T10:08:45Z</time>
      </trkpt>
      <trkpt lat="45.96727" lon="4.71656">
        <ele>190</ele>
        <time>2017-12-09T10:08:47Z</time>
      </trkpt>
      <trkpt lat="45.9673" lon="4.71657">
        <ele>190</ele>
        <time>2017-12-09T10:08:48Z</time>
      </trkpt>
      <trkpt lat="45.96739" lon="4.71658">
        <ele>190</ele>
        <time>2017-12-09T10:08:50Z</time>
      </trkpt>
      <trkpt lat="45.96742" lon="4.71659">
        <ele>190</ele>
        <time>2017-12-09T10:08:51Z</time>
      </trkpt>
      <trkpt lat="45.9675" lon="4.71661">
        <ele>189</ele>
        <time>2017-12-09T10:08:53Z</time>
      </trkpt>
      <trkpt lat="45.96754" lon="4.71662">
        <ele>190</ele>
        <time>2017-12-09T10:08:54Z</time>
      </trkpt>
      <trkpt lat="45.96762" lon="4.71662">
        <ele>191</ele>
        <time>2017-12-09T10:08:56Z</time>
      </trkpt>
      <trkpt lat="45.96765" lon="4.71663">
        <ele>191</ele>
        <time>2017-12-09T10:08:57Z</time>
      </trkpt>
      <trkpt lat="45.9677" lon="4.71664">
        <ele>191</ele>
        <time>2017-12-09T10:08:58Z</time>
      </trkpt>
      <trkpt lat="45.96775" lon="4.71665">
        <ele>192</ele>
        <time>2017-12-09T10:08:59Z</time>
      </trkpt>
      <trkpt lat="45.96783" lon="4.71666">
        <ele>192</ele>
        <time>2017-12-09T10:09:01Z</time>
      </trkpt>
      <trkpt lat="45.96787" lon="4.71667">
        <ele>188</ele>
        <time>2017-12-09T10:09:02Z</time>
      </trkpt>
      <trkpt lat="45.96795" lon="4.71668">
        <ele>188</ele>
        <time>2017-12-09T10:09:04Z</time>
      </trkpt>
      <trkpt lat="45.96799" lon="4.71667">
        <ele>188</ele>
        <time>2017-12-09T10:09:05Z</time>
      </trkpt>
      <trkpt lat="45.96808" lon="4.71668">
        <ele>189</ele>
        <time>2017-12-09T10:09:07Z</time>
      </trkpt>
      <trkpt lat="45.96813" lon="4.71669">
        <ele>189</ele>
        <time>2017-12-09T10:09:08Z</time>
      </trkpt>
      <trkpt lat="45.96821" lon="4.7167">
        <ele>190</ele>
        <time>2017-12-09T10:09:10Z</time>
      </trkpt>
      <trkpt lat="45.96826" lon="4.71671">
        <ele>190</ele>
        <time>2017-12-09T10:09:11Z</time>
      </trkpt>
      <trkpt lat="45.96831" lon="4.71674">
        <ele>191</ele>
        <time>2017-12-09T10:09:12Z</time>
      </trkpt>
      <trkpt lat="45.96835" lon="4.71675">
        <ele>191</ele>
        <time>2017-12-09T10:09:13Z</time>
      </trkpt>
      <trkpt lat="45.96841" lon="4.71676">
        <ele>191</ele>
        <time>2017-12-09T10:09:14Z</time>
      </trkpt>
      <trkpt lat="45.96845" lon="4.71676">
        <ele>191</ele>
        <time>2017-12-09T10:09:15Z</time>
      </trkpt>
      <trkpt lat="45.96853" lon="4.71678">
        <ele>190</ele>
        <time>2017-12-09T10:09:17Z</time>
      </trkpt>
      <trkpt lat="45.96857" lon="4.71678">
        <ele>190</ele>
        <time>2017-12-09T10:09:18Z</time>
      </trkpt>
      <trkpt lat="45.96862" lon="4.71677">
        <ele>190</ele>
        <time>2017-12-09T10:09:19Z</time>
      </trkpt>
      <trkpt lat="45.96866" lon="4.71676">
        <ele>190</ele>
        <time>2017-12-09T10:09:20Z</time>
      </trkpt>
      <trkpt lat="45.96875" lon="4.71678">
        <ele>190</ele>
        <time>2017-12-09T10:09:22Z</time>
      </trkpt>
      <trkpt lat="45.96879" lon="4.71679">
        <ele>190</ele>
        <time>2017-12-09T10:09:23Z</time>
      </trkpt>
      <trkpt lat="45.96887" lon="4.71678">
        <ele>191</ele>
        <time>2017-12-09T10:09:25Z</time>
      </trkpt>
      <trkpt lat="45.96892" lon="4.7168">
        <ele>191</ele>
        <time>2017-12-09T10:09:26Z</time>
      </trkpt>
      <trkpt lat="45.96897" lon="4.71681">
        <ele>191</ele>
        <time>2017-12-09T10:09:27Z</time>
      </trkpt>
      <trkpt lat="45.96902" lon="4.71682">
        <ele>191</ele>
        <time>2017-12-09T10:09:28Z</time>
      </trkpt>
      <trkpt lat="45.9691" lon="4.71683">
        <ele>192</ele>
        <time>2017-12-09T10:09:30Z</time>
      </trkpt>
      <trkpt lat="45.96914" lon="4.71683">
        <ele>192</ele>
        <time>2017-12-09T10:09:31Z</time>
      </trkpt>
      <trkpt lat="45.96923" lon="4.71684">
        <ele>192</ele>
        <time>2017-12-09T10:09:33Z</time>
      </trkpt>
      <trkpt lat="45.96928" lon="4.71685">
        <ele>192</ele>
        <time>2017-12-09T10:09:34Z</time>
      </trkpt>
      <trkpt lat="45.96936" lon="4.71684">
        <ele>192</ele>
        <time>2017-12-09T10:09:36Z</time>
      </trkpt>
      <trkpt lat="45.96941" lon="4.71684">
        <ele>192</ele>
        <time>2017-12-09T10:09:37Z</time>
      </trkpt>
      <trkpt lat="45.96947" lon="4.71684">
        <ele>192</ele>
        <time>2017-12-09T10:09:38Z</time>
      </trkpt>
      <trkpt lat="45.96951" lon="4.71684">
        <ele>192</ele>
        <time>2017-12-09T10:09:39Z</time>
      </trkpt>
      <trkpt lat="45.96956" lon="4.71686">
        <ele>192</ele>
        <time>2017-12-09T10:09:40Z</time>
      </trkpt>
      <trkpt lat="45.96961" lon="4.71686">
        <ele>191</ele>
        <time>2017-12-09T10:09:41Z</time>
      </trkpt>
      <trkpt lat="45.96965" lon="4.71687">
        <ele>192</ele>
        <time>2017-12-09T10:09:42Z</time>
      </trkpt>
      <trkpt lat="45.9697" lon="4.71687">
        <ele>192</ele>
        <time>2017-12-09T10:09:43Z</time>
      </trkpt>
      <trkpt lat="45.96974" lon="4.71688">
        <ele>192</ele>
        <time>2017-12-09T10:09:44Z</time>
      </trkpt>
      <trkpt lat="45.96979" lon="4.71688">
        <ele>192</ele>
        <time>2017-12-09T10:09:45Z</time>
      </trkpt>
      <trkpt lat="45.96984" lon="4.71689">
        <ele>192</ele>
        <time>2017-12-09T10:09:46Z</time>
      </trkpt>
      <trkpt lat="45.96988" lon="4.71691">
        <ele>192</ele>
        <time>2017-12-09T10:09:47Z</time>
      </trkpt>
      <trkpt lat="45.96996" lon="4.71693">
        <ele>192</ele>
        <time>2017-12-09T10:09:49Z</time>
      </trkpt>
      <trkpt lat="45.97" lon="4.71694">
        <ele>192</ele>
        <time>2017-12-09T10:09:50Z</time>
      </trkpt>
      <trkpt lat="45.97008" lon="4.71695">
        <ele>192</ele>
        <time>2017-12-09T10:09:52Z</time>
      </trkpt>
      <trkpt lat="45.97012" lon="4.71695">
        <ele>192</ele>
        <time>2017-12-09T10:09:53Z</time>
      </trkpt>
      <trkpt lat="45.97017" lon="4.71696">
        <ele>192</ele>
        <time>2017-12-09T10:09:54Z</time>
      </trkpt>
      <trkpt lat="45.97023" lon="4.71697">
        <ele>192</ele>
        <time>2017-12-09T10:09:55Z</time>
      </trkpt>
      <trkpt lat="45.97028" lon="4.71698">
        <ele>192</ele>
        <time>2017-12-09T10:09:56Z</time>
      </trkpt>
      <trkpt lat="45.97032" lon="4.71698">
        <ele>192</ele>
        <time>2017-12-09T10:09:57Z</time>
      </trkpt>
      <trkpt lat="45.97036" lon="4.71698">
        <ele>192</ele>
        <time>2017-12-09T10:09:58Z</time>
      </trkpt>
      <trkpt lat="45.97042" lon="4.71699">
        <ele>192</ele>
        <time>2017-12-09T10:09:59Z</time>
      </trkpt>
      <trkpt lat="45.97049" lon="4.71699">
        <ele>192</ele>
        <time>2017-12-09T10:10:01Z</time>
      </trkpt>
      <trkpt lat="45.97053" lon="4.71699">
        <ele>192</ele>
        <time>2017-12-09T10:10:02Z</time>
      </trkpt>
      <trkpt lat="45.97062" lon="4.717">
        <ele>192</ele>
        <time>2017-12-09T10:10:04Z</time>
      </trkpt>
      <trkpt lat="45.97066" lon="4.71699">
        <ele>192</ele>
        <time>2017-12-09T10:10:05Z</time>
      </trkpt>
      <trkpt lat="45.97072" lon="4.71699">
        <ele>193</ele>
        <time>2017-12-09T10:10:06Z</time>
      </trkpt>
      <trkpt lat="45.97076" lon="4.71699">
        <ele>193</ele>
        <time>2017-12-09T10:10:07Z</time>
      </trkpt>
      <trkpt lat="45.97081" lon="4.71699">
        <ele>193</ele>
        <time>2017-12-09T10:10:08Z</time>
      </trkpt>
      <trkpt lat="45.97086" lon="4.717">
        <ele>194</ele>
        <time>2017-12-09T10:10:09Z</time>
      </trkpt>
      <trkpt lat="45.97091" lon="4.717">
        <ele>194</ele>
        <time>2017-12-09T10:10:10Z</time>
      </trkpt>
      <trkpt lat="45.97095" lon="4.71701">
        <ele>194</ele>
        <time>2017-12-09T10:10:11Z</time>
      </trkpt>
      <trkpt lat="45.97104" lon="4.717">
        <ele>194</ele>
        <time>2017-12-09T10:10:13Z</time>
      </trkpt>
      <trkpt lat="45.97108" lon="4.71701">
        <ele>194</ele>
        <time>2017-12-09T10:10:14Z</time>
      </trkpt>
      <trkpt lat="45.97116" lon="4.71701">
        <ele>194</ele>
        <time>2017-12-09T10:10:16Z</time>
      </trkpt>
      <trkpt lat="45.9712" lon="4.71702">
        <ele>194</ele>
        <time>2017-12-09T10:10:17Z</time>
      </trkpt>
      <trkpt lat="45.97125" lon="4.71703">
        <ele>194</ele>
        <time>2017-12-09T10:10:18Z</time>
      </trkpt>
      <trkpt lat="45.9713" lon="4.71703">
        <ele>194</ele>
        <time>2017-12-09T10:10:19Z</time>
      </trkpt>
      <trkpt lat="45.97135" lon="4.71704">
        <ele>194</ele>
        <time>2017-12-09T10:10:20Z</time>
      </trkpt>
      <trkpt lat="45.9714" lon="4.71703">
        <ele>194</ele>
        <time>2017-12-09T10:10:21Z</time>
      </trkpt>
      <trkpt lat="45.97146" lon="4.71704">
        <ele>195</ele>
        <time>2017-12-09T10:10:22Z</time>
      </trkpt>
      <trkpt lat="45.97151" lon="4.71703">
        <ele>195</ele>
        <time>2017-12-09T10:10:23Z</time>
      </trkpt>
      <trkpt lat="45.97156" lon="4.71704">
        <ele>195</ele>
        <time>2017-12-09T10:10:24Z</time>
      </trkpt>
      <trkpt lat="45.97161" lon="4.71705">
        <ele>195</ele>
        <time>2017-12-09T10:10:25Z</time>
      </trkpt>
      <trkpt lat="45.97165" lon="4.71707">
        <ele>195</ele>
        <time>2017-12-09T10:10:26Z</time>
      </trkpt>
      <trkpt lat="45.9717" lon="4.71708">
        <ele>196</ele>
        <time>2017-12-09T10:10:27Z</time>
      </trkpt>
      <trkpt lat="45.97178" lon="4.71708">
        <ele>196</ele>
        <time>2017-12-09T10:10:29Z</time>
      </trkpt>
      <trkpt lat="45.97184" lon="4.71708">
        <ele>196</ele>
        <time>2017-12-09T10:10:30Z</time>
      </trkpt>
      <trkpt lat="45.97188" lon="4.71709">
        <ele>196</ele>
        <time>2017-12-09T10:10:31Z</time>
      </trkpt>
      <trkpt lat="45.97193" lon="4.7171">
        <ele>196</ele>
        <time>2017-12-09T10:10:32Z</time>
      </trkpt>
      <trkpt lat="45.97201" lon="4.7171">
        <ele>196</ele>
        <time>2017-12-09T10:10:34Z</time>
      </trkpt>
      <trkpt lat="45.97205" lon="4.7171">
        <ele>196</ele>
        <time>2017-12-09T10:10:35Z</time>
      </trkpt>
      <trkpt lat="45.97214" lon="4.71711">
        <ele>196</ele>
        <time>2017-12-09T10:10:37Z</time>
      </trkpt>
      <trkpt lat="45.97219" lon="4.71712">
        <ele>196</ele>
        <time>2017-12-09T10:10:38Z</time>
      </trkpt>
      <trkpt lat="45.97227" lon="4.71713">
        <ele>196</ele>
        <time>2017-12-09T10:10:40Z</time>
      </trkpt>
      <trkpt lat="45.97231" lon="4.71714">
        <ele>196</ele>
        <time>2017-12-09T10:10:41Z</time>
      </trkpt>
      <trkpt lat="45.97239" lon="4.71715">
        <ele>196</ele>
        <time>2017-12-09T10:10:43Z</time>
      </trkpt>
      <trkpt lat="45.97242" lon="4.71713">
        <ele>196</ele>
        <time>2017-12-09T10:10:44Z</time>
      </trkpt>
      <trkpt lat="45.97251" lon="4.71713">
        <ele>196</ele>
        <time>2017-12-09T10:10:46Z</time>
      </trkpt>
      <trkpt lat="45.97256" lon="4.71714">
        <ele>196</ele>
        <time>2017-12-09T10:10:47Z</time>
      </trkpt>
      <trkpt lat="45.97261" lon="4.71715">
        <ele>196</ele>
        <time>2017-12-09T10:10:48Z</time>
      </trkpt>
      <trkpt lat="45.97266" lon="4.71717">
        <ele>196</ele>
        <time>2017-12-09T10:10:49Z</time>
      </trkpt>
      <trkpt lat="45.97271" lon="4.71719">
        <ele>196</ele>
        <time>2017-12-09T10:10:50Z</time>
      </trkpt>
      <trkpt lat="45.97276" lon="4.7172">
        <ele>196</ele>
        <time>2017-12-09T10:10:51Z</time>
      </trkpt>
      <trkpt lat="45.9728" lon="4.71722">
        <ele>196</ele>
        <time>2017-12-09T10:10:52Z</time>
      </trkpt>
      <trkpt lat="45.97285" lon="4.71726">
        <ele>196</ele>
        <time>2017-12-09T10:10:53Z</time>
      </trkpt>
      <trkpt lat="45.97289" lon="4.71731">
        <ele>196</ele>
        <time>2017-12-09T10:10:54Z</time>
      </trkpt>
      <trkpt lat="45.97293" lon="4.71734">
        <ele>196</ele>
        <time>2017-12-09T10:10:55Z</time>
      </trkpt>
      <trkpt lat="45.97301" lon="4.71738">
        <ele>196</ele>
        <time>2017-12-09T10:10:57Z</time>
      </trkpt>
      <trkpt lat="45.97305" lon="4.71738">
        <ele>196</ele>
        <time>2017-12-09T10:10:58Z</time>
      </trkpt>
      <trkpt lat="45.97309" lon="4.71737">
        <ele>195</ele>
        <time>2017-12-09T10:10:59Z</time>
      </trkpt>
      <trkpt lat="45.97314" lon="4.71736">
        <ele>195</ele>
        <time>2017-12-09T10:11:00Z</time>
      </trkpt>
      <trkpt lat="45.97319" lon="4.71733">
        <ele>195</ele>
        <time>2017-12-09T10:11:01Z</time>
      </trkpt>
      <trkpt lat="45.97323" lon="4.7173">
        <ele>195</ele>
        <time>2017-12-09T10:11:02Z</time>
      </trkpt>
      <trkpt lat="45.97327" lon="4.71727">
        <ele>195</ele>
        <time>2017-12-09T10:11:03Z</time>
      </trkpt>
      <trkpt lat="45.97331" lon="4.71724">
        <ele>195</ele>
        <time>2017-12-09T10:11:04Z</time>
      </trkpt>
      <trkpt lat="45.97339" lon="4.71721">
        <ele>195</ele>
        <time>2017-12-09T10:11:06Z</time>
      </trkpt>
      <trkpt lat="45.97343" lon="4.71722">
        <ele>195</ele>
        <time>2017-12-09T10:11:07Z</time>
      </trkpt>
      <trkpt lat="45.97348" lon="4.71723">
        <ele>195</ele>
        <time>2017-12-09T10:11:08Z</time>
      </trkpt>
      <trkpt lat="45.97352" lon="4.71724">
        <ele>195</ele>
        <time>2017-12-09T10:11:09Z</time>
      </trkpt>
      <trkpt lat="45.97361" lon="4.71726">
        <ele>195</ele>
        <time>2017-12-09T10:11:11Z</time>
      </trkpt>
      <trkpt lat="45.97366" lon="4.71726">
        <ele>195</ele>
        <time>2017-12-09T10:11:12Z</time>
      </trkpt>
      <trkpt lat="45.97371" lon="4.71726">
        <ele>195</ele>
        <time>2017-12-09T10:11:13Z</time>
      </trkpt>
      <trkpt lat="45.97376" lon="4.71726">
        <ele>195</ele>
        <time>2017-12-09T10:11:14Z</time>
      </trkpt>
      <trkpt lat="45.97381" lon="4.71726">
        <ele>195</ele>
        <time>2017-12-09T10:11:15Z</time>
      </trkpt>
      <trkpt lat="45.97385" lon="4.71726">
        <ele>195</ele>
        <time>2017-12-09T10:11:16Z</time>
      </trkpt>
      <trkpt lat="45.97393" lon="4.71726">
        <ele>195</ele>
        <time>2017-12-09T10:11:18Z</time>
      </trkpt>
      <trkpt lat="45.97398" lon="4.71726">
        <ele>195</ele>
        <time>2017-12-09T10:11:19Z</time>
      </trkpt>
      <trkpt lat="45.97407" lon="4.71727">
        <ele>195</ele>
        <time>2017-12-09T10:11:21Z</time>
      </trkpt>
      <trkpt lat="45.97412" lon="4.71727">
        <ele>194</ele>
        <time>2017-12-09T10:11:22Z</time>
      </trkpt>
      <trkpt lat="45.97416" lon="4.71727">
        <ele>194</ele>
        <time>2017-12-09T10:11:23Z</time>
      </trkpt>
      <trkpt lat="45.9742" lon="4.71728">
        <ele>195</ele>
        <time>2017-12-09T10:11:24Z</time>
      </trkpt>
      <trkpt lat="45.97425" lon="4.71728">
        <ele>196</ele>
        <time>2017-12-09T10:11:25Z</time>
      </trkpt>
      <trkpt lat="45.9743" lon="4.71729">
        <ele>196</ele>
        <time>2017-12-09T10:11:26Z</time>
      </trkpt>
      <trkpt lat="45.97435" lon="4.71729">
        <ele>196</ele>
        <time>2017-12-09T10:11:27Z</time>
      </trkpt>
      <trkpt lat="45.9744" lon="4.71729">
        <ele>196</ele>
        <time>2017-12-09T10:11:28Z</time>
      </trkpt>
      <trkpt lat="45.97446" lon="4.71729">
        <ele>196</ele>
        <time>2017-12-09T10:11:29Z</time>
      </trkpt>
      <trkpt lat="45.9745" lon="4.71729">
        <ele>196</ele>
        <time>2017-12-09T10:11:30Z</time>
      </trkpt>
      <trkpt lat="45.97457" lon="4.7173">
        <ele>197</ele>
        <time>2017-12-09T10:11:32Z</time>
      </trkpt>
      <trkpt lat="45.97461" lon="4.7173">
        <ele>197</ele>
        <time>2017-12-09T10:11:33Z</time>
      </trkpt>
      <trkpt lat="45.97469" lon="4.7173">
        <ele>197</ele>
        <time>2017-12-09T10:11:35Z</time>
      </trkpt>
      <trkpt lat="45.97474" lon="4.71731">
        <ele>197</ele>
        <time>2017-12-09T10:11:36Z</time>
      </trkpt>
      <trkpt lat="45.97478" lon="4.71731">
        <ele>197</ele>
        <time>2017-12-09T10:11:37Z</time>
      </trkpt>
      <trkpt lat="45.97483" lon="4.71732">
        <ele>197</ele>
        <time>2017-12-09T10:11:38Z</time>
      </trkpt>
      <trkpt lat="45.97487" lon="4.71732">
        <ele>197</ele>
        <time>2017-12-09T10:11:39Z</time>
      </trkpt>
      <trkpt lat="45.97492" lon="4.71732">
        <ele>197</ele>
        <time>2017-12-09T10:11:40Z</time>
      </trkpt>
      <trkpt lat="45.97497" lon="4.71732">
        <ele>197</ele>
        <time>2017-12-09T10:11:41Z</time>
      </trkpt>
      <trkpt lat="45.97502" lon="4.71731">
        <ele>197</ele>
        <time>2017-12-09T10:11:42Z</time>
      </trkpt>
      <trkpt lat="45.97508" lon="4.71733">
        <ele>197</ele>
        <time>2017-12-09T10:11:43Z</time>
      </trkpt>
      <trkpt lat="45.97513" lon="4.71733">
        <ele>198</ele>
        <time>2017-12-09T10:11:44Z</time>
      </trkpt>
      <trkpt lat="45.97519" lon="4.71734">
        <ele>198</ele>
        <time>2017-12-09T10:11:45Z</time>
      </trkpt>
      <trkpt lat="45.97524" lon="4.71734">
        <ele>198</ele>
        <time>2017-12-09T10:11:46Z</time>
      </trkpt>
      <trkpt lat="45.9753" lon="4.71736">
        <ele>198</ele>
        <time>2017-12-09T10:11:47Z</time>
      </trkpt>
      <trkpt lat="45.97535" lon="4.71737">
        <ele>198</ele>
        <time>2017-12-09T10:11:48Z</time>
      </trkpt>
      <trkpt lat="45.97539" lon="4.71738">
        <ele>198</ele>
        <time>2017-12-09T10:11:49Z</time>
      </trkpt>
      <trkpt lat="45.97544" lon="4.71738">
        <ele>198</ele>
        <time>2017-12-09T10:11:50Z</time>
      </trkpt>
      <trkpt lat="45.97553" lon="4.71737">
        <ele>197</ele>
        <time>2017-12-09T10:11:52Z</time>
      </trkpt>
      <trkpt lat="45.97557" lon="4.71737">
        <ele>197</ele>
        <time>2017-12-09T10:11:53Z</time>
      </trkpt>
      <trkpt lat="45.97562" lon="4.71738">
        <ele>197</ele>
        <time>2017-12-09T10:11:54Z</time>
      </trkpt>
      <trkpt lat="45.97567" lon="4.71738">
        <ele>197</ele>
        <time>2017-12-09T10:11:55Z</time>
      </trkpt>
      <trkpt lat="45.97572" lon="4.71738">
        <ele>197</ele>
        <time>2017-12-09T10:11:56Z</time>
      </trkpt>
      <trkpt lat="45.97577" lon="4.71738">
        <ele>196</ele>
        <time>2017-12-09T10:11:57Z</time>
      </trkpt>
      <trkpt lat="45.97582" lon="4.71739">
        <ele>196</ele>
        <time>2017-12-09T10:11:58Z</time>
      </trkpt>
      <trkpt lat="45.97587" lon="4.7174">
        <ele>196</ele>
        <time>2017-12-09T10:11:59Z</time>
      </trkpt>
      <trkpt lat="45.97591" lon="4.71742">
        <ele>196</ele>
        <time>2017-12-09T10:12:00Z</time>
      </trkpt>
      <trkpt lat="45.97596" lon="4.71744">
        <ele>196</ele>
        <time>2017-12-09T10:12:01Z</time>
      </trkpt>
      <trkpt lat="45.97599" lon="4.71749">
        <ele>196</ele>
        <time>2017-12-09T10:12:02Z</time>
      </trkpt>
      <trkpt lat="45.97603" lon="4.71754">
        <ele>194</ele>
        <time>2017-12-09T10:12:03Z</time>
      </trkpt>
      <trkpt lat="45.97607" lon="4.71759">
        <ele>194</ele>
        <time>2017-12-09T10:12:04Z</time>
      </trkpt>
      <trkpt lat="45.97611" lon="4.71763">
        <ele>194</ele>
        <time>2017-12-09T10:12:05Z</time>
      </trkpt>
      <trkpt lat="45.97615" lon="4.71765">
        <ele>194</ele>
        <time>2017-12-09T10:12:06Z</time>
      </trkpt>
      <trkpt lat="45.9762" lon="4.71766">
        <ele>194</ele>
        <time>2017-12-09T10:12:07Z</time>
      </trkpt>
      <trkpt lat="45.97624" lon="4.71764">
        <ele>194</ele>
        <time>2017-12-09T10:12:08Z</time>
      </trkpt>
      <trkpt lat="45.97629" lon="4.7176">
        <ele>194</ele>
        <time>2017-12-09T10:12:09Z</time>
      </trkpt>
      <trkpt lat="45.97633" lon="4.71756">
        <ele>194</ele>
        <time>2017-12-09T10:12:10Z</time>
      </trkpt>
      <trkpt lat="45.97638" lon="4.71752">
        <ele>194</ele>
        <time>2017-12-09T10:12:11Z</time>
      </trkpt>
      <trkpt lat="45.97642" lon="4.7175">
        <ele>194</ele>
        <time>2017-12-09T10:12:12Z</time>
      </trkpt>
      <trkpt lat="45.97647" lon="4.7175">
        <ele>194</ele>
        <time>2017-12-09T10:12:13Z</time>
      </trkpt>
      <trkpt lat="45.97652" lon="4.7175">
        <ele>194</ele>
        <time>2017-12-09T10:12:14Z</time>
      </trkpt>
      <trkpt lat="45.97657" lon="4.71751">
        <ele>194</ele>
        <time>2017-12-09T10:12:15Z</time>
      </trkpt>
      <trkpt lat="45.97663" lon="4.71752">
        <ele>194</ele>
        <time>2017-12-09T10:12:16Z</time>
      </trkpt>
      <trkpt lat="45.97668" lon="4.71753">
        <ele>194</ele>
        <time>2017-12-09T10:12:17Z</time>
      </trkpt>
      <trkpt lat="45.97673" lon="4.71754">
        <ele>194</ele>
        <time>2017-12-09T10:12:18Z</time>
      </trkpt>
      <trkpt lat="45.97678" lon="4.71754">
        <ele>194</ele>
        <time>2017-12-09T10:12:19Z</time>
      </trkpt>
      <trkpt lat="45.97687" lon="4.71756">
        <ele>194</ele>
        <time>2017-12-09T10:12:21Z</time>
      </trkpt>
      <trkpt lat="45.97692" lon="4.71756">
        <ele>195</ele>
        <time>2017-12-09T10:12:22Z</time>
      </trkpt>
      <trkpt lat="45.97697" lon="4.71757">
        <ele>195</ele>
        <time>2017-12-09T10:12:23Z</time>
      </trkpt>
      <trkpt lat="45.97702" lon="4.71756">
        <ele>195</ele>
        <time>2017-12-09T10:12:24Z</time>
      </trkpt>
      <trkpt lat="45.97707" lon="4.71756">
        <ele>195</ele>
        <time>2017-12-09T10:12:25Z</time>
      </trkpt>
      <trkpt lat="45.97712" lon="4.71756">
        <ele>195</ele>
        <time>2017-12-09T10:12:26Z</time>
      </trkpt>
      <trkpt lat="45.97717" lon="4.71756">
        <ele>195</ele>
        <time>2017-12-09T10:12:27Z</time>
      </trkpt>
      <trkpt lat="45.97722" lon="4.71755">
        <ele>195</ele>
        <time>2017-12-09T10:12:28Z</time>
      </trkpt>
      <trkpt lat="45.9773" lon="4.71755">
        <ele>195</ele>
        <time>2017-12-09T10:12:30Z</time>
      </trkpt>
      <trkpt lat="45.97735" lon="4.71756">
        <ele>195</ele>
        <time>2017-12-09T10:12:31Z</time>
      </trkpt>
      <trkpt lat="45.97741" lon="4.71758">
        <ele>195</ele>
        <time>2017-12-09T10:12:32Z</time>
      </trkpt>
      <trkpt lat="45.97746" lon="4.71758">
        <ele>196</ele>
        <time>2017-12-09T10:12:33Z</time>
      </trkpt>
      <trkpt lat="45.97752" lon="4.71754">
        <ele>196</ele>
        <time>2017-12-09T10:12:34Z</time>
      </trkpt>
      <trkpt lat="45.97757" lon="4.71754">
        <ele>196</ele>
        <time>2017-12-09T10:12:35Z</time>
      </trkpt>
      <trkpt lat="45.97762" lon="4.71755">
        <ele>196</ele>
        <time>2017-12-09T10:12:36Z</time>
      </trkpt>
      <trkpt lat="45.97767" lon="4.71757">
        <ele>195</ele>
        <time>2017-12-09T10:12:37Z</time>
      </trkpt>
      <trkpt lat="45.97774" lon="4.71758">
        <ele>195</ele>
        <time>2017-12-09T10:12:38Z</time>
      </trkpt>
      <trkpt lat="45.97779" lon="4.71758">
        <ele>195</ele>
        <time>2017-12-09T10:12:39Z</time>
      </trkpt>
      <trkpt lat="45.97785" lon="4.7176">
        <ele>195</ele>
        <time>2017-12-09T10:12:40Z</time>
      </trkpt>
      <trkpt lat="45.97789" lon="4.71761">
        <ele>195</ele>
        <time>2017-12-09T10:12:41Z</time>
      </trkpt>
      <trkpt lat="45.97793" lon="4.71761">
        <ele>195</ele>
        <time>2017-12-09T10:12:42Z</time>
      </trkpt>
      <trkpt lat="45.97798" lon="4.71761">
        <ele>195</ele>
        <time>2017-12-09T10:12:43Z</time>
      </trkpt>
      <trkpt lat="45.97806" lon="4.71764">
        <ele>195</ele>
        <time>2017-12-09T10:12:45Z</time>
      </trkpt>
      <trkpt lat="45.9781" lon="4.71764">
        <ele>195</ele>
        <time>2017-12-09T10:12:46Z</time>
      </trkpt>
      <trkpt lat="45.97815" lon="4.71764">
        <ele>195</ele>
        <time>2017-12-09T10:12:47Z</time>
      </trkpt>
      <trkpt lat="45.9782" lon="4.71764">
        <ele>195</ele>
        <time>2017-12-09T10:12:48Z</time>
      </trkpt>
      <trkpt lat="45.97825" lon="4.71764">
        <ele>195</ele>
        <time>2017-12-09T10:12:49Z</time>
      </trkpt>
      <trkpt lat="45.97829" lon="4.71761">
        <ele>195</ele>
        <time>2017-12-09T10:12:50Z</time>
      </trkpt>
      <trkpt lat="45.97837" lon="4.71762">
        <ele>195</ele>
        <time>2017-12-09T10:12:52Z</time>
      </trkpt>
      <trkpt lat="45.9784" lon="4.71761">
        <ele>195</ele>
        <time>2017-12-09T10:12:53Z</time>
      </trkpt>
      <trkpt lat="45.97847" lon="4.71765">
        <ele>195</ele>
        <time>2017-12-09T10:12:56Z</time>
      </trkpt>
      <trkpt lat="45.97849" lon="4.71766">
        <ele>195</ele>
        <time>2017-12-09T10:12:57Z</time>
      </trkpt>
      <trkpt lat="45.97855" lon="4.71773">
        <ele>194</ele>
        <time>2017-12-09T10:12:59Z</time>
      </trkpt>
      <trkpt lat="45.97858" lon="4.71776">
        <ele>194</ele>
        <time>2017-12-09T10:13:00Z</time>
      </trkpt>
      <trkpt lat="45.97866" lon="4.71782">
        <ele>194</ele>
        <time>2017-12-09T10:13:02Z</time>
      </trkpt>
      <trkpt lat="45.9787" lon="4.71783">
        <ele>194</ele>
        <time>2017-12-09T10:13:03Z</time>
      </trkpt>
      <trkpt lat="45.97879" lon="4.71782">
        <ele>194</ele>
        <time>2017-12-09T10:13:05Z</time>
      </trkpt>
      <trkpt lat="45.97886" lon="4.71781">
        <ele>194</ele>
        <time>2017-12-09T10:13:06Z</time>
      </trkpt>
      <trkpt lat="45.9789" lon="4.71776">
        <ele>194</ele>
        <time>2017-12-09T10:13:07Z</time>
      </trkpt>
      <trkpt lat="45.97894" lon="4.71772">
        <ele>194</ele>
        <time>2017-12-09T10:13:08Z</time>
      </trkpt>
      <trkpt lat="45.97897" lon="4.71767">
        <ele>194</ele>
        <time>2017-12-09T10:13:09Z</time>
      </trkpt>
      <trkpt lat="45.97899" lon="4.7176">
        <ele>195</ele>
        <time>2017-12-09T10:13:10Z</time>
      </trkpt>
      <trkpt lat="45.979" lon="4.71753">
        <ele>195</ele>
        <time>2017-12-09T10:13:11Z</time>
      </trkpt>
      <trkpt lat="45.97901" lon="4.71746">
        <ele>195</ele>
        <time>2017-12-09T10:13:12Z</time>
      </trkpt>
      <trkpt lat="45.97901" lon="4.71739">
        <ele>196</ele>
        <time>2017-12-09T10:13:13Z</time>
      </trkpt>
      <trkpt lat="45.97901" lon="4.71732">
        <ele>196</ele>
        <time>2017-12-09T10:13:14Z</time>
      </trkpt>
      <trkpt lat="45.97902" lon="4.71725">
        <ele>196</ele>
        <time>2017-12-09T10:13:15Z</time>
      </trkpt>
      <trkpt lat="45.97903" lon="4.71717">
        <ele>196</ele>
        <time>2017-12-09T10:13:16Z</time>
      </trkpt>
      <trkpt lat="45.97905" lon="4.71711">
        <ele>196</ele>
        <time>2017-12-09T10:13:17Z</time>
      </trkpt>
      <trkpt lat="45.97908" lon="4.71703">
        <ele>196</ele>
        <time>2017-12-09T10:13:18Z</time>
      </trkpt>
      <trkpt lat="45.97911" lon="4.71696">
        <ele>196</ele>
        <time>2017-12-09T10:13:19Z</time>
      </trkpt>
      <trkpt lat="45.97915" lon="4.71694">
        <ele>196</ele>
        <time>2017-12-09T10:13:20Z</time>
      </trkpt>
      <trkpt lat="45.97919" lon="4.7169">
        <ele>196</ele>
        <time>2017-12-09T10:13:21Z</time>
      </trkpt>
      <trkpt lat="45.97922" lon="4.71686">
        <ele>196</ele>
        <time>2017-12-09T10:13:22Z</time>
      </trkpt>
      <trkpt lat="45.97929" lon="4.7168">
        <ele>197</ele>
        <time>2017-12-09T10:13:24Z</time>
      </trkpt>
      <trkpt lat="45.97932" lon="4.71677">
        <ele>197</ele>
        <time>2017-12-09T10:13:25Z</time>
      </trkpt>
      <trkpt lat="45.97936" lon="4.71674">
        <ele>197</ele>
        <time>2017-12-09T10:13:26Z</time>
      </trkpt>
      <trkpt lat="45.97941" lon="4.71671">
        <ele>197</ele>
        <time>2017-12-09T10:13:27Z</time>
      </trkpt>
      <trkpt lat="45.97945" lon="4.71669">
        <ele>197</ele>
        <time>2017-12-09T10:13:28Z</time>
      </trkpt>
      <trkpt lat="45.97949" lon="4.71665">
        <ele>197</ele>
        <time>2017-12-09T10:13:29Z</time>
      </trkpt>
      <trkpt lat="45.97954" lon="4.71659">
        <ele>197</ele>
        <time>2017-12-09T10:13:30Z</time>
      </trkpt>
      <trkpt lat="45.97959" lon="4.71656">
        <ele>197</ele>
        <time>2017-12-09T10:13:31Z</time>
      </trkpt>
      <trkpt lat="45.97963" lon="4.71652">
        <ele>197</ele>
        <time>2017-12-09T10:13:32Z</time>
      </trkpt>
      <trkpt lat="45.97968" lon="4.71648">
        <ele>197</ele>
        <time>2017-12-09T10:13:33Z</time>
      </trkpt>
      <trkpt lat="45.97972" lon="4.71644">
        <ele>197</ele>
        <time>2017-12-09T10:13:34Z</time>
      </trkpt>
      <trkpt lat="45.97976" lon="4.71641">
        <ele>197</ele>
        <time>2017-12-09T10:13:35Z</time>
      </trkpt>
      <trkpt lat="45.9798" lon="4.71638">
        <ele>197</ele>
        <time>2017-12-09T10:13:36Z</time>
      </trkpt>
      <trkpt lat="45.97985" lon="4.71633">
        <ele>197</ele>
        <time>2017-12-09T10:13:37Z</time>
      </trkpt>
      <trkpt lat="45.97993" lon="4.71628">
        <ele>198</ele>
        <time>2017-12-09T10:13:39Z</time>
      </trkpt>
      <trkpt lat="45.97997" lon="4.71627">
        <ele>198</ele>
        <time>2017-12-09T10:13:40Z</time>
      </trkpt>
      <trkpt lat="45.98002" lon="4.71623">
        <ele>198</ele>
        <time>2017-12-09T10:13:41Z</time>
      </trkpt>
      <trkpt lat="45.98006" lon="4.71619">
        <ele>198</ele>
        <time>2017-12-09T10:13:42Z</time>
      </trkpt>
      <trkpt lat="45.98011" lon="4.71616">
        <ele>198</ele>
        <time>2017-12-09T10:13:43Z</time>
      </trkpt>
      <trkpt lat="45.98014" lon="4.71612">
        <ele>198</ele>
        <time>2017-12-09T10:13:44Z</time>
      </trkpt>
      <trkpt lat="45.98018" lon="4.71608">
        <ele>198</ele>
        <time>2017-12-09T10:13:45Z</time>
      </trkpt>
      <trkpt lat="45.98022" lon="4.71605">
        <ele>198</ele>
        <time>2017-12-09T10:13:46Z</time>
      </trkpt>
      <trkpt lat="45.98028" lon="4.71599">
        <ele>198</ele>
        <time>2017-12-09T10:13:48Z</time>
      </trkpt>
      <trkpt lat="45.98033" lon="4.71596">
        <ele>198</ele>
        <time>2017-12-09T10:13:49Z</time>
      </trkpt>
      <trkpt lat="45.98041" lon="4.71591">
        <ele>198</ele>
        <time>2017-12-09T10:13:51Z</time>
      </trkpt>
      <trkpt lat="45.98045" lon="4.71587">
        <ele>198</ele>
        <time>2017-12-09T10:13:52Z</time>
      </trkpt>
      <trkpt lat="45.9805" lon="4.71585">
        <ele>198</ele>
        <time>2017-12-09T10:13:53Z</time>
      </trkpt>
      <trkpt lat="45.98054" lon="4.71581">
        <ele>198</ele>
        <time>2017-12-09T10:13:54Z</time>
      </trkpt>
      <trkpt lat="45.98058" lon="4.71577">
        <ele>198</ele>
        <time>2017-12-09T10:13:55Z</time>
      </trkpt>
      <trkpt lat="45.98064" lon="4.71572">
        <ele>198</ele>
        <time>2017-12-09T10:13:56Z</time>
      </trkpt>
      <trkpt lat="45.98068" lon="4.71568">
        <ele>198</ele>
        <time>2017-12-09T10:13:57Z</time>
      </trkpt>
      <trkpt lat="45.98073" lon="4.71563">
        <ele>198</ele>
        <time>2017-12-09T10:13:58Z</time>
      </trkpt>
      <trkpt lat="45.98077" lon="4.7156">
        <ele>198</ele>
        <time>2017-12-09T10:13:59Z</time>
      </trkpt>
      <trkpt lat="45.98081" lon="4.71558">
        <ele>198</ele>
        <time>2017-12-09T10:14:00Z</time>
      </trkpt>
      <trkpt lat="45.98085" lon="4.71555">
        <ele>198</ele>
        <time>2017-12-09T10:14:01Z</time>
      </trkpt>
      <trkpt lat="45.9809" lon="4.71552">
        <ele>198</ele>
        <time>2017-12-09T10:14:02Z</time>
      </trkpt>
      <trkpt lat="45.98093" lon="4.71549">
        <ele>197</ele>
        <time>2017-12-09T10:14:03Z</time>
      </trkpt>
      <trkpt lat="45.98098" lon="4.71547">
        <ele>197</ele>
        <time>2017-12-09T10:14:04Z</time>
      </trkpt>
      <trkpt lat="45.98102" lon="4.71544">
        <ele>197</ele>
        <time>2017-12-09T10:14:05Z</time>
      </trkpt>
      <trkpt lat="45.98107" lon="4.71542">
        <ele>197</ele>
        <time>2017-12-09T10:14:06Z</time>
      </trkpt>
      <trkpt lat="45.98112" lon="4.71541">
        <ele>197</ele>
        <time>2017-12-09T10:14:07Z</time>
      </trkpt>
      <trkpt lat="45.98117" lon="4.71539">
        <ele>197</ele>
        <time>2017-12-09T10:14:08Z</time>
      </trkpt>
      <trkpt lat="45.98124" lon="4.71533">
        <ele>197</ele>
        <time>2017-12-09T10:14:10Z</time>
      </trkpt>
      <trkpt lat="45.98127" lon="4.71531">
        <ele>197</ele>
        <time>2017-12-09T10:14:11Z</time>
      </trkpt>
      <trkpt lat="45.98132" lon="4.71529">
        <ele>197</ele>
        <time>2017-12-09T10:14:12Z</time>
      </trkpt>
      <trkpt lat="45.98137" lon="4.71526">
        <ele>197</ele>
        <time>2017-12-09T10:14:13Z</time>
      </trkpt>
      <trkpt lat="45.98145" lon="4.71521">
        <ele>197</ele>
        <time>2017-12-09T10:14:15Z</time>
      </trkpt>
      <trkpt lat="45.98147" lon="4.71519">
        <ele>197</ele>
        <time>2017-12-09T10:14:16Z</time>
      </trkpt>
      <trkpt lat="45.98154" lon="4.71515">
        <ele>197</ele>
        <time>2017-12-09T10:14:18Z</time>
      </trkpt>
      <trkpt lat="45.98158" lon="4.71513">
        <ele>197</ele>
        <time>2017-12-09T10:14:19Z</time>
      </trkpt>
      <trkpt lat="45.98166" lon="4.71508">
        <ele>197</ele>
        <time>2017-12-09T10:14:21Z</time>
      </trkpt>
      <trkpt lat="45.98169" lon="4.71506">
        <ele>197</ele>
        <time>2017-12-09T10:14:22Z</time>
      </trkpt>
      <trkpt lat="45.98174" lon="4.71505">
        <ele>197</ele>
        <time>2017-12-09T10:14:23Z</time>
      </trkpt>
      <trkpt lat="45.98178" lon="4.71504">
        <ele>197</ele>
        <time>2017-12-09T10:14:24Z</time>
      </trkpt>
      <trkpt lat="45.98184" lon="4.71502">
        <ele>197</ele>
        <time>2017-12-09T10:14:25Z</time>
      </trkpt>
      <trkpt lat="45.9819" lon="4.71503">
        <ele>197</ele>
        <time>2017-12-09T10:14:26Z</time>
      </trkpt>
      <trkpt lat="45.98196" lon="4.71504">
        <ele>197</ele>
        <time>2017-12-09T10:14:27Z</time>
      </trkpt>
      <trkpt lat="45.98202" lon="4.71505">
        <ele>197</ele>
        <time>2017-12-09T10:14:28Z</time>
      </trkpt>
      <trkpt lat="45.98208" lon="4.71507">
        <ele>197</ele>
        <time>2017-12-09T10:14:29Z</time>
      </trkpt>
      <trkpt lat="45.98212" lon="4.71508">
        <ele>196</ele>
        <time>2017-12-09T10:14:30Z</time>
      </trkpt>
      <trkpt lat="45.98218" lon="4.71511">
        <ele>196</ele>
        <time>2017-12-09T10:14:31Z</time>
      </trkpt>
      <trkpt lat="45.98222" lon="4.71514">
        <ele>196</ele>
        <time>2017-12-09T10:14:32Z</time>
      </trkpt>
      <trkpt lat="45.98227" lon="4.71517">
        <ele>196</ele>
        <time>2017-12-09T10:14:33Z</time>
      </trkpt>
      <trkpt lat="45.98232" lon="4.71519">
        <ele>196</ele>
        <time>2017-12-09T10:14:34Z</time>
      </trkpt>
      <trkpt lat="45.9824" lon="4.71525">
        <ele>196</ele>
        <time>2017-12-09T10:14:36Z</time>
      </trkpt>
      <trkpt lat="45.98244" lon="4.71528">
        <ele>196</ele>
        <time>2017-12-09T10:14:37Z</time>
      </trkpt>
      <trkpt lat="45.98249" lon="4.71531">
        <ele>196</ele>
        <time>2017-12-09T10:14:38Z</time>
      </trkpt>
      <trkpt lat="45.98254" lon="4.71534">
        <ele>197</ele>
        <time>2017-12-09T10:14:39Z</time>
      </trkpt>
      <trkpt lat="45.98259" lon="4.71537">
        <ele>197</ele>
        <time>2017-12-09T10:14:40Z</time>
      </trkpt>
      <trkpt lat="45.98264" lon="4.7154">
        <ele>197</ele>
        <time>2017-12-09T10:14:41Z</time>
      </trkpt>
      <trkpt lat="45.9827" lon="4.71544">
        <ele>197</ele>
        <time>2017-12-09T10:14:42Z</time>
      </trkpt>
      <trkpt lat="45.98274" lon="4.71548">
        <ele>198</ele>
        <time>2017-12-09T10:14:43Z</time>
      </trkpt>
      <trkpt lat="45.98279" lon="4.71551">
        <ele>198</ele>
        <time>2017-12-09T10:14:44Z</time>
      </trkpt>
      <trkpt lat="45.98284" lon="4.71554">
        <ele>198</ele>
        <time>2017-12-09T10:14:45Z</time>
      </trkpt>
      <trkpt lat="45.98288" lon="4.71557">
        <ele>198</ele>
        <time>2017-12-09T10:14:46Z</time>
      </trkpt>
      <trkpt lat="45.98293" lon="4.71559">
        <ele>198</ele>
        <time>2017-12-09T10:14:47Z</time>
      </trkpt>
      <trkpt lat="45.98298" lon="4.71561">
        <ele>198</ele>
        <time>2017-12-09T10:14:48Z</time>
      </trkpt>
      <trkpt lat="45.98302" lon="4.71565">
        <ele>198</ele>
        <time>2017-12-09T10:14:49Z</time>
      </trkpt>
      <trkpt lat="45.98307" lon="4.71567">
        <ele>198</ele>
        <time>2017-12-09T10:14:50Z</time>
      </trkpt>
      <trkpt lat="45.98311" lon="4.71571">
        <ele>198</ele>
        <time>2017-12-09T10:14:51Z</time>
      </trkpt>
      <trkpt lat="45.98316" lon="4.71575">
        <ele>198</ele>
        <time>2017-12-09T10:14:52Z</time>
      </trkpt>
      <trkpt lat="45.98321" lon="4.71578">
        <ele>198</ele>
        <time>2017-12-09T10:14:53Z</time>
      </trkpt>
      <trkpt lat="45.98326" lon="4.71582">
        <ele>199</ele>
        <time>2017-12-09T10:14:54Z</time>
      </trkpt>
      <trkpt lat="45.98331" lon="4.71586">
        <ele>199</ele>
        <time>2017-12-09T10:14:55Z</time>
      </trkpt>
      <trkpt lat="45.98336" lon="4.71589">
        <ele>199</ele>
        <time>2017-12-09T10:14:56Z</time>
      </trkpt>
      <trkpt lat="45.98342" lon="4.71592">
        <ele>199</ele>
        <time>2017-12-09T10:14:57Z</time>
      </trkpt>
      <trkpt lat="45.98347" lon="4.71596">
        <ele>198</ele>
        <time>2017-12-09T10:14:58Z</time>
      </trkpt>
      <trkpt lat="45.98353" lon="4.71599">
        <ele>198</ele>
        <time>2017-12-09T10:14:59Z</time>
      </trkpt>
      <trkpt lat="45.9836" lon="4.71601">
        <ele>198</ele>
        <time>2017-12-09T10:15:00Z</time>
      </trkpt>
      <trkpt lat="45.98365" lon="4.71604">
        <ele>198</ele>
        <time>2017-12-09T10:15:01Z</time>
      </trkpt>
      <trkpt lat="45.9837" lon="4.71605">
        <ele>198</ele>
        <time>2017-12-09T10:15:02Z</time>
      </trkpt>
      <trkpt lat="45.98375" lon="4.71605">
        <ele>198</ele>
        <time>2017-12-09T10:15:03Z</time>
      </trkpt>
      <trkpt lat="45.98381" lon="4.71603">
        <ele>198</ele>
        <time>2017-12-09T10:15:04Z</time>
      </trkpt>
      <trkpt lat="45.98385" lon="4.71601">
        <ele>198</ele>
        <time>2017-12-09T10:15:05Z</time>
      </trkpt>
      <trkpt lat="45.98389" lon="4.71598">
        <ele>198</ele>
        <time>2017-12-09T10:15:06Z</time>
      </trkpt>
      <trkpt lat="45.98393" lon="4.71594">
        <ele>198</ele>
        <time>2017-12-09T10:15:07Z</time>
      </trkpt>
      <trkpt lat="45.98397" lon="4.71591">
        <ele>197</ele>
        <time>2017-12-09T10:15:08Z</time>
      </trkpt>
      <trkpt lat="45.98401" lon="4.71587">
        <ele>197</ele>
        <time>2017-12-09T10:15:09Z</time>
      </trkpt>
      <trkpt lat="45.98405" lon="4.71579">
        <ele>198</ele>
        <time>2017-12-09T10:15:10Z</time>
      </trkpt>
      <trkpt lat="45.98409" lon="4.71574">
        <ele>198</ele>
        <time>2017-12-09T10:15:11Z</time>
      </trkpt>
      <trkpt lat="45.98414" lon="4.71571">
        <ele>198</ele>
        <time>2017-12-09T10:15:12Z</time>
      </trkpt>
      <trkpt lat="45.98418" lon="4.71567">
        <ele>197</ele>
        <time>2017-12-09T10:15:13Z</time>
      </trkpt>
      <trkpt lat="45.98422" lon="4.71562">
        <ele>197</ele>
        <time>2017-12-09T10:15:14Z</time>
      </trkpt>
      <trkpt lat="45.98426" lon="4.71558">
        <ele>197</ele>
        <time>2017-12-09T10:15:15Z</time>
      </trkpt>
      <trkpt lat="45.98429" lon="4.71553">
        <ele>197</ele>
        <time>2017-12-09T10:15:16Z</time>
      </trkpt>
      <trkpt lat="45.98434" lon="4.71549">
        <ele>197</ele>
        <time>2017-12-09T10:15:17Z</time>
      </trkpt>
      <trkpt lat="45.98439" lon="4.71546">
        <ele>197</ele>
        <time>2017-12-09T10:15:18Z</time>
      </trkpt>
      <trkpt lat="45.98444" lon="4.71543">
        <ele>197</ele>
        <time>2017-12-09T10:15:19Z</time>
      </trkpt>
      <trkpt lat="45.98449" lon="4.71541">
        <ele>197</ele>
        <time>2017-12-09T10:15:20Z</time>
      </trkpt>
      <trkpt lat="45.98454" lon="4.7154">
        <ele>197</ele>
        <time>2017-12-09T10:15:21Z</time>
      </trkpt>
      <trkpt lat="45.98461" lon="4.71539">
        <ele>197</ele>
        <time>2017-12-09T10:15:22Z</time>
      </trkpt>
      <trkpt lat="45.98465" lon="4.71536">
        <ele>197</ele>
        <time>2017-12-09T10:15:23Z</time>
      </trkpt>
      <trkpt lat="45.98471" lon="4.71536">
        <ele>197</ele>
        <time>2017-12-09T10:15:24Z</time>
      </trkpt>
      <trkpt lat="45.98477" lon="4.71534">
        <ele>196</ele>
        <time>2017-12-09T10:15:25Z</time>
      </trkpt>
      <trkpt lat="45.98481" lon="4.71532">
        <ele>196</ele>
        <time>2017-12-09T10:15:26Z</time>
      </trkpt>
      <trkpt lat="45.98486" lon="4.71531">
        <ele>196</ele>
        <time>2017-12-09T10:15:27Z</time>
      </trkpt>
      <trkpt lat="45.98491" lon="4.7153">
        <ele>196</ele>
        <time>2017-12-09T10:15:28Z</time>
      </trkpt>
      <trkpt lat="45.98496" lon="4.71529">
        <ele>196</ele>
        <time>2017-12-09T10:15:29Z</time>
      </trkpt>
      <trkpt lat="45.98502" lon="4.71529">
        <ele>195</ele>
        <time>2017-12-09T10:15:30Z</time>
      </trkpt>
      <trkpt lat="45.98508" lon="4.71528">
        <ele>195</ele>
        <time>2017-12-09T10:15:31Z</time>
      </trkpt>
      <trkpt lat="45.98514" lon="4.71526">
        <ele>195</ele>
        <time>2017-12-09T10:15:32Z</time>
      </trkpt>
      <trkpt lat="45.98519" lon="4.71525">
        <ele>194</ele>
        <time>2017-12-09T10:15:33Z</time>
      </trkpt>
      <trkpt lat="45.98525" lon="4.71522">
        <ele>194</ele>
        <time>2017-12-09T10:15:34Z</time>
      </trkpt>
      <trkpt lat="45.9853" lon="4.71521">
        <ele>194</ele>
        <time>2017-12-09T10:15:35Z</time>
      </trkpt>
      <trkpt lat="45.98535" lon="4.71519">
        <ele>194</ele>
        <time>2017-12-09T10:15:36Z</time>
      </trkpt>
      <trkpt lat="45.98541" lon="4.71518">
        <ele>194</ele>
        <time>2017-12-09T10:15:37Z</time>
      </trkpt>
      <trkpt lat="45.98545" lon="4.71516">
        <ele>194</ele>
        <time>2017-12-09T10:15:38Z</time>
      </trkpt>
      <trkpt lat="45.98552" lon="4.71513">
        <ele>194</ele>
        <time>2017-12-09T10:15:39Z</time>
      </trkpt>
      <trkpt lat="45.98558" lon="4.71512">
        <ele>194</ele>
        <time>2017-12-09T10:15:40Z</time>
      </trkpt>
      <trkpt lat="45.98564" lon="4.7151">
        <ele>193</ele>
        <time>2017-12-09T10:15:41Z</time>
      </trkpt>
      <trkpt lat="45.9857" lon="4.71509">
        <ele>193</ele>
        <time>2017-12-09T10:15:42Z</time>
      </trkpt>
      <trkpt lat="45.98578" lon="4.71509">
        <ele>193</ele>
        <time>2017-12-09T10:15:43Z</time>
      </trkpt>
      <trkpt lat="45.98586" lon="4.71511">
        <ele>192</ele>
        <time>2017-12-09T10:15:44Z</time>
      </trkpt>
      <trkpt lat="45.98592" lon="4.71511">
        <ele>192</ele>
        <time>2017-12-09T10:15:45Z</time>
      </trkpt>
      <trkpt lat="45.986" lon="4.7151">
        <ele>192</ele>
        <time>2017-12-09T10:15:46Z</time>
      </trkpt>
      <trkpt lat="45.98607" lon="4.71509">
        <ele>191</ele>
        <time>2017-12-09T10:15:47Z</time>
      </trkpt>
      <trkpt lat="45.98613" lon="4.71509">
        <ele>191</ele>
        <time>2017-12-09T10:15:48Z</time>
      </trkpt>
      <trkpt lat="45.98619" lon="4.71507">
        <ele>191</ele>
        <time>2017-12-09T10:15:49Z</time>
      </trkpt>
      <trkpt lat="45.98626" lon="4.71507">
        <ele>191</ele>
        <time>2017-12-09T10:15:50Z</time>
      </trkpt>
      <trkpt lat="45.98634" lon="4.71506">
        <ele>191</ele>
        <time>2017-12-09T10:15:51Z</time>
      </trkpt>
      <trkpt lat="45.9864" lon="4.71502">
        <ele>191</ele>
        <time>2017-12-09T10:15:52Z</time>
      </trkpt>
      <trkpt lat="45.98648" lon="4.71499">
        <ele>190</ele>
        <time>2017-12-09T10:15:53Z</time>
      </trkpt>
      <trkpt lat="45.98656" lon="4.71495">
        <ele>190</ele>
        <time>2017-12-09T10:15:54Z</time>
      </trkpt>
      <trkpt lat="45.98661" lon="4.71496">
        <ele>189</ele>
        <time>2017-12-09T10:15:55Z</time>
      </trkpt>
      <trkpt lat="45.98666" lon="4.71497">
        <ele>189</ele>
        <time>2017-12-09T10:15:56Z</time>
      </trkpt>
      <trkpt lat="45.98672" lon="4.71499">
        <ele>189</ele>
        <time>2017-12-09T10:15:57Z</time>
      </trkpt>
      <trkpt lat="45.98681" lon="4.715">
        <ele>188</ele>
        <time>2017-12-09T10:15:58Z</time>
      </trkpt>
      <trkpt lat="45.9869" lon="4.715">
        <ele>187</ele>
        <time>2017-12-09T10:15:59Z</time>
      </trkpt>
      <trkpt lat="45.98698" lon="4.71501">
        <ele>187</ele>
        <time>2017-12-09T10:16:00Z</time>
      </trkpt>
      <trkpt lat="45.98707" lon="4.71503">
        <ele>187</ele>
        <time>2017-12-09T10:16:01Z</time>
      </trkpt>
      <trkpt lat="45.98714" lon="4.71504">
        <ele>187</ele>
        <time>2017-12-09T10:16:02Z</time>
      </trkpt>
      <trkpt lat="45.9872" lon="4.71504">
        <ele>186</ele>
        <time>2017-12-09T10:16:03Z</time>
      </trkpt>
      <trkpt lat="45.98727" lon="4.71505">
        <ele>186</ele>
        <time>2017-12-09T10:16:04Z</time>
      </trkpt>
      <trkpt lat="45.98731" lon="4.71507">
        <ele>186</ele>
        <time>2017-12-09T10:16:05Z</time>
      </trkpt>
      <trkpt lat="45.98739" lon="4.71508">
        <ele>185</ele>
        <time>2017-12-09T10:16:06Z</time>
      </trkpt>
      <trkpt lat="45.98746" lon="4.71508">
        <ele>185</ele>
        <time>2017-12-09T10:16:07Z</time>
      </trkpt>
      <trkpt lat="45.98753" lon="4.71506">
        <ele>184</ele>
        <time>2017-12-09T10:16:08Z</time>
      </trkpt>
      <trkpt lat="45.9876" lon="4.71505">
        <ele>184</ele>
        <time>2017-12-09T10:16:09Z</time>
      </trkpt>
      <trkpt lat="45.98767" lon="4.71505">
        <ele>184</ele>
        <time>2017-12-09T10:16:10Z</time>
      </trkpt>
      <trkpt lat="45.98772" lon="4.71505">
        <ele>184</ele>
        <time>2017-12-09T10:16:11Z</time>
      </trkpt>
      <trkpt lat="45.98778" lon="4.71506">
        <ele>184</ele>
        <time>2017-12-09T10:16:12Z</time>
      </trkpt>
      <trkpt lat="45.98785" lon="4.71506">
        <ele>184</ele>
        <time>2017-12-09T10:16:13Z</time>
      </trkpt>
      <trkpt lat="45.98791" lon="4.71505">
        <ele>184</ele>
        <time>2017-12-09T10:16:14Z</time>
      </trkpt>
      <trkpt lat="45.98798" lon="4.71506">
        <ele>184</ele>
        <time>2017-12-09T10:16:15Z</time>
      </trkpt>
      <trkpt lat="45.98803" lon="4.71506">
        <ele>184</ele>
        <time>2017-12-09T10:16:16Z</time>
      </trkpt>
      <trkpt lat="45.98812" lon="4.71505">
        <ele>184</ele>
        <time>2017-12-09T10:16:19Z</time>
      </trkpt>
      <trkpt lat="45.98814" lon="4.71507">
        <ele>184</ele>
        <time>2017-12-09T10:16:20Z</time>
      </trkpt>
      <trkpt lat="45.98822" lon="4.71508">
        <ele>184</ele>
        <time>2017-12-09T10:16:23Z</time>
      </trkpt>
      <trkpt lat="45.98826" lon="4.71508">
        <ele>184</ele>
        <time>2017-12-09T10:16:24Z</time>
      </trkpt>
      <trkpt lat="45.98834" lon="4.71507">
        <ele>184</ele>
        <time>2017-12-09T10:16:26Z</time>
      </trkpt>
      <trkpt lat="45.9884" lon="4.71507">
        <ele>184</ele>
        <time>2017-12-09T10:16:27Z</time>
      </trkpt>
      <trkpt lat="45.98846" lon="4.71508">
        <ele>184</ele>
        <time>2017-12-09T10:16:28Z</time>
      </trkpt>
      <trkpt lat="45.98852" lon="4.71508">
        <ele>185</ele>
        <time>2017-12-09T10:16:29Z</time>
      </trkpt>
      <trkpt lat="45.98857" lon="4.71508">
        <ele>185</ele>
        <time>2017-12-09T10:16:30Z</time>
      </trkpt>
      <trkpt lat="45.98861" lon="4.71509">
        <ele>185</ele>
        <time>2017-12-09T10:16:31Z</time>
      </trkpt>
      <trkpt lat="45.98867" lon="4.71509">
        <ele>185</ele>
        <time>2017-12-09T10:16:32Z</time>
      </trkpt>
      <trkpt lat="45.98873" lon="4.71509">
        <ele>185</ele>
        <time>2017-12-09T10:16:33Z</time>
      </trkpt>
      <trkpt lat="45.98878" lon="4.7151">
        <ele>185</ele>
        <time>2017-12-09T10:16:34Z</time>
      </trkpt>
      <trkpt lat="45.98883" lon="4.7151">
        <ele>185</ele>
        <time>2017-12-09T10:16:35Z</time>
      </trkpt>
      <trkpt lat="45.98889" lon="4.71511">
        <ele>185</ele>
        <time>2017-12-09T10:16:36Z</time>
      </trkpt>
      <trkpt lat="45.98894" lon="4.7151">
        <ele>185</ele>
        <time>2017-12-09T10:16:37Z</time>
      </trkpt>
      <trkpt lat="45.98899" lon="4.71511">
        <ele>185</ele>
        <time>2017-12-09T10:16:38Z</time>
      </trkpt>
      <trkpt lat="45.98904" lon="4.71511">
        <ele>185</ele>
        <time>2017-12-09T10:16:39Z</time>
      </trkpt>
      <trkpt lat="45.98912" lon="4.71511">
        <ele>185</ele>
        <time>2017-12-09T10:16:41Z</time>
      </trkpt>
      <trkpt lat="45.98921" lon="4.71514">
        <ele>185</ele>
        <time>2017-12-09T10:16:42Z</time>
      </trkpt>
      <trkpt lat="45.98926" lon="4.71514">
        <ele>186</ele>
        <time>2017-12-09T10:16:43Z</time>
      </trkpt>
      <trkpt lat="45.98932" lon="4.71515">
        <ele>186</ele>
        <time>2017-12-09T10:16:44Z</time>
      </trkpt>
      <trkpt lat="45.98938" lon="4.71516">
        <ele>186</ele>
        <time>2017-12-09T10:16:45Z</time>
      </trkpt>
      <trkpt lat="45.98941" lon="4.71516">
        <ele>186</ele>
        <time>2017-12-09T10:16:46Z</time>
      </trkpt>
      <trkpt lat="45.98947" lon="4.71516">
        <ele>186</ele>
        <time>2017-12-09T10:16:47Z</time>
      </trkpt>
      <trkpt lat="45.98952" lon="4.71516">
        <ele>186</ele>
        <time>2017-12-09T10:16:48Z</time>
      </trkpt>
      <trkpt lat="45.98958" lon="4.71516">
        <ele>186</ele>
        <time>2017-12-09T10:16:49Z</time>
      </trkpt>
      <trkpt lat="45.98961" lon="4.71516">
        <ele>186</ele>
        <time>2017-12-09T10:16:50Z</time>
      </trkpt>
      <trkpt lat="45.98967" lon="4.71514">
        <ele>186</ele>
        <time>2017-12-09T10:16:51Z</time>
      </trkpt>
      <trkpt lat="45.98972" lon="4.71513">
        <ele>186</ele>
        <time>2017-12-09T10:16:52Z</time>
      </trkpt>
      <trkpt lat="45.98978" lon="4.71512">
        <ele>186</ele>
        <time>2017-12-09T10:16:53Z</time>
      </trkpt>
      <trkpt lat="45.98983" lon="4.71513">
        <ele>186</ele>
        <time>2017-12-09T10:16:54Z</time>
      </trkpt>
      <trkpt lat="45.98988" lon="4.71514">
        <ele>186</ele>
        <time>2017-12-09T10:16:55Z</time>
      </trkpt>
      <trkpt lat="45.98992" lon="4.71515">
        <ele>186</ele>
        <time>2017-12-09T10:16:56Z</time>
      </trkpt>
      <trkpt lat="45.99" lon="4.71516">
        <ele>187</ele>
        <time>2017-12-09T10:16:58Z</time>
      </trkpt>
      <trkpt lat="45.99004" lon="4.71516">
        <ele>188</ele>
        <time>2017-12-09T10:16:59Z</time>
      </trkpt>
      <trkpt lat="45.99011" lon="4.71516">
        <ele>188</ele>
        <time>2017-12-09T10:17:01Z</time>
      </trkpt>
      <trkpt lat="45.99015" lon="4.71516">
        <ele>188</ele>
        <time>2017-12-09T10:17:02Z</time>
      </trkpt>
      <trkpt lat="45.99023" lon="4.71514">
        <ele>188</ele>
        <time>2017-12-09T10:17:04Z</time>
      </trkpt>
      <trkpt lat="45.99027" lon="4.71514">
        <ele>188</ele>
        <time>2017-12-09T10:17:05Z</time>
      </trkpt>
      <trkpt lat="45.99036" lon="4.71513">
        <ele>188</ele>
        <time>2017-12-09T10:17:07Z</time>
      </trkpt>
      <trkpt lat="45.99039" lon="4.71514">
        <ele>188</ele>
        <time>2017-12-09T10:17:08Z</time>
      </trkpt>
      <trkpt lat="45.99047" lon="4.71515">
        <ele>189</ele>
        <time>2017-12-09T10:17:10Z</time>
      </trkpt>
      <trkpt lat="45.99052" lon="4.71515">
        <ele>189</ele>
        <time>2017-12-09T10:17:11Z</time>
      </trkpt>
      <trkpt lat="45.99059" lon="4.71516">
        <ele>189</ele>
        <time>2017-12-09T10:17:13Z</time>
      </trkpt>
      <trkpt lat="45.99064" lon="4.71516">
        <ele>189</ele>
        <time>2017-12-09T10:17:14Z</time>
      </trkpt>
      <trkpt lat="45.99071" lon="4.71516">
        <ele>189</ele>
        <time>2017-12-09T10:17:16Z</time>
      </trkpt>
      <trkpt lat="45.99074" lon="4.71516">
        <ele>189</ele>
        <time>2017-12-09T10:17:17Z</time>
      </trkpt>
      <trkpt lat="45.99081" lon="4.71517">
        <ele>189</ele>
        <time>2017-12-09T10:17:19Z</time>
      </trkpt>
      <trkpt lat="45.99085" lon="4.71518">
        <ele>191</ele>
        <time>2017-12-09T10:17:20Z</time>
      </trkpt>
      <trkpt lat="45.99091" lon="4.71519">
        <ele>191</ele>
        <time>2017-12-09T10:17:22Z</time>
      </trkpt>
      <trkpt lat="45.99094" lon="4.7152">
        <ele>191</ele>
        <time>2017-12-09T10:17:23Z</time>
      </trkpt>
      <trkpt lat="45.99103" lon="4.71521">
        <ele>191</ele>
        <time>2017-12-09T10:17:26Z</time>
      </trkpt>
      <trkpt lat="45.99105" lon="4.71522">
        <ele>191</ele>
        <time>2017-12-09T10:17:27Z</time>
      </trkpt>
      <trkpt lat="45.99113" lon="4.71522">
        <ele>191</ele>
        <time>2017-12-09T10:17:30Z</time>
      </trkpt>
      <trkpt lat="45.99115" lon="4.71522">
        <ele>191</ele>
        <time>2017-12-09T10:17:31Z</time>
      </trkpt>
      <trkpt lat="45.99122" lon="4.71522">
        <ele>192</ele>
        <time>2017-12-09T10:17:35Z</time>
      </trkpt>
      <trkpt lat="45.99124" lon="4.71522">
        <ele>192</ele>
        <time>2017-12-09T10:17:36Z</time>
      </trkpt>
      <trkpt lat="45.99132" lon="4.71521">
        <ele>192</ele>
        <time>2017-12-09T10:18:08Z</time>
      </trkpt>
      <trkpt lat="45.99133" lon="4.71521">
        <ele>192</ele>
        <time>2017-12-09T10:18:09Z</time>
      </trkpt>
      <trkpt lat="45.99142" lon="4.71519">
        <ele>192</ele>
        <time>2017-12-09T10:18:13Z</time>
      </trkpt>
      <trkpt lat="45.99144" lon="4.71519">
        <ele>192</ele>
        <time>2017-12-09T10:18:14Z</time>
      </trkpt>
      <trkpt lat="45.99152" lon="4.71518">
        <ele>192</ele>
        <time>2017-12-09T10:18:17Z</time>
      </trkpt>
      <trkpt lat="45.99156" lon="4.71518">
        <ele>192</ele>
        <time>2017-12-09T10:18:18Z</time>
      </trkpt>
      <trkpt lat="45.99163" lon="4.71518">
        <ele>192</ele>
        <time>2017-12-09T10:18:20Z</time>
      </trkpt>
      <trkpt lat="45.99166" lon="4.71517">
        <ele>192</ele>
        <time>2017-12-09T10:18:21Z</time>
      </trkpt>
      <trkpt lat="45.99174" lon="4.71515">
        <ele>194</ele>
        <time>2017-12-09T10:18:23Z</time>
      </trkpt>
      <trkpt lat="45.99178" lon="4.71514">
        <ele>194</ele>
        <time>2017-12-09T10:18:24Z</time>
      </trkpt>
      <trkpt lat="45.99185" lon="4.71513">
        <ele>194</ele>
        <time>2017-12-09T10:18:26Z</time>
      </trkpt>
      <trkpt lat="45.99189" lon="4.71513">
        <ele>194</ele>
        <time>2017-12-09T10:18:27Z</time>
      </trkpt>
      <trkpt lat="45.99196" lon="4.71513">
        <ele>195</ele>
        <time>2017-12-09T10:18:29Z</time>
      </trkpt>
      <trkpt lat="45.992" lon="4.71513">
        <ele>195</ele>
        <time>2017-12-09T10:18:30Z</time>
      </trkpt>
      <trkpt lat="45.99207" lon="4.71512">
        <ele>195</ele>
        <time>2017-12-09T10:18:32Z</time>
      </trkpt>
      <trkpt lat="45.99211" lon="4.71512">
        <ele>195</ele>
        <time>2017-12-09T10:18:33Z</time>
      </trkpt>
      <trkpt lat="45.9922" lon="4.71512">
        <ele>195</ele>
        <time>2017-12-09T10:18:35Z</time>
      </trkpt>
      <trkpt lat="45.99223" lon="4.71512">
        <ele>195</ele>
        <time>2017-12-09T10:18:36Z</time>
      </trkpt>
      <trkpt lat="45.9923" lon="4.71512">
        <ele>196</ele>
        <time>2017-12-09T10:18:38Z</time>
      </trkpt>
      <trkpt lat="45.99234" lon="4.71511">
        <ele>196</ele>
        <time>2017-12-09T10:18:39Z</time>
      </trkpt>
      <trkpt lat="45.99241" lon="4.71513">
        <ele>196</ele>
        <time>2017-12-09T10:18:41Z</time>
      </trkpt>
      <trkpt lat="45.99245" lon="4.71513">
        <ele>196</ele>
        <time>2017-12-09T10:18:42Z</time>
      </trkpt>
      <trkpt lat="45.99253" lon="4.71514">
        <ele>197</ele>
        <time>2017-12-09T10:18:44Z</time>
      </trkpt>
      <trkpt lat="45.99258" lon="4.71514">
        <ele>198</ele>
        <time>2017-12-09T10:18:45Z</time>
      </trkpt>
      <trkpt lat="45.99263" lon="4.71514">
        <ele>198</ele>
        <time>2017-12-09T10:18:46Z</time>
      </trkpt>
      <trkpt lat="45.99267" lon="4.71515">
        <ele>198</ele>
        <time>2017-12-09T10:18:47Z</time>
      </trkpt>
      <trkpt lat="45.99272" lon="4.71516">
        <ele>198</ele>
        <time>2017-12-09T10:18:48Z</time>
      </trkpt>
      <trkpt lat="45.99276" lon="4.71517">
        <ele>198</ele>
        <time>2017-12-09T10:18:49Z</time>
      </trkpt>
      <trkpt lat="45.99284" lon="4.71516">
        <ele>199</ele>
        <time>2017-12-09T10:18:51Z</time>
      </trkpt>
      <trkpt lat="45.99288" lon="4.71515">
        <ele>199</ele>
        <time>2017-12-09T10:18:52Z</time>
      </trkpt>
      <trkpt lat="45.99293" lon="4.71515">
        <ele>199</ele>
        <time>2017-12-09T10:18:53Z</time>
      </trkpt>
      <trkpt lat="45.993" lon="4.71515">
        <ele>199</ele>
        <time>2017-12-09T10:18:54Z</time>
      </trkpt>
      <trkpt lat="45.99309" lon="4.71514">
        <ele>199</ele>
        <time>2017-12-09T10:18:56Z</time>
      </trkpt>
      <trkpt lat="45.99313" lon="4.71514">
        <ele>199</ele>
        <time>2017-12-09T10:18:57Z</time>
      </trkpt>
      <trkpt lat="45.99318" lon="4.71513">
        <ele>200</ele>
        <time>2017-12-09T10:18:58Z</time>
      </trkpt>
      <trkpt lat="45.99323" lon="4.71511">
        <ele>200</ele>
        <time>2017-12-09T10:18:59Z</time>
      </trkpt>
      <trkpt lat="45.99328" lon="4.7151">
        <ele>200</ele>
        <time>2017-12-09T10:19:00Z</time>
      </trkpt>
      <trkpt lat="45.99332" lon="4.7151">
        <ele>200</ele>
        <time>2017-12-09T10:19:01Z</time>
      </trkpt>
      <trkpt lat="45.99341" lon="4.71509">
        <ele>200</ele>
        <time>2017-12-09T10:19:03Z</time>
      </trkpt>
      <trkpt lat="45.99346" lon="4.7151">
        <ele>200</ele>
        <time>2017-12-09T10:19:04Z</time>
      </trkpt>
      <trkpt lat="45.99351" lon="4.71509">
        <ele>200</ele>
        <time>2017-12-09T10:19:05Z</time>
      </trkpt>
      <trkpt lat="45.99356" lon="4.71508">
        <ele>200</ele>
        <time>2017-12-09T10:19:06Z</time>
      </trkpt>
      <trkpt lat="45.99363" lon="4.71506">
        <ele>200</ele>
        <time>2017-12-09T10:19:08Z</time>
      </trkpt>
      <trkpt lat="45.99366" lon="4.71506">
        <ele>200</ele>
        <time>2017-12-09T10:19:09Z</time>
      </trkpt>
      <trkpt lat="45.99373" lon="4.71508">
        <ele>200</ele>
        <time>2017-12-09T10:19:11Z</time>
      </trkpt>
      <trkpt lat="45.99376" lon="4.71508">
        <ele>200</ele>
        <time>2017-12-09T10:19:12Z</time>
      </trkpt>
      <trkpt lat="45.99384" lon="4.71505">
        <ele>200</ele>
        <time>2017-12-09T10:19:14Z</time>
      </trkpt>
      <trkpt lat="45.99387" lon="4.71502">
        <ele>200</ele>
        <time>2017-12-09T10:19:15Z</time>
      </trkpt>
      <trkpt lat="45.99394" lon="4.71502">
        <ele>200</ele>
        <time>2017-12-09T10:19:17Z</time>
      </trkpt>
      <trkpt lat="45.99399" lon="4.71502">
        <ele>200</ele>
        <time>2017-12-09T10:19:18Z</time>
      </trkpt>
      <trkpt lat="45.99403" lon="4.71503">
        <ele>200</ele>
        <time>2017-12-09T10:19:19Z</time>
      </trkpt>
      <trkpt lat="45.99408" lon="4.71505">
        <ele>199</ele>
        <time>2017-12-09T10:19:20Z</time>
      </trkpt>
      <trkpt lat="45.99415" lon="4.71506">
        <ele>199</ele>
        <time>2017-12-09T10:19:22Z</time>
      </trkpt>
      <trkpt lat="45.99418" lon="4.71506">
        <ele>199</ele>
        <time>2017-12-09T10:19:23Z</time>
      </trkpt>
      <trkpt lat="45.99425" lon="4.71506">
        <ele>199</ele>
        <time>2017-12-09T10:19:25Z</time>
      </trkpt>
      <trkpt lat="45.9943" lon="4.71507">
        <ele>199</ele>
        <time>2017-12-09T10:19:26Z</time>
      </trkpt>
      <trkpt lat="45.99435" lon="4.71509">
        <ele>199</ele>
        <time>2017-12-09T10:19:27Z</time>
      </trkpt>
      <trkpt lat="45.9944" lon="4.7151">
        <ele>199</ele>
        <time>2017-12-09T10:19:28Z</time>
      </trkpt>
      <trkpt lat="45.99449" lon="4.71509">
        <ele>199</ele>
        <time>2017-12-09T10:19:30Z</time>
      </trkpt>
      <trkpt lat="45.99453" lon="4.71509">
        <ele>199</ele>
        <time>2017-12-09T10:19:31Z</time>
      </trkpt>
      <trkpt lat="45.99462" lon="4.71509">
        <ele>199</ele>
        <time>2017-12-09T10:19:33Z</time>
      </trkpt>
      <trkpt lat="45.99466" lon="4.71509">
        <ele>199</ele>
        <time>2017-12-09T10:19:34Z</time>
      </trkpt>
      <trkpt lat="45.99474" lon="4.71508">
        <ele>199</ele>
        <time>2017-12-09T10:19:36Z</time>
      </trkpt>
      <trkpt lat="45.99479" lon="4.71508">
        <ele>199</ele>
        <time>2017-12-09T10:19:37Z</time>
      </trkpt>
      <trkpt lat="45.99487" lon="4.71507">
        <ele>199</ele>
        <time>2017-12-09T10:19:39Z</time>
      </trkpt>
      <trkpt lat="45.99491" lon="4.71506">
        <ele>199</ele>
        <time>2017-12-09T10:19:40Z</time>
      </trkpt>
      <trkpt lat="45.99495" lon="4.71505">
        <ele>199</ele>
        <time>2017-12-09T10:19:41Z</time>
      </trkpt>
      <trkpt lat="45.99501" lon="4.71502">
        <ele>199</ele>
        <time>2017-12-09T10:19:42Z</time>
      </trkpt>
      <trkpt lat="45.9951" lon="4.71501">
        <ele>199</ele>
        <time>2017-12-09T10:19:44Z</time>
      </trkpt>
      <trkpt lat="45.99514" lon="4.71502">
        <ele>199</ele>
        <time>2017-12-09T10:19:45Z</time>
      </trkpt>
      <trkpt lat="45.99521" lon="4.71501">
        <ele>198</ele>
        <time>2017-12-09T10:19:47Z</time>
      </trkpt>
      <trkpt lat="45.99525" lon="4.71501">
        <ele>198</ele>
        <time>2017-12-09T10:19:48Z</time>
      </trkpt>
      <trkpt lat="45.99532" lon="4.71502">
        <ele>198</ele>
        <time>2017-12-09T10:19:50Z</time>
      </trkpt>
      <trkpt lat="45.99536" lon="4.71502">
        <ele>198</ele>
        <time>2017-12-09T10:19:51Z</time>
      </trkpt>
      <trkpt lat="45.9954" lon="4.71502">
        <ele>198</ele>
        <time>2017-12-09T10:19:52Z</time>
      </trkpt>
      <trkpt lat="45.99545" lon="4.71503">
        <ele>198</ele>
        <time>2017-12-09T10:19:53Z</time>
      </trkpt>
      <trkpt lat="45.99553" lon="4.71504">
        <ele>198</ele>
        <time>2017-12-09T10:19:55Z</time>
      </trkpt>
      <trkpt lat="45.99557" lon="4.71505">
        <ele>198</ele>
        <time>2017-12-09T10:19:56Z</time>
      </trkpt>
      <trkpt lat="45.99562" lon="4.71505">
        <ele>197</ele>
        <time>2017-12-09T10:19:57Z</time>
      </trkpt>
      <trkpt lat="45.99568" lon="4.71506">
        <ele>197</ele>
        <time>2017-12-09T10:19:58Z</time>
      </trkpt>
      <trkpt lat="45.99574" lon="4.71507">
        <ele>197</ele>
        <time>2017-12-09T10:19:59Z</time>
      </trkpt>
      <trkpt lat="45.99577" lon="4.71506">
        <ele>197</ele>
        <time>2017-12-09T10:20:00Z</time>
      </trkpt>
      <trkpt lat="45.99583" lon="4.71513">
        <ele>197</ele>
        <time>2017-12-09T10:20:02Z</time>
      </trkpt>
      <trkpt lat="45.99585" lon="4.71518">
        <ele>197</ele>
        <time>2017-12-09T10:20:03Z</time>
      </trkpt>
      <trkpt lat="45.99588" lon="4.71524">
        <ele>197</ele>
        <time>2017-12-09T10:20:04Z</time>
      </trkpt>
      <trkpt lat="45.99591" lon="4.71528">
        <ele>197</ele>
        <time>2017-12-09T10:20:05Z</time>
      </trkpt>
      <trkpt lat="45.99599" lon="4.71532">
        <ele>197</ele>
        <time>2017-12-09T10:20:07Z</time>
      </trkpt>
      <trkpt lat="45.99603" lon="4.71531">
        <ele>197</ele>
        <time>2017-12-09T10:20:08Z</time>
      </trkpt>
      <trkpt lat="45.99607" lon="4.71527">
        <ele>197</ele>
        <time>2017-12-09T10:20:09Z</time>
      </trkpt>
      <trkpt lat="45.9961" lon="4.71522">
        <ele>197</ele>
        <time>2017-12-09T10:20:10Z</time>
      </trkpt>
      <trkpt lat="45.99612" lon="4.71516">
        <ele>197</ele>
        <time>2017-12-09T10:20:11Z</time>
      </trkpt>
      <trkpt lat="45.99612" lon="4.7151">
        <ele>197</ele>
        <time>2017-12-09T10:20:12Z</time>
      </trkpt>
      <trkpt lat="45.99612" lon="4.71503">
        <ele>197</ele>
        <time>2017-12-09T10:20:13Z</time>
      </trkpt>
      <trkpt lat="45.99612" lon="4.71496">
        <ele>197</ele>
        <time>2017-12-09T10:20:14Z</time>
      </trkpt>
      <trkpt lat="45.99612" lon="4.71489">
        <ele>197</ele>
        <time>2017-12-09T10:20:15Z</time>
      </trkpt>
      <trkpt lat="45.99614" lon="4.71482">
        <ele>197</ele>
        <time>2017-12-09T10:20:16Z</time>
      </trkpt>
      <trkpt lat="45.99616" lon="4.71476">
        <ele>197</ele>
        <time>2017-12-09T10:20:17Z</time>
      </trkpt>
      <trkpt lat="45.99618" lon="4.71469">
        <ele>197</ele>
        <time>2017-12-09T10:20:18Z</time>
      </trkpt>
      <trkpt lat="45.99623" lon="4.71459">
        <ele>197</ele>
        <time>2017-12-09T10:20:20Z</time>
      </trkpt>
      <trkpt lat="45.99626" lon="4.71455">
        <ele>197</ele>
        <time>2017-12-09T10:20:21Z</time>
      </trkpt>
      <trkpt lat="45.99631" lon="4.71445">
        <ele>197</ele>
        <time>2017-12-09T10:20:23Z</time>
      </trkpt>
      <trkpt lat="45.99633" lon="4.71439">
        <ele>197</ele>
        <time>2017-12-09T10:20:24Z</time>
      </trkpt>
      <trkpt lat="45.99636" lon="4.71434">
        <ele>197</ele>
        <time>2017-12-09T10:20:25Z</time>
      </trkpt>
      <trkpt lat="45.99638" lon="4.71428">
        <ele>197</ele>
        <time>2017-12-09T10:20:26Z</time>
      </trkpt>
      <trkpt lat="45.99641" lon="4.71421">
        <ele>197</ele>
        <time>2017-12-09T10:20:27Z</time>
      </trkpt>
      <trkpt lat="45.99645" lon="4.71415">
        <ele>198</ele>
        <time>2017-12-09T10:20:28Z</time>
      </trkpt>
      <trkpt lat="45.99651" lon="4.71406">
        <ele>198</ele>
        <time>2017-12-09T10:20:30Z</time>
      </trkpt>
      <trkpt lat="45.99652" lon="4.71401">
        <ele>198</ele>
        <time>2017-12-09T10:20:31Z</time>
      </trkpt>
      <trkpt lat="45.99656" lon="4.71393">
        <ele>198</ele>
        <time>2017-12-09T10:20:33Z</time>
      </trkpt>
      <trkpt lat="45.99659" lon="4.71389">
        <ele>198</ele>
        <time>2017-12-09T10:20:34Z</time>
      </trkpt>
      <trkpt lat="45.99664" lon="4.71379">
        <ele>198</ele>
        <time>2017-12-09T10:20:36Z</time>
      </trkpt>
      <trkpt lat="45.99667" lon="4.71373">
        <ele>197</ele>
        <time>2017-12-09T10:20:37Z</time>
      </trkpt>
      <trkpt lat="45.99673" lon="4.71364">
        <ele>197</ele>
        <time>2017-12-09T10:20:39Z</time>
      </trkpt>
      <trkpt lat="45.99676" lon="4.71358">
        <ele>197</ele>
        <time>2017-12-09T10:20:40Z</time>
      </trkpt>
      <trkpt lat="45.99678" lon="4.71353">
        <ele>197</ele>
        <time>2017-12-09T10:20:41Z</time>
      </trkpt>
      <trkpt lat="45.99681" lon="4.71347">
        <ele>197</ele>
        <time>2017-12-09T10:20:42Z</time>
      </trkpt>
      <trkpt lat="45.99684" lon="4.7134">
        <ele>197</ele>
        <time>2017-12-09T10:20:43Z</time>
      </trkpt>
      <trkpt lat="45.99687" lon="4.71335">
        <ele>197</ele>
        <time>2017-12-09T10:20:44Z</time>
      </trkpt>
      <trkpt lat="45.9969" lon="4.71329">
        <ele>197</ele>
        <time>2017-12-09T10:20:45Z</time>
      </trkpt>
      <trkpt lat="45.99693" lon="4.71324">
        <ele>198</ele>
        <time>2017-12-09T10:20:46Z</time>
      </trkpt>
      <trkpt lat="45.99696" lon="4.7132">
        <ele>198</ele>
        <time>2017-12-09T10:20:47Z</time>
      </trkpt>
      <trkpt lat="45.99699" lon="4.71314">
        <ele>198</ele>
        <time>2017-12-09T10:20:48Z</time>
      </trkpt>
      <trkpt lat="45.99702" lon="4.71308">
        <ele>198</ele>
        <time>2017-12-09T10:20:49Z</time>
      </trkpt>
      <trkpt lat="45.99705" lon="4.71301">
        <ele>198</ele>
        <time>2017-12-09T10:20:50Z</time>
      </trkpt>
      <trkpt lat="45.99709" lon="4.71297">
        <ele>198</ele>
        <time>2017-12-09T10:20:51Z</time>
      </trkpt>
      <trkpt lat="45.99713" lon="4.7129">
        <ele>198</ele>
        <time>2017-12-09T10:20:52Z</time>
      </trkpt>
      <trkpt lat="45.99717" lon="4.71282">
        <ele>198</ele>
        <time>2017-12-09T10:20:53Z</time>
      </trkpt>
      <trkpt lat="45.9972" lon="4.71276">
        <ele>198</ele>
        <time>2017-12-09T10:20:54Z</time>
      </trkpt>
      <trkpt lat="45.99725" lon="4.71265">
        <ele>198</ele>
        <time>2017-12-09T10:20:56Z</time>
      </trkpt>
      <trkpt lat="45.99727" lon="4.71261">
        <ele>198</ele>
        <time>2017-12-09T10:20:57Z</time>
      </trkpt>
      <trkpt lat="45.99731" lon="4.71252">
        <ele>198</ele>
        <time>2017-12-09T10:20:59Z</time>
      </trkpt>
      <trkpt lat="45.99734" lon="4.71247">
        <ele>198</ele>
        <time>2017-12-09T10:21:00Z</time>
      </trkpt>
      <trkpt lat="45.99737" lon="4.71241">
        <ele>198</ele>
        <time>2017-12-09T10:21:01Z</time>
      </trkpt>
      <trkpt lat="45.9974" lon="4.71236">
        <ele>198</ele>
        <time>2017-12-09T10:21:02Z</time>
      </trkpt>
      <trkpt lat="45.99743" lon="4.7123">
        <ele>198</ele>
        <time>2017-12-09T10:21:03Z</time>
      </trkpt>
      <trkpt lat="45.99746" lon="4.71225">
        <ele>198</ele>
        <time>2017-12-09T10:21:04Z</time>
      </trkpt>
      <trkpt lat="45.99748" lon="4.71219">
        <ele>198</ele>
        <time>2017-12-09T10:21:05Z</time>
      </trkpt>
      <trkpt lat="45.99751" lon="4.71214">
        <ele>199</ele>
        <time>2017-12-09T10:21:06Z</time>
      </trkpt>
      <trkpt lat="45.99756" lon="4.71204">
        <ele>198</ele>
        <time>2017-12-09T10:21:08Z</time>
      </trkpt>
      <trkpt lat="45.99759" lon="4.71198">
        <ele>198</ele>
        <time>2017-12-09T10:21:09Z</time>
      </trkpt>
      <trkpt lat="45.99763" lon="4.71189">
        <ele>198</ele>
        <time>2017-12-09T10:21:11Z</time>
      </trkpt>
      <trkpt lat="45.99765" lon="4.71184">
        <ele>198</ele>
        <time>2017-12-09T10:21:12Z</time>
      </trkpt>
      <trkpt lat="45.99769" lon="4.71177">
        <ele>198</ele>
        <time>2017-12-09T10:21:14Z</time>
      </trkpt>
      <trkpt lat="45.99771" lon="4.71172">
        <ele>198</ele>
        <time>2017-12-09T10:21:15Z</time>
      </trkpt>
      <trkpt lat="45.99774" lon="4.71164">
        <ele>198</ele>
        <time>2017-12-09T10:21:17Z</time>
      </trkpt>
      <trkpt lat="45.99776" lon="4.71161">
        <ele>198</ele>
        <time>2017-12-09T10:21:18Z</time>
      </trkpt>
      <trkpt lat="45.99781" lon="4.71151">
        <ele>198</ele>
        <time>2017-12-09T10:21:22Z</time>
      </trkpt>
      <trkpt lat="45.99783" lon="4.71149">
        <ele>198</ele>
        <time>2017-12-09T10:21:23Z</time>
      </trkpt>
      <trkpt lat="45.99789" lon="4.71141">
        <ele>198</ele>
        <time>2017-12-09T10:21:28Z</time>
      </trkpt>
      <trkpt lat="45.99791" lon="4.71138">
        <ele>198</ele>
        <time>2017-12-09T10:21:29Z</time>
      </trkpt>
      <trkpt lat="45.99796" lon="4.71128">
        <ele>198</ele>
        <time>2017-12-09T10:21:32Z</time>
      </trkpt>
      <trkpt lat="45.99798" lon="4.71124">
        <ele>198</ele>
        <time>2017-12-09T10:21:33Z</time>
      </trkpt>
      <trkpt lat="45.99801" lon="4.71114">
        <ele>198</ele>
        <time>2017-12-09T10:21:35Z</time>
      </trkpt>
      <trkpt lat="45.99801" lon="4.71108">
        <ele>198</ele>
        <time>2017-12-09T10:21:36Z</time>
      </trkpt>
      <trkpt lat="45.99803" lon="4.71097">
        <ele>198</ele>
        <time>2017-12-09T10:21:38Z</time>
      </trkpt>
      <trkpt lat="45.99804" lon="4.71092">
        <ele>198</ele>
        <time>2017-12-09T10:21:39Z</time>
      </trkpt>
      <trkpt lat="45.99805" lon="4.71086">
        <ele>198</ele>
        <time>2017-12-09T10:21:40Z</time>
      </trkpt>
      <trkpt lat="45.99806" lon="4.71079">
        <ele>199</ele>
        <time>2017-12-09T10:21:41Z</time>
      </trkpt>
      <trkpt lat="45.99809" lon="4.71066">
        <ele>199</ele>
        <time>2017-12-09T10:21:43Z</time>
      </trkpt>
      <trkpt lat="45.9981" lon="4.71059">
        <ele>199</ele>
        <time>2017-12-09T10:21:44Z</time>
      </trkpt>
      <trkpt lat="45.99811" lon="4.71054">
        <ele>199</ele>
        <time>2017-12-09T10:21:45Z</time>
      </trkpt>
      <trkpt lat="45.99812" lon="4.71046">
        <ele>199</ele>
        <time>2017-12-09T10:21:46Z</time>
      </trkpt>
      <trkpt lat="45.99813" lon="4.71039">
        <ele>199</ele>
        <time>2017-12-09T10:21:47Z</time>
      </trkpt>
      <trkpt lat="45.99813" lon="4.71033">
        <ele>199</ele>
        <time>2017-12-09T10:21:48Z</time>
      </trkpt>
      <trkpt lat="45.99814" lon="4.71025">
        <ele>199</ele>
        <time>2017-12-09T10:21:49Z</time>
      </trkpt>
      <trkpt lat="45.99815" lon="4.71018">
        <ele>199</ele>
        <time>2017-12-09T10:21:50Z</time>
      </trkpt>
      <trkpt lat="45.99816" lon="4.71012">
        <ele>200</ele>
        <time>2017-12-09T10:21:51Z</time>
      </trkpt>
      <trkpt lat="45.99819" lon="4.71005">
        <ele>200</ele>
        <time>2017-12-09T10:21:52Z</time>
      </trkpt>
      <trkpt lat="45.9982" lon="4.70998">
        <ele>200</ele>
        <time>2017-12-09T10:21:53Z</time>
      </trkpt>
      <trkpt lat="45.99821" lon="4.70991">
        <ele>200</ele>
        <time>2017-12-09T10:21:54Z</time>
      </trkpt>
      <trkpt lat="45.99822" lon="4.70982">
        <ele>200</ele>
        <time>2017-12-09T10:21:55Z</time>
      </trkpt>
      <trkpt lat="45.99823" lon="4.70975">
        <ele>200</ele>
        <time>2017-12-09T10:21:56Z</time>
      </trkpt>
      <trkpt lat="45.99825" lon="4.70967">
        <ele>200</ele>
        <time>2017-12-09T10:21:57Z</time>
      </trkpt>
      <trkpt lat="45.99826" lon="4.7096">
        <ele>200</ele>
        <time>2017-12-09T10:21:58Z</time>
      </trkpt>
      <trkpt lat="45.99827" lon="4.70952">
        <ele>199</ele>
        <time>2017-12-09T10:21:59Z</time>
      </trkpt>
      <trkpt lat="45.99828" lon="4.70945">
        <ele>199</ele>
        <time>2017-12-09T10:22:00Z</time>
      </trkpt>
      <trkpt lat="45.99828" lon="4.70939">
        <ele>199</ele>
        <time>2017-12-09T10:22:01Z</time>
      </trkpt>
      <trkpt lat="45.99831" lon="4.70931">
        <ele>199</ele>
        <time>2017-12-09T10:22:02Z</time>
      </trkpt>
      <trkpt lat="45.99831" lon="4.70924">
        <ele>199</ele>
        <time>2017-12-09T10:22:03Z</time>
      </trkpt>
      <trkpt lat="45.99833" lon="4.70916">
        <ele>199</ele>
        <time>2017-12-09T10:22:04Z</time>
      </trkpt>
      <trkpt lat="45.99835" lon="4.70908">
        <ele>199</ele>
        <time>2017-12-09T10:22:05Z</time>
      </trkpt>
      <trkpt lat="45.99837" lon="4.70901">
        <ele>199</ele>
        <time>2017-12-09T10:22:06Z</time>
      </trkpt>
      <trkpt lat="45.99838" lon="4.70894">
        <ele>199</ele>
        <time>2017-12-09T10:22:07Z</time>
      </trkpt>
      <trkpt lat="45.9984" lon="4.70886">
        <ele>199</ele>
        <time>2017-12-09T10:22:08Z</time>
      </trkpt>
      <trkpt lat="45.99842" lon="4.70879">
        <ele>200</ele>
        <time>2017-12-09T10:22:09Z</time>
      </trkpt>
      <trkpt lat="45.99843" lon="4.70872">
        <ele>200</ele>
        <time>2017-12-09T10:22:10Z</time>
      </trkpt>
      <trkpt lat="45.99843" lon="4.70864">
        <ele>200</ele>
        <time>2017-12-09T10:22:11Z</time>
      </trkpt>
      <trkpt lat="45.99846" lon="4.70858">
        <ele>200</ele>
        <time>2017-12-09T10:22:12Z</time>
      </trkpt>
      <trkpt lat="45.99848" lon="4.70845">
        <ele>201</ele>
        <time>2017-12-09T10:22:14Z</time>
      </trkpt>
      <trkpt lat="45.99849" lon="4.70839">
        <ele>201</ele>
        <time>2017-12-09T10:22:15Z</time>
      </trkpt>
      <trkpt lat="45.99851" lon="4.70828">
        <ele>201</ele>
        <time>2017-12-09T10:22:17Z</time>
      </trkpt>
      <trkpt lat="45.99851" lon="4.70822">
        <ele>201</ele>
        <time>2017-12-09T10:22:18Z</time>
      </trkpt>
      <trkpt lat="45.99853" lon="4.70816">
        <ele>201</ele>
        <time>2017-12-09T10:22:19Z</time>
      </trkpt>
      <trkpt lat="45.99855" lon="4.70807">
        <ele>201</ele>
        <time>2017-12-09T10:22:20Z</time>
      </trkpt>
      <trkpt lat="45.99856" lon="4.708">
        <ele>201</ele>
        <time>2017-12-09T10:22:21Z</time>
      </trkpt>
      <trkpt lat="45.99857" lon="4.70793">
        <ele>201</ele>
        <time>2017-12-09T10:22:22Z</time>
      </trkpt>
      <trkpt lat="45.99858" lon="4.70784">
        <ele>200</ele>
        <time>2017-12-09T10:22:23Z</time>
      </trkpt>
      <trkpt lat="45.99859" lon="4.70773">
        <ele>200</ele>
        <time>2017-12-09T10:22:24Z</time>
      </trkpt>
      <trkpt lat="45.9986" lon="4.70765">
        <ele>200</ele>
        <time>2017-12-09T10:22:25Z</time>
      </trkpt>
      <trkpt lat="45.99861" lon="4.70759">
        <ele>200</ele>
        <time>2017-12-09T10:22:26Z</time>
      </trkpt>
      <trkpt lat="45.99863" lon="4.70751">
        <ele>200</ele>
        <time>2017-12-09T10:22:27Z</time>
      </trkpt>
      <trkpt lat="45.99865" lon="4.70742">
        <ele>200</ele>
        <time>2017-12-09T10:22:28Z</time>
      </trkpt>
      <trkpt lat="45.99866" lon="4.70733">
        <ele>200</ele>
        <time>2017-12-09T10:22:29Z</time>
      </trkpt>
      <trkpt lat="45.99868" lon="4.70724">
        <ele>200</ele>
        <time>2017-12-09T10:22:30Z</time>
      </trkpt>
      <trkpt lat="45.9987" lon="4.70716">
        <ele>200</ele>
        <time>2017-12-09T10:22:31Z</time>
      </trkpt>
      <trkpt lat="45.9987" lon="4.70705">
        <ele>200</ele>
        <time>2017-12-09T10:22:32Z</time>
      </trkpt>
      <trkpt lat="45.99871" lon="4.70696">
        <ele>200</ele>
        <time>2017-12-09T10:22:33Z</time>
      </trkpt>
      <trkpt lat="45.99873" lon="4.70687">
        <ele>200</ele>
        <time>2017-12-09T10:22:34Z</time>
      </trkpt>
      <trkpt lat="45.99874" lon="4.7068">
        <ele>200</ele>
        <time>2017-12-09T10:22:35Z</time>
      </trkpt>
      <trkpt lat="45.99876" lon="4.70674">
        <ele>200</ele>
        <time>2017-12-09T10:22:36Z</time>
      </trkpt>
      <trkpt lat="45.9988" lon="4.70669">
        <ele>200</ele>
        <time>2017-12-09T10:22:37Z</time>
      </trkpt>
      <trkpt lat="45.99882" lon="4.70664">
        <ele>200</ele>
        <time>2017-12-09T10:22:38Z</time>
      </trkpt>
      <trkpt lat="45.99886" lon="4.70661">
        <ele>200</ele>
        <time>2017-12-09T10:22:39Z</time>
      </trkpt>
      <trkpt lat="45.99891" lon="4.70659">
        <ele>200</ele>
        <time>2017-12-09T10:22:40Z</time>
      </trkpt>
      <trkpt lat="45.99896" lon="4.70657">
        <ele>200</ele>
        <time>2017-12-09T10:22:41Z</time>
      </trkpt>
      <trkpt lat="45.99901" lon="4.70656">
        <ele>200</ele>
        <time>2017-12-09T10:22:42Z</time>
      </trkpt>
      <trkpt lat="45.99906" lon="4.70654">
        <ele>200</ele>
        <time>2017-12-09T10:22:43Z</time>
      </trkpt>
      <trkpt lat="45.99911" lon="4.70652">
        <ele>200</ele>
        <time>2017-12-09T10:22:44Z</time>
      </trkpt>
      <trkpt lat="45.99916" lon="4.70649">
        <ele>200</ele>
        <time>2017-12-09T10:22:45Z</time>
      </trkpt>
      <trkpt lat="45.9992" lon="4.70647">
        <ele>199</ele>
        <time>2017-12-09T10:22:46Z</time>
      </trkpt>
      <trkpt lat="45.99926" lon="4.70645">
        <ele>199</ele>
        <time>2017-12-09T10:22:47Z</time>
      </trkpt>
      <trkpt lat="45.99931" lon="4.70644">
        <ele>199</ele>
        <time>2017-12-09T10:22:48Z</time>
      </trkpt>
      <trkpt lat="45.99936" lon="4.70643">
        <ele>199</ele>
        <time>2017-12-09T10:22:49Z</time>
      </trkpt>
      <trkpt lat="45.99941" lon="4.70642">
        <ele>199</ele>
        <time>2017-12-09T10:22:50Z</time>
      </trkpt>
      <trkpt lat="45.99949" lon="4.70638">
        <ele>199</ele>
        <time>2017-12-09T10:22:52Z</time>
      </trkpt>
      <trkpt lat="45.99952" lon="4.70638">
        <ele>199</ele>
        <time>2017-12-09T10:22:53Z</time>
      </trkpt>
      <trkpt lat="45.9996" lon="4.70636">
        <ele>199</ele>
        <time>2017-12-09T10:22:55Z</time>
      </trkpt>
      <trkpt lat="45.99964" lon="4.70634">
        <ele>199</ele>
        <time>2017-12-09T10:22:56Z</time>
      </trkpt>
      <trkpt lat="45.99968" lon="4.7063">
        <ele>199</ele>
        <time>2017-12-09T10:22:57Z</time>
      </trkpt>
      <trkpt lat="45.99974" lon="4.70629">
        <ele>199</ele>
        <time>2017-12-09T10:22:58Z</time>
      </trkpt>
      <trkpt lat="45.99979" lon="4.70629">
        <ele>199</ele>
        <time>2017-12-09T10:22:59Z</time>
      </trkpt>
      <trkpt lat="45.99985" lon="4.70628">
        <ele>199</ele>
        <time>2017-12-09T10:23:00Z</time>
      </trkpt>
      <trkpt lat="45.99989" lon="4.70627">
        <ele>199</ele>
        <time>2017-12-09T10:23:01Z</time>
      </trkpt>
      <trkpt lat="45.99997" lon="4.70627">
        <ele>199</ele>
        <time>2017-12-09T10:23:02Z</time>
      </trkpt>
      <trkpt lat="46.00001" lon="4.70627">
        <ele>198</ele>
        <time>2017-12-09T10:23:03Z</time>
      </trkpt>
      <trkpt lat="46.00008" lon="4.70626">
        <ele>198</ele>
        <time>2017-12-09T10:23:04Z</time>
      </trkpt>
      <trkpt lat="46.00016" lon="4.70623">
        <ele>199</ele>
        <time>2017-12-09T10:23:06Z</time>
      </trkpt>
      <trkpt lat="46.00024" lon="4.7062">
        <ele>199</ele>
        <time>2017-12-09T10:23:07Z</time>
      </trkpt>
      <trkpt lat="46.00029" lon="4.70619">
        <ele>199</ele>
        <time>2017-12-09T10:23:08Z</time>
      </trkpt>
      <trkpt lat="46.00034" lon="4.70619">
        <ele>199</ele>
        <time>2017-12-09T10:23:09Z</time>
      </trkpt>
      <trkpt lat="46.00037" lon="4.70617">
        <ele>199</ele>
        <time>2017-12-09T10:23:10Z</time>
      </trkpt>
      <trkpt lat="46.00043" lon="4.70616">
        <ele>198</ele>
        <time>2017-12-09T10:23:11Z</time>
      </trkpt>
      <trkpt lat="46.00048" lon="4.70614">
        <ele>198</ele>
        <time>2017-12-09T10:23:12Z</time>
      </trkpt>
      <trkpt lat="46.00052" lon="4.70612">
        <ele>198</ele>
        <time>2017-12-09T10:23:13Z</time>
      </trkpt>
      <trkpt lat="46.00057" lon="4.7061">
        <ele>198</ele>
        <time>2017-12-09T10:23:14Z</time>
      </trkpt>
      <trkpt lat="46.00061" lon="4.70609">
        <ele>198</ele>
        <time>2017-12-09T10:23:15Z</time>
      </trkpt>
      <trkpt lat="46.00066" lon="4.70607">
        <ele>198</ele>
        <time>2017-12-09T10:23:17Z</time>
      </trkpt>
      <trkpt lat="46.00071" lon="4.70605">
        <ele>198</ele>
        <time>2017-12-09T10:23:18Z</time>
      </trkpt>
      <trkpt lat="46.00075" lon="4.70604">
        <ele>198</ele>
        <time>2017-12-09T10:23:19Z</time>
      </trkpt>
      <trkpt lat="46.00079" lon="4.70601">
        <ele>198</ele>
        <time>2017-12-09T10:23:20Z</time>
      </trkpt>
      <trkpt lat="46.00086" lon="4.70599">
        <ele>198</ele>
        <time>2017-12-09T10:23:21Z</time>
      </trkpt>
      <trkpt lat="46.0009" lon="4.70596">
        <ele>198</ele>
        <time>2017-12-09T10:23:22Z</time>
      </trkpt>
      <trkpt lat="46.00096" lon="4.70593">
        <ele>198</ele>
        <time>2017-12-09T10:23:23Z</time>
      </trkpt>
      <trkpt lat="46.00101" lon="4.7059">
        <ele>198</ele>
        <time>2017-12-09T10:23:24Z</time>
      </trkpt>
      <trkpt lat="46.00105" lon="4.70587">
        <ele>198</ele>
        <time>2017-12-09T10:23:25Z</time>
      </trkpt>
      <trkpt lat="46.00109" lon="4.70584">
        <ele>198</ele>
        <time>2017-12-09T10:23:26Z</time>
      </trkpt>
      <trkpt lat="46.00116" lon="4.70578">
        <ele>198</ele>
        <time>2017-12-09T10:23:28Z</time>
      </trkpt>
      <trkpt lat="46.00121" lon="4.70576">
        <ele>198</ele>
        <time>2017-12-09T10:23:29Z</time>
      </trkpt>
      <trkpt lat="46.00126" lon="4.70572">
        <ele>198</ele>
        <time>2017-12-09T10:23:30Z</time>
      </trkpt>
      <trkpt lat="46.0013" lon="4.70569">
        <ele>198</ele>
        <time>2017-12-09T10:23:31Z</time>
      </trkpt>
      <trkpt lat="46.00138" lon="4.70566">
        <ele>198</ele>
        <time>2017-12-09T10:23:33Z</time>
      </trkpt>
      <trkpt lat="46.00143" lon="4.70565">
        <ele>198</ele>
        <time>2017-12-09T10:23:34Z</time>
      </trkpt>
      <trkpt lat="46.00148" lon="4.70564">
        <ele>198</ele>
        <time>2017-12-09T10:23:35Z</time>
      </trkpt>
      <trkpt lat="46.00153" lon="4.70561">
        <ele>198</ele>
        <time>2017-12-09T10:23:36Z</time>
      </trkpt>
      <trkpt lat="46.0016" lon="4.70554">
        <ele>198</ele>
        <time>2017-12-09T10:23:38Z</time>
      </trkpt>
      <trkpt lat="46.00165" lon="4.70551">
        <ele>198</ele>
        <time>2017-12-09T10:23:39Z</time>
      </trkpt>
      <trkpt lat="46.00171" lon="4.70548">
        <ele>198</ele>
        <time>2017-12-09T10:23:40Z</time>
      </trkpt>
      <trkpt lat="46.00177" lon="4.70545">
        <ele>198</ele>
        <time>2017-12-09T10:23:41Z</time>
      </trkpt>
      <trkpt lat="46.00182" lon="4.70544">
        <ele>198</ele>
        <time>2017-12-09T10:23:42Z</time>
      </trkpt>
      <trkpt lat="46.00187" lon="4.70543">
        <ele>198</ele>
        <time>2017-12-09T10:23:43Z</time>
      </trkpt>
      <trkpt lat="46.00192" lon="4.70542">
        <ele>198</ele>
        <time>2017-12-09T10:23:44Z</time>
      </trkpt>
      <trkpt lat="46.00197" lon="4.70542">
        <ele>198</ele>
        <time>2017-12-09T10:23:45Z</time>
      </trkpt>
      <trkpt lat="46.00206" lon="4.70541">
        <ele>198</ele>
        <time>2017-12-09T10:23:47Z</time>
      </trkpt>
      <trkpt lat="46.00211" lon="4.70541">
        <ele>197</ele>
        <time>2017-12-09T10:23:48Z</time>
      </trkpt>
      <trkpt lat="46.0022" lon="4.70538">
        <ele>197</ele>
        <time>2017-12-09T10:23:50Z</time>
      </trkpt>
      <trkpt lat="46.00224" lon="4.70537">
        <ele>197</ele>
        <time>2017-12-09T10:23:51Z</time>
      </trkpt>
      <trkpt lat="46.00229" lon="4.70535">
        <ele>197</ele>
        <time>2017-12-09T10:23:52Z</time>
      </trkpt>
      <trkpt lat="46.00234" lon="4.70533">
        <ele>197</ele>
        <time>2017-12-09T10:23:53Z</time>
      </trkpt>
      <trkpt lat="46.0024" lon="4.70532">
        <ele>197</ele>
        <time>2017-12-09T10:23:54Z</time>
      </trkpt>
      <trkpt lat="46.00245" lon="4.7053">
        <ele>198</ele>
        <time>2017-12-09T10:23:55Z</time>
      </trkpt>
      <trkpt lat="46.0025" lon="4.70528">
        <ele>198</ele>
        <time>2017-12-09T10:23:56Z</time>
      </trkpt>
      <trkpt lat="46.00255" lon="4.70526">
        <ele>197</ele>
        <time>2017-12-09T10:23:57Z</time>
      </trkpt>
      <trkpt lat="46.0026" lon="4.70525">
        <ele>197</ele>
        <time>2017-12-09T10:23:58Z</time>
      </trkpt>
      <trkpt lat="46.00264" lon="4.70523">
        <ele>197</ele>
        <time>2017-12-09T10:23:59Z</time>
      </trkpt>
      <trkpt lat="46.00272" lon="4.70522">
        <ele>197</ele>
        <time>2017-12-09T10:24:00Z</time>
      </trkpt>
      <trkpt lat="46.00277" lon="4.7052">
        <ele>197</ele>
        <time>2017-12-09T10:24:01Z</time>
      </trkpt>
      <trkpt lat="46.00282" lon="4.70519">
        <ele>197</ele>
        <time>2017-12-09T10:24:02Z</time>
      </trkpt>
      <trkpt lat="46.00286" lon="4.70518">
        <ele>197</ele>
        <time>2017-12-09T10:24:03Z</time>
      </trkpt>
      <trkpt lat="46.00295" lon="4.70516">
        <ele>197</ele>
        <time>2017-12-09T10:24:05Z</time>
      </trkpt>
      <trkpt lat="46.00299" lon="4.70514">
        <ele>197</ele>
        <time>2017-12-09T10:24:06Z</time>
      </trkpt>
      <trkpt lat="46.00304" lon="4.70514">
        <ele>197</ele>
        <time>2017-12-09T10:24:07Z</time>
      </trkpt>
      <trkpt lat="46.00309" lon="4.70513">
        <ele>197</ele>
        <time>2017-12-09T10:24:08Z</time>
      </trkpt>
      <trkpt lat="46.00314" lon="4.70511">
        <ele>197</ele>
        <time>2017-12-09T10:24:09Z</time>
      </trkpt>
      <trkpt lat="46.00319" lon="4.70509">
        <ele>198</ele>
        <time>2017-12-09T10:24:10Z</time>
      </trkpt>
      <trkpt lat="46.00324" lon="4.70507">
        <ele>198</ele>
        <time>2017-12-09T10:24:11Z</time>
      </trkpt>
      <trkpt lat="46.00328" lon="4.70506">
        <ele>198</ele>
        <time>2017-12-09T10:24:12Z</time>
      </trkpt>
      <trkpt lat="46.00333" lon="4.70506">
        <ele>198</ele>
        <time>2017-12-09T10:24:13Z</time>
      </trkpt>
      <trkpt lat="46.00338" lon="4.70506">
        <ele>198</ele>
        <time>2017-12-09T10:24:14Z</time>
      </trkpt>
      <trkpt lat="46.00345" lon="4.70504">
        <ele>198</ele>
        <time>2017-12-09T10:24:16Z</time>
      </trkpt>
      <trkpt lat="46.00349" lon="4.70503">
        <ele>198</ele>
        <time>2017-12-09T10:24:17Z</time>
      </trkpt>
      <trkpt lat="46.00358" lon="4.70501">
        <ele>198</ele>
        <time>2017-12-09T10:24:19Z</time>
      </trkpt>
      <trkpt lat="46.00361" lon="4.70502">
        <ele>198</ele>
        <time>2017-12-09T10:24:20Z</time>
      </trkpt>
      <trkpt lat="46.00366" lon="4.70501">
        <ele>198</ele>
        <time>2017-12-09T10:24:21Z</time>
      </trkpt>
      <trkpt lat="46.0037" lon="4.705">
        <ele>200</ele>
        <time>2017-12-09T10:24:22Z</time>
      </trkpt>
      <trkpt lat="46.00375" lon="4.70499">
        <ele>200</ele>
        <time>2017-12-09T10:24:23Z</time>
      </trkpt>
      <trkpt lat="46.0038" lon="4.70499">
        <ele>200</ele>
        <time>2017-12-09T10:24:24Z</time>
      </trkpt>
      <trkpt lat="46.00385" lon="4.70499">
        <ele>200</ele>
        <time>2017-12-09T10:24:25Z</time>
      </trkpt>
      <trkpt lat="46.0039" lon="4.70498">
        <ele>200</ele>
        <time>2017-12-09T10:24:26Z</time>
      </trkpt>
      <trkpt lat="46.00395" lon="4.70498">
        <ele>200</ele>
        <time>2017-12-09T10:24:27Z</time>
      </trkpt>
      <trkpt lat="46.004" lon="4.70498">
        <ele>200</ele>
        <time>2017-12-09T10:24:28Z</time>
      </trkpt>
      <trkpt lat="46.00409" lon="4.70498">
        <ele>200</ele>
        <time>2017-12-09T10:24:30Z</time>
      </trkpt>
      <trkpt lat="46.00414" lon="4.70498">
        <ele>200</ele>
        <time>2017-12-09T10:24:31Z</time>
      </trkpt>
      <trkpt lat="46.00422" lon="4.70499">
        <ele>201</ele>
        <time>2017-12-09T10:24:33Z</time>
      </trkpt>
      <trkpt lat="46.00426" lon="4.70499">
        <ele>201</ele>
        <time>2017-12-09T10:24:34Z</time>
      </trkpt>
      <trkpt lat="46.00431" lon="4.70501">
        <ele>200</ele>
        <time>2017-12-09T10:24:35Z</time>
      </trkpt>
      <trkpt lat="46.00436" lon="4.70501">
        <ele>200</ele>
        <time>2017-12-09T10:24:36Z</time>
      </trkpt>
      <trkpt lat="46.00444" lon="4.70503">
        <ele>200</ele>
        <time>2017-12-09T10:24:38Z</time>
      </trkpt>
      <trkpt lat="46.00448" lon="4.70504">
        <ele>201</ele>
        <time>2017-12-09T10:24:39Z</time>
      </trkpt>
      <trkpt lat="46.00456" lon="4.70507">
        <ele>201</ele>
        <time>2017-12-09T10:24:41Z</time>
      </trkpt>
      <trkpt lat="46.0046" lon="4.70511">
        <ele>201</ele>
        <time>2017-12-09T10:24:42Z</time>
      </trkpt>
      <trkpt lat="46.00466" lon="4.70517">
        <ele>201</ele>
        <time>2017-12-09T10:24:44Z</time>
      </trkpt>
      <trkpt lat="46.00467" lon="4.7052">
        <ele>201</ele>
        <time>2017-12-09T10:24:45Z</time>
      </trkpt>
      <trkpt lat="46.0047" lon="4.70531">
        <ele>201</ele>
        <time>2017-12-09T10:24:47Z</time>
      </trkpt>
      <trkpt lat="46.00472" lon="4.70536">
        <ele>201</ele>
        <time>2017-12-09T10:24:48Z</time>
      </trkpt>
      <trkpt lat="46.00477" lon="4.70545">
        <ele>201</ele>
        <time>2017-12-09T10:24:50Z</time>
      </trkpt>
      <trkpt lat="46.0048" lon="4.70548">
        <ele>201</ele>
        <time>2017-12-09T10:24:51Z</time>
      </trkpt>
      <trkpt lat="46.00489" lon="4.70548">
        <ele>201</ele>
        <time>2017-12-09T10:24:53Z</time>
      </trkpt>
      <trkpt lat="46.00493" lon="4.70546">
        <ele>201</ele>
        <time>2017-12-09T10:24:54Z</time>
      </trkpt>
      <trkpt lat="46.00499" lon="4.70538">
        <ele>201</ele>
        <time>2017-12-09T10:24:56Z</time>
      </trkpt>
      <trkpt lat="46.00501" lon="4.70534">
        <ele>203</ele>
        <time>2017-12-09T10:24:57Z</time>
      </trkpt>
      <trkpt lat="46.00506" lon="4.70523">
        <ele>203</ele>
        <time>2017-12-09T10:24:59Z</time>
      </trkpt>
      <trkpt lat="46.00509" lon="4.70518">
        <ele>204</ele>
        <time>2017-12-09T10:25:00Z</time>
      </trkpt>
      <trkpt lat="46.00516" lon="4.70513">
        <ele>204</ele>
        <time>2017-12-09T10:25:02Z</time>
      </trkpt>
      <trkpt lat="46.00521" lon="4.70514">
        <ele>204</ele>
        <time>2017-12-09T10:25:03Z</time>
      </trkpt>
      <trkpt lat="46.00526" lon="4.70515">
        <ele>204</ele>
        <time>2017-12-09T10:25:04Z</time>
      </trkpt>
      <trkpt lat="46.00531" lon="4.70515">
        <ele>204</ele>
        <time>2017-12-09T10:25:05Z</time>
      </trkpt>
      <trkpt lat="46.00536" lon="4.70515">
        <ele>204</ele>
        <time>2017-12-09T10:25:06Z</time>
      </trkpt>
      <trkpt lat="46.00541" lon="4.70515">
        <ele>204</ele>
        <time>2017-12-09T10:25:07Z</time>
      </trkpt>
      <trkpt lat="46.0055" lon="4.70515">
        <ele>204</ele>
        <time>2017-12-09T10:25:09Z</time>
      </trkpt>
      <trkpt lat="46.00554" lon="4.70515">
        <ele>204</ele>
        <time>2017-12-09T10:25:10Z</time>
      </trkpt>
      <trkpt lat="46.00562" lon="4.70514">
        <ele>205</ele>
        <time>2017-12-09T10:25:12Z</time>
      </trkpt>
      <trkpt lat="46.00566" lon="4.70513">
        <ele>205</ele>
        <time>2017-12-09T10:25:13Z</time>
      </trkpt>
      <trkpt lat="46.00575" lon="4.70512">
        <ele>205</ele>
        <time>2017-12-09T10:25:15Z</time>
      </trkpt>
      <trkpt lat="46.00579" lon="4.70512">
        <ele>206</ele>
        <time>2017-12-09T10:25:16Z</time>
      </trkpt>
      <trkpt lat="46.00587" lon="4.7051">
        <ele>207</ele>
        <time>2017-12-09T10:25:18Z</time>
      </trkpt>
      <trkpt lat="46.00592" lon="4.70509">
        <ele>207</ele>
        <time>2017-12-09T10:25:19Z</time>
      </trkpt>
      <trkpt lat="46.00596" lon="4.70509">
        <ele>207</ele>
        <time>2017-12-09T10:25:20Z</time>
      </trkpt>
      <trkpt lat="46.00601" lon="4.70508">
        <ele>207</ele>
        <time>2017-12-09T10:25:21Z</time>
      </trkpt>
      <trkpt lat="46.00605" lon="4.70508">
        <ele>207</ele>
        <time>2017-12-09T10:25:22Z</time>
      </trkpt>
      <trkpt lat="46.0061" lon="4.70507">
        <ele>207</ele>
        <time>2017-12-09T10:25:23Z</time>
      </trkpt>
      <trkpt lat="46.00618" lon="4.70506">
        <ele>207</ele>
        <time>2017-12-09T10:25:25Z</time>
      </trkpt>
      <trkpt lat="46.00623" lon="4.70505">
        <ele>207</ele>
        <time>2017-12-09T10:25:26Z</time>
      </trkpt>
      <trkpt lat="46.00632" lon="4.70504">
        <ele>208</ele>
        <time>2017-12-09T10:25:28Z</time>
      </trkpt>
      <trkpt lat="46.00636" lon="4.70504">
        <ele>208</ele>
        <time>2017-12-09T10:25:29Z</time>
      </trkpt>
      <trkpt lat="46.00642" lon="4.70504">
        <ele>208</ele>
        <time>2017-12-09T10:25:30Z</time>
      </trkpt>
      <trkpt lat="46.00647" lon="4.70503">
        <ele>209</ele>
        <time>2017-12-09T10:25:31Z</time>
      </trkpt>
      <trkpt lat="46.00656" lon="4.70501">
        <ele>210</ele>
        <time>2017-12-09T10:25:33Z</time>
      </trkpt>
      <trkpt lat="46.00659" lon="4.705">
        <ele>210</ele>
        <time>2017-12-09T10:25:34Z</time>
      </trkpt>
      <trkpt lat="46.00668" lon="4.70501">
        <ele>212</ele>
        <time>2017-12-09T10:25:36Z</time>
      </trkpt>
      <trkpt lat="46.00673" lon="4.70502">
        <ele>211</ele>
        <time>2017-12-09T10:25:37Z</time>
      </trkpt>
      <trkpt lat="46.00677" lon="4.70502">
        <ele>210</ele>
        <time>2017-12-09T10:25:38Z</time>
      </trkpt>
      <trkpt lat="46.00682" lon="4.70501">
        <ele>209</ele>
        <time>2017-12-09T10:25:39Z</time>
      </trkpt>
      <trkpt lat="46.00686" lon="4.70501">
        <ele>209</ele>
        <time>2017-12-09T10:25:40Z</time>
      </trkpt>
      <trkpt lat="46.00691" lon="4.70501">
        <ele>208</ele>
        <time>2017-12-09T10:25:41Z</time>
      </trkpt>
      <trkpt lat="46.00696" lon="4.70502">
        <ele>208</ele>
        <time>2017-12-09T10:25:42Z</time>
      </trkpt>
      <trkpt lat="46.00701" lon="4.70502">
        <ele>208</ele>
        <time>2017-12-09T10:25:43Z</time>
      </trkpt>
      <trkpt lat="46.00705" lon="4.70502">
        <ele>208</ele>
        <time>2017-12-09T10:25:44Z</time>
      </trkpt>
      <trkpt lat="46.00711" lon="4.70502">
        <ele>207</ele>
        <time>2017-12-09T10:25:45Z</time>
      </trkpt>
      <trkpt lat="46.00717" lon="4.70504">
        <ele>207</ele>
        <time>2017-12-09T10:25:46Z</time>
      </trkpt>
      <trkpt lat="46.00721" lon="4.70505">
        <ele>207</ele>
        <time>2017-12-09T10:25:47Z</time>
      </trkpt>
      <trkpt lat="46.00727" lon="4.70506">
        <ele>207</ele>
        <time>2017-12-09T10:25:48Z</time>
      </trkpt>
      <trkpt lat="46.00732" lon="4.70508">
        <ele>207</ele>
        <time>2017-12-09T10:25:49Z</time>
      </trkpt>
      <trkpt lat="46.00737" lon="4.7051">
        <ele>207</ele>
        <time>2017-12-09T10:25:50Z</time>
      </trkpt>
      <trkpt lat="46.00742" lon="4.70513">
        <ele>207</ele>
        <time>2017-12-09T10:25:51Z</time>
      </trkpt>
      <trkpt lat="46.00748" lon="4.70516">
        <ele>207</ele>
        <time>2017-12-09T10:25:52Z</time>
      </trkpt>
      <trkpt lat="46.00753" lon="4.70519">
        <ele>206</ele>
        <time>2017-12-09T10:25:53Z</time>
      </trkpt>
      <trkpt lat="46.00758" lon="4.7052">
        <ele>205</ele>
        <time>2017-12-09T10:25:54Z</time>
      </trkpt>
      <trkpt lat="46.00763" lon="4.70522">
        <ele>205</ele>
        <time>2017-12-09T10:25:55Z</time>
      </trkpt>
      <trkpt lat="46.00767" lon="4.70524">
        <ele>205</ele>
        <time>2017-12-09T10:25:56Z</time>
      </trkpt>
      <trkpt lat="46.00773" lon="4.70526">
        <ele>205</ele>
        <time>2017-12-09T10:25:57Z</time>
      </trkpt>
      <trkpt lat="46.00778" lon="4.70527">
        <ele>204</ele>
        <time>2017-12-09T10:25:58Z</time>
      </trkpt>
      <trkpt lat="46.00783" lon="4.7053">
        <ele>204</ele>
        <time>2017-12-09T10:25:59Z</time>
      </trkpt>
      <trkpt lat="46.00788" lon="4.70532">
        <ele>204</ele>
        <time>2017-12-09T10:26:00Z</time>
      </trkpt>
      <trkpt lat="46.00793" lon="4.70534">
        <ele>204</ele>
        <time>2017-12-09T10:26:01Z</time>
      </trkpt>
      <trkpt lat="46.00798" lon="4.70536">
        <ele>204</ele>
        <time>2017-12-09T10:26:02Z</time>
      </trkpt>
      <trkpt lat="46.00804" lon="4.70538">
        <ele>203</ele>
        <time>2017-12-09T10:26:03Z</time>
      </trkpt>
      <trkpt lat="46.00809" lon="4.70541">
        <ele>203</ele>
        <time>2017-12-09T10:26:04Z</time>
      </trkpt>
      <trkpt lat="46.00814" lon="4.70543">
        <ele>203</ele>
        <time>2017-12-09T10:26:05Z</time>
      </trkpt>
      <trkpt lat="46.0082" lon="4.70546">
        <ele>203</ele>
        <time>2017-12-09T10:26:06Z</time>
      </trkpt>
      <trkpt lat="46.00825" lon="4.70548">
        <ele>203</ele>
        <time>2017-12-09T10:26:07Z</time>
      </trkpt>
      <trkpt lat="46.00831" lon="4.70551">
        <ele>203</ele>
        <time>2017-12-09T10:26:08Z</time>
      </trkpt>
      <trkpt lat="46.00836" lon="4.70553">
        <ele>201</ele>
        <time>2017-12-09T10:26:09Z</time>
      </trkpt>
      <trkpt lat="46.00841" lon="4.70555">
        <ele>201</ele>
        <time>2017-12-09T10:26:10Z</time>
      </trkpt>
      <trkpt lat="46.00846" lon="4.70558">
        <ele>201</ele>
        <time>2017-12-09T10:26:11Z</time>
      </trkpt>
      <trkpt lat="46.00851" lon="4.7056">
        <ele>201</ele>
        <time>2017-12-09T10:26:12Z</time>
      </trkpt>
      <trkpt lat="46.00857" lon="4.70563">
        <ele>201</ele>
        <time>2017-12-09T10:26:13Z</time>
      </trkpt>
      <trkpt lat="46.00862" lon="4.70565">
        <ele>201</ele>
        <time>2017-12-09T10:26:14Z</time>
      </trkpt>
      <trkpt lat="46.00867" lon="4.70567">
        <ele>201</ele>
        <time>2017-12-09T10:26:15Z</time>
      </trkpt>
      <trkpt lat="46.00873" lon="4.70571">
        <ele>200</ele>
        <time>2017-12-09T10:26:16Z</time>
      </trkpt>
      <trkpt lat="46.0088" lon="4.70573">
        <ele>200</ele>
        <time>2017-12-09T10:26:17Z</time>
      </trkpt>
      <trkpt lat="46.00886" lon="4.70576">
        <ele>200</ele>
        <time>2017-12-09T10:26:18Z</time>
      </trkpt>
      <trkpt lat="46.00892" lon="4.70578">
        <ele>200</ele>
        <time>2017-12-09T10:26:19Z</time>
      </trkpt>
      <trkpt lat="46.00899" lon="4.70581">
        <ele>199</ele>
        <time>2017-12-09T10:26:20Z</time>
      </trkpt>
      <trkpt lat="46.00906" lon="4.70584">
        <ele>198</ele>
        <time>2017-12-09T10:26:21Z</time>
      </trkpt>
      <trkpt lat="46.00912" lon="4.70587">
        <ele>198</ele>
        <time>2017-12-09T10:26:22Z</time>
      </trkpt>
      <trkpt lat="46.00918" lon="4.7059">
        <ele>198</ele>
        <time>2017-12-09T10:26:23Z</time>
      </trkpt>
      <trkpt lat="46.00925" lon="4.70594">
        <ele>198</ele>
        <time>2017-12-09T10:26:24Z</time>
      </trkpt>
      <trkpt lat="46.00931" lon="4.70595">
        <ele>198</ele>
        <time>2017-12-09T10:26:25Z</time>
      </trkpt>
      <trkpt lat="46.00937" lon="4.70598">
        <ele>198</ele>
        <time>2017-12-09T10:26:26Z</time>
      </trkpt>
      <trkpt lat="46.00944" lon="4.706">
        <ele>197</ele>
        <time>2017-12-09T10:26:27Z</time>
      </trkpt>
      <trkpt lat="46.00951" lon="4.70603">
        <ele>197</ele>
        <time>2017-12-09T10:26:28Z</time>
      </trkpt>
      <trkpt lat="46.00958" lon="4.70606">
        <ele>197</ele>
        <time>2017-12-09T10:26:29Z</time>
      </trkpt>
      <trkpt lat="46.00964" lon="4.70609">
        <ele>197</ele>
        <time>2017-12-09T10:26:30Z</time>
      </trkpt>
      <trkpt lat="46.00971" lon="4.70612">
        <ele>197</ele>
        <time>2017-12-09T10:26:31Z</time>
      </trkpt>
      <trkpt lat="46.00976" lon="4.70615">
        <ele>197</ele>
        <time>2017-12-09T10:26:32Z</time>
      </trkpt>
      <trkpt lat="46.00982" lon="4.70617">
        <ele>197</ele>
        <time>2017-12-09T10:26:33Z</time>
      </trkpt>
      <trkpt lat="46.00988" lon="4.7062">
        <ele>197</ele>
        <time>2017-12-09T10:26:34Z</time>
      </trkpt>
      <trkpt lat="46.00994" lon="4.70623">
        <ele>197</ele>
        <time>2017-12-09T10:26:35Z</time>
      </trkpt>
      <trkpt lat="46.01" lon="4.70625">
        <ele>197</ele>
        <time>2017-12-09T10:26:36Z</time>
      </trkpt>
      <trkpt lat="46.01005" lon="4.70627">
        <ele>196</ele>
        <time>2017-12-09T10:26:37Z</time>
      </trkpt>
      <trkpt lat="46.01011" lon="4.7063">
        <ele>196</ele>
        <time>2017-12-09T10:26:38Z</time>
      </trkpt>
      <trkpt lat="46.01017" lon="4.70632">
        <ele>196</ele>
        <time>2017-12-09T10:26:39Z</time>
      </trkpt>
      <trkpt lat="46.01023" lon="4.70635">
        <ele>196</ele>
        <time>2017-12-09T10:26:40Z</time>
      </trkpt>
      <trkpt lat="46.01028" lon="4.70637">
        <ele>196</ele>
        <time>2017-12-09T10:26:41Z</time>
      </trkpt>
      <trkpt lat="46.01033" lon="4.7064">
        <ele>196</ele>
        <time>2017-12-09T10:26:42Z</time>
      </trkpt>
      <trkpt lat="46.01038" lon="4.70642">
        <ele>196</ele>
        <time>2017-12-09T10:26:43Z</time>
      </trkpt>
      <trkpt lat="46.01043" lon="4.70645">
        <ele>195</ele>
        <time>2017-12-09T10:26:44Z</time>
      </trkpt>
      <trkpt lat="46.01048" lon="4.70648">
        <ele>195</ele>
        <time>2017-12-09T10:26:45Z</time>
      </trkpt>
      <trkpt lat="46.01054" lon="4.70649">
        <ele>195</ele>
        <time>2017-12-09T10:26:46Z</time>
      </trkpt>
      <trkpt lat="46.0106" lon="4.70651">
        <ele>195</ele>
        <time>2017-12-09T10:26:47Z</time>
      </trkpt>
      <trkpt lat="46.01065" lon="4.70654">
        <ele>195</ele>
        <time>2017-12-09T10:26:48Z</time>
      </trkpt>
      <trkpt lat="46.01071" lon="4.70657">
        <ele>195</ele>
        <time>2017-12-09T10:26:49Z</time>
      </trkpt>
      <trkpt lat="46.01077" lon="4.70659">
        <ele>195</ele>
        <time>2017-12-09T10:26:50Z</time>
      </trkpt>
      <trkpt lat="46.01082" lon="4.70661">
        <ele>195</ele>
        <time>2017-12-09T10:26:51Z</time>
      </trkpt>
      <trkpt lat="46.01088" lon="4.70664">
        <ele>195</ele>
        <time>2017-12-09T10:26:52Z</time>
      </trkpt>
      <trkpt lat="46.01093" lon="4.70667">
        <ele>195</ele>
        <time>2017-12-09T10:26:53Z</time>
      </trkpt>
      <trkpt lat="46.01098" lon="4.7067">
        <ele>195</ele>
        <time>2017-12-09T10:26:54Z</time>
      </trkpt>
      <trkpt lat="46.01104" lon="4.70672">
        <ele>195</ele>
        <time>2017-12-09T10:26:55Z</time>
      </trkpt>
      <trkpt lat="46.01108" lon="4.70675">
        <ele>195</ele>
        <time>2017-12-09T10:26:56Z</time>
      </trkpt>
      <trkpt lat="46.01113" lon="4.70677">
        <ele>195</ele>
        <time>2017-12-09T10:26:57Z</time>
      </trkpt>
      <trkpt lat="46.01118" lon="4.70679">
        <ele>195</ele>
        <time>2017-12-09T10:26:58Z</time>
      </trkpt>
      <trkpt lat="46.01122" lon="4.70682">
        <ele>195</ele>
        <time>2017-12-09T10:26:59Z</time>
      </trkpt>
      <trkpt lat="46.01127" lon="4.70684">
        <ele>194</ele>
        <time>2017-12-09T10:27:00Z</time>
      </trkpt>
      <trkpt lat="46.01131" lon="4.70686">
        <ele>194</ele>
        <time>2017-12-09T10:27:01Z</time>
      </trkpt>
      <trkpt lat="46.01136" lon="4.70688">
        <ele>194</ele>
        <time>2017-12-09T10:27:02Z</time>
      </trkpt>
      <trkpt lat="46.01142" lon="4.7069">
        <ele>194</ele>
        <time>2017-12-09T10:27:03Z</time>
      </trkpt>
      <trkpt lat="46.01147" lon="4.70693">
        <ele>194</ele>
        <time>2017-12-09T10:27:04Z</time>
      </trkpt>
      <trkpt lat="46.01153" lon="4.70695">
        <ele>194</ele>
        <time>2017-12-09T10:27:05Z</time>
      </trkpt>
      <trkpt lat="46.01158" lon="4.70697">
        <ele>194</ele>
        <time>2017-12-09T10:27:06Z</time>
      </trkpt>
      <trkpt lat="46.01164" lon="4.70699">
        <ele>194</ele>
        <time>2017-12-09T10:27:07Z</time>
      </trkpt>
      <trkpt lat="46.0117" lon="4.70702">
        <ele>194</ele>
        <time>2017-12-09T10:27:08Z</time>
      </trkpt>
      <trkpt lat="46.01177" lon="4.70705">
        <ele>194</ele>
        <time>2017-12-09T10:27:09Z</time>
      </trkpt>
      <trkpt lat="46.01183" lon="4.70708">
        <ele>194</ele>
        <time>2017-12-09T10:27:10Z</time>
      </trkpt>
      <trkpt lat="46.0119" lon="4.70709">
        <ele>194</ele>
        <time>2017-12-09T10:27:11Z</time>
      </trkpt>
      <trkpt lat="46.01195" lon="4.70712">
        <ele>194</ele>
        <time>2017-12-09T10:27:12Z</time>
      </trkpt>
      <trkpt lat="46.01201" lon="4.70714">
        <ele>194</ele>
        <time>2017-12-09T10:27:13Z</time>
      </trkpt>
      <trkpt lat="46.01207" lon="4.70715">
        <ele>194</ele>
        <time>2017-12-09T10:27:14Z</time>
      </trkpt>
      <trkpt lat="46.01213" lon="4.70717">
        <ele>194</ele>
        <time>2017-12-09T10:27:15Z</time>
      </trkpt>
      <trkpt lat="46.01218" lon="4.7072">
        <ele>194</ele>
        <time>2017-12-09T10:27:16Z</time>
      </trkpt>
      <trkpt lat="46.01223" lon="4.70722">
        <ele>194</ele>
        <time>2017-12-09T10:27:17Z</time>
      </trkpt>
      <trkpt lat="46.01228" lon="4.70724">
        <ele>194</ele>
        <time>2017-12-09T10:27:18Z</time>
      </trkpt>
      <trkpt lat="46.01233" lon="4.70726">
        <ele>194</ele>
        <time>2017-12-09T10:27:19Z</time>
      </trkpt>
      <trkpt lat="46.01239" lon="4.70728">
        <ele>193</ele>
        <time>2017-12-09T10:27:20Z</time>
      </trkpt>
      <trkpt lat="46.01244" lon="4.7073">
        <ele>193</ele>
        <time>2017-12-09T10:27:21Z</time>
      </trkpt>
      <trkpt lat="46.0125" lon="4.70732">
        <ele>192</ele>
        <time>2017-12-09T10:27:22Z</time>
      </trkpt>
      <trkpt lat="46.01257" lon="4.70735">
        <ele>192</ele>
        <time>2017-12-09T10:27:23Z</time>
      </trkpt>
      <trkpt lat="46.01263" lon="4.70737">
        <ele>192</ele>
        <time>2017-12-09T10:27:24Z</time>
      </trkpt>
      <trkpt lat="46.01269" lon="4.70739">
        <ele>192</ele>
        <time>2017-12-09T10:27:25Z</time>
      </trkpt>
      <trkpt lat="46.01275" lon="4.70741">
        <ele>192</ele>
        <time>2017-12-09T10:27:26Z</time>
      </trkpt>
      <trkpt lat="46.01282" lon="4.70742">
        <ele>192</ele>
        <time>2017-12-09T10:27:27Z</time>
      </trkpt>
      <trkpt lat="46.01288" lon="4.70745">
        <ele>191</ele>
        <time>2017-12-09T10:27:28Z</time>
      </trkpt>
      <trkpt lat="46.01295" lon="4.70746">
        <ele>191</ele>
        <time>2017-12-09T10:27:29Z</time>
      </trkpt>
      <trkpt lat="46.01302" lon="4.70748">
        <ele>191</ele>
        <time>2017-12-09T10:27:30Z</time>
      </trkpt>
      <trkpt lat="46.01308" lon="4.70748">
        <ele>191</ele>
        <time>2017-12-09T10:27:31Z</time>
      </trkpt>
      <trkpt lat="46.01313" lon="4.70749">
        <ele>190</ele>
        <time>2017-12-09T10:27:32Z</time>
      </trkpt>
      <trkpt lat="46.0132" lon="4.70749">
        <ele>190</ele>
        <time>2017-12-09T10:27:33Z</time>
      </trkpt>
      <trkpt lat="46.01325" lon="4.7075">
        <ele>190</ele>
        <time>2017-12-09T10:27:34Z</time>
      </trkpt>
      <trkpt lat="46.01329" lon="4.70749">
        <ele>189</ele>
        <time>2017-12-09T10:27:35Z</time>
      </trkpt>
      <trkpt lat="46.01334" lon="4.70749">
        <ele>189</ele>
        <time>2017-12-09T10:27:36Z</time>
      </trkpt>
      <trkpt lat="46.01339" lon="4.7075">
        <ele>189</ele>
        <time>2017-12-09T10:27:37Z</time>
      </trkpt>
      <trkpt lat="46.01344" lon="4.7075">
        <ele>189</ele>
        <time>2017-12-09T10:27:38Z</time>
      </trkpt>
      <trkpt lat="46.01349" lon="4.7075">
        <ele>189</ele>
        <time>2017-12-09T10:27:39Z</time>
      </trkpt>
      <trkpt lat="46.01355" lon="4.70751">
        <ele>189</ele>
        <time>2017-12-09T10:27:40Z</time>
      </trkpt>
      <trkpt lat="46.01359" lon="4.70751">
        <ele>189</ele>
        <time>2017-12-09T10:27:41Z</time>
      </trkpt>
      <trkpt lat="46.01365" lon="4.70751">
        <ele>189</ele>
        <time>2017-12-09T10:27:42Z</time>
      </trkpt>
      <trkpt lat="46.0137" lon="4.70751">
        <ele>189</ele>
        <time>2017-12-09T10:27:43Z</time>
      </trkpt>
      <trkpt lat="46.01376" lon="4.70751">
        <ele>189</ele>
        <time>2017-12-09T10:27:44Z</time>
      </trkpt>
      <trkpt lat="46.01382" lon="4.70751">
        <ele>189</ele>
        <time>2017-12-09T10:27:45Z</time>
      </trkpt>
      <trkpt lat="46.01388" lon="4.70749">
        <ele>189</ele>
        <time>2017-12-09T10:27:46Z</time>
      </trkpt>
      <trkpt lat="46.01393" lon="4.70749">
        <ele>189</ele>
        <time>2017-12-09T10:27:47Z</time>
      </trkpt>
      <trkpt lat="46.014" lon="4.70749">
        <ele>189</ele>
        <time>2017-12-09T10:27:48Z</time>
      </trkpt>
      <trkpt lat="46.01406" lon="4.70748">
        <ele>189</ele>
        <time>2017-12-09T10:27:49Z</time>
      </trkpt>
      <trkpt lat="46.01412" lon="4.70746">
        <ele>189</ele>
        <time>2017-12-09T10:27:50Z</time>
      </trkpt>
      <trkpt lat="46.01418" lon="4.70746">
        <ele>189</ele>
        <time>2017-12-09T10:27:51Z</time>
      </trkpt>
      <trkpt lat="46.01427" lon="4.70746">
        <ele>189</ele>
        <time>2017-12-09T10:27:52Z</time>
      </trkpt>
      <trkpt lat="46.01433" lon="4.70746">
        <ele>189</ele>
        <time>2017-12-09T10:27:53Z</time>
      </trkpt>
      <trkpt lat="46.01439" lon="4.70745">
        <ele>189</ele>
        <time>2017-12-09T10:27:54Z</time>
      </trkpt>
      <trkpt lat="46.01445" lon="4.70745">
        <ele>189</ele>
        <time>2017-12-09T10:27:55Z</time>
      </trkpt>
      <trkpt lat="46.0145" lon="4.70745">
        <ele>189</ele>
        <time>2017-12-09T10:27:56Z</time>
      </trkpt>
      <trkpt lat="46.01456" lon="4.70744">
        <ele>189</ele>
        <time>2017-12-09T10:27:57Z</time>
      </trkpt>
      <trkpt lat="46.01462" lon="4.70743">
        <ele>190</ele>
        <time>2017-12-09T10:27:58Z</time>
      </trkpt>
      <trkpt lat="46.01466" lon="4.70743">
        <ele>190</ele>
        <time>2017-12-09T10:27:59Z</time>
      </trkpt>
      <trkpt lat="46.01473" lon="4.70741">
        <ele>190</ele>
        <time>2017-12-09T10:28:00Z</time>
      </trkpt>
      <trkpt lat="46.01478" lon="4.70741">
        <ele>190</ele>
        <time>2017-12-09T10:28:01Z</time>
      </trkpt>
      <trkpt lat="46.01484" lon="4.70741">
        <ele>190</ele>
        <time>2017-12-09T10:28:02Z</time>
      </trkpt>
      <trkpt lat="46.01489" lon="4.7074">
        <ele>190</ele>
        <time>2017-12-09T10:28:03Z</time>
      </trkpt>
      <trkpt lat="46.01495" lon="4.7074">
        <ele>190</ele>
        <time>2017-12-09T10:28:04Z</time>
      </trkpt>
      <trkpt lat="46.01502" lon="4.7074">
        <ele>190</ele>
        <time>2017-12-09T10:28:05Z</time>
      </trkpt>
      <trkpt lat="46.0151" lon="4.70738">
        <ele>190</ele>
        <time>2017-12-09T10:28:06Z</time>
      </trkpt>
      <trkpt lat="46.01516" lon="4.70737">
        <ele>190</ele>
        <time>2017-12-09T10:28:07Z</time>
      </trkpt>
      <trkpt lat="46.01523" lon="4.70736">
        <ele>190</ele>
        <time>2017-12-09T10:28:08Z</time>
      </trkpt>
      <trkpt lat="46.01529" lon="4.70734">
        <ele>190</ele>
        <time>2017-12-09T10:28:09Z</time>
      </trkpt>
      <trkpt lat="46.01535" lon="4.70733">
        <ele>190</ele>
        <time>2017-12-09T10:28:10Z</time>
      </trkpt>
      <trkpt lat="46.01541" lon="4.70733">
        <ele>190</ele>
        <time>2017-12-09T10:28:11Z</time>
      </trkpt>
      <trkpt lat="46.01548" lon="4.70733">
        <ele>190</ele>
        <time>2017-12-09T10:28:12Z</time>
      </trkpt>
      <trkpt lat="46.01553" lon="4.70732">
        <ele>190</ele>
        <time>2017-12-09T10:28:13Z</time>
      </trkpt>
      <trkpt lat="46.01559" lon="4.70731">
        <ele>190</ele>
        <time>2017-12-09T10:28:14Z</time>
      </trkpt>
      <trkpt lat="46.01565" lon="4.7073">
        <ele>190</ele>
        <time>2017-12-09T10:28:15Z</time>
      </trkpt>
      <trkpt lat="46.01569" lon="4.7073">
        <ele>190</ele>
        <time>2017-12-09T10:28:16Z</time>
      </trkpt>
      <trkpt lat="46.01574" lon="4.70729">
        <ele>190</ele>
        <time>2017-12-09T10:28:17Z</time>
      </trkpt>
      <trkpt lat="46.01579" lon="4.70729">
        <ele>190</ele>
        <time>2017-12-09T10:28:18Z</time>
      </trkpt>
      <trkpt lat="46.01584" lon="4.70728">
        <ele>190</ele>
        <time>2017-12-09T10:28:19Z</time>
      </trkpt>
      <trkpt lat="46.01588" lon="4.70728">
        <ele>190</ele>
        <time>2017-12-09T10:28:20Z</time>
      </trkpt>
      <trkpt lat="46.01593" lon="4.70728">
        <ele>190</ele>
        <time>2017-12-09T10:28:21Z</time>
      </trkpt>
      <trkpt lat="46.01598" lon="4.70728">
        <ele>190</ele>
        <time>2017-12-09T10:28:22Z</time>
      </trkpt>
      <trkpt lat="46.01603" lon="4.70727">
        <ele>190</ele>
        <time>2017-12-09T10:28:23Z</time>
      </trkpt>
      <trkpt lat="46.01608" lon="4.70727">
        <ele>190</ele>
        <time>2017-12-09T10:28:24Z</time>
      </trkpt>
      <trkpt lat="46.01614" lon="4.70726">
        <ele>190</ele>
        <time>2017-12-09T10:28:25Z</time>
      </trkpt>
      <trkpt lat="46.01619" lon="4.70725">
        <ele>190</ele>
        <time>2017-12-09T10:28:26Z</time>
      </trkpt>
      <trkpt lat="46.01625" lon="4.70725">
        <ele>190</ele>
        <time>2017-12-09T10:28:27Z</time>
      </trkpt>
      <trkpt lat="46.01631" lon="4.70724">
        <ele>190</ele>
        <time>2017-12-09T10:28:28Z</time>
      </trkpt>
      <trkpt lat="46.01638" lon="4.70724">
        <ele>190</ele>
        <time>2017-12-09T10:28:29Z</time>
      </trkpt>
      <trkpt lat="46.01645" lon="4.70723">
        <ele>190</ele>
        <time>2017-12-09T10:28:30Z</time>
      </trkpt>
      <trkpt lat="46.01651" lon="4.70723">
        <ele>190</ele>
        <time>2017-12-09T10:28:31Z</time>
      </trkpt>
      <trkpt lat="46.01658" lon="4.70722">
        <ele>190</ele>
        <time>2017-12-09T10:28:32Z</time>
      </trkpt>
      <trkpt lat="46.01664" lon="4.70721">
        <ele>190</ele>
        <time>2017-12-09T10:28:33Z</time>
      </trkpt>
      <trkpt lat="46.0167" lon="4.70719">
        <ele>189</ele>
        <time>2017-12-09T10:28:34Z</time>
      </trkpt>
      <trkpt lat="46.01676" lon="4.70718">
        <ele>189</ele>
        <time>2017-12-09T10:28:35Z</time>
      </trkpt>
      <trkpt lat="46.01681" lon="4.70718">
        <ele>189</ele>
        <time>2017-12-09T10:28:36Z</time>
      </trkpt>
      <trkpt lat="46.01686" lon="4.70718">
        <ele>189</ele>
        <time>2017-12-09T10:28:37Z</time>
      </trkpt>
      <trkpt lat="46.01691" lon="4.70718">
        <ele>189</ele>
        <time>2017-12-09T10:28:38Z</time>
      </trkpt>
      <trkpt lat="46.01697" lon="4.70717">
        <ele>189</ele>
        <time>2017-12-09T10:28:39Z</time>
      </trkpt>
      <trkpt lat="46.01702" lon="4.70716">
        <ele>189</ele>
        <time>2017-12-09T10:28:40Z</time>
      </trkpt>
      <trkpt lat="46.01707" lon="4.70715">
        <ele>189</ele>
        <time>2017-12-09T10:28:41Z</time>
      </trkpt>
      <trkpt lat="46.01713" lon="4.70714">
        <ele>188</ele>
        <time>2017-12-09T10:28:42Z</time>
      </trkpt>
      <trkpt lat="46.01717" lon="4.70715">
        <ele>188</ele>
        <time>2017-12-09T10:28:43Z</time>
      </trkpt>
      <trkpt lat="46.01723" lon="4.70715">
        <ele>188</ele>
        <time>2017-12-09T10:28:44Z</time>
      </trkpt>
      <trkpt lat="46.01728" lon="4.70715">
        <ele>188</ele>
        <time>2017-12-09T10:28:45Z</time>
      </trkpt>
      <trkpt lat="46.01734" lon="4.70714">
        <ele>188</ele>
        <time>2017-12-09T10:28:46Z</time>
      </trkpt>
      <trkpt lat="46.0174" lon="4.70712">
        <ele>188</ele>
        <time>2017-12-09T10:28:47Z</time>
      </trkpt>
      <trkpt lat="46.01746" lon="4.70712">
        <ele>188</ele>
        <time>2017-12-09T10:28:48Z</time>
      </trkpt>
      <trkpt lat="46.01752" lon="4.70712">
        <ele>187</ele>
        <time>2017-12-09T10:28:49Z</time>
      </trkpt>
      <trkpt lat="46.01759" lon="4.7071">
        <ele>187</ele>
        <time>2017-12-09T10:28:50Z</time>
      </trkpt>
      <trkpt lat="46.01765" lon="4.7071">
        <ele>187</ele>
        <time>2017-12-09T10:28:51Z</time>
      </trkpt>
      <trkpt lat="46.01772" lon="4.70709">
        <ele>187</ele>
        <time>2017-12-09T10:28:52Z</time>
      </trkpt>
      <trkpt lat="46.01778" lon="4.70707">
        <ele>187</ele>
        <time>2017-12-09T10:28:53Z</time>
      </trkpt>
      <trkpt lat="46.01784" lon="4.70707">
        <ele>187</ele>
        <time>2017-12-09T10:28:54Z</time>
      </trkpt>
      <trkpt lat="46.0179" lon="4.70705">
        <ele>187</ele>
        <time>2017-12-09T10:28:55Z</time>
      </trkpt>
      <trkpt lat="46.01795" lon="4.70705">
        <ele>187</ele>
        <time>2017-12-09T10:28:56Z</time>
      </trkpt>
      <trkpt lat="46.01801" lon="4.70704">
        <ele>187</ele>
        <time>2017-12-09T10:28:57Z</time>
      </trkpt>
      <trkpt lat="46.01807" lon="4.70703">
        <ele>187</ele>
        <time>2017-12-09T10:28:58Z</time>
      </trkpt>
      <trkpt lat="46.01813" lon="4.70702">
        <ele>187</ele>
        <time>2017-12-09T10:28:59Z</time>
      </trkpt>
      <trkpt lat="46.01817" lon="4.70701">
        <ele>187</ele>
        <time>2017-12-09T10:29:00Z</time>
      </trkpt>
      <trkpt lat="46.01822" lon="4.707">
        <ele>187</ele>
        <time>2017-12-09T10:29:01Z</time>
      </trkpt>
      <trkpt lat="46.01828" lon="4.707">
        <ele>187</ele>
        <time>2017-12-09T10:29:02Z</time>
      </trkpt>
      <trkpt lat="46.01836" lon="4.707">
        <ele>185</ele>
        <time>2017-12-09T10:29:03Z</time>
      </trkpt>
      <trkpt lat="46.01841" lon="4.70699">
        <ele>185</ele>
        <time>2017-12-09T10:29:04Z</time>
      </trkpt>
      <trkpt lat="46.01845" lon="4.70697">
        <ele>185</ele>
        <time>2017-12-09T10:29:05Z</time>
      </trkpt>
      <trkpt lat="46.0185" lon="4.70697">
        <ele>185</ele>
        <time>2017-12-09T10:29:06Z</time>
      </trkpt>
      <trkpt lat="46.01855" lon="4.70697">
        <ele>185</ele>
        <time>2017-12-09T10:29:07Z</time>
      </trkpt>
      <trkpt lat="46.01859" lon="4.70697">
        <ele>185</ele>
        <time>2017-12-09T10:29:08Z</time>
      </trkpt>
      <trkpt lat="46.01865" lon="4.70695">
        <ele>185</ele>
        <time>2017-12-09T10:29:09Z</time>
      </trkpt>
      <trkpt lat="46.01872" lon="4.70696">
        <ele>185</ele>
        <time>2017-12-09T10:29:10Z</time>
      </trkpt>
      <trkpt lat="46.01877" lon="4.70696">
        <ele>185</ele>
        <time>2017-12-09T10:29:11Z</time>
      </trkpt>
      <trkpt lat="46.01883" lon="4.70696">
        <ele>184</ele>
        <time>2017-12-09T10:29:12Z</time>
      </trkpt>
      <trkpt lat="46.01889" lon="4.70696">
        <ele>184</ele>
        <time>2017-12-09T10:29:13Z</time>
      </trkpt>
      <trkpt lat="46.01897" lon="4.70697">
        <ele>184</ele>
        <time>2017-12-09T10:29:14Z</time>
      </trkpt>
      <trkpt lat="46.01904" lon="4.70698">
        <ele>184</ele>
        <time>2017-12-09T10:29:15Z</time>
      </trkpt>
      <trkpt lat="46.0191" lon="4.70699">
        <ele>184</ele>
        <time>2017-12-09T10:29:16Z</time>
      </trkpt>
      <trkpt lat="46.01917" lon="4.707">
        <ele>184</ele>
        <time>2017-12-09T10:29:17Z</time>
      </trkpt>
      <trkpt lat="46.01924" lon="4.70701">
        <ele>182</ele>
        <time>2017-12-09T10:29:18Z</time>
      </trkpt>
      <trkpt lat="46.01931" lon="4.70702">
        <ele>182</ele>
        <time>2017-12-09T10:29:19Z</time>
      </trkpt>
      <trkpt lat="46.01937" lon="4.70702">
        <ele>182</ele>
        <time>2017-12-09T10:29:20Z</time>
      </trkpt>
      <trkpt lat="46.01943" lon="4.70703">
        <ele>182</ele>
        <time>2017-12-09T10:29:21Z</time>
      </trkpt>
      <trkpt lat="46.0195" lon="4.70704">
        <ele>181</ele>
        <time>2017-12-09T10:29:22Z</time>
      </trkpt>
      <trkpt lat="46.01955" lon="4.70705">
        <ele>181</ele>
        <time>2017-12-09T10:29:23Z</time>
      </trkpt>
      <trkpt lat="46.01962" lon="4.70706">
        <ele>181</ele>
        <time>2017-12-09T10:29:24Z</time>
      </trkpt>
      <trkpt lat="46.01967" lon="4.70707">
        <ele>181</ele>
        <time>2017-12-09T10:29:25Z</time>
      </trkpt>
      <trkpt lat="46.01973" lon="4.70709">
        <ele>181</ele>
        <time>2017-12-09T10:29:26Z</time>
      </trkpt>
      <trkpt lat="46.01979" lon="4.7071">
        <ele>181</ele>
        <time>2017-12-09T10:29:27Z</time>
      </trkpt>
      <trkpt lat="46.01985" lon="4.70711">
        <ele>181</ele>
        <time>2017-12-09T10:29:28Z</time>
      </trkpt>
      <trkpt lat="46.01992" lon="4.70713">
        <ele>181</ele>
        <time>2017-12-09T10:29:29Z</time>
      </trkpt>
      <trkpt lat="46.01997" lon="4.70714">
        <ele>181</ele>
        <time>2017-12-09T10:29:30Z</time>
      </trkpt>
      <trkpt lat="46.02004" lon="4.70715">
        <ele>179</ele>
        <time>2017-12-09T10:29:31Z</time>
      </trkpt>
      <trkpt lat="46.0201" lon="4.70716">
        <ele>179</ele>
        <time>2017-12-09T10:29:32Z</time>
      </trkpt>
      <trkpt lat="46.02015" lon="4.70718">
        <ele>179</ele>
        <time>2017-12-09T10:29:33Z</time>
      </trkpt>
      <trkpt lat="46.0202" lon="4.70719">
        <ele>179</ele>
        <time>2017-12-09T10:29:34Z</time>
      </trkpt>
      <trkpt lat="46.02025" lon="4.7072">
        <ele>179</ele>
        <time>2017-12-09T10:29:35Z</time>
      </trkpt>
      <trkpt lat="46.0203" lon="4.7072">
        <ele>179</ele>
        <time>2017-12-09T10:29:36Z</time>
      </trkpt>
      <trkpt lat="46.02035" lon="4.70721">
        <ele>179</ele>
        <time>2017-12-09T10:29:37Z</time>
      </trkpt>
      <trkpt lat="46.0204" lon="4.70723">
        <ele>179</ele>
        <time>2017-12-09T10:29:38Z</time>
      </trkpt>
      <trkpt lat="46.02045" lon="4.70724">
        <ele>179</ele>
        <time>2017-12-09T10:29:39Z</time>
      </trkpt>
      <trkpt lat="46.02051" lon="4.70725">
        <ele>179</ele>
        <time>2017-12-09T10:29:40Z</time>
      </trkpt>
      <trkpt lat="46.02057" lon="4.70726">
        <ele>179</ele>
        <time>2017-12-09T10:29:41Z</time>
      </trkpt>
      <trkpt lat="46.02064" lon="4.70726">
        <ele>179</ele>
        <time>2017-12-09T10:29:42Z</time>
      </trkpt>
      <trkpt lat="46.02069" lon="4.70728">
        <ele>178</ele>
        <time>2017-12-09T10:29:43Z</time>
      </trkpt>
      <trkpt lat="46.02076" lon="4.7073">
        <ele>178</ele>
        <time>2017-12-09T10:29:44Z</time>
      </trkpt>
      <trkpt lat="46.02083" lon="4.70732">
        <ele>178</ele>
        <time>2017-12-09T10:29:45Z</time>
      </trkpt>
      <trkpt lat="46.02089" lon="4.70733">
        <ele>178</ele>
        <time>2017-12-09T10:29:46Z</time>
      </trkpt>
      <trkpt lat="46.02095" lon="4.70735">
        <ele>178</ele>
        <time>2017-12-09T10:29:47Z</time>
      </trkpt>
      <trkpt lat="46.02101" lon="4.70736">
        <ele>178</ele>
        <time>2017-12-09T10:29:48Z</time>
      </trkpt>
      <trkpt lat="46.02107" lon="4.70738">
        <ele>178</ele>
        <time>2017-12-09T10:29:49Z</time>
      </trkpt>
      <trkpt lat="46.02113" lon="4.70739">
        <ele>178</ele>
        <time>2017-12-09T10:29:50Z</time>
      </trkpt>
      <trkpt lat="46.02119" lon="4.70738">
        <ele>179</ele>
        <time>2017-12-09T10:29:51Z</time>
      </trkpt>
      <trkpt lat="46.02125" lon="4.70739">
        <ele>179</ele>
        <time>2017-12-09T10:29:52Z</time>
      </trkpt>
      <trkpt lat="46.02131" lon="4.70741">
        <ele>179</ele>
        <time>2017-12-09T10:29:53Z</time>
      </trkpt>
      <trkpt lat="46.02136" lon="4.70742">
        <ele>179</ele>
        <time>2017-12-09T10:29:54Z</time>
      </trkpt>
      <trkpt lat="46.02141" lon="4.70743">
        <ele>179</ele>
        <time>2017-12-09T10:29:55Z</time>
      </trkpt>
      <trkpt lat="46.02146" lon="4.70744">
        <ele>179</ele>
        <time>2017-12-09T10:29:56Z</time>
      </trkpt>
      <trkpt lat="46.02152" lon="4.70744">
        <ele>179</ele>
        <time>2017-12-09T10:29:57Z</time>
      </trkpt>
      <trkpt lat="46.02157" lon="4.70744">
        <ele>179</ele>
        <time>2017-12-09T10:29:58Z</time>
      </trkpt>
      <trkpt lat="46.02161" lon="4.70745">
        <ele>179</ele>
        <time>2017-12-09T10:29:59Z</time>
      </trkpt>
      <trkpt lat="46.02166" lon="4.70746">
        <ele>179</ele>
        <time>2017-12-09T10:30:00Z</time>
      </trkpt>
      <trkpt lat="46.0217" lon="4.70747">
        <ele>179</ele>
        <time>2017-12-09T10:30:01Z</time>
      </trkpt>
      <trkpt lat="46.02176" lon="4.70748">
        <ele>179</ele>
        <time>2017-12-09T10:30:02Z</time>
      </trkpt>
      <trkpt lat="46.02181" lon="4.70749">
        <ele>180</ele>
        <time>2017-12-09T10:30:03Z</time>
      </trkpt>
      <trkpt lat="46.02187" lon="4.7075">
        <ele>180</ele>
        <time>2017-12-09T10:30:04Z</time>
      </trkpt>
      <trkpt lat="46.02193" lon="4.7075">
        <ele>180</ele>
        <time>2017-12-09T10:30:05Z</time>
      </trkpt>
      <trkpt lat="46.02199" lon="4.70752">
        <ele>179</ele>
        <time>2017-12-09T10:30:06Z</time>
      </trkpt>
      <trkpt lat="46.02205" lon="4.70752">
        <ele>179</ele>
        <time>2017-12-09T10:30:07Z</time>
      </trkpt>
      <trkpt lat="46.02211" lon="4.70753">
        <ele>180</ele>
        <time>2017-12-09T10:30:08Z</time>
      </trkpt>
      <trkpt lat="46.02216" lon="4.70754">
        <ele>180</ele>
        <time>2017-12-09T10:30:09Z</time>
      </trkpt>
      <trkpt lat="46.02222" lon="4.70755">
        <ele>180</ele>
        <time>2017-12-09T10:30:10Z</time>
      </trkpt>
      <trkpt lat="46.02228" lon="4.70756">
        <ele>180</ele>
        <time>2017-12-09T10:30:11Z</time>
      </trkpt>
      <trkpt lat="46.02234" lon="4.70757">
        <ele>180</ele>
        <time>2017-12-09T10:30:12Z</time>
      </trkpt>
      <trkpt lat="46.0224" lon="4.70759">
        <ele>180</ele>
        <time>2017-12-09T10:30:13Z</time>
      </trkpt>
      <trkpt lat="46.02247" lon="4.7076">
        <ele>180</ele>
        <time>2017-12-09T10:30:14Z</time>
      </trkpt>
      <trkpt lat="46.02253" lon="4.70762">
        <ele>181</ele>
        <time>2017-12-09T10:30:15Z</time>
      </trkpt>
      <trkpt lat="46.02257" lon="4.70763">
        <ele>181</ele>
        <time>2017-12-09T10:30:16Z</time>
      </trkpt>
      <trkpt lat="46.02262" lon="4.70764">
        <ele>181</ele>
        <time>2017-12-09T10:30:17Z</time>
      </trkpt>
      <trkpt lat="46.02267" lon="4.70765">
        <ele>181</ele>
        <time>2017-12-09T10:30:18Z</time>
      </trkpt>
      <trkpt lat="46.02271" lon="4.70766">
        <ele>181</ele>
        <time>2017-12-09T10:30:19Z</time>
      </trkpt>
      <trkpt lat="46.0228" lon="4.70767">
        <ele>181</ele>
        <time>2017-12-09T10:30:21Z</time>
      </trkpt>
      <trkpt lat="46.02286" lon="4.70768">
        <ele>181</ele>
        <time>2017-12-09T10:30:22Z</time>
      </trkpt>
      <trkpt lat="46.02291" lon="4.70769">
        <ele>181</ele>
        <time>2017-12-09T10:30:23Z</time>
      </trkpt>
      <trkpt lat="46.02296" lon="4.7077">
        <ele>180</ele>
        <time>2017-12-09T10:30:24Z</time>
      </trkpt>
      <trkpt lat="46.023" lon="4.70771">
        <ele>180</ele>
        <time>2017-12-09T10:30:25Z</time>
      </trkpt>
      <trkpt lat="46.02305" lon="4.70772">
        <ele>180</ele>
        <time>2017-12-09T10:30:26Z</time>
      </trkpt>
      <trkpt lat="46.02313" lon="4.70772">
        <ele>180</ele>
        <time>2017-12-09T10:30:28Z</time>
      </trkpt>
      <trkpt lat="46.02318" lon="4.70774">
        <ele>180</ele>
        <time>2017-12-09T10:30:29Z</time>
      </trkpt>
      <trkpt lat="46.02323" lon="4.70774">
        <ele>180</ele>
        <time>2017-12-09T10:30:30Z</time>
      </trkpt>
      <trkpt lat="46.02327" lon="4.70775">
        <ele>180</ele>
        <time>2017-12-09T10:30:31Z</time>
      </trkpt>
      <trkpt lat="46.02331" lon="4.70776">
        <ele>180</ele>
        <time>2017-12-09T10:30:32Z</time>
      </trkpt>
      <trkpt lat="46.02336" lon="4.70776">
        <ele>182</ele>
        <time>2017-12-09T10:30:33Z</time>
      </trkpt>
      <trkpt lat="46.02341" lon="4.70777">
        <ele>182</ele>
        <time>2017-12-09T10:30:34Z</time>
      </trkpt>
      <trkpt lat="46.02345" lon="4.70778">
        <ele>183</ele>
        <time>2017-12-09T10:30:35Z</time>
      </trkpt>
      <trkpt lat="46.0235" lon="4.7078">
        <ele>183</ele>
        <time>2017-12-09T10:30:36Z</time>
      </trkpt>
      <trkpt lat="46.02354" lon="4.70781">
        <ele>183</ele>
        <time>2017-12-09T10:30:37Z</time>
      </trkpt>
      <trkpt lat="46.02363" lon="4.70782">
        <ele>183</ele>
        <time>2017-12-09T10:30:39Z</time>
      </trkpt>
      <trkpt lat="46.02367" lon="4.70783">
        <ele>183</ele>
        <time>2017-12-09T10:30:40Z</time>
      </trkpt>
      <trkpt lat="46.02371" lon="4.70784">
        <ele>184</ele>
        <time>2017-12-09T10:30:41Z</time>
      </trkpt>
      <trkpt lat="46.02376" lon="4.70785">
        <ele>184</ele>
        <time>2017-12-09T10:30:42Z</time>
      </trkpt>
      <trkpt lat="46.0238" lon="4.70786">
        <ele>184</ele>
        <time>2017-12-09T10:30:43Z</time>
      </trkpt>
      <trkpt lat="46.02385" lon="4.70785">
        <ele>184</ele>
        <time>2017-12-09T10:30:44Z</time>
      </trkpt>
      <trkpt lat="46.02393" lon="4.70788">
        <ele>184</ele>
        <time>2017-12-09T10:30:46Z</time>
      </trkpt>
      <trkpt lat="46.02397" lon="4.70788">
        <ele>185</ele>
        <time>2017-12-09T10:30:47Z</time>
      </trkpt>
      <trkpt lat="46.02406" lon="4.70788">
        <ele>185</ele>
        <time>2017-12-09T10:30:49Z</time>
      </trkpt>
      <trkpt lat="46.0241" lon="4.70786">
        <ele>185</ele>
        <time>2017-12-09T10:30:50Z</time>
      </trkpt>
      <trkpt lat="46.02418" lon="4.70785">
        <ele>189</ele>
        <time>2017-12-09T10:30:52Z</time>
      </trkpt>
      <trkpt lat="46.02422" lon="4.70785">
        <ele>189</ele>
        <time>2017-12-09T10:30:53Z</time>
      </trkpt>
      <trkpt lat="46.0243" lon="4.70781">
        <ele>189</ele>
        <time>2017-12-09T10:30:55Z</time>
      </trkpt>
      <trkpt lat="46.02433" lon="4.70777">
        <ele>189</ele>
        <time>2017-12-09T10:30:56Z</time>
      </trkpt>
      <trkpt lat="46.02435" lon="4.70772">
        <ele>189</ele>
        <time>2017-12-09T10:30:57Z</time>
      </trkpt>
      <trkpt lat="46.02438" lon="4.70766">
        <ele>189</ele>
        <time>2017-12-09T10:30:58Z</time>
      </trkpt>
      <trkpt lat="46.02442" lon="4.70755">
        <ele>189</ele>
        <time>2017-12-09T10:31:00Z</time>
      </trkpt>
      <trkpt lat="46.02445" lon="4.70748">
        <ele>190</ele>
        <time>2017-12-09T10:31:01Z</time>
      </trkpt>
      <trkpt lat="46.0245" lon="4.70738">
        <ele>190</ele>
        <time>2017-12-09T10:31:03Z</time>
      </trkpt>
      <trkpt lat="46.02452" lon="4.70733">
        <ele>190</ele>
        <time>2017-12-09T10:31:04Z</time>
      </trkpt>
      <trkpt lat="46.02455" lon="4.70722">
        <ele>190</ele>
        <time>2017-12-09T10:31:06Z</time>
      </trkpt>
      <trkpt lat="46.02457" lon="4.70715">
        <ele>190</ele>
        <time>2017-12-09T10:31:07Z</time>
      </trkpt>
      <trkpt lat="46.0246" lon="4.70704">
        <ele>190</ele>
        <time>2017-12-09T10:31:09Z</time>
      </trkpt>
      <trkpt lat="46.02461" lon="4.70697">
        <ele>190</ele>
        <time>2017-12-09T10:31:10Z</time>
      </trkpt>
      <trkpt lat="46.02463" lon="4.70691">
        <ele>190</ele>
        <time>2017-12-09T10:31:11Z</time>
      </trkpt>
      <trkpt lat="46.02464" lon="4.70684">
        <ele>190</ele>
        <time>2017-12-09T10:31:12Z</time>
      </trkpt>
      <trkpt lat="46.02466" lon="4.70677">
        <ele>190</ele>
        <time>2017-12-09T10:31:13Z</time>
      </trkpt>
      <trkpt lat="46.02467" lon="4.70671">
        <ele>190</ele>
        <time>2017-12-09T10:31:14Z</time>
      </trkpt>
      <trkpt lat="46.02469" lon="4.70664">
        <ele>189</ele>
        <time>2017-12-09T10:31:15Z</time>
      </trkpt>
      <trkpt lat="46.02471" lon="4.70658">
        <ele>189</ele>
        <time>2017-12-09T10:31:16Z</time>
      </trkpt>
      <trkpt lat="46.02472" lon="4.70652">
        <ele>189</ele>
        <time>2017-12-09T10:31:17Z</time>
      </trkpt>
      <trkpt lat="46.02473" lon="4.70645">
        <ele>189</ele>
        <time>2017-12-09T10:31:18Z</time>
      </trkpt>
      <trkpt lat="46.02477" lon="4.70634">
        <ele>188</ele>
        <time>2017-12-09T10:31:20Z</time>
      </trkpt>
      <trkpt lat="46.02478" lon="4.70629">
        <ele>188</ele>
        <time>2017-12-09T10:31:21Z</time>
      </trkpt>
      <trkpt lat="46.02483" lon="4.70622">
        <ele>188</ele>
        <time>2017-12-09T10:31:23Z</time>
      </trkpt>
      <trkpt lat="46.02487" lon="4.70622">
        <ele>188</ele>
        <time>2017-12-09T10:31:24Z</time>
      </trkpt>
      <trkpt lat="46.02496" lon="4.70621">
        <ele>188</ele>
        <time>2017-12-09T10:31:26Z</time>
      </trkpt>
      <trkpt lat="46.025" lon="4.70623">
        <ele>189</ele>
        <time>2017-12-09T10:31:27Z</time>
      </trkpt>
      <trkpt lat="46.02505" lon="4.70624">
        <ele>189</ele>
        <time>2017-12-09T10:31:28Z</time>
      </trkpt>
      <trkpt lat="46.02509" lon="4.70628">
        <ele>189</ele>
        <time>2017-12-09T10:31:29Z</time>
      </trkpt>
      <trkpt lat="46.02517" lon="4.70632">
        <ele>189</ele>
        <time>2017-12-09T10:31:31Z</time>
      </trkpt>
      <trkpt lat="46.02522" lon="4.70633">
        <ele>189</ele>
        <time>2017-12-09T10:31:32Z</time>
      </trkpt>
      <trkpt lat="46.02527" lon="4.70634">
        <ele>189</ele>
        <time>2017-12-09T10:31:33Z</time>
      </trkpt>
      <trkpt lat="46.02534" lon="4.70637">
        <ele>189</ele>
        <time>2017-12-09T10:31:34Z</time>
      </trkpt>
      <trkpt lat="46.02539" lon="4.70638">
        <ele>189</ele>
        <time>2017-12-09T10:31:35Z</time>
      </trkpt>
      <trkpt lat="46.02544" lon="4.70639">
        <ele>189</ele>
        <time>2017-12-09T10:31:36Z</time>
      </trkpt>
      <trkpt lat="46.02553" lon="4.70641">
        <ele>189</ele>
        <time>2017-12-09T10:31:38Z</time>
      </trkpt>
      <trkpt lat="46.02558" lon="4.70642">
        <ele>189</ele>
        <time>2017-12-09T10:31:39Z</time>
      </trkpt>
      <trkpt lat="46.02563" lon="4.70643">
        <ele>189</ele>
        <time>2017-12-09T10:31:40Z</time>
      </trkpt>
      <trkpt lat="46.02568" lon="4.70642">
        <ele>189</ele>
        <time>2017-12-09T10:31:41Z</time>
      </trkpt>
      <trkpt lat="46.02573" lon="4.70643">
        <ele>190</ele>
        <time>2017-12-09T10:31:42Z</time>
      </trkpt>
      <trkpt lat="46.02579" lon="4.70645">
        <ele>190</ele>
        <time>2017-12-09T10:31:43Z</time>
      </trkpt>
      <trkpt lat="46.02583" lon="4.70646">
        <ele>190</ele>
        <time>2017-12-09T10:31:44Z</time>
      </trkpt>
      <trkpt lat="46.02588" lon="4.70648">
        <ele>190</ele>
        <time>2017-12-09T10:31:45Z</time>
      </trkpt>
      <trkpt lat="46.02592" lon="4.70648">
        <ele>190</ele>
        <time>2017-12-09T10:31:46Z</time>
      </trkpt>
      <trkpt lat="46.02597" lon="4.70649">
        <ele>190</ele>
        <time>2017-12-09T10:31:47Z</time>
      </trkpt>
      <trkpt lat="46.02604" lon="4.70652">
        <ele>190</ele>
        <time>2017-12-09T10:31:49Z</time>
      </trkpt>
      <trkpt lat="46.02609" lon="4.70653">
        <ele>190</ele>
        <time>2017-12-09T10:31:50Z</time>
      </trkpt>
      <trkpt lat="46.02615" lon="4.70654">
        <ele>190</ele>
        <time>2017-12-09T10:31:51Z</time>
      </trkpt>
      <trkpt lat="46.02619" lon="4.70654">
        <ele>190</ele>
        <time>2017-12-09T10:31:52Z</time>
      </trkpt>
      <trkpt lat="46.02626" lon="4.70656">
        <ele>190</ele>
        <time>2017-12-09T10:31:53Z</time>
      </trkpt>
      <trkpt lat="46.02631" lon="4.70656">
        <ele>190</ele>
        <time>2017-12-09T10:31:54Z</time>
      </trkpt>
      <trkpt lat="46.02636" lon="4.70658">
        <ele>190</ele>
        <time>2017-12-09T10:31:55Z</time>
      </trkpt>
      <trkpt lat="46.02641" lon="4.70659">
        <ele>190</ele>
        <time>2017-12-09T10:31:56Z</time>
      </trkpt>
      <trkpt lat="46.02649" lon="4.7066">
        <ele>190</ele>
        <time>2017-12-09T10:31:58Z</time>
      </trkpt>
      <trkpt lat="46.02654" lon="4.7066">
        <ele>190</ele>
        <time>2017-12-09T10:31:59Z</time>
      </trkpt>
      <trkpt lat="46.02662" lon="4.70661">
        <ele>190</ele>
        <time>2017-12-09T10:32:01Z</time>
      </trkpt>
      <trkpt lat="46.02667" lon="4.70662">
        <ele>190</ele>
        <time>2017-12-09T10:32:02Z</time>
      </trkpt>
      <trkpt lat="46.02671" lon="4.70663">
        <ele>190</ele>
        <time>2017-12-09T10:32:03Z</time>
      </trkpt>
      <trkpt lat="46.02676" lon="4.70663">
        <ele>190</ele>
        <time>2017-12-09T10:32:04Z</time>
      </trkpt>
      <trkpt lat="46.0268" lon="4.70664">
        <ele>190</ele>
        <time>2017-12-09T10:32:05Z</time>
      </trkpt>
      <trkpt lat="46.02686" lon="4.70665">
        <ele>190</ele>
        <time>2017-12-09T10:32:06Z</time>
      </trkpt>
      <trkpt lat="46.02694" lon="4.70665">
        <ele>189</ele>
        <time>2017-12-09T10:32:08Z</time>
      </trkpt>
      <trkpt lat="46.02698" lon="4.70666">
        <ele>189</ele>
        <time>2017-12-09T10:32:09Z</time>
      </trkpt>
      <trkpt lat="46.02706" lon="4.70665">
        <ele>189</ele>
        <time>2017-12-09T10:32:11Z</time>
      </trkpt>
      <trkpt lat="46.02711" lon="4.70666">
        <ele>189</ele>
        <time>2017-12-09T10:32:12Z</time>
      </trkpt>
      <trkpt lat="46.02719" lon="4.70665">
        <ele>189</ele>
        <time>2017-12-09T10:32:14Z</time>
      </trkpt>
      <trkpt lat="46.02725" lon="4.70666">
        <ele>189</ele>
        <time>2017-12-09T10:32:15Z</time>
      </trkpt>
      <trkpt lat="46.0273" lon="4.70666">
        <ele>189</ele>
        <time>2017-12-09T10:32:16Z</time>
      </trkpt>
      <trkpt lat="46.02736" lon="4.70665">
        <ele>189</ele>
        <time>2017-12-09T10:32:17Z</time>
      </trkpt>
      <trkpt lat="46.02741" lon="4.70666">
        <ele>189</ele>
        <time>2017-12-09T10:32:18Z</time>
      </trkpt>
      <trkpt lat="46.02745" lon="4.70667">
        <ele>189</ele>
        <time>2017-12-09T10:32:19Z</time>
      </trkpt>
      <trkpt lat="46.0275" lon="4.70668">
        <ele>189</ele>
        <time>2017-12-09T10:32:20Z</time>
      </trkpt>
      <trkpt lat="46.02755" lon="4.7067">
        <ele>189</ele>
        <time>2017-12-09T10:32:21Z</time>
      </trkpt>
      <trkpt lat="46.0276" lon="4.70671">
        <ele>189</ele>
        <time>2017-12-09T10:32:22Z</time>
      </trkpt>
      <trkpt lat="46.02765" lon="4.70672">
        <ele>189</ele>
        <time>2017-12-09T10:32:23Z</time>
      </trkpt>
      <trkpt lat="46.0277" lon="4.70673">
        <ele>189</ele>
        <time>2017-12-09T10:32:24Z</time>
      </trkpt>
      <trkpt lat="46.02775" lon="4.70673">
        <ele>189</ele>
        <time>2017-12-09T10:32:25Z</time>
      </trkpt>
      <trkpt lat="46.02779" lon="4.70674">
        <ele>189</ele>
        <time>2017-12-09T10:32:26Z</time>
      </trkpt>
      <trkpt lat="46.02784" lon="4.70674">
        <ele>189</ele>
        <time>2017-12-09T10:32:27Z</time>
      </trkpt>
      <trkpt lat="46.02793" lon="4.70675">
        <ele>189</ele>
        <time>2017-12-09T10:32:29Z</time>
      </trkpt>
      <trkpt lat="46.02797" lon="4.70675">
        <ele>189</ele>
        <time>2017-12-09T10:32:30Z</time>
      </trkpt>
      <trkpt lat="46.02803" lon="4.70673">
        <ele>189</ele>
        <time>2017-12-09T10:32:31Z</time>
      </trkpt>
      <trkpt lat="46.02808" lon="4.70672">
        <ele>189</ele>
        <time>2017-12-09T10:32:32Z</time>
      </trkpt>
      <trkpt lat="46.02813" lon="4.70672">
        <ele>189</ele>
        <time>2017-12-09T10:32:33Z</time>
      </trkpt>
      <trkpt lat="46.02818" lon="4.70671">
        <ele>189</ele>
        <time>2017-12-09T10:32:34Z</time>
      </trkpt>
      <trkpt lat="46.02824" lon="4.70671">
        <ele>189</ele>
        <time>2017-12-09T10:32:35Z</time>
      </trkpt>
      <trkpt lat="46.02829" lon="4.7067">
        <ele>189</ele>
        <time>2017-12-09T10:32:36Z</time>
      </trkpt>
      <trkpt lat="46.02834" lon="4.70669">
        <ele>189</ele>
        <time>2017-12-09T10:32:37Z</time>
      </trkpt>
      <trkpt lat="46.0284" lon="4.70668">
        <ele>189</ele>
        <time>2017-12-09T10:32:38Z</time>
      </trkpt>
      <trkpt lat="46.02846" lon="4.70667">
        <ele>189</ele>
        <time>2017-12-09T10:32:39Z</time>
      </trkpt>
      <trkpt lat="46.0285" lon="4.70666">
        <ele>190</ele>
        <time>2017-12-09T10:32:40Z</time>
      </trkpt>
      <trkpt lat="46.02855" lon="4.70665">
        <ele>190</ele>
        <time>2017-12-09T10:32:41Z</time>
      </trkpt>
      <trkpt lat="46.0286" lon="4.70663">
        <ele>190</ele>
        <time>2017-12-09T10:32:42Z</time>
      </trkpt>
      <trkpt lat="46.02865" lon="4.70663">
        <ele>190</ele>
        <time>2017-12-09T10:32:43Z</time>
      </trkpt>
      <trkpt lat="46.0287" lon="4.70663">
        <ele>190</ele>
        <time>2017-12-09T10:32:44Z</time>
      </trkpt>
      <trkpt lat="46.02875" lon="4.70663">
        <ele>190</ele>
        <time>2017-12-09T10:32:45Z</time>
      </trkpt>
      <trkpt lat="46.02879" lon="4.70663">
        <ele>190</ele>
        <time>2017-12-09T10:32:46Z</time>
      </trkpt>
      <trkpt lat="46.02884" lon="4.70664">
        <ele>190</ele>
        <time>2017-12-09T10:32:47Z</time>
      </trkpt>
      <trkpt lat="46.02889" lon="4.70665">
        <ele>190</ele>
        <time>2017-12-09T10:32:48Z</time>
      </trkpt>
      <trkpt lat="46.02895" lon="4.70666">
        <ele>190</ele>
        <time>2017-12-09T10:32:49Z</time>
      </trkpt>
      <trkpt lat="46.029" lon="4.70666">
        <ele>191</ele>
        <time>2017-12-09T10:32:50Z</time>
      </trkpt>
      <trkpt lat="46.02905" lon="4.70666">
        <ele>191</ele>
        <time>2017-12-09T10:32:51Z</time>
      </trkpt>
      <trkpt lat="46.0291" lon="4.70666">
        <ele>191</ele>
        <time>2017-12-09T10:32:52Z</time>
      </trkpt>
      <trkpt lat="46.02915" lon="4.70665">
        <ele>191</ele>
        <time>2017-12-09T10:32:53Z</time>
      </trkpt>
      <trkpt lat="46.02919" lon="4.70663">
        <ele>191</ele>
        <time>2017-12-09T10:32:54Z</time>
      </trkpt>
      <trkpt lat="46.02923" lon="4.70659">
        <ele>191</ele>
        <time>2017-12-09T10:32:55Z</time>
      </trkpt>
      <trkpt lat="46.02926" lon="4.70654">
        <ele>191</ele>
        <time>2017-12-09T10:32:56Z</time>
      </trkpt>
      <trkpt lat="46.02927" lon="4.70647">
        <ele>192</ele>
        <time>2017-12-09T10:32:57Z</time>
      </trkpt>
      <trkpt lat="46.0293" lon="4.70641">
        <ele>192</ele>
        <time>2017-12-09T10:32:58Z</time>
      </trkpt>
      <trkpt lat="46.02931" lon="4.70635">
        <ele>192</ele>
        <time>2017-12-09T10:32:59Z</time>
      </trkpt>
      <trkpt lat="46.02932" lon="4.70629">
        <ele>192</ele>
        <time>2017-12-09T10:33:00Z</time>
      </trkpt>
      <trkpt lat="46.02935" lon="4.70622">
        <ele>192</ele>
        <time>2017-12-09T10:33:01Z</time>
      </trkpt>
      <trkpt lat="46.02936" lon="4.70615">
        <ele>192</ele>
        <time>2017-12-09T10:33:02Z</time>
      </trkpt>
      <trkpt lat="46.02938" lon="4.70608">
        <ele>192</ele>
        <time>2017-12-09T10:33:03Z</time>
      </trkpt>
      <trkpt lat="46.0294" lon="4.70601">
        <ele>192</ele>
        <time>2017-12-09T10:33:04Z</time>
      </trkpt>
      <trkpt lat="46.02942" lon="4.70594">
        <ele>192</ele>
        <time>2017-12-09T10:33:05Z</time>
      </trkpt>
      <trkpt lat="46.02944" lon="4.70588">
        <ele>192</ele>
        <time>2017-12-09T10:33:06Z</time>
      </trkpt>
      <trkpt lat="46.02948" lon="4.70577">
        <ele>191</ele>
        <time>2017-12-09T10:33:08Z</time>
      </trkpt>
      <trkpt lat="46.0295" lon="4.70572">
        <ele>191</ele>
        <time>2017-12-09T10:33:09Z</time>
      </trkpt>
      <trkpt lat="46.02955" lon="4.70562">
        <ele>191</ele>
        <time>2017-12-09T10:33:11Z</time>
      </trkpt>
      <trkpt lat="46.02958" lon="4.70557">
        <ele>191</ele>
        <time>2017-12-09T10:33:12Z</time>
      </trkpt>
      <trkpt lat="46.02961" lon="4.70553">
        <ele>191</ele>
        <time>2017-12-09T10:33:13Z</time>
      </trkpt>
      <trkpt lat="46.02964" lon="4.70548">
        <ele>191</ele>
        <time>2017-12-09T10:33:14Z</time>
      </trkpt>
      <trkpt lat="46.02972" lon="4.70541">
        <ele>191</ele>
        <time>2017-12-09T10:33:16Z</time>
      </trkpt>
      <trkpt lat="46.02976" lon="4.70538">
        <ele>191</ele>
        <time>2017-12-09T10:33:17Z</time>
      </trkpt>
      <trkpt lat="46.0298" lon="4.70534">
        <ele>191</ele>
        <time>2017-12-09T10:33:18Z</time>
      </trkpt>
      <trkpt lat="46.02985" lon="4.7053">
        <ele>191</ele>
        <time>2017-12-09T10:33:19Z</time>
      </trkpt>
      <trkpt lat="46.02989" lon="4.70527">
        <ele>191</ele>
        <time>2017-12-09T10:33:20Z</time>
      </trkpt>
      <trkpt lat="46.02993" lon="4.70523">
        <ele>191</ele>
        <time>2017-12-09T10:33:21Z</time>
      </trkpt>
      <trkpt lat="46.02997" lon="4.70518">
        <ele>191</ele>
        <time>2017-12-09T10:33:22Z</time>
      </trkpt>
      <trkpt lat="46.03001" lon="4.70514">
        <ele>191</ele>
        <time>2017-12-09T10:33:23Z</time>
      </trkpt>
      <trkpt lat="46.03008" lon="4.70507">
        <ele>191</ele>
        <time>2017-12-09T10:33:25Z</time>
      </trkpt>
      <trkpt lat="46.03011" lon="4.70503">
        <ele>191</ele>
        <time>2017-12-09T10:33:26Z</time>
      </trkpt>
      <trkpt lat="46.03018" lon="4.70496">
        <ele>191</ele>
        <time>2017-12-09T10:33:28Z</time>
      </trkpt>
      <trkpt lat="46.03022" lon="4.70492">
        <ele>191</ele>
        <time>2017-12-09T10:33:29Z</time>
      </trkpt>
      <trkpt lat="46.03025" lon="4.70488">
        <ele>191</ele>
        <time>2017-12-09T10:33:30Z</time>
      </trkpt>
      <trkpt lat="46.03029" lon="4.70484">
        <ele>191</ele>
        <time>2017-12-09T10:33:31Z</time>
      </trkpt>
      <trkpt lat="46.03033" lon="4.70481">
        <ele>191</ele>
        <time>2017-12-09T10:33:32Z</time>
      </trkpt>
      <trkpt lat="46.03037" lon="4.70477">
        <ele>191</ele>
        <time>2017-12-09T10:33:33Z</time>
      </trkpt>
      <trkpt lat="46.03041" lon="4.70473">
        <ele>191</ele>
        <time>2017-12-09T10:33:34Z</time>
      </trkpt>
      <trkpt lat="46.03045" lon="4.70469">
        <ele>191</ele>
        <time>2017-12-09T10:33:35Z</time>
      </trkpt>
      <trkpt lat="46.03049" lon="4.70465">
        <ele>191</ele>
        <time>2017-12-09T10:33:36Z</time>
      </trkpt>
      <trkpt lat="46.03054" lon="4.70462">
        <ele>191</ele>
        <time>2017-12-09T10:33:37Z</time>
      </trkpt>
      <trkpt lat="46.03059" lon="4.70458">
        <ele>191</ele>
        <time>2017-12-09T10:33:38Z</time>
      </trkpt>
      <trkpt lat="46.03063" lon="4.70454">
        <ele>191</ele>
        <time>2017-12-09T10:33:39Z</time>
      </trkpt>
      <trkpt lat="46.03071" lon="4.7045">
        <ele>191</ele>
        <time>2017-12-09T10:33:41Z</time>
      </trkpt>
      <trkpt lat="46.03075" lon="4.70448">
        <ele>191</ele>
        <time>2017-12-09T10:33:42Z</time>
      </trkpt>
      <trkpt lat="46.03079" lon="4.70445">
        <ele>191</ele>
        <time>2017-12-09T10:33:43Z</time>
      </trkpt>
      <trkpt lat="46.03083" lon="4.70441">
        <ele>192</ele>
        <time>2017-12-09T10:33:44Z</time>
      </trkpt>
      <trkpt lat="46.03089" lon="4.7044">
        <ele>192</ele>
        <time>2017-12-09T10:33:45Z</time>
      </trkpt>
      <trkpt lat="46.03094" lon="4.70437">
        <ele>192</ele>
        <time>2017-12-09T10:33:46Z</time>
      </trkpt>
      <trkpt lat="46.03099" lon="4.70435">
        <ele>192</ele>
        <time>2017-12-09T10:33:47Z</time>
      </trkpt>
      <trkpt lat="46.03105" lon="4.70432">
        <ele>192</ele>
        <time>2017-12-09T10:33:48Z</time>
      </trkpt>
      <trkpt lat="46.03111" lon="4.70429">
        <ele>192</ele>
        <time>2017-12-09T10:33:49Z</time>
      </trkpt>
      <trkpt lat="46.03115" lon="4.70428">
        <ele>192</ele>
        <time>2017-12-09T10:33:50Z</time>
      </trkpt>
      <trkpt lat="46.0312" lon="4.70426">
        <ele>192</ele>
        <time>2017-12-09T10:33:51Z</time>
      </trkpt>
      <trkpt lat="46.03125" lon="4.70424">
        <ele>192</ele>
        <time>2017-12-09T10:33:52Z</time>
      </trkpt>
      <trkpt lat="46.0313" lon="4.70422">
        <ele>192</ele>
        <time>2017-12-09T10:33:53Z</time>
      </trkpt>
      <trkpt lat="46.03136" lon="4.70419">
        <ele>192</ele>
        <time>2017-12-09T10:33:54Z</time>
      </trkpt>
      <trkpt lat="46.03141" lon="4.70416">
        <ele>192</ele>
        <time>2017-12-09T10:33:55Z</time>
      </trkpt>
      <trkpt lat="46.03147" lon="4.70414">
        <ele>192</ele>
        <time>2017-12-09T10:33:56Z</time>
      </trkpt>
      <trkpt lat="46.03152" lon="4.70411">
        <ele>192</ele>
        <time>2017-12-09T10:33:57Z</time>
      </trkpt>
      <trkpt lat="46.03159" lon="4.70409">
        <ele>192</ele>
        <time>2017-12-09T10:33:58Z</time>
      </trkpt>
      <trkpt lat="46.03164" lon="4.70406">
        <ele>192</ele>
        <time>2017-12-09T10:33:59Z</time>
      </trkpt>
      <trkpt lat="46.03169" lon="4.70404">
        <ele>192</ele>
        <time>2017-12-09T10:34:00Z</time>
      </trkpt>
      <trkpt lat="46.03176" lon="4.70402">
        <ele>192</ele>
        <time>2017-12-09T10:34:01Z</time>
      </trkpt>
      <trkpt lat="46.0318" lon="4.70399">
        <ele>192</ele>
        <time>2017-12-09T10:34:02Z</time>
      </trkpt>
      <trkpt lat="46.03185" lon="4.70397">
        <ele>192</ele>
        <time>2017-12-09T10:34:03Z</time>
      </trkpt>
      <trkpt lat="46.03189" lon="4.70394">
        <ele>192</ele>
        <time>2017-12-09T10:34:04Z</time>
      </trkpt>
      <trkpt lat="46.03197" lon="4.70389">
        <ele>192</ele>
        <time>2017-12-09T10:34:06Z</time>
      </trkpt>
      <trkpt lat="46.03201" lon="4.70387">
        <ele>192</ele>
        <time>2017-12-09T10:34:07Z</time>
      </trkpt>
      <trkpt lat="46.03209" lon="4.70384">
        <ele>192</ele>
        <time>2017-12-09T10:34:09Z</time>
      </trkpt>
      <trkpt lat="46.03214" lon="4.70382">
        <ele>192</ele>
        <time>2017-12-09T10:34:10Z</time>
      </trkpt>
      <trkpt lat="46.03219" lon="4.70379">
        <ele>192</ele>
        <time>2017-12-09T10:34:11Z</time>
      </trkpt>
      <trkpt lat="46.03225" lon="4.70376">
        <ele>192</ele>
        <time>2017-12-09T10:34:12Z</time>
      </trkpt>
      <trkpt lat="46.0323" lon="4.70374">
        <ele>192</ele>
        <time>2017-12-09T10:34:13Z</time>
      </trkpt>
      <trkpt lat="46.03236" lon="4.70372">
        <ele>192</ele>
        <time>2017-12-09T10:34:14Z</time>
      </trkpt>
      <trkpt lat="46.0324" lon="4.70369">
        <ele>192</ele>
        <time>2017-12-09T10:34:15Z</time>
      </trkpt>
      <trkpt lat="46.03245" lon="4.70366">
        <ele>192</ele>
        <time>2017-12-09T10:34:16Z</time>
      </trkpt>
      <trkpt lat="46.0325" lon="4.70364">
        <ele>192</ele>
        <time>2017-12-09T10:34:17Z</time>
      </trkpt>
      <trkpt lat="46.03255" lon="4.70362">
        <ele>191</ele>
        <time>2017-12-09T10:34:18Z</time>
      </trkpt>
      <trkpt lat="46.03259" lon="4.70359">
        <ele>191</ele>
        <time>2017-12-09T10:34:19Z</time>
      </trkpt>
      <trkpt lat="46.03265" lon="4.70357">
        <ele>191</ele>
        <time>2017-12-09T10:34:20Z</time>
      </trkpt>
      <trkpt lat="46.03269" lon="4.70355">
        <ele>191</ele>
        <time>2017-12-09T10:34:21Z</time>
      </trkpt>
      <trkpt lat="46.03274" lon="4.70353">
        <ele>191</ele>
        <time>2017-12-09T10:34:22Z</time>
      </trkpt>
      <trkpt lat="46.0328" lon="4.70351">
        <ele>191</ele>
        <time>2017-12-09T10:34:23Z</time>
      </trkpt>
      <trkpt lat="46.03285" lon="4.70349">
        <ele>191</ele>
        <time>2017-12-09T10:34:24Z</time>
      </trkpt>
      <trkpt lat="46.03291" lon="4.70346">
        <ele>191</ele>
        <time>2017-12-09T10:34:25Z</time>
      </trkpt>
      <trkpt lat="46.03297" lon="4.70344">
        <ele>191</ele>
        <time>2017-12-09T10:34:26Z</time>
      </trkpt>
      <trkpt lat="46.03305" lon="4.70341">
        <ele>191</ele>
        <time>2017-12-09T10:34:27Z</time>
      </trkpt>
      <trkpt lat="46.03311" lon="4.70339">
        <ele>191</ele>
        <time>2017-12-09T10:34:28Z</time>
      </trkpt>
      <trkpt lat="46.03317" lon="4.70336">
        <ele>191</ele>
        <time>2017-12-09T10:34:29Z</time>
      </trkpt>
      <trkpt lat="46.03323" lon="4.70334">
        <ele>191</ele>
        <time>2017-12-09T10:34:30Z</time>
      </trkpt>
      <trkpt lat="46.03329" lon="4.70332">
        <ele>191</ele>
        <time>2017-12-09T10:34:31Z</time>
      </trkpt>
      <trkpt lat="46.03335" lon="4.70331">
        <ele>191</ele>
        <time>2017-12-09T10:34:32Z</time>
      </trkpt>
      <trkpt lat="46.03341" lon="4.7033">
        <ele>191</ele>
        <time>2017-12-09T10:34:33Z</time>
      </trkpt>
      <trkpt lat="46.03347" lon="4.70328">
        <ele>191</ele>
        <time>2017-12-09T10:34:34Z</time>
      </trkpt>
      <trkpt lat="46.03354" lon="4.70325">
        <ele>191</ele>
        <time>2017-12-09T10:34:35Z</time>
      </trkpt>
      <trkpt lat="46.0336" lon="4.70322">
        <ele>191</ele>
        <time>2017-12-09T10:34:36Z</time>
      </trkpt>
      <trkpt lat="46.03367" lon="4.70319">
        <ele>191</ele>
        <time>2017-12-09T10:34:37Z</time>
      </trkpt>
      <trkpt lat="46.03373" lon="4.70317">
        <ele>191</ele>
        <time>2017-12-09T10:34:38Z</time>
      </trkpt>
      <trkpt lat="46.03379" lon="4.70315">
        <ele>191</ele>
        <time>2017-12-09T10:34:39Z</time>
      </trkpt>
      <trkpt lat="46.03386" lon="4.70312">
        <ele>191</ele>
        <time>2017-12-09T10:34:40Z</time>
      </trkpt>
      <trkpt lat="46.03393" lon="4.7031">
        <ele>190</ele>
        <time>2017-12-09T10:34:41Z</time>
      </trkpt>
      <trkpt lat="46.03399" lon="4.70308">
        <ele>190</ele>
        <time>2017-12-09T10:34:42Z</time>
      </trkpt>
      <trkpt lat="46.03405" lon="4.70305">
        <ele>190</ele>
        <time>2017-12-09T10:34:43Z</time>
      </trkpt>
      <trkpt lat="46.03411" lon="4.70303">
        <ele>190</ele>
        <time>2017-12-09T10:34:44Z</time>
      </trkpt>
      <trkpt lat="46.03417" lon="4.703">
        <ele>188</ele>
        <time>2017-12-09T10:34:45Z</time>
      </trkpt>
      <trkpt lat="46.03423" lon="4.70298">
        <ele>188</ele>
        <time>2017-12-09T10:34:46Z</time>
      </trkpt>
      <trkpt lat="46.03429" lon="4.70295">
        <ele>188</ele>
        <time>2017-12-09T10:34:47Z</time>
      </trkpt>
      <trkpt lat="46.03435" lon="4.70293">
        <ele>188</ele>
        <time>2017-12-09T10:34:48Z</time>
      </trkpt>
      <trkpt lat="46.03441" lon="4.70291">
        <ele>188</ele>
        <time>2017-12-09T10:34:49Z</time>
      </trkpt>
      <trkpt lat="46.03447" lon="4.70289">
        <ele>188</ele>
        <time>2017-12-09T10:34:50Z</time>
      </trkpt>
      <trkpt lat="46.03453" lon="4.70287">
        <ele>188</ele>
        <time>2017-12-09T10:34:51Z</time>
      </trkpt>
      <trkpt lat="46.03459" lon="4.70285">
        <ele>188</ele>
        <time>2017-12-09T10:34:52Z</time>
      </trkpt>
      <trkpt lat="46.03465" lon="4.70283">
        <ele>188</ele>
        <time>2017-12-09T10:34:53Z</time>
      </trkpt>
      <trkpt lat="46.0347" lon="4.7028">
        <ele>188</ele>
        <time>2017-12-09T10:34:54Z</time>
      </trkpt>
      <trkpt lat="46.03475" lon="4.70277">
        <ele>188</ele>
        <time>2017-12-09T10:34:55Z</time>
      </trkpt>
      <trkpt lat="46.03481" lon="4.70274">
        <ele>188</ele>
        <time>2017-12-09T10:34:56Z</time>
      </trkpt>
      <trkpt lat="46.03486" lon="4.70273">
        <ele>188</ele>
        <time>2017-12-09T10:34:57Z</time>
      </trkpt>
      <trkpt lat="46.03491" lon="4.70271">
        <ele>188</ele>
        <time>2017-12-09T10:34:58Z</time>
      </trkpt>
      <trkpt lat="46.03495" lon="4.70269">
        <ele>187</ele>
        <time>2017-12-09T10:34:59Z</time>
      </trkpt>
      <trkpt lat="46.03499" lon="4.70264">
        <ele>187</ele>
        <time>2017-12-09T10:35:00Z</time>
      </trkpt>
      <trkpt lat="46.03507" lon="4.70264">
        <ele>187</ele>
        <time>2017-12-09T10:35:02Z</time>
      </trkpt>
      <trkpt lat="46.03511" lon="4.70262">
        <ele>187</ele>
        <time>2017-12-09T10:35:03Z</time>
      </trkpt>
      <trkpt lat="46.03516" lon="4.70261">
        <ele>187</ele>
        <time>2017-12-09T10:35:04Z</time>
      </trkpt>
      <trkpt lat="46.03521" lon="4.70258">
        <ele>187</ele>
        <time>2017-12-09T10:35:05Z</time>
      </trkpt>
      <trkpt lat="46.0353" lon="4.70255">
        <ele>187</ele>
        <time>2017-12-09T10:35:07Z</time>
      </trkpt>
      <trkpt lat="46.03533" lon="4.70254">
        <ele>188</ele>
        <time>2017-12-09T10:35:08Z</time>
      </trkpt>
      <trkpt lat="46.03538" lon="4.70252">
        <ele>188</ele>
        <time>2017-12-09T10:35:09Z</time>
      </trkpt>
      <trkpt lat="46.03544" lon="4.7025">
        <ele>189</ele>
        <time>2017-12-09T10:35:10Z</time>
      </trkpt>
      <trkpt lat="46.03548" lon="4.70248">
        <ele>189</ele>
        <time>2017-12-09T10:35:11Z</time>
      </trkpt>
      <trkpt lat="46.03553" lon="4.70247">
        <ele>190</ele>
        <time>2017-12-09T10:35:12Z</time>
      </trkpt>
      <trkpt lat="46.03558" lon="4.70244">
        <ele>190</ele>
        <time>2017-12-09T10:35:13Z</time>
      </trkpt>
      <trkpt lat="46.03563" lon="4.70242">
        <ele>190</ele>
        <time>2017-12-09T10:35:14Z</time>
      </trkpt>
      <trkpt lat="46.03567" lon="4.70241">
        <ele>190</ele>
        <time>2017-12-09T10:35:15Z</time>
      </trkpt>
      <trkpt lat="46.03572" lon="4.70239">
        <ele>190</ele>
        <time>2017-12-09T10:35:16Z</time>
      </trkpt>
      <trkpt lat="46.03578" lon="4.70235">
        <ele>190</ele>
        <time>2017-12-09T10:35:18Z</time>
      </trkpt>
      <trkpt lat="46.03586" lon="4.70232">
        <ele>190</ele>
        <time>2017-12-09T10:35:19Z</time>
      </trkpt>
      <trkpt lat="46.03595" lon="4.7023">
        <ele>190</ele>
        <time>2017-12-09T10:35:21Z</time>
      </trkpt>
      <trkpt lat="46.03599" lon="4.70228">
        <ele>190</ele>
        <time>2017-12-09T10:35:22Z</time>
      </trkpt>
      <trkpt lat="46.03603" lon="4.70226">
        <ele>190</ele>
        <time>2017-12-09T10:35:23Z</time>
      </trkpt>
      <trkpt lat="46.0361" lon="4.70223">
        <ele>190</ele>
        <time>2017-12-09T10:35:24Z</time>
      </trkpt>
      <trkpt lat="46.03617" lon="4.70219">
        <ele>190</ele>
        <time>2017-12-09T10:35:26Z</time>
      </trkpt>
      <trkpt lat="46.03621" lon="4.70218">
        <ele>190</ele>
        <time>2017-12-09T10:35:27Z</time>
      </trkpt>
      <trkpt lat="46.03626" lon="4.70216">
        <ele>190</ele>
        <time>2017-12-09T10:35:28Z</time>
      </trkpt>
      <trkpt lat="46.03631" lon="4.70214">
        <ele>190</ele>
        <time>2017-12-09T10:35:29Z</time>
      </trkpt>
      <trkpt lat="46.03636" lon="4.70212">
        <ele>190</ele>
        <time>2017-12-09T10:35:30Z</time>
      </trkpt>
      <trkpt lat="46.03642" lon="4.70209">
        <ele>190</ele>
        <time>2017-12-09T10:35:31Z</time>
      </trkpt>
      <trkpt lat="46.03647" lon="4.70208">
        <ele>190</ele>
        <time>2017-12-09T10:35:32Z</time>
      </trkpt>
      <trkpt lat="46.03653" lon="4.70205">
        <ele>190</ele>
        <time>2017-12-09T10:35:33Z</time>
      </trkpt>
      <trkpt lat="46.03658" lon="4.70203">
        <ele>190</ele>
        <time>2017-12-09T10:35:34Z</time>
      </trkpt>
      <trkpt lat="46.03664" lon="4.70201">
        <ele>191</ele>
        <time>2017-12-09T10:35:35Z</time>
      </trkpt>
      <trkpt lat="46.0367" lon="4.702">
        <ele>189</ele>
        <time>2017-12-09T10:35:36Z</time>
      </trkpt>
      <trkpt lat="46.03676" lon="4.70199">
        <ele>189</ele>
        <time>2017-12-09T10:35:37Z</time>
      </trkpt>
      <trkpt lat="46.03682" lon="4.70197">
        <ele>189</ele>
        <time>2017-12-09T10:35:38Z</time>
      </trkpt>
      <trkpt lat="46.03688" lon="4.70195">
        <ele>189</ele>
        <time>2017-12-09T10:35:39Z</time>
      </trkpt>
      <trkpt lat="46.03693" lon="4.70193">
        <ele>189</ele>
        <time>2017-12-09T10:35:40Z</time>
      </trkpt>
      <trkpt lat="46.03699" lon="4.70192">
        <ele>189</ele>
        <time>2017-12-09T10:35:41Z</time>
      </trkpt>
      <trkpt lat="46.03705" lon="4.70188">
        <ele>189</ele>
        <time>2017-12-09T10:35:42Z</time>
      </trkpt>
      <trkpt lat="46.03711" lon="4.70185">
        <ele>188</ele>
        <time>2017-12-09T10:35:43Z</time>
      </trkpt>
      <trkpt lat="46.03716" lon="4.70183">
        <ele>188</ele>
        <time>2017-12-09T10:35:44Z</time>
      </trkpt>
      <trkpt lat="46.03721" lon="4.70181">
        <ele>188</ele>
        <time>2017-12-09T10:35:45Z</time>
      </trkpt>
      <trkpt lat="46.03726" lon="4.7018">
        <ele>188</ele>
        <time>2017-12-09T10:35:46Z</time>
      </trkpt>
      <trkpt lat="46.03732" lon="4.70178">
        <ele>188</ele>
        <time>2017-12-09T10:35:47Z</time>
      </trkpt>
      <trkpt lat="46.03737" lon="4.70176">
        <ele>188</ele>
        <time>2017-12-09T10:35:48Z</time>
      </trkpt>
      <trkpt lat="46.03741" lon="4.70175">
        <ele>187</ele>
        <time>2017-12-09T10:35:49Z</time>
      </trkpt>
      <trkpt lat="46.03749" lon="4.70171">
        <ele>187</ele>
        <time>2017-12-09T10:35:51Z</time>
      </trkpt>
      <trkpt lat="46.03753" lon="4.70169">
        <ele>187</ele>
        <time>2017-12-09T10:35:52Z</time>
      </trkpt>
      <trkpt lat="46.03758" lon="4.70165">
        <ele>188</ele>
        <time>2017-12-09T10:35:54Z</time>
      </trkpt>
      <trkpt lat="46.03768" lon="4.70164">
        <ele>188</ele>
        <time>2017-12-09T10:35:55Z</time>
      </trkpt>
      <trkpt lat="46.03776" lon="4.7016">
        <ele>189</ele>
        <time>2017-12-09T10:35:57Z</time>
      </trkpt>
      <trkpt lat="46.03779" lon="4.70157">
        <ele>189</ele>
        <time>2017-12-09T10:35:58Z</time>
      </trkpt>
      <trkpt lat="46.03785" lon="4.70155">
        <ele>189</ele>
        <time>2017-12-09T10:35:59Z</time>
      </trkpt>
      <trkpt lat="46.03791" lon="4.70153">
        <ele>189</ele>
        <time>2017-12-09T10:36:00Z</time>
      </trkpt>
      <trkpt lat="46.03796" lon="4.70151">
        <ele>189</ele>
        <time>2017-12-09T10:36:01Z</time>
      </trkpt>
      <trkpt lat="46.03802" lon="4.70149">
        <ele>189</ele>
        <time>2017-12-09T10:36:02Z</time>
      </trkpt>
      <trkpt lat="46.03807" lon="4.70147">
        <ele>190</ele>
        <time>2017-12-09T10:36:03Z</time>
      </trkpt>
      <trkpt lat="46.03811" lon="4.70143">
        <ele>190</ele>
        <time>2017-12-09T10:36:04Z</time>
      </trkpt>
      <trkpt lat="46.03816" lon="4.70141">
        <ele>190</ele>
        <time>2017-12-09T10:36:06Z</time>
      </trkpt>
      <trkpt lat="46.0382" lon="4.70141">
        <ele>190</ele>
        <time>2017-12-09T10:36:07Z</time>
      </trkpt>
      <trkpt lat="46.03823" lon="4.70137">
        <ele>190</ele>
        <time>2017-12-09T10:36:08Z</time>
      </trkpt>
      <trkpt lat="46.03829" lon="4.70135">
        <ele>190</ele>
        <time>2017-12-09T10:36:09Z</time>
      </trkpt>
      <trkpt lat="46.03838" lon="4.70134">
        <ele>192</ele>
        <time>2017-12-09T10:36:11Z</time>
      </trkpt>
      <trkpt lat="46.03843" lon="4.70132">
        <ele>192</ele>
        <time>2017-12-09T10:36:12Z</time>
      </trkpt>
      <trkpt lat="46.0385" lon="4.70131">
        <ele>192</ele>
        <time>2017-12-09T10:36:13Z</time>
      </trkpt>
      <trkpt lat="46.03855" lon="4.70129">
        <ele>192</ele>
        <time>2017-12-09T10:36:14Z</time>
      </trkpt>
      <trkpt lat="46.03863" lon="4.70126">
        <ele>193</ele>
        <time>2017-12-09T10:36:16Z</time>
      </trkpt>
      <trkpt lat="46.03867" lon="4.70125">
        <ele>193</ele>
        <time>2017-12-09T10:36:17Z</time>
      </trkpt>
      <trkpt lat="46.03873" lon="4.70122">
        <ele>193</ele>
        <time>2017-12-09T10:36:19Z</time>
      </trkpt>
      <trkpt lat="46.03876" lon="4.70119">
        <ele>193</ele>
        <time>2017-12-09T10:36:20Z</time>
      </trkpt>
      <trkpt lat="46.03885" lon="4.70118">
        <ele>193</ele>
        <time>2017-12-09T10:36:21Z</time>
      </trkpt>
      <trkpt lat="46.0389" lon="4.70118">
        <ele>193</ele>
        <time>2017-12-09T10:36:22Z</time>
      </trkpt>
      <trkpt lat="46.03897" lon="4.70115">
        <ele>194</ele>
        <time>2017-12-09T10:36:25Z</time>
      </trkpt>
      <trkpt lat="46.03899" lon="4.70115">
        <ele>194</ele>
        <time>2017-12-09T10:36:26Z</time>
      </trkpt>
      <trkpt lat="46.03905" lon="4.70115">
        <ele>194</ele>
        <time>2017-12-09T10:36:28Z</time>
      </trkpt>
      <trkpt lat="46.03909" lon="4.70115">
        <ele>194</ele>
        <time>2017-12-09T10:36:29Z</time>
      </trkpt>
      <trkpt lat="46.03916" lon="4.70113">
        <ele>194</ele>
        <time>2017-12-09T10:36:31Z</time>
      </trkpt>
      <trkpt lat="46.0392" lon="4.70112">
        <ele>196</ele>
        <time>2017-12-09T10:36:32Z</time>
      </trkpt>
      <trkpt lat="46.03928" lon="4.70109">
        <ele>196</ele>
        <time>2017-12-09T10:36:34Z</time>
      </trkpt>
      <trkpt lat="46.03932" lon="4.70107">
        <ele>196</ele>
        <time>2017-12-09T10:36:35Z</time>
      </trkpt>
      <trkpt lat="46.03939" lon="4.70106">
        <ele>196</ele>
        <time>2017-12-09T10:36:37Z</time>
      </trkpt>
      <trkpt lat="46.03943" lon="4.70106">
        <ele>196</ele>
        <time>2017-12-09T10:36:38Z</time>
      </trkpt>
      <trkpt lat="46.0395" lon="4.70106">
        <ele>196</ele>
        <time>2017-12-09T10:36:40Z</time>
      </trkpt>
      <trkpt lat="46.03954" lon="4.70106">
        <ele>196</ele>
        <time>2017-12-09T10:36:41Z</time>
      </trkpt>
      <trkpt lat="46.03961" lon="4.70102">
        <ele>196</ele>
        <time>2017-12-09T10:36:43Z</time>
      </trkpt>
      <trkpt lat="46.03966" lon="4.70101">
        <ele>196</ele>
        <time>2017-12-09T10:36:44Z</time>
      </trkpt>
      <trkpt lat="46.03974" lon="4.70098">
        <ele>196</ele>
        <time>2017-12-09T10:36:46Z</time>
      </trkpt>
      <trkpt lat="46.03977" lon="4.70097">
        <ele>196</ele>
        <time>2017-12-09T10:36:47Z</time>
      </trkpt>
      <trkpt lat="46.03986" lon="4.70095">
        <ele>196</ele>
        <time>2017-12-09T10:36:49Z</time>
      </trkpt>
      <trkpt lat="46.0399" lon="4.70094">
        <ele>196</ele>
        <time>2017-12-09T10:36:50Z</time>
      </trkpt>
      <trkpt lat="46.03997" lon="4.70092">
        <ele>196</ele>
        <time>2017-12-09T10:36:52Z</time>
      </trkpt>
      <trkpt lat="46.04001" lon="4.70091">
        <ele>196</ele>
        <time>2017-12-09T10:36:53Z</time>
      </trkpt>
      <trkpt lat="46.04007" lon="4.7009">
        <ele>196</ele>
        <time>2017-12-09T10:36:55Z</time>
      </trkpt>
      <trkpt lat="46.0401" lon="4.70089">
        <ele>196</ele>
        <time>2017-12-09T10:36:56Z</time>
      </trkpt>
      <trkpt lat="46.04019" lon="4.70089">
        <ele>195</ele>
        <time>2017-12-09T10:36:58Z</time>
      </trkpt>
      <trkpt lat="46.04028" lon="4.7009">
        <ele>195</ele>
        <time>2017-12-09T10:36:59Z</time>
      </trkpt>
      <trkpt lat="46.04035" lon="4.7009">
        <ele>195</ele>
        <time>2017-12-09T10:37:00Z</time>
      </trkpt>
      <trkpt lat="46.0404" lon="4.70089">
        <ele>195</ele>
        <time>2017-12-09T10:37:01Z</time>
      </trkpt>
      <trkpt lat="46.04047" lon="4.70087">
        <ele>195</ele>
        <time>2017-12-09T10:37:02Z</time>
      </trkpt>
      <trkpt lat="46.04052" lon="4.70085">
        <ele>195</ele>
        <time>2017-12-09T10:37:03Z</time>
      </trkpt>
      <trkpt lat="46.04057" lon="4.70085">
        <ele>195</ele>
        <time>2017-12-09T10:37:04Z</time>
      </trkpt>
      <trkpt lat="46.04067" lon="4.70083">
        <ele>194</ele>
        <time>2017-12-09T10:37:05Z</time>
      </trkpt>
      <trkpt lat="46.04073" lon="4.70082">
        <ele>194</ele>
        <time>2017-12-09T10:37:06Z</time>
      </trkpt>
      <trkpt lat="46.04079" lon="4.7008">
        <ele>194</ele>
        <time>2017-12-09T10:37:07Z</time>
      </trkpt>
      <trkpt lat="46.04086" lon="4.7008">
        <ele>194</ele>
        <time>2017-12-09T10:37:09Z</time>
      </trkpt>
      <trkpt lat="46.0409" lon="4.70078">
        <ele>193</ele>
        <time>2017-12-09T10:37:10Z</time>
      </trkpt>
      <trkpt lat="46.04098" lon="4.70075">
        <ele>193</ele>
        <time>2017-12-09T10:37:12Z</time>
      </trkpt>
      <trkpt lat="46.04104" lon="4.70072">
        <ele>193</ele>
        <time>2017-12-09T10:37:13Z</time>
      </trkpt>
      <trkpt lat="46.04108" lon="4.70071">
        <ele>193</ele>
        <time>2017-12-09T10:37:14Z</time>
      </trkpt>
      <trkpt lat="46.04113" lon="4.70069">
        <ele>192</ele>
        <time>2017-12-09T10:37:15Z</time>
      </trkpt>
      <trkpt lat="46.0412" lon="4.70065">
        <ele>192</ele>
        <time>2017-12-09T10:37:17Z</time>
      </trkpt>
      <trkpt lat="46.04124" lon="4.70062">
        <ele>192</ele>
        <time>2017-12-09T10:37:18Z</time>
      </trkpt>
      <trkpt lat="46.04128" lon="4.70057">
        <ele>192</ele>
        <time>2017-12-09T10:37:19Z</time>
      </trkpt>
      <trkpt lat="46.04134" lon="4.70051">
        <ele>192</ele>
        <time>2017-12-09T10:37:20Z</time>
      </trkpt>
      <trkpt lat="46.0414" lon="4.70048">
        <ele>192</ele>
        <time>2017-12-09T10:37:21Z</time>
      </trkpt>
      <trkpt lat="46.04146" lon="4.70043">
        <ele>191</ele>
        <time>2017-12-09T10:37:22Z</time>
      </trkpt>
      <trkpt lat="46.0415" lon="4.70039">
        <ele>191</ele>
        <time>2017-12-09T10:37:23Z</time>
      </trkpt>
      <trkpt lat="46.04163" lon="4.70037">
        <ele>191</ele>
        <time>2017-12-09T10:37:24Z</time>
      </trkpt>
      <trkpt lat="46.04168" lon="4.70032">
        <ele>189</ele>
        <time>2017-12-09T10:37:25Z</time>
      </trkpt>
      <trkpt lat="46.04173" lon="4.70029">
        <ele>189</ele>
        <time>2017-12-09T10:37:26Z</time>
      </trkpt>
      <trkpt lat="46.04178" lon="4.70028">
        <ele>189</ele>
        <time>2017-12-09T10:37:27Z</time>
      </trkpt>
      <trkpt lat="46.04182" lon="4.70026">
        <ele>189</ele>
        <time>2017-12-09T10:37:28Z</time>
      </trkpt>
      <trkpt lat="46.04187" lon="4.70024">
        <ele>189</ele>
        <time>2017-12-09T10:37:29Z</time>
      </trkpt>
      <trkpt lat="46.04191" lon="4.70022">
        <ele>188</ele>
        <time>2017-12-09T10:37:30Z</time>
      </trkpt>
      <trkpt lat="46.04195" lon="4.7002">
        <ele>188</ele>
        <time>2017-12-09T10:37:31Z</time>
      </trkpt>
      <trkpt lat="46.04201" lon="4.70015">
        <ele>188</ele>
        <time>2017-12-09T10:37:32Z</time>
      </trkpt>
      <trkpt lat="46.04204" lon="4.7001">
        <ele>188</ele>
        <time>2017-12-09T10:37:33Z</time>
      </trkpt>
      <trkpt lat="46.04208" lon="4.70006">
        <ele>188</ele>
        <time>2017-12-09T10:37:34Z</time>
      </trkpt>
      <trkpt lat="46.04212" lon="4.70003">
        <ele>188</ele>
        <time>2017-12-09T10:37:35Z</time>
      </trkpt>
      <trkpt lat="46.04216" lon="4.69998">
        <ele>188</ele>
        <time>2017-12-09T10:37:36Z</time>
      </trkpt>
      <trkpt lat="46.04219" lon="4.69993">
        <ele>188</ele>
        <time>2017-12-09T10:37:37Z</time>
      </trkpt>
      <trkpt lat="46.04223" lon="4.69989">
        <ele>188</ele>
        <time>2017-12-09T10:37:38Z</time>
      </trkpt>
      <trkpt lat="46.04228" lon="4.69984">
        <ele>188</ele>
        <time>2017-12-09T10:37:39Z</time>
      </trkpt>
      <trkpt lat="46.04232" lon="4.6998">
        <ele>188</ele>
        <time>2017-12-09T10:37:40Z</time>
      </trkpt>
      <trkpt lat="46.04236" lon="4.69977">
        <ele>188</ele>
        <time>2017-12-09T10:37:41Z</time>
      </trkpt>
      <trkpt lat="46.0424" lon="4.69973">
        <ele>188</ele>
        <time>2017-12-09T10:37:42Z</time>
      </trkpt>
      <trkpt lat="46.04247" lon="4.69968">
        <ele>188</ele>
        <time>2017-12-09T10:37:43Z</time>
      </trkpt>
      <trkpt lat="46.04251" lon="4.69965">
        <ele>188</ele>
        <time>2017-12-09T10:37:44Z</time>
      </trkpt>
      <trkpt lat="46.04258" lon="4.69958">
        <ele>188</ele>
        <time>2017-12-09T10:37:46Z</time>
      </trkpt>
      <trkpt lat="46.04261" lon="4.69954">
        <ele>188</ele>
        <time>2017-12-09T10:37:47Z</time>
      </trkpt>
      <trkpt lat="46.04268" lon="4.69947">
        <ele>188</ele>
        <time>2017-12-09T10:37:49Z</time>
      </trkpt>
      <trkpt lat="46.04272" lon="4.69943">
        <ele>189</ele>
        <time>2017-12-09T10:37:50Z</time>
      </trkpt>
      <trkpt lat="46.04276" lon="4.69938">
        <ele>189</ele>
        <time>2017-12-09T10:37:51Z</time>
      </trkpt>
      <trkpt lat="46.04279" lon="4.69933">
        <ele>189</ele>
        <time>2017-12-09T10:37:52Z</time>
      </trkpt>
      <trkpt lat="46.04285" lon="4.69928">
        <ele>189</ele>
        <time>2017-12-09T10:37:53Z</time>
      </trkpt>
      <trkpt lat="46.04289" lon="4.69924">
        <ele>189</ele>
        <time>2017-12-09T10:37:54Z</time>
      </trkpt>
      <trkpt lat="46.04296" lon="4.69917">
        <ele>189</ele>
        <time>2017-12-09T10:37:56Z</time>
      </trkpt>
      <trkpt lat="46.04299" lon="4.69913">
        <ele>190</ele>
        <time>2017-12-09T10:37:57Z</time>
      </trkpt>
      <trkpt lat="46.04305" lon="4.69905">
        <ele>190</ele>
        <time>2017-12-09T10:37:59Z</time>
      </trkpt>
      <trkpt lat="46.04308" lon="4.69901">
        <ele>190</ele>
        <time>2017-12-09T10:38:00Z</time>
      </trkpt>
      <trkpt lat="46.04314" lon="4.69893">
        <ele>190</ele>
        <time>2017-12-09T10:38:02Z</time>
      </trkpt>
      <trkpt lat="46.04317" lon="4.69889">
        <ele>190</ele>
        <time>2017-12-09T10:38:03Z</time>
      </trkpt>
      <trkpt lat="46.04321" lon="4.69879">
        <ele>190</ele>
        <time>2017-12-09T10:38:05Z</time>
      </trkpt>
      <trkpt lat="46.04323" lon="4.69875">
        <ele>190</ele>
        <time>2017-12-09T10:38:06Z</time>
      </trkpt>
      <trkpt lat="46.04329" lon="4.69866">
        <ele>191</ele>
        <time>2017-12-09T10:38:08Z</time>
      </trkpt>
      <trkpt lat="46.04332" lon="4.69862">
        <ele>191</ele>
        <time>2017-12-09T10:38:09Z</time>
      </trkpt>
      <trkpt lat="46.04338" lon="4.69855">
        <ele>192</ele>
        <time>2017-12-09T10:38:11Z</time>
      </trkpt>
      <trkpt lat="46.04341" lon="4.69851">
        <ele>192</ele>
        <time>2017-12-09T10:38:12Z</time>
      </trkpt>
      <trkpt lat="46.04348" lon="4.69845">
        <ele>193</ele>
        <time>2017-12-09T10:38:14Z</time>
      </trkpt>
      <trkpt lat="46.04353" lon="4.69843">
        <ele>193</ele>
        <time>2017-12-09T10:38:15Z</time>
      </trkpt>
      <trkpt lat="46.04358" lon="4.6984">
        <ele>193</ele>
        <time>2017-12-09T10:38:16Z</time>
      </trkpt>
      <trkpt lat="46.04363" lon="4.69838">
        <ele>193</ele>
        <time>2017-12-09T10:38:17Z</time>
      </trkpt>
      <trkpt lat="46.04371" lon="4.69834">
        <ele>193</ele>
        <time>2017-12-09T10:38:19Z</time>
      </trkpt>
      <trkpt lat="46.04374" lon="4.69831">
        <ele>194</ele>
        <time>2017-12-09T10:38:20Z</time>
      </trkpt>
      <trkpt lat="46.04382" lon="4.69826">
        <ele>194</ele>
        <time>2017-12-09T10:38:22Z</time>
      </trkpt>
      <trkpt lat="46.04386" lon="4.69823">
        <ele>194</ele>
        <time>2017-12-09T10:38:23Z</time>
      </trkpt>
      <trkpt lat="46.04394" lon="4.69817">
        <ele>194</ele>
        <time>2017-12-09T10:38:25Z</time>
      </trkpt>
      <trkpt lat="46.04399" lon="4.69815">
        <ele>194</ele>
        <time>2017-12-09T10:38:26Z</time>
      </trkpt>
      <trkpt lat="46.04407" lon="4.69812">
        <ele>194</ele>
        <time>2017-12-09T10:38:28Z</time>
      </trkpt>
      <trkpt lat="46.04411" lon="4.69811">
        <ele>194</ele>
        <time>2017-12-09T10:38:29Z</time>
      </trkpt>
      <trkpt lat="46.04416" lon="4.69811">
        <ele>194</ele>
        <time>2017-12-09T10:38:30Z</time>
      </trkpt>
      <trkpt lat="46.04422" lon="4.6981">
        <ele>196</ele>
        <time>2017-12-09T10:38:31Z</time>
      </trkpt>
      <trkpt lat="46.0443" lon="4.69808">
        <ele>196</ele>
        <time>2017-12-09T10:38:33Z</time>
      </trkpt>
      <trkpt lat="46.04434" lon="4.69807">
        <ele>196</ele>
        <time>2017-12-09T10:38:34Z</time>
      </trkpt>
      <trkpt lat="46.04442" lon="4.69804">
        <ele>196</ele>
        <time>2017-12-09T10:38:36Z</time>
      </trkpt>
      <trkpt lat="46.04446" lon="4.69803">
        <ele>196</ele>
        <time>2017-12-09T10:38:37Z</time>
      </trkpt>
      <trkpt lat="46.04455" lon="4.69799">
        <ele>196</ele>
        <time>2017-12-09T10:38:39Z</time>
      </trkpt>
      <trkpt lat="46.04458" lon="4.69799">
        <ele>196</ele>
        <time>2017-12-09T10:38:40Z</time>
      </trkpt>
      <trkpt lat="46.04463" lon="4.69798">
        <ele>197</ele>
        <time>2017-12-09T10:38:41Z</time>
      </trkpt>
      <trkpt lat="46.04468" lon="4.69797">
        <ele>197</ele>
        <time>2017-12-09T10:38:42Z</time>
      </trkpt>
      <trkpt lat="46.04476" lon="4.69795">
        <ele>197</ele>
        <time>2017-12-09T10:38:44Z</time>
      </trkpt>
      <trkpt lat="46.0448" lon="4.69795">
        <ele>197</ele>
        <time>2017-12-09T10:38:45Z</time>
      </trkpt>
      <trkpt lat="46.04489" lon="4.69794">
        <ele>197</ele>
        <time>2017-12-09T10:38:47Z</time>
      </trkpt>
      <trkpt lat="46.04492" lon="4.69793">
        <ele>197</ele>
        <time>2017-12-09T10:38:48Z</time>
      </trkpt>
      <trkpt lat="46.04498" lon="4.69793">
        <ele>197</ele>
        <time>2017-12-09T10:38:49Z</time>
      </trkpt>
      <trkpt lat="46.04503" lon="4.69791">
        <ele>199</ele>
        <time>2017-12-09T10:38:50Z</time>
      </trkpt>
      <trkpt lat="46.04509" lon="4.6979">
        <ele>199</ele>
        <time>2017-12-09T10:38:52Z</time>
      </trkpt>
      <trkpt lat="46.04513" lon="4.6979">
        <ele>199</ele>
        <time>2017-12-09T10:38:53Z</time>
      </trkpt>
      <trkpt lat="46.04519" lon="4.69791">
        <ele>199</ele>
        <time>2017-12-09T10:38:55Z</time>
      </trkpt>
      <trkpt lat="46.04523" lon="4.69792">
        <ele>199</ele>
        <time>2017-12-09T10:38:56Z</time>
      </trkpt>
      <trkpt lat="46.04529" lon="4.69792">
        <ele>199</ele>
        <time>2017-12-09T10:38:58Z</time>
      </trkpt>
      <trkpt lat="46.04532" lon="4.69793">
        <ele>199</ele>
        <time>2017-12-09T10:38:59Z</time>
      </trkpt>
      <trkpt lat="46.04538" lon="4.69794">
        <ele>199</ele>
        <time>2017-12-09T10:39:01Z</time>
      </trkpt>
      <trkpt lat="46.04541" lon="4.69794">
        <ele>199</ele>
        <time>2017-12-09T10:39:02Z</time>
      </trkpt>
      <trkpt lat="46.04547" lon="4.69795">
        <ele>199</ele>
        <time>2017-12-09T10:39:04Z</time>
      </trkpt>
      <trkpt lat="46.0455" lon="4.69796">
        <ele>199</ele>
        <time>2017-12-09T10:39:05Z</time>
      </trkpt>
      <trkpt lat="46.04558" lon="4.69797">
        <ele>199</ele>
        <time>2017-12-09T10:39:07Z</time>
      </trkpt>
      <trkpt lat="46.04562" lon="4.69797">
        <ele>200</ele>
        <time>2017-12-09T10:39:08Z</time>
      </trkpt>
      <trkpt lat="46.04569" lon="4.69799">
        <ele>200</ele>
        <time>2017-12-09T10:39:10Z</time>
      </trkpt>
      <trkpt lat="46.04573" lon="4.69799">
        <ele>200</ele>
        <time>2017-12-09T10:39:11Z</time>
      </trkpt>
      <trkpt lat="46.04581" lon="4.69802">
        <ele>200</ele>
        <time>2017-12-09T10:39:13Z</time>
      </trkpt>
      <trkpt lat="46.04585" lon="4.69803">
        <ele>201</ele>
        <time>2017-12-09T10:39:14Z</time>
      </trkpt>
      <trkpt lat="46.04593" lon="4.69806">
        <ele>201</ele>
        <time>2017-12-09T10:39:16Z</time>
      </trkpt>
      <trkpt lat="46.04597" lon="4.69807">
        <ele>201</ele>
        <time>2017-12-09T10:39:17Z</time>
      </trkpt>
      <trkpt lat="46.04604" lon="4.69809">
        <ele>201</ele>
        <time>2017-12-09T10:39:19Z</time>
      </trkpt>
      <trkpt lat="46.04607" lon="4.6981">
        <ele>201</ele>
        <time>2017-12-09T10:39:20Z</time>
      </trkpt>
      <trkpt lat="46.04614" lon="4.69813">
        <ele>201</ele>
        <time>2017-12-09T10:39:22Z</time>
      </trkpt>
      <trkpt lat="46.04618" lon="4.69815">
        <ele>202</ele>
        <time>2017-12-09T10:39:23Z</time>
      </trkpt>
      <trkpt lat="46.04626" lon="4.69817">
        <ele>202</ele>
        <time>2017-12-09T10:39:25Z</time>
      </trkpt>
      <trkpt lat="46.0463" lon="4.69819">
        <ele>202</ele>
        <time>2017-12-09T10:39:26Z</time>
      </trkpt>
      <trkpt lat="46.04638" lon="4.69823">
        <ele>202</ele>
        <time>2017-12-09T10:39:28Z</time>
      </trkpt>
      <trkpt lat="46.04642" lon="4.69825">
        <ele>202</ele>
        <time>2017-12-09T10:39:29Z</time>
      </trkpt>
      <trkpt lat="46.0465" lon="4.69829">
        <ele>202</ele>
        <time>2017-12-09T10:39:31Z</time>
      </trkpt>
      <trkpt lat="46.04654" lon="4.69831">
        <ele>202</ele>
        <time>2017-12-09T10:39:32Z</time>
      </trkpt>
      <trkpt lat="46.04662" lon="4.69834">
        <ele>202</ele>
        <time>2017-12-09T10:39:34Z</time>
      </trkpt>
      <trkpt lat="46.04666" lon="4.69834">
        <ele>203</ele>
        <time>2017-12-09T10:39:35Z</time>
      </trkpt>
      <trkpt lat="46.04674" lon="4.69836">
        <ele>203</ele>
        <time>2017-12-09T10:39:37Z</time>
      </trkpt>
      <trkpt lat="46.04679" lon="4.69836">
        <ele>203</ele>
        <time>2017-12-09T10:39:38Z</time>
      </trkpt>
      <trkpt lat="46.04684" lon="4.69838">
        <ele>202</ele>
        <time>2017-12-09T10:39:39Z</time>
      </trkpt>
      <trkpt lat="46.04689" lon="4.6984">
        <ele>202</ele>
        <time>2017-12-09T10:39:40Z</time>
      </trkpt>
      <trkpt lat="46.04697" lon="4.69841">
        <ele>202</ele>
        <time>2017-12-09T10:39:42Z</time>
      </trkpt>
      <trkpt lat="46.04702" lon="4.69842">
        <ele>202</ele>
        <time>2017-12-09T10:39:43Z</time>
      </trkpt>
      <trkpt lat="46.0471" lon="4.69844">
        <ele>203</ele>
        <time>2017-12-09T10:39:45Z</time>
      </trkpt>
      <trkpt lat="46.04714" lon="4.69844">
        <ele>203</ele>
        <time>2017-12-09T10:39:46Z</time>
      </trkpt>
      <trkpt lat="46.0472" lon="4.69845">
        <ele>203</ele>
        <time>2017-12-09T10:39:48Z</time>
      </trkpt>
      <trkpt lat="46.04725" lon="4.69844">
        <ele>203</ele>
        <time>2017-12-09T10:39:49Z</time>
      </trkpt>
      <trkpt lat="46.04734" lon="4.69844">
        <ele>203</ele>
        <time>2017-12-09T10:39:51Z</time>
      </trkpt>
      <trkpt lat="46.04738" lon="4.69843">
        <ele>203</ele>
        <time>2017-12-09T10:39:52Z</time>
      </trkpt>
      <trkpt lat="46.04745" lon="4.69844">
        <ele>204</ele>
        <time>2017-12-09T10:39:54Z</time>
      </trkpt>
      <trkpt lat="46.04749" lon="4.69845">
        <ele>204</ele>
        <time>2017-12-09T10:39:55Z</time>
      </trkpt>
      <trkpt lat="46.04756" lon="4.69846">
        <ele>205</ele>
        <time>2017-12-09T10:39:57Z</time>
      </trkpt>
      <trkpt lat="46.04759" lon="4.69846">
        <ele>205</ele>
        <time>2017-12-09T10:39:58Z</time>
      </trkpt>
      <trkpt lat="46.04768" lon="4.69845">
        <ele>204</ele>
        <time>2017-12-09T10:40:00Z</time>
      </trkpt>
      <trkpt lat="46.04771" lon="4.69846">
        <ele>204</ele>
        <time>2017-12-09T10:40:01Z</time>
      </trkpt>
      <trkpt lat="46.04779" lon="4.69847">
        <ele>204</ele>
        <time>2017-12-09T10:40:04Z</time>
      </trkpt>
      <trkpt lat="46.04782" lon="4.69847">
        <ele>204</ele>
        <time>2017-12-09T10:40:05Z</time>
      </trkpt>
      <trkpt lat="46.0479" lon="4.69845">
        <ele>205</ele>
        <time>2017-12-09T10:40:08Z</time>
      </trkpt>
      <trkpt lat="46.04792" lon="4.69843">
        <ele>205</ele>
        <time>2017-12-09T10:40:09Z</time>
      </trkpt>
      <trkpt lat="46.04794" lon="4.69834">
        <ele>205</ele>
        <time>2017-12-09T10:40:11Z</time>
      </trkpt>
      <trkpt lat="46.04794" lon="4.69829">
        <ele>206</ele>
        <time>2017-12-09T10:40:12Z</time>
      </trkpt>
      <trkpt lat="46.04795" lon="4.69818">
        <ele>206</ele>
        <time>2017-12-09T10:40:14Z</time>
      </trkpt>
      <trkpt lat="46.04796" lon="4.69814">
        <ele>206</ele>
        <time>2017-12-09T10:40:15Z</time>
      </trkpt>
      <trkpt lat="46.04802" lon="4.69811">
        <ele>206</ele>
        <time>2017-12-09T10:40:17Z</time>
      </trkpt>
      <trkpt lat="46.04806" lon="4.69811">
        <ele>206</ele>
        <time>2017-12-09T10:40:18Z</time>
      </trkpt>
      <trkpt lat="46.04814" lon="4.69814">
        <ele>207</ele>
        <time>2017-12-09T10:40:20Z</time>
      </trkpt>
      <trkpt lat="46.04817" lon="4.69816">
        <ele>207</ele>
        <time>2017-12-09T10:40:21Z</time>
      </trkpt>
      <trkpt lat="46.04821" lon="4.69817">
        <ele>207</ele>
        <time>2017-12-09T10:40:22Z</time>
      </trkpt>
      <trkpt lat="46.04827" lon="4.69821">
        <ele>207</ele>
        <time>2017-12-09T10:40:23Z</time>
      </trkpt>
      <trkpt lat="46.04835" lon="4.69825">
        <ele>207</ele>
        <time>2017-12-09T10:40:25Z</time>
      </trkpt>
      <trkpt lat="46.04842" lon="4.6983">
        <ele>207</ele>
        <time>2017-12-09T10:40:26Z</time>
      </trkpt>
      <trkpt lat="46.04847" lon="4.69832">
        <ele>207</ele>
        <time>2017-12-09T10:40:27Z</time>
      </trkpt>
      <trkpt lat="46.04851" lon="4.69835">
        <ele>206</ele>
        <time>2017-12-09T10:40:28Z</time>
      </trkpt>
      <trkpt lat="46.0486" lon="4.69838">
        <ele>206</ele>
        <time>2017-12-09T10:40:30Z</time>
      </trkpt>
      <trkpt lat="46.04863" lon="4.6984">
        <ele>206</ele>
        <time>2017-12-09T10:40:31Z</time>
      </trkpt>
      <trkpt lat="46.04867" lon="4.69842">
        <ele>206</ele>
        <time>2017-12-09T10:40:32Z</time>
      </trkpt>
      <trkpt lat="46.04872" lon="4.69846">
        <ele>206</ele>
        <time>2017-12-09T10:40:33Z</time>
      </trkpt>
      <trkpt lat="46.04877" lon="4.69849">
        <ele>206</ele>
        <time>2017-12-09T10:40:34Z</time>
      </trkpt>
      <trkpt lat="46.04882" lon="4.69851">
        <ele>206</ele>
        <time>2017-12-09T10:40:35Z</time>
      </trkpt>
      <trkpt lat="46.04887" lon="4.69854">
        <ele>206</ele>
        <time>2017-12-09T10:40:36Z</time>
      </trkpt>
      <trkpt lat="46.04891" lon="4.69857">
        <ele>206</ele>
        <time>2017-12-09T10:40:37Z</time>
      </trkpt>
      <trkpt lat="46.04896" lon="4.6986">
        <ele>206</ele>
        <time>2017-12-09T10:40:38Z</time>
      </trkpt>
      <trkpt lat="46.049" lon="4.69864">
        <ele>206</ele>
        <time>2017-12-09T10:40:39Z</time>
      </trkpt>
      <trkpt lat="46.04905" lon="4.69865">
        <ele>206</ele>
        <time>2017-12-09T10:40:40Z</time>
      </trkpt>
      <trkpt lat="46.04909" lon="4.69867">
        <ele>206</ele>
        <time>2017-12-09T10:40:41Z</time>
      </trkpt>
      <trkpt lat="46.04917" lon="4.69871">
        <ele>207</ele>
        <time>2017-12-09T10:40:43Z</time>
      </trkpt>
      <trkpt lat="46.04921" lon="4.69874">
        <ele>207</ele>
        <time>2017-12-09T10:40:44Z</time>
      </trkpt>
      <trkpt lat="46.04925" lon="4.69876">
        <ele>207</ele>
        <time>2017-12-09T10:40:45Z</time>
      </trkpt>
      <trkpt lat="46.0493" lon="4.69879">
        <ele>207</ele>
        <time>2017-12-09T10:40:46Z</time>
      </trkpt>
      <trkpt lat="46.04936" lon="4.69885">
        <ele>207</ele>
        <time>2017-12-09T10:40:48Z</time>
      </trkpt>
      <trkpt lat="46.0494" lon="4.69887">
        <ele>207</ele>
        <time>2017-12-09T10:40:49Z</time>
      </trkpt>
      <trkpt lat="46.04946" lon="4.69895">
        <ele>207</ele>
        <time>2017-12-09T10:40:51Z</time>
      </trkpt>
      <trkpt lat="46.04949" lon="4.699">
        <ele>207</ele>
        <time>2017-12-09T10:40:52Z</time>
      </trkpt>
      <trkpt lat="46.04953" lon="4.69904">
        <ele>207</ele>
        <time>2017-12-09T10:40:53Z</time>
      </trkpt>
      <trkpt lat="46.04956" lon="4.69908">
        <ele>207</ele>
        <time>2017-12-09T10:40:54Z</time>
      </trkpt>
      <trkpt lat="46.04959" lon="4.69913">
        <ele>206</ele>
        <time>2017-12-09T10:40:55Z</time>
      </trkpt>
      <trkpt lat="46.04962" lon="4.69918">
        <ele>206</ele>
        <time>2017-12-09T10:40:56Z</time>
      </trkpt>
      <trkpt lat="46.04966" lon="4.69922">
        <ele>206</ele>
        <time>2017-12-09T10:40:57Z</time>
      </trkpt>
      <trkpt lat="46.04969" lon="4.69927">
        <ele>206</ele>
        <time>2017-12-09T10:40:58Z</time>
      </trkpt>
      <trkpt lat="46.04975" lon="4.69936">
        <ele>206</ele>
        <time>2017-12-09T10:41:00Z</time>
      </trkpt>
      <trkpt lat="46.04977" lon="4.6994">
        <ele>206</ele>
        <time>2017-12-09T10:41:01Z</time>
      </trkpt>
      <trkpt lat="46.04982" lon="4.69951">
        <ele>206</ele>
        <time>2017-12-09T10:41:03Z</time>
      </trkpt>
      <trkpt lat="46.04985" lon="4.69958">
        <ele>206</ele>
        <time>2017-12-09T10:41:04Z</time>
      </trkpt>
      <trkpt lat="46.04989" lon="4.69962">
        <ele>205</ele>
        <time>2017-12-09T10:41:05Z</time>
      </trkpt>
      <trkpt lat="46.04993" lon="4.69968">
        <ele>205</ele>
        <time>2017-12-09T10:41:06Z</time>
      </trkpt>
      <trkpt lat="46.04996" lon="4.69973">
        <ele>205</ele>
        <time>2017-12-09T10:41:07Z</time>
      </trkpt>
      <trkpt lat="46.05" lon="4.69979">
        <ele>205</ele>
        <time>2017-12-09T10:41:08Z</time>
      </trkpt>
      <trkpt lat="46.05003" lon="4.69985">
        <ele>205</ele>
        <time>2017-12-09T10:41:09Z</time>
      </trkpt>
      <trkpt lat="46.05007" lon="4.6999">
        <ele>205</ele>
        <time>2017-12-09T10:41:10Z</time>
      </trkpt>
      <trkpt lat="46.0501" lon="4.69994">
        <ele>205</ele>
        <time>2017-12-09T10:41:11Z</time>
      </trkpt>
      <trkpt lat="46.05015" lon="4.69999">
        <ele>205</ele>
        <time>2017-12-09T10:41:12Z</time>
      </trkpt>
      <trkpt lat="46.05019" lon="4.70003">
        <ele>204</ele>
        <time>2017-12-09T10:41:13Z</time>
      </trkpt>
      <trkpt lat="46.05022" lon="4.70008">
        <ele>204</ele>
        <time>2017-12-09T10:41:14Z</time>
      </trkpt>
      <trkpt lat="46.05027" lon="4.70012">
        <ele>204</ele>
        <time>2017-12-09T10:41:15Z</time>
      </trkpt>
      <trkpt lat="46.05031" lon="4.70017">
        <ele>204</ele>
        <time>2017-12-09T10:41:16Z</time>
      </trkpt>
      <trkpt lat="46.05035" lon="4.70021">
        <ele>204</ele>
        <time>2017-12-09T10:41:17Z</time>
      </trkpt>
      <trkpt lat="46.05041" lon="4.70024">
        <ele>204</ele>
        <time>2017-12-09T10:41:18Z</time>
      </trkpt>
      <trkpt lat="46.05046" lon="4.70027">
        <ele>204</ele>
        <time>2017-12-09T10:41:19Z</time>
      </trkpt>
      <trkpt lat="46.0505" lon="4.7003">
        <ele>204</ele>
        <time>2017-12-09T10:41:20Z</time>
      </trkpt>
      <trkpt lat="46.05055" lon="4.70033">
        <ele>204</ele>
        <time>2017-12-09T10:41:21Z</time>
      </trkpt>
      <trkpt lat="46.0506" lon="4.70036">
        <ele>204</ele>
        <time>2017-12-09T10:41:22Z</time>
      </trkpt>
      <trkpt lat="46.05064" lon="4.70038">
        <ele>204</ele>
        <time>2017-12-09T10:41:23Z</time>
      </trkpt>
      <trkpt lat="46.0507" lon="4.70039">
        <ele>204</ele>
        <time>2017-12-09T10:41:24Z</time>
      </trkpt>
      <trkpt lat="46.05075" lon="4.70037">
        <ele>204</ele>
        <time>2017-12-09T10:41:25Z</time>
      </trkpt>
      <trkpt lat="46.05079" lon="4.70036">
        <ele>204</ele>
        <time>2017-12-09T10:41:26Z</time>
      </trkpt>
      <trkpt lat="46.05085" lon="4.70029">
        <ele>203</ele>
        <time>2017-12-09T10:41:28Z</time>
      </trkpt>
      <trkpt lat="46.05088" lon="4.70024">
        <ele>203</ele>
        <time>2017-12-09T10:41:29Z</time>
      </trkpt>
      <trkpt lat="46.0509" lon="4.70017">
        <ele>203</ele>
        <time>2017-12-09T10:41:30Z</time>
      </trkpt>
      <trkpt lat="46.05093" lon="4.70011">
        <ele>204</ele>
        <time>2017-12-09T10:41:31Z</time>
      </trkpt>
      <trkpt lat="46.05095" lon="4.70005">
        <ele>204</ele>
        <time>2017-12-09T10:41:32Z</time>
      </trkpt>
      <trkpt lat="46.05096" lon="4.69997">
        <ele>204</ele>
        <time>2017-12-09T10:41:33Z</time>
      </trkpt>
      <trkpt lat="46.05098" lon="4.6999">
        <ele>204</ele>
        <time>2017-12-09T10:41:34Z</time>
      </trkpt>
      <trkpt lat="46.051" lon="4.69982">
        <ele>204</ele>
        <time>2017-12-09T10:41:35Z</time>
      </trkpt>
      <trkpt lat="46.05101" lon="4.69975">
        <ele>203</ele>
        <time>2017-12-09T10:41:36Z</time>
      </trkpt>
      <trkpt lat="46.05102" lon="4.69967">
        <ele>203</ele>
        <time>2017-12-09T10:41:37Z</time>
      </trkpt>
      <trkpt lat="46.05102" lon="4.69961">
        <ele>203</ele>
        <time>2017-12-09T10:41:38Z</time>
      </trkpt>
      <trkpt lat="46.05103" lon="4.69954">
        <ele>203</ele>
        <time>2017-12-09T10:41:39Z</time>
      </trkpt>
      <trkpt lat="46.05104" lon="4.69947">
        <ele>203</ele>
        <time>2017-12-09T10:41:40Z</time>
      </trkpt>
      <trkpt lat="46.05105" lon="4.6994">
        <ele>203</ele>
        <time>2017-12-09T10:41:41Z</time>
      </trkpt>
      <trkpt lat="46.05106" lon="4.69932">
        <ele>203</ele>
        <time>2017-12-09T10:41:42Z</time>
      </trkpt>
      <trkpt lat="46.05108" lon="4.69925">
        <ele>203</ele>
        <time>2017-12-09T10:41:43Z</time>
      </trkpt>
      <trkpt lat="46.05109" lon="4.69918">
        <ele>203</ele>
        <time>2017-12-09T10:41:44Z</time>
      </trkpt>
      <trkpt lat="46.05111" lon="4.69912">
        <ele>204</ele>
        <time>2017-12-09T10:41:45Z</time>
      </trkpt>
      <trkpt lat="46.05112" lon="4.69906">
        <ele>204</ele>
        <time>2017-12-09T10:41:46Z</time>
      </trkpt>
      <trkpt lat="46.05113" lon="4.699">
        <ele>204</ele>
        <time>2017-12-09T10:41:47Z</time>
      </trkpt>
      <trkpt lat="46.05115" lon="4.69893">
        <ele>204</ele>
        <time>2017-12-09T10:41:48Z</time>
      </trkpt>
      <trkpt lat="46.05116" lon="4.69886">
        <ele>204</ele>
        <time>2017-12-09T10:41:49Z</time>
      </trkpt>
      <trkpt lat="46.05117" lon="4.69879">
        <ele>204</ele>
        <time>2017-12-09T10:41:50Z</time>
      </trkpt>
      <trkpt lat="46.05118" lon="4.69871">
        <ele>204</ele>
        <time>2017-12-09T10:41:51Z</time>
      </trkpt>
      <trkpt lat="46.0512" lon="4.69864">
        <ele>204</ele>
        <time>2017-12-09T10:41:52Z</time>
      </trkpt>
      <trkpt lat="46.0512" lon="4.69857">
        <ele>204</ele>
        <time>2017-12-09T10:41:53Z</time>
      </trkpt>
      <trkpt lat="46.05122" lon="4.6985">
        <ele>204</ele>
        <time>2017-12-09T10:41:54Z</time>
      </trkpt>
      <trkpt lat="46.05124" lon="4.69845">
        <ele>204</ele>
        <time>2017-12-09T10:41:55Z</time>
      </trkpt>
      <trkpt lat="46.05128" lon="4.69836">
        <ele>204</ele>
        <time>2017-12-09T10:41:57Z</time>
      </trkpt>
      <trkpt lat="46.05132" lon="4.69832">
        <ele>204</ele>
        <time>2017-12-09T10:41:58Z</time>
      </trkpt>
      <trkpt lat="46.0514" lon="4.69828">
        <ele>204</ele>
        <time>2017-12-09T10:42:00Z</time>
      </trkpt>
      <trkpt lat="46.05145" lon="4.69829">
        <ele>204</ele>
        <time>2017-12-09T10:42:01Z</time>
      </trkpt>
      <trkpt lat="46.05149" lon="4.6983">
        <ele>204</ele>
        <time>2017-12-09T10:42:02Z</time>
      </trkpt>
      <trkpt lat="46.05154" lon="4.69832">
        <ele>203</ele>
        <time>2017-12-09T10:42:03Z</time>
      </trkpt>
      <trkpt lat="46.05159" lon="4.69834">
        <ele>203</ele>
        <time>2017-12-09T10:42:04Z</time>
      </trkpt>
      <trkpt lat="46.05164" lon="4.69836">
        <ele>203</ele>
        <time>2017-12-09T10:42:05Z</time>
      </trkpt>
      <trkpt lat="46.0517" lon="4.69838">
        <ele>203</ele>
        <time>2017-12-09T10:42:06Z</time>
      </trkpt>
      <trkpt lat="46.05175" lon="4.6984">
        <ele>202</ele>
        <time>2017-12-09T10:42:07Z</time>
      </trkpt>
      <trkpt lat="46.05181" lon="4.69842">
        <ele>202</ele>
        <time>2017-12-09T10:42:08Z</time>
      </trkpt>
      <trkpt lat="46.05188" lon="4.69844">
        <ele>202</ele>
        <time>2017-12-09T10:42:09Z</time>
      </trkpt>
      <trkpt lat="46.05193" lon="4.69846">
        <ele>202</ele>
        <time>2017-12-09T10:42:10Z</time>
      </trkpt>
      <trkpt lat="46.05199" lon="4.69848">
        <ele>201</ele>
        <time>2017-12-09T10:42:11Z</time>
      </trkpt>
      <trkpt lat="46.05204" lon="4.69851">
        <ele>201</ele>
        <time>2017-12-09T10:42:12Z</time>
      </trkpt>
      <trkpt lat="46.0521" lon="4.69854">
        <ele>201</ele>
        <time>2017-12-09T10:42:13Z</time>
      </trkpt>
      <trkpt lat="46.05216" lon="4.69857">
        <ele>201</ele>
        <time>2017-12-09T10:42:14Z</time>
      </trkpt>
      <trkpt lat="46.05222" lon="4.69859">
        <ele>201</ele>
        <time>2017-12-09T10:42:15Z</time>
      </trkpt>
      <trkpt lat="46.05228" lon="4.69861">
        <ele>201</ele>
        <time>2017-12-09T10:42:16Z</time>
      </trkpt>
      <trkpt lat="46.05234" lon="4.69862">
        <ele>201</ele>
        <time>2017-12-09T10:42:17Z</time>
      </trkpt>
      <trkpt lat="46.0524" lon="4.69863">
        <ele>201</ele>
        <time>2017-12-09T10:42:18Z</time>
      </trkpt>
      <trkpt lat="46.05246" lon="4.69865">
        <ele>201</ele>
        <time>2017-12-09T10:42:19Z</time>
      </trkpt>
      <trkpt lat="46.05252" lon="4.69866">
        <ele>199</ele>
        <time>2017-12-09T10:42:20Z</time>
      </trkpt>
      <trkpt lat="46.05259" lon="4.69867">
        <ele>199</ele>
        <time>2017-12-09T10:42:21Z</time>
      </trkpt>
      <trkpt lat="46.05264" lon="4.69869">
        <ele>199</ele>
        <time>2017-12-09T10:42:22Z</time>
      </trkpt>
      <trkpt lat="46.0527" lon="4.69871">
        <ele>199</ele>
        <time>2017-12-09T10:42:23Z</time>
      </trkpt>
      <trkpt lat="46.05276" lon="4.69872">
        <ele>199</ele>
        <time>2017-12-09T10:42:24Z</time>
      </trkpt>
      <trkpt lat="46.05282" lon="4.69874">
        <ele>199</ele>
        <time>2017-12-09T10:42:25Z</time>
      </trkpt>
      <trkpt lat="46.05288" lon="4.69875">
        <ele>199</ele>
        <time>2017-12-09T10:42:26Z</time>
      </trkpt>
      <trkpt lat="46.05294" lon="4.69876">
        <ele>199</ele>
        <time>2017-12-09T10:42:27Z</time>
      </trkpt>
      <trkpt lat="46.05299" lon="4.69877">
        <ele>199</ele>
        <time>2017-12-09T10:42:28Z</time>
      </trkpt>
      <trkpt lat="46.05305" lon="4.69879">
        <ele>199</ele>
        <time>2017-12-09T10:42:29Z</time>
      </trkpt>
      <trkpt lat="46.0531" lon="4.6988">
        <ele>199</ele>
        <time>2017-12-09T10:42:30Z</time>
      </trkpt>
      <trkpt lat="46.05316" lon="4.6988">
        <ele>199</ele>
        <time>2017-12-09T10:42:31Z</time>
      </trkpt>
      <trkpt lat="46.05322" lon="4.69881">
        <ele>199</ele>
        <time>2017-12-09T10:42:32Z</time>
      </trkpt>
      <trkpt lat="46.05327" lon="4.69882">
        <ele>199</ele>
        <time>2017-12-09T10:42:33Z</time>
      </trkpt>
      <trkpt lat="46.05332" lon="4.69883">
        <ele>199</ele>
        <time>2017-12-09T10:42:34Z</time>
      </trkpt>
      <trkpt lat="46.05337" lon="4.69885">
        <ele>199</ele>
        <time>2017-12-09T10:42:35Z</time>
      </trkpt>
      <trkpt lat="46.05342" lon="4.69886">
        <ele>199</ele>
        <time>2017-12-09T10:42:36Z</time>
      </trkpt>
      <trkpt lat="46.05348" lon="4.69888">
        <ele>199</ele>
        <time>2017-12-09T10:42:37Z</time>
      </trkpt>
      <trkpt lat="46.05353" lon="4.6989">
        <ele>199</ele>
        <time>2017-12-09T10:42:38Z</time>
      </trkpt>
      <trkpt lat="46.05358" lon="4.69892">
        <ele>199</ele>
        <time>2017-12-09T10:42:39Z</time>
      </trkpt>
      <trkpt lat="46.05365" lon="4.69895">
        <ele>199</ele>
        <time>2017-12-09T10:42:40Z</time>
      </trkpt>
      <trkpt lat="46.0537" lon="4.69897">
        <ele>199</ele>
        <time>2017-12-09T10:42:41Z</time>
      </trkpt>
      <trkpt lat="46.05377" lon="4.69898">
        <ele>199</ele>
        <time>2017-12-09T10:42:42Z</time>
      </trkpt>
      <trkpt lat="46.05383" lon="4.69901">
        <ele>199</ele>
        <time>2017-12-09T10:42:43Z</time>
      </trkpt>
      <trkpt lat="46.05389" lon="4.69903">
        <ele>199</ele>
        <time>2017-12-09T10:42:44Z</time>
      </trkpt>
      <trkpt lat="46.05394" lon="4.69906">
        <ele>199</ele>
        <time>2017-12-09T10:42:45Z</time>
      </trkpt>
      <trkpt lat="46.054" lon="4.69908">
        <ele>199</ele>
        <time>2017-12-09T10:42:46Z</time>
      </trkpt>
      <trkpt lat="46.05404" lon="4.6991">
        <ele>199</ele>
        <time>2017-12-09T10:42:47Z</time>
      </trkpt>
      <trkpt lat="46.05409" lon="4.6991">
        <ele>199</ele>
        <time>2017-12-09T10:42:48Z</time>
      </trkpt>
      <trkpt lat="46.05414" lon="4.6991">
        <ele>199</ele>
        <time>2017-12-09T10:42:49Z</time>
      </trkpt>
      <trkpt lat="46.05419" lon="4.69909">
        <ele>199</ele>
        <time>2017-12-09T10:42:50Z</time>
      </trkpt>
      <trkpt lat="46.05424" lon="4.69907">
        <ele>199</ele>
        <time>2017-12-09T10:42:51Z</time>
      </trkpt>
      <trkpt lat="46.05429" lon="4.69905">
        <ele>199</ele>
        <time>2017-12-09T10:42:52Z</time>
      </trkpt>
      <trkpt lat="46.05435" lon="4.69903">
        <ele>199</ele>
        <time>2017-12-09T10:42:53Z</time>
      </trkpt>
      <trkpt lat="46.0544" lon="4.69901">
        <ele>199</ele>
        <time>2017-12-09T10:42:54Z</time>
      </trkpt>
      <trkpt lat="46.05445" lon="4.69899">
        <ele>199</ele>
        <time>2017-12-09T10:42:55Z</time>
      </trkpt>
      <trkpt lat="46.05449" lon="4.69897">
        <ele>199</ele>
        <time>2017-12-09T10:42:56Z</time>
      </trkpt>
      <trkpt lat="46.05455" lon="4.69895">
        <ele>199</ele>
        <time>2017-12-09T10:42:57Z</time>
      </trkpt>
      <trkpt lat="46.05463" lon="4.69893">
        <ele>199</ele>
        <time>2017-12-09T10:42:59Z</time>
      </trkpt>
      <trkpt lat="46.05468" lon="4.69891">
        <ele>199</ele>
        <time>2017-12-09T10:43:00Z</time>
      </trkpt>
      <trkpt lat="46.05474" lon="4.69889">
        <ele>199</ele>
        <time>2017-12-09T10:43:01Z</time>
      </trkpt>
      <trkpt lat="46.05478" lon="4.69887">
        <ele>199</ele>
        <time>2017-12-09T10:43:02Z</time>
      </trkpt>
      <trkpt lat="46.05484" lon="4.69885">
        <ele>199</ele>
        <time>2017-12-09T10:43:03Z</time>
      </trkpt>
      <trkpt lat="46.05489" lon="4.69884">
        <ele>199</ele>
        <time>2017-12-09T10:43:04Z</time>
      </trkpt>
      <trkpt lat="46.05493" lon="4.69882">
        <ele>199</ele>
        <time>2017-12-09T10:43:05Z</time>
      </trkpt>
      <trkpt lat="46.05498" lon="4.69881">
        <ele>199</ele>
        <time>2017-12-09T10:43:06Z</time>
      </trkpt>
      <trkpt lat="46.05502" lon="4.6988">
        <ele>199</ele>
        <time>2017-12-09T10:43:07Z</time>
      </trkpt>
      <trkpt lat="46.05507" lon="4.69879">
        <ele>199</ele>
        <time>2017-12-09T10:43:08Z</time>
      </trkpt>
      <trkpt lat="46.05515" lon="4.69876">
        <ele>199</ele>
        <time>2017-12-09T10:43:10Z</time>
      </trkpt>
      <trkpt lat="46.05518" lon="4.69874">
        <ele>199</ele>
        <time>2017-12-09T10:43:11Z</time>
      </trkpt>
      <trkpt lat="46.05522" lon="4.69872">
        <ele>199</ele>
        <time>2017-12-09T10:43:12Z</time>
      </trkpt>
      <trkpt lat="46.05526" lon="4.69868">
        <ele>200</ele>
        <time>2017-12-09T10:43:13Z</time>
      </trkpt>
      <trkpt lat="46.05535" lon="4.69865">
        <ele>200</ele>
        <time>2017-12-09T10:43:15Z</time>
      </trkpt>
      <trkpt lat="46.05538" lon="4.69864">
        <ele>200</ele>
        <time>2017-12-09T10:43:16Z</time>
      </trkpt>
      <trkpt lat="46.05545" lon="4.6986">
        <ele>200</ele>
        <time>2017-12-09T10:43:18Z</time>
      </trkpt>
      <trkpt lat="46.05549" lon="4.69859">
        <ele>200</ele>
        <time>2017-12-09T10:43:19Z</time>
      </trkpt>
      <trkpt lat="46.05557" lon="4.69857">
        <ele>200</ele>
        <time>2017-12-09T10:43:21Z</time>
      </trkpt>
      <trkpt lat="46.05561" lon="4.69856">
        <ele>200</ele>
        <time>2017-12-09T10:43:22Z</time>
      </trkpt>
      <trkpt lat="46.05569" lon="4.69858">
        <ele>200</ele>
        <time>2017-12-09T10:43:23Z</time>
      </trkpt>
      <trkpt lat="46.05572" lon="4.69862">
        <ele>200</ele>
        <time>2017-12-09T10:43:24Z</time>
      </trkpt>
      <trkpt lat="46.05579" lon="4.69871">
        <ele>200</ele>
        <time>2017-12-09T10:43:26Z</time>
      </trkpt>
      <trkpt lat="46.05582" lon="4.69877">
        <ele>200</ele>
        <time>2017-12-09T10:43:27Z</time>
      </trkpt>
      <trkpt lat="46.05585" lon="4.69883">
        <ele>201</ele>
        <time>2017-12-09T10:43:28Z</time>
      </trkpt>
      <trkpt lat="46.05588" lon="4.69889">
        <ele>201</ele>
        <time>2017-12-09T10:43:29Z</time>
      </trkpt>
      <trkpt lat="46.05591" lon="4.69896">
        <ele>201</ele>
        <time>2017-12-09T10:43:30Z</time>
      </trkpt>
      <trkpt lat="46.05594" lon="4.69903">
        <ele>201</ele>
        <time>2017-12-09T10:43:31Z</time>
      </trkpt>
      <trkpt lat="46.05595" lon="4.6991">
        <ele>201</ele>
        <time>2017-12-09T10:43:32Z</time>
      </trkpt>
      <trkpt lat="46.05598" lon="4.69917">
        <ele>201</ele>
        <time>2017-12-09T10:43:33Z</time>
      </trkpt>
      <trkpt lat="46.05602" lon="4.69923">
        <ele>201</ele>
        <time>2017-12-09T10:43:34Z</time>
      </trkpt>
      <trkpt lat="46.05605" lon="4.69929">
        <ele>201</ele>
        <time>2017-12-09T10:43:35Z</time>
      </trkpt>
      <trkpt lat="46.05609" lon="4.69935">
        <ele>201</ele>
        <time>2017-12-09T10:43:36Z</time>
      </trkpt>
      <trkpt lat="46.05612" lon="4.6994">
        <ele>201</ele>
        <time>2017-12-09T10:43:37Z</time>
      </trkpt>
      <trkpt lat="46.05615" lon="4.69947">
        <ele>201</ele>
        <time>2017-12-09T10:43:38Z</time>
      </trkpt>
      <trkpt lat="46.05618" lon="4.69952">
        <ele>201</ele>
        <time>2017-12-09T10:43:39Z</time>
      </trkpt>
      <trkpt lat="46.05621" lon="4.69958">
        <ele>201</ele>
        <time>2017-12-09T10:43:40Z</time>
      </trkpt>
      <trkpt lat="46.05623" lon="4.69964">
        <ele>201</ele>
        <time>2017-12-09T10:43:41Z</time>
      </trkpt>
      <trkpt lat="46.05626" lon="4.6997">
        <ele>201</ele>
        <time>2017-12-09T10:43:42Z</time>
      </trkpt>
      <trkpt lat="46.05629" lon="4.69975">
        <ele>201</ele>
        <time>2017-12-09T10:43:43Z</time>
      </trkpt>
      <trkpt lat="46.05632" lon="4.69982">
        <ele>201</ele>
        <time>2017-12-09T10:43:44Z</time>
      </trkpt>
      <trkpt lat="46.05635" lon="4.69989">
        <ele>201</ele>
        <time>2017-12-09T10:43:45Z</time>
      </trkpt>
      <trkpt lat="46.05638" lon="4.69995">
        <ele>200</ele>
        <time>2017-12-09T10:43:46Z</time>
      </trkpt>
      <trkpt lat="46.05641" lon="4.70001">
        <ele>200</ele>
        <time>2017-12-09T10:43:47Z</time>
      </trkpt>
      <trkpt lat="46.05644" lon="4.70007">
        <ele>200</ele>
        <time>2017-12-09T10:43:48Z</time>
      </trkpt>
      <trkpt lat="46.05648" lon="4.70014">
        <ele>200</ele>
        <time>2017-12-09T10:43:49Z</time>
      </trkpt>
      <trkpt lat="46.05651" lon="4.70021">
        <ele>200</ele>
        <time>2017-12-09T10:43:50Z</time>
      </trkpt>
      <trkpt lat="46.05656" lon="4.70028">
        <ele>200</ele>
        <time>2017-12-09T10:43:51Z</time>
      </trkpt>
      <trkpt lat="46.0566" lon="4.70036">
        <ele>200</ele>
        <time>2017-12-09T10:43:52Z</time>
      </trkpt>
      <trkpt lat="46.05664" lon="4.70043">
        <ele>200</ele>
        <time>2017-12-09T10:43:53Z</time>
      </trkpt>
      <trkpt lat="46.05667" lon="4.70049">
        <ele>199</ele>
        <time>2017-12-09T10:43:54Z</time>
      </trkpt>
      <trkpt lat="46.0567" lon="4.70055">
        <ele>199</ele>
        <time>2017-12-09T10:43:55Z</time>
      </trkpt>
      <trkpt lat="46.05673" lon="4.70062">
        <ele>199</ele>
        <time>2017-12-09T10:43:56Z</time>
      </trkpt>
      <trkpt lat="46.05676" lon="4.70067">
        <ele>199</ele>
        <time>2017-12-09T10:43:57Z</time>
      </trkpt>
      <trkpt lat="46.0568" lon="4.70074">
        <ele>199</ele>
        <time>2017-12-09T10:43:58Z</time>
      </trkpt>
      <trkpt lat="46.05683" lon="4.70078">
        <ele>199</ele>
        <time>2017-12-09T10:43:59Z</time>
      </trkpt>
      <trkpt lat="46.05686" lon="4.70084">
        <ele>199</ele>
        <time>2017-12-09T10:44:00Z</time>
      </trkpt>
      <trkpt lat="46.05689" lon="4.70089">
        <ele>198</ele>
        <time>2017-12-09T10:44:01Z</time>
      </trkpt>
      <trkpt lat="46.05692" lon="4.70095">
        <ele>198</ele>
        <time>2017-12-09T10:44:02Z</time>
      </trkpt>
      <trkpt lat="46.05694" lon="4.701">
        <ele>198</ele>
        <time>2017-12-09T10:44:03Z</time>
      </trkpt>
      <trkpt lat="46.05698" lon="4.70104">
        <ele>198</ele>
        <time>2017-12-09T10:44:04Z</time>
      </trkpt>
      <trkpt lat="46.05701" lon="4.7011">
        <ele>198</ele>
        <time>2017-12-09T10:44:05Z</time>
      </trkpt>
      <trkpt lat="46.05703" lon="4.70115">
        <ele>198</ele>
        <time>2017-12-09T10:44:06Z</time>
      </trkpt>
      <trkpt lat="46.05707" lon="4.7012">
        <ele>198</ele>
        <time>2017-12-09T10:44:07Z</time>
      </trkpt>
      <trkpt lat="46.0571" lon="4.70127">
        <ele>198</ele>
        <time>2017-12-09T10:44:08Z</time>
      </trkpt>
      <trkpt lat="46.05714" lon="4.70134">
        <ele>198</ele>
        <time>2017-12-09T10:44:09Z</time>
      </trkpt>
      <trkpt lat="46.05717" lon="4.7014">
        <ele>198</ele>
        <time>2017-12-09T10:44:10Z</time>
      </trkpt>
      <trkpt lat="46.05721" lon="4.70146">
        <ele>198</ele>
        <time>2017-12-09T10:44:11Z</time>
      </trkpt>
      <trkpt lat="46.05724" lon="4.70153">
        <ele>198</ele>
        <time>2017-12-09T10:44:12Z</time>
      </trkpt>
      <trkpt lat="46.05728" lon="4.70158">
        <ele>198</ele>
        <time>2017-12-09T10:44:13Z</time>
      </trkpt>
      <trkpt lat="46.05731" lon="4.70165">
        <ele>199</ele>
        <time>2017-12-09T10:44:14Z</time>
      </trkpt>
      <trkpt lat="46.05734" lon="4.70171">
        <ele>198</ele>
        <time>2017-12-09T10:44:15Z</time>
      </trkpt>
      <trkpt lat="46.05737" lon="4.70177">
        <ele>198</ele>
        <time>2017-12-09T10:44:16Z</time>
      </trkpt>
      <trkpt lat="46.05741" lon="4.70183">
        <ele>198</ele>
        <time>2017-12-09T10:44:17Z</time>
      </trkpt>
      <trkpt lat="46.05744" lon="4.7019">
        <ele>198</ele>
        <time>2017-12-09T10:44:18Z</time>
      </trkpt>
      <trkpt lat="46.05748" lon="4.70198">
        <ele>198</ele>
        <time>2017-12-09T10:44:19Z</time>
      </trkpt>
      <trkpt lat="46.05752" lon="4.70204">
        <ele>198</ele>
        <time>2017-12-09T10:44:20Z</time>
      </trkpt>
      <trkpt lat="46.05755" lon="4.70211">
        <ele>198</ele>
        <time>2017-12-09T10:44:21Z</time>
      </trkpt>
      <trkpt lat="46.0576" lon="4.70218">
        <ele>198</ele>
        <time>2017-12-09T10:44:22Z</time>
      </trkpt>
      <trkpt lat="46.05764" lon="4.70223">
        <ele>198</ele>
        <time>2017-12-09T10:44:23Z</time>
      </trkpt>
      <trkpt lat="46.05768" lon="4.7023">
        <ele>198</ele>
        <time>2017-12-09T10:44:24Z</time>
      </trkpt>
      <trkpt lat="46.05771" lon="4.70237">
        <ele>198</ele>
        <time>2017-12-09T10:44:25Z</time>
      </trkpt>
      <trkpt lat="46.05775" lon="4.70244">
        <ele>198</ele>
        <time>2017-12-09T10:44:26Z</time>
      </trkpt>
      <trkpt lat="46.05778" lon="4.70251">
        <ele>198</ele>
        <time>2017-12-09T10:44:27Z</time>
      </trkpt>
      <trkpt lat="46.05781" lon="4.70256">
        <ele>198</ele>
        <time>2017-12-09T10:44:28Z</time>
      </trkpt>
      <trkpt lat="46.05785" lon="4.70262">
        <ele>198</ele>
        <time>2017-12-09T10:44:29Z</time>
      </trkpt>
      <trkpt lat="46.05788" lon="4.70268">
        <ele>198</ele>
        <time>2017-12-09T10:44:30Z</time>
      </trkpt>
      <trkpt lat="46.05792" lon="4.70273">
        <ele>197</ele>
        <time>2017-12-09T10:44:31Z</time>
      </trkpt>
      <trkpt lat="46.05796" lon="4.70278">
        <ele>197</ele>
        <time>2017-12-09T10:44:32Z</time>
      </trkpt>
      <trkpt lat="46.05799" lon="4.70283">
        <ele>197</ele>
        <time>2017-12-09T10:44:33Z</time>
      </trkpt>
      <trkpt lat="46.05806" lon="4.70292">
        <ele>197</ele>
        <time>2017-12-09T10:44:35Z</time>
      </trkpt>
      <trkpt lat="46.05809" lon="4.70296">
        <ele>197</ele>
        <time>2017-12-09T10:44:36Z</time>
      </trkpt>
      <trkpt lat="46.05812" lon="4.70301">
        <ele>197</ele>
        <time>2017-12-09T10:44:37Z</time>
      </trkpt>
      <trkpt lat="46.05815" lon="4.70307">
        <ele>197</ele>
        <time>2017-12-09T10:44:38Z</time>
      </trkpt>
      <trkpt lat="46.0582" lon="4.70312">
        <ele>197</ele>
        <time>2017-12-09T10:44:39Z</time>
      </trkpt>
      <trkpt lat="46.05824" lon="4.70317">
        <ele>197</ele>
        <time>2017-12-09T10:44:40Z</time>
      </trkpt>
      <trkpt lat="46.05828" lon="4.70323">
        <ele>197</ele>
        <time>2017-12-09T10:44:41Z</time>
      </trkpt>
      <trkpt lat="46.05832" lon="4.70328">
        <ele>197</ele>
        <time>2017-12-09T10:44:42Z</time>
      </trkpt>
      <trkpt lat="46.05836" lon="4.70334">
        <ele>197</ele>
        <time>2017-12-09T10:44:43Z</time>
      </trkpt>
      <trkpt lat="46.05839" lon="4.7034">
        <ele>197</ele>
        <time>2017-12-09T10:44:44Z</time>
      </trkpt>
      <trkpt lat="46.05843" lon="4.70345">
        <ele>197</ele>
        <time>2017-12-09T10:44:45Z</time>
      </trkpt>
      <trkpt lat="46.05847" lon="4.70351">
        <ele>196</ele>
        <time>2017-12-09T10:44:46Z</time>
      </trkpt>
      <trkpt lat="46.0585" lon="4.70357">
        <ele>196</ele>
        <time>2017-12-09T10:44:47Z</time>
      </trkpt>
      <trkpt lat="46.05854" lon="4.70363">
        <ele>196</ele>
        <time>2017-12-09T10:44:48Z</time>
      </trkpt>
      <trkpt lat="46.05858" lon="4.70369">
        <ele>196</ele>
        <time>2017-12-09T10:44:49Z</time>
      </trkpt>
      <trkpt lat="46.05862" lon="4.70374">
        <ele>196</ele>
        <time>2017-12-09T10:44:50Z</time>
      </trkpt>
      <trkpt lat="46.05867" lon="4.70381">
        <ele>196</ele>
        <time>2017-12-09T10:44:51Z</time>
      </trkpt>
      <trkpt lat="46.05871" lon="4.70387">
        <ele>196</ele>
        <time>2017-12-09T10:44:52Z</time>
      </trkpt>
      <trkpt lat="46.05875" lon="4.70394">
        <ele>196</ele>
        <time>2017-12-09T10:44:53Z</time>
      </trkpt>
      <trkpt lat="46.05879" lon="4.70401">
        <ele>196</ele>
        <time>2017-12-09T10:44:54Z</time>
      </trkpt>
      <trkpt lat="46.05883" lon="4.70407">
        <ele>196</ele>
        <time>2017-12-09T10:44:55Z</time>
      </trkpt>
      <trkpt lat="46.05887" lon="4.70413">
        <ele>196</ele>
        <time>2017-12-09T10:44:56Z</time>
      </trkpt>
      <trkpt lat="46.05892" lon="4.7042">
        <ele>195</ele>
        <time>2017-12-09T10:44:57Z</time>
      </trkpt>
      <trkpt lat="46.05895" lon="4.70425">
        <ele>195</ele>
        <time>2017-12-09T10:44:58Z</time>
      </trkpt>
      <trkpt lat="46.05898" lon="4.70432">
        <ele>195</ele>
        <time>2017-12-09T10:44:59Z</time>
      </trkpt>
      <trkpt lat="46.05902" lon="4.70438">
        <ele>195</ele>
        <time>2017-12-09T10:45:00Z</time>
      </trkpt>
      <trkpt lat="46.05905" lon="4.70444">
        <ele>195</ele>
        <time>2017-12-09T10:45:01Z</time>
      </trkpt>
      <trkpt lat="46.05908" lon="4.70449">
        <ele>195</ele>
        <time>2017-12-09T10:45:02Z</time>
      </trkpt>
      <trkpt lat="46.05913" lon="4.70459">
        <ele>195</ele>
        <time>2017-12-09T10:45:04Z</time>
      </trkpt>
      <trkpt lat="46.05915" lon="4.70465">
        <ele>195</ele>
        <time>2017-12-09T10:45:05Z</time>
      </trkpt>
      <trkpt lat="46.05918" lon="4.70477">
        <ele>195</ele>
        <time>2017-12-09T10:45:07Z</time>
      </trkpt>
      <trkpt lat="46.05921" lon="4.70483">
        <ele>195</ele>
        <time>2017-12-09T10:45:08Z</time>
      </trkpt>
      <trkpt lat="46.05923" lon="4.70495">
        <ele>196</ele>
        <time>2017-12-09T10:45:10Z</time>
      </trkpt>
      <trkpt lat="46.05924" lon="4.70503">
        <ele>196</ele>
        <time>2017-12-09T10:45:11Z</time>
      </trkpt>
      <trkpt lat="46.05924" lon="4.7051">
        <ele>195</ele>
        <time>2017-12-09T10:45:12Z</time>
      </trkpt>
      <trkpt lat="46.05924" lon="4.70519">
        <ele>195</ele>
        <time>2017-12-09T10:45:13Z</time>
      </trkpt>
      <trkpt lat="46.05923" lon="4.70527">
        <ele>195</ele>
        <time>2017-12-09T10:45:14Z</time>
      </trkpt>
      <trkpt lat="46.05921" lon="4.70535">
        <ele>195</ele>
        <time>2017-12-09T10:45:15Z</time>
      </trkpt>
      <trkpt lat="46.05919" lon="4.70541">
        <ele>195</ele>
        <time>2017-12-09T10:45:16Z</time>
      </trkpt>
      <trkpt lat="46.05917" lon="4.70549">
        <ele>195</ele>
        <time>2017-12-09T10:45:17Z</time>
      </trkpt>
      <trkpt lat="46.05914" lon="4.70557">
        <ele>195</ele>
        <time>2017-12-09T10:45:18Z</time>
      </trkpt>
      <trkpt lat="46.05912" lon="4.70563">
        <ele>195</ele>
        <time>2017-12-09T10:45:19Z</time>
      </trkpt>
      <trkpt lat="46.0591" lon="4.7057">
        <ele>195</ele>
        <time>2017-12-09T10:45:20Z</time>
      </trkpt>
      <trkpt lat="46.05908" lon="4.70576">
        <ele>195</ele>
        <time>2017-12-09T10:45:21Z</time>
      </trkpt>
      <trkpt lat="46.05905" lon="4.70584">
        <ele>195</ele>
        <time>2017-12-09T10:45:22Z</time>
      </trkpt>
      <trkpt lat="46.05904" lon="4.70592">
        <ele>194</ele>
        <time>2017-12-09T10:45:23Z</time>
      </trkpt>
      <trkpt lat="46.05903" lon="4.706">
        <ele>194</ele>
        <time>2017-12-09T10:45:24Z</time>
      </trkpt>
      <trkpt lat="46.05902" lon="4.7061">
        <ele>194</ele>
        <time>2017-12-09T10:45:25Z</time>
      </trkpt>
      <trkpt lat="46.05902" lon="4.7062">
        <ele>194</ele>
        <time>2017-12-09T10:45:26Z</time>
      </trkpt>
      <trkpt lat="46.059" lon="4.70628">
        <ele>194</ele>
        <time>2017-12-09T10:45:27Z</time>
      </trkpt>
      <trkpt lat="46.05899" lon="4.70636">
        <ele>194</ele>
        <time>2017-12-09T10:45:28Z</time>
      </trkpt>
      <trkpt lat="46.05899" lon="4.70644">
        <ele>194</ele>
        <time>2017-12-09T10:45:29Z</time>
      </trkpt>
      <trkpt lat="46.05898" lon="4.70652">
        <ele>194</ele>
        <time>2017-12-09T10:45:30Z</time>
      </trkpt>
      <trkpt lat="46.05897" lon="4.7066">
        <ele>194</ele>
        <time>2017-12-09T10:45:31Z</time>
      </trkpt>
      <trkpt lat="46.05897" lon="4.70668">
        <ele>194</ele>
        <time>2017-12-09T10:45:32Z</time>
      </trkpt>
      <trkpt lat="46.05896" lon="4.70675">
        <ele>194</ele>
        <time>2017-12-09T10:45:33Z</time>
      </trkpt>
      <trkpt lat="46.05897" lon="4.70682">
        <ele>194</ele>
        <time>2017-12-09T10:45:34Z</time>
      </trkpt>
      <trkpt lat="46.05898" lon="4.70689">
        <ele>194</ele>
        <time>2017-12-09T10:45:35Z</time>
      </trkpt>
      <trkpt lat="46.05899" lon="4.70697">
        <ele>194</ele>
        <time>2017-12-09T10:45:36Z</time>
      </trkpt>
      <trkpt lat="46.05901" lon="4.70705">
        <ele>194</ele>
        <time>2017-12-09T10:45:37Z</time>
      </trkpt>
      <trkpt lat="46.05902" lon="4.70712">
        <ele>194</ele>
        <time>2017-12-09T10:45:38Z</time>
      </trkpt>
      <trkpt lat="46.05904" lon="4.70719">
        <ele>194</ele>
        <time>2017-12-09T10:45:39Z</time>
      </trkpt>
      <trkpt lat="46.05905" lon="4.70726">
        <ele>194</ele>
        <time>2017-12-09T10:45:40Z</time>
      </trkpt>
      <trkpt lat="46.05907" lon="4.70732">
        <ele>194</ele>
        <time>2017-12-09T10:45:41Z</time>
      </trkpt>
      <trkpt lat="46.05908" lon="4.70741">
        <ele>194</ele>
        <time>2017-12-09T10:45:42Z</time>
      </trkpt>
      <trkpt lat="46.0591" lon="4.70748">
        <ele>194</ele>
        <time>2017-12-09T10:45:43Z</time>
      </trkpt>
      <trkpt lat="46.05912" lon="4.70756">
        <ele>194</ele>
        <time>2017-12-09T10:45:44Z</time>
      </trkpt>
      <trkpt lat="46.05914" lon="4.70765">
        <ele>194</ele>
        <time>2017-12-09T10:45:45Z</time>
      </trkpt>
      <trkpt lat="46.05915" lon="4.70773">
        <ele>194</ele>
        <time>2017-12-09T10:45:46Z</time>
      </trkpt>
      <trkpt lat="46.05916" lon="4.70782">
        <ele>194</ele>
        <time>2017-12-09T10:45:47Z</time>
      </trkpt>
      <trkpt lat="46.05918" lon="4.7079">
        <ele>194</ele>
        <time>2017-12-09T10:45:48Z</time>
      </trkpt>
      <trkpt lat="46.05919" lon="4.70798">
        <ele>194</ele>
        <time>2017-12-09T10:45:49Z</time>
      </trkpt>
      <trkpt lat="46.0592" lon="4.70806">
        <ele>194</ele>
        <time>2017-12-09T10:45:50Z</time>
      </trkpt>
      <trkpt lat="46.05921" lon="4.70813">
        <ele>194</ele>
        <time>2017-12-09T10:45:51Z</time>
      </trkpt>
      <trkpt lat="46.05921" lon="4.7082">
        <ele>195</ele>
        <time>2017-12-09T10:45:52Z</time>
      </trkpt>
      <trkpt lat="46.05925" lon="4.70829">
        <ele>195</ele>
        <time>2017-12-09T10:45:53Z</time>
      </trkpt>
      <trkpt lat="46.05926" lon="4.70836">
        <ele>195</ele>
        <time>2017-12-09T10:45:54Z</time>
      </trkpt>
      <trkpt lat="46.05926" lon="4.70844">
        <ele>194</ele>
        <time>2017-12-09T10:45:55Z</time>
      </trkpt>
      <trkpt lat="46.05927" lon="4.70851">
        <ele>194</ele>
        <time>2017-12-09T10:45:56Z</time>
      </trkpt>
      <trkpt lat="46.05928" lon="4.70859">
        <ele>194</ele>
        <time>2017-12-09T10:45:57Z</time>
      </trkpt>
      <trkpt lat="46.05929" lon="4.70868">
        <ele>194</ele>
        <time>2017-12-09T10:45:58Z</time>
      </trkpt>
      <trkpt lat="46.0593" lon="4.70877">
        <ele>194</ele>
        <time>2017-12-09T10:45:59Z</time>
      </trkpt>
      <trkpt lat="46.05931" lon="4.70885">
        <ele>194</ele>
        <time>2017-12-09T10:46:00Z</time>
      </trkpt>
      <trkpt lat="46.05931" lon="4.70894">
        <ele>194</ele>
        <time>2017-12-09T10:46:01Z</time>
      </trkpt>
      <trkpt lat="46.05932" lon="4.70902">
        <ele>194</ele>
        <time>2017-12-09T10:46:02Z</time>
      </trkpt>
      <trkpt lat="46.05933" lon="4.70911">
        <ele>194</ele>
        <time>2017-12-09T10:46:03Z</time>
      </trkpt>
      <trkpt lat="46.05934" lon="4.70919">
        <ele>194</ele>
        <time>2017-12-09T10:46:04Z</time>
      </trkpt>
      <trkpt lat="46.05935" lon="4.70927">
        <ele>194</ele>
        <time>2017-12-09T10:46:05Z</time>
      </trkpt>
      <trkpt lat="46.05936" lon="4.70936">
        <ele>194</ele>
        <time>2017-12-09T10:46:06Z</time>
      </trkpt>
      <trkpt lat="46.05938" lon="4.70943">
        <ele>193</ele>
        <time>2017-12-09T10:46:07Z</time>
      </trkpt>
      <trkpt lat="46.0594" lon="4.70951">
        <ele>193</ele>
        <time>2017-12-09T10:46:08Z</time>
      </trkpt>
      <trkpt lat="46.05943" lon="4.7096">
        <ele>193</ele>
        <time>2017-12-09T10:46:09Z</time>
      </trkpt>
      <trkpt lat="46.05945" lon="4.70968">
        <ele>193</ele>
        <time>2017-12-09T10:46:10Z</time>
      </trkpt>
      <trkpt lat="46.05948" lon="4.70977">
        <ele>193</ele>
        <time>2017-12-09T10:46:11Z</time>
      </trkpt>
      <trkpt lat="46.0595" lon="4.70985">
        <ele>193</ele>
        <time>2017-12-09T10:46:12Z</time>
      </trkpt>
      <trkpt lat="46.05952" lon="4.70994">
        <ele>193</ele>
        <time>2017-12-09T10:46:13Z</time>
      </trkpt>
      <trkpt lat="46.05955" lon="4.71001">
        <ele>193</ele>
        <time>2017-12-09T10:46:14Z</time>
      </trkpt>
      <trkpt lat="46.05958" lon="4.71007">
        <ele>193</ele>
        <time>2017-12-09T10:46:15Z</time>
      </trkpt>
      <trkpt lat="46.05961" lon="4.71015">
        <ele>193</ele>
        <time>2017-12-09T10:46:16Z</time>
      </trkpt>
      <trkpt lat="46.05963" lon="4.71022">
        <ele>193</ele>
        <time>2017-12-09T10:46:17Z</time>
      </trkpt>
      <trkpt lat="46.05966" lon="4.71029">
        <ele>193</ele>
        <time>2017-12-09T10:46:18Z</time>
      </trkpt>
      <trkpt lat="46.05968" lon="4.71035">
        <ele>193</ele>
        <time>2017-12-09T10:46:19Z</time>
      </trkpt>
      <trkpt lat="46.05971" lon="4.71041">
        <ele>193</ele>
        <time>2017-12-09T10:46:20Z</time>
      </trkpt>
      <trkpt lat="46.05974" lon="4.71047">
        <ele>192</ele>
        <time>2017-12-09T10:46:21Z</time>
      </trkpt>
      <trkpt lat="46.05976" lon="4.71052">
        <ele>193</ele>
        <time>2017-12-09T10:46:22Z</time>
      </trkpt>
      <trkpt lat="46.05979" lon="4.7106">
        <ele>193</ele>
        <time>2017-12-09T10:46:23Z</time>
      </trkpt>
      <trkpt lat="46.05982" lon="4.71066">
        <ele>193</ele>
        <time>2017-12-09T10:46:24Z</time>
      </trkpt>
      <trkpt lat="46.05985" lon="4.71073">
        <ele>193</ele>
        <time>2017-12-09T10:46:25Z</time>
      </trkpt>
      <trkpt lat="46.05987" lon="4.7108">
        <ele>193</ele>
        <time>2017-12-09T10:46:26Z</time>
      </trkpt>
      <trkpt lat="46.0599" lon="4.71086">
        <ele>193</ele>
        <time>2017-12-09T10:46:27Z</time>
      </trkpt>
      <trkpt lat="46.05993" lon="4.71093">
        <ele>193</ele>
        <time>2017-12-09T10:46:28Z</time>
      </trkpt>
      <trkpt lat="46.05996" lon="4.71099">
        <ele>193</ele>
        <time>2017-12-09T10:46:29Z</time>
      </trkpt>
      <trkpt lat="46.05998" lon="4.71105">
        <ele>193</ele>
        <time>2017-12-09T10:46:30Z</time>
      </trkpt>
      <trkpt lat="46.06001" lon="4.71112">
        <ele>193</ele>
        <time>2017-12-09T10:46:31Z</time>
      </trkpt>
      <trkpt lat="46.06004" lon="4.71118">
        <ele>193</ele>
        <time>2017-12-09T10:46:32Z</time>
      </trkpt>
      <trkpt lat="46.06007" lon="4.71125">
        <ele>193</ele>
        <time>2017-12-09T10:46:33Z</time>
      </trkpt>
      <trkpt lat="46.06009" lon="4.71132">
        <ele>193</ele>
        <time>2017-12-09T10:46:34Z</time>
      </trkpt>
      <trkpt lat="46.06012" lon="4.71139">
        <ele>193</ele>
        <time>2017-12-09T10:46:35Z</time>
      </trkpt>
      <trkpt lat="46.06014" lon="4.71147">
        <ele>194</ele>
        <time>2017-12-09T10:46:36Z</time>
      </trkpt>
      <trkpt lat="46.06017" lon="4.71154">
        <ele>194</ele>
        <time>2017-12-09T10:46:37Z</time>
      </trkpt>
      <trkpt lat="46.06019" lon="4.71161">
        <ele>194</ele>
        <time>2017-12-09T10:46:38Z</time>
      </trkpt>
      <trkpt lat="46.06022" lon="4.71168">
        <ele>194</ele>
        <time>2017-12-09T10:46:39Z</time>
      </trkpt>
      <trkpt lat="46.06024" lon="4.71174">
        <ele>194</ele>
        <time>2017-12-09T10:46:40Z</time>
      </trkpt>
      <trkpt lat="46.06026" lon="4.71181">
        <ele>193</ele>
        <time>2017-12-09T10:46:41Z</time>
      </trkpt>
      <trkpt lat="46.06028" lon="4.71186">
        <ele>193</ele>
        <time>2017-12-09T10:46:42Z</time>
      </trkpt>
      <trkpt lat="46.0603" lon="4.71192">
        <ele>193</ele>
        <time>2017-12-09T10:46:43Z</time>
      </trkpt>
      <trkpt lat="46.06032" lon="4.71198">
        <ele>193</ele>
        <time>2017-12-09T10:46:44Z</time>
      </trkpt>
      <trkpt lat="46.06034" lon="4.71204">
        <ele>193</ele>
        <time>2017-12-09T10:46:45Z</time>
      </trkpt>
      <trkpt lat="46.06037" lon="4.7121">
        <ele>193</ele>
        <time>2017-12-09T10:46:46Z</time>
      </trkpt>
      <trkpt lat="46.06039" lon="4.71217">
        <ele>193</ele>
        <time>2017-12-09T10:46:47Z</time>
      </trkpt>
      <trkpt lat="46.06041" lon="4.71223">
        <ele>193</ele>
        <time>2017-12-09T10:46:48Z</time>
      </trkpt>
      <trkpt lat="46.06044" lon="4.7123">
        <ele>193</ele>
        <time>2017-12-09T10:46:49Z</time>
      </trkpt>
      <trkpt lat="46.06047" lon="4.71237">
        <ele>193</ele>
        <time>2017-12-09T10:46:50Z</time>
      </trkpt>
      <trkpt lat="46.06049" lon="4.71244">
        <ele>193</ele>
        <time>2017-12-09T10:46:51Z</time>
      </trkpt>
      <trkpt lat="46.06052" lon="4.71251">
        <ele>193</ele>
        <time>2017-12-09T10:46:52Z</time>
      </trkpt>
      <trkpt lat="46.06054" lon="4.71259">
        <ele>193</ele>
        <time>2017-12-09T10:46:53Z</time>
      </trkpt>
      <trkpt lat="46.06057" lon="4.71265">
        <ele>193</ele>
        <time>2017-12-09T10:46:54Z</time>
      </trkpt>
      <trkpt lat="46.06059" lon="4.71271">
        <ele>193</ele>
        <time>2017-12-09T10:46:55Z</time>
      </trkpt>
      <trkpt lat="46.06061" lon="4.71277">
        <ele>193</ele>
        <time>2017-12-09T10:46:56Z</time>
      </trkpt>
      <trkpt lat="46.06064" lon="4.71283">
        <ele>193</ele>
        <time>2017-12-09T10:46:57Z</time>
      </trkpt>
      <trkpt lat="46.06066" lon="4.7129">
        <ele>193</ele>
        <time>2017-12-09T10:46:58Z</time>
      </trkpt>
      <trkpt lat="46.06069" lon="4.71297">
        <ele>193</ele>
        <time>2017-12-09T10:46:59Z</time>
      </trkpt>
      <trkpt lat="46.06071" lon="4.71304">
        <ele>193</ele>
        <time>2017-12-09T10:47:00Z</time>
      </trkpt>
      <trkpt lat="46.06074" lon="4.71311">
        <ele>193</ele>
        <time>2017-12-09T10:47:01Z</time>
      </trkpt>
      <trkpt lat="46.06077" lon="4.71318">
        <ele>193</ele>
        <time>2017-12-09T10:47:02Z</time>
      </trkpt>
      <trkpt lat="46.0608" lon="4.71326">
        <ele>193</ele>
        <time>2017-12-09T10:47:03Z</time>
      </trkpt>
      <trkpt lat="46.06082" lon="4.71333">
        <ele>193</ele>
        <time>2017-12-09T10:47:04Z</time>
      </trkpt>
      <trkpt lat="46.06085" lon="4.71341">
        <ele>193</ele>
        <time>2017-12-09T10:47:05Z</time>
      </trkpt>
      <trkpt lat="46.06087" lon="4.71348">
        <ele>193</ele>
        <time>2017-12-09T10:47:06Z</time>
      </trkpt>
      <trkpt lat="46.06089" lon="4.71355">
        <ele>193</ele>
        <time>2017-12-09T10:47:07Z</time>
      </trkpt>
      <trkpt lat="46.06092" lon="4.71362">
        <ele>193</ele>
        <time>2017-12-09T10:47:08Z</time>
      </trkpt>
      <trkpt lat="46.06093" lon="4.71369">
        <ele>193</ele>
        <time>2017-12-09T10:47:09Z</time>
      </trkpt>
      <trkpt lat="46.06093" lon="4.71375">
        <ele>193</ele>
        <time>2017-12-09T10:47:10Z</time>
      </trkpt>
      <trkpt lat="46.06095" lon="4.71382">
        <ele>193</ele>
        <time>2017-12-09T10:47:11Z</time>
      </trkpt>
      <trkpt lat="46.06097" lon="4.71389">
        <ele>193</ele>
        <time>2017-12-09T10:47:12Z</time>
      </trkpt>
      <trkpt lat="46.06098" lon="4.71397">
        <ele>193</ele>
        <time>2017-12-09T10:47:13Z</time>
      </trkpt>
      <trkpt lat="46.061" lon="4.71403">
        <ele>193</ele>
        <time>2017-12-09T10:47:14Z</time>
      </trkpt>
      <trkpt lat="46.06102" lon="4.71409">
        <ele>193</ele>
        <time>2017-12-09T10:47:15Z</time>
      </trkpt>
      <trkpt lat="46.06105" lon="4.71416">
        <ele>193</ele>
        <time>2017-12-09T10:47:16Z</time>
      </trkpt>
      <trkpt lat="46.06108" lon="4.71422">
        <ele>193</ele>
        <time>2017-12-09T10:47:17Z</time>
      </trkpt>
      <trkpt lat="46.0611" lon="4.7143">
        <ele>193</ele>
        <time>2017-12-09T10:47:18Z</time>
      </trkpt>
      <trkpt lat="46.06112" lon="4.71438">
        <ele>193</ele>
        <time>2017-12-09T10:47:19Z</time>
      </trkpt>
      <trkpt lat="46.06114" lon="4.71446">
        <ele>193</ele>
        <time>2017-12-09T10:47:20Z</time>
      </trkpt>
      <trkpt lat="46.06116" lon="4.71455">
        <ele>193</ele>
        <time>2017-12-09T10:47:21Z</time>
      </trkpt>
      <trkpt lat="46.06118" lon="4.71464">
        <ele>193</ele>
        <time>2017-12-09T10:47:22Z</time>
      </trkpt>
      <trkpt lat="46.0612" lon="4.71473">
        <ele>193</ele>
        <time>2017-12-09T10:47:23Z</time>
      </trkpt>
      <trkpt lat="46.06122" lon="4.71482">
        <ele>193</ele>
        <time>2017-12-09T10:47:24Z</time>
      </trkpt>
      <trkpt lat="46.06124" lon="4.7149">
        <ele>193</ele>
        <time>2017-12-09T10:47:25Z</time>
      </trkpt>
      <trkpt lat="46.06127" lon="4.71498">
        <ele>192</ele>
        <time>2017-12-09T10:47:26Z</time>
      </trkpt>
      <trkpt lat="46.0613" lon="4.71506">
        <ele>192</ele>
        <time>2017-12-09T10:47:27Z</time>
      </trkpt>
      <trkpt lat="46.06133" lon="4.71512">
        <ele>192</ele>
        <time>2017-12-09T10:47:28Z</time>
      </trkpt>
      <trkpt lat="46.06137" lon="4.71519">
        <ele>192</ele>
        <time>2017-12-09T10:47:29Z</time>
      </trkpt>
      <trkpt lat="46.0614" lon="4.71525">
        <ele>192</ele>
        <time>2017-12-09T10:47:30Z</time>
      </trkpt>
      <trkpt lat="46.06144" lon="4.71532">
        <ele>192</ele>
        <time>2017-12-09T10:47:31Z</time>
      </trkpt>
      <trkpt lat="46.06148" lon="4.71537">
        <ele>192</ele>
        <time>2017-12-09T10:47:32Z</time>
      </trkpt>
      <trkpt lat="46.06151" lon="4.71543">
        <ele>192</ele>
        <time>2017-12-09T10:47:33Z</time>
      </trkpt>
      <trkpt lat="46.06155" lon="4.71549">
        <ele>192</ele>
        <time>2017-12-09T10:47:34Z</time>
      </trkpt>
      <trkpt lat="46.0616" lon="4.71554">
        <ele>192</ele>
        <time>2017-12-09T10:47:35Z</time>
      </trkpt>
      <trkpt lat="46.06163" lon="4.7156">
        <ele>192</ele>
        <time>2017-12-09T10:47:36Z</time>
      </trkpt>
      <trkpt lat="46.06168" lon="4.71565">
        <ele>191</ele>
        <time>2017-12-09T10:47:37Z</time>
      </trkpt>
      <trkpt lat="46.06172" lon="4.7157">
        <ele>191</ele>
        <time>2017-12-09T10:47:38Z</time>
      </trkpt>
      <trkpt lat="46.06175" lon="4.71576">
        <ele>191</ele>
        <time>2017-12-09T10:47:39Z</time>
      </trkpt>
      <trkpt lat="46.0618" lon="4.71582">
        <ele>191</ele>
        <time>2017-12-09T10:47:40Z</time>
      </trkpt>
      <trkpt lat="46.06183" lon="4.71587">
        <ele>191</ele>
        <time>2017-12-09T10:47:41Z</time>
      </trkpt>
      <trkpt lat="46.06187" lon="4.71593">
        <ele>191</ele>
        <time>2017-12-09T10:47:42Z</time>
      </trkpt>
      <trkpt lat="46.06191" lon="4.71598">
        <ele>191</ele>
        <time>2017-12-09T10:47:43Z</time>
      </trkpt>
      <trkpt lat="46.06194" lon="4.71603">
        <ele>191</ele>
        <time>2017-12-09T10:47:44Z</time>
      </trkpt>
      <trkpt lat="46.06197" lon="4.71608">
        <ele>191</ele>
        <time>2017-12-09T10:47:45Z</time>
      </trkpt>
      <trkpt lat="46.06201" lon="4.71615">
        <ele>191</ele>
        <time>2017-12-09T10:47:46Z</time>
      </trkpt>
      <trkpt lat="46.06205" lon="4.71623">
        <ele>191</ele>
        <time>2017-12-09T10:47:47Z</time>
      </trkpt>
      <trkpt lat="46.06209" lon="4.71629">
        <ele>191</ele>
        <time>2017-12-09T10:47:48Z</time>
      </trkpt>
      <trkpt lat="46.06213" lon="4.71635">
        <ele>191</ele>
        <time>2017-12-09T10:47:49Z</time>
      </trkpt>
      <trkpt lat="46.06217" lon="4.71641">
        <ele>191</ele>
        <time>2017-12-09T10:47:50Z</time>
      </trkpt>
      <trkpt lat="46.0622" lon="4.71648">
        <ele>191</ele>
        <time>2017-12-09T10:47:51Z</time>
      </trkpt>
      <trkpt lat="46.06224" lon="4.71654">
        <ele>191</ele>
        <time>2017-12-09T10:47:52Z</time>
      </trkpt>
      <trkpt lat="46.06228" lon="4.7166">
        <ele>191</ele>
        <time>2017-12-09T10:47:53Z</time>
      </trkpt>
      <trkpt lat="46.06231" lon="4.71668">
        <ele>191</ele>
        <time>2017-12-09T10:47:54Z</time>
      </trkpt>
      <trkpt lat="46.06234" lon="4.71675">
        <ele>191</ele>
        <time>2017-12-09T10:47:55Z</time>
      </trkpt>
      <trkpt lat="46.06236" lon="4.71681">
        <ele>191</ele>
        <time>2017-12-09T10:47:56Z</time>
      </trkpt>
      <trkpt lat="46.06239" lon="4.71687">
        <ele>191</ele>
        <time>2017-12-09T10:47:57Z</time>
      </trkpt>
      <trkpt lat="46.06241" lon="4.71693">
        <ele>191</ele>
        <time>2017-12-09T10:47:58Z</time>
      </trkpt>
      <trkpt lat="46.06244" lon="4.717">
        <ele>191</ele>
        <time>2017-12-09T10:47:59Z</time>
      </trkpt>
      <trkpt lat="46.06246" lon="4.71706">
        <ele>191</ele>
        <time>2017-12-09T10:48:00Z</time>
      </trkpt>
      <trkpt lat="46.06249" lon="4.71713">
        <ele>191</ele>
        <time>2017-12-09T10:48:01Z</time>
      </trkpt>
      <trkpt lat="46.06252" lon="4.7172">
        <ele>190</ele>
        <time>2017-12-09T10:48:02Z</time>
      </trkpt>
      <trkpt lat="46.06254" lon="4.71727">
        <ele>190</ele>
        <time>2017-12-09T10:48:03Z</time>
      </trkpt>
      <trkpt lat="46.06258" lon="4.71734">
        <ele>190</ele>
        <time>2017-12-09T10:48:04Z</time>
      </trkpt>
      <trkpt lat="46.06261" lon="4.71741">
        <ele>190</ele>
        <time>2017-12-09T10:48:05Z</time>
      </trkpt>
      <trkpt lat="46.06264" lon="4.71748">
        <ele>190</ele>
        <time>2017-12-09T10:48:06Z</time>
      </trkpt>
      <trkpt lat="46.06267" lon="4.71754">
        <ele>190</ele>
        <time>2017-12-09T10:48:07Z</time>
      </trkpt>
      <trkpt lat="46.06269" lon="4.71761">
        <ele>190</ele>
        <time>2017-12-09T10:48:08Z</time>
      </trkpt>
      <trkpt lat="46.0627" lon="4.71769">
        <ele>190</ele>
        <time>2017-12-09T10:48:09Z</time>
      </trkpt>
      <trkpt lat="46.06272" lon="4.71776">
        <ele>190</ele>
        <time>2017-12-09T10:48:10Z</time>
      </trkpt>
      <trkpt lat="46.06274" lon="4.71782">
        <ele>190</ele>
        <time>2017-12-09T10:48:11Z</time>
      </trkpt>
      <trkpt lat="46.06275" lon="4.71788">
        <ele>190</ele>
        <time>2017-12-09T10:48:12Z</time>
      </trkpt>
      <trkpt lat="46.06276" lon="4.71795">
        <ele>190</ele>
        <time>2017-12-09T10:48:13Z</time>
      </trkpt>
      <trkpt lat="46.06279" lon="4.71803">
        <ele>190</ele>
        <time>2017-12-09T10:48:14Z</time>
      </trkpt>
      <trkpt lat="46.06281" lon="4.7181">
        <ele>190</ele>
        <time>2017-12-09T10:48:15Z</time>
      </trkpt>
      <trkpt lat="46.06283" lon="4.71818">
        <ele>189</ele>
        <time>2017-12-09T10:48:16Z</time>
      </trkpt>
      <trkpt lat="46.06285" lon="4.71826">
        <ele>189</ele>
        <time>2017-12-09T10:48:17Z</time>
      </trkpt>
      <trkpt lat="46.06287" lon="4.71834">
        <ele>189</ele>
        <time>2017-12-09T10:48:18Z</time>
      </trkpt>
      <trkpt lat="46.06289" lon="4.71842">
        <ele>189</ele>
        <time>2017-12-09T10:48:19Z</time>
      </trkpt>
      <trkpt lat="46.06291" lon="4.71851">
        <ele>189</ele>
        <time>2017-12-09T10:48:20Z</time>
      </trkpt>
      <trkpt lat="46.06293" lon="4.71859">
        <ele>189</ele>
        <time>2017-12-09T10:48:21Z</time>
      </trkpt>
      <trkpt lat="46.06295" lon="4.71868">
        <ele>189</ele>
        <time>2017-12-09T10:48:22Z</time>
      </trkpt>
      <trkpt lat="46.06298" lon="4.71877">
        <ele>189</ele>
        <time>2017-12-09T10:48:23Z</time>
      </trkpt>
      <trkpt lat="46.063" lon="4.71886">
        <ele>189</ele>
        <time>2017-12-09T10:48:24Z</time>
      </trkpt>
      <trkpt lat="46.06302" lon="4.71896">
        <ele>189</ele>
        <time>2017-12-09T10:48:25Z</time>
      </trkpt>
      <trkpt lat="46.06305" lon="4.71904">
        <ele>189</ele>
        <time>2017-12-09T10:48:26Z</time>
      </trkpt>
      <trkpt lat="46.06307" lon="4.71911">
        <ele>189</ele>
        <time>2017-12-09T10:48:27Z</time>
      </trkpt>
      <trkpt lat="46.06308" lon="4.71919">
        <ele>190</ele>
        <time>2017-12-09T10:48:28Z</time>
      </trkpt>
      <trkpt lat="46.06309" lon="4.71926">
        <ele>190</ele>
        <time>2017-12-09T10:48:29Z</time>
      </trkpt>
      <trkpt lat="46.06311" lon="4.71933">
        <ele>190</ele>
        <time>2017-12-09T10:48:30Z</time>
      </trkpt>
      <trkpt lat="46.06312" lon="4.71939">
        <ele>190</ele>
        <time>2017-12-09T10:48:31Z</time>
      </trkpt>
      <trkpt lat="46.06314" lon="4.71946">
        <ele>190</ele>
        <time>2017-12-09T10:48:32Z</time>
      </trkpt>
      <trkpt lat="46.06315" lon="4.71952">
        <ele>190</ele>
        <time>2017-12-09T10:48:33Z</time>
      </trkpt>
      <trkpt lat="46.06317" lon="4.71962">
        <ele>190</ele>
        <time>2017-12-09T10:48:35Z</time>
      </trkpt>
      <trkpt lat="46.06318" lon="4.71967">
        <ele>190</ele>
        <time>2017-12-09T10:48:36Z</time>
      </trkpt>
      <trkpt lat="46.06322" lon="4.71978">
        <ele>190</ele>
        <time>2017-12-09T10:48:38Z</time>
      </trkpt>
      <trkpt lat="46.06323" lon="4.71986">
        <ele>190</ele>
        <time>2017-12-09T10:48:39Z</time>
      </trkpt>
      <trkpt lat="46.06325" lon="4.71993">
        <ele>189</ele>
        <time>2017-12-09T10:48:40Z</time>
      </trkpt>
      <trkpt lat="46.06327" lon="4.72">
        <ele>189</ele>
        <time>2017-12-09T10:48:41Z</time>
      </trkpt>
      <trkpt lat="46.06329" lon="4.72007">
        <ele>189</ele>
        <time>2017-12-09T10:48:42Z</time>
      </trkpt>
      <trkpt lat="46.06332" lon="4.72015">
        <ele>190</ele>
        <time>2017-12-09T10:48:43Z</time>
      </trkpt>
      <trkpt lat="46.06334" lon="4.72022">
        <ele>189</ele>
        <time>2017-12-09T10:48:44Z</time>
      </trkpt>
      <trkpt lat="46.06336" lon="4.72028">
        <ele>189</ele>
        <time>2017-12-09T10:48:45Z</time>
      </trkpt>
      <trkpt lat="46.06339" lon="4.72036">
        <ele>189</ele>
        <time>2017-12-09T10:48:46Z</time>
      </trkpt>
      <trkpt lat="46.06341" lon="4.72042">
        <ele>189</ele>
        <time>2017-12-09T10:48:47Z</time>
      </trkpt>
      <trkpt lat="46.06343" lon="4.7205">
        <ele>189</ele>
        <time>2017-12-09T10:48:48Z</time>
      </trkpt>
      <trkpt lat="46.06345" lon="4.72056">
        <ele>189</ele>
        <time>2017-12-09T10:48:49Z</time>
      </trkpt>
      <trkpt lat="46.06349" lon="4.72067">
        <ele>189</ele>
        <time>2017-12-09T10:48:51Z</time>
      </trkpt>
      <trkpt lat="46.06351" lon="4.72073">
        <ele>189</ele>
        <time>2017-12-09T10:48:52Z</time>
      </trkpt>
      <trkpt lat="46.06354" lon="4.72084">
        <ele>189</ele>
        <time>2017-12-09T10:48:54Z</time>
      </trkpt>
      <trkpt lat="46.06356" lon="4.72091">
        <ele>189</ele>
        <time>2017-12-09T10:48:55Z</time>
      </trkpt>
      <trkpt lat="46.06359" lon="4.72102">
        <ele>189</ele>
        <time>2017-12-09T10:48:57Z</time>
      </trkpt>
      <trkpt lat="46.06361" lon="4.72108">
        <ele>189</ele>
        <time>2017-12-09T10:48:58Z</time>
      </trkpt>
      <trkpt lat="46.06363" lon="4.72114">
        <ele>189</ele>
        <time>2017-12-09T10:48:59Z</time>
      </trkpt>
      <trkpt lat="46.06365" lon="4.72121">
        <ele>189</ele>
        <time>2017-12-09T10:49:00Z</time>
      </trkpt>
      <trkpt lat="46.0637" lon="4.72132">
        <ele>189</ele>
        <time>2017-12-09T10:49:02Z</time>
      </trkpt>
      <trkpt lat="46.06373" lon="4.72137">
        <ele>189</ele>
        <time>2017-12-09T10:49:03Z</time>
      </trkpt>
      <trkpt lat="46.06375" lon="4.72144">
        <ele>189</ele>
        <time>2017-12-09T10:49:04Z</time>
      </trkpt>
      <trkpt lat="46.06378" lon="4.7215">
        <ele>189</ele>
        <time>2017-12-09T10:49:05Z</time>
      </trkpt>
      <trkpt lat="46.0638" lon="4.72157">
        <ele>189</ele>
        <time>2017-12-09T10:49:06Z</time>
      </trkpt>
      <trkpt lat="46.06382" lon="4.72163">
        <ele>189</ele>
        <time>2017-12-09T10:49:07Z</time>
      </trkpt>
      <trkpt lat="46.06384" lon="4.72168">
        <ele>189</ele>
        <time>2017-12-09T10:49:08Z</time>
      </trkpt>
      <trkpt lat="46.06386" lon="4.72175">
        <ele>189</ele>
        <time>2017-12-09T10:49:09Z</time>
      </trkpt>
      <trkpt lat="46.06389" lon="4.72182">
        <ele>189</ele>
        <time>2017-12-09T10:49:10Z</time>
      </trkpt>
      <trkpt lat="46.0639" lon="4.72188">
        <ele>189</ele>
        <time>2017-12-09T10:49:11Z</time>
      </trkpt>
      <trkpt lat="46.06394" lon="4.72194">
        <ele>189</ele>
        <time>2017-12-09T10:49:12Z</time>
      </trkpt>
      <trkpt lat="46.06395" lon="4.72199">
        <ele>190</ele>
        <time>2017-12-09T10:49:13Z</time>
      </trkpt>
      <trkpt lat="46.06397" lon="4.72205">
        <ele>190</ele>
        <time>2017-12-09T10:49:14Z</time>
      </trkpt>
      <trkpt lat="46.06398" lon="4.72212">
        <ele>190</ele>
        <time>2017-12-09T10:49:15Z</time>
      </trkpt>
      <trkpt lat="46.06402" lon="4.72221">
        <ele>190</ele>
        <time>2017-12-09T10:49:17Z</time>
      </trkpt>
      <trkpt lat="46.06404" lon="4.72225">
        <ele>190</ele>
        <time>2017-12-09T10:49:18Z</time>
      </trkpt>
      <trkpt lat="46.06407" lon="4.72236">
        <ele>190</ele>
        <time>2017-12-09T10:49:20Z</time>
      </trkpt>
      <trkpt lat="46.06408" lon="4.72241">
        <ele>189</ele>
        <time>2017-12-09T10:49:21Z</time>
      </trkpt>
      <trkpt lat="46.06411" lon="4.72251">
        <ele>190</ele>
        <time>2017-12-09T10:49:23Z</time>
      </trkpt>
      <trkpt lat="46.06412" lon="4.72256">
        <ele>190</ele>
        <time>2017-12-09T10:49:24Z</time>
      </trkpt>
      <trkpt lat="46.06412" lon="4.72267">
        <ele>191</ele>
        <time>2017-12-09T10:49:26Z</time>
      </trkpt>
      <trkpt lat="46.06412" lon="4.72273">
        <ele>191</ele>
        <time>2017-12-09T10:49:27Z</time>
      </trkpt>
      <trkpt lat="46.06415" lon="4.72284">
        <ele>192</ele>
        <time>2017-12-09T10:49:29Z</time>
      </trkpt>
      <trkpt lat="46.06418" lon="4.72288">
        <ele>190</ele>
        <time>2017-12-09T10:49:30Z</time>
      </trkpt>
      <trkpt lat="46.06426" lon="4.72291">
        <ele>190</ele>
        <time>2017-12-09T10:49:32Z</time>
      </trkpt>
      <trkpt lat="46.0643" lon="4.72292">
        <ele>190</ele>
        <time>2017-12-09T10:49:33Z</time>
      </trkpt>
      <trkpt lat="46.06437" lon="4.72292">
        <ele>190</ele>
        <time>2017-12-09T10:49:34Z</time>
      </trkpt>
      <trkpt lat="46.06442" lon="4.72294">
        <ele>190</ele>
        <time>2017-12-09T10:49:35Z</time>
      </trkpt>
      <trkpt lat="46.06446" lon="4.72301">
        <ele>190</ele>
        <time>2017-12-09T10:49:37Z</time>
      </trkpt>
      <trkpt lat="46.06448" lon="4.72306">
        <ele>191</ele>
        <time>2017-12-09T10:49:38Z</time>
      </trkpt>
      <trkpt lat="46.0645" lon="4.72316">
        <ele>191</ele>
        <time>2017-12-09T10:49:40Z</time>
      </trkpt>
      <trkpt lat="46.0645" lon="4.72321">
        <ele>191</ele>
        <time>2017-12-09T10:49:41Z</time>
      </trkpt>
      <trkpt lat="46.06449" lon="4.72329">
        <ele>191</ele>
        <time>2017-12-09T10:49:42Z</time>
      </trkpt>
      <trkpt lat="46.06449" lon="4.72335">
        <ele>194</ele>
        <time>2017-12-09T10:49:43Z</time>
      </trkpt>
      <trkpt lat="46.06446" lon="4.72345">
        <ele>194</ele>
        <time>2017-12-09T10:49:45Z</time>
      </trkpt>
      <trkpt lat="46.06445" lon="4.72351">
        <ele>194</ele>
        <time>2017-12-09T10:49:46Z</time>
      </trkpt>
      <trkpt lat="46.06442" lon="4.72359">
        <ele>194</ele>
        <time>2017-12-09T10:49:48Z</time>
      </trkpt>
      <trkpt lat="46.0644" lon="4.72364">
        <ele>194</ele>
        <time>2017-12-09T10:49:49Z</time>
      </trkpt>
      <trkpt lat="46.06437" lon="4.72373">
        <ele>194</ele>
        <time>2017-12-09T10:49:51Z</time>
      </trkpt>
      <trkpt lat="46.06435" lon="4.72376">
        <ele>195</ele>
        <time>2017-12-09T10:49:52Z</time>
      </trkpt>
      <trkpt lat="46.06432" lon="4.72385">
        <ele>195</ele>
        <time>2017-12-09T10:49:54Z</time>
      </trkpt>
      <trkpt lat="46.06431" lon="4.7239">
        <ele>195</ele>
        <time>2017-12-09T10:49:55Z</time>
      </trkpt>
      <trkpt lat="46.06428" lon="4.72402">
        <ele>195</ele>
        <time>2017-12-09T10:49:57Z</time>
      </trkpt>
      <trkpt lat="46.06428" lon="4.72409">
        <ele>195</ele>
        <time>2017-12-09T10:49:58Z</time>
      </trkpt>
      <trkpt lat="46.06424" lon="4.72418">
        <ele>196</ele>
        <time>2017-12-09T10:50:00Z</time>
      </trkpt>
      <trkpt lat="46.06422" lon="4.72422">
        <ele>196</ele>
        <time>2017-12-09T10:50:01Z</time>
      </trkpt>
      <trkpt lat="46.0642" lon="4.72434">
        <ele>197</ele>
        <time>2017-12-09T10:50:03Z</time>
      </trkpt>
      <trkpt lat="46.06418" lon="4.7244">
        <ele>197</ele>
        <time>2017-12-09T10:50:04Z</time>
      </trkpt>
      <trkpt lat="46.06415" lon="4.7245">
        <ele>197</ele>
        <time>2017-12-09T10:50:06Z</time>
      </trkpt>
      <trkpt lat="46.0641" lon="4.7245">
        <ele>197</ele>
        <time>2017-12-09T10:50:07Z</time>
      </trkpt>
      <trkpt lat="46.06404" lon="4.72453">
        <ele>197</ele>
        <time>2017-12-09T10:50:09Z</time>
      </trkpt>
      <trkpt lat="46.06401" lon="4.72456">
        <ele>197</ele>
        <time>2017-12-09T10:50:10Z</time>
      </trkpt>
      <trkpt lat="46.06395" lon="4.72464">
        <ele>197</ele>
        <time>2017-12-09T10:50:13Z</time>
      </trkpt>
      <trkpt lat="46.06393" lon="4.72468">
        <ele>197</ele>
        <time>2017-12-09T10:50:14Z</time>
      </trkpt>
      <trkpt lat="46.06393" lon="4.72472">
        <ele>197</ele>
        <time>2017-12-09T10:50:15Z</time>
      </trkpt>
      <trkpt lat="46.06396" lon="4.7248">
        <ele>198</ele>
        <time>2017-12-09T10:50:16Z</time>
      </trkpt>
      <trkpt lat="46.06398" lon="4.72486">
        <ele>198</ele>
        <time>2017-12-09T10:50:17Z</time>
      </trkpt>
      <trkpt lat="46.06402" lon="4.72491">
        <ele>198</ele>
        <time>2017-12-09T10:50:18Z</time>
      </trkpt>
      <trkpt lat="46.06402" lon="4.725">
        <ele>198</ele>
        <time>2017-12-09T10:50:19Z</time>
      </trkpt>
      <trkpt lat="46.06404" lon="4.72508">
        <ele>198</ele>
        <time>2017-12-09T10:50:20Z</time>
      </trkpt>
      <trkpt lat="46.06406" lon="4.72516">
        <ele>198</ele>
        <time>2017-12-09T10:50:21Z</time>
      </trkpt>
      <trkpt lat="46.06407" lon="4.72524">
        <ele>197</ele>
        <time>2017-12-09T10:50:22Z</time>
      </trkpt>
      <trkpt lat="46.06408" lon="4.72533">
        <ele>197</ele>
        <time>2017-12-09T10:50:23Z</time>
      </trkpt>
      <trkpt lat="46.06409" lon="4.72542">
        <ele>197</ele>
        <time>2017-12-09T10:50:24Z</time>
      </trkpt>
      <trkpt lat="46.06411" lon="4.72551">
        <ele>196</ele>
        <time>2017-12-09T10:50:25Z</time>
      </trkpt>
      <trkpt lat="46.06413" lon="4.7256">
        <ele>196</ele>
        <time>2017-12-09T10:50:26Z</time>
      </trkpt>
      <trkpt lat="46.06415" lon="4.72569">
        <ele>196</ele>
        <time>2017-12-09T10:50:27Z</time>
      </trkpt>
      <trkpt lat="46.06417" lon="4.72577">
        <ele>195</ele>
        <time>2017-12-09T10:50:28Z</time>
      </trkpt>
      <trkpt lat="46.06418" lon="4.72586">
        <ele>195</ele>
        <time>2017-12-09T10:50:29Z</time>
      </trkpt>
      <trkpt lat="46.0642" lon="4.72594">
        <ele>194</ele>
        <time>2017-12-09T10:50:30Z</time>
      </trkpt>
      <trkpt lat="46.06422" lon="4.72603">
        <ele>193</ele>
        <time>2017-12-09T10:50:31Z</time>
      </trkpt>
      <trkpt lat="46.06424" lon="4.72612">
        <ele>193</ele>
        <time>2017-12-09T10:50:32Z</time>
      </trkpt>
      <trkpt lat="46.06425" lon="4.72622">
        <ele>193</ele>
        <time>2017-12-09T10:50:33Z</time>
      </trkpt>
      <trkpt lat="46.06427" lon="4.72631">
        <ele>193</ele>
        <time>2017-12-09T10:50:34Z</time>
      </trkpt>
      <trkpt lat="46.06428" lon="4.7264">
        <ele>192</ele>
        <time>2017-12-09T10:50:35Z</time>
      </trkpt>
      <trkpt lat="46.0643" lon="4.7265">
        <ele>192</ele>
        <time>2017-12-09T10:50:36Z</time>
      </trkpt>
      <trkpt lat="46.06432" lon="4.72659">
        <ele>192</ele>
        <time>2017-12-09T10:50:37Z</time>
      </trkpt>
      <trkpt lat="46.06432" lon="4.72668">
        <ele>191</ele>
        <time>2017-12-09T10:50:38Z</time>
      </trkpt>
      <trkpt lat="46.06433" lon="4.72678">
        <ele>191</ele>
        <time>2017-12-09T10:50:39Z</time>
      </trkpt>
      <trkpt lat="46.06433" lon="4.72687">
        <ele>191</ele>
        <time>2017-12-09T10:50:40Z</time>
      </trkpt>
      <trkpt lat="46.06435" lon="4.72697">
        <ele>190</ele>
        <time>2017-12-09T10:50:41Z</time>
      </trkpt>
      <trkpt lat="46.06436" lon="4.72706">
        <ele>190</ele>
        <time>2017-12-09T10:50:42Z</time>
      </trkpt>
      <trkpt lat="46.06437" lon="4.72715">
        <ele>190</ele>
        <time>2017-12-09T10:50:43Z</time>
      </trkpt>
      <trkpt lat="46.06439" lon="4.72723">
        <ele>190</ele>
        <time>2017-12-09T10:50:44Z</time>
      </trkpt>
      <trkpt lat="46.06441" lon="4.72733">
        <ele>189</ele>
        <time>2017-12-09T10:50:45Z</time>
      </trkpt>
      <trkpt lat="46.06444" lon="4.72742">
        <ele>189</ele>
        <time>2017-12-09T10:50:46Z</time>
      </trkpt>
      <trkpt lat="46.06446" lon="4.72751">
        <ele>188</ele>
        <time>2017-12-09T10:50:47Z</time>
      </trkpt>
      <trkpt lat="46.06448" lon="4.72759">
        <ele>188</ele>
        <time>2017-12-09T10:50:48Z</time>
      </trkpt>
      <trkpt lat="46.06449" lon="4.72768">
        <ele>188</ele>
        <time>2017-12-09T10:50:49Z</time>
      </trkpt>
      <trkpt lat="46.0645" lon="4.72778">
        <ele>188</ele>
        <time>2017-12-09T10:50:50Z</time>
      </trkpt>
      <trkpt lat="46.06451" lon="4.72785">
        <ele>188</ele>
        <time>2017-12-09T10:50:51Z</time>
      </trkpt>
      <trkpt lat="46.06451" lon="4.72793">
        <ele>188</ele>
        <time>2017-12-09T10:50:52Z</time>
      </trkpt>
      <trkpt lat="46.06453" lon="4.72802">
        <ele>188</ele>
        <time>2017-12-09T10:50:53Z</time>
      </trkpt>
      <trkpt lat="46.06454" lon="4.7281">
        <ele>188</ele>
        <time>2017-12-09T10:50:54Z</time>
      </trkpt>
      <trkpt lat="46.06455" lon="4.72818">
        <ele>188</ele>
        <time>2017-12-09T10:50:55Z</time>
      </trkpt>
      <trkpt lat="46.06456" lon="4.72825">
        <ele>188</ele>
        <time>2017-12-09T10:50:56Z</time>
      </trkpt>
      <trkpt lat="46.06458" lon="4.72833">
        <ele>188</ele>
        <time>2017-12-09T10:50:57Z</time>
      </trkpt>
      <trkpt lat="46.06459" lon="4.7284">
        <ele>188</ele>
        <time>2017-12-09T10:50:58Z</time>
      </trkpt>
      <trkpt lat="46.06462" lon="4.72849">
        <ele>188</ele>
        <time>2017-12-09T10:50:59Z</time>
      </trkpt>
      <trkpt lat="46.06464" lon="4.72858">
        <ele>188</ele>
        <time>2017-12-09T10:51:00Z</time>
      </trkpt>
      <trkpt lat="46.06466" lon="4.72867">
        <ele>188</ele>
        <time>2017-12-09T10:51:01Z</time>
      </trkpt>
      <trkpt lat="46.06468" lon="4.72875">
        <ele>188</ele>
        <time>2017-12-09T10:51:02Z</time>
      </trkpt>
      <trkpt lat="46.06469" lon="4.72885">
        <ele>188</ele>
        <time>2017-12-09T10:51:03Z</time>
      </trkpt>
      <trkpt lat="46.0647" lon="4.72892">
        <ele>188</ele>
        <time>2017-12-09T10:51:04Z</time>
      </trkpt>
      <trkpt lat="46.06472" lon="4.729">
        <ele>188</ele>
        <time>2017-12-09T10:51:05Z</time>
      </trkpt>
      <trkpt lat="46.06474" lon="4.72908">
        <ele>188</ele>
        <time>2017-12-09T10:51:06Z</time>
      </trkpt>
      <trkpt lat="46.06475" lon="4.72915">
        <ele>188</ele>
        <time>2017-12-09T10:51:07Z</time>
      </trkpt>
      <trkpt lat="46.06475" lon="4.72923">
        <ele>188</ele>
        <time>2017-12-09T10:51:08Z</time>
      </trkpt>
      <trkpt lat="46.06477" lon="4.7293">
        <ele>188</ele>
        <time>2017-12-09T10:51:09Z</time>
      </trkpt>
      <trkpt lat="46.06478" lon="4.72939">
        <ele>188</ele>
        <time>2017-12-09T10:51:10Z</time>
      </trkpt>
      <trkpt lat="46.0648" lon="4.72947">
        <ele>188</ele>
        <time>2017-12-09T10:51:11Z</time>
      </trkpt>
      <trkpt lat="46.06482" lon="4.72954">
        <ele>188</ele>
        <time>2017-12-09T10:51:12Z</time>
      </trkpt>
      <trkpt lat="46.06482" lon="4.72964">
        <ele>188</ele>
        <time>2017-12-09T10:51:13Z</time>
      </trkpt>
      <trkpt lat="46.06482" lon="4.72971">
        <ele>188</ele>
        <time>2017-12-09T10:51:14Z</time>
      </trkpt>
      <trkpt lat="46.0648" lon="4.72975">
        <ele>188</ele>
        <time>2017-12-09T10:51:15Z</time>
      </trkpt>
      <trkpt lat="46.06479" lon="4.72983">
        <ele>189</ele>
        <time>2017-12-09T10:51:16Z</time>
      </trkpt>
      <trkpt lat="46.0648" lon="4.7299">
        <ele>189</ele>
        <time>2017-12-09T10:51:17Z</time>
      </trkpt>
      <trkpt lat="46.06482" lon="4.72996">
        <ele>189</ele>
        <time>2017-12-09T10:51:18Z</time>
      </trkpt>
      <trkpt lat="46.06485" lon="4.73001">
        <ele>189</ele>
        <time>2017-12-09T10:51:19Z</time>
      </trkpt>
      <trkpt lat="46.06489" lon="4.73005">
        <ele>189</ele>
        <time>2017-12-09T10:51:20Z</time>
      </trkpt>
      <trkpt lat="46.06493" lon="4.73011">
        <ele>189</ele>
        <time>2017-12-09T10:51:21Z</time>
      </trkpt>
      <trkpt lat="46.06496" lon="4.73018">
        <ele>189</ele>
        <time>2017-12-09T10:51:22Z</time>
      </trkpt>
      <trkpt lat="46.065" lon="4.73026">
        <ele>189</ele>
        <time>2017-12-09T10:51:23Z</time>
      </trkpt>
      <trkpt lat="46.06504" lon="4.73034">
        <ele>189</ele>
        <time>2017-12-09T10:51:24Z</time>
      </trkpt>
      <trkpt lat="46.06507" lon="4.7304">
        <ele>189</ele>
        <time>2017-12-09T10:51:25Z</time>
      </trkpt>
      <trkpt lat="46.06509" lon="4.73048">
        <ele>188</ele>
        <time>2017-12-09T10:51:26Z</time>
      </trkpt>
      <trkpt lat="46.06512" lon="4.73056">
        <ele>188</ele>
        <time>2017-12-09T10:51:27Z</time>
      </trkpt>
      <trkpt lat="46.06515" lon="4.73064">
        <ele>188</ele>
        <time>2017-12-09T10:51:28Z</time>
      </trkpt>
      <trkpt lat="46.06517" lon="4.73071">
        <ele>188</ele>
        <time>2017-12-09T10:51:29Z</time>
      </trkpt>
      <trkpt lat="46.0652" lon="4.73078">
        <ele>188</ele>
        <time>2017-12-09T10:51:30Z</time>
      </trkpt>
      <trkpt lat="46.06522" lon="4.73085">
        <ele>188</ele>
        <time>2017-12-09T10:51:31Z</time>
      </trkpt>
      <trkpt lat="46.06525" lon="4.73092">
        <ele>188</ele>
        <time>2017-12-09T10:51:32Z</time>
      </trkpt>
      <trkpt lat="46.06527" lon="4.73099">
        <ele>188</ele>
        <time>2017-12-09T10:51:33Z</time>
      </trkpt>
      <trkpt lat="46.0653" lon="4.73106">
        <ele>188</ele>
        <time>2017-12-09T10:51:34Z</time>
      </trkpt>
      <trkpt lat="46.06533" lon="4.73112">
        <ele>188</ele>
        <time>2017-12-09T10:51:35Z</time>
      </trkpt>
      <trkpt lat="46.06535" lon="4.73119">
        <ele>188</ele>
        <time>2017-12-09T10:51:36Z</time>
      </trkpt>
      <trkpt lat="46.06537" lon="4.73125">
        <ele>188</ele>
        <time>2017-12-09T10:51:37Z</time>
      </trkpt>
      <trkpt lat="46.06538" lon="4.73133">
        <ele>188</ele>
        <time>2017-12-09T10:51:38Z</time>
      </trkpt>
      <trkpt lat="46.0654" lon="4.73141">
        <ele>188</ele>
        <time>2017-12-09T10:51:39Z</time>
      </trkpt>
      <trkpt lat="46.06541" lon="4.73148">
        <ele>188</ele>
        <time>2017-12-09T10:51:40Z</time>
      </trkpt>
      <trkpt lat="46.06542" lon="4.73155">
        <ele>187</ele>
        <time>2017-12-09T10:51:41Z</time>
      </trkpt>
      <trkpt lat="46.06543" lon="4.73163">
        <ele>187</ele>
        <time>2017-12-09T10:51:42Z</time>
      </trkpt>
      <trkpt lat="46.06543" lon="4.7317">
        <ele>187</ele>
        <time>2017-12-09T10:51:43Z</time>
      </trkpt>
      <trkpt lat="46.06544" lon="4.7318">
        <ele>187</ele>
        <time>2017-12-09T10:51:44Z</time>
      </trkpt>
      <trkpt lat="46.06544" lon="4.73189">
        <ele>187</ele>
        <time>2017-12-09T10:51:45Z</time>
      </trkpt>
      <trkpt lat="46.06546" lon="4.73198">
        <ele>187</ele>
        <time>2017-12-09T10:51:46Z</time>
      </trkpt>
      <trkpt lat="46.06547" lon="4.73208">
        <ele>186</ele>
        <time>2017-12-09T10:51:47Z</time>
      </trkpt>
      <trkpt lat="46.06549" lon="4.73218">
        <ele>186</ele>
        <time>2017-12-09T10:51:48Z</time>
      </trkpt>
      <trkpt lat="46.06551" lon="4.73226">
        <ele>186</ele>
        <time>2017-12-09T10:51:49Z</time>
      </trkpt>
      <trkpt lat="46.06554" lon="4.73234">
        <ele>186</ele>
        <time>2017-12-09T10:51:50Z</time>
      </trkpt>
      <trkpt lat="46.06557" lon="4.73241">
        <ele>186</ele>
        <time>2017-12-09T10:51:51Z</time>
      </trkpt>
      <trkpt lat="46.06559" lon="4.73249">
        <ele>186</ele>
        <time>2017-12-09T10:51:52Z</time>
      </trkpt>
      <trkpt lat="46.06562" lon="4.73257">
        <ele>184</ele>
        <time>2017-12-09T10:51:53Z</time>
      </trkpt>
      <trkpt lat="46.06564" lon="4.73264">
        <ele>184</ele>
        <time>2017-12-09T10:51:54Z</time>
      </trkpt>
      <trkpt lat="46.06567" lon="4.73272">
        <ele>184</ele>
        <time>2017-12-09T10:51:55Z</time>
      </trkpt>
      <trkpt lat="46.0657" lon="4.7328">
        <ele>184</ele>
        <time>2017-12-09T10:51:56Z</time>
      </trkpt>
      <trkpt lat="46.06573" lon="4.73287">
        <ele>184</ele>
        <time>2017-12-09T10:51:57Z</time>
      </trkpt>
      <trkpt lat="46.06575" lon="4.73295">
        <ele>184</ele>
        <time>2017-12-09T10:51:58Z</time>
      </trkpt>
      <trkpt lat="46.06578" lon="4.73302">
        <ele>183</ele>
        <time>2017-12-09T10:51:59Z</time>
      </trkpt>
      <trkpt lat="46.06579" lon="4.73311">
        <ele>183</ele>
        <time>2017-12-09T10:52:00Z</time>
      </trkpt>
      <trkpt lat="46.06581" lon="4.73319">
        <ele>183</ele>
        <time>2017-12-09T10:52:01Z</time>
      </trkpt>
      <trkpt lat="46.06583" lon="4.73326">
        <ele>182</ele>
        <time>2017-12-09T10:52:02Z</time>
      </trkpt>
      <trkpt lat="46.06585" lon="4.73334">
        <ele>182</ele>
        <time>2017-12-09T10:52:03Z</time>
      </trkpt>
      <trkpt lat="46.06589" lon="4.7334">
        <ele>182</ele>
        <time>2017-12-09T10:52:04Z</time>
      </trkpt>
      <trkpt lat="46.06594" lon="4.73344">
        <ele>182</ele>
        <time>2017-12-09T10:52:05Z</time>
      </trkpt>
      <trkpt lat="46.06599" lon="4.73348">
        <ele>182</ele>
        <time>2017-12-09T10:52:06Z</time>
      </trkpt>
      <trkpt lat="46.06605" lon="4.73352">
        <ele>182</ele>
        <time>2017-12-09T10:52:07Z</time>
      </trkpt>
      <trkpt lat="46.0661" lon="4.73354">
        <ele>182</ele>
        <time>2017-12-09T10:52:08Z</time>
      </trkpt>
      <trkpt lat="46.06616" lon="4.73357">
        <ele>182</ele>
        <time>2017-12-09T10:52:09Z</time>
      </trkpt>
      <trkpt lat="46.06621" lon="4.73359">
        <ele>182</ele>
        <time>2017-12-09T10:52:10Z</time>
      </trkpt>
      <trkpt lat="46.06627" lon="4.73363">
        <ele>182</ele>
        <time>2017-12-09T10:52:11Z</time>
      </trkpt>
      <trkpt lat="46.06633" lon="4.73368">
        <ele>182</ele>
        <time>2017-12-09T10:52:12Z</time>
      </trkpt>
      <trkpt lat="46.06639" lon="4.73371">
        <ele>182</ele>
        <time>2017-12-09T10:52:13Z</time>
      </trkpt>
      <trkpt lat="46.06645" lon="4.73377">
        <ele>182</ele>
        <time>2017-12-09T10:52:14Z</time>
      </trkpt>
      <trkpt lat="46.06652" lon="4.73383">
        <ele>182</ele>
        <time>2017-12-09T10:52:15Z</time>
      </trkpt>
      <trkpt lat="46.06657" lon="4.7339">
        <ele>182</ele>
        <time>2017-12-09T10:52:16Z</time>
      </trkpt>
      <trkpt lat="46.06661" lon="4.73396">
        <ele>182</ele>
        <time>2017-12-09T10:52:17Z</time>
      </trkpt>
      <trkpt lat="46.06666" lon="4.73403">
        <ele>182</ele>
        <time>2017-12-09T10:52:18Z</time>
      </trkpt>
      <trkpt lat="46.0667" lon="4.73409">
        <ele>182</ele>
        <time>2017-12-09T10:52:19Z</time>
      </trkpt>
      <trkpt lat="46.06674" lon="4.73416">
        <ele>182</ele>
        <time>2017-12-09T10:52:20Z</time>
      </trkpt>
      <trkpt lat="46.06679" lon="4.73423">
        <ele>181</ele>
        <time>2017-12-09T10:52:21Z</time>
      </trkpt>
      <trkpt lat="46.06684" lon="4.73429">
        <ele>181</ele>
        <time>2017-12-09T10:52:22Z</time>
      </trkpt>
      <trkpt lat="46.06688" lon="4.73435">
        <ele>181</ele>
        <time>2017-12-09T10:52:23Z</time>
      </trkpt>
      <trkpt lat="46.06692" lon="4.73441">
        <ele>181</ele>
        <time>2017-12-09T10:52:24Z</time>
      </trkpt>
      <trkpt lat="46.06695" lon="4.73448">
        <ele>181</ele>
        <time>2017-12-09T10:52:25Z</time>
      </trkpt>
      <trkpt lat="46.06698" lon="4.73454">
        <ele>180</ele>
        <time>2017-12-09T10:52:26Z</time>
      </trkpt>
      <trkpt lat="46.06702" lon="4.73461">
        <ele>180</ele>
        <time>2017-12-09T10:52:27Z</time>
      </trkpt>
      <trkpt lat="46.06707" lon="4.73467">
        <ele>180</ele>
        <time>2017-12-09T10:52:28Z</time>
      </trkpt>
      <trkpt lat="46.06711" lon="4.73473">
        <ele>180</ele>
        <time>2017-12-09T10:52:29Z</time>
      </trkpt>
      <trkpt lat="46.06715" lon="4.73479">
        <ele>180</ele>
        <time>2017-12-09T10:52:30Z</time>
      </trkpt>
      <trkpt lat="46.0672" lon="4.73485">
        <ele>180</ele>
        <time>2017-12-09T10:52:31Z</time>
      </trkpt>
      <trkpt lat="46.06723" lon="4.73491">
        <ele>180</ele>
        <time>2017-12-09T10:52:32Z</time>
      </trkpt>
      <trkpt lat="46.06728" lon="4.73496">
        <ele>180</ele>
        <time>2017-12-09T10:52:33Z</time>
      </trkpt>
      <trkpt lat="46.06731" lon="4.73502">
        <ele>180</ele>
        <time>2017-12-09T10:52:34Z</time>
      </trkpt>
      <trkpt lat="46.06734" lon="4.73508">
        <ele>180</ele>
        <time>2017-12-09T10:52:35Z</time>
      </trkpt>
      <trkpt lat="46.06738" lon="4.73514">
        <ele>180</ele>
        <time>2017-12-09T10:52:36Z</time>
      </trkpt>
      <trkpt lat="46.06741" lon="4.7352">
        <ele>180</ele>
        <time>2017-12-09T10:52:37Z</time>
      </trkpt>
      <trkpt lat="46.06744" lon="4.73525">
        <ele>180</ele>
        <time>2017-12-09T10:52:38Z</time>
      </trkpt>
      <trkpt lat="46.06748" lon="4.73532">
        <ele>180</ele>
        <time>2017-12-09T10:52:39Z</time>
      </trkpt>
      <trkpt lat="46.06752" lon="4.73537">
        <ele>179</ele>
        <time>2017-12-09T10:52:40Z</time>
      </trkpt>
      <trkpt lat="46.06756" lon="4.73542">
        <ele>179</ele>
        <time>2017-12-09T10:52:41Z</time>
      </trkpt>
      <trkpt lat="46.0676" lon="4.73549">
        <ele>179</ele>
        <time>2017-12-09T10:52:42Z</time>
      </trkpt>
      <trkpt lat="46.06764" lon="4.73556">
        <ele>180</ele>
        <time>2017-12-09T10:52:43Z</time>
      </trkpt>
      <trkpt lat="46.06768" lon="4.73563">
        <ele>180</ele>
        <time>2017-12-09T10:52:44Z</time>
      </trkpt>
      <trkpt lat="46.06771" lon="4.7357">
        <ele>180</ele>
        <time>2017-12-09T10:52:45Z</time>
      </trkpt>
      <trkpt lat="46.06774" lon="4.73579">
        <ele>180</ele>
        <time>2017-12-09T10:52:46Z</time>
      </trkpt>
      <trkpt lat="46.06777" lon="4.73586">
        <ele>179</ele>
        <time>2017-12-09T10:52:47Z</time>
      </trkpt>
      <trkpt lat="46.06781" lon="4.73591">
        <ele>179</ele>
        <time>2017-12-09T10:52:48Z</time>
      </trkpt>
      <trkpt lat="46.06784" lon="4.73597">
        <ele>179</ele>
        <time>2017-12-09T10:52:49Z</time>
      </trkpt>
      <trkpt lat="46.06789" lon="4.73602">
        <ele>179</ele>
        <time>2017-12-09T10:52:50Z</time>
      </trkpt>
      <trkpt lat="46.06793" lon="4.73607">
        <ele>178</ele>
        <time>2017-12-09T10:52:51Z</time>
      </trkpt>
      <trkpt lat="46.06798" lon="4.73613">
        <ele>178</ele>
        <time>2017-12-09T10:52:52Z</time>
      </trkpt>
      <trkpt lat="46.06803" lon="4.73618">
        <ele>178</ele>
        <time>2017-12-09T10:52:53Z</time>
      </trkpt>
      <trkpt lat="46.06808" lon="4.73625">
        <ele>178</ele>
        <time>2017-12-09T10:52:54Z</time>
      </trkpt>
      <trkpt lat="46.06813" lon="4.73631">
        <ele>178</ele>
        <time>2017-12-09T10:52:55Z</time>
      </trkpt>
      <trkpt lat="46.06818" lon="4.73637">
        <ele>178</ele>
        <time>2017-12-09T10:52:56Z</time>
      </trkpt>
      <trkpt lat="46.06822" lon="4.73643">
        <ele>177</ele>
        <time>2017-12-09T10:52:57Z</time>
      </trkpt>
      <trkpt lat="46.06827" lon="4.73649">
        <ele>177</ele>
        <time>2017-12-09T10:52:58Z</time>
      </trkpt>
      <trkpt lat="46.06833" lon="4.73653">
        <ele>177</ele>
        <time>2017-12-09T10:52:59Z</time>
      </trkpt>
      <trkpt lat="46.06838" lon="4.73658">
        <ele>176</ele>
        <time>2017-12-09T10:53:00Z</time>
      </trkpt>
      <trkpt lat="46.06843" lon="4.73663">
        <ele>176</ele>
        <time>2017-12-09T10:53:01Z</time>
      </trkpt>
      <trkpt lat="46.06847" lon="4.73666">
        <ele>176</ele>
        <time>2017-12-09T10:53:02Z</time>
      </trkpt>
      <trkpt lat="46.06852" lon="4.73671">
        <ele>176</ele>
        <time>2017-12-09T10:53:03Z</time>
      </trkpt>
      <trkpt lat="46.06856" lon="4.73675">
        <ele>176</ele>
        <time>2017-12-09T10:53:04Z</time>
      </trkpt>
      <trkpt lat="46.0686" lon="4.7368">
        <ele>176</ele>
        <time>2017-12-09T10:53:05Z</time>
      </trkpt>
      <trkpt lat="46.06863" lon="4.73684">
        <ele>176</ele>
        <time>2017-12-09T10:53:06Z</time>
      </trkpt>
      <trkpt lat="46.06868" lon="4.73689">
        <ele>176</ele>
        <time>2017-12-09T10:53:07Z</time>
      </trkpt>
      <trkpt lat="46.06873" lon="4.73694">
        <ele>176</ele>
        <time>2017-12-09T10:53:08Z</time>
      </trkpt>
      <trkpt lat="46.06877" lon="4.73698">
        <ele>176</ele>
        <time>2017-12-09T10:53:09Z</time>
      </trkpt>
      <trkpt lat="46.06882" lon="4.73703">
        <ele>176</ele>
        <time>2017-12-09T10:53:10Z</time>
      </trkpt>
      <trkpt lat="46.06886" lon="4.73708">
        <ele>176</ele>
        <time>2017-12-09T10:53:11Z</time>
      </trkpt>
      <trkpt lat="46.06891" lon="4.73714">
        <ele>176</ele>
        <time>2017-12-09T10:53:12Z</time>
      </trkpt>
      <trkpt lat="46.06894" lon="4.73718">
        <ele>176</ele>
        <time>2017-12-09T10:53:13Z</time>
      </trkpt>
      <trkpt lat="46.06898" lon="4.73725">
        <ele>176</ele>
        <time>2017-12-09T10:53:14Z</time>
      </trkpt>
      <trkpt lat="46.06901" lon="4.7373">
        <ele>176</ele>
        <time>2017-12-09T10:53:15Z</time>
      </trkpt>
      <trkpt lat="46.06905" lon="4.73736">
        <ele>177</ele>
        <time>2017-12-09T10:53:16Z</time>
      </trkpt>
      <trkpt lat="46.06908" lon="4.73741">
        <ele>177</ele>
        <time>2017-12-09T10:53:17Z</time>
      </trkpt>
      <trkpt lat="46.06911" lon="4.73746">
        <ele>177</ele>
        <time>2017-12-09T10:53:18Z</time>
      </trkpt>
      <trkpt lat="46.06915" lon="4.73752">
        <ele>177</ele>
        <time>2017-12-09T10:53:19Z</time>
      </trkpt>
      <trkpt lat="46.06919" lon="4.73757">
        <ele>177</ele>
        <time>2017-12-09T10:53:20Z</time>
      </trkpt>
      <trkpt lat="46.06923" lon="4.73763">
        <ele>177</ele>
        <time>2017-12-09T10:53:21Z</time>
      </trkpt>
      <trkpt lat="46.06928" lon="4.73768">
        <ele>176</ele>
        <time>2017-12-09T10:53:22Z</time>
      </trkpt>
      <trkpt lat="46.06934" lon="4.73773">
        <ele>176</ele>
        <time>2017-12-09T10:53:23Z</time>
      </trkpt>
      <trkpt lat="46.0694" lon="4.73777">
        <ele>176</ele>
        <time>2017-12-09T10:53:24Z</time>
      </trkpt>
      <trkpt lat="46.06946" lon="4.73782">
        <ele>176</ele>
        <time>2017-12-09T10:53:25Z</time>
      </trkpt>
      <trkpt lat="46.06953" lon="4.73786">
        <ele>176</ele>
        <time>2017-12-09T10:53:26Z</time>
      </trkpt>
      <trkpt lat="46.06959" lon="4.73789">
        <ele>176</ele>
        <time>2017-12-09T10:53:27Z</time>
      </trkpt>
      <trkpt lat="46.06965" lon="4.7379">
        <ele>176</ele>
        <time>2017-12-09T10:53:28Z</time>
      </trkpt>
      <trkpt lat="46.06971" lon="4.73791">
        <ele>176</ele>
        <time>2017-12-09T10:53:29Z</time>
      </trkpt>
      <trkpt lat="46.06977" lon="4.73792">
        <ele>176</ele>
        <time>2017-12-09T10:53:30Z</time>
      </trkpt>
      <trkpt lat="46.06982" lon="4.73793">
        <ele>176</ele>
        <time>2017-12-09T10:53:31Z</time>
      </trkpt>
      <trkpt lat="46.06987" lon="4.73794">
        <ele>176</ele>
        <time>2017-12-09T10:53:32Z</time>
      </trkpt>
      <trkpt lat="46.06993" lon="4.73794">
        <ele>176</ele>
        <time>2017-12-09T10:53:33Z</time>
      </trkpt>
      <trkpt lat="46.06998" lon="4.73795">
        <ele>176</ele>
        <time>2017-12-09T10:53:34Z</time>
      </trkpt>
      <trkpt lat="46.07003" lon="4.73795">
        <ele>177</ele>
        <time>2017-12-09T10:53:35Z</time>
      </trkpt>
      <trkpt lat="46.07008" lon="4.73796">
        <ele>177</ele>
        <time>2017-12-09T10:53:36Z</time>
      </trkpt>
      <trkpt lat="46.07013" lon="4.73796">
        <ele>177</ele>
        <time>2017-12-09T10:53:37Z</time>
      </trkpt>
      <trkpt lat="46.07018" lon="4.73797">
        <ele>177</ele>
        <time>2017-12-09T10:53:38Z</time>
      </trkpt>
      <trkpt lat="46.07023" lon="4.73798">
        <ele>177</ele>
        <time>2017-12-09T10:53:39Z</time>
      </trkpt>
      <trkpt lat="46.07028" lon="4.73798">
        <ele>177</ele>
        <time>2017-12-09T10:53:40Z</time>
      </trkpt>
      <trkpt lat="46.07033" lon="4.73798">
        <ele>177</ele>
        <time>2017-12-09T10:53:41Z</time>
      </trkpt>
      <trkpt lat="46.07039" lon="4.73799">
        <ele>177</ele>
        <time>2017-12-09T10:53:42Z</time>
      </trkpt>
      <trkpt lat="46.07045" lon="4.738">
        <ele>177</ele>
        <time>2017-12-09T10:53:43Z</time>
      </trkpt>
      <trkpt lat="46.07051" lon="4.738">
        <ele>177</ele>
        <time>2017-12-09T10:53:44Z</time>
      </trkpt>
      <trkpt lat="46.07056" lon="4.738">
        <ele>177</ele>
        <time>2017-12-09T10:53:45Z</time>
      </trkpt>
      <trkpt lat="46.07062" lon="4.73802">
        <ele>178</ele>
        <time>2017-12-09T10:53:46Z</time>
      </trkpt>
      <trkpt lat="46.07067" lon="4.73805">
        <ele>178</ele>
        <time>2017-12-09T10:53:47Z</time>
      </trkpt>
      <trkpt lat="46.07071" lon="4.73808">
        <ele>178</ele>
        <time>2017-12-09T10:53:48Z</time>
      </trkpt>
      <trkpt lat="46.07077" lon="4.7381">
        <ele>178</ele>
        <time>2017-12-09T10:53:49Z</time>
      </trkpt>
      <trkpt lat="46.07081" lon="4.73813">
        <ele>178</ele>
        <time>2017-12-09T10:53:50Z</time>
      </trkpt>
      <trkpt lat="46.07086" lon="4.73813">
        <ele>178</ele>
        <time>2017-12-09T10:53:51Z</time>
      </trkpt>
      <trkpt lat="46.07092" lon="4.73815">
        <ele>178</ele>
        <time>2017-12-09T10:53:52Z</time>
      </trkpt>
      <trkpt lat="46.07096" lon="4.73821">
        <ele>178</ele>
        <time>2017-12-09T10:53:53Z</time>
      </trkpt>
      <trkpt lat="46.071" lon="4.73824">
        <ele>178</ele>
        <time>2017-12-09T10:53:54Z</time>
      </trkpt>
      <trkpt lat="46.07108" lon="4.73832">
        <ele>178</ele>
        <time>2017-12-09T10:53:56Z</time>
      </trkpt>
      <trkpt lat="46.07112" lon="4.73835">
        <ele>177</ele>
        <time>2017-12-09T10:53:57Z</time>
      </trkpt>
      <trkpt lat="46.07116" lon="4.73838">
        <ele>177</ele>
        <time>2017-12-09T10:53:58Z</time>
      </trkpt>
      <trkpt lat="46.0712" lon="4.73843">
        <ele>177</ele>
        <time>2017-12-09T10:53:59Z</time>
      </trkpt>
      <trkpt lat="46.07124" lon="4.73848">
        <ele>177</ele>
        <time>2017-12-09T10:54:00Z</time>
      </trkpt>
      <trkpt lat="46.07128" lon="4.73853">
        <ele>176</ele>
        <time>2017-12-09T10:54:01Z</time>
      </trkpt>
      <trkpt lat="46.07132" lon="4.73858">
        <ele>176</ele>
        <time>2017-12-09T10:54:02Z</time>
      </trkpt>
      <trkpt lat="46.07136" lon="4.73863">
        <ele>176</ele>
        <time>2017-12-09T10:54:03Z</time>
      </trkpt>
      <trkpt lat="46.07139" lon="4.73869">
        <ele>176</ele>
        <time>2017-12-09T10:54:04Z</time>
      </trkpt>
      <trkpt lat="46.07142" lon="4.73875">
        <ele>176</ele>
        <time>2017-12-09T10:54:05Z</time>
      </trkpt>
      <trkpt lat="46.07145" lon="4.73881">
        <ele>176</ele>
        <time>2017-12-09T10:54:06Z</time>
      </trkpt>
      <trkpt lat="46.07147" lon="4.73887">
        <ele>176</ele>
        <time>2017-12-09T10:54:07Z</time>
      </trkpt>
      <trkpt lat="46.07149" lon="4.73894">
        <ele>177</ele>
        <time>2017-12-09T10:54:08Z</time>
      </trkpt>
      <trkpt lat="46.07151" lon="4.73899">
        <ele>177</ele>
        <time>2017-12-09T10:54:09Z</time>
      </trkpt>
      <trkpt lat="46.07154" lon="4.73906">
        <ele>177</ele>
        <time>2017-12-09T10:54:10Z</time>
      </trkpt>
      <trkpt lat="46.07157" lon="4.73912">
        <ele>177</ele>
        <time>2017-12-09T10:54:11Z</time>
      </trkpt>
      <trkpt lat="46.07159" lon="4.7392">
        <ele>177</ele>
        <time>2017-12-09T10:54:12Z</time>
      </trkpt>
      <trkpt lat="46.07162" lon="4.73926">
        <ele>177</ele>
        <time>2017-12-09T10:54:13Z</time>
      </trkpt>
      <trkpt lat="46.07164" lon="4.73933">
        <ele>177</ele>
        <time>2017-12-09T10:54:14Z</time>
      </trkpt>
      <trkpt lat="46.07165" lon="4.7394">
        <ele>177</ele>
        <time>2017-12-09T10:54:15Z</time>
      </trkpt>
      <trkpt lat="46.07167" lon="4.73946">
        <ele>177</ele>
        <time>2017-12-09T10:54:16Z</time>
      </trkpt>
      <trkpt lat="46.07169" lon="4.73952">
        <ele>177</ele>
        <time>2017-12-09T10:54:17Z</time>
      </trkpt>
      <trkpt lat="46.07174" lon="4.73962">
        <ele>178</ele>
        <time>2017-12-09T10:54:19Z</time>
      </trkpt>
      <trkpt lat="46.07175" lon="4.73969">
        <ele>178</ele>
        <time>2017-12-09T10:54:20Z</time>
      </trkpt>
      <trkpt lat="46.07177" lon="4.73976">
        <ele>178</ele>
        <time>2017-12-09T10:54:21Z</time>
      </trkpt>
      <trkpt lat="46.07179" lon="4.73981">
        <ele>178</ele>
        <time>2017-12-09T10:54:22Z</time>
      </trkpt>
      <trkpt lat="46.07182" lon="4.73992">
        <ele>178</ele>
        <time>2017-12-09T10:54:24Z</time>
      </trkpt>
      <trkpt lat="46.07184" lon="4.73998">
        <ele>178</ele>
        <time>2017-12-09T10:54:25Z</time>
      </trkpt>
      <trkpt lat="46.07189" lon="4.74008">
        <ele>178</ele>
        <time>2017-12-09T10:54:27Z</time>
      </trkpt>
      <trkpt lat="46.0719" lon="4.74014">
        <ele>178</ele>
        <time>2017-12-09T10:54:28Z</time>
      </trkpt>
      <trkpt lat="46.07192" lon="4.74021">
        <ele>178</ele>
        <time>2017-12-09T10:54:29Z</time>
      </trkpt>
      <trkpt lat="46.07194" lon="4.74027">
        <ele>178</ele>
        <time>2017-12-09T10:54:30Z</time>
      </trkpt>
      <trkpt lat="46.07197" lon="4.74037">
        <ele>178</ele>
        <time>2017-12-09T10:54:32Z</time>
      </trkpt>
      <trkpt lat="46.07199" lon="4.74043">
        <ele>178</ele>
        <time>2017-12-09T10:54:33Z</time>
      </trkpt>
      <trkpt lat="46.07204" lon="4.74053">
        <ele>178</ele>
        <time>2017-12-09T10:54:35Z</time>
      </trkpt>
      <trkpt lat="46.07205" lon="4.7406">
        <ele>178</ele>
        <time>2017-12-09T10:54:36Z</time>
      </trkpt>
      <trkpt lat="46.0721" lon="4.7407">
        <ele>177</ele>
        <time>2017-12-09T10:54:38Z</time>
      </trkpt>
      <trkpt lat="46.07212" lon="4.74074">
        <ele>177</ele>
        <time>2017-12-09T10:54:39Z</time>
      </trkpt>
      <trkpt lat="46.07215" lon="4.74082">
        <ele>177</ele>
        <time>2017-12-09T10:54:41Z</time>
      </trkpt>
      <trkpt lat="46.07217" lon="4.74086">
        <ele>177</ele>
        <time>2017-12-09T10:54:42Z</time>
      </trkpt>
      <trkpt lat="46.07219" lon="4.74095">
        <ele>177</ele>
        <time>2017-12-09T10:54:44Z</time>
      </trkpt>
      <trkpt lat="46.0722" lon="4.74099">
        <ele>177</ele>
        <time>2017-12-09T10:54:45Z</time>
      </trkpt>
      <trkpt lat="46.07223" lon="4.74108">
        <ele>177</ele>
        <time>2017-12-09T10:54:47Z</time>
      </trkpt>
      <trkpt lat="46.07225" lon="4.74113">
        <ele>177</ele>
        <time>2017-12-09T10:54:48Z</time>
      </trkpt>
      <trkpt lat="46.07229" lon="4.74123">
        <ele>177</ele>
        <time>2017-12-09T10:54:50Z</time>
      </trkpt>
      <trkpt lat="46.0723" lon="4.74129">
        <ele>177</ele>
        <time>2017-12-09T10:54:51Z</time>
      </trkpt>
      <trkpt lat="46.07233" lon="4.74136">
        <ele>177</ele>
        <time>2017-12-09T10:54:52Z</time>
      </trkpt>
      <trkpt lat="46.07235" lon="4.74141">
        <ele>177</ele>
        <time>2017-12-09T10:54:53Z</time>
      </trkpt>
      <trkpt lat="46.07235" lon="4.74149">
        <ele>177</ele>
        <time>2017-12-09T10:54:54Z</time>
      </trkpt>
      <trkpt lat="46.07238" lon="4.74154">
        <ele>177</ele>
        <time>2017-12-09T10:54:55Z</time>
      </trkpt>
      <trkpt lat="46.0724" lon="4.7416">
        <ele>177</ele>
        <time>2017-12-09T10:54:56Z</time>
      </trkpt>
      <trkpt lat="46.07243" lon="4.74167">
        <ele>177</ele>
        <time>2017-12-09T10:54:57Z</time>
      </trkpt>
      <trkpt lat="46.07245" lon="4.74173">
        <ele>177</ele>
        <time>2017-12-09T10:54:58Z</time>
      </trkpt>
      <trkpt lat="46.07247" lon="4.7418">
        <ele>176</ele>
        <time>2017-12-09T10:54:59Z</time>
      </trkpt>
      <trkpt lat="46.0725" lon="4.74187">
        <ele>176</ele>
        <time>2017-12-09T10:55:00Z</time>
      </trkpt>
      <trkpt lat="46.07253" lon="4.74196">
        <ele>176</ele>
        <time>2017-12-09T10:55:01Z</time>
      </trkpt>
      <trkpt lat="46.07255" lon="4.74205">
        <ele>176</ele>
        <time>2017-12-09T10:55:02Z</time>
      </trkpt>
      <trkpt lat="46.07257" lon="4.74213">
        <ele>176</ele>
        <time>2017-12-09T10:55:03Z</time>
      </trkpt>
      <trkpt lat="46.0726" lon="4.74222">
        <ele>176</ele>
        <time>2017-12-09T10:55:04Z</time>
      </trkpt>
      <trkpt lat="46.07263" lon="4.7423">
        <ele>176</ele>
        <time>2017-12-09T10:55:05Z</time>
      </trkpt>
      <trkpt lat="46.07266" lon="4.74238">
        <ele>175</ele>
        <time>2017-12-09T10:55:06Z</time>
      </trkpt>
      <trkpt lat="46.07269" lon="4.74247">
        <ele>175</ele>
        <time>2017-12-09T10:55:07Z</time>
      </trkpt>
      <trkpt lat="46.07272" lon="4.74256">
        <ele>175</ele>
        <time>2017-12-09T10:55:08Z</time>
      </trkpt>
      <trkpt lat="46.07275" lon="4.74265">
        <ele>175</ele>
        <time>2017-12-09T10:55:09Z</time>
      </trkpt>
      <trkpt lat="46.07278" lon="4.74275">
        <ele>175</ele>
        <time>2017-12-09T10:55:10Z</time>
      </trkpt>
      <trkpt lat="46.07282" lon="4.74284">
        <ele>175</ele>
        <time>2017-12-09T10:55:11Z</time>
      </trkpt>
      <trkpt lat="46.07285" lon="4.74295">
        <ele>174</ele>
        <time>2017-12-09T10:55:12Z</time>
      </trkpt>
      <trkpt lat="46.07287" lon="4.74305">
        <ele>174</ele>
        <time>2017-12-09T10:55:13Z</time>
      </trkpt>
      <trkpt lat="46.07289" lon="4.74316">
        <ele>174</ele>
        <time>2017-12-09T10:55:14Z</time>
      </trkpt>
      <trkpt lat="46.0729" lon="4.74326">
        <ele>174</ele>
        <time>2017-12-09T10:55:15Z</time>
      </trkpt>
      <trkpt lat="46.07292" lon="4.74337">
        <ele>174</ele>
        <time>2017-12-09T10:55:16Z</time>
      </trkpt>
      <trkpt lat="46.07293" lon="4.74346">
        <ele>174</ele>
        <time>2017-12-09T10:55:17Z</time>
      </trkpt>
      <trkpt lat="46.07294" lon="4.74355">
        <ele>174</ele>
        <time>2017-12-09T10:55:18Z</time>
      </trkpt>
      <trkpt lat="46.07295" lon="4.74363">
        <ele>174</ele>
        <time>2017-12-09T10:55:19Z</time>
      </trkpt>
      <trkpt lat="46.07296" lon="4.74372">
        <ele>174</ele>
        <time>2017-12-09T10:55:20Z</time>
      </trkpt>
      <trkpt lat="46.07296" lon="4.7438">
        <ele>174</ele>
        <time>2017-12-09T10:55:21Z</time>
      </trkpt>
      <trkpt lat="46.07297" lon="4.74389">
        <ele>174</ele>
        <time>2017-12-09T10:55:22Z</time>
      </trkpt>
      <trkpt lat="46.07298" lon="4.74396">
        <ele>174</ele>
        <time>2017-12-09T10:55:23Z</time>
      </trkpt>
      <trkpt lat="46.07298" lon="4.74404">
        <ele>174</ele>
        <time>2017-12-09T10:55:24Z</time>
      </trkpt>
      <trkpt lat="46.07298" lon="4.74412">
        <ele>174</ele>
        <time>2017-12-09T10:55:25Z</time>
      </trkpt>
      <trkpt lat="46.073" lon="4.74419">
        <ele>175</ele>
        <time>2017-12-09T10:55:26Z</time>
      </trkpt>
      <trkpt lat="46.07301" lon="4.74426">
        <ele>175</ele>
        <time>2017-12-09T10:55:27Z</time>
      </trkpt>
      <trkpt lat="46.07302" lon="4.74434">
        <ele>175</ele>
        <time>2017-12-09T10:55:28Z</time>
      </trkpt>
      <trkpt lat="46.07305" lon="4.74443">
        <ele>175</ele>
        <time>2017-12-09T10:55:29Z</time>
      </trkpt>
      <trkpt lat="46.07306" lon="4.74451">
        <ele>175</ele>
        <time>2017-12-09T10:55:30Z</time>
      </trkpt>
      <trkpt lat="46.07309" lon="4.74461">
        <ele>175</ele>
        <time>2017-12-09T10:55:31Z</time>
      </trkpt>
      <trkpt lat="46.07312" lon="4.74469">
        <ele>175</ele>
        <time>2017-12-09T10:55:32Z</time>
      </trkpt>
      <trkpt lat="46.07315" lon="4.74477">
        <ele>175</ele>
        <time>2017-12-09T10:55:33Z</time>
      </trkpt>
      <trkpt lat="46.07318" lon="4.74484">
        <ele>175</ele>
        <time>2017-12-09T10:55:34Z</time>
      </trkpt>
      <trkpt lat="46.07321" lon="4.7449">
        <ele>175</ele>
        <time>2017-12-09T10:55:35Z</time>
      </trkpt>
      <trkpt lat="46.07323" lon="4.74496">
        <ele>176</ele>
        <time>2017-12-09T10:55:36Z</time>
      </trkpt>
      <trkpt lat="46.07326" lon="4.74501">
        <ele>176</ele>
        <time>2017-12-09T10:55:37Z</time>
      </trkpt>
      <trkpt lat="46.07329" lon="4.74508">
        <ele>176</ele>
        <time>2017-12-09T10:55:38Z</time>
      </trkpt>
      <trkpt lat="46.07331" lon="4.74514">
        <ele>176</ele>
        <time>2017-12-09T10:55:39Z</time>
      </trkpt>
      <trkpt lat="46.07334" lon="4.7452">
        <ele>175</ele>
        <time>2017-12-09T10:55:40Z</time>
      </trkpt>
      <trkpt lat="46.07339" lon="4.74525">
        <ele>175</ele>
        <time>2017-12-09T10:55:41Z</time>
      </trkpt>
      <trkpt lat="46.07342" lon="4.7453">
        <ele>175</ele>
        <time>2017-12-09T10:55:42Z</time>
      </trkpt>
      <trkpt lat="46.07346" lon="4.74536">
        <ele>175</ele>
        <time>2017-12-09T10:55:43Z</time>
      </trkpt>
      <trkpt lat="46.07351" lon="4.74542">
        <ele>175</ele>
        <time>2017-12-09T10:55:44Z</time>
      </trkpt>
      <trkpt lat="46.07356" lon="4.74548">
        <ele>175</ele>
        <time>2017-12-09T10:55:45Z</time>
      </trkpt>
      <trkpt lat="46.07359" lon="4.74554">
        <ele>175</ele>
        <time>2017-12-09T10:55:46Z</time>
      </trkpt>
      <trkpt lat="46.07363" lon="4.74561">
        <ele>175</ele>
        <time>2017-12-09T10:55:47Z</time>
      </trkpt>
      <trkpt lat="46.07367" lon="4.74568">
        <ele>175</ele>
        <time>2017-12-09T10:55:48Z</time>
      </trkpt>
      <trkpt lat="46.0737" lon="4.74574">
        <ele>175</ele>
        <time>2017-12-09T10:55:49Z</time>
      </trkpt>
      <trkpt lat="46.07373" lon="4.74581">
        <ele>175</ele>
        <time>2017-12-09T10:55:50Z</time>
      </trkpt>
      <trkpt lat="46.07376" lon="4.74588">
        <ele>174</ele>
        <time>2017-12-09T10:55:51Z</time>
      </trkpt>
      <trkpt lat="46.07379" lon="4.74595">
        <ele>174</ele>
        <time>2017-12-09T10:55:52Z</time>
      </trkpt>
      <trkpt lat="46.07382" lon="4.74601">
        <ele>174</ele>
        <time>2017-12-09T10:55:53Z</time>
      </trkpt>
      <trkpt lat="46.07385" lon="4.74606">
        <ele>174</ele>
        <time>2017-12-09T10:55:54Z</time>
      </trkpt>
      <trkpt lat="46.07388" lon="4.74613">
        <ele>174</ele>
        <time>2017-12-09T10:55:55Z</time>
      </trkpt>
      <trkpt lat="46.07392" lon="4.74619">
        <ele>174</ele>
        <time>2017-12-09T10:55:56Z</time>
      </trkpt>
      <trkpt lat="46.07395" lon="4.74628">
        <ele>174</ele>
        <time>2017-12-09T10:55:57Z</time>
      </trkpt>
      <trkpt lat="46.07398" lon="4.74635">
        <ele>174</ele>
        <time>2017-12-09T10:55:58Z</time>
      </trkpt>
      <trkpt lat="46.07402" lon="4.74642">
        <ele>173</ele>
        <time>2017-12-09T10:55:59Z</time>
      </trkpt>
      <trkpt lat="46.07405" lon="4.7465">
        <ele>173</ele>
        <time>2017-12-09T10:56:00Z</time>
      </trkpt>
      <trkpt lat="46.07407" lon="4.74658">
        <ele>173</ele>
        <time>2017-12-09T10:56:01Z</time>
      </trkpt>
      <trkpt lat="46.0741" lon="4.74664">
        <ele>173</ele>
        <time>2017-12-09T10:56:02Z</time>
      </trkpt>
      <trkpt lat="46.07413" lon="4.74671">
        <ele>172</ele>
        <time>2017-12-09T10:56:03Z</time>
      </trkpt>
      <trkpt lat="46.07416" lon="4.74678">
        <ele>172</ele>
        <time>2017-12-09T10:56:04Z</time>
      </trkpt>
      <trkpt lat="46.07419" lon="4.74683">
        <ele>172</ele>
        <time>2017-12-09T10:56:05Z</time>
      </trkpt>
      <trkpt lat="46.07422" lon="4.74688">
        <ele>173</ele>
        <time>2017-12-09T10:56:06Z</time>
      </trkpt>
      <trkpt lat="46.07425" lon="4.74693">
        <ele>173</ele>
        <time>2017-12-09T10:56:07Z</time>
      </trkpt>
      <trkpt lat="46.07428" lon="4.74698">
        <ele>173</ele>
        <time>2017-12-09T10:56:08Z</time>
      </trkpt>
      <trkpt lat="46.07431" lon="4.74704">
        <ele>173</ele>
        <time>2017-12-09T10:56:09Z</time>
      </trkpt>
      <trkpt lat="46.07434" lon="4.7471">
        <ele>173</ele>
        <time>2017-12-09T10:56:10Z</time>
      </trkpt>
      <trkpt lat="46.07437" lon="4.74716">
        <ele>173</ele>
        <time>2017-12-09T10:56:11Z</time>
      </trkpt>
      <trkpt lat="46.0744" lon="4.74721">
        <ele>173</ele>
        <time>2017-12-09T10:56:12Z</time>
      </trkpt>
      <trkpt lat="46.07442" lon="4.74727">
        <ele>173</ele>
        <time>2017-12-09T10:56:13Z</time>
      </trkpt>
      <trkpt lat="46.07447" lon="4.74734">
        <ele>173</ele>
        <time>2017-12-09T10:56:14Z</time>
      </trkpt>
      <trkpt lat="46.0745" lon="4.74739">
        <ele>173</ele>
        <time>2017-12-09T10:56:15Z</time>
      </trkpt>
      <trkpt lat="46.07454" lon="4.74745">
        <ele>173</ele>
        <time>2017-12-09T10:56:16Z</time>
      </trkpt>
      <trkpt lat="46.07458" lon="4.74751">
        <ele>174</ele>
        <time>2017-12-09T10:56:17Z</time>
      </trkpt>
      <trkpt lat="46.07462" lon="4.74756">
        <ele>173</ele>
        <time>2017-12-09T10:56:18Z</time>
      </trkpt>
      <trkpt lat="46.07466" lon="4.74761">
        <ele>173</ele>
        <time>2017-12-09T10:56:19Z</time>
      </trkpt>
      <trkpt lat="46.07469" lon="4.74766">
        <ele>173</ele>
        <time>2017-12-09T10:56:20Z</time>
      </trkpt>
      <trkpt lat="46.07473" lon="4.7477">
        <ele>173</ele>
        <time>2017-12-09T10:56:21Z</time>
      </trkpt>
      <trkpt lat="46.07478" lon="4.74774">
        <ele>173</ele>
        <time>2017-12-09T10:56:22Z</time>
      </trkpt>
      <trkpt lat="46.07482" lon="4.74778">
        <ele>173</ele>
        <time>2017-12-09T10:56:23Z</time>
      </trkpt>
      <trkpt lat="46.07487" lon="4.74782">
        <ele>173</ele>
        <time>2017-12-09T10:56:24Z</time>
      </trkpt>
      <trkpt lat="46.07491" lon="4.74786">
        <ele>173</ele>
        <time>2017-12-09T10:56:25Z</time>
      </trkpt>
      <trkpt lat="46.07496" lon="4.74789">
        <ele>173</ele>
        <time>2017-12-09T10:56:26Z</time>
      </trkpt>
      <trkpt lat="46.07501" lon="4.74794">
        <ele>172</ele>
        <time>2017-12-09T10:56:27Z</time>
      </trkpt>
      <trkpt lat="46.07505" lon="4.74797">
        <ele>172</ele>
        <time>2017-12-09T10:56:28Z</time>
      </trkpt>
      <trkpt lat="46.07509" lon="4.74801">
        <ele>172</ele>
        <time>2017-12-09T10:56:29Z</time>
      </trkpt>
      <trkpt lat="46.07514" lon="4.74805">
        <ele>172</ele>
        <time>2017-12-09T10:56:30Z</time>
      </trkpt>
      <trkpt lat="46.07519" lon="4.74808">
        <ele>172</ele>
        <time>2017-12-09T10:56:31Z</time>
      </trkpt>
      <trkpt lat="46.07523" lon="4.74812">
        <ele>172</ele>
        <time>2017-12-09T10:56:32Z</time>
      </trkpt>
      <trkpt lat="46.07528" lon="4.74815">
        <ele>172</ele>
        <time>2017-12-09T10:56:33Z</time>
      </trkpt>
      <trkpt lat="46.07533" lon="4.74819">
        <ele>172</ele>
        <time>2017-12-09T10:56:34Z</time>
      </trkpt>
      <trkpt lat="46.07538" lon="4.74822">
        <ele>172</ele>
        <time>2017-12-09T10:56:35Z</time>
      </trkpt>
      <trkpt lat="46.07542" lon="4.74827">
        <ele>172</ele>
        <time>2017-12-09T10:56:36Z</time>
      </trkpt>
      <trkpt lat="46.07547" lon="4.74831">
        <ele>172</ele>
        <time>2017-12-09T10:56:37Z</time>
      </trkpt>
      <trkpt lat="46.07553" lon="4.74834">
        <ele>171</ele>
        <time>2017-12-09T10:56:38Z</time>
      </trkpt>
      <trkpt lat="46.07559" lon="4.74839">
        <ele>171</ele>
        <time>2017-12-09T10:56:39Z</time>
      </trkpt>
      <trkpt lat="46.07564" lon="4.74843">
        <ele>171</ele>
        <time>2017-12-09T10:56:40Z</time>
      </trkpt>
      <trkpt lat="46.07567" lon="4.74847">
        <ele>171</ele>
        <time>2017-12-09T10:56:41Z</time>
      </trkpt>
      <trkpt lat="46.07571" lon="4.74851">
        <ele>171</ele>
        <time>2017-12-09T10:56:42Z</time>
      </trkpt>
      <trkpt lat="46.07575" lon="4.74854">
        <ele>171</ele>
        <time>2017-12-09T10:56:43Z</time>
      </trkpt>
      <trkpt lat="46.07583" lon="4.7486">
        <ele>171</ele>
        <time>2017-12-09T10:56:45Z</time>
      </trkpt>
      <trkpt lat="46.07586" lon="4.74864">
        <ele>171</ele>
        <time>2017-12-09T10:56:46Z</time>
      </trkpt>
      <trkpt lat="46.0759" lon="4.74868">
        <ele>171</ele>
        <time>2017-12-09T10:56:47Z</time>
      </trkpt>
      <trkpt lat="46.07594" lon="4.74871">
        <ele>171</ele>
        <time>2017-12-09T10:56:48Z</time>
      </trkpt>
      <trkpt lat="46.07599" lon="4.74875">
        <ele>171</ele>
        <time>2017-12-09T10:56:49Z</time>
      </trkpt>
      <trkpt lat="46.07603" lon="4.74878">
        <ele>171</ele>
        <time>2017-12-09T10:56:50Z</time>
      </trkpt>
      <trkpt lat="46.07608" lon="4.74881">
        <ele>171</ele>
        <time>2017-12-09T10:56:51Z</time>
      </trkpt>
      <trkpt lat="46.07614" lon="4.74885">
        <ele>171</ele>
        <time>2017-12-09T10:56:52Z</time>
      </trkpt>
      <trkpt lat="46.07618" lon="4.74888">
        <ele>171</ele>
        <time>2017-12-09T10:56:53Z</time>
      </trkpt>
      <trkpt lat="46.07623" lon="4.74892">
        <ele>171</ele>
        <time>2017-12-09T10:56:54Z</time>
      </trkpt>
      <trkpt lat="46.07627" lon="4.74896">
        <ele>171</ele>
        <time>2017-12-09T10:56:55Z</time>
      </trkpt>
      <trkpt lat="46.07632" lon="4.749">
        <ele>171</ele>
        <time>2017-12-09T10:56:56Z</time>
      </trkpt>
      <trkpt lat="46.07636" lon="4.74903">
        <ele>171</ele>
        <time>2017-12-09T10:56:57Z</time>
      </trkpt>
      <trkpt lat="46.0764" lon="4.74907">
        <ele>171</ele>
        <time>2017-12-09T10:56:58Z</time>
      </trkpt>
      <trkpt lat="46.07645" lon="4.74911">
        <ele>171</ele>
        <time>2017-12-09T10:56:59Z</time>
      </trkpt>
      <trkpt lat="46.0765" lon="4.74914">
        <ele>171</ele>
        <time>2017-12-09T10:57:00Z</time>
      </trkpt>
      <trkpt lat="46.07655" lon="4.74917">
        <ele>172</ele>
        <time>2017-12-09T10:57:01Z</time>
      </trkpt>
      <trkpt lat="46.0766" lon="4.74921">
        <ele>172</ele>
        <time>2017-12-09T10:57:02Z</time>
      </trkpt>
      <trkpt lat="46.07666" lon="4.74923">
        <ele>172</ele>
        <time>2017-12-09T10:57:03Z</time>
      </trkpt>
      <trkpt lat="46.0767" lon="4.74927">
        <ele>172</ele>
        <time>2017-12-09T10:57:04Z</time>
      </trkpt>
      <trkpt lat="46.07675" lon="4.74932">
        <ele>172</ele>
        <time>2017-12-09T10:57:05Z</time>
      </trkpt>
      <trkpt lat="46.0768" lon="4.74935">
        <ele>172</ele>
        <time>2017-12-09T10:57:06Z</time>
      </trkpt>
      <trkpt lat="46.07685" lon="4.74941">
        <ele>172</ele>
        <time>2017-12-09T10:57:07Z</time>
      </trkpt>
      <trkpt lat="46.07689" lon="4.74945">
        <ele>172</ele>
        <time>2017-12-09T10:57:08Z</time>
      </trkpt>
      <trkpt lat="46.07694" lon="4.74948">
        <ele>172</ele>
        <time>2017-12-09T10:57:09Z</time>
      </trkpt>
      <trkpt lat="46.07698" lon="4.74952">
        <ele>172</ele>
        <time>2017-12-09T10:57:10Z</time>
      </trkpt>
      <trkpt lat="46.07703" lon="4.74955">
        <ele>172</ele>
        <time>2017-12-09T10:57:11Z</time>
      </trkpt>
      <trkpt lat="46.07707" lon="4.74959">
        <ele>172</ele>
        <time>2017-12-09T10:57:12Z</time>
      </trkpt>
      <trkpt lat="46.0771" lon="4.74963">
        <ele>172</ele>
        <time>2017-12-09T10:57:13Z</time>
      </trkpt>
      <trkpt lat="46.07714" lon="4.74966">
        <ele>172</ele>
        <time>2017-12-09T10:57:14Z</time>
      </trkpt>
      <trkpt lat="46.07721" lon="4.74973">
        <ele>172</ele>
        <time>2017-12-09T10:57:16Z</time>
      </trkpt>
      <trkpt lat="46.07727" lon="4.74977">
        <ele>172</ele>
        <time>2017-12-09T10:57:17Z</time>
      </trkpt>
      <trkpt lat="46.07731" lon="4.7498">
        <ele>172</ele>
        <time>2017-12-09T10:57:18Z</time>
      </trkpt>
      <trkpt lat="46.07736" lon="4.74984">
        <ele>173</ele>
        <time>2017-12-09T10:57:19Z</time>
      </trkpt>
      <trkpt lat="46.0774" lon="4.74988">
        <ele>173</ele>
        <time>2017-12-09T10:57:20Z</time>
      </trkpt>
      <trkpt lat="46.07745" lon="4.74992">
        <ele>173</ele>
        <time>2017-12-09T10:57:21Z</time>
      </trkpt>
      <trkpt lat="46.0775" lon="4.74996">
        <ele>173</ele>
        <time>2017-12-09T10:57:22Z</time>
      </trkpt>
      <trkpt lat="46.07755" lon="4.75">
        <ele>173</ele>
        <time>2017-12-09T10:57:23Z</time>
      </trkpt>
      <trkpt lat="46.07759" lon="4.75002">
        <ele>172</ele>
        <time>2017-12-09T10:57:24Z</time>
      </trkpt>
      <trkpt lat="46.07764" lon="4.75005">
        <ele>172</ele>
        <time>2017-12-09T10:57:25Z</time>
      </trkpt>
      <trkpt lat="46.07772" lon="4.75011">
        <ele>172</ele>
        <time>2017-12-09T10:57:27Z</time>
      </trkpt>
      <trkpt lat="46.07775" lon="4.75015">
        <ele>172</ele>
        <time>2017-12-09T10:57:28Z</time>
      </trkpt>
      <trkpt lat="46.07779" lon="4.75018">
        <ele>172</ele>
        <time>2017-12-09T10:57:29Z</time>
      </trkpt>
      <trkpt lat="46.07783" lon="4.75021">
        <ele>172</ele>
        <time>2017-12-09T10:57:30Z</time>
      </trkpt>
      <trkpt lat="46.07788" lon="4.75025">
        <ele>172</ele>
        <time>2017-12-09T10:57:31Z</time>
      </trkpt>
      <trkpt lat="46.07792" lon="4.75028">
        <ele>171</ele>
        <time>2017-12-09T10:57:32Z</time>
      </trkpt>
      <trkpt lat="46.07796" lon="4.75032">
        <ele>171</ele>
        <time>2017-12-09T10:57:33Z</time>
      </trkpt>
      <trkpt lat="46.07801" lon="4.75035">
        <ele>171</ele>
        <time>2017-12-09T10:57:34Z</time>
      </trkpt>
      <trkpt lat="46.07805" lon="4.75039">
        <ele>171</ele>
        <time>2017-12-09T10:57:35Z</time>
      </trkpt>
      <trkpt lat="46.0781" lon="4.75043">
        <ele>171</ele>
        <time>2017-12-09T10:57:36Z</time>
      </trkpt>
      <trkpt lat="46.07815" lon="4.75047">
        <ele>171</ele>
        <time>2017-12-09T10:57:37Z</time>
      </trkpt>
      <trkpt lat="46.07819" lon="4.75052">
        <ele>171</ele>
        <time>2017-12-09T10:57:38Z</time>
      </trkpt>
      <trkpt lat="46.07823" lon="4.75055">
        <ele>171</ele>
        <time>2017-12-09T10:57:39Z</time>
      </trkpt>
      <trkpt lat="46.07826" lon="4.75059">
        <ele>171</ele>
        <time>2017-12-09T10:57:40Z</time>
      </trkpt>
      <trkpt lat="46.0783" lon="4.75064">
        <ele>171</ele>
        <time>2017-12-09T10:57:41Z</time>
      </trkpt>
      <trkpt lat="46.07834" lon="4.75069">
        <ele>171</ele>
        <time>2017-12-09T10:57:42Z</time>
      </trkpt>
      <trkpt lat="46.07838" lon="4.75073">
        <ele>171</ele>
        <time>2017-12-09T10:57:43Z</time>
      </trkpt>
      <trkpt lat="46.07842" lon="4.75078">
        <ele>171</ele>
        <time>2017-12-09T10:57:44Z</time>
      </trkpt>
      <trkpt lat="46.07845" lon="4.75084">
        <ele>171</ele>
        <time>2017-12-09T10:57:45Z</time>
      </trkpt>
      <trkpt lat="46.07849" lon="4.75091">
        <ele>171</ele>
        <time>2017-12-09T10:57:46Z</time>
      </trkpt>
      <trkpt lat="46.07853" lon="4.75096">
        <ele>171</ele>
        <time>2017-12-09T10:57:47Z</time>
      </trkpt>
      <trkpt lat="46.07856" lon="4.75102">
        <ele>171</ele>
        <time>2017-12-09T10:57:48Z</time>
      </trkpt>
      <trkpt lat="46.07862" lon="4.75111">
        <ele>171</ele>
        <time>2017-12-09T10:57:50Z</time>
      </trkpt>
      <trkpt lat="46.07865" lon="4.75117">
        <ele>171</ele>
        <time>2017-12-09T10:57:51Z</time>
      </trkpt>
      <trkpt lat="46.07868" lon="4.75122">
        <ele>171</ele>
        <time>2017-12-09T10:57:52Z</time>
      </trkpt>
      <trkpt lat="46.07871" lon="4.75127">
        <ele>171</ele>
        <time>2017-12-09T10:57:53Z</time>
      </trkpt>
      <trkpt lat="46.07874" lon="4.75132">
        <ele>171</ele>
        <time>2017-12-09T10:57:54Z</time>
      </trkpt>
      <trkpt lat="46.07878" lon="4.75137">
        <ele>171</ele>
        <time>2017-12-09T10:57:55Z</time>
      </trkpt>
      <trkpt lat="46.07881" lon="4.75142">
        <ele>171</ele>
        <time>2017-12-09T10:57:56Z</time>
      </trkpt>
      <trkpt lat="46.07884" lon="4.75148">
        <ele>171</ele>
        <time>2017-12-09T10:57:57Z</time>
      </trkpt>
      <trkpt lat="46.07888" lon="4.75155">
        <ele>171</ele>
        <time>2017-12-09T10:57:58Z</time>
      </trkpt>
      <trkpt lat="46.07891" lon="4.75161">
        <ele>171</ele>
        <time>2017-12-09T10:57:59Z</time>
      </trkpt>
      <trkpt lat="46.07895" lon="4.75168">
        <ele>171</ele>
        <time>2017-12-09T10:58:00Z</time>
      </trkpt>
      <trkpt lat="46.07898" lon="4.75175">
        <ele>171</ele>
        <time>2017-12-09T10:58:01Z</time>
      </trkpt>
      <trkpt lat="46.07902" lon="4.75181">
        <ele>171</ele>
        <time>2017-12-09T10:58:02Z</time>
      </trkpt>
      <trkpt lat="46.07905" lon="4.75187">
        <ele>171</ele>
        <time>2017-12-09T10:58:03Z</time>
      </trkpt>
      <trkpt lat="46.07909" lon="4.75198">
        <ele>171</ele>
        <time>2017-12-09T10:58:05Z</time>
      </trkpt>
      <trkpt lat="46.07912" lon="4.75205">
        <ele>171</ele>
        <time>2017-12-09T10:58:06Z</time>
      </trkpt>
      <trkpt lat="46.07914" lon="4.7521">
        <ele>171</ele>
        <time>2017-12-09T10:58:07Z</time>
      </trkpt>
      <trkpt lat="46.07917" lon="4.75215">
        <ele>171</ele>
        <time>2017-12-09T10:58:08Z</time>
      </trkpt>
      <trkpt lat="46.0792" lon="4.75221">
        <ele>171</ele>
        <time>2017-12-09T10:58:09Z</time>
      </trkpt>
      <trkpt lat="46.07923" lon="4.75227">
        <ele>171</ele>
        <time>2017-12-09T10:58:10Z</time>
      </trkpt>
      <trkpt lat="46.07925" lon="4.75232">
        <ele>170</ele>
        <time>2017-12-09T10:58:11Z</time>
      </trkpt>
      <trkpt lat="46.07929" lon="4.7524">
        <ele>170</ele>
        <time>2017-12-09T10:58:12Z</time>
      </trkpt>
      <trkpt lat="46.07932" lon="4.75247">
        <ele>170</ele>
        <time>2017-12-09T10:58:13Z</time>
      </trkpt>
      <trkpt lat="46.07935" lon="4.75253">
        <ele>170</ele>
        <time>2017-12-09T10:58:14Z</time>
      </trkpt>
      <trkpt lat="46.07937" lon="4.7526">
        <ele>170</ele>
        <time>2017-12-09T10:58:15Z</time>
      </trkpt>
      <trkpt lat="46.07941" lon="4.75266">
        <ele>169</ele>
        <time>2017-12-09T10:58:16Z</time>
      </trkpt>
      <trkpt lat="46.07944" lon="4.75274">
        <ele>169</ele>
        <time>2017-12-09T10:58:17Z</time>
      </trkpt>
      <trkpt lat="46.07947" lon="4.75279">
        <ele>169</ele>
        <time>2017-12-09T10:58:18Z</time>
      </trkpt>
      <trkpt lat="46.07951" lon="4.75285">
        <ele>169</ele>
        <time>2017-12-09T10:58:19Z</time>
      </trkpt>
      <trkpt lat="46.07954" lon="4.75292">
        <ele>169</ele>
        <time>2017-12-09T10:58:20Z</time>
      </trkpt>
      <trkpt lat="46.07956" lon="4.75298">
        <ele>169</ele>
        <time>2017-12-09T10:58:21Z</time>
      </trkpt>
      <trkpt lat="46.07959" lon="4.75304">
        <ele>169</ele>
        <time>2017-12-09T10:58:22Z</time>
      </trkpt>
      <trkpt lat="46.07961" lon="4.7531">
        <ele>169</ele>
        <time>2017-12-09T10:58:23Z</time>
      </trkpt>
      <trkpt lat="46.07964" lon="4.75316">
        <ele>169</ele>
        <time>2017-12-09T10:58:24Z</time>
      </trkpt>
      <trkpt lat="46.07967" lon="4.75322">
        <ele>169</ele>
        <time>2017-12-09T10:58:25Z</time>
      </trkpt>
      <trkpt lat="46.0797" lon="4.75328">
        <ele>169</ele>
        <time>2017-12-09T10:58:26Z</time>
      </trkpt>
      <trkpt lat="46.07974" lon="4.75336">
        <ele>168</ele>
        <time>2017-12-09T10:58:27Z</time>
      </trkpt>
      <trkpt lat="46.07977" lon="4.75343">
        <ele>168</ele>
        <time>2017-12-09T10:58:28Z</time>
      </trkpt>
      <trkpt lat="46.07981" lon="4.75349">
        <ele>168</ele>
        <time>2017-12-09T10:58:29Z</time>
      </trkpt>
      <trkpt lat="46.07984" lon="4.75355">
        <ele>168</ele>
        <time>2017-12-09T10:58:30Z</time>
      </trkpt>
      <trkpt lat="46.07987" lon="4.7536">
        <ele>168</ele>
        <time>2017-12-09T10:58:31Z</time>
      </trkpt>
      <trkpt lat="46.07991" lon="4.75364">
        <ele>168</ele>
        <time>2017-12-09T10:58:32Z</time>
      </trkpt>
      <trkpt lat="46.07994" lon="4.75372">
        <ele>168</ele>
        <time>2017-12-09T10:58:33Z</time>
      </trkpt>
      <trkpt lat="46.07997" lon="4.75378">
        <ele>168</ele>
        <time>2017-12-09T10:58:34Z</time>
      </trkpt>
      <trkpt lat="46.08001" lon="4.75388">
        <ele>167</ele>
        <time>2017-12-09T10:58:36Z</time>
      </trkpt>
      <trkpt lat="46.08003" lon="4.75394">
        <ele>167</ele>
        <time>2017-12-09T10:58:37Z</time>
      </trkpt>
      <trkpt lat="46.08007" lon="4.75403">
        <ele>166</ele>
        <time>2017-12-09T10:58:39Z</time>
      </trkpt>
      <trkpt lat="46.08009" lon="4.75409">
        <ele>166</ele>
        <time>2017-12-09T10:58:40Z</time>
      </trkpt>
      <trkpt lat="46.08014" lon="4.75417">
        <ele>166</ele>
        <time>2017-12-09T10:58:42Z</time>
      </trkpt>
      <trkpt lat="46.08015" lon="4.75421">
        <ele>166</ele>
        <time>2017-12-09T10:58:43Z</time>
      </trkpt>
      <trkpt lat="46.08019" lon="4.75428">
        <ele>166</ele>
        <time>2017-12-09T10:58:45Z</time>
      </trkpt>
      <trkpt lat="46.08023" lon="4.75432">
        <ele>166</ele>
        <time>2017-12-09T10:58:46Z</time>
      </trkpt>
      <trkpt lat="46.08028" lon="4.75441">
        <ele>166</ele>
        <time>2017-12-09T10:58:48Z</time>
      </trkpt>
      <trkpt lat="46.0803" lon="4.75445">
        <ele>166</ele>
        <time>2017-12-09T10:58:49Z</time>
      </trkpt>
      <trkpt lat="46.08034" lon="4.75455">
        <ele>166</ele>
        <time>2017-12-09T10:58:51Z</time>
      </trkpt>
      <trkpt lat="46.08036" lon="4.7546">
        <ele>166</ele>
        <time>2017-12-09T10:58:52Z</time>
      </trkpt>
      <trkpt lat="46.08041" lon="4.7547">
        <ele>166</ele>
        <time>2017-12-09T10:58:54Z</time>
      </trkpt>
      <trkpt lat="46.08043" lon="4.75474">
        <ele>166</ele>
        <time>2017-12-09T10:58:55Z</time>
      </trkpt>
      <trkpt lat="46.08046" lon="4.75481">
        <ele>166</ele>
        <time>2017-12-09T10:58:57Z</time>
      </trkpt>
      <trkpt lat="46.08048" lon="4.75485">
        <ele>166</ele>
        <time>2017-12-09T10:58:58Z</time>
      </trkpt>
      <trkpt lat="46.08051" lon="4.75491">
        <ele>166</ele>
        <time>2017-12-09T10:59:00Z</time>
      </trkpt>
      <trkpt lat="46.08052" lon="4.75496">
        <ele>166</ele>
        <time>2017-12-09T10:59:01Z</time>
      </trkpt>
      <trkpt lat="46.08056" lon="4.75505">
        <ele>167</ele>
        <time>2017-12-09T10:59:03Z</time>
      </trkpt>
      <trkpt lat="46.08058" lon="4.75511">
        <ele>167</ele>
        <time>2017-12-09T10:59:04Z</time>
      </trkpt>
      <trkpt lat="46.0806" lon="4.75516">
        <ele>167</ele>
        <time>2017-12-09T10:59:05Z</time>
      </trkpt>
      <trkpt lat="46.08062" lon="4.75525">
        <ele>168</ele>
        <time>2017-12-09T10:59:06Z</time>
      </trkpt>
      <trkpt lat="46.08067" lon="4.75535">
        <ele>168</ele>
        <time>2017-12-09T10:59:08Z</time>
      </trkpt>
      <trkpt lat="46.0807" lon="4.75541">
        <ele>169</ele>
        <time>2017-12-09T10:59:09Z</time>
      </trkpt>
      <trkpt lat="46.08072" lon="4.75547">
        <ele>169</ele>
        <time>2017-12-09T10:59:10Z</time>
      </trkpt>
      <trkpt lat="46.08076" lon="4.75552">
        <ele>169</ele>
        <time>2017-12-09T10:59:11Z</time>
      </trkpt>
      <trkpt lat="46.08079" lon="4.75558">
        <ele>170</ele>
        <time>2017-12-09T10:59:12Z</time>
      </trkpt>
      <trkpt lat="46.08083" lon="4.75563">
        <ele>171</ele>
        <time>2017-12-09T10:59:13Z</time>
      </trkpt>
      <trkpt lat="46.08086" lon="4.7557">
        <ele>173</ele>
        <time>2017-12-09T10:59:14Z</time>
      </trkpt>
      <trkpt lat="46.08088" lon="4.75575">
        <ele>173</ele>
        <time>2017-12-09T10:59:15Z</time>
      </trkpt>
      <trkpt lat="46.08091" lon="4.75586">
        <ele>174</ele>
        <time>2017-12-09T10:59:18Z</time>
      </trkpt>
      <trkpt lat="46.0809" lon="4.75588">
        <ele>174</ele>
        <time>2017-12-09T10:59:19Z</time>
      </trkpt>
      <trkpt lat="46.08084" lon="4.75596">
        <ele>175</ele>
        <time>2017-12-09T10:59:23Z</time>
      </trkpt>
      <trkpt lat="46.08082" lon="4.75599">
        <ele>174</ele>
        <time>2017-12-09T10:59:24Z</time>
      </trkpt>
      <trkpt lat="46.08076" lon="4.75607">
        <ele>173</ele>
        <time>2017-12-09T10:59:27Z</time>
      </trkpt>
      <trkpt lat="46.08074" lon="4.75608">
        <ele>173</ele>
        <time>2017-12-09T10:59:28Z</time>
      </trkpt>
      <trkpt lat="46.08065" lon="4.75612">
        <ele>173</ele>
        <time>2017-12-09T10:59:36Z</time>
      </trkpt>
      <trkpt lat="46.08063" lon="4.75613">
        <ele>173</ele>
        <time>2017-12-09T10:59:37Z</time>
      </trkpt>
      <trkpt lat="46.08056" lon="4.75619">
        <ele>173</ele>
        <time>2017-12-09T11:00:52Z</time>
      </trkpt>
      <trkpt lat="46.08054" lon="4.75623">
        <ele>173</ele>
        <time>2017-12-09T11:00:53Z</time>
      </trkpt>
      <trkpt lat="46.08049" lon="4.7563">
        <ele>173</ele>
        <time>2017-12-09T11:01:02Z</time>
      </trkpt>
      <trkpt lat="46.0805" lon="4.7563">
        <ele>173</ele>
        <time>2017-12-09T11:01:03Z</time>
      </trkpt>
      <trkpt lat="46.0805" lon="4.7563">
        <ele>173</ele>
        <time>2017-12-09T11:01:04Z</time>
      </trkpt>
      <trkpt lat="46.0805" lon="4.7563">
        <ele>173</ele>
        <time>2017-12-09T11:01:05Z</time>
      </trkpt>
      <trkpt lat="46.08046" lon="4.75624">
        <ele>173</ele>
        <time>2017-12-09T11:05:20Z</time>
      </trkpt>
      <trkpt lat="46.08046" lon="4.75623">
        <ele>173</ele>
        <time>2017-12-09T11:05:21Z</time>
      </trkpt>
      <trkpt lat="46.08045" lon="4.75618">
        <ele>173</ele>
        <time>2017-12-09T11:05:44Z</time>
      </trkpt>
      <trkpt lat="46.08045" lon="4.75618">
        <ele>173</ele>
        <time>2017-12-09T11:05:45Z</time>
      </trkpt>
      <trkpt lat="46.08045" lon="4.75617">
        <ele>173</ele>
        <time>2017-12-09T11:05:46Z</time>
      </trkpt>
      <trkpt lat="46.08045" lon="4.75616">
        <ele>173</ele>
        <time>2017-12-09T11:05:47Z</time>
      </trkpt>
      <trkpt lat="46.08046" lon="4.75616">
        <ele>173</ele>
        <time>2017-12-09T11:06:07Z</time>
      </trkpt>
      <trkpt lat="46.08046" lon="4.75616">
        <ele>173</ele>
        <time>2017-12-09T11:06:08Z</time>
      </trkpt>
      <trkpt lat="46.08042" lon="4.75627">
        <ele>173</ele>
        <time>2017-12-09T11:11:09Z</time>
      </trkpt>
      <trkpt lat="46.08041" lon="4.75628">
        <ele>173</ele>
        <time>2017-12-09T11:11:10Z</time>
      </trkpt>
      <trkpt lat="46.08036" lon="4.75637">
        <ele>173</ele>
        <time>2017-12-09T11:11:14Z</time>
      </trkpt>
      <trkpt lat="46.08035" lon="4.75639">
        <ele>173</ele>
        <time>2017-12-09T11:11:15Z</time>
      </trkpt>
      <trkpt lat="46.08027" lon="4.75645">
        <ele>174</ele>
        <time>2017-12-09T11:11:20Z</time>
      </trkpt>
      <trkpt lat="46.08026" lon="4.75644">
        <ele>174</ele>
        <time>2017-12-09T11:11:21Z</time>
      </trkpt>
      <trkpt lat="46.0802" lon="4.75645">
        <ele>174</ele>
        <time>2017-12-09T11:11:24Z</time>
      </trkpt>
      <trkpt lat="46.08017" lon="4.75647">
        <ele>174</ele>
        <time>2017-12-09T11:11:25Z</time>
      </trkpt>
      <trkpt lat="46.0801" lon="4.75654">
        <ele>174</ele>
        <time>2017-12-09T11:11:28Z</time>
      </trkpt>
      <trkpt lat="46.08008" lon="4.75657">
        <ele>175</ele>
        <time>2017-12-09T11:11:29Z</time>
      </trkpt>
      <trkpt lat="46.08001" lon="4.75663">
        <ele>176</ele>
        <time>2017-12-09T11:11:31Z</time>
      </trkpt>
      <trkpt lat="46.07997" lon="4.75667">
        <ele>175</ele>
        <time>2017-12-09T11:11:32Z</time>
      </trkpt>
      <trkpt lat="46.07992" lon="4.75674">
        <ele>175</ele>
        <time>2017-12-09T11:11:33Z</time>
      </trkpt>
      <trkpt lat="46.07988" lon="4.75677">
        <ele>174</ele>
        <time>2017-12-09T11:11:34Z</time>
      </trkpt>
      <trkpt lat="46.07983" lon="4.75681">
        <ele>174</ele>
        <time>2017-12-09T11:11:35Z</time>
      </trkpt>
      <trkpt lat="46.07978" lon="4.75685">
        <ele>174</ele>
        <time>2017-12-09T11:11:36Z</time>
      </trkpt>
      <trkpt lat="46.07974" lon="4.75689">
        <ele>173</ele>
        <time>2017-12-09T11:11:37Z</time>
      </trkpt>
      <trkpt lat="46.07969" lon="4.75692">
        <ele>173</ele>
        <time>2017-12-09T11:11:38Z</time>
      </trkpt>
      <trkpt lat="46.07965" lon="4.75696">
        <ele>173</ele>
        <time>2017-12-09T11:11:39Z</time>
      </trkpt>
      <trkpt lat="46.0796" lon="4.75698">
        <ele>173</ele>
        <time>2017-12-09T11:11:40Z</time>
      </trkpt>
      <trkpt lat="46.07955" lon="4.75705">
        <ele>173</ele>
        <time>2017-12-09T11:11:41Z</time>
      </trkpt>
      <trkpt lat="46.0795" lon="4.75711">
        <ele>173</ele>
        <time>2017-12-09T11:11:42Z</time>
      </trkpt>
      <trkpt lat="46.07943" lon="4.75718">
        <ele>173</ele>
        <time>2017-12-09T11:11:44Z</time>
      </trkpt>
      <trkpt lat="46.07939" lon="4.75723">
        <ele>173</ele>
        <time>2017-12-09T11:11:45Z</time>
      </trkpt>
      <trkpt lat="46.07936" lon="4.75727">
        <ele>173</ele>
        <time>2017-12-09T11:11:46Z</time>
      </trkpt>
      <trkpt lat="46.07932" lon="4.75731">
        <ele>173</ele>
        <time>2017-12-09T11:11:47Z</time>
      </trkpt>
      <trkpt lat="46.07928" lon="4.75735">
        <ele>173</ele>
        <time>2017-12-09T11:11:48Z</time>
      </trkpt>
      <trkpt lat="46.07924" lon="4.75739">
        <ele>173</ele>
        <time>2017-12-09T11:11:49Z</time>
      </trkpt>
      <trkpt lat="46.07919" lon="4.75742">
        <ele>173</ele>
        <time>2017-12-09T11:11:50Z</time>
      </trkpt>
      <trkpt lat="46.07915" lon="4.75745">
        <ele>172</ele>
        <time>2017-12-09T11:11:51Z</time>
      </trkpt>
      <trkpt lat="46.0791" lon="4.75751">
        <ele>173</ele>
        <time>2017-12-09T11:11:52Z</time>
      </trkpt>
      <trkpt lat="46.07906" lon="4.75756">
        <ele>172</ele>
        <time>2017-12-09T11:11:53Z</time>
      </trkpt>
      <trkpt lat="46.07901" lon="4.75761">
        <ele>172</ele>
        <time>2017-12-09T11:11:54Z</time>
      </trkpt>
      <trkpt lat="46.07897" lon="4.75765">
        <ele>172</ele>
        <time>2017-12-09T11:11:55Z</time>
      </trkpt>
      <trkpt lat="46.07893" lon="4.7577">
        <ele>172</ele>
        <time>2017-12-09T11:11:56Z</time>
      </trkpt>
      <trkpt lat="46.07887" lon="4.75773">
        <ele>172</ele>
        <time>2017-12-09T11:11:57Z</time>
      </trkpt>
      <trkpt lat="46.0788" lon="4.75779">
        <ele>171</ele>
        <time>2017-12-09T11:11:59Z</time>
      </trkpt>
      <trkpt lat="46.07876" lon="4.75784">
        <ele>171</ele>
        <time>2017-12-09T11:12:00Z</time>
      </trkpt>
      <trkpt lat="46.07872" lon="4.75788">
        <ele>171</ele>
        <time>2017-12-09T11:12:01Z</time>
      </trkpt>
      <trkpt lat="46.07868" lon="4.75792">
        <ele>171</ele>
        <time>2017-12-09T11:12:02Z</time>
      </trkpt>
      <trkpt lat="46.07864" lon="4.75796">
        <ele>171</ele>
        <time>2017-12-09T11:12:03Z</time>
      </trkpt>
      <trkpt lat="46.07859" lon="4.758">
        <ele>171</ele>
        <time>2017-12-09T11:12:04Z</time>
      </trkpt>
      <trkpt lat="46.07856" lon="4.75805">
        <ele>172</ele>
        <time>2017-12-09T11:12:05Z</time>
      </trkpt>
      <trkpt lat="46.07852" lon="4.7581">
        <ele>172</ele>
        <time>2017-12-09T11:12:06Z</time>
      </trkpt>
      <trkpt lat="46.07847" lon="4.75814">
        <ele>172</ele>
        <time>2017-12-09T11:12:07Z</time>
      </trkpt>
      <trkpt lat="46.07843" lon="4.75818">
        <ele>172</ele>
        <time>2017-12-09T11:12:08Z</time>
      </trkpt>
      <trkpt lat="46.07839" lon="4.75823">
        <ele>172</ele>
        <time>2017-12-09T11:12:09Z</time>
      </trkpt>
      <trkpt lat="46.07835" lon="4.75826">
        <ele>173</ele>
        <time>2017-12-09T11:12:10Z</time>
      </trkpt>
      <trkpt lat="46.07831" lon="4.75831">
        <ele>172</ele>
        <time>2017-12-09T11:12:11Z</time>
      </trkpt>
      <trkpt lat="46.07828" lon="4.75836">
        <ele>173</ele>
        <time>2017-12-09T11:12:12Z</time>
      </trkpt>
      <trkpt lat="46.07825" lon="4.7584">
        <ele>173</ele>
        <time>2017-12-09T11:12:13Z</time>
      </trkpt>
      <trkpt lat="46.07821" lon="4.75845">
        <ele>173</ele>
        <time>2017-12-09T11:12:14Z</time>
      </trkpt>
      <trkpt lat="46.07817" lon="4.7585">
        <ele>172</ele>
        <time>2017-12-09T11:12:15Z</time>
      </trkpt>
      <trkpt lat="46.07812" lon="4.75856">
        <ele>172</ele>
        <time>2017-12-09T11:12:16Z</time>
      </trkpt>
      <trkpt lat="46.07807" lon="4.7586">
        <ele>172</ele>
        <time>2017-12-09T11:12:17Z</time>
      </trkpt>
      <trkpt lat="46.07803" lon="4.75864">
        <ele>172</ele>
        <time>2017-12-09T11:12:18Z</time>
      </trkpt>
      <trkpt lat="46.07798" lon="4.75869">
        <ele>172</ele>
        <time>2017-12-09T11:12:19Z</time>
      </trkpt>
      <trkpt lat="46.07793" lon="4.75874">
        <ele>172</ele>
        <time>2017-12-09T11:12:20Z</time>
      </trkpt>
      <trkpt lat="46.07788" lon="4.75879">
        <ele>172</ele>
        <time>2017-12-09T11:12:21Z</time>
      </trkpt>
      <trkpt lat="46.07783" lon="4.75883">
        <ele>172</ele>
        <time>2017-12-09T11:12:22Z</time>
      </trkpt>
      <trkpt lat="46.07779" lon="4.75887">
        <ele>172</ele>
        <time>2017-12-09T11:12:23Z</time>
      </trkpt>
      <trkpt lat="46.07773" lon="4.7589">
        <ele>172</ele>
        <time>2017-12-09T11:12:24Z</time>
      </trkpt>
      <trkpt lat="46.07769" lon="4.75893">
        <ele>173</ele>
        <time>2017-12-09T11:12:25Z</time>
      </trkpt>
      <trkpt lat="46.07765" lon="4.75899">
        <ele>173</ele>
        <time>2017-12-09T11:12:26Z</time>
      </trkpt>
      <trkpt lat="46.07761" lon="4.75904">
        <ele>173</ele>
        <time>2017-12-09T11:12:27Z</time>
      </trkpt>
      <trkpt lat="46.07756" lon="4.75909">
        <ele>173</ele>
        <time>2017-12-09T11:12:28Z</time>
      </trkpt>
      <trkpt lat="46.07752" lon="4.75912">
        <ele>174</ele>
        <time>2017-12-09T11:12:29Z</time>
      </trkpt>
      <trkpt lat="46.07748" lon="4.75915">
        <ele>173</ele>
        <time>2017-12-09T11:12:30Z</time>
      </trkpt>
      <trkpt lat="46.07743" lon="4.75919">
        <ele>174</ele>
        <time>2017-12-09T11:12:31Z</time>
      </trkpt>
      <trkpt lat="46.07738" lon="4.75923">
        <ele>173</ele>
        <time>2017-12-09T11:12:32Z</time>
      </trkpt>
      <trkpt lat="46.07733" lon="4.75927">
        <ele>173</ele>
        <time>2017-12-09T11:12:33Z</time>
      </trkpt>
      <trkpt lat="46.07728" lon="4.7593">
        <ele>173</ele>
        <time>2017-12-09T11:12:34Z</time>
      </trkpt>
      <trkpt lat="46.07723" lon="4.75935">
        <ele>173</ele>
        <time>2017-12-09T11:12:35Z</time>
      </trkpt>
      <trkpt lat="46.07718" lon="4.75939">
        <ele>172</ele>
        <time>2017-12-09T11:12:36Z</time>
      </trkpt>
      <trkpt lat="46.07712" lon="4.75945">
        <ele>172</ele>
        <time>2017-12-09T11:12:37Z</time>
      </trkpt>
      <trkpt lat="46.07707" lon="4.75948">
        <ele>172</ele>
        <time>2017-12-09T11:12:38Z</time>
      </trkpt>
      <trkpt lat="46.07703" lon="4.75951">
        <ele>172</ele>
        <time>2017-12-09T11:12:39Z</time>
      </trkpt>
      <trkpt lat="46.07699" lon="4.75954">
        <ele>172</ele>
        <time>2017-12-09T11:12:40Z</time>
      </trkpt>
      <trkpt lat="46.07694" lon="4.75957">
        <ele>172</ele>
        <time>2017-12-09T11:12:41Z</time>
      </trkpt>
      <trkpt lat="46.07689" lon="4.7596">
        <ele>172</ele>
        <time>2017-12-09T11:12:42Z</time>
      </trkpt>
      <trkpt lat="46.07685" lon="4.75963">
        <ele>172</ele>
        <time>2017-12-09T11:12:43Z</time>
      </trkpt>
      <trkpt lat="46.0768" lon="4.75967">
        <ele>172</ele>
        <time>2017-12-09T11:12:44Z</time>
      </trkpt>
      <trkpt lat="46.07675" lon="4.75974">
        <ele>172</ele>
        <time>2017-12-09T11:12:45Z</time>
      </trkpt>
      <trkpt lat="46.07671" lon="4.75975">
        <ele>172</ele>
        <time>2017-12-09T11:12:46Z</time>
      </trkpt>
      <trkpt lat="46.07666" lon="4.75977">
        <ele>170</ele>
        <time>2017-12-09T11:12:47Z</time>
      </trkpt>
      <trkpt lat="46.07662" lon="4.75977">
        <ele>170</ele>
        <time>2017-12-09T11:12:48Z</time>
      </trkpt>
      <trkpt lat="46.07655" lon="4.75983">
        <ele>170</ele>
        <time>2017-12-09T11:12:50Z</time>
      </trkpt>
      <trkpt lat="46.07652" lon="4.75985">
        <ele>170</ele>
        <time>2017-12-09T11:12:51Z</time>
      </trkpt>
      <trkpt lat="46.07646" lon="4.75994">
        <ele>170</ele>
        <time>2017-12-09T11:12:53Z</time>
      </trkpt>
      <trkpt lat="46.07644" lon="4.75999">
        <ele>170</ele>
        <time>2017-12-09T11:12:54Z</time>
      </trkpt>
      <trkpt lat="46.07647" lon="4.76011">
        <ele>172</ele>
        <time>2017-12-09T11:12:57Z</time>
      </trkpt>
      <trkpt lat="46.07649" lon="4.76015">
        <ele>172</ele>
        <time>2017-12-09T11:12:58Z</time>
      </trkpt>
      <trkpt lat="46.07652" lon="4.76023">
        <ele>172</ele>
        <time>2017-12-09T11:13:00Z</time>
      </trkpt>
      <trkpt lat="46.07654" lon="4.7603">
        <ele>172</ele>
        <time>2017-12-09T11:13:01Z</time>
      </trkpt>
      <trkpt lat="46.07657" lon="4.76037">
        <ele>172</ele>
        <time>2017-12-09T11:13:03Z</time>
      </trkpt>
      <trkpt lat="46.0766" lon="4.76042">
        <ele>172</ele>
        <time>2017-12-09T11:13:04Z</time>
      </trkpt>
      <trkpt lat="46.07662" lon="4.76049">
        <ele>172</ele>
        <time>2017-12-09T11:13:05Z</time>
      </trkpt>
      <trkpt lat="46.07665" lon="4.76056">
        <ele>172</ele>
        <time>2017-12-09T11:13:06Z</time>
      </trkpt>
      <trkpt lat="46.07668" lon="4.76065">
        <ele>174</ele>
        <time>2017-12-09T11:13:08Z</time>
      </trkpt>
      <trkpt lat="46.0767" lon="4.76071">
        <ele>174</ele>
        <time>2017-12-09T11:13:09Z</time>
      </trkpt>
      <trkpt lat="46.07672" lon="4.76077">
        <ele>173</ele>
        <time>2017-12-09T11:13:10Z</time>
      </trkpt>
      <trkpt lat="46.07674" lon="4.76084">
        <ele>173</ele>
        <time>2017-12-09T11:13:11Z</time>
      </trkpt>
      <trkpt lat="46.07678" lon="4.76092">
        <ele>173</ele>
        <time>2017-12-09T11:13:13Z</time>
      </trkpt>
      <trkpt lat="46.07679" lon="4.76095">
        <ele>173</ele>
        <time>2017-12-09T11:13:14Z</time>
      </trkpt>
      <trkpt lat="46.07677" lon="4.76105">
        <ele>173</ele>
        <time>2017-12-09T11:13:17Z</time>
      </trkpt>
      <trkpt lat="46.07674" lon="4.76109">
        <ele>173</ele>
        <time>2017-12-09T11:13:18Z</time>
      </trkpt>
      <trkpt lat="46.0767" lon="4.76112">
        <ele>173</ele>
        <time>2017-12-09T11:13:19Z</time>
      </trkpt>
      <trkpt lat="46.07665" lon="4.76117">
        <ele>172</ele>
        <time>2017-12-09T11:13:20Z</time>
      </trkpt>
      <trkpt lat="46.07661" lon="4.7612">
        <ele>172</ele>
        <time>2017-12-09T11:13:21Z</time>
      </trkpt>
      <trkpt lat="46.07657" lon="4.76125">
        <ele>172</ele>
        <time>2017-12-09T11:13:22Z</time>
      </trkpt>
      <trkpt lat="46.07653" lon="4.76129">
        <ele>172</ele>
        <time>2017-12-09T11:13:23Z</time>
      </trkpt>
      <trkpt lat="46.07648" lon="4.76133">
        <ele>172</ele>
        <time>2017-12-09T11:13:24Z</time>
      </trkpt>
      <trkpt lat="46.07643" lon="4.76141">
        <ele>172</ele>
        <time>2017-12-09T11:13:25Z</time>
      </trkpt>
      <trkpt lat="46.0764" lon="4.76146">
        <ele>172</ele>
        <time>2017-12-09T11:13:26Z</time>
      </trkpt>
      <trkpt lat="46.07636" lon="4.76152">
        <ele>172</ele>
        <time>2017-12-09T11:13:27Z</time>
      </trkpt>
      <trkpt lat="46.07632" lon="4.76156">
        <ele>172</ele>
        <time>2017-12-09T11:13:28Z</time>
      </trkpt>
      <trkpt lat="46.07628" lon="4.76161">
        <ele>172</ele>
        <time>2017-12-09T11:13:29Z</time>
      </trkpt>
      <trkpt lat="46.07624" lon="4.76166">
        <ele>172</ele>
        <time>2017-12-09T11:13:30Z</time>
      </trkpt>
      <trkpt lat="46.0762" lon="4.76169">
        <ele>173</ele>
        <time>2017-12-09T11:13:31Z</time>
      </trkpt>
      <trkpt lat="46.07616" lon="4.76175">
        <ele>173</ele>
        <time>2017-12-09T11:13:32Z</time>
      </trkpt>
      <trkpt lat="46.07611" lon="4.7618">
        <ele>173</ele>
        <time>2017-12-09T11:13:33Z</time>
      </trkpt>
      <trkpt lat="46.07607" lon="4.76186">
        <ele>173</ele>
        <time>2017-12-09T11:13:34Z</time>
      </trkpt>
      <trkpt lat="46.07603" lon="4.76191">
        <ele>173</ele>
        <time>2017-12-09T11:13:35Z</time>
      </trkpt>
      <trkpt lat="46.07598" lon="4.76195">
        <ele>173</ele>
        <time>2017-12-09T11:13:36Z</time>
      </trkpt>
      <trkpt lat="46.07594" lon="4.76201">
        <ele>173</ele>
        <time>2017-12-09T11:13:37Z</time>
      </trkpt>
      <trkpt lat="46.07589" lon="4.76205">
        <ele>173</ele>
        <time>2017-12-09T11:13:38Z</time>
      </trkpt>
      <trkpt lat="46.07584" lon="4.7621">
        <ele>173</ele>
        <time>2017-12-09T11:13:39Z</time>
      </trkpt>
      <trkpt lat="46.07579" lon="4.76214">
        <ele>173</ele>
        <time>2017-12-09T11:13:40Z</time>
      </trkpt>
      <trkpt lat="46.07574" lon="4.7622">
        <ele>173</ele>
        <time>2017-12-09T11:13:41Z</time>
      </trkpt>
      <trkpt lat="46.0757" lon="4.76225">
        <ele>173</ele>
        <time>2017-12-09T11:13:42Z</time>
      </trkpt>
      <trkpt lat="46.07565" lon="4.7623">
        <ele>173</ele>
        <time>2017-12-09T11:13:43Z</time>
      </trkpt>
      <trkpt lat="46.07561" lon="4.76234">
        <ele>173</ele>
        <time>2017-12-09T11:13:44Z</time>
      </trkpt>
      <trkpt lat="46.07557" lon="4.76238">
        <ele>173</ele>
        <time>2017-12-09T11:13:45Z</time>
      </trkpt>
      <trkpt lat="46.07553" lon="4.76242">
        <ele>173</ele>
        <time>2017-12-09T11:13:46Z</time>
      </trkpt>
      <trkpt lat="46.07549" lon="4.76248">
        <ele>173</ele>
        <time>2017-12-09T11:13:47Z</time>
      </trkpt>
      <trkpt lat="46.07544" lon="4.76252">
        <ele>174</ele>
        <time>2017-12-09T11:13:48Z</time>
      </trkpt>
      <trkpt lat="46.0754" lon="4.76257">
        <ele>174</ele>
        <time>2017-12-09T11:13:49Z</time>
      </trkpt>
      <trkpt lat="46.07535" lon="4.76261">
        <ele>174</ele>
        <time>2017-12-09T11:13:50Z</time>
      </trkpt>
      <trkpt lat="46.0753" lon="4.76265">
        <ele>174</ele>
        <time>2017-12-09T11:13:51Z</time>
      </trkpt>
      <trkpt lat="46.07525" lon="4.76271">
        <ele>174</ele>
        <time>2017-12-09T11:13:52Z</time>
      </trkpt>
      <trkpt lat="46.07521" lon="4.76277">
        <ele>174</ele>
        <time>2017-12-09T11:13:53Z</time>
      </trkpt>
      <trkpt lat="46.07516" lon="4.76282">
        <ele>174</ele>
        <time>2017-12-09T11:13:54Z</time>
      </trkpt>
      <trkpt lat="46.07511" lon="4.76288">
        <ele>174</ele>
        <time>2017-12-09T11:13:55Z</time>
      </trkpt>
      <trkpt lat="46.07506" lon="4.76292">
        <ele>174</ele>
        <time>2017-12-09T11:13:56Z</time>
      </trkpt>
      <trkpt lat="46.07502" lon="4.76298">
        <ele>174</ele>
        <time>2017-12-09T11:13:57Z</time>
      </trkpt>
      <trkpt lat="46.07498" lon="4.76303">
        <ele>173</ele>
        <time>2017-12-09T11:13:58Z</time>
      </trkpt>
      <trkpt lat="46.07494" lon="4.76305">
        <ele>173</ele>
        <time>2017-12-09T11:13:59Z</time>
      </trkpt>
      <trkpt lat="46.07488" lon="4.76307">
        <ele>173</ele>
        <time>2017-12-09T11:14:00Z</time>
      </trkpt>
      <trkpt lat="46.07483" lon="4.76309">
        <ele>173</ele>
        <time>2017-12-09T11:14:01Z</time>
      </trkpt>
      <trkpt lat="46.07478" lon="4.76312">
        <ele>173</ele>
        <time>2017-12-09T11:14:02Z</time>
      </trkpt>
      <trkpt lat="46.07475" lon="4.76318">
        <ele>173</ele>
        <time>2017-12-09T11:14:03Z</time>
      </trkpt>
      <trkpt lat="46.07471" lon="4.76324">
        <ele>172</ele>
        <time>2017-12-09T11:14:04Z</time>
      </trkpt>
      <trkpt lat="46.07468" lon="4.7633">
        <ele>172</ele>
        <time>2017-12-09T11:14:05Z</time>
      </trkpt>
      <trkpt lat="46.07466" lon="4.76337">
        <ele>172</ele>
        <time>2017-12-09T11:14:06Z</time>
      </trkpt>
      <trkpt lat="46.0746" lon="4.76346">
        <ele>172</ele>
        <time>2017-12-09T11:14:08Z</time>
      </trkpt>
      <trkpt lat="46.07456" lon="4.7635">
        <ele>172</ele>
        <time>2017-12-09T11:14:09Z</time>
      </trkpt>
      <trkpt lat="46.07452" lon="4.76355">
        <ele>172</ele>
        <time>2017-12-09T11:14:10Z</time>
      </trkpt>
      <trkpt lat="46.07448" lon="4.7636">
        <ele>172</ele>
        <time>2017-12-09T11:14:11Z</time>
      </trkpt>
      <trkpt lat="46.07443" lon="4.76365">
        <ele>172</ele>
        <time>2017-12-09T11:14:12Z</time>
      </trkpt>
      <trkpt lat="46.07438" lon="4.76368">
        <ele>171</ele>
        <time>2017-12-09T11:14:13Z</time>
      </trkpt>
      <trkpt lat="46.07432" lon="4.76373">
        <ele>171</ele>
        <time>2017-12-09T11:14:14Z</time>
      </trkpt>
      <trkpt lat="46.07427" lon="4.76378">
        <ele>171</ele>
        <time>2017-12-09T11:14:15Z</time>
      </trkpt>
      <trkpt lat="46.07423" lon="4.76383">
        <ele>171</ele>
        <time>2017-12-09T11:14:16Z</time>
      </trkpt>
      <trkpt lat="46.07418" lon="4.76387">
        <ele>171</ele>
        <time>2017-12-09T11:14:17Z</time>
      </trkpt>
      <trkpt lat="46.07413" lon="4.76392">
        <ele>170</ele>
        <time>2017-12-09T11:14:18Z</time>
      </trkpt>
      <trkpt lat="46.0741" lon="4.76397">
        <ele>170</ele>
        <time>2017-12-09T11:14:19Z</time>
      </trkpt>
      <trkpt lat="46.07405" lon="4.76402">
        <ele>171</ele>
        <time>2017-12-09T11:14:20Z</time>
      </trkpt>
      <trkpt lat="46.074" lon="4.76406">
        <ele>171</ele>
        <time>2017-12-09T11:14:21Z</time>
      </trkpt>
      <trkpt lat="46.07396" lon="4.76412">
        <ele>170</ele>
        <time>2017-12-09T11:14:22Z</time>
      </trkpt>
      <trkpt lat="46.07391" lon="4.76417">
        <ele>170</ele>
        <time>2017-12-09T11:14:23Z</time>
      </trkpt>
      <trkpt lat="46.07386" lon="4.76422">
        <ele>171</ele>
        <time>2017-12-09T11:14:24Z</time>
      </trkpt>
      <trkpt lat="46.07381" lon="4.76428">
        <ele>171</ele>
        <time>2017-12-09T11:14:25Z</time>
      </trkpt>
      <trkpt lat="46.07377" lon="4.76433">
        <ele>171</ele>
        <time>2017-12-09T11:14:26Z</time>
      </trkpt>
      <trkpt lat="46.07371" lon="4.76438">
        <ele>171</ele>
        <time>2017-12-09T11:14:27Z</time>
      </trkpt>
      <trkpt lat="46.07366" lon="4.76444">
        <ele>171</ele>
        <time>2017-12-09T11:14:28Z</time>
      </trkpt>
      <trkpt lat="46.0736" lon="4.7645">
        <ele>171</ele>
        <time>2017-12-09T11:14:29Z</time>
      </trkpt>
      <trkpt lat="46.07355" lon="4.76457">
        <ele>171</ele>
        <time>2017-12-09T11:14:30Z</time>
      </trkpt>
      <trkpt lat="46.0735" lon="4.76462">
        <ele>171</ele>
        <time>2017-12-09T11:14:31Z</time>
      </trkpt>
      <trkpt lat="46.07345" lon="4.76467">
        <ele>171</ele>
        <time>2017-12-09T11:14:32Z</time>
      </trkpt>
      <trkpt lat="46.07341" lon="4.76471">
        <ele>171</ele>
        <time>2017-12-09T11:14:33Z</time>
      </trkpt>
      <trkpt lat="46.07336" lon="4.76476">
        <ele>171</ele>
        <time>2017-12-09T11:14:34Z</time>
      </trkpt>
      <trkpt lat="46.07332" lon="4.7648">
        <ele>170</ele>
        <time>2017-12-09T11:14:35Z</time>
      </trkpt>
      <trkpt lat="46.07328" lon="4.76485">
        <ele>170</ele>
        <time>2017-12-09T11:14:36Z</time>
      </trkpt>
      <trkpt lat="46.07324" lon="4.76489">
        <ele>170</ele>
        <time>2017-12-09T11:14:37Z</time>
      </trkpt>
      <trkpt lat="46.0732" lon="4.76493">
        <ele>170</ele>
        <time>2017-12-09T11:14:38Z</time>
      </trkpt>
      <trkpt lat="46.07316" lon="4.76498">
        <ele>170</ele>
        <time>2017-12-09T11:14:39Z</time>
      </trkpt>
      <trkpt lat="46.07309" lon="4.76506">
        <ele>170</ele>
        <time>2017-12-09T11:14:41Z</time>
      </trkpt>
      <trkpt lat="46.07305" lon="4.76511">
        <ele>170</ele>
        <time>2017-12-09T11:14:42Z</time>
      </trkpt>
      <trkpt lat="46.073" lon="4.76516">
        <ele>170</ele>
        <time>2017-12-09T11:14:43Z</time>
      </trkpt>
      <trkpt lat="46.07295" lon="4.76521">
        <ele>170</ele>
        <time>2017-12-09T11:14:44Z</time>
      </trkpt>
      <trkpt lat="46.0729" lon="4.76527">
        <ele>170</ele>
        <time>2017-12-09T11:14:45Z</time>
      </trkpt>
      <trkpt lat="46.07286" lon="4.76533">
        <ele>170</ele>
        <time>2017-12-09T11:14:46Z</time>
      </trkpt>
      <trkpt lat="46.07281" lon="4.76538">
        <ele>170</ele>
        <time>2017-12-09T11:14:47Z</time>
      </trkpt>
      <trkpt lat="46.07277" lon="4.76542">
        <ele>170</ele>
        <time>2017-12-09T11:14:48Z</time>
      </trkpt>
      <trkpt lat="46.07272" lon="4.76548">
        <ele>170</ele>
        <time>2017-12-09T11:14:49Z</time>
      </trkpt>
      <trkpt lat="46.07268" lon="4.76554">
        <ele>170</ele>
        <time>2017-12-09T11:14:50Z</time>
      </trkpt>
      <trkpt lat="46.07265" lon="4.76559">
        <ele>170</ele>
        <time>2017-12-09T11:14:51Z</time>
      </trkpt>
      <trkpt lat="46.07261" lon="4.76564">
        <ele>170</ele>
        <time>2017-12-09T11:14:52Z</time>
      </trkpt>
      <trkpt lat="46.07258" lon="4.76569">
        <ele>170</ele>
        <time>2017-12-09T11:14:53Z</time>
      </trkpt>
      <trkpt lat="46.07252" lon="4.76572">
        <ele>170</ele>
        <time>2017-12-09T11:14:54Z</time>
      </trkpt>
      <trkpt lat="46.07248" lon="4.76576">
        <ele>170</ele>
        <time>2017-12-09T11:14:55Z</time>
      </trkpt>
      <trkpt lat="46.07243" lon="4.76581">
        <ele>170</ele>
        <time>2017-12-09T11:14:56Z</time>
      </trkpt>
      <trkpt lat="46.07239" lon="4.76587">
        <ele>170</ele>
        <time>2017-12-09T11:14:57Z</time>
      </trkpt>
      <trkpt lat="46.07234" lon="4.76593">
        <ele>170</ele>
        <time>2017-12-09T11:14:58Z</time>
      </trkpt>
      <trkpt lat="46.0723" lon="4.76599">
        <ele>170</ele>
        <time>2017-12-09T11:14:59Z</time>
      </trkpt>
      <trkpt lat="46.07225" lon="4.76605">
        <ele>170</ele>
        <time>2017-12-09T11:15:00Z</time>
      </trkpt>
      <trkpt lat="46.0722" lon="4.7661">
        <ele>170</ele>
        <time>2017-12-09T11:15:01Z</time>
      </trkpt>
      <trkpt lat="46.07216" lon="4.76616">
        <ele>170</ele>
        <time>2017-12-09T11:15:02Z</time>
      </trkpt>
      <trkpt lat="46.07212" lon="4.76622">
        <ele>170</ele>
        <time>2017-12-09T11:15:03Z</time>
      </trkpt>
      <trkpt lat="46.07207" lon="4.76628">
        <ele>170</ele>
        <time>2017-12-09T11:15:04Z</time>
      </trkpt>
      <trkpt lat="46.07204" lon="4.76634">
        <ele>170</ele>
        <time>2017-12-09T11:15:05Z</time>
      </trkpt>
      <trkpt lat="46.072" lon="4.7664">
        <ele>170</ele>
        <time>2017-12-09T11:15:06Z</time>
      </trkpt>
      <trkpt lat="46.07195" lon="4.76646">
        <ele>170</ele>
        <time>2017-12-09T11:15:07Z</time>
      </trkpt>
      <trkpt lat="46.07191" lon="4.76652">
        <ele>170</ele>
        <time>2017-12-09T11:15:08Z</time>
      </trkpt>
      <trkpt lat="46.07188" lon="4.76658">
        <ele>170</ele>
        <time>2017-12-09T11:15:09Z</time>
      </trkpt>
      <trkpt lat="46.07184" lon="4.76665">
        <ele>170</ele>
        <time>2017-12-09T11:15:10Z</time>
      </trkpt>
      <trkpt lat="46.0718" lon="4.76669">
        <ele>170</ele>
        <time>2017-12-09T11:15:11Z</time>
      </trkpt>
      <trkpt lat="46.07175" lon="4.76675">
        <ele>170</ele>
        <time>2017-12-09T11:15:12Z</time>
      </trkpt>
      <trkpt lat="46.07171" lon="4.76682">
        <ele>170</ele>
        <time>2017-12-09T11:15:13Z</time>
      </trkpt>
      <trkpt lat="46.07168" lon="4.76691">
        <ele>170</ele>
        <time>2017-12-09T11:15:14Z</time>
      </trkpt>
      <trkpt lat="46.07163" lon="4.76698">
        <ele>170</ele>
        <time>2017-12-09T11:15:15Z</time>
      </trkpt>
      <trkpt lat="46.0716" lon="4.76706">
        <ele>170</ele>
        <time>2017-12-09T11:15:16Z</time>
      </trkpt>
      <trkpt lat="46.07156" lon="4.76712">
        <ele>170</ele>
        <time>2017-12-09T11:15:17Z</time>
      </trkpt>
      <trkpt lat="46.07152" lon="4.76718">
        <ele>170</ele>
        <time>2017-12-09T11:15:18Z</time>
      </trkpt>
      <trkpt lat="46.07149" lon="4.76724">
        <ele>170</ele>
        <time>2017-12-09T11:15:19Z</time>
      </trkpt>
      <trkpt lat="46.07146" lon="4.76731">
        <ele>171</ele>
        <time>2017-12-09T11:15:20Z</time>
      </trkpt>
      <trkpt lat="46.07143" lon="4.76737">
        <ele>171</ele>
        <time>2017-12-09T11:15:21Z</time>
      </trkpt>
      <trkpt lat="46.0714" lon="4.76744">
        <ele>171</ele>
        <time>2017-12-09T11:15:22Z</time>
      </trkpt>
      <trkpt lat="46.07137" lon="4.76751">
        <ele>171</ele>
        <time>2017-12-09T11:15:23Z</time>
      </trkpt>
      <trkpt lat="46.07134" lon="4.76757">
        <ele>171</ele>
        <time>2017-12-09T11:15:24Z</time>
      </trkpt>
      <trkpt lat="46.07131" lon="4.76763">
        <ele>171</ele>
        <time>2017-12-09T11:15:25Z</time>
      </trkpt>
      <trkpt lat="46.07127" lon="4.7677">
        <ele>171</ele>
        <time>2017-12-09T11:15:26Z</time>
      </trkpt>
      <trkpt lat="46.07124" lon="4.76777">
        <ele>171</ele>
        <time>2017-12-09T11:15:27Z</time>
      </trkpt>
      <trkpt lat="46.07121" lon="4.76784">
        <ele>171</ele>
        <time>2017-12-09T11:15:28Z</time>
      </trkpt>
      <trkpt lat="46.07116" lon="4.76792">
        <ele>172</ele>
        <time>2017-12-09T11:15:29Z</time>
      </trkpt>
      <trkpt lat="46.07111" lon="4.768">
        <ele>172</ele>
        <time>2017-12-09T11:15:30Z</time>
      </trkpt>
      <trkpt lat="46.07108" lon="4.76807">
        <ele>172</ele>
        <time>2017-12-09T11:15:31Z</time>
      </trkpt>
      <trkpt lat="46.07104" lon="4.76814">
        <ele>172</ele>
        <time>2017-12-09T11:15:32Z</time>
      </trkpt>
      <trkpt lat="46.07101" lon="4.76822">
        <ele>172</ele>
        <time>2017-12-09T11:15:33Z</time>
      </trkpt>
      <trkpt lat="46.07098" lon="4.76829">
        <ele>172</ele>
        <time>2017-12-09T11:15:34Z</time>
      </trkpt>
      <trkpt lat="46.07094" lon="4.76837">
        <ele>172</ele>
        <time>2017-12-09T11:15:35Z</time>
      </trkpt>
      <trkpt lat="46.07091" lon="4.76844">
        <ele>172</ele>
        <time>2017-12-09T11:15:36Z</time>
      </trkpt>
      <trkpt lat="46.07087" lon="4.76851">
        <ele>172</ele>
        <time>2017-12-09T11:15:37Z</time>
      </trkpt>
      <trkpt lat="46.07084" lon="4.76859">
        <ele>173</ele>
        <time>2017-12-09T11:15:38Z</time>
      </trkpt>
      <trkpt lat="46.0708" lon="4.76865">
        <ele>172</ele>
        <time>2017-12-09T11:15:39Z</time>
      </trkpt>
      <trkpt lat="46.07076" lon="4.76873">
        <ele>172</ele>
        <time>2017-12-09T11:15:40Z</time>
      </trkpt>
      <trkpt lat="46.07072" lon="4.7688">
        <ele>172</ele>
        <time>2017-12-09T11:15:41Z</time>
      </trkpt>
      <trkpt lat="46.07068" lon="4.76886">
        <ele>172</ele>
        <time>2017-12-09T11:15:42Z</time>
      </trkpt>
      <trkpt lat="46.07064" lon="4.76893">
        <ele>172</ele>
        <time>2017-12-09T11:15:43Z</time>
      </trkpt>
      <trkpt lat="46.07061" lon="4.76899">
        <ele>172</ele>
        <time>2017-12-09T11:15:44Z</time>
      </trkpt>
      <trkpt lat="46.07057" lon="4.76906">
        <ele>172</ele>
        <time>2017-12-09T11:15:45Z</time>
      </trkpt>
      <trkpt lat="46.07054" lon="4.76913">
        <ele>172</ele>
        <time>2017-12-09T11:15:46Z</time>
      </trkpt>
      <trkpt lat="46.07051" lon="4.76919">
        <ele>173</ele>
        <time>2017-12-09T11:15:47Z</time>
      </trkpt>
      <trkpt lat="46.07048" lon="4.76925">
        <ele>173</ele>
        <time>2017-12-09T11:15:48Z</time>
      </trkpt>
      <trkpt lat="46.07045" lon="4.7693">
        <ele>173</ele>
        <time>2017-12-09T11:15:49Z</time>
      </trkpt>
      <trkpt lat="46.07043" lon="4.76937">
        <ele>173</ele>
        <time>2017-12-09T11:15:50Z</time>
      </trkpt>
      <trkpt lat="46.07037" lon="4.76947">
        <ele>173</ele>
        <time>2017-12-09T11:15:52Z</time>
      </trkpt>
      <trkpt lat="46.07035" lon="4.76953">
        <ele>173</ele>
        <time>2017-12-09T11:15:53Z</time>
      </trkpt>
      <trkpt lat="46.07032" lon="4.76958">
        <ele>173</ele>
        <time>2017-12-09T11:15:54Z</time>
      </trkpt>
      <trkpt lat="46.07029" lon="4.76963">
        <ele>173</ele>
        <time>2017-12-09T11:15:55Z</time>
      </trkpt>
      <trkpt lat="46.07026" lon="4.76969">
        <ele>173</ele>
        <time>2017-12-09T11:15:56Z</time>
      </trkpt>
      <trkpt lat="46.07022" lon="4.76975">
        <ele>173</ele>
        <time>2017-12-09T11:15:57Z</time>
      </trkpt>
      <trkpt lat="46.07019" lon="4.76981">
        <ele>173</ele>
        <time>2017-12-09T11:15:58Z</time>
      </trkpt>
      <trkpt lat="46.07016" lon="4.76986">
        <ele>173</ele>
        <time>2017-12-09T11:15:59Z</time>
      </trkpt>
      <trkpt lat="46.07014" lon="4.76993">
        <ele>173</ele>
        <time>2017-12-09T11:16:00Z</time>
      </trkpt>
      <trkpt lat="46.07012" lon="4.76998">
        <ele>173</ele>
        <time>2017-12-09T11:16:01Z</time>
      </trkpt>
      <trkpt lat="46.07008" lon="4.77006">
        <ele>173</ele>
        <time>2017-12-09T11:16:03Z</time>
      </trkpt>
      <trkpt lat="46.07005" lon="4.77011">
        <ele>173</ele>
        <time>2017-12-09T11:16:04Z</time>
      </trkpt>
      <trkpt lat="46.07" lon="4.7702">
        <ele>173</ele>
        <time>2017-12-09T11:16:06Z</time>
      </trkpt>
      <trkpt lat="46.06997" lon="4.77024">
        <ele>173</ele>
        <time>2017-12-09T11:16:07Z</time>
      </trkpt>
      <trkpt lat="46.06992" lon="4.77032">
        <ele>173</ele>
        <time>2017-12-09T11:16:09Z</time>
      </trkpt>
      <trkpt lat="46.06991" lon="4.77035">
        <ele>173</ele>
        <time>2017-12-09T11:16:10Z</time>
      </trkpt>
      <trkpt lat="46.06987" lon="4.77043">
        <ele>173</ele>
        <time>2017-12-09T11:16:12Z</time>
      </trkpt>
      <trkpt lat="46.06985" lon="4.77046">
        <ele>173</ele>
        <time>2017-12-09T11:16:13Z</time>
      </trkpt>
      <trkpt lat="46.0698" lon="4.77055">
        <ele>173</ele>
        <time>2017-12-09T11:16:16Z</time>
      </trkpt>
      <trkpt lat="46.06978" lon="4.77058">
        <ele>173</ele>
        <time>2017-12-09T11:16:17Z</time>
      </trkpt>
      <trkpt lat="46.06973" lon="4.77066">
        <ele>173</ele>
        <time>2017-12-09T11:16:20Z</time>
      </trkpt>
      <trkpt lat="46.06969" lon="4.77069">
        <ele>173</ele>
        <time>2017-12-09T11:16:21Z</time>
      </trkpt>
      <trkpt lat="46.06965" lon="4.7707">
        <ele>173</ele>
        <time>2017-12-09T11:16:22Z</time>
      </trkpt>
      <trkpt lat="46.0696" lon="4.7707">
        <ele>173</ele>
        <time>2017-12-09T11:16:23Z</time>
      </trkpt>
      <trkpt lat="46.06955" lon="4.7707">
        <ele>173</ele>
        <time>2017-12-09T11:16:24Z</time>
      </trkpt>
      <trkpt lat="46.06949" lon="4.77071">
        <ele>173</ele>
        <time>2017-12-09T11:16:25Z</time>
      </trkpt>
      <trkpt lat="46.06944" lon="4.77071">
        <ele>173</ele>
        <time>2017-12-09T11:16:26Z</time>
      </trkpt>
      <trkpt lat="46.06937" lon="4.77071">
        <ele>173</ele>
        <time>2017-12-09T11:16:27Z</time>
      </trkpt>
      <trkpt lat="46.06931" lon="4.77071">
        <ele>173</ele>
        <time>2017-12-09T11:16:28Z</time>
      </trkpt>
      <trkpt lat="46.06925" lon="4.77072">
        <ele>173</ele>
        <time>2017-12-09T11:16:29Z</time>
      </trkpt>
      <trkpt lat="46.06919" lon="4.77072">
        <ele>173</ele>
        <time>2017-12-09T11:16:30Z</time>
      </trkpt>
      <trkpt lat="46.06914" lon="4.77073">
        <ele>173</ele>
        <time>2017-12-09T11:16:31Z</time>
      </trkpt>
      <trkpt lat="46.06908" lon="4.77074">
        <ele>173</ele>
        <time>2017-12-09T11:16:32Z</time>
      </trkpt>
      <trkpt lat="46.06902" lon="4.77073">
        <ele>173</ele>
        <time>2017-12-09T11:16:33Z</time>
      </trkpt>
      <trkpt lat="46.06897" lon="4.77073">
        <ele>173</ele>
        <time>2017-12-09T11:16:34Z</time>
      </trkpt>
      <trkpt lat="46.06891" lon="4.77074">
        <ele>173</ele>
        <time>2017-12-09T11:16:35Z</time>
      </trkpt>
      <trkpt lat="46.06886" lon="4.77076">
        <ele>173</ele>
        <time>2017-12-09T11:16:36Z</time>
      </trkpt>
      <trkpt lat="46.0688" lon="4.77076">
        <ele>173</ele>
        <time>2017-12-09T11:16:37Z</time>
      </trkpt>
      <trkpt lat="46.06875" lon="4.77077">
        <ele>173</ele>
        <time>2017-12-09T11:16:38Z</time>
      </trkpt>
      <trkpt lat="46.0687" lon="4.77078">
        <ele>173</ele>
        <time>2017-12-09T11:16:39Z</time>
      </trkpt>
      <trkpt lat="46.06864" lon="4.77079">
        <ele>173</ele>
        <time>2017-12-09T11:16:40Z</time>
      </trkpt>
      <trkpt lat="46.06858" lon="4.77081">
        <ele>173</ele>
        <time>2017-12-09T11:16:41Z</time>
      </trkpt>
      <trkpt lat="46.06852" lon="4.77082">
        <ele>173</ele>
        <time>2017-12-09T11:16:42Z</time>
      </trkpt>
      <trkpt lat="46.06846" lon="4.77085">
        <ele>173</ele>
        <time>2017-12-09T11:16:43Z</time>
      </trkpt>
      <trkpt lat="46.06841" lon="4.7709">
        <ele>173</ele>
        <time>2017-12-09T11:16:44Z</time>
      </trkpt>
      <trkpt lat="46.06835" lon="4.77093">
        <ele>173</ele>
        <time>2017-12-09T11:16:45Z</time>
      </trkpt>
      <trkpt lat="46.0683" lon="4.77095">
        <ele>173</ele>
        <time>2017-12-09T11:16:46Z</time>
      </trkpt>
      <trkpt lat="46.06825" lon="4.77098">
        <ele>173</ele>
        <time>2017-12-09T11:16:47Z</time>
      </trkpt>
      <trkpt lat="46.0682" lon="4.77102">
        <ele>173</ele>
        <time>2017-12-09T11:16:48Z</time>
      </trkpt>
      <trkpt lat="46.06815" lon="4.77106">
        <ele>172</ele>
        <time>2017-12-09T11:16:49Z</time>
      </trkpt>
      <trkpt lat="46.0681" lon="4.7711">
        <ele>172</ele>
        <time>2017-12-09T11:16:50Z</time>
      </trkpt>
      <trkpt lat="46.06806" lon="4.77113">
        <ele>172</ele>
        <time>2017-12-09T11:16:51Z</time>
      </trkpt>
      <trkpt lat="46.06801" lon="4.77118">
        <ele>172</ele>
        <time>2017-12-09T11:16:52Z</time>
      </trkpt>
      <trkpt lat="46.06797" lon="4.77122">
        <ele>172</ele>
        <time>2017-12-09T11:16:53Z</time>
      </trkpt>
      <trkpt lat="46.06792" lon="4.77127">
        <ele>172</ele>
        <time>2017-12-09T11:16:54Z</time>
      </trkpt>
      <trkpt lat="46.06788" lon="4.77131">
        <ele>172</ele>
        <time>2017-12-09T11:16:55Z</time>
      </trkpt>
      <trkpt lat="46.06784" lon="4.77135">
        <ele>172</ele>
        <time>2017-12-09T11:16:56Z</time>
      </trkpt>
      <trkpt lat="46.06779" lon="4.7714">
        <ele>172</ele>
        <time>2017-12-09T11:16:57Z</time>
      </trkpt>
      <trkpt lat="46.06775" lon="4.77145">
        <ele>172</ele>
        <time>2017-12-09T11:16:58Z</time>
      </trkpt>
      <trkpt lat="46.06771" lon="4.77149">
        <ele>172</ele>
        <time>2017-12-09T11:16:59Z</time>
      </trkpt>
      <trkpt lat="46.06765" lon="4.77153">
        <ele>172</ele>
        <time>2017-12-09T11:17:00Z</time>
      </trkpt>
      <trkpt lat="46.0676" lon="4.77159">
        <ele>172</ele>
        <time>2017-12-09T11:17:01Z</time>
      </trkpt>
      <trkpt lat="46.06755" lon="4.77164">
        <ele>172</ele>
        <time>2017-12-09T11:17:02Z</time>
      </trkpt>
      <trkpt lat="46.0675" lon="4.77169">
        <ele>172</ele>
        <time>2017-12-09T11:17:03Z</time>
      </trkpt>
      <trkpt lat="46.06745" lon="4.77174">
        <ele>172</ele>
        <time>2017-12-09T11:17:04Z</time>
      </trkpt>
      <trkpt lat="46.06739" lon="4.77178">
        <ele>172</ele>
        <time>2017-12-09T11:17:05Z</time>
      </trkpt>
      <trkpt lat="46.06732" lon="4.77182">
        <ele>172</ele>
        <time>2017-12-09T11:17:06Z</time>
      </trkpt>
      <trkpt lat="46.06726" lon="4.77186">
        <ele>172</ele>
        <time>2017-12-09T11:17:07Z</time>
      </trkpt>
      <trkpt lat="46.0672" lon="4.77189">
        <ele>172</ele>
        <time>2017-12-09T11:17:08Z</time>
      </trkpt>
      <trkpt lat="46.06713" lon="4.77192">
        <ele>172</ele>
        <time>2017-12-09T11:17:09Z</time>
      </trkpt>
      <trkpt lat="46.06708" lon="4.77193">
        <ele>172</ele>
        <time>2017-12-09T11:17:10Z</time>
      </trkpt>
      <trkpt lat="46.06702" lon="4.77194">
        <ele>172</ele>
        <time>2017-12-09T11:17:11Z</time>
      </trkpt>
      <trkpt lat="46.06696" lon="4.77196">
        <ele>172</ele>
        <time>2017-12-09T11:17:12Z</time>
      </trkpt>
      <trkpt lat="46.0669" lon="4.77199">
        <ele>172</ele>
        <time>2017-12-09T11:17:13Z</time>
      </trkpt>
      <trkpt lat="46.06686" lon="4.77204">
        <ele>172</ele>
        <time>2017-12-09T11:17:14Z</time>
      </trkpt>
      <trkpt lat="46.06682" lon="4.77209">
        <ele>172</ele>
        <time>2017-12-09T11:17:15Z</time>
      </trkpt>
      <trkpt lat="46.06678" lon="4.77215">
        <ele>172</ele>
        <time>2017-12-09T11:17:16Z</time>
      </trkpt>
      <trkpt lat="46.06678" lon="4.77223">
        <ele>172</ele>
        <time>2017-12-09T11:17:17Z</time>
      </trkpt>
      <trkpt lat="46.06678" lon="4.77235">
        <ele>172</ele>
        <time>2017-12-09T11:17:19Z</time>
      </trkpt>
      <trkpt lat="46.06678" lon="4.77242">
        <ele>173</ele>
        <time>2017-12-09T11:17:20Z</time>
      </trkpt>
      <trkpt lat="46.06676" lon="4.77249">
        <ele>173</ele>
        <time>2017-12-09T11:17:21Z</time>
      </trkpt>
      <trkpt lat="46.06673" lon="4.77256">
        <ele>173</ele>
        <time>2017-12-09T11:17:22Z</time>
      </trkpt>
      <trkpt lat="46.0667" lon="4.77262">
        <ele>173</ele>
        <time>2017-12-09T11:17:23Z</time>
      </trkpt>
      <trkpt lat="46.06667" lon="4.77269">
        <ele>173</ele>
        <time>2017-12-09T11:17:24Z</time>
      </trkpt>
      <trkpt lat="46.06665" lon="4.77274">
        <ele>174</ele>
        <time>2017-12-09T11:17:25Z</time>
      </trkpt>
      <trkpt lat="46.06662" lon="4.77281">
        <ele>174</ele>
        <time>2017-12-09T11:17:26Z</time>
      </trkpt>
      <trkpt lat="46.06659" lon="4.77288">
        <ele>174</ele>
        <time>2017-12-09T11:17:27Z</time>
      </trkpt>
      <trkpt lat="46.06657" lon="4.77294">
        <ele>174</ele>
        <time>2017-12-09T11:17:28Z</time>
      </trkpt>
      <trkpt lat="46.06655" lon="4.77301">
        <ele>174</ele>
        <time>2017-12-09T11:17:29Z</time>
      </trkpt>
      <trkpt lat="46.06652" lon="4.77308">
        <ele>174</ele>
        <time>2017-12-09T11:17:30Z</time>
      </trkpt>
      <trkpt lat="46.06648" lon="4.77314">
        <ele>174</ele>
        <time>2017-12-09T11:17:31Z</time>
      </trkpt>
      <trkpt lat="46.06645" lon="4.7732">
        <ele>174</ele>
        <time>2017-12-09T11:17:32Z</time>
      </trkpt>
      <trkpt lat="46.06642" lon="4.77327">
        <ele>174</ele>
        <time>2017-12-09T11:17:33Z</time>
      </trkpt>
      <trkpt lat="46.0664" lon="4.77333">
        <ele>174</ele>
        <time>2017-12-09T11:17:34Z</time>
      </trkpt>
      <trkpt lat="46.06636" lon="4.77343">
        <ele>176</ele>
        <time>2017-12-09T11:17:36Z</time>
      </trkpt>
      <trkpt lat="46.06635" lon="4.77351">
        <ele>176</ele>
        <time>2017-12-09T11:17:37Z</time>
      </trkpt>
      <trkpt lat="46.0663" lon="4.77361">
        <ele>176</ele>
        <time>2017-12-09T11:17:39Z</time>
      </trkpt>
      <trkpt lat="46.06627" lon="4.77366">
        <ele>176</ele>
        <time>2017-12-09T11:17:40Z</time>
      </trkpt>
      <trkpt lat="46.06625" lon="4.77373">
        <ele>176</ele>
        <time>2017-12-09T11:17:41Z</time>
      </trkpt>
      <trkpt lat="46.06623" lon="4.77379">
        <ele>176</ele>
        <time>2017-12-09T11:17:42Z</time>
      </trkpt>
      <trkpt lat="46.06619" lon="4.77387">
        <ele>177</ele>
        <time>2017-12-09T11:17:44Z</time>
      </trkpt>
      <trkpt lat="46.06618" lon="4.77391">
        <ele>177</ele>
        <time>2017-12-09T11:17:45Z</time>
      </trkpt>
      <trkpt lat="46.06617" lon="4.77396">
        <ele>177</ele>
        <time>2017-12-09T11:17:46Z</time>
      </trkpt>
      <trkpt lat="46.06613" lon="4.77406">
        <ele>177</ele>
        <time>2017-12-09T11:17:47Z</time>
      </trkpt>
      <trkpt lat="46.06609" lon="4.77417">
        <ele>179</ele>
        <time>2017-12-09T11:17:49Z</time>
      </trkpt>
      <trkpt lat="46.06606" lon="4.77422">
        <ele>179</ele>
        <time>2017-12-09T11:17:50Z</time>
      </trkpt>
      <trkpt lat="46.06604" lon="4.77432">
        <ele>179</ele>
        <time>2017-12-09T11:17:52Z</time>
      </trkpt>
      <trkpt lat="46.06602" lon="4.77436">
        <ele>179</ele>
        <time>2017-12-09T11:17:53Z</time>
      </trkpt>
      <trkpt lat="46.066" lon="4.77447">
        <ele>180</ele>
        <time>2017-12-09T11:17:55Z</time>
      </trkpt>
      <trkpt lat="46.06599" lon="4.77452">
        <ele>180</ele>
        <time>2017-12-09T11:17:56Z</time>
      </trkpt>
      <trkpt lat="46.06599" lon="4.77464">
        <ele>180</ele>
        <time>2017-12-09T11:17:58Z</time>
      </trkpt>
      <trkpt lat="46.066" lon="4.77471">
        <ele>181</ele>
        <time>2017-12-09T11:17:59Z</time>
      </trkpt>
      <trkpt lat="46.06605" lon="4.77481">
        <ele>181</ele>
        <time>2017-12-09T11:18:01Z</time>
      </trkpt>
      <trkpt lat="46.06608" lon="4.77485">
        <ele>181</ele>
        <time>2017-12-09T11:18:02Z</time>
      </trkpt>
      <trkpt lat="46.06615" lon="4.77493">
        <ele>181</ele>
        <time>2017-12-09T11:18:04Z</time>
      </trkpt>
      <trkpt lat="46.06617" lon="4.77499">
        <ele>181</ele>
        <time>2017-12-09T11:18:05Z</time>
      </trkpt>
      <trkpt lat="46.06619" lon="4.77506">
        <ele>183</ele>
        <time>2017-12-09T11:18:06Z</time>
      </trkpt>
      <trkpt lat="46.06621" lon="4.77511">
        <ele>183</ele>
        <time>2017-12-09T11:18:07Z</time>
      </trkpt>
      <trkpt lat="46.06624" lon="4.77521">
        <ele>182</ele>
        <time>2017-12-09T11:18:09Z</time>
      </trkpt>
      <trkpt lat="46.06626" lon="4.77526">
        <ele>183</ele>
        <time>2017-12-09T11:18:10Z</time>
      </trkpt>
      <trkpt lat="46.06629" lon="4.77538">
        <ele>183</ele>
        <time>2017-12-09T11:18:12Z</time>
      </trkpt>
      <trkpt lat="46.0663" lon="4.77543">
        <ele>183</ele>
        <time>2017-12-09T11:18:13Z</time>
      </trkpt>
      <trkpt lat="46.06632" lon="4.77554">
        <ele>183</ele>
        <time>2017-12-09T11:18:15Z</time>
      </trkpt>
      <trkpt lat="46.06633" lon="4.77559">
        <ele>183</ele>
        <time>2017-12-09T11:18:16Z</time>
      </trkpt>
      <trkpt lat="46.06634" lon="4.7757">
        <ele>183</ele>
        <time>2017-12-09T11:18:18Z</time>
      </trkpt>
      <trkpt lat="46.06634" lon="4.77575">
        <ele>183</ele>
        <time>2017-12-09T11:18:19Z</time>
      </trkpt>
      <trkpt lat="46.06634" lon="4.77586">
        <ele>184</ele>
        <time>2017-12-09T11:18:21Z</time>
      </trkpt>
      <trkpt lat="46.06633" lon="4.77592">
        <ele>185</ele>
        <time>2017-12-09T11:18:22Z</time>
      </trkpt>
      <trkpt lat="46.06632" lon="4.77603">
        <ele>185</ele>
        <time>2017-12-09T11:18:24Z</time>
      </trkpt>
      <trkpt lat="46.06631" lon="4.77609">
        <ele>185</ele>
        <time>2017-12-09T11:18:25Z</time>
      </trkpt>
      <trkpt lat="46.06629" lon="4.77619">
        <ele>185</ele>
        <time>2017-12-09T11:18:27Z</time>
      </trkpt>
      <trkpt lat="46.06629" lon="4.77625">
        <ele>185</ele>
        <time>2017-12-09T11:18:28Z</time>
      </trkpt>
      <trkpt lat="46.06626" lon="4.77636">
        <ele>185</ele>
        <time>2017-12-09T11:18:30Z</time>
      </trkpt>
      <trkpt lat="46.06625" lon="4.77641">
        <ele>185</ele>
        <time>2017-12-09T11:18:31Z</time>
      </trkpt>
      <trkpt lat="46.06622" lon="4.77653">
        <ele>185</ele>
        <time>2017-12-09T11:18:33Z</time>
      </trkpt>
      <trkpt lat="46.0662" lon="4.77658">
        <ele>185</ele>
        <time>2017-12-09T11:18:34Z</time>
      </trkpt>
      <trkpt lat="46.06615" lon="4.77667">
        <ele>187</ele>
        <time>2017-12-09T11:18:36Z</time>
      </trkpt>
      <trkpt lat="46.06611" lon="4.77672">
        <ele>187</ele>
        <time>2017-12-09T11:18:37Z</time>
      </trkpt>
      <trkpt lat="46.06606" lon="4.77677">
        <ele>187</ele>
        <time>2017-12-09T11:18:39Z</time>
      </trkpt>
      <trkpt lat="46.06603" lon="4.7768">
        <ele>187</ele>
        <time>2017-12-09T11:18:40Z</time>
      </trkpt>
      <trkpt lat="46.06597" lon="4.77685">
        <ele>187</ele>
        <time>2017-12-09T11:18:42Z</time>
      </trkpt>
      <trkpt lat="46.06593" lon="4.77687">
        <ele>187</ele>
        <time>2017-12-09T11:18:43Z</time>
      </trkpt>
      <trkpt lat="46.06587" lon="4.77691">
        <ele>187</ele>
        <time>2017-12-09T11:18:45Z</time>
      </trkpt>
      <trkpt lat="46.06584" lon="4.77694">
        <ele>187</ele>
        <time>2017-12-09T11:18:46Z</time>
      </trkpt>
      <trkpt lat="46.06577" lon="4.777">
        <ele>188</ele>
        <time>2017-12-09T11:18:48Z</time>
      </trkpt>
      <trkpt lat="46.06574" lon="4.77703">
        <ele>189</ele>
        <time>2017-12-09T11:18:49Z</time>
      </trkpt>
      <trkpt lat="46.06566" lon="4.7771">
        <ele>189</ele>
        <time>2017-12-09T11:18:51Z</time>
      </trkpt>
      <trkpt lat="46.06563" lon="4.77713">
        <ele>189</ele>
        <time>2017-12-09T11:18:52Z</time>
      </trkpt>
      <trkpt lat="46.0656" lon="4.77717">
        <ele>189</ele>
        <time>2017-12-09T11:18:53Z</time>
      </trkpt>
      <trkpt lat="46.06556" lon="4.77723">
        <ele>189</ele>
        <time>2017-12-09T11:18:54Z</time>
      </trkpt>
      <trkpt lat="46.06554" lon="4.77731">
        <ele>189</ele>
        <time>2017-12-09T11:18:56Z</time>
      </trkpt>
      <trkpt lat="46.0655" lon="4.77735">
        <ele>189</ele>
        <time>2017-12-09T11:18:57Z</time>
      </trkpt>
      <trkpt lat="46.06546" lon="4.77745">
        <ele>190</ele>
        <time>2017-12-09T11:18:59Z</time>
      </trkpt>
      <trkpt lat="46.06544" lon="4.7775">
        <ele>190</ele>
        <time>2017-12-09T11:19:00Z</time>
      </trkpt>
      <trkpt lat="46.06542" lon="4.77755">
        <ele>191</ele>
        <time>2017-12-09T11:19:01Z</time>
      </trkpt>
      <trkpt lat="46.06537" lon="4.77759">
        <ele>191</ele>
        <time>2017-12-09T11:19:02Z</time>
      </trkpt>
      <trkpt lat="46.06534" lon="4.77765">
        <ele>192</ele>
        <time>2017-12-09T11:19:03Z</time>
      </trkpt>
      <trkpt lat="46.06532" lon="4.7777">
        <ele>192</ele>
        <time>2017-12-09T11:19:04Z</time>
      </trkpt>
      <trkpt lat="46.06527" lon="4.7778">
        <ele>192</ele>
        <time>2017-12-09T11:19:06Z</time>
      </trkpt>
      <trkpt lat="46.06525" lon="4.77786">
        <ele>192</ele>
        <time>2017-12-09T11:19:07Z</time>
      </trkpt>
      <trkpt lat="46.0652" lon="4.77797">
        <ele>192</ele>
        <time>2017-12-09T11:19:09Z</time>
      </trkpt>
      <trkpt lat="46.06517" lon="4.77802">
        <ele>192</ele>
        <time>2017-12-09T11:19:10Z</time>
      </trkpt>
      <trkpt lat="46.06513" lon="4.7781">
        <ele>192</ele>
        <time>2017-12-09T11:19:12Z</time>
      </trkpt>
      <trkpt lat="46.0651" lon="4.77815">
        <ele>192</ele>
        <time>2017-12-09T11:19:13Z</time>
      </trkpt>
      <trkpt lat="46.06507" lon="4.7782">
        <ele>192</ele>
        <time>2017-12-09T11:19:14Z</time>
      </trkpt>
      <trkpt lat="46.06504" lon="4.77825">
        <ele>192</ele>
        <time>2017-12-09T11:19:15Z</time>
      </trkpt>
      <trkpt lat="46.06499" lon="4.77836">
        <ele>192</ele>
        <time>2017-12-09T11:19:17Z</time>
      </trkpt>
      <trkpt lat="46.06496" lon="4.77841">
        <ele>192</ele>
        <time>2017-12-09T11:19:18Z</time>
      </trkpt>
      <trkpt lat="46.06492" lon="4.7785">
        <ele>192</ele>
        <time>2017-12-09T11:19:20Z</time>
      </trkpt>
      <trkpt lat="46.0649" lon="4.77855">
        <ele>192</ele>
        <time>2017-12-09T11:19:21Z</time>
      </trkpt>
      <trkpt lat="46.06487" lon="4.77864">
        <ele>192</ele>
        <time>2017-12-09T11:19:23Z</time>
      </trkpt>
      <trkpt lat="46.06485" lon="4.77869">
        <ele>193</ele>
        <time>2017-12-09T11:19:24Z</time>
      </trkpt>
      <trkpt lat="46.06482" lon="4.77878">
        <ele>193</ele>
        <time>2017-12-09T11:19:26Z</time>
      </trkpt>
      <trkpt lat="46.06481" lon="4.77883">
        <ele>193</ele>
        <time>2017-12-09T11:19:27Z</time>
      </trkpt>
      <trkpt lat="46.06478" lon="4.77892">
        <ele>193</ele>
        <time>2017-12-09T11:19:29Z</time>
      </trkpt>
      <trkpt lat="46.06476" lon="4.77897">
        <ele>193</ele>
        <time>2017-12-09T11:19:30Z</time>
      </trkpt>
      <trkpt lat="46.06473" lon="4.77907">
        <ele>193</ele>
        <time>2017-12-09T11:19:32Z</time>
      </trkpt>
      <trkpt lat="46.06472" lon="4.77912">
        <ele>193</ele>
        <time>2017-12-09T11:19:33Z</time>
      </trkpt>
      <trkpt lat="46.06468" lon="4.77922">
        <ele>195</ele>
        <time>2017-12-09T11:19:35Z</time>
      </trkpt>
      <trkpt lat="46.06466" lon="4.77927">
        <ele>195</ele>
        <time>2017-12-09T11:19:36Z</time>
      </trkpt>
      <trkpt lat="46.06463" lon="4.77936">
        <ele>195</ele>
        <time>2017-12-09T11:19:38Z</time>
      </trkpt>
      <trkpt lat="46.06461" lon="4.77941">
        <ele>195</ele>
        <time>2017-12-09T11:19:39Z</time>
      </trkpt>
      <trkpt lat="46.06458" lon="4.77951">
        <ele>195</ele>
        <time>2017-12-09T11:19:41Z</time>
      </trkpt>
      <trkpt lat="46.06457" lon="4.77956">
        <ele>195</ele>
        <time>2017-12-09T11:19:42Z</time>
      </trkpt>
      <trkpt lat="46.06454" lon="4.77966">
        <ele>195</ele>
        <time>2017-12-09T11:19:44Z</time>
      </trkpt>
      <trkpt lat="46.06452" lon="4.77971">
        <ele>195</ele>
        <time>2017-12-09T11:19:45Z</time>
      </trkpt>
      <trkpt lat="46.0645" lon="4.7798">
        <ele>195</ele>
        <time>2017-12-09T11:19:47Z</time>
      </trkpt>
      <trkpt lat="46.06449" lon="4.77985">
        <ele>195</ele>
        <time>2017-12-09T11:19:48Z</time>
      </trkpt>
      <trkpt lat="46.06446" lon="4.77994">
        <ele>195</ele>
        <time>2017-12-09T11:19:50Z</time>
      </trkpt>
      <trkpt lat="46.06445" lon="4.77999">
        <ele>195</ele>
        <time>2017-12-09T11:19:51Z</time>
      </trkpt>
      <trkpt lat="46.06442" lon="4.78008">
        <ele>197</ele>
        <time>2017-12-09T11:19:53Z</time>
      </trkpt>
      <trkpt lat="46.0644" lon="4.78013">
        <ele>197</ele>
        <time>2017-12-09T11:19:54Z</time>
      </trkpt>
      <trkpt lat="46.06436" lon="4.78021">
        <ele>198</ele>
        <time>2017-12-09T11:19:56Z</time>
      </trkpt>
      <trkpt lat="46.06433" lon="4.78026">
        <ele>198</ele>
        <time>2017-12-09T11:19:57Z</time>
      </trkpt>
      <trkpt lat="46.06427" lon="4.78033">
        <ele>198</ele>
        <time>2017-12-09T11:19:59Z</time>
      </trkpt>
      <trkpt lat="46.06424" lon="4.78036">
        <ele>198</ele>
        <time>2017-12-09T11:20:00Z</time>
      </trkpt>
      <trkpt lat="46.06418" lon="4.78043">
        <ele>198</ele>
        <time>2017-12-09T11:20:02Z</time>
      </trkpt>
      <trkpt lat="46.06415" lon="4.78046">
        <ele>197</ele>
        <time>2017-12-09T11:20:03Z</time>
      </trkpt>
      <trkpt lat="46.06409" lon="4.78053">
        <ele>198</ele>
        <time>2017-12-09T11:20:05Z</time>
      </trkpt>
      <trkpt lat="46.06407" lon="4.78058">
        <ele>198</ele>
        <time>2017-12-09T11:20:06Z</time>
      </trkpt>
      <trkpt lat="46.06402" lon="4.78067">
        <ele>198</ele>
        <time>2017-12-09T11:20:08Z</time>
      </trkpt>
      <trkpt lat="46.06399" lon="4.78072">
        <ele>198</ele>
        <time>2017-12-09T11:20:09Z</time>
      </trkpt>
      <trkpt lat="46.06395" lon="4.78083">
        <ele>198</ele>
        <time>2017-12-09T11:20:11Z</time>
      </trkpt>
      <trkpt lat="46.06394" lon="4.78089">
        <ele>200</ele>
        <time>2017-12-09T11:20:12Z</time>
      </trkpt>
      <trkpt lat="46.06392" lon="4.78095">
        <ele>200</ele>
        <time>2017-12-09T11:20:13Z</time>
      </trkpt>
      <trkpt lat="46.06391" lon="4.78101">
        <ele>200</ele>
        <time>2017-12-09T11:20:14Z</time>
      </trkpt>
      <trkpt lat="46.0639" lon="4.78107">
        <ele>200</ele>
        <time>2017-12-09T11:20:15Z</time>
      </trkpt>
      <trkpt lat="46.06389" lon="4.78114">
        <ele>200</ele>
        <time>2017-12-09T11:20:16Z</time>
      </trkpt>
      <trkpt lat="46.06388" lon="4.7812">
        <ele>200</ele>
        <time>2017-12-09T11:20:17Z</time>
      </trkpt>
      <trkpt lat="46.06388" lon="4.78127">
        <ele>201</ele>
        <time>2017-12-09T11:20:18Z</time>
      </trkpt>
      <trkpt lat="46.06387" lon="4.78134">
        <ele>201</ele>
        <time>2017-12-09T11:20:19Z</time>
      </trkpt>
      <trkpt lat="46.06388" lon="4.7814">
        <ele>201</ele>
        <time>2017-12-09T11:20:20Z</time>
      </trkpt>
      <trkpt lat="46.06388" lon="4.78147">
        <ele>201</ele>
        <time>2017-12-09T11:20:21Z</time>
      </trkpt>
      <trkpt lat="46.06389" lon="4.78155">
        <ele>201</ele>
        <time>2017-12-09T11:20:22Z</time>
      </trkpt>
      <trkpt lat="46.06389" lon="4.78162">
        <ele>201</ele>
        <time>2017-12-09T11:20:23Z</time>
      </trkpt>
      <trkpt lat="46.06388" lon="4.78169">
        <ele>204</ele>
        <time>2017-12-09T11:20:24Z</time>
      </trkpt>
      <trkpt lat="46.06387" lon="4.78181">
        <ele>204</ele>
        <time>2017-12-09T11:20:26Z</time>
      </trkpt>
      <trkpt lat="46.06386" lon="4.78186">
        <ele>204</ele>
        <time>2017-12-09T11:20:27Z</time>
      </trkpt>
      <trkpt lat="46.06384" lon="4.78197">
        <ele>204</ele>
        <time>2017-12-09T11:20:29Z</time>
      </trkpt>
      <trkpt lat="46.06382" lon="4.78202">
        <ele>204</ele>
        <time>2017-12-09T11:20:30Z</time>
      </trkpt>
      <trkpt lat="46.06378" lon="4.78211">
        <ele>204</ele>
        <time>2017-12-09T11:20:32Z</time>
      </trkpt>
      <trkpt lat="46.06375" lon="4.78215">
        <ele>204</ele>
        <time>2017-12-09T11:20:33Z</time>
      </trkpt>
      <trkpt lat="46.0637" lon="4.78225">
        <ele>205</ele>
        <time>2017-12-09T11:20:36Z</time>
      </trkpt>
      <trkpt lat="46.0637" lon="4.78229">
        <ele>205</ele>
        <time>2017-12-09T11:20:37Z</time>
      </trkpt>
      <trkpt lat="46.06365" lon="4.78237">
        <ele>205</ele>
        <time>2017-12-09T11:20:40Z</time>
      </trkpt>
      <trkpt lat="46.06362" lon="4.78239">
        <ele>205</ele>
        <time>2017-12-09T11:20:41Z</time>
      </trkpt>
      <trkpt lat="46.06356" lon="4.78242">
        <ele>205</ele>
        <time>2017-12-09T11:20:43Z</time>
      </trkpt>
      <trkpt lat="46.06352" lon="4.78243">
        <ele>205</ele>
        <time>2017-12-09T11:20:44Z</time>
      </trkpt>
      <trkpt lat="46.06343" lon="4.78243">
        <ele>205</ele>
        <time>2017-12-09T11:20:46Z</time>
      </trkpt>
      <trkpt lat="46.06336" lon="4.78236">
        <ele>205</ele>
        <time>2017-12-09T11:20:47Z</time>
      </trkpt>
      <trkpt lat="46.06327" lon="4.78233">
        <ele>206</ele>
        <time>2017-12-09T11:20:49Z</time>
      </trkpt>
      <trkpt lat="46.06323" lon="4.78231">
        <ele>205</ele>
        <time>2017-12-09T11:20:50Z</time>
      </trkpt>
      <trkpt lat="46.06315" lon="4.78228">
        <ele>205</ele>
        <time>2017-12-09T11:20:52Z</time>
      </trkpt>
      <trkpt lat="46.0631" lon="4.78227">
        <ele>205</ele>
        <time>2017-12-09T11:20:53Z</time>
      </trkpt>
      <trkpt lat="46.06304" lon="4.78224">
        <ele>205</ele>
        <time>2017-12-09T11:20:54Z</time>
      </trkpt>
      <trkpt lat="46.06301" lon="4.78222">
        <ele>205</ele>
        <time>2017-12-09T11:20:55Z</time>
      </trkpt>
      <trkpt lat="46.06294" lon="4.78217">
        <ele>205</ele>
        <time>2017-12-09T11:20:57Z</time>
      </trkpt>
      <trkpt lat="46.0629" lon="4.78214">
        <ele>205</ele>
        <time>2017-12-09T11:20:58Z</time>
      </trkpt>
      <trkpt lat="46.06283" lon="4.78209">
        <ele>205</ele>
        <time>2017-12-09T11:21:00Z</time>
      </trkpt>
      <trkpt lat="46.0628" lon="4.78207">
        <ele>205</ele>
        <time>2017-12-09T11:21:01Z</time>
      </trkpt>
      <trkpt lat="46.06273" lon="4.78202">
        <ele>205</ele>
        <time>2017-12-09T11:21:03Z</time>
      </trkpt>
      <trkpt lat="46.06269" lon="4.78199">
        <ele>205</ele>
        <time>2017-12-09T11:21:04Z</time>
      </trkpt>
      <trkpt lat="46.06265" lon="4.78197">
        <ele>205</ele>
        <time>2017-12-09T11:21:05Z</time>
      </trkpt>
      <trkpt lat="46.0626" lon="4.78193">
        <ele>205</ele>
        <time>2017-12-09T11:21:06Z</time>
      </trkpt>
      <trkpt lat="46.06253" lon="4.78189">
        <ele>205</ele>
        <time>2017-12-09T11:21:08Z</time>
      </trkpt>
      <trkpt lat="46.0625" lon="4.78187">
        <ele>206</ele>
        <time>2017-12-09T11:21:09Z</time>
      </trkpt>
      <trkpt lat="46.06246" lon="4.78182">
        <ele>206</ele>
        <time>2017-12-09T11:21:10Z</time>
      </trkpt>
      <trkpt lat="46.06242" lon="4.78178">
        <ele>206</ele>
        <time>2017-12-09T11:21:11Z</time>
      </trkpt>
      <trkpt lat="46.06234" lon="4.78172">
        <ele>206</ele>
        <time>2017-12-09T11:21:13Z</time>
      </trkpt>
      <trkpt lat="46.06229" lon="4.7817">
        <ele>206</ele>
        <time>2017-12-09T11:21:14Z</time>
      </trkpt>
      <trkpt lat="46.06225" lon="4.78167">
        <ele>206</ele>
        <time>2017-12-09T11:21:15Z</time>
      </trkpt>
      <trkpt lat="46.06221" lon="4.78165">
        <ele>205</ele>
        <time>2017-12-09T11:21:16Z</time>
      </trkpt>
      <trkpt lat="46.06215" lon="4.78162">
        <ele>205</ele>
        <time>2017-12-09T11:21:17Z</time>
      </trkpt>
      <trkpt lat="46.06211" lon="4.7816">
        <ele>205</ele>
        <time>2017-12-09T11:21:18Z</time>
      </trkpt>
      <trkpt lat="46.06207" lon="4.78157">
        <ele>205</ele>
        <time>2017-12-09T11:21:19Z</time>
      </trkpt>
      <trkpt lat="46.06202" lon="4.78154">
        <ele>205</ele>
        <time>2017-12-09T11:21:20Z</time>
      </trkpt>
      <trkpt lat="46.06198" lon="4.78151">
        <ele>205</ele>
        <time>2017-12-09T11:21:21Z</time>
      </trkpt>
      <trkpt lat="46.06193" lon="4.7815">
        <ele>206</ele>
        <time>2017-12-09T11:21:22Z</time>
      </trkpt>
      <trkpt lat="46.06187" lon="4.78146">
        <ele>206</ele>
        <time>2017-12-09T11:21:23Z</time>
      </trkpt>
      <trkpt lat="46.06183" lon="4.78145">
        <ele>206</ele>
        <time>2017-12-09T11:21:24Z</time>
      </trkpt>
      <trkpt lat="46.06178" lon="4.78141">
        <ele>206</ele>
        <time>2017-12-09T11:21:25Z</time>
      </trkpt>
      <trkpt lat="46.06175" lon="4.78138">
        <ele>206</ele>
        <time>2017-12-09T11:21:26Z</time>
      </trkpt>
      <trkpt lat="46.06172" lon="4.78135">
        <ele>206</ele>
        <time>2017-12-09T11:21:27Z</time>
      </trkpt>
      <trkpt lat="46.06167" lon="4.78132">
        <ele>206</ele>
        <time>2017-12-09T11:21:28Z</time>
      </trkpt>
      <trkpt lat="46.06161" lon="4.78129">
        <ele>208</ele>
        <time>2017-12-09T11:21:30Z</time>
      </trkpt>
      <trkpt lat="46.06156" lon="4.78127">
        <ele>208</ele>
        <time>2017-12-09T11:21:31Z</time>
      </trkpt>
      <trkpt lat="46.06149" lon="4.78121">
        <ele>208</ele>
        <time>2017-12-09T11:21:33Z</time>
      </trkpt>
      <trkpt lat="46.06145" lon="4.78118">
        <ele>208</ele>
        <time>2017-12-09T11:21:34Z</time>
      </trkpt>
      <trkpt lat="46.06137" lon="4.78111">
        <ele>208</ele>
        <time>2017-12-09T11:21:36Z</time>
      </trkpt>
      <trkpt lat="46.06134" lon="4.78107">
        <ele>209</ele>
        <time>2017-12-09T11:21:37Z</time>
      </trkpt>
      <trkpt lat="46.06128" lon="4.78099">
        <ele>209</ele>
        <time>2017-12-09T11:21:39Z</time>
      </trkpt>
      <trkpt lat="46.06125" lon="4.78095">
        <ele>209</ele>
        <time>2017-12-09T11:21:40Z</time>
      </trkpt>
      <trkpt lat="46.06119" lon="4.78088">
        <ele>209</ele>
        <time>2017-12-09T11:21:42Z</time>
      </trkpt>
      <trkpt lat="46.06116" lon="4.78084">
        <ele>209</ele>
        <time>2017-12-09T11:21:43Z</time>
      </trkpt>
      <trkpt lat="46.0611" lon="4.78077">
        <ele>210</ele>
        <time>2017-12-09T11:21:45Z</time>
      </trkpt>
      <trkpt lat="46.06106" lon="4.78072">
        <ele>210</ele>
        <time>2017-12-09T11:21:46Z</time>
      </trkpt>
      <trkpt lat="46.06103" lon="4.78067">
        <ele>210</ele>
        <time>2017-12-09T11:21:47Z</time>
      </trkpt>
      <trkpt lat="46.06099" lon="4.78062">
        <ele>210</ele>
        <time>2017-12-09T11:21:48Z</time>
      </trkpt>
      <trkpt lat="46.06094" lon="4.78058">
        <ele>210</ele>
        <time>2017-12-09T11:21:49Z</time>
      </trkpt>
      <trkpt lat="46.0609" lon="4.78055">
        <ele>210</ele>
        <time>2017-12-09T11:21:50Z</time>
      </trkpt>
      <trkpt lat="46.06086" lon="4.78051">
        <ele>210</ele>
        <time>2017-12-09T11:21:51Z</time>
      </trkpt>
      <trkpt lat="46.0608" lon="4.78049">
        <ele>211</ele>
        <time>2017-12-09T11:21:52Z</time>
      </trkpt>
      <trkpt lat="46.06076" lon="4.78046">
        <ele>211</ele>
        <time>2017-12-09T11:21:53Z</time>
      </trkpt>
      <trkpt lat="46.0607" lon="4.78043">
        <ele>211</ele>
        <time>2017-12-09T11:21:54Z</time>
      </trkpt>
      <trkpt lat="46.06066" lon="4.78041">
        <ele>211</ele>
        <time>2017-12-09T11:21:55Z</time>
      </trkpt>
      <trkpt lat="46.06062" lon="4.78034">
        <ele>211</ele>
        <time>2017-12-09T11:21:56Z</time>
      </trkpt>
      <trkpt lat="46.06059" lon="4.7803">
        <ele>211</ele>
        <time>2017-12-09T11:21:57Z</time>
      </trkpt>
      <trkpt lat="46.06055" lon="4.78026">
        <ele>211</ele>
        <time>2017-12-09T11:21:58Z</time>
      </trkpt>
      <trkpt lat="46.06049" lon="4.78018">
        <ele>211</ele>
        <time>2017-12-09T11:22:00Z</time>
      </trkpt>
      <trkpt lat="46.06045" lon="4.78012">
        <ele>211</ele>
        <time>2017-12-09T11:22:01Z</time>
      </trkpt>
      <trkpt lat="46.06041" lon="4.78007">
        <ele>211</ele>
        <time>2017-12-09T11:22:02Z</time>
      </trkpt>
      <trkpt lat="46.06037" lon="4.78001">
        <ele>211</ele>
        <time>2017-12-09T11:22:03Z</time>
      </trkpt>
      <trkpt lat="46.06033" lon="4.77996">
        <ele>211</ele>
        <time>2017-12-09T11:22:04Z</time>
      </trkpt>
      <trkpt lat="46.0603" lon="4.77991">
        <ele>211</ele>
        <time>2017-12-09T11:22:05Z</time>
      </trkpt>
      <trkpt lat="46.06026" lon="4.77986">
        <ele>211</ele>
        <time>2017-12-09T11:22:06Z</time>
      </trkpt>
      <trkpt lat="46.06022" lon="4.77982">
        <ele>211</ele>
        <time>2017-12-09T11:22:07Z</time>
      </trkpt>
      <trkpt lat="46.06018" lon="4.77978">
        <ele>211</ele>
        <time>2017-12-09T11:22:08Z</time>
      </trkpt>
      <trkpt lat="46.06013" lon="4.77975">
        <ele>211</ele>
        <time>2017-12-09T11:22:09Z</time>
      </trkpt>
      <trkpt lat="46.06006" lon="4.77968">
        <ele>211</ele>
        <time>2017-12-09T11:22:11Z</time>
      </trkpt>
      <trkpt lat="46.06002" lon="4.77964">
        <ele>211</ele>
        <time>2017-12-09T11:22:12Z</time>
      </trkpt>
      <trkpt lat="46.05998" lon="4.77954">
        <ele>212</ele>
        <time>2017-12-09T11:22:14Z</time>
      </trkpt>
      <trkpt lat="46.05996" lon="4.77947">
        <ele>212</ele>
        <time>2017-12-09T11:22:15Z</time>
      </trkpt>
      <trkpt lat="46.05995" lon="4.77939">
        <ele>212</ele>
        <time>2017-12-09T11:22:16Z</time>
      </trkpt>
      <trkpt lat="46.05993" lon="4.77934">
        <ele>212</ele>
        <time>2017-12-09T11:22:17Z</time>
      </trkpt>
      <trkpt lat="46.0599" lon="4.77922">
        <ele>211</ele>
        <time>2017-12-09T11:22:19Z</time>
      </trkpt>
      <trkpt lat="46.05989" lon="4.77915">
        <ele>211</ele>
        <time>2017-12-09T11:22:20Z</time>
      </trkpt>
      <trkpt lat="46.05984" lon="4.77905">
        <ele>211</ele>
        <time>2017-12-09T11:22:22Z</time>
      </trkpt>
      <trkpt lat="46.05982" lon="4.779">
        <ele>211</ele>
        <time>2017-12-09T11:22:23Z</time>
      </trkpt>
      <trkpt lat="46.05976" lon="4.77895">
        <ele>211</ele>
        <time>2017-12-09T11:22:24Z</time>
      </trkpt>
      <trkpt lat="46.05972" lon="4.77889">
        <ele>211</ele>
        <time>2017-12-09T11:22:25Z</time>
      </trkpt>
      <trkpt lat="46.05968" lon="4.77881">
        <ele>211</ele>
        <time>2017-12-09T11:22:27Z</time>
      </trkpt>
      <trkpt lat="46.05965" lon="4.77876">
        <ele>211</ele>
        <time>2017-12-09T11:22:28Z</time>
      </trkpt>
      <trkpt lat="46.05962" lon="4.77871">
        <ele>211</ele>
        <time>2017-12-09T11:22:29Z</time>
      </trkpt>
      <trkpt lat="46.05957" lon="4.77865">
        <ele>211</ele>
        <time>2017-12-09T11:22:30Z</time>
      </trkpt>
      <trkpt lat="46.05951" lon="4.77855">
        <ele>211</ele>
        <time>2017-12-09T11:22:32Z</time>
      </trkpt>
      <trkpt lat="46.05946" lon="4.77851">
        <ele>211</ele>
        <time>2017-12-09T11:22:33Z</time>
      </trkpt>
      <trkpt lat="46.05944" lon="4.77844">
        <ele>211</ele>
        <time>2017-12-09T11:22:34Z</time>
      </trkpt>
      <trkpt lat="46.05941" lon="4.77839">
        <ele>211</ele>
        <time>2017-12-09T11:22:35Z</time>
      </trkpt>
      <trkpt lat="46.05939" lon="4.77834">
        <ele>211</ele>
        <time>2017-12-09T11:22:36Z</time>
      </trkpt>
      <trkpt lat="46.05935" lon="4.77828">
        <ele>210</ele>
        <time>2017-12-09T11:22:37Z</time>
      </trkpt>
      <trkpt lat="46.05932" lon="4.77822">
        <ele>210</ele>
        <time>2017-12-09T11:22:38Z</time>
      </trkpt>
      <trkpt lat="46.05928" lon="4.77817">
        <ele>210</ele>
        <time>2017-12-09T11:22:39Z</time>
      </trkpt>
      <trkpt lat="46.05925" lon="4.7781">
        <ele>210</ele>
        <time>2017-12-09T11:22:40Z</time>
      </trkpt>
      <trkpt lat="46.05921" lon="4.77805">
        <ele>210</ele>
        <time>2017-12-09T11:22:41Z</time>
      </trkpt>
      <trkpt lat="46.05916" lon="4.77798">
        <ele>210</ele>
        <time>2017-12-09T11:22:42Z</time>
      </trkpt>
      <trkpt lat="46.05912" lon="4.77793">
        <ele>210</ele>
        <time>2017-12-09T11:22:43Z</time>
      </trkpt>
      <trkpt lat="46.0591" lon="4.77788">
        <ele>210</ele>
        <time>2017-12-09T11:22:44Z</time>
      </trkpt>
      <trkpt lat="46.05907" lon="4.77782">
        <ele>210</ele>
        <time>2017-12-09T11:22:45Z</time>
      </trkpt>
      <trkpt lat="46.05905" lon="4.77775">
        <ele>210</ele>
        <time>2017-12-09T11:22:46Z</time>
      </trkpt>
      <trkpt lat="46.05903" lon="4.77768">
        <ele>209</ele>
        <time>2017-12-09T11:22:47Z</time>
      </trkpt>
      <trkpt lat="46.05903" lon="4.7776">
        <ele>209</ele>
        <time>2017-12-09T11:22:48Z</time>
      </trkpt>
      <trkpt lat="46.05901" lon="4.77753">
        <ele>209</ele>
        <time>2017-12-09T11:22:49Z</time>
      </trkpt>
      <trkpt lat="46.059" lon="4.77746">
        <ele>209</ele>
        <time>2017-12-09T11:22:50Z</time>
      </trkpt>
      <trkpt lat="46.05899" lon="4.77739">
        <ele>209</ele>
        <time>2017-12-09T11:22:51Z</time>
      </trkpt>
      <trkpt lat="46.05897" lon="4.77732">
        <ele>209</ele>
        <time>2017-12-09T11:22:52Z</time>
      </trkpt>
      <trkpt lat="46.05896" lon="4.77725">
        <ele>209</ele>
        <time>2017-12-09T11:22:53Z</time>
      </trkpt>
      <trkpt lat="46.05895" lon="4.77718">
        <ele>208</ele>
        <time>2017-12-09T11:22:54Z</time>
      </trkpt>
      <trkpt lat="46.05895" lon="4.77711">
        <ele>208</ele>
        <time>2017-12-09T11:22:55Z</time>
      </trkpt>
      <trkpt lat="46.05893" lon="4.77705">
        <ele>208</ele>
        <time>2017-12-09T11:22:56Z</time>
      </trkpt>
      <trkpt lat="46.05893" lon="4.77697">
        <ele>208</ele>
        <time>2017-12-09T11:22:57Z</time>
      </trkpt>
      <trkpt lat="46.05891" lon="4.7769">
        <ele>208</ele>
        <time>2017-12-09T11:22:58Z</time>
      </trkpt>
      <trkpt lat="46.05887" lon="4.77683">
        <ele>208</ele>
        <time>2017-12-09T11:22:59Z</time>
      </trkpt>
      <trkpt lat="46.05884" lon="4.77677">
        <ele>208</ele>
        <time>2017-12-09T11:23:00Z</time>
      </trkpt>
      <trkpt lat="46.0588" lon="4.77671">
        <ele>208</ele>
        <time>2017-12-09T11:23:01Z</time>
      </trkpt>
      <trkpt lat="46.05876" lon="4.77664">
        <ele>208</ele>
        <time>2017-12-09T11:23:02Z</time>
      </trkpt>
      <trkpt lat="46.05872" lon="4.77658">
        <ele>208</ele>
        <time>2017-12-09T11:23:03Z</time>
      </trkpt>
      <trkpt lat="46.05867" lon="4.77653">
        <ele>208</ele>
        <time>2017-12-09T11:23:04Z</time>
      </trkpt>
      <trkpt lat="46.05862" lon="4.77648">
        <ele>208</ele>
        <time>2017-12-09T11:23:05Z</time>
      </trkpt>
      <trkpt lat="46.05858" lon="4.77644">
        <ele>208</ele>
        <time>2017-12-09T11:23:06Z</time>
      </trkpt>
      <trkpt lat="46.05855" lon="4.77638">
        <ele>208</ele>
        <time>2017-12-09T11:23:07Z</time>
      </trkpt>
      <trkpt lat="46.05851" lon="4.77634">
        <ele>208</ele>
        <time>2017-12-09T11:23:08Z</time>
      </trkpt>
      <trkpt lat="46.05846" lon="4.77629">
        <ele>208</ele>
        <time>2017-12-09T11:23:09Z</time>
      </trkpt>
      <trkpt lat="46.05842" lon="4.77622">
        <ele>208</ele>
        <time>2017-12-09T11:23:10Z</time>
      </trkpt>
      <trkpt lat="46.05838" lon="4.77618">
        <ele>208</ele>
        <time>2017-12-09T11:23:11Z</time>
      </trkpt>
      <trkpt lat="46.05833" lon="4.77613">
        <ele>209</ele>
        <time>2017-12-09T11:23:12Z</time>
      </trkpt>
      <trkpt lat="46.05828" lon="4.77607">
        <ele>208</ele>
        <time>2017-12-09T11:23:13Z</time>
      </trkpt>
      <trkpt lat="46.05823" lon="4.77601">
        <ele>208</ele>
        <time>2017-12-09T11:23:14Z</time>
      </trkpt>
      <trkpt lat="46.05819" lon="4.77596">
        <ele>208</ele>
        <time>2017-12-09T11:23:15Z</time>
      </trkpt>
      <trkpt lat="46.05815" lon="4.77591">
        <ele>208</ele>
        <time>2017-12-09T11:23:16Z</time>
      </trkpt>
      <trkpt lat="46.0581" lon="4.77586">
        <ele>208</ele>
        <time>2017-12-09T11:23:17Z</time>
      </trkpt>
      <trkpt lat="46.05806" lon="4.77582">
        <ele>208</ele>
        <time>2017-12-09T11:23:18Z</time>
      </trkpt>
      <trkpt lat="46.05802" lon="4.77578">
        <ele>208</ele>
        <time>2017-12-09T11:23:19Z</time>
      </trkpt>
      <trkpt lat="46.05797" lon="4.77573">
        <ele>208</ele>
        <time>2017-12-09T11:23:20Z</time>
      </trkpt>
      <trkpt lat="46.05794" lon="4.77567">
        <ele>208</ele>
        <time>2017-12-09T11:23:21Z</time>
      </trkpt>
      <trkpt lat="46.0579" lon="4.77562">
        <ele>208</ele>
        <time>2017-12-09T11:23:22Z</time>
      </trkpt>
      <trkpt lat="46.05785" lon="4.77556">
        <ele>208</ele>
        <time>2017-12-09T11:23:23Z</time>
      </trkpt>
      <trkpt lat="46.05782" lon="4.77549">
        <ele>208</ele>
        <time>2017-12-09T11:23:24Z</time>
      </trkpt>
      <trkpt lat="46.05778" lon="4.77543">
        <ele>208</ele>
        <time>2017-12-09T11:23:25Z</time>
      </trkpt>
      <trkpt lat="46.05774" lon="4.77537">
        <ele>208</ele>
        <time>2017-12-09T11:23:26Z</time>
      </trkpt>
      <trkpt lat="46.0577" lon="4.77532">
        <ele>208</ele>
        <time>2017-12-09T11:23:27Z</time>
      </trkpt>
      <trkpt lat="46.05766" lon="4.77526">
        <ele>208</ele>
        <time>2017-12-09T11:23:28Z</time>
      </trkpt>
      <trkpt lat="46.05763" lon="4.77521">
        <ele>208</ele>
        <time>2017-12-09T11:23:29Z</time>
      </trkpt>
      <trkpt lat="46.05759" lon="4.77516">
        <ele>208</ele>
        <time>2017-12-09T11:23:30Z</time>
      </trkpt>
      <trkpt lat="46.05756" lon="4.77511">
        <ele>208</ele>
        <time>2017-12-09T11:23:31Z</time>
      </trkpt>
      <trkpt lat="46.05752" lon="4.77506">
        <ele>208</ele>
        <time>2017-12-09T11:23:32Z</time>
      </trkpt>
      <trkpt lat="46.05749" lon="4.775">
        <ele>208</ele>
        <time>2017-12-09T11:23:33Z</time>
      </trkpt>
      <trkpt lat="46.05745" lon="4.77494">
        <ele>208</ele>
        <time>2017-12-09T11:23:34Z</time>
      </trkpt>
      <trkpt lat="46.05742" lon="4.77487">
        <ele>207</ele>
        <time>2017-12-09T11:23:35Z</time>
      </trkpt>
      <trkpt lat="46.05737" lon="4.77482">
        <ele>207</ele>
        <time>2017-12-09T11:23:36Z</time>
      </trkpt>
      <trkpt lat="46.05733" lon="4.77477">
        <ele>207</ele>
        <time>2017-12-09T11:23:37Z</time>
      </trkpt>
      <trkpt lat="46.05728" lon="4.77472">
        <ele>207</ele>
        <time>2017-12-09T11:23:38Z</time>
      </trkpt>
      <trkpt lat="46.05724" lon="4.77468">
        <ele>207</ele>
        <time>2017-12-09T11:23:39Z</time>
      </trkpt>
      <trkpt lat="46.05719" lon="4.77464">
        <ele>207</ele>
        <time>2017-12-09T11:23:40Z</time>
      </trkpt>
      <trkpt lat="46.05714" lon="4.7746">
        <ele>207</ele>
        <time>2017-12-09T11:23:41Z</time>
      </trkpt>
      <trkpt lat="46.05708" lon="4.77458">
        <ele>207</ele>
        <time>2017-12-09T11:23:42Z</time>
      </trkpt>
      <trkpt lat="46.05702" lon="4.77454">
        <ele>207</ele>
        <time>2017-12-09T11:23:43Z</time>
      </trkpt>
      <trkpt lat="46.05698" lon="4.77451">
        <ele>207</ele>
        <time>2017-12-09T11:23:44Z</time>
      </trkpt>
      <trkpt lat="46.05692" lon="4.77447">
        <ele>206</ele>
        <time>2017-12-09T11:23:45Z</time>
      </trkpt>
      <trkpt lat="46.05687" lon="4.77443">
        <ele>206</ele>
        <time>2017-12-09T11:23:46Z</time>
      </trkpt>
      <trkpt lat="46.05682" lon="4.77438">
        <ele>206</ele>
        <time>2017-12-09T11:23:47Z</time>
      </trkpt>
      <trkpt lat="46.05677" lon="4.77434">
        <ele>206</ele>
        <time>2017-12-09T11:23:48Z</time>
      </trkpt>
      <trkpt lat="46.05673" lon="4.77428">
        <ele>206</ele>
        <time>2017-12-09T11:23:49Z</time>
      </trkpt>
      <trkpt lat="46.05668" lon="4.77422">
        <ele>205</ele>
        <time>2017-12-09T11:23:50Z</time>
      </trkpt>
      <trkpt lat="46.05663" lon="4.77416">
        <ele>205</ele>
        <time>2017-12-09T11:23:51Z</time>
      </trkpt>
      <trkpt lat="46.05658" lon="4.77411">
        <ele>204</ele>
        <time>2017-12-09T11:23:52Z</time>
      </trkpt>
      <trkpt lat="46.05652" lon="4.77405">
        <ele>204</ele>
        <time>2017-12-09T11:23:53Z</time>
      </trkpt>
      <trkpt lat="46.05647" lon="4.774">
        <ele>204</ele>
        <time>2017-12-09T11:23:54Z</time>
      </trkpt>
      <trkpt lat="46.05641" lon="4.77394">
        <ele>203</ele>
        <time>2017-12-09T11:23:55Z</time>
      </trkpt>
      <trkpt lat="46.05635" lon="4.7739">
        <ele>203</ele>
        <time>2017-12-09T11:23:56Z</time>
      </trkpt>
      <trkpt lat="46.05627" lon="4.77385">
        <ele>203</ele>
        <time>2017-12-09T11:23:57Z</time>
      </trkpt>
      <trkpt lat="46.05621" lon="4.7738">
        <ele>203</ele>
        <time>2017-12-09T11:23:58Z</time>
      </trkpt>
      <trkpt lat="46.05615" lon="4.77375">
        <ele>203</ele>
        <time>2017-12-09T11:23:59Z</time>
      </trkpt>
      <trkpt lat="46.05608" lon="4.7737">
        <ele>202</ele>
        <time>2017-12-09T11:24:00Z</time>
      </trkpt>
      <trkpt lat="46.05601" lon="4.77365">
        <ele>202</ele>
        <time>2017-12-09T11:24:01Z</time>
      </trkpt>
      <trkpt lat="46.05595" lon="4.77361">
        <ele>202</ele>
        <time>2017-12-09T11:24:02Z</time>
      </trkpt>
      <trkpt lat="46.05588" lon="4.77355">
        <ele>202</ele>
        <time>2017-12-09T11:24:03Z</time>
      </trkpt>
      <trkpt lat="46.05581" lon="4.77351">
        <ele>201</ele>
        <time>2017-12-09T11:24:04Z</time>
      </trkpt>
      <trkpt lat="46.05573" lon="4.77346">
        <ele>201</ele>
        <time>2017-12-09T11:24:05Z</time>
      </trkpt>
      <trkpt lat="46.05566" lon="4.77341">
        <ele>201</ele>
        <time>2017-12-09T11:24:06Z</time>
      </trkpt>
      <trkpt lat="46.05559" lon="4.77338">
        <ele>201</ele>
        <time>2017-12-09T11:24:07Z</time>
      </trkpt>
      <trkpt lat="46.05552" lon="4.77334">
        <ele>201</ele>
        <time>2017-12-09T11:24:08Z</time>
      </trkpt>
      <trkpt lat="46.05545" lon="4.7733">
        <ele>200</ele>
        <time>2017-12-09T11:24:09Z</time>
      </trkpt>
      <trkpt lat="46.05538" lon="4.77326">
        <ele>200</ele>
        <time>2017-12-09T11:24:10Z</time>
      </trkpt>
      <trkpt lat="46.05532" lon="4.77322">
        <ele>200</ele>
        <time>2017-12-09T11:24:11Z</time>
      </trkpt>
      <trkpt lat="46.05525" lon="4.77318">
        <ele>200</ele>
        <time>2017-12-09T11:24:12Z</time>
      </trkpt>
      <trkpt lat="46.05519" lon="4.77314">
        <ele>200</ele>
        <time>2017-12-09T11:24:13Z</time>
      </trkpt>
      <trkpt lat="46.05512" lon="4.77311">
        <ele>200</ele>
        <time>2017-12-09T11:24:14Z</time>
      </trkpt>
      <trkpt lat="46.05506" lon="4.77308">
        <ele>200</ele>
        <time>2017-12-09T11:24:15Z</time>
      </trkpt>
      <trkpt lat="46.055" lon="4.77304">
        <ele>201</ele>
        <time>2017-12-09T11:24:16Z</time>
      </trkpt>
      <trkpt lat="46.05494" lon="4.77302">
        <ele>201</ele>
        <time>2017-12-09T11:24:17Z</time>
      </trkpt>
      <trkpt lat="46.05489" lon="4.77297">
        <ele>201</ele>
        <time>2017-12-09T11:24:18Z</time>
      </trkpt>
      <trkpt lat="46.05484" lon="4.77294">
        <ele>201</ele>
        <time>2017-12-09T11:24:19Z</time>
      </trkpt>
      <trkpt lat="46.05479" lon="4.7729">
        <ele>201</ele>
        <time>2017-12-09T11:24:20Z</time>
      </trkpt>
      <trkpt lat="46.05474" lon="4.77287">
        <ele>201</ele>
        <time>2017-12-09T11:24:21Z</time>
      </trkpt>
      <trkpt lat="46.05468" lon="4.77283">
        <ele>201</ele>
        <time>2017-12-09T11:24:22Z</time>
      </trkpt>
      <trkpt lat="46.05462" lon="4.7728">
        <ele>201</ele>
        <time>2017-12-09T11:24:23Z</time>
      </trkpt>
      <trkpt lat="46.05455" lon="4.77278">
        <ele>201</ele>
        <time>2017-12-09T11:24:24Z</time>
      </trkpt>
      <trkpt lat="46.05449" lon="4.77276">
        <ele>201</ele>
        <time>2017-12-09T11:24:25Z</time>
      </trkpt>
      <trkpt lat="46.05443" lon="4.77274">
        <ele>201</ele>
        <time>2017-12-09T11:24:26Z</time>
      </trkpt>
      <trkpt lat="46.05439" lon="4.77272">
        <ele>201</ele>
        <time>2017-12-09T11:24:27Z</time>
      </trkpt>
      <trkpt lat="46.05434" lon="4.77269">
        <ele>201</ele>
        <time>2017-12-09T11:24:28Z</time>
      </trkpt>
      <trkpt lat="46.05429" lon="4.77267">
        <ele>201</ele>
        <time>2017-12-09T11:24:29Z</time>
      </trkpt>
      <trkpt lat="46.05424" lon="4.77266">
        <ele>201</ele>
        <time>2017-12-09T11:24:30Z</time>
      </trkpt>
      <trkpt lat="46.05418" lon="4.77263">
        <ele>201</ele>
        <time>2017-12-09T11:24:31Z</time>
      </trkpt>
      <trkpt lat="46.05413" lon="4.77262">
        <ele>202</ele>
        <time>2017-12-09T11:24:32Z</time>
      </trkpt>
      <trkpt lat="46.05407" lon="4.7726">
        <ele>202</ele>
        <time>2017-12-09T11:24:33Z</time>
      </trkpt>
      <trkpt lat="46.05402" lon="4.77257">
        <ele>203</ele>
        <time>2017-12-09T11:24:34Z</time>
      </trkpt>
      <trkpt lat="46.05395" lon="4.77253">
        <ele>203</ele>
        <time>2017-12-09T11:24:35Z</time>
      </trkpt>
      <trkpt lat="46.0539" lon="4.77249">
        <ele>202</ele>
        <time>2017-12-09T11:24:36Z</time>
      </trkpt>
      <trkpt lat="46.05384" lon="4.77247">
        <ele>202</ele>
        <time>2017-12-09T11:24:37Z</time>
      </trkpt>
      <trkpt lat="46.05379" lon="4.77243">
        <ele>203</ele>
        <time>2017-12-09T11:24:38Z</time>
      </trkpt>
      <trkpt lat="46.05373" lon="4.7724">
        <ele>203</ele>
        <time>2017-12-09T11:24:39Z</time>
      </trkpt>
      <trkpt lat="46.05368" lon="4.77237">
        <ele>203</ele>
        <time>2017-12-09T11:24:40Z</time>
      </trkpt>
      <trkpt lat="46.05363" lon="4.77233">
        <ele>203</ele>
        <time>2017-12-09T11:24:41Z</time>
      </trkpt>
      <trkpt lat="46.05358" lon="4.7723">
        <ele>203</ele>
        <time>2017-12-09T11:24:42Z</time>
      </trkpt>
      <trkpt lat="46.05352" lon="4.77226">
        <ele>204</ele>
        <time>2017-12-09T11:24:43Z</time>
      </trkpt>
      <trkpt lat="46.05347" lon="4.77222">
        <ele>204</ele>
        <time>2017-12-09T11:24:44Z</time>
      </trkpt>
      <trkpt lat="46.05342" lon="4.7722">
        <ele>204</ele>
        <time>2017-12-09T11:24:45Z</time>
      </trkpt>
      <trkpt lat="46.05336" lon="4.77216">
        <ele>204</ele>
        <time>2017-12-09T11:24:46Z</time>
      </trkpt>
      <trkpt lat="46.05332" lon="4.77213">
        <ele>206</ele>
        <time>2017-12-09T11:24:47Z</time>
      </trkpt>
      <trkpt lat="46.05327" lon="4.77209">
        <ele>205</ele>
        <time>2017-12-09T11:24:48Z</time>
      </trkpt>
      <trkpt lat="46.05322" lon="4.77206">
        <ele>205</ele>
        <time>2017-12-09T11:24:49Z</time>
      </trkpt>
      <trkpt lat="46.05318" lon="4.77201">
        <ele>205</ele>
        <time>2017-12-09T11:24:50Z</time>
      </trkpt>
      <trkpt lat="46.05314" lon="4.77197">
        <ele>205</ele>
        <time>2017-12-09T11:24:51Z</time>
      </trkpt>
      <trkpt lat="46.05311" lon="4.77192">
        <ele>205</ele>
        <time>2017-12-09T11:24:52Z</time>
      </trkpt>
      <trkpt lat="46.05307" lon="4.77188">
        <ele>205</ele>
        <time>2017-12-09T11:24:53Z</time>
      </trkpt>
      <trkpt lat="46.05303" lon="4.77184">
        <ele>205</ele>
        <time>2017-12-09T11:24:54Z</time>
      </trkpt>
      <trkpt lat="46.05298" lon="4.7718">
        <ele>205</ele>
        <time>2017-12-09T11:24:55Z</time>
      </trkpt>
      <trkpt lat="46.05294" lon="4.77176">
        <ele>205</ele>
        <time>2017-12-09T11:24:56Z</time>
      </trkpt>
      <trkpt lat="46.0529" lon="4.77171">
        <ele>206</ele>
        <time>2017-12-09T11:24:57Z</time>
      </trkpt>
      <trkpt lat="46.05286" lon="4.77164">
        <ele>204</ele>
        <time>2017-12-09T11:24:58Z</time>
      </trkpt>
      <trkpt lat="46.05283" lon="4.7716">
        <ele>204</ele>
        <time>2017-12-09T11:24:59Z</time>
      </trkpt>
      <trkpt lat="46.05277" lon="4.77156">
        <ele>204</ele>
        <time>2017-12-09T11:25:00Z</time>
      </trkpt>
      <trkpt lat="46.05273" lon="4.77151">
        <ele>204</ele>
        <time>2017-12-09T11:25:01Z</time>
      </trkpt>
      <trkpt lat="46.05269" lon="4.77147">
        <ele>204</ele>
        <time>2017-12-09T11:25:02Z</time>
      </trkpt>
      <trkpt lat="46.05265" lon="4.77141">
        <ele>204</ele>
        <time>2017-12-09T11:25:03Z</time>
      </trkpt>
      <trkpt lat="46.0526" lon="4.77138">
        <ele>204</ele>
        <time>2017-12-09T11:25:04Z</time>
      </trkpt>
      <trkpt lat="46.05256" lon="4.77133">
        <ele>204</ele>
        <time>2017-12-09T11:25:05Z</time>
      </trkpt>
      <trkpt lat="46.05251" lon="4.77128">
        <ele>204</ele>
        <time>2017-12-09T11:25:06Z</time>
      </trkpt>
      <trkpt lat="46.05244" lon="4.77124">
        <ele>204</ele>
        <time>2017-12-09T11:25:07Z</time>
      </trkpt>
      <trkpt lat="46.05239" lon="4.77119">
        <ele>204</ele>
        <time>2017-12-09T11:25:08Z</time>
      </trkpt>
      <trkpt lat="46.05233" lon="4.77114">
        <ele>203</ele>
        <time>2017-12-09T11:25:09Z</time>
      </trkpt>
      <trkpt lat="46.0523" lon="4.77103">
        <ele>203</ele>
        <time>2017-12-09T11:25:10Z</time>
      </trkpt>
      <trkpt lat="46.05225" lon="4.77095">
        <ele>203</ele>
        <time>2017-12-09T11:25:11Z</time>
      </trkpt>
      <trkpt lat="46.05222" lon="4.77086">
        <ele>203</ele>
        <time>2017-12-09T11:25:12Z</time>
      </trkpt>
      <trkpt lat="46.05219" lon="4.77076">
        <ele>201</ele>
        <time>2017-12-09T11:25:13Z</time>
      </trkpt>
      <trkpt lat="46.05216" lon="4.77067">
        <ele>201</ele>
        <time>2017-12-09T11:25:14Z</time>
      </trkpt>
      <trkpt lat="46.05214" lon="4.77058">
        <ele>201</ele>
        <time>2017-12-09T11:25:15Z</time>
      </trkpt>
      <trkpt lat="46.0521" lon="4.7705">
        <ele>201</ele>
        <time>2017-12-09T11:25:16Z</time>
      </trkpt>
      <trkpt lat="46.05207" lon="4.77041">
        <ele>200</ele>
        <time>2017-12-09T11:25:17Z</time>
      </trkpt>
      <trkpt lat="46.05204" lon="4.77033">
        <ele>200</ele>
        <time>2017-12-09T11:25:18Z</time>
      </trkpt>
      <trkpt lat="46.05201" lon="4.77023">
        <ele>200</ele>
        <time>2017-12-09T11:25:19Z</time>
      </trkpt>
      <trkpt lat="46.05198" lon="4.77015">
        <ele>200</ele>
        <time>2017-12-09T11:25:20Z</time>
      </trkpt>
      <trkpt lat="46.05195" lon="4.77006">
        <ele>200</ele>
        <time>2017-12-09T11:25:21Z</time>
      </trkpt>
      <trkpt lat="46.05192" lon="4.76998">
        <ele>198</ele>
        <time>2017-12-09T11:25:22Z</time>
      </trkpt>
      <trkpt lat="46.05189" lon="4.76989">
        <ele>198</ele>
        <time>2017-12-09T11:25:23Z</time>
      </trkpt>
      <trkpt lat="46.05185" lon="4.7698">
        <ele>198</ele>
        <time>2017-12-09T11:25:24Z</time>
      </trkpt>
      <trkpt lat="46.05182" lon="4.76971">
        <ele>198</ele>
        <time>2017-12-09T11:25:25Z</time>
      </trkpt>
      <trkpt lat="46.05179" lon="4.76962">
        <ele>198</ele>
        <time>2017-12-09T11:25:26Z</time>
      </trkpt>
      <trkpt lat="46.05175" lon="4.76953">
        <ele>197</ele>
        <time>2017-12-09T11:25:27Z</time>
      </trkpt>
      <trkpt lat="46.0517" lon="4.76945">
        <ele>197</ele>
        <time>2017-12-09T11:25:28Z</time>
      </trkpt>
      <trkpt lat="46.05165" lon="4.76937">
        <ele>196</ele>
        <time>2017-12-09T11:25:29Z</time>
      </trkpt>
      <trkpt lat="46.0516" lon="4.76929">
        <ele>196</ele>
        <time>2017-12-09T11:25:30Z</time>
      </trkpt>
      <trkpt lat="46.05157" lon="4.76921">
        <ele>196</ele>
        <time>2017-12-09T11:25:31Z</time>
      </trkpt>
      <trkpt lat="46.05152" lon="4.76912">
        <ele>195</ele>
        <time>2017-12-09T11:25:32Z</time>
      </trkpt>
      <trkpt lat="46.05147" lon="4.76904">
        <ele>195</ele>
        <time>2017-12-09T11:25:33Z</time>
      </trkpt>
      <trkpt lat="46.05144" lon="4.76895">
        <ele>195</ele>
        <time>2017-12-09T11:25:34Z</time>
      </trkpt>
      <trkpt lat="46.0514" lon="4.76887">
        <ele>195</ele>
        <time>2017-12-09T11:25:35Z</time>
      </trkpt>
      <trkpt lat="46.05136" lon="4.76879">
        <ele>195</ele>
        <time>2017-12-09T11:25:36Z</time>
      </trkpt>
      <trkpt lat="46.05132" lon="4.76871">
        <ele>195</ele>
        <time>2017-12-09T11:25:37Z</time>
      </trkpt>
      <trkpt lat="46.05128" lon="4.76863">
        <ele>195</ele>
        <time>2017-12-09T11:25:38Z</time>
      </trkpt>
      <trkpt lat="46.05124" lon="4.76855">
        <ele>195</ele>
        <time>2017-12-09T11:25:39Z</time>
      </trkpt>
      <trkpt lat="46.05121" lon="4.76846">
        <ele>195</ele>
        <time>2017-12-09T11:25:40Z</time>
      </trkpt>
      <trkpt lat="46.05118" lon="4.76837">
        <ele>195</ele>
        <time>2017-12-09T11:25:41Z</time>
      </trkpt>
      <trkpt lat="46.05114" lon="4.76829">
        <ele>194</ele>
        <time>2017-12-09T11:25:42Z</time>
      </trkpt>
      <trkpt lat="46.0511" lon="4.7682">
        <ele>194</ele>
        <time>2017-12-09T11:25:43Z</time>
      </trkpt>
      <trkpt lat="46.05107" lon="4.76811">
        <ele>194</ele>
        <time>2017-12-09T11:25:44Z</time>
      </trkpt>
      <trkpt lat="46.05104" lon="4.76803">
        <ele>194</ele>
        <time>2017-12-09T11:25:45Z</time>
      </trkpt>
      <trkpt lat="46.05102" lon="4.76794">
        <ele>194</ele>
        <time>2017-12-09T11:25:46Z</time>
      </trkpt>
      <trkpt lat="46.051" lon="4.76785">
        <ele>194</ele>
        <time>2017-12-09T11:25:47Z</time>
      </trkpt>
      <trkpt lat="46.05098" lon="4.76776">
        <ele>194</ele>
        <time>2017-12-09T11:25:48Z</time>
      </trkpt>
      <trkpt lat="46.05097" lon="4.76767">
        <ele>194</ele>
        <time>2017-12-09T11:25:49Z</time>
      </trkpt>
      <trkpt lat="46.05095" lon="4.7676">
        <ele>194</ele>
        <time>2017-12-09T11:25:50Z</time>
      </trkpt>
      <trkpt lat="46.05094" lon="4.76752">
        <ele>194</ele>
        <time>2017-12-09T11:25:51Z</time>
      </trkpt>
      <trkpt lat="46.05092" lon="4.76743">
        <ele>193</ele>
        <time>2017-12-09T11:25:52Z</time>
      </trkpt>
      <trkpt lat="46.05092" lon="4.76736">
        <ele>193</ele>
        <time>2017-12-09T11:25:53Z</time>
      </trkpt>
      <trkpt lat="46.0509" lon="4.76727">
        <ele>193</ele>
        <time>2017-12-09T11:25:54Z</time>
      </trkpt>
      <trkpt lat="46.05088" lon="4.76719">
        <ele>193</ele>
        <time>2017-12-09T11:25:55Z</time>
      </trkpt>
      <trkpt lat="46.05087" lon="4.7671">
        <ele>193</ele>
        <time>2017-12-09T11:25:56Z</time>
      </trkpt>
      <trkpt lat="46.05087" lon="4.76702">
        <ele>193</ele>
        <time>2017-12-09T11:25:57Z</time>
      </trkpt>
      <trkpt lat="46.05086" lon="4.76695">
        <ele>193</ele>
        <time>2017-12-09T11:25:58Z</time>
      </trkpt>
      <trkpt lat="46.05085" lon="4.76687">
        <ele>193</ele>
        <time>2017-12-09T11:25:59Z</time>
      </trkpt>
      <trkpt lat="46.05085" lon="4.7668">
        <ele>193</ele>
        <time>2017-12-09T11:26:00Z</time>
      </trkpt>
      <trkpt lat="46.05083" lon="4.76673">
        <ele>193</ele>
        <time>2017-12-09T11:26:01Z</time>
      </trkpt>
      <trkpt lat="46.05082" lon="4.76665">
        <ele>193</ele>
        <time>2017-12-09T11:26:02Z</time>
      </trkpt>
      <trkpt lat="46.05081" lon="4.76659">
        <ele>193</ele>
        <time>2017-12-09T11:26:03Z</time>
      </trkpt>
      <trkpt lat="46.05082" lon="4.76648">
        <ele>192</ele>
        <time>2017-12-09T11:26:05Z</time>
      </trkpt>
      <trkpt lat="46.0508" lon="4.76641">
        <ele>192</ele>
        <time>2017-12-09T11:26:06Z</time>
      </trkpt>
      <trkpt lat="46.05081" lon="4.76631">
        <ele>192</ele>
        <time>2017-12-09T11:26:09Z</time>
      </trkpt>
      <trkpt lat="46.05082" lon="4.76628">
        <ele>192</ele>
        <time>2017-12-09T11:26:10Z</time>
      </trkpt>
      <trkpt lat="46.05081" lon="4.76621">
        <ele>192</ele>
        <time>2017-12-09T11:26:12Z</time>
      </trkpt>
      <trkpt lat="46.05077" lon="4.76617">
        <ele>191</ele>
        <time>2017-12-09T11:26:13Z</time>
      </trkpt>
      <trkpt lat="46.05071" lon="4.7661">
        <ele>191</ele>
        <time>2017-12-09T11:26:15Z</time>
      </trkpt>
      <trkpt lat="46.05067" lon="4.76605">
        <ele>191</ele>
        <time>2017-12-09T11:26:16Z</time>
      </trkpt>
      <trkpt lat="46.05063" lon="4.76602">
        <ele>191</ele>
        <time>2017-12-09T11:26:17Z</time>
      </trkpt>
      <trkpt lat="46.05058" lon="4.76599">
        <ele>191</ele>
        <time>2017-12-09T11:26:18Z</time>
      </trkpt>
      <trkpt lat="46.05053" lon="4.76595">
        <ele>191</ele>
        <time>2017-12-09T11:26:19Z</time>
      </trkpt>
      <trkpt lat="46.05048" lon="4.76591">
        <ele>191</ele>
        <time>2017-12-09T11:26:20Z</time>
      </trkpt>
      <trkpt lat="46.05042" lon="4.76587">
        <ele>191</ele>
        <time>2017-12-09T11:26:21Z</time>
      </trkpt>
      <trkpt lat="46.05037" lon="4.76583">
        <ele>190</ele>
        <time>2017-12-09T11:26:22Z</time>
      </trkpt>
      <trkpt lat="46.05032" lon="4.7658">
        <ele>190</ele>
        <time>2017-12-09T11:26:23Z</time>
      </trkpt>
      <trkpt lat="46.05028" lon="4.76578">
        <ele>190</ele>
        <time>2017-12-09T11:26:24Z</time>
      </trkpt>
      <trkpt lat="46.05024" lon="4.76574">
        <ele>190</ele>
        <time>2017-12-09T11:26:25Z</time>
      </trkpt>
      <trkpt lat="46.05021" lon="4.76568">
        <ele>190</ele>
        <time>2017-12-09T11:26:26Z</time>
      </trkpt>
      <trkpt lat="46.05015" lon="4.76561">
        <ele>190</ele>
        <time>2017-12-09T11:26:28Z</time>
      </trkpt>
      <trkpt lat="46.05011" lon="4.76557">
        <ele>190</ele>
        <time>2017-12-09T11:26:29Z</time>
      </trkpt>
      <trkpt lat="46.05007" lon="4.76552">
        <ele>190</ele>
        <time>2017-12-09T11:26:30Z</time>
      </trkpt>
      <trkpt lat="46.05004" lon="4.76546">
        <ele>190</ele>
        <time>2017-12-09T11:26:31Z</time>
      </trkpt>
      <trkpt lat="46.05001" lon="4.7654">
        <ele>190</ele>
        <time>2017-12-09T11:26:32Z</time>
      </trkpt>
      <trkpt lat="46.04998" lon="4.76535">
        <ele>191</ele>
        <time>2017-12-09T11:26:33Z</time>
      </trkpt>
      <trkpt lat="46.04996" lon="4.76529">
        <ele>191</ele>
        <time>2017-12-09T11:26:34Z</time>
      </trkpt>
      <trkpt lat="46.04994" lon="4.76523">
        <ele>191</ele>
        <time>2017-12-09T11:26:35Z</time>
      </trkpt>
      <trkpt lat="46.0499" lon="4.76512">
        <ele>191</ele>
        <time>2017-12-09T11:26:37Z</time>
      </trkpt>
      <trkpt lat="46.04988" lon="4.76507">
        <ele>191</ele>
        <time>2017-12-09T11:26:38Z</time>
      </trkpt>
      <trkpt lat="46.04985" lon="4.76495">
        <ele>190</ele>
        <time>2017-12-09T11:26:40Z</time>
      </trkpt>
      <trkpt lat="46.04983" lon="4.7649">
        <ele>190</ele>
        <time>2017-12-09T11:26:41Z</time>
      </trkpt>
      <trkpt lat="46.04981" lon="4.76478">
        <ele>190</ele>
        <time>2017-12-09T11:26:43Z</time>
      </trkpt>
      <trkpt lat="46.04978" lon="4.76473">
        <ele>190</ele>
        <time>2017-12-09T11:26:44Z</time>
      </trkpt>
      <trkpt lat="46.04976" lon="4.76468">
        <ele>190</ele>
        <time>2017-12-09T11:26:45Z</time>
      </trkpt>
      <trkpt lat="46.04974" lon="4.76462">
        <ele>190</ele>
        <time>2017-12-09T11:26:46Z</time>
      </trkpt>
      <trkpt lat="46.04971" lon="4.76456">
        <ele>190</ele>
        <time>2017-12-09T11:26:47Z</time>
      </trkpt>
      <trkpt lat="46.04967" lon="4.7645">
        <ele>190</ele>
        <time>2017-12-09T11:26:48Z</time>
      </trkpt>
      <trkpt lat="46.04962" lon="4.76445">
        <ele>191</ele>
        <time>2017-12-09T11:26:49Z</time>
      </trkpt>
      <trkpt lat="46.04957" lon="4.76442">
        <ele>191</ele>
        <time>2017-12-09T11:26:50Z</time>
      </trkpt>
      <trkpt lat="46.04952" lon="4.76439">
        <ele>191</ele>
        <time>2017-12-09T11:26:51Z</time>
      </trkpt>
      <trkpt lat="46.04948" lon="4.76439">
        <ele>191</ele>
        <time>2017-12-09T11:26:52Z</time>
      </trkpt>
      <trkpt lat="46.04943" lon="4.7644">
        <ele>191</ele>
        <time>2017-12-09T11:26:53Z</time>
      </trkpt>
      <trkpt lat="46.04938" lon="4.7644">
        <ele>191</ele>
        <time>2017-12-09T11:26:54Z</time>
      </trkpt>
      <trkpt lat="46.0493" lon="4.76441">
        <ele>191</ele>
        <time>2017-12-09T11:26:56Z</time>
      </trkpt>
      <trkpt lat="46.04927" lon="4.76443">
        <ele>191</ele>
        <time>2017-12-09T11:26:57Z</time>
      </trkpt>
      <trkpt lat="46.04921" lon="4.76442">
        <ele>191</ele>
        <time>2017-12-09T11:26:58Z</time>
      </trkpt>
      <trkpt lat="46.04918" lon="4.76443">
        <ele>191</ele>
        <time>2017-12-09T11:26:59Z</time>
      </trkpt>
      <trkpt lat="46.04911" lon="4.76445">
        <ele>193</ele>
        <time>2017-12-09T11:27:00Z</time>
      </trkpt>
      <trkpt lat="46.04906" lon="4.76446">
        <ele>193</ele>
        <time>2017-12-09T11:27:01Z</time>
      </trkpt>
      <trkpt lat="46.04898" lon="4.76448">
        <ele>193</ele>
        <time>2017-12-09T11:27:03Z</time>
      </trkpt>
      <trkpt lat="46.04895" lon="4.76448">
        <ele>193</ele>
        <time>2017-12-09T11:27:04Z</time>
      </trkpt>
      <trkpt lat="46.0489" lon="4.76449">
        <ele>193</ele>
        <time>2017-12-09T11:27:05Z</time>
      </trkpt>
      <trkpt lat="46.04886" lon="4.7645">
        <ele>193</ele>
        <time>2017-12-09T11:27:06Z</time>
      </trkpt>
      <trkpt lat="46.04882" lon="4.76451">
        <ele>193</ele>
        <time>2017-12-09T11:27:07Z</time>
      </trkpt>
      <trkpt lat="46.04876" lon="4.76451">
        <ele>193</ele>
        <time>2017-12-09T11:27:08Z</time>
      </trkpt>
      <trkpt lat="46.04869" lon="4.76451">
        <ele>193</ele>
        <time>2017-12-09T11:27:10Z</time>
      </trkpt>
      <trkpt lat="46.04864" lon="4.76452">
        <ele>193</ele>
        <time>2017-12-09T11:27:11Z</time>
      </trkpt>
      <trkpt lat="46.04856" lon="4.76454">
        <ele>193</ele>
        <time>2017-12-09T11:27:13Z</time>
      </trkpt>
      <trkpt lat="46.04853" lon="4.76455">
        <ele>193</ele>
        <time>2017-12-09T11:27:14Z</time>
      </trkpt>
      <trkpt lat="46.04844" lon="4.76455">
        <ele>193</ele>
        <time>2017-12-09T11:27:17Z</time>
      </trkpt>
      <trkpt lat="46.0484" lon="4.76455">
        <ele>194</ele>
        <time>2017-12-09T11:27:18Z</time>
      </trkpt>
      <trkpt lat="46.04835" lon="4.76454">
        <ele>194</ele>
        <time>2017-12-09T11:27:19Z</time>
      </trkpt>
      <trkpt lat="46.04831" lon="4.76452">
        <ele>193</ele>
        <time>2017-12-09T11:27:20Z</time>
      </trkpt>
      <trkpt lat="46.04822" lon="4.76449">
        <ele>193</ele>
        <time>2017-12-09T11:27:22Z</time>
      </trkpt>
      <trkpt lat="46.04816" lon="4.7645">
        <ele>193</ele>
        <time>2017-12-09T11:27:23Z</time>
      </trkpt>
      <trkpt lat="46.04815" lon="4.76447">
        <ele>193</ele>
        <time>2017-12-09T11:27:24Z</time>
      </trkpt>
      <trkpt lat="46.04805" lon="4.7644">
        <ele>193</ele>
        <time>2017-12-09T11:27:25Z</time>
      </trkpt>
      <trkpt lat="46.048" lon="4.76438">
        <ele>193</ele>
        <time>2017-12-09T11:27:26Z</time>
      </trkpt>
      <trkpt lat="46.04794" lon="4.76448">
        <ele>193</ele>
        <time>2017-12-09T11:27:27Z</time>
      </trkpt>
      <trkpt lat="46.0479" lon="4.76452">
        <ele>192</ele>
        <time>2017-12-09T11:27:28Z</time>
      </trkpt>
      <trkpt lat="46.04783" lon="4.76454">
        <ele>192</ele>
        <time>2017-12-09T11:27:29Z</time>
      </trkpt>
      <trkpt lat="46.04779" lon="4.76457">
        <ele>192</ele>
        <time>2017-12-09T11:27:30Z</time>
      </trkpt>
      <trkpt lat="46.04773" lon="4.76462">
        <ele>192</ele>
        <time>2017-12-09T11:27:31Z</time>
      </trkpt>
      <trkpt lat="46.04767" lon="4.76468">
        <ele>192</ele>
        <time>2017-12-09T11:27:32Z</time>
      </trkpt>
      <trkpt lat="46.04762" lon="4.7647">
        <ele>192</ele>
        <time>2017-12-09T11:27:33Z</time>
      </trkpt>
      <trkpt lat="46.04757" lon="4.76473">
        <ele>192</ele>
        <time>2017-12-09T11:27:34Z</time>
      </trkpt>
      <trkpt lat="46.0475" lon="4.76476">
        <ele>192</ele>
        <time>2017-12-09T11:27:35Z</time>
      </trkpt>
      <trkpt lat="46.0474" lon="4.76478">
        <ele>190</ele>
        <time>2017-12-09T11:27:36Z</time>
      </trkpt>
      <trkpt lat="46.04734" lon="4.76479">
        <ele>190</ele>
        <time>2017-12-09T11:27:37Z</time>
      </trkpt>
      <trkpt lat="46.04729" lon="4.76481">
        <ele>189</ele>
        <time>2017-12-09T11:27:38Z</time>
      </trkpt>
      <trkpt lat="46.04724" lon="4.76484">
        <ele>189</ele>
        <time>2017-12-09T11:27:39Z</time>
      </trkpt>
      <trkpt lat="46.04718" lon="4.76485">
        <ele>189</ele>
        <time>2017-12-09T11:27:40Z</time>
      </trkpt>
      <trkpt lat="46.04714" lon="4.76487">
        <ele>189</ele>
        <time>2017-12-09T11:27:41Z</time>
      </trkpt>
      <trkpt lat="46.04709" lon="4.76488">
        <ele>189</ele>
        <time>2017-12-09T11:27:42Z</time>
      </trkpt>
      <trkpt lat="46.04701" lon="4.76491">
        <ele>188</ele>
        <time>2017-12-09T11:27:44Z</time>
      </trkpt>
      <trkpt lat="46.04697" lon="4.76491">
        <ele>188</ele>
        <time>2017-12-09T11:27:45Z</time>
      </trkpt>
      <trkpt lat="46.0469" lon="4.76495">
        <ele>188</ele>
        <time>2017-12-09T11:27:49Z</time>
      </trkpt>
      <trkpt lat="46.04688" lon="4.76496">
        <ele>188</ele>
        <time>2017-12-09T11:27:50Z</time>
      </trkpt>
      <trkpt lat="46.04682" lon="4.76501">
        <ele>187</ele>
        <time>2017-12-09T11:27:52Z</time>
      </trkpt>
      <trkpt lat="46.04678" lon="4.76503">
        <ele>187</ele>
        <time>2017-12-09T11:27:53Z</time>
      </trkpt>
      <trkpt lat="46.04674" lon="4.76506">
        <ele>187</ele>
        <time>2017-12-09T11:27:54Z</time>
      </trkpt>
      <trkpt lat="46.04668" lon="4.76507">
        <ele>186</ele>
        <time>2017-12-09T11:27:55Z</time>
      </trkpt>
      <trkpt lat="46.04661" lon="4.76507">
        <ele>186</ele>
        <time>2017-12-09T11:27:56Z</time>
      </trkpt>
      <trkpt lat="46.04655" lon="4.76507">
        <ele>186</ele>
        <time>2017-12-09T11:27:57Z</time>
      </trkpt>
      <trkpt lat="46.0465" lon="4.7651">
        <ele>186</ele>
        <time>2017-12-09T11:27:58Z</time>
      </trkpt>
      <trkpt lat="46.04644" lon="4.76511">
        <ele>186</ele>
        <time>2017-12-09T11:27:59Z</time>
      </trkpt>
      <trkpt lat="46.04638" lon="4.76513">
        <ele>186</ele>
        <time>2017-12-09T11:28:00Z</time>
      </trkpt>
      <trkpt lat="46.04632" lon="4.76515">
        <ele>186</ele>
        <time>2017-12-09T11:28:01Z</time>
      </trkpt>
      <trkpt lat="46.04627" lon="4.76516">
        <ele>186</ele>
        <time>2017-12-09T11:28:02Z</time>
      </trkpt>
      <trkpt lat="46.04622" lon="4.7652">
        <ele>186</ele>
        <time>2017-12-09T11:28:03Z</time>
      </trkpt>
      <trkpt lat="46.04615" lon="4.76525">
        <ele>186</ele>
        <time>2017-12-09T11:28:05Z</time>
      </trkpt>
      <trkpt lat="46.04611" lon="4.76528">
        <ele>186</ele>
        <time>2017-12-09T11:28:06Z</time>
      </trkpt>
      <trkpt lat="46.04607" lon="4.76529">
        <ele>186</ele>
        <time>2017-12-09T11:28:07Z</time>
      </trkpt>
      <trkpt lat="46.04599" lon="4.76532">
        <ele>186</ele>
        <time>2017-12-09T11:28:08Z</time>
      </trkpt>
      <trkpt lat="46.04594" lon="4.76536">
        <ele>186</ele>
        <time>2017-12-09T11:28:09Z</time>
      </trkpt>
      <trkpt lat="46.04589" lon="4.76539">
        <ele>186</ele>
        <time>2017-12-09T11:28:10Z</time>
      </trkpt>
      <trkpt lat="46.04581" lon="4.76538">
        <ele>187</ele>
        <time>2017-12-09T11:28:11Z</time>
      </trkpt>
      <trkpt lat="46.04576" lon="4.76539">
        <ele>187</ele>
        <time>2017-12-09T11:28:12Z</time>
      </trkpt>
      <trkpt lat="46.04571" lon="4.76542">
        <ele>187</ele>
        <time>2017-12-09T11:28:13Z</time>
      </trkpt>
      <trkpt lat="46.04567" lon="4.76544">
        <ele>187</ele>
        <time>2017-12-09T11:28:14Z</time>
      </trkpt>
      <trkpt lat="46.04562" lon="4.76545">
        <ele>187</ele>
        <time>2017-12-09T11:28:15Z</time>
      </trkpt>
      <trkpt lat="46.04557" lon="4.76547">
        <ele>188</ele>
        <time>2017-12-09T11:28:16Z</time>
      </trkpt>
      <trkpt lat="46.0455" lon="4.76549">
        <ele>188</ele>
        <time>2017-12-09T11:28:18Z</time>
      </trkpt>
      <trkpt lat="46.04546" lon="4.76552">
        <ele>188</ele>
        <time>2017-12-09T11:28:19Z</time>
      </trkpt>
      <trkpt lat="46.04537" lon="4.76552">
        <ele>188</ele>
        <time>2017-12-09T11:28:21Z</time>
      </trkpt>
      <trkpt lat="46.04534" lon="4.76553">
        <ele>188</ele>
        <time>2017-12-09T11:28:22Z</time>
      </trkpt>
      <trkpt lat="46.04526" lon="4.76552">
        <ele>189</ele>
        <time>2017-12-09T11:28:24Z</time>
      </trkpt>
      <trkpt lat="46.04523" lon="4.76552">
        <ele>189</ele>
        <time>2017-12-09T11:28:25Z</time>
      </trkpt>
      <trkpt lat="46.04516" lon="4.76555">
        <ele>189</ele>
        <time>2017-12-09T11:28:27Z</time>
      </trkpt>
      <trkpt lat="46.04513" lon="4.76557">
        <ele>189</ele>
        <time>2017-12-09T11:28:28Z</time>
      </trkpt>
      <trkpt lat="46.04506" lon="4.76559">
        <ele>189</ele>
        <time>2017-12-09T11:28:30Z</time>
      </trkpt>
      <trkpt lat="46.04503" lon="4.7656">
        <ele>189</ele>
        <time>2017-12-09T11:28:31Z</time>
      </trkpt>
      <trkpt lat="46.04497" lon="4.7656">
        <ele>192</ele>
        <time>2017-12-09T11:28:33Z</time>
      </trkpt>
      <trkpt lat="46.04494" lon="4.7656">
        <ele>192</ele>
        <time>2017-12-09T11:28:34Z</time>
      </trkpt>
      <trkpt lat="46.04486" lon="4.76561">
        <ele>193</ele>
        <time>2017-12-09T11:28:38Z</time>
      </trkpt>
      <trkpt lat="46.04484" lon="4.76561">
        <ele>193</ele>
        <time>2017-12-09T11:28:39Z</time>
      </trkpt>
      <trkpt lat="46.04477" lon="4.76558">
        <ele>193</ele>
        <time>2017-12-09T11:28:41Z</time>
      </trkpt>
      <trkpt lat="46.04472" lon="4.76556">
        <ele>193</ele>
        <time>2017-12-09T11:28:42Z</time>
      </trkpt>
      <trkpt lat="46.04464" lon="4.76557">
        <ele>194</ele>
        <time>2017-12-09T11:28:45Z</time>
      </trkpt>
      <trkpt lat="46.04461" lon="4.76557">
        <ele>194</ele>
        <time>2017-12-09T11:28:46Z</time>
      </trkpt>
      <trkpt lat="46.04453" lon="4.76559">
        <ele>194</ele>
        <time>2017-12-09T11:28:48Z</time>
      </trkpt>
      <trkpt lat="46.04448" lon="4.76559">
        <ele>194</ele>
        <time>2017-12-09T11:28:49Z</time>
      </trkpt>
      <trkpt lat="46.04438" lon="4.7656">
        <ele>195</ele>
        <time>2017-12-09T11:28:50Z</time>
      </trkpt>
      <trkpt lat="46.04433" lon="4.76562">
        <ele>195</ele>
        <time>2017-12-09T11:28:51Z</time>
      </trkpt>
      <trkpt lat="46.04428" lon="4.76561">
        <ele>195</ele>
        <time>2017-12-09T11:28:52Z</time>
      </trkpt>
      <trkpt lat="46.04421" lon="4.76561">
        <ele>196</ele>
        <time>2017-12-09T11:28:53Z</time>
      </trkpt>
      <trkpt lat="46.04418" lon="4.76563">
        <ele>196</ele>
        <time>2017-12-09T11:28:54Z</time>
      </trkpt>
      <trkpt lat="46.0441" lon="4.76563">
        <ele>197</ele>
        <time>2017-12-09T11:28:55Z</time>
      </trkpt>
      <trkpt lat="46.04405" lon="4.76563">
        <ele>197</ele>
        <time>2017-12-09T11:28:56Z</time>
      </trkpt>
      <trkpt lat="46.04397" lon="4.76566">
        <ele>197</ele>
        <time>2017-12-09T11:28:58Z</time>
      </trkpt>
      <trkpt lat="46.04393" lon="4.76568">
        <ele>197</ele>
        <time>2017-12-09T11:28:59Z</time>
      </trkpt>
      <trkpt lat="46.04385" lon="4.7657">
        <ele>197</ele>
        <time>2017-12-09T11:29:01Z</time>
      </trkpt>
      <trkpt lat="46.04381" lon="4.7657">
        <ele>197</ele>
        <time>2017-12-09T11:29:02Z</time>
      </trkpt>
      <trkpt lat="46.04373" lon="4.76571">
        <ele>197</ele>
        <time>2017-12-09T11:29:04Z</time>
      </trkpt>
      <trkpt lat="46.0437" lon="4.76571">
        <ele>197</ele>
        <time>2017-12-09T11:29:05Z</time>
      </trkpt>
      <trkpt lat="46.04362" lon="4.76572">
        <ele>197</ele>
        <time>2017-12-09T11:29:07Z</time>
      </trkpt>
      <trkpt lat="46.04357" lon="4.76572">
        <ele>197</ele>
        <time>2017-12-09T11:29:08Z</time>
      </trkpt>
      <trkpt lat="46.04349" lon="4.76573">
        <ele>198</ele>
        <time>2017-12-09T11:29:10Z</time>
      </trkpt>
      <trkpt lat="46.04345" lon="4.76574">
        <ele>198</ele>
        <time>2017-12-09T11:29:11Z</time>
      </trkpt>
      <trkpt lat="46.04336" lon="4.76575">
        <ele>198</ele>
        <time>2017-12-09T11:29:13Z</time>
      </trkpt>
      <trkpt lat="46.04332" lon="4.76575">
        <ele>198</ele>
        <time>2017-12-09T11:29:14Z</time>
      </trkpt>
      <trkpt lat="46.04327" lon="4.76575">
        <ele>198</ele>
        <time>2017-12-09T11:29:15Z</time>
      </trkpt>
      <trkpt lat="46.04322" lon="4.76575">
        <ele>198</ele>
        <time>2017-12-09T11:29:16Z</time>
      </trkpt>
      <trkpt lat="46.04317" lon="4.76576">
        <ele>197</ele>
        <time>2017-12-09T11:29:17Z</time>
      </trkpt>
      <trkpt lat="46.04313" lon="4.76577">
        <ele>197</ele>
        <time>2017-12-09T11:29:18Z</time>
      </trkpt>
      <trkpt lat="46.04307" lon="4.7658">
        <ele>197</ele>
        <time>2017-12-09T11:29:20Z</time>
      </trkpt>
      <trkpt lat="46.04302" lon="4.7658">
        <ele>197</ele>
        <time>2017-12-09T11:29:21Z</time>
      </trkpt>
      <trkpt lat="46.04294" lon="4.7658">
        <ele>197</ele>
        <time>2017-12-09T11:29:23Z</time>
      </trkpt>
      <trkpt lat="46.0429" lon="4.76582">
        <ele>197</ele>
        <time>2017-12-09T11:29:24Z</time>
      </trkpt>
      <trkpt lat="46.04281" lon="4.76581">
        <ele>197</ele>
        <time>2017-12-09T11:29:26Z</time>
      </trkpt>
      <trkpt lat="46.04278" lon="4.76582">
        <ele>197</ele>
        <time>2017-12-09T11:29:27Z</time>
      </trkpt>
      <trkpt lat="46.04271" lon="4.76584">
        <ele>197</ele>
        <time>2017-12-09T11:29:29Z</time>
      </trkpt>
      <trkpt lat="46.04266" lon="4.76585">
        <ele>197</ele>
        <time>2017-12-09T11:29:30Z</time>
      </trkpt>
      <trkpt lat="46.04258" lon="4.76587">
        <ele>197</ele>
        <time>2017-12-09T11:29:32Z</time>
      </trkpt>
      <trkpt lat="46.04254" lon="4.76588">
        <ele>197</ele>
        <time>2017-12-09T11:29:33Z</time>
      </trkpt>
      <trkpt lat="46.04246" lon="4.76589">
        <ele>197</ele>
        <time>2017-12-09T11:29:35Z</time>
      </trkpt>
      <trkpt lat="46.04241" lon="4.7659">
        <ele>197</ele>
        <time>2017-12-09T11:29:36Z</time>
      </trkpt>
      <trkpt lat="46.04233" lon="4.76592">
        <ele>198</ele>
        <time>2017-12-09T11:29:38Z</time>
      </trkpt>
      <trkpt lat="46.04228" lon="4.76593">
        <ele>198</ele>
        <time>2017-12-09T11:29:39Z</time>
      </trkpt>
      <trkpt lat="46.04221" lon="4.76596">
        <ele>198</ele>
        <time>2017-12-09T11:29:41Z</time>
      </trkpt>
      <trkpt lat="46.04217" lon="4.76598">
        <ele>198</ele>
        <time>2017-12-09T11:29:42Z</time>
      </trkpt>
      <trkpt lat="46.0421" lon="4.76601">
        <ele>198</ele>
        <time>2017-12-09T11:29:44Z</time>
      </trkpt>
      <trkpt lat="46.04206" lon="4.76603">
        <ele>198</ele>
        <time>2017-12-09T11:29:45Z</time>
      </trkpt>
      <trkpt lat="46.04198" lon="4.76607">
        <ele>198</ele>
        <time>2017-12-09T11:29:47Z</time>
      </trkpt>
      <trkpt lat="46.04194" lon="4.7661">
        <ele>198</ele>
        <time>2017-12-09T11:29:48Z</time>
      </trkpt>
      <trkpt lat="46.04187" lon="4.76616">
        <ele>198</ele>
        <time>2017-12-09T11:29:50Z</time>
      </trkpt>
      <trkpt lat="46.04182" lon="4.76619">
        <ele>198</ele>
        <time>2017-12-09T11:29:51Z</time>
      </trkpt>
      <trkpt lat="46.04176" lon="4.7662">
        <ele>198</ele>
        <time>2017-12-09T11:29:52Z</time>
      </trkpt>
      <trkpt lat="46.04172" lon="4.76622">
        <ele>198</ele>
        <time>2017-12-09T11:29:53Z</time>
      </trkpt>
      <trkpt lat="46.04165" lon="4.76629">
        <ele>199</ele>
        <time>2017-12-09T11:29:55Z</time>
      </trkpt>
      <trkpt lat="46.04161" lon="4.76632">
        <ele>199</ele>
        <time>2017-12-09T11:29:56Z</time>
      </trkpt>
      <trkpt lat="46.04156" lon="4.76634">
        <ele>200</ele>
        <time>2017-12-09T11:29:57Z</time>
      </trkpt>
      <trkpt lat="46.04152" lon="4.76638">
        <ele>200</ele>
        <time>2017-12-09T11:29:58Z</time>
      </trkpt>
      <trkpt lat="46.04147" lon="4.76641">
        <ele>200</ele>
        <time>2017-12-09T11:29:59Z</time>
      </trkpt>
      <trkpt lat="46.04141" lon="4.76643">
        <ele>200</ele>
        <time>2017-12-09T11:30:00Z</time>
      </trkpt>
      <trkpt lat="46.04133" lon="4.76647">
        <ele>200</ele>
        <time>2017-12-09T11:30:02Z</time>
      </trkpt>
      <trkpt lat="46.0413" lon="4.76647">
        <ele>200</ele>
        <time>2017-12-09T11:30:03Z</time>
      </trkpt>
      <trkpt lat="46.04121" lon="4.76647">
        <ele>200</ele>
        <time>2017-12-09T11:30:05Z</time>
      </trkpt>
      <trkpt lat="46.04117" lon="4.76648">
        <ele>200</ele>
        <time>2017-12-09T11:30:06Z</time>
      </trkpt>
      <trkpt lat="46.04113" lon="4.76649">
        <ele>200</ele>
        <time>2017-12-09T11:30:07Z</time>
      </trkpt>
      <trkpt lat="46.04108" lon="4.7665">
        <ele>200</ele>
        <time>2017-12-09T11:30:08Z</time>
      </trkpt>
      <trkpt lat="46.04099" lon="4.76653">
        <ele>201</ele>
        <time>2017-12-09T11:30:10Z</time>
      </trkpt>
      <trkpt lat="46.04095" lon="4.76654">
        <ele>201</ele>
        <time>2017-12-09T11:30:11Z</time>
      </trkpt>
      <trkpt lat="46.04087" lon="4.76654">
        <ele>201</ele>
        <time>2017-12-09T11:30:13Z</time>
      </trkpt>
      <trkpt lat="46.04083" lon="4.76656">
        <ele>202</ele>
        <time>2017-12-09T11:30:14Z</time>
      </trkpt>
      <trkpt lat="46.04077" lon="4.76656">
        <ele>201</ele>
        <time>2017-12-09T11:30:15Z</time>
      </trkpt>
      <trkpt lat="46.04071" lon="4.76656">
        <ele>201</ele>
        <time>2017-12-09T11:30:16Z</time>
      </trkpt>
      <trkpt lat="46.04064" lon="4.76658">
        <ele>201</ele>
        <time>2017-12-09T11:30:18Z</time>
      </trkpt>
      <trkpt lat="46.04058" lon="4.76661">
        <ele>201</ele>
        <time>2017-12-09T11:30:19Z</time>
      </trkpt>
      <trkpt lat="46.04053" lon="4.76663">
        <ele>201</ele>
        <time>2017-12-09T11:30:20Z</time>
      </trkpt>
      <trkpt lat="46.04049" lon="4.76664">
        <ele>201</ele>
        <time>2017-12-09T11:30:21Z</time>
      </trkpt>
      <trkpt lat="46.04045" lon="4.76665">
        <ele>201</ele>
        <time>2017-12-09T11:30:22Z</time>
      </trkpt>
      <trkpt lat="46.04038" lon="4.76665">
        <ele>201</ele>
        <time>2017-12-09T11:30:23Z</time>
      </trkpt>
      <trkpt lat="46.04031" lon="4.76668">
        <ele>202</ele>
        <time>2017-12-09T11:30:25Z</time>
      </trkpt>
      <trkpt lat="46.04027" lon="4.76669">
        <ele>202</ele>
        <time>2017-12-09T11:30:26Z</time>
      </trkpt>
      <trkpt lat="46.04022" lon="4.76669">
        <ele>202</ele>
        <time>2017-12-09T11:30:27Z</time>
      </trkpt>
      <trkpt lat="46.04017" lon="4.76669">
        <ele>202</ele>
        <time>2017-12-09T11:30:28Z</time>
      </trkpt>
      <trkpt lat="46.04013" lon="4.76669">
        <ele>202</ele>
        <time>2017-12-09T11:30:29Z</time>
      </trkpt>
      <trkpt lat="46.04008" lon="4.7667">
        <ele>202</ele>
        <time>2017-12-09T11:30:30Z</time>
      </trkpt>
      <trkpt lat="46.04" lon="4.7667">
        <ele>202</ele>
        <time>2017-12-09T11:30:32Z</time>
      </trkpt>
      <trkpt lat="46.03995" lon="4.76672">
        <ele>202</ele>
        <time>2017-12-09T11:30:33Z</time>
      </trkpt>
      <trkpt lat="46.03986" lon="4.76673">
        <ele>203</ele>
        <time>2017-12-09T11:30:35Z</time>
      </trkpt>
      <trkpt lat="46.03982" lon="4.76673">
        <ele>203</ele>
        <time>2017-12-09T11:30:36Z</time>
      </trkpt>
      <trkpt lat="46.03974" lon="4.76676">
        <ele>203</ele>
        <time>2017-12-09T11:30:38Z</time>
      </trkpt>
      <trkpt lat="46.03968" lon="4.76677">
        <ele>203</ele>
        <time>2017-12-09T11:30:39Z</time>
      </trkpt>
      <trkpt lat="46.0396" lon="4.76678">
        <ele>203</ele>
        <time>2017-12-09T11:30:41Z</time>
      </trkpt>
      <trkpt lat="46.03953" lon="4.76678">
        <ele>204</ele>
        <time>2017-12-09T11:30:42Z</time>
      </trkpt>
      <trkpt lat="46.03948" lon="4.76679">
        <ele>204</ele>
        <time>2017-12-09T11:30:43Z</time>
      </trkpt>
      <trkpt lat="46.03943" lon="4.76682">
        <ele>204</ele>
        <time>2017-12-09T11:30:44Z</time>
      </trkpt>
      <trkpt lat="46.03938" lon="4.76683">
        <ele>204</ele>
        <time>2017-12-09T11:30:45Z</time>
      </trkpt>
      <trkpt lat="46.03933" lon="4.76685">
        <ele>204</ele>
        <time>2017-12-09T11:30:46Z</time>
      </trkpt>
      <trkpt lat="46.03927" lon="4.76684">
        <ele>204</ele>
        <time>2017-12-09T11:30:47Z</time>
      </trkpt>
      <trkpt lat="46.03923" lon="4.76685">
        <ele>204</ele>
        <time>2017-12-09T11:30:48Z</time>
      </trkpt>
      <trkpt lat="46.03916" lon="4.76688">
        <ele>205</ele>
        <time>2017-12-09T11:30:50Z</time>
      </trkpt>
      <trkpt lat="46.03912" lon="4.76689">
        <ele>205</ele>
        <time>2017-12-09T11:30:51Z</time>
      </trkpt>
      <trkpt lat="46.03904" lon="4.76691">
        <ele>205</ele>
        <time>2017-12-09T11:30:53Z</time>
      </trkpt>
      <trkpt lat="46.039" lon="4.76693">
        <ele>205</ele>
        <time>2017-12-09T11:30:54Z</time>
      </trkpt>
      <trkpt lat="46.03896" lon="4.76694">
        <ele>205</ele>
        <time>2017-12-09T11:30:55Z</time>
      </trkpt>
      <trkpt lat="46.03891" lon="4.76696">
        <ele>205</ele>
        <time>2017-12-09T11:30:56Z</time>
      </trkpt>
      <trkpt lat="46.03886" lon="4.76697">
        <ele>205</ele>
        <time>2017-12-09T11:30:57Z</time>
      </trkpt>
      <trkpt lat="46.03882" lon="4.76699">
        <ele>205</ele>
        <time>2017-12-09T11:30:58Z</time>
      </trkpt>
      <trkpt lat="46.03874" lon="4.76701">
        <ele>205</ele>
        <time>2017-12-09T11:31:00Z</time>
      </trkpt>
      <trkpt lat="46.03869" lon="4.76704">
        <ele>205</ele>
        <time>2017-12-09T11:31:01Z</time>
      </trkpt>
      <trkpt lat="46.03865" lon="4.76704">
        <ele>205</ele>
        <time>2017-12-09T11:31:02Z</time>
      </trkpt>
      <trkpt lat="46.0386" lon="4.76705">
        <ele>205</ele>
        <time>2017-12-09T11:31:03Z</time>
      </trkpt>
      <trkpt lat="46.03855" lon="4.76707">
        <ele>205</ele>
        <time>2017-12-09T11:31:04Z</time>
      </trkpt>
      <trkpt lat="46.0385" lon="4.7671">
        <ele>205</ele>
        <time>2017-12-09T11:31:05Z</time>
      </trkpt>
      <trkpt lat="46.03845" lon="4.76711">
        <ele>205</ele>
        <time>2017-12-09T11:31:06Z</time>
      </trkpt>
      <trkpt lat="46.0384" lon="4.76711">
        <ele>205</ele>
        <time>2017-12-09T11:31:07Z</time>
      </trkpt>
      <trkpt lat="46.03834" lon="4.76711">
        <ele>205</ele>
        <time>2017-12-09T11:31:08Z</time>
      </trkpt>
      <trkpt lat="46.03829" lon="4.76711">
        <ele>205</ele>
        <time>2017-12-09T11:31:09Z</time>
      </trkpt>
      <trkpt lat="46.0382" lon="4.76711">
        <ele>205</ele>
        <time>2017-12-09T11:31:11Z</time>
      </trkpt>
      <trkpt lat="46.03816" lon="4.76711">
        <ele>205</ele>
        <time>2017-12-09T11:31:12Z</time>
      </trkpt>
      <trkpt lat="46.03807" lon="4.76711">
        <ele>205</ele>
        <time>2017-12-09T11:31:14Z</time>
      </trkpt>
      <trkpt lat="46.03802" lon="4.76712">
        <ele>205</ele>
        <time>2017-12-09T11:31:15Z</time>
      </trkpt>
      <trkpt lat="46.03797" lon="4.76711">
        <ele>205</ele>
        <time>2017-12-09T11:31:16Z</time>
      </trkpt>
      <trkpt lat="46.03793" lon="4.76712">
        <ele>205</ele>
        <time>2017-12-09T11:31:17Z</time>
      </trkpt>
      <trkpt lat="46.03788" lon="4.76712">
        <ele>205</ele>
        <time>2017-12-09T11:31:18Z</time>
      </trkpt>
      <trkpt lat="46.03783" lon="4.76712">
        <ele>205</ele>
        <time>2017-12-09T11:31:19Z</time>
      </trkpt>
      <trkpt lat="46.03778" lon="4.76711">
        <ele>205</ele>
        <time>2017-12-09T11:31:20Z</time>
      </trkpt>
      <trkpt lat="46.03772" lon="4.7671">
        <ele>205</ele>
        <time>2017-12-09T11:31:21Z</time>
      </trkpt>
      <trkpt lat="46.03763" lon="4.76709">
        <ele>205</ele>
        <time>2017-12-09T11:31:23Z</time>
      </trkpt>
      <trkpt lat="46.03758" lon="4.76708">
        <ele>205</ele>
        <time>2017-12-09T11:31:24Z</time>
      </trkpt>
      <trkpt lat="46.03752" lon="4.76708">
        <ele>205</ele>
        <time>2017-12-09T11:31:25Z</time>
      </trkpt>
      <trkpt lat="46.03747" lon="4.76705">
        <ele>205</ele>
        <time>2017-12-09T11:31:26Z</time>
      </trkpt>
      <trkpt lat="46.03743" lon="4.76704">
        <ele>205</ele>
        <time>2017-12-09T11:31:27Z</time>
      </trkpt>
      <trkpt lat="46.03736" lon="4.76703">
        <ele>205</ele>
        <time>2017-12-09T11:31:28Z</time>
      </trkpt>
      <trkpt lat="46.03731" lon="4.76702">
        <ele>205</ele>
        <time>2017-12-09T11:31:29Z</time>
      </trkpt>
      <trkpt lat="46.03726" lon="4.76699">
        <ele>205</ele>
        <time>2017-12-09T11:31:30Z</time>
      </trkpt>
      <trkpt lat="46.03719" lon="4.76697">
        <ele>205</ele>
        <time>2017-12-09T11:31:31Z</time>
      </trkpt>
      <trkpt lat="46.03713" lon="4.76695">
        <ele>205</ele>
        <time>2017-12-09T11:31:32Z</time>
      </trkpt>
      <trkpt lat="46.03707" lon="4.76692">
        <ele>205</ele>
        <time>2017-12-09T11:31:33Z</time>
      </trkpt>
      <trkpt lat="46.03703" lon="4.76688">
        <ele>205</ele>
        <time>2017-12-09T11:31:34Z</time>
      </trkpt>
      <trkpt lat="46.03696" lon="4.76681">
        <ele>205</ele>
        <time>2017-12-09T11:31:35Z</time>
      </trkpt>
      <trkpt lat="46.03692" lon="4.76677">
        <ele>205</ele>
        <time>2017-12-09T11:31:36Z</time>
      </trkpt>
      <trkpt lat="46.03689" lon="4.7667">
        <ele>205</ele>
        <time>2017-12-09T11:31:37Z</time>
      </trkpt>
      <trkpt lat="46.03683" lon="4.76664">
        <ele>204</ele>
        <time>2017-12-09T11:31:38Z</time>
      </trkpt>
      <trkpt lat="46.03679" lon="4.76653">
        <ele>204</ele>
        <time>2017-12-09T11:31:40Z</time>
      </trkpt>
      <trkpt lat="46.03681" lon="4.76645">
        <ele>204</ele>
        <time>2017-12-09T11:31:41Z</time>
      </trkpt>
      <trkpt lat="46.0368" lon="4.76639">
        <ele>204</ele>
        <time>2017-12-09T11:31:42Z</time>
      </trkpt>
      <trkpt lat="46.03679" lon="4.76632">
        <ele>203</ele>
        <time>2017-12-09T11:31:43Z</time>
      </trkpt>
      <trkpt lat="46.03679" lon="4.76626">
        <ele>203</ele>
        <time>2017-12-09T11:31:44Z</time>
      </trkpt>
      <trkpt lat="46.03678" lon="4.76617">
        <ele>203</ele>
        <time>2017-12-09T11:31:45Z</time>
      </trkpt>
      <trkpt lat="46.03676" lon="4.76609">
        <ele>203</ele>
        <time>2017-12-09T11:31:46Z</time>
      </trkpt>
      <trkpt lat="46.03671" lon="4.76604">
        <ele>203</ele>
        <time>2017-12-09T11:31:47Z</time>
      </trkpt>
      <trkpt lat="46.03666" lon="4.76598">
        <ele>202</ele>
        <time>2017-12-09T11:31:48Z</time>
      </trkpt>
      <trkpt lat="46.0366" lon="4.76592">
        <ele>202</ele>
        <time>2017-12-09T11:31:49Z</time>
      </trkpt>
      <trkpt lat="46.03653" lon="4.76585">
        <ele>202</ele>
        <time>2017-12-09T11:31:50Z</time>
      </trkpt>
      <trkpt lat="46.03649" lon="4.76578">
        <ele>201</ele>
        <time>2017-12-09T11:31:51Z</time>
      </trkpt>
      <trkpt lat="46.03645" lon="4.7657">
        <ele>201</ele>
        <time>2017-12-09T11:31:52Z</time>
      </trkpt>
      <trkpt lat="46.03641" lon="4.76562">
        <ele>201</ele>
        <time>2017-12-09T11:31:53Z</time>
      </trkpt>
      <trkpt lat="46.03638" lon="4.76553">
        <ele>200</ele>
        <time>2017-12-09T11:31:54Z</time>
      </trkpt>
      <trkpt lat="46.03635" lon="4.76544">
        <ele>200</ele>
        <time>2017-12-09T11:31:55Z</time>
      </trkpt>
      <trkpt lat="46.03632" lon="4.76535">
        <ele>200</ele>
        <time>2017-12-09T11:31:56Z</time>
      </trkpt>
      <trkpt lat="46.03629" lon="4.76527">
        <ele>200</ele>
        <time>2017-12-09T11:31:57Z</time>
      </trkpt>
      <trkpt lat="46.03625" lon="4.76519">
        <ele>200</ele>
        <time>2017-12-09T11:31:58Z</time>
      </trkpt>
      <trkpt lat="46.0362" lon="4.76513">
        <ele>200</ele>
        <time>2017-12-09T11:31:59Z</time>
      </trkpt>
      <trkpt lat="46.03615" lon="4.76506">
        <ele>200</ele>
        <time>2017-12-09T11:32:00Z</time>
      </trkpt>
      <trkpt lat="46.0361" lon="4.765">
        <ele>199</ele>
        <time>2017-12-09T11:32:01Z</time>
      </trkpt>
      <trkpt lat="46.03606" lon="4.76493">
        <ele>199</ele>
        <time>2017-12-09T11:32:02Z</time>
      </trkpt>
      <trkpt lat="46.03601" lon="4.76487">
        <ele>199</ele>
        <time>2017-12-09T11:32:03Z</time>
      </trkpt>
      <trkpt lat="46.03597" lon="4.76478">
        <ele>199</ele>
        <time>2017-12-09T11:32:04Z</time>
      </trkpt>
      <trkpt lat="46.03596" lon="4.76469">
        <ele>199</ele>
        <time>2017-12-09T11:32:05Z</time>
      </trkpt>
      <trkpt lat="46.03595" lon="4.76461">
        <ele>199</ele>
        <time>2017-12-09T11:32:06Z</time>
      </trkpt>
      <trkpt lat="46.03594" lon="4.76452">
        <ele>199</ele>
        <time>2017-12-09T11:32:07Z</time>
      </trkpt>
      <trkpt lat="46.03596" lon="4.76445">
        <ele>199</ele>
        <time>2017-12-09T11:32:08Z</time>
      </trkpt>
      <trkpt lat="46.03597" lon="4.76437">
        <ele>199</ele>
        <time>2017-12-09T11:32:09Z</time>
      </trkpt>
      <trkpt lat="46.03597" lon="4.76429">
        <ele>199</ele>
        <time>2017-12-09T11:32:10Z</time>
      </trkpt>
      <trkpt lat="46.03598" lon="4.76422">
        <ele>199</ele>
        <time>2017-12-09T11:32:11Z</time>
      </trkpt>
      <trkpt lat="46.03599" lon="4.76414">
        <ele>198</ele>
        <time>2017-12-09T11:32:12Z</time>
      </trkpt>
      <trkpt lat="46.036" lon="4.76406">
        <ele>198</ele>
        <time>2017-12-09T11:32:13Z</time>
      </trkpt>
      <trkpt lat="46.03599" lon="4.76398">
        <ele>198</ele>
        <time>2017-12-09T11:32:14Z</time>
      </trkpt>
      <trkpt lat="46.03599" lon="4.76389">
        <ele>197</ele>
        <time>2017-12-09T11:32:15Z</time>
      </trkpt>
      <trkpt lat="46.03601" lon="4.76379">
        <ele>197</ele>
        <time>2017-12-09T11:32:16Z</time>
      </trkpt>
      <trkpt lat="46.03601" lon="4.76369">
        <ele>197</ele>
        <time>2017-12-09T11:32:17Z</time>
      </trkpt>
      <trkpt lat="46.03602" lon="4.76361">
        <ele>196</ele>
        <time>2017-12-09T11:32:18Z</time>
      </trkpt>
      <trkpt lat="46.03607" lon="4.76347">
        <ele>196</ele>
        <time>2017-12-09T11:32:19Z</time>
      </trkpt>
      <trkpt lat="46.03608" lon="4.76338">
        <ele>196</ele>
        <time>2017-12-09T11:32:20Z</time>
      </trkpt>
      <trkpt lat="46.03608" lon="4.76329">
        <ele>195</ele>
        <time>2017-12-09T11:32:21Z</time>
      </trkpt>
      <trkpt lat="46.03609" lon="4.76321">
        <ele>195</ele>
        <time>2017-12-09T11:32:22Z</time>
      </trkpt>
      <trkpt lat="46.0361" lon="4.76313">
        <ele>195</ele>
        <time>2017-12-09T11:32:23Z</time>
      </trkpt>
      <trkpt lat="46.03611" lon="4.76304">
        <ele>195</ele>
        <time>2017-12-09T11:32:24Z</time>
      </trkpt>
      <trkpt lat="46.03611" lon="4.76296">
        <ele>195</ele>
        <time>2017-12-09T11:32:25Z</time>
      </trkpt>
      <trkpt lat="46.03613" lon="4.76287">
        <ele>194</ele>
        <time>2017-12-09T11:32:26Z</time>
      </trkpt>
      <trkpt lat="46.03615" lon="4.76278">
        <ele>194</ele>
        <time>2017-12-09T11:32:27Z</time>
      </trkpt>
      <trkpt lat="46.03617" lon="4.76269">
        <ele>194</ele>
        <time>2017-12-09T11:32:28Z</time>
      </trkpt>
      <trkpt lat="46.03618" lon="4.76259">
        <ele>194</ele>
        <time>2017-12-09T11:32:29Z</time>
      </trkpt>
      <trkpt lat="46.03618" lon="4.7625">
        <ele>193</ele>
        <time>2017-12-09T11:32:30Z</time>
      </trkpt>
      <trkpt lat="46.0362" lon="4.76241">
        <ele>193</ele>
        <time>2017-12-09T11:32:31Z</time>
      </trkpt>
      <trkpt lat="46.03621" lon="4.76231">
        <ele>193</ele>
        <time>2017-12-09T11:32:32Z</time>
      </trkpt>
      <trkpt lat="46.03622" lon="4.76223">
        <ele>193</ele>
        <time>2017-12-09T11:32:33Z</time>
      </trkpt>
      <trkpt lat="46.03624" lon="4.76214">
        <ele>193</ele>
        <time>2017-12-09T11:32:34Z</time>
      </trkpt>
      <trkpt lat="46.03626" lon="4.76205">
        <ele>193</ele>
        <time>2017-12-09T11:32:35Z</time>
      </trkpt>
      <trkpt lat="46.03627" lon="4.76196">
        <ele>193</ele>
        <time>2017-12-09T11:32:36Z</time>
      </trkpt>
      <trkpt lat="46.03629" lon="4.76187">
        <ele>193</ele>
        <time>2017-12-09T11:32:37Z</time>
      </trkpt>
      <trkpt lat="46.03629" lon="4.76179">
        <ele>193</ele>
        <time>2017-12-09T11:32:38Z</time>
      </trkpt>
      <trkpt lat="46.0363" lon="4.76172">
        <ele>192</ele>
        <time>2017-12-09T11:32:39Z</time>
      </trkpt>
      <trkpt lat="46.0363" lon="4.76164">
        <ele>192</ele>
        <time>2017-12-09T11:32:40Z</time>
      </trkpt>
      <trkpt lat="46.0363" lon="4.76157">
        <ele>192</ele>
        <time>2017-12-09T11:32:41Z</time>
      </trkpt>
      <trkpt lat="46.0363" lon="4.7615">
        <ele>192</ele>
        <time>2017-12-09T11:32:42Z</time>
      </trkpt>
      <trkpt lat="46.03631" lon="4.76143">
        <ele>192</ele>
        <time>2017-12-09T11:32:43Z</time>
      </trkpt>
      <trkpt lat="46.03632" lon="4.76134">
        <ele>192</ele>
        <time>2017-12-09T11:32:44Z</time>
      </trkpt>
      <trkpt lat="46.03632" lon="4.76125">
        <ele>192</ele>
        <time>2017-12-09T11:32:45Z</time>
      </trkpt>
      <trkpt lat="46.03632" lon="4.76117">
        <ele>192</ele>
        <time>2017-12-09T11:32:46Z</time>
      </trkpt>
      <trkpt lat="46.03632" lon="4.76109">
        <ele>192</ele>
        <time>2017-12-09T11:32:47Z</time>
      </trkpt>
      <trkpt lat="46.03631" lon="4.76101">
        <ele>192</ele>
        <time>2017-12-09T11:32:48Z</time>
      </trkpt>
      <trkpt lat="46.0363" lon="4.76094">
        <ele>192</ele>
        <time>2017-12-09T11:32:49Z</time>
      </trkpt>
      <trkpt lat="46.03629" lon="4.76086">
        <ele>192</ele>
        <time>2017-12-09T11:32:50Z</time>
      </trkpt>
      <trkpt lat="46.03627" lon="4.76079">
        <ele>191</ele>
        <time>2017-12-09T11:32:51Z</time>
      </trkpt>
      <trkpt lat="46.03625" lon="4.76072">
        <ele>191</ele>
        <time>2017-12-09T11:32:52Z</time>
      </trkpt>
      <trkpt lat="46.03623" lon="4.76065">
        <ele>191</ele>
        <time>2017-12-09T11:32:53Z</time>
      </trkpt>
      <trkpt lat="46.03622" lon="4.76057">
        <ele>191</ele>
        <time>2017-12-09T11:32:54Z</time>
      </trkpt>
      <trkpt lat="46.0362" lon="4.76049">
        <ele>191</ele>
        <time>2017-12-09T11:32:55Z</time>
      </trkpt>
      <trkpt lat="46.03617" lon="4.76042">
        <ele>191</ele>
        <time>2017-12-09T11:32:56Z</time>
      </trkpt>
      <trkpt lat="46.03615" lon="4.76034">
        <ele>191</ele>
        <time>2017-12-09T11:32:57Z</time>
      </trkpt>
      <trkpt lat="46.03612" lon="4.76026">
        <ele>191</ele>
        <time>2017-12-09T11:32:58Z</time>
      </trkpt>
      <trkpt lat="46.03609" lon="4.76019">
        <ele>191</ele>
        <time>2017-12-09T11:32:59Z</time>
      </trkpt>
      <trkpt lat="46.03606" lon="4.76011">
        <ele>191</ele>
        <time>2017-12-09T11:33:00Z</time>
      </trkpt>
      <trkpt lat="46.03603" lon="4.76005">
        <ele>191</ele>
        <time>2017-12-09T11:33:01Z</time>
      </trkpt>
      <trkpt lat="46.036" lon="4.75997">
        <ele>190</ele>
        <time>2017-12-09T11:33:02Z</time>
      </trkpt>
      <trkpt lat="46.03597" lon="4.7599">
        <ele>190</ele>
        <time>2017-12-09T11:33:03Z</time>
      </trkpt>
      <trkpt lat="46.03594" lon="4.75984">
        <ele>190</ele>
        <time>2017-12-09T11:33:04Z</time>
      </trkpt>
      <trkpt lat="46.0359" lon="4.75977">
        <ele>190</ele>
        <time>2017-12-09T11:33:05Z</time>
      </trkpt>
      <trkpt lat="46.03587" lon="4.7597">
        <ele>190</ele>
        <time>2017-12-09T11:33:06Z</time>
      </trkpt>
      <trkpt lat="46.03584" lon="4.75962">
        <ele>190</ele>
        <time>2017-12-09T11:33:07Z</time>
      </trkpt>
      <trkpt lat="46.03584" lon="4.75953">
        <ele>190</ele>
        <time>2017-12-09T11:33:08Z</time>
      </trkpt>
      <trkpt lat="46.03581" lon="4.75946">
        <ele>190</ele>
        <time>2017-12-09T11:33:09Z</time>
      </trkpt>
      <trkpt lat="46.03577" lon="4.75938">
        <ele>190</ele>
        <time>2017-12-09T11:33:10Z</time>
      </trkpt>
      <trkpt lat="46.03574" lon="4.75931">
        <ele>190</ele>
        <time>2017-12-09T11:33:11Z</time>
      </trkpt>
      <trkpt lat="46.03571" lon="4.75923">
        <ele>189</ele>
        <time>2017-12-09T11:33:12Z</time>
      </trkpt>
      <trkpt lat="46.03568" lon="4.75917">
        <ele>189</ele>
        <time>2017-12-09T11:33:13Z</time>
      </trkpt>
      <trkpt lat="46.03565" lon="4.7591">
        <ele>189</ele>
        <time>2017-12-09T11:33:14Z</time>
      </trkpt>
      <trkpt lat="46.03562" lon="4.75902">
        <ele>189</ele>
        <time>2017-12-09T11:33:15Z</time>
      </trkpt>
      <trkpt lat="46.03559" lon="4.75895">
        <ele>189</ele>
        <time>2017-12-09T11:33:16Z</time>
      </trkpt>
      <trkpt lat="46.03556" lon="4.75888">
        <ele>189</ele>
        <time>2017-12-09T11:33:17Z</time>
      </trkpt>
      <trkpt lat="46.03552" lon="4.75881">
        <ele>189</ele>
        <time>2017-12-09T11:33:18Z</time>
      </trkpt>
      <trkpt lat="46.03549" lon="4.75875">
        <ele>189</ele>
        <time>2017-12-09T11:33:19Z</time>
      </trkpt>
      <trkpt lat="46.03546" lon="4.75868">
        <ele>189</ele>
        <time>2017-12-09T11:33:20Z</time>
      </trkpt>
      <trkpt lat="46.03542" lon="4.75862">
        <ele>189</ele>
        <time>2017-12-09T11:33:21Z</time>
      </trkpt>
      <trkpt lat="46.03539" lon="4.75856">
        <ele>190</ele>
        <time>2017-12-09T11:33:22Z</time>
      </trkpt>
      <trkpt lat="46.03536" lon="4.75849">
        <ele>190</ele>
        <time>2017-12-09T11:33:23Z</time>
      </trkpt>
      <trkpt lat="46.03532" lon="4.75843">
        <ele>190</ele>
        <time>2017-12-09T11:33:24Z</time>
      </trkpt>
      <trkpt lat="46.0353" lon="4.75836">
        <ele>190</ele>
        <time>2017-12-09T11:33:25Z</time>
      </trkpt>
      <trkpt lat="46.03527" lon="4.75828">
        <ele>189</ele>
        <time>2017-12-09T11:33:26Z</time>
      </trkpt>
      <trkpt lat="46.03523" lon="4.75821">
        <ele>189</ele>
        <time>2017-12-09T11:33:27Z</time>
      </trkpt>
      <trkpt lat="46.03519" lon="4.75814">
        <ele>189</ele>
        <time>2017-12-09T11:33:28Z</time>
      </trkpt>
      <trkpt lat="46.03516" lon="4.75806">
        <ele>189</ele>
        <time>2017-12-09T11:33:29Z</time>
      </trkpt>
      <trkpt lat="46.03513" lon="4.75799">
        <ele>189</ele>
        <time>2017-12-09T11:33:30Z</time>
      </trkpt>
      <trkpt lat="46.03509" lon="4.75791">
        <ele>189</ele>
        <time>2017-12-09T11:33:31Z</time>
      </trkpt>
      <trkpt lat="46.03506" lon="4.75784">
        <ele>189</ele>
        <time>2017-12-09T11:33:32Z</time>
      </trkpt>
      <trkpt lat="46.03502" lon="4.75777">
        <ele>189</ele>
        <time>2017-12-09T11:33:33Z</time>
      </trkpt>
      <trkpt lat="46.03499" lon="4.75769">
        <ele>189</ele>
        <time>2017-12-09T11:33:34Z</time>
      </trkpt>
      <trkpt lat="46.03495" lon="4.75763">
        <ele>189</ele>
        <time>2017-12-09T11:33:35Z</time>
      </trkpt>
      <trkpt lat="46.03492" lon="4.75755">
        <ele>189</ele>
        <time>2017-12-09T11:33:36Z</time>
      </trkpt>
      <trkpt lat="46.03491" lon="4.75748">
        <ele>189</ele>
        <time>2017-12-09T11:33:37Z</time>
      </trkpt>
      <trkpt lat="46.03489" lon="4.75742">
        <ele>189</ele>
        <time>2017-12-09T11:33:38Z</time>
      </trkpt>
      <trkpt lat="46.03485" lon="4.75737">
        <ele>189</ele>
        <time>2017-12-09T11:33:39Z</time>
      </trkpt>
      <trkpt lat="46.03483" lon="4.7573">
        <ele>189</ele>
        <time>2017-12-09T11:33:40Z</time>
      </trkpt>
      <trkpt lat="46.0348" lon="4.75724">
        <ele>189</ele>
        <time>2017-12-09T11:33:41Z</time>
      </trkpt>
      <trkpt lat="46.03477" lon="4.75719">
        <ele>189</ele>
        <time>2017-12-09T11:33:42Z</time>
      </trkpt>
      <trkpt lat="46.03474" lon="4.75713">
        <ele>189</ele>
        <time>2017-12-09T11:33:43Z</time>
      </trkpt>
      <trkpt lat="46.03471" lon="4.75709">
        <ele>189</ele>
        <time>2017-12-09T11:33:44Z</time>
      </trkpt>
      <trkpt lat="46.03468" lon="4.75702">
        <ele>189</ele>
        <time>2017-12-09T11:33:45Z</time>
      </trkpt>
      <trkpt lat="46.03464" lon="4.75694">
        <ele>189</ele>
        <time>2017-12-09T11:33:46Z</time>
      </trkpt>
      <trkpt lat="46.03459" lon="4.75686">
        <ele>189</ele>
        <time>2017-12-09T11:33:47Z</time>
      </trkpt>
      <trkpt lat="46.03457" lon="4.75679">
        <ele>189</ele>
        <time>2017-12-09T11:33:48Z</time>
      </trkpt>
      <trkpt lat="46.03455" lon="4.75672">
        <ele>189</ele>
        <time>2017-12-09T11:33:49Z</time>
      </trkpt>
      <trkpt lat="46.03452" lon="4.75666">
        <ele>188</ele>
        <time>2017-12-09T11:33:50Z</time>
      </trkpt>
      <trkpt lat="46.03449" lon="4.7566">
        <ele>188</ele>
        <time>2017-12-09T11:33:51Z</time>
      </trkpt>
      <trkpt lat="46.03446" lon="4.7565">
        <ele>188</ele>
        <time>2017-12-09T11:33:53Z</time>
      </trkpt>
      <trkpt lat="46.03444" lon="4.75646">
        <ele>188</ele>
        <time>2017-12-09T11:33:54Z</time>
      </trkpt>
      <trkpt lat="46.03447" lon="4.75634">
        <ele>188</ele>
        <time>2017-12-09T11:34:04Z</time>
      </trkpt>
      <trkpt lat="46.03448" lon="4.75632">
        <ele>188</ele>
        <time>2017-12-09T11:34:05Z</time>
      </trkpt>
      <trkpt lat="46.03442" lon="4.75623">
        <ele>188</ele>
        <time>2017-12-09T11:34:09Z</time>
      </trkpt>
      <trkpt lat="46.03439" lon="4.75622">
        <ele>188</ele>
        <time>2017-12-09T11:34:10Z</time>
      </trkpt>
      <trkpt lat="46.03432" lon="4.75624">
        <ele>188</ele>
        <time>2017-12-09T11:34:12Z</time>
      </trkpt>
      <trkpt lat="46.03428" lon="4.75625">
        <ele>188</ele>
        <time>2017-12-09T11:34:13Z</time>
      </trkpt>
      <trkpt lat="46.03423" lon="4.75626">
        <ele>188</ele>
        <time>2017-12-09T11:34:14Z</time>
      </trkpt>
      <trkpt lat="46.03419" lon="4.75627">
        <ele>188</ele>
        <time>2017-12-09T11:34:15Z</time>
      </trkpt>
      <trkpt lat="46.03414" lon="4.75627">
        <ele>188</ele>
        <time>2017-12-09T11:34:16Z</time>
      </trkpt>
      <trkpt lat="46.0341" lon="4.75628">
        <ele>188</ele>
        <time>2017-12-09T11:34:17Z</time>
      </trkpt>
      <trkpt lat="46.03401" lon="4.7563">
        <ele>188</ele>
        <time>2017-12-09T11:34:19Z</time>
      </trkpt>
      <trkpt lat="46.03396" lon="4.75631">
        <ele>188</ele>
        <time>2017-12-09T11:34:20Z</time>
      </trkpt>
      <trkpt lat="46.03388" lon="4.75633">
        <ele>188</ele>
        <time>2017-12-09T11:34:22Z</time>
      </trkpt>
      <trkpt lat="46.03383" lon="4.75634">
        <ele>188</ele>
        <time>2017-12-09T11:34:23Z</time>
      </trkpt>
      <trkpt lat="46.03377" lon="4.75634">
        <ele>188</ele>
        <time>2017-12-09T11:34:24Z</time>
      </trkpt>
      <trkpt lat="46.03369" lon="4.75634">
        <ele>188</ele>
        <time>2017-12-09T11:34:25Z</time>
      </trkpt>
      <trkpt lat="46.03363" lon="4.75634">
        <ele>188</ele>
        <time>2017-12-09T11:34:26Z</time>
      </trkpt>
      <trkpt lat="46.03357" lon="4.75635">
        <ele>188</ele>
        <time>2017-12-09T11:34:27Z</time>
      </trkpt>
      <trkpt lat="46.0335" lon="4.75634">
        <ele>188</ele>
        <time>2017-12-09T11:34:28Z</time>
      </trkpt>
      <trkpt lat="46.03343" lon="4.75634">
        <ele>188</ele>
        <time>2017-12-09T11:34:29Z</time>
      </trkpt>
      <trkpt lat="46.03338" lon="4.75635">
        <ele>188</ele>
        <time>2017-12-09T11:34:30Z</time>
      </trkpt>
      <trkpt lat="46.03333" lon="4.75633">
        <ele>189</ele>
        <time>2017-12-09T11:34:31Z</time>
      </trkpt>
      <trkpt lat="46.03328" lon="4.75633">
        <ele>189</ele>
        <time>2017-12-09T11:34:32Z</time>
      </trkpt>
      <trkpt lat="46.03323" lon="4.75631">
        <ele>189</ele>
        <time>2017-12-09T11:34:33Z</time>
      </trkpt>
      <trkpt lat="46.03318" lon="4.75631">
        <ele>189</ele>
        <time>2017-12-09T11:34:34Z</time>
      </trkpt>
      <trkpt lat="46.03313" lon="4.7563">
        <ele>189</ele>
        <time>2017-12-09T11:34:35Z</time>
      </trkpt>
      <trkpt lat="46.03308" lon="4.7563">
        <ele>189</ele>
        <time>2017-12-09T11:34:36Z</time>
      </trkpt>
      <trkpt lat="46.03304" lon="4.75631">
        <ele>189</ele>
        <time>2017-12-09T11:34:37Z</time>
      </trkpt>
      <trkpt lat="46.03298" lon="4.75635">
        <ele>189</ele>
        <time>2017-12-09T11:34:38Z</time>
      </trkpt>
      <trkpt lat="46.03293" lon="4.7564">
        <ele>190</ele>
        <time>2017-12-09T11:34:39Z</time>
      </trkpt>
      <trkpt lat="46.03289" lon="4.75645">
        <ele>190</ele>
        <time>2017-12-09T11:34:40Z</time>
      </trkpt>
      <trkpt lat="46.03284" lon="4.7565">
        <ele>190</ele>
        <time>2017-12-09T11:34:41Z</time>
      </trkpt>
      <trkpt lat="46.03279" lon="4.75655">
        <ele>191</ele>
        <time>2017-12-09T11:34:42Z</time>
      </trkpt>
      <trkpt lat="46.03273" lon="4.75656">
        <ele>191</ele>
        <time>2017-12-09T11:34:43Z</time>
      </trkpt>
      <trkpt lat="46.03267" lon="4.75657">
        <ele>192</ele>
        <time>2017-12-09T11:34:44Z</time>
      </trkpt>
      <trkpt lat="46.03263" lon="4.7566">
        <ele>192</ele>
        <time>2017-12-09T11:34:45Z</time>
      </trkpt>
      <trkpt lat="46.03257" lon="4.75663">
        <ele>193</ele>
        <time>2017-12-09T11:34:46Z</time>
      </trkpt>
      <trkpt lat="46.03251" lon="4.75663">
        <ele>194</ele>
        <time>2017-12-09T11:34:47Z</time>
      </trkpt>
      <trkpt lat="46.03246" lon="4.75664">
        <ele>194</ele>
        <time>2017-12-09T11:34:48Z</time>
      </trkpt>
      <trkpt lat="46.0324" lon="4.75665">
        <ele>193</ele>
        <time>2017-12-09T11:34:49Z</time>
      </trkpt>
      <trkpt lat="46.03234" lon="4.75666">
        <ele>192</ele>
        <time>2017-12-09T11:34:50Z</time>
      </trkpt>
      <trkpt lat="46.03228" lon="4.75667">
        <ele>191</ele>
        <time>2017-12-09T11:34:51Z</time>
      </trkpt>
      <trkpt lat="46.03222" lon="4.75672">
        <ele>194</ele>
        <time>2017-12-09T11:34:53Z</time>
      </trkpt>
      <trkpt lat="46.03217" lon="4.7567">
        <ele>193</ele>
        <time>2017-12-09T11:34:54Z</time>
      </trkpt>
      <trkpt lat="46.03209" lon="4.75668">
        <ele>193</ele>
        <time>2017-12-09T11:34:55Z</time>
      </trkpt>
      <trkpt lat="46.03203" lon="4.75667">
        <ele>192</ele>
        <time>2017-12-09T11:34:56Z</time>
      </trkpt>
      <trkpt lat="46.03197" lon="4.75667">
        <ele>192</ele>
        <time>2017-12-09T11:34:57Z</time>
      </trkpt>
      <trkpt lat="46.03192" lon="4.75669">
        <ele>192</ele>
        <time>2017-12-09T11:34:58Z</time>
      </trkpt>
      <trkpt lat="46.03188" lon="4.75673">
        <ele>191</ele>
        <time>2017-12-09T11:34:59Z</time>
      </trkpt>
      <trkpt lat="46.03182" lon="4.75673">
        <ele>191</ele>
        <time>2017-12-09T11:35:00Z</time>
      </trkpt>
      <trkpt lat="46.03175" lon="4.75673">
        <ele>190</ele>
        <time>2017-12-09T11:35:01Z</time>
      </trkpt>
      <trkpt lat="46.03169" lon="4.75672">
        <ele>189</ele>
        <time>2017-12-09T11:35:02Z</time>
      </trkpt>
      <trkpt lat="46.03163" lon="4.75674">
        <ele>188</ele>
        <time>2017-12-09T11:35:03Z</time>
      </trkpt>
      <trkpt lat="46.03156" lon="4.75676">
        <ele>188</ele>
        <time>2017-12-09T11:35:04Z</time>
      </trkpt>
      <trkpt lat="46.03149" lon="4.75678">
        <ele>187</ele>
        <time>2017-12-09T11:35:05Z</time>
      </trkpt>
      <trkpt lat="46.03142" lon="4.75679">
        <ele>187</ele>
        <time>2017-12-09T11:35:06Z</time>
      </trkpt>
      <trkpt lat="46.03135" lon="4.75678">
        <ele>187</ele>
        <time>2017-12-09T11:35:07Z</time>
      </trkpt>
      <trkpt lat="46.03129" lon="4.75679">
        <ele>187</ele>
        <time>2017-12-09T11:35:08Z</time>
      </trkpt>
      <trkpt lat="46.03122" lon="4.75679">
        <ele>186</ele>
        <time>2017-12-09T11:35:09Z</time>
      </trkpt>
      <trkpt lat="46.03114" lon="4.75683">
        <ele>186</ele>
        <time>2017-12-09T11:35:10Z</time>
      </trkpt>
      <trkpt lat="46.03107" lon="4.75683">
        <ele>186</ele>
        <time>2017-12-09T11:35:11Z</time>
      </trkpt>
      <trkpt lat="46.031" lon="4.7568">
        <ele>186</ele>
        <time>2017-12-09T11:35:12Z</time>
      </trkpt>
      <trkpt lat="46.03094" lon="4.7568">
        <ele>185</ele>
        <time>2017-12-09T11:35:13Z</time>
      </trkpt>
      <trkpt lat="46.03088" lon="4.75681">
        <ele>185</ele>
        <time>2017-12-09T11:35:14Z</time>
      </trkpt>
      <trkpt lat="46.03081" lon="4.75683">
        <ele>184</ele>
        <time>2017-12-09T11:35:15Z</time>
      </trkpt>
      <trkpt lat="46.03075" lon="4.75684">
        <ele>184</ele>
        <time>2017-12-09T11:35:16Z</time>
      </trkpt>
      <trkpt lat="46.03068" lon="4.75684">
        <ele>184</ele>
        <time>2017-12-09T11:35:17Z</time>
      </trkpt>
      <trkpt lat="46.03062" lon="4.75685">
        <ele>184</ele>
        <time>2017-12-09T11:35:18Z</time>
      </trkpt>
      <trkpt lat="46.03056" lon="4.75688">
        <ele>184</ele>
        <time>2017-12-09T11:35:19Z</time>
      </trkpt>
      <trkpt lat="46.03049" lon="4.75689">
        <ele>184</ele>
        <time>2017-12-09T11:35:20Z</time>
      </trkpt>
      <trkpt lat="46.03042" lon="4.7569">
        <ele>184</ele>
        <time>2017-12-09T11:35:21Z</time>
      </trkpt>
      <trkpt lat="46.03034" lon="4.75692">
        <ele>184</ele>
        <time>2017-12-09T11:35:22Z</time>
      </trkpt>
      <trkpt lat="46.03028" lon="4.75695">
        <ele>184</ele>
        <time>2017-12-09T11:35:23Z</time>
      </trkpt>
      <trkpt lat="46.03021" lon="4.75698">
        <ele>184</ele>
        <time>2017-12-09T11:35:24Z</time>
      </trkpt>
      <trkpt lat="46.03015" lon="4.75701">
        <ele>184</ele>
        <time>2017-12-09T11:35:25Z</time>
      </trkpt>
      <trkpt lat="46.03003" lon="4.75705">
        <ele>184</ele>
        <time>2017-12-09T11:35:26Z</time>
      </trkpt>
      <trkpt lat="46.02997" lon="4.75708">
        <ele>183</ele>
        <time>2017-12-09T11:35:27Z</time>
      </trkpt>
      <trkpt lat="46.0299" lon="4.75711">
        <ele>183</ele>
        <time>2017-12-09T11:35:28Z</time>
      </trkpt>
      <trkpt lat="46.02984" lon="4.75712">
        <ele>183</ele>
        <time>2017-12-09T11:35:29Z</time>
      </trkpt>
      <trkpt lat="46.02977" lon="4.75715">
        <ele>183</ele>
        <time>2017-12-09T11:35:30Z</time>
      </trkpt>
      <trkpt lat="46.02971" lon="4.75717">
        <ele>183</ele>
        <time>2017-12-09T11:35:31Z</time>
      </trkpt>
      <trkpt lat="46.02966" lon="4.75719">
        <ele>183</ele>
        <time>2017-12-09T11:35:32Z</time>
      </trkpt>
      <trkpt lat="46.02959" lon="4.75722">
        <ele>183</ele>
        <time>2017-12-09T11:35:33Z</time>
      </trkpt>
      <trkpt lat="46.02953" lon="4.75723">
        <ele>183</ele>
        <time>2017-12-09T11:35:34Z</time>
      </trkpt>
      <trkpt lat="46.02947" lon="4.75724">
        <ele>183</ele>
        <time>2017-12-09T11:35:35Z</time>
      </trkpt>
      <trkpt lat="46.02941" lon="4.75725">
        <ele>183</ele>
        <time>2017-12-09T11:35:36Z</time>
      </trkpt>
      <trkpt lat="46.02936" lon="4.75726">
        <ele>183</ele>
        <time>2017-12-09T11:35:37Z</time>
      </trkpt>
      <trkpt lat="46.0293" lon="4.75726">
        <ele>183</ele>
        <time>2017-12-09T11:35:38Z</time>
      </trkpt>
      <trkpt lat="46.02925" lon="4.75728">
        <ele>183</ele>
        <time>2017-12-09T11:35:39Z</time>
      </trkpt>
      <trkpt lat="46.02921" lon="4.7573">
        <ele>183</ele>
        <time>2017-12-09T11:35:40Z</time>
      </trkpt>
      <trkpt lat="46.02915" lon="4.75729">
        <ele>183</ele>
        <time>2017-12-09T11:35:41Z</time>
      </trkpt>
      <trkpt lat="46.02908" lon="4.7573">
        <ele>183</ele>
        <time>2017-12-09T11:35:42Z</time>
      </trkpt>
      <trkpt lat="46.02901" lon="4.75729">
        <ele>183</ele>
        <time>2017-12-09T11:35:43Z</time>
      </trkpt>
      <trkpt lat="46.02894" lon="4.75729">
        <ele>183</ele>
        <time>2017-12-09T11:35:44Z</time>
      </trkpt>
      <trkpt lat="46.02887" lon="4.75729">
        <ele>183</ele>
        <time>2017-12-09T11:35:45Z</time>
      </trkpt>
      <trkpt lat="46.0288" lon="4.7573">
        <ele>183</ele>
        <time>2017-12-09T11:35:46Z</time>
      </trkpt>
      <trkpt lat="46.02872" lon="4.7573">
        <ele>183</ele>
        <time>2017-12-09T11:35:47Z</time>
      </trkpt>
      <trkpt lat="46.02864" lon="4.75728">
        <ele>184</ele>
        <time>2017-12-09T11:35:48Z</time>
      </trkpt>
      <trkpt lat="46.02857" lon="4.75729">
        <ele>184</ele>
        <time>2017-12-09T11:35:49Z</time>
      </trkpt>
      <trkpt lat="46.0285" lon="4.75729">
        <ele>184</ele>
        <time>2017-12-09T11:35:50Z</time>
      </trkpt>
      <trkpt lat="46.02843" lon="4.75727">
        <ele>184</ele>
        <time>2017-12-09T11:35:51Z</time>
      </trkpt>
      <trkpt lat="46.02836" lon="4.75727">
        <ele>184</ele>
        <time>2017-12-09T11:35:52Z</time>
      </trkpt>
      <trkpt lat="46.02829" lon="4.75727">
        <ele>184</ele>
        <time>2017-12-09T11:35:53Z</time>
      </trkpt>
      <trkpt lat="46.02821" lon="4.75725">
        <ele>184</ele>
        <time>2017-12-09T11:35:54Z</time>
      </trkpt>
      <trkpt lat="46.02814" lon="4.75724">
        <ele>184</ele>
        <time>2017-12-09T11:35:55Z</time>
      </trkpt>
      <trkpt lat="46.02808" lon="4.75723">
        <ele>184</ele>
        <time>2017-12-09T11:35:56Z</time>
      </trkpt>
      <trkpt lat="46.028" lon="4.7572">
        <ele>183</ele>
        <time>2017-12-09T11:35:57Z</time>
      </trkpt>
      <trkpt lat="46.02793" lon="4.75718">
        <ele>183</ele>
        <time>2017-12-09T11:35:58Z</time>
      </trkpt>
      <trkpt lat="46.02787" lon="4.75718">
        <ele>183</ele>
        <time>2017-12-09T11:35:59Z</time>
      </trkpt>
      <trkpt lat="46.0278" lon="4.75718">
        <ele>183</ele>
        <time>2017-12-09T11:36:00Z</time>
      </trkpt>
      <trkpt lat="46.02774" lon="4.75717">
        <ele>183</ele>
        <time>2017-12-09T11:36:01Z</time>
      </trkpt>
      <trkpt lat="46.02767" lon="4.75716">
        <ele>183</ele>
        <time>2017-12-09T11:36:02Z</time>
      </trkpt>
      <trkpt lat="46.02761" lon="4.75717">
        <ele>183</ele>
        <time>2017-12-09T11:36:03Z</time>
      </trkpt>
      <trkpt lat="46.02756" lon="4.75716">
        <ele>183</ele>
        <time>2017-12-09T11:36:04Z</time>
      </trkpt>
      <trkpt lat="46.02752" lon="4.75717">
        <ele>183</ele>
        <time>2017-12-09T11:36:05Z</time>
      </trkpt>
      <trkpt lat="46.02747" lon="4.75719">
        <ele>183</ele>
        <time>2017-12-09T11:36:06Z</time>
      </trkpt>
      <trkpt lat="46.02743" lon="4.75721">
        <ele>183</ele>
        <time>2017-12-09T11:36:07Z</time>
      </trkpt>
      <trkpt lat="46.02737" lon="4.75722">
        <ele>183</ele>
        <time>2017-12-09T11:36:08Z</time>
      </trkpt>
      <trkpt lat="46.02729" lon="4.75726">
        <ele>183</ele>
        <time>2017-12-09T11:36:10Z</time>
      </trkpt>
      <trkpt lat="46.02723" lon="4.75729">
        <ele>182</ele>
        <time>2017-12-09T11:36:11Z</time>
      </trkpt>
      <trkpt lat="46.02719" lon="4.75732">
        <ele>182</ele>
        <time>2017-12-09T11:36:12Z</time>
      </trkpt>
      <trkpt lat="46.0271" lon="4.75736">
        <ele>182</ele>
        <time>2017-12-09T11:36:13Z</time>
      </trkpt>
      <trkpt lat="46.02704" lon="4.75737">
        <ele>182</ele>
        <time>2017-12-09T11:36:14Z</time>
      </trkpt>
      <trkpt lat="46.027" lon="4.75741">
        <ele>182</ele>
        <time>2017-12-09T11:36:15Z</time>
      </trkpt>
      <trkpt lat="46.02692" lon="4.75744">
        <ele>182</ele>
        <time>2017-12-09T11:36:17Z</time>
      </trkpt>
      <trkpt lat="46.02687" lon="4.75746">
        <ele>182</ele>
        <time>2017-12-09T11:36:18Z</time>
      </trkpt>
      <trkpt lat="46.02682" lon="4.75748">
        <ele>181</ele>
        <time>2017-12-09T11:36:19Z</time>
      </trkpt>
      <trkpt lat="46.02678" lon="4.75748">
        <ele>181</ele>
        <time>2017-12-09T11:36:20Z</time>
      </trkpt>
      <trkpt lat="46.02673" lon="4.75749">
        <ele>181</ele>
        <time>2017-12-09T11:36:21Z</time>
      </trkpt>
      <trkpt lat="46.02668" lon="4.75749">
        <ele>181</ele>
        <time>2017-12-09T11:36:22Z</time>
      </trkpt>
      <trkpt lat="46.02664" lon="4.75749">
        <ele>181</ele>
        <time>2017-12-09T11:36:23Z</time>
      </trkpt>
      <trkpt lat="46.02659" lon="4.75749">
        <ele>181</ele>
        <time>2017-12-09T11:36:24Z</time>
      </trkpt>
      <trkpt lat="46.0265" lon="4.75748">
        <ele>182</ele>
        <time>2017-12-09T11:36:26Z</time>
      </trkpt>
      <trkpt lat="46.02646" lon="4.75748">
        <ele>182</ele>
        <time>2017-12-09T11:36:27Z</time>
      </trkpt>
      <trkpt lat="46.02638" lon="4.75747">
        <ele>182</ele>
        <time>2017-12-09T11:36:29Z</time>
      </trkpt>
      <trkpt lat="46.02634" lon="4.75747">
        <ele>182</ele>
        <time>2017-12-09T11:36:30Z</time>
      </trkpt>
      <trkpt lat="46.02628" lon="4.75747">
        <ele>182</ele>
        <time>2017-12-09T11:36:32Z</time>
      </trkpt>
      <trkpt lat="46.02623" lon="4.75746">
        <ele>182</ele>
        <time>2017-12-09T11:36:33Z</time>
      </trkpt>
      <trkpt lat="46.02614" lon="4.75745">
        <ele>182</ele>
        <time>2017-12-09T11:36:35Z</time>
      </trkpt>
      <trkpt lat="46.02611" lon="4.75745">
        <ele>182</ele>
        <time>2017-12-09T11:36:36Z</time>
      </trkpt>
      <trkpt lat="46.02603" lon="4.75742">
        <ele>183</ele>
        <time>2017-12-09T11:36:39Z</time>
      </trkpt>
      <trkpt lat="46.026" lon="4.75742">
        <ele>183</ele>
        <time>2017-12-09T11:36:40Z</time>
      </trkpt>
      <trkpt lat="46.02594" lon="4.75743">
        <ele>183</ele>
        <time>2017-12-09T11:36:42Z</time>
      </trkpt>
      <trkpt lat="46.0259" lon="4.75744">
        <ele>183</ele>
        <time>2017-12-09T11:36:43Z</time>
      </trkpt>
      <trkpt lat="46.02583" lon="4.75745">
        <ele>184</ele>
        <time>2017-12-09T11:36:45Z</time>
      </trkpt>
      <trkpt lat="46.02579" lon="4.75744">
        <ele>184</ele>
        <time>2017-12-09T11:36:46Z</time>
      </trkpt>
      <trkpt lat="46.02573" lon="4.75743">
        <ele>184</ele>
        <time>2017-12-09T11:36:48Z</time>
      </trkpt>
      <trkpt lat="46.02569" lon="4.75743">
        <ele>185</ele>
        <time>2017-12-09T11:36:49Z</time>
      </trkpt>
      <trkpt lat="46.02561" lon="4.75743">
        <ele>185</ele>
        <time>2017-12-09T11:36:51Z</time>
      </trkpt>
      <trkpt lat="46.02559" lon="4.75741">
        <ele>185</ele>
        <time>2017-12-09T11:36:52Z</time>
      </trkpt>
      <trkpt lat="46.02553" lon="4.75741">
        <ele>186</ele>
        <time>2017-12-09T11:36:54Z</time>
      </trkpt>
      <trkpt lat="46.02549" lon="4.75742">
        <ele>186</ele>
        <time>2017-12-09T11:36:55Z</time>
      </trkpt>
      <trkpt lat="46.02542" lon="4.75744">
        <ele>186</ele>
        <time>2017-12-09T11:36:57Z</time>
      </trkpt>
      <trkpt lat="46.02539" lon="4.75744">
        <ele>187</ele>
        <time>2017-12-09T11:36:58Z</time>
      </trkpt>
      <trkpt lat="46.02531" lon="4.75745">
        <ele>187</ele>
        <time>2017-12-09T11:37:00Z</time>
      </trkpt>
      <trkpt lat="46.02528" lon="4.75746">
        <ele>187</ele>
        <time>2017-12-09T11:37:01Z</time>
      </trkpt>
      <trkpt lat="46.02521" lon="4.75748">
        <ele>188</ele>
        <time>2017-12-09T11:37:03Z</time>
      </trkpt>
      <trkpt lat="46.02518" lon="4.75749">
        <ele>188</ele>
        <time>2017-12-09T11:37:04Z</time>
      </trkpt>
      <trkpt lat="46.02511" lon="4.75752">
        <ele>188</ele>
        <time>2017-12-09T11:37:06Z</time>
      </trkpt>
      <trkpt lat="46.02508" lon="4.75754">
        <ele>189</ele>
        <time>2017-12-09T11:37:07Z</time>
      </trkpt>
      <trkpt lat="46.025" lon="4.75758">
        <ele>189</ele>
        <time>2017-12-09T11:37:09Z</time>
      </trkpt>
      <trkpt lat="46.02496" lon="4.7576">
        <ele>190</ele>
        <time>2017-12-09T11:37:10Z</time>
      </trkpt>
      <trkpt lat="46.02489" lon="4.75763">
        <ele>190</ele>
        <time>2017-12-09T11:37:12Z</time>
      </trkpt>
      <trkpt lat="46.02485" lon="4.75765">
        <ele>191</ele>
        <time>2017-12-09T11:37:13Z</time>
      </trkpt>
      <trkpt lat="46.02478" lon="4.75768">
        <ele>191</ele>
        <time>2017-12-09T11:37:15Z</time>
      </trkpt>
      <trkpt lat="46.02474" lon="4.7577">
        <ele>191</ele>
        <time>2017-12-09T11:37:16Z</time>
      </trkpt>
      <trkpt lat="46.02467" lon="4.75773">
        <ele>191</ele>
        <time>2017-12-09T11:37:18Z</time>
      </trkpt>
      <trkpt lat="46.02463" lon="4.75774">
        <ele>191</ele>
        <time>2017-12-09T11:37:19Z</time>
      </trkpt>
      <trkpt lat="46.02456" lon="4.75778">
        <ele>191</ele>
        <time>2017-12-09T11:37:21Z</time>
      </trkpt>
      <trkpt lat="46.02453" lon="4.75779">
        <ele>191</ele>
        <time>2017-12-09T11:37:22Z</time>
      </trkpt>
      <trkpt lat="46.02446" lon="4.75783">
        <ele>191</ele>
        <time>2017-12-09T11:37:24Z</time>
      </trkpt>
      <trkpt lat="46.02443" lon="4.75785">
        <ele>191</ele>
        <time>2017-12-09T11:37:25Z</time>
      </trkpt>
      <trkpt lat="46.02437" lon="4.7579">
        <ele>191</ele>
        <time>2017-12-09T11:37:27Z</time>
      </trkpt>
      <trkpt lat="46.02434" lon="4.75792">
        <ele>191</ele>
        <time>2017-12-09T11:37:28Z</time>
      </trkpt>
      <trkpt lat="46.02427" lon="4.75796">
        <ele>192</ele>
        <time>2017-12-09T11:37:30Z</time>
      </trkpt>
      <trkpt lat="46.02423" lon="4.75798">
        <ele>192</ele>
        <time>2017-12-09T11:37:31Z</time>
      </trkpt>
      <trkpt lat="46.02416" lon="4.75802">
        <ele>192</ele>
        <time>2017-12-09T11:37:33Z</time>
      </trkpt>
      <trkpt lat="46.02412" lon="4.75804">
        <ele>192</ele>
        <time>2017-12-09T11:37:34Z</time>
      </trkpt>
      <trkpt lat="46.02405" lon="4.75809">
        <ele>192</ele>
        <time>2017-12-09T11:37:36Z</time>
      </trkpt>
      <trkpt lat="46.02402" lon="4.75811">
        <ele>192</ele>
        <time>2017-12-09T11:37:37Z</time>
      </trkpt>
      <trkpt lat="46.02395" lon="4.75817">
        <ele>192</ele>
        <time>2017-12-09T11:37:39Z</time>
      </trkpt>
      <trkpt lat="46.02392" lon="4.7582">
        <ele>192</ele>
        <time>2017-12-09T11:37:40Z</time>
      </trkpt>
      <trkpt lat="46.02386" lon="4.75825">
        <ele>192</ele>
        <time>2017-12-09T11:37:42Z</time>
      </trkpt>
      <trkpt lat="46.02383" lon="4.75827">
        <ele>192</ele>
        <time>2017-12-09T11:37:43Z</time>
      </trkpt>
      <trkpt lat="46.02376" lon="4.75832">
        <ele>192</ele>
        <time>2017-12-09T11:37:45Z</time>
      </trkpt>
      <trkpt lat="46.02372" lon="4.75834">
        <ele>193</ele>
        <time>2017-12-09T11:37:46Z</time>
      </trkpt>
      <trkpt lat="46.02365" lon="4.7584">
        <ele>193</ele>
        <time>2017-12-09T11:37:48Z</time>
      </trkpt>
      <trkpt lat="46.02362" lon="4.75843">
        <ele>193</ele>
        <time>2017-12-09T11:37:49Z</time>
      </trkpt>
      <trkpt lat="46.02355" lon="4.75849">
        <ele>193</ele>
        <time>2017-12-09T11:37:51Z</time>
      </trkpt>
      <trkpt lat="46.02351" lon="4.75852">
        <ele>193</ele>
        <time>2017-12-09T11:37:52Z</time>
      </trkpt>
      <trkpt lat="46.02345" lon="4.75858">
        <ele>193</ele>
        <time>2017-12-09T11:37:54Z</time>
      </trkpt>
      <trkpt lat="46.02342" lon="4.7586">
        <ele>193</ele>
        <time>2017-12-09T11:37:55Z</time>
      </trkpt>
      <trkpt lat="46.02335" lon="4.75865">
        <ele>193</ele>
        <time>2017-12-09T11:37:57Z</time>
      </trkpt>
      <trkpt lat="46.02331" lon="4.75868">
        <ele>193</ele>
        <time>2017-12-09T11:37:58Z</time>
      </trkpt>
      <trkpt lat="46.02324" lon="4.75875">
        <ele>193</ele>
        <time>2017-12-09T11:38:00Z</time>
      </trkpt>
      <trkpt lat="46.0232" lon="4.75879">
        <ele>193</ele>
        <time>2017-12-09T11:38:01Z</time>
      </trkpt>
      <trkpt lat="46.02313" lon="4.75887">
        <ele>193</ele>
        <time>2017-12-09T11:38:03Z</time>
      </trkpt>
      <trkpt lat="46.02309" lon="4.7589">
        <ele>193</ele>
        <time>2017-12-09T11:38:04Z</time>
      </trkpt>
      <trkpt lat="46.02305" lon="4.75894">
        <ele>193</ele>
        <time>2017-12-09T11:38:05Z</time>
      </trkpt>
      <trkpt lat="46.023" lon="4.75898">
        <ele>193</ele>
        <time>2017-12-09T11:38:06Z</time>
      </trkpt>
      <trkpt lat="46.02295" lon="4.75904">
        <ele>193</ele>
        <time>2017-12-09T11:38:08Z</time>
      </trkpt>
      <trkpt lat="46.0229" lon="4.75908">
        <ele>193</ele>
        <time>2017-12-09T11:38:09Z</time>
      </trkpt>
      <trkpt lat="46.02285" lon="4.75914">
        <ele>193</ele>
        <time>2017-12-09T11:38:10Z</time>
      </trkpt>
      <trkpt lat="46.0228" lon="4.75919">
        <ele>194</ele>
        <time>2017-12-09T11:38:11Z</time>
      </trkpt>
      <trkpt lat="46.02275" lon="4.75922">
        <ele>194</ele>
        <time>2017-12-09T11:38:12Z</time>
      </trkpt>
      <trkpt lat="46.0227" lon="4.75925">
        <ele>193</ele>
        <time>2017-12-09T11:38:13Z</time>
      </trkpt>
      <trkpt lat="46.02263" lon="4.75931">
        <ele>193</ele>
        <time>2017-12-09T11:38:14Z</time>
      </trkpt>
      <trkpt lat="46.02259" lon="4.75936">
        <ele>194</ele>
        <time>2017-12-09T11:38:15Z</time>
      </trkpt>
      <trkpt lat="46.02256" lon="4.75941">
        <ele>194</ele>
        <time>2017-12-09T11:38:16Z</time>
      </trkpt>
      <trkpt lat="46.02251" lon="4.75945">
        <ele>194</ele>
        <time>2017-12-09T11:38:17Z</time>
      </trkpt>
      <trkpt lat="46.02247" lon="4.75949">
        <ele>193</ele>
        <time>2017-12-09T11:38:18Z</time>
      </trkpt>
      <trkpt lat="46.02242" lon="4.75952">
        <ele>193</ele>
        <time>2017-12-09T11:38:19Z</time>
      </trkpt>
      <trkpt lat="46.02237" lon="4.75956">
        <ele>193</ele>
        <time>2017-12-09T11:38:20Z</time>
      </trkpt>
      <trkpt lat="46.02232" lon="4.75961">
        <ele>193</ele>
        <time>2017-12-09T11:38:21Z</time>
      </trkpt>
      <trkpt lat="46.02228" lon="4.75966">
        <ele>193</ele>
        <time>2017-12-09T11:38:22Z</time>
      </trkpt>
      <trkpt lat="46.02224" lon="4.75969">
        <ele>193</ele>
        <time>2017-12-09T11:38:23Z</time>
      </trkpt>
      <trkpt lat="46.0222" lon="4.75974">
        <ele>193</ele>
        <time>2017-12-09T11:38:24Z</time>
      </trkpt>
      <trkpt lat="46.02215" lon="4.75978">
        <ele>193</ele>
        <time>2017-12-09T11:38:25Z</time>
      </trkpt>
      <trkpt lat="46.02212" lon="4.7598">
        <ele>193</ele>
        <time>2017-12-09T11:38:26Z</time>
      </trkpt>
      <trkpt lat="46.02207" lon="4.75984">
        <ele>193</ele>
        <time>2017-12-09T11:38:27Z</time>
      </trkpt>
      <trkpt lat="46.02203" lon="4.75988">
        <ele>193</ele>
        <time>2017-12-09T11:38:28Z</time>
      </trkpt>
      <trkpt lat="46.02199" lon="4.75992">
        <ele>192</ele>
        <time>2017-12-09T11:38:29Z</time>
      </trkpt>
      <trkpt lat="46.02195" lon="4.75995">
        <ele>192</ele>
        <time>2017-12-09T11:38:30Z</time>
      </trkpt>
      <trkpt lat="46.0219" lon="4.75998">
        <ele>192</ele>
        <time>2017-12-09T11:38:31Z</time>
      </trkpt>
      <trkpt lat="46.02186" lon="4.76001">
        <ele>193</ele>
        <time>2017-12-09T11:38:32Z</time>
      </trkpt>
      <trkpt lat="46.02181" lon="4.76005">
        <ele>193</ele>
        <time>2017-12-09T11:38:33Z</time>
      </trkpt>
      <trkpt lat="46.02177" lon="4.76009">
        <ele>193</ele>
        <time>2017-12-09T11:38:34Z</time>
      </trkpt>
      <trkpt lat="46.02173" lon="4.76014">
        <ele>193</ele>
        <time>2017-12-09T11:38:35Z</time>
      </trkpt>
      <trkpt lat="46.02168" lon="4.76019">
        <ele>193</ele>
        <time>2017-12-09T11:38:36Z</time>
      </trkpt>
      <trkpt lat="46.02163" lon="4.76024">
        <ele>193</ele>
        <time>2017-12-09T11:38:37Z</time>
      </trkpt>
      <trkpt lat="46.02159" lon="4.76027">
        <ele>193</ele>
        <time>2017-12-09T11:38:38Z</time>
      </trkpt>
      <trkpt lat="46.02155" lon="4.76031">
        <ele>193</ele>
        <time>2017-12-09T11:38:39Z</time>
      </trkpt>
      <trkpt lat="46.02151" lon="4.76034">
        <ele>193</ele>
        <time>2017-12-09T11:38:40Z</time>
      </trkpt>
      <trkpt lat="46.02146" lon="4.76038">
        <ele>193</ele>
        <time>2017-12-09T11:38:41Z</time>
      </trkpt>
      <trkpt lat="46.02141" lon="4.76042">
        <ele>193</ele>
        <time>2017-12-09T11:38:42Z</time>
      </trkpt>
      <trkpt lat="46.02136" lon="4.76049">
        <ele>194</ele>
        <time>2017-12-09T11:38:43Z</time>
      </trkpt>
      <trkpt lat="46.02132" lon="4.76053">
        <ele>194</ele>
        <time>2017-12-09T11:38:44Z</time>
      </trkpt>
      <trkpt lat="46.02128" lon="4.76055">
        <ele>194</ele>
        <time>2017-12-09T11:38:45Z</time>
      </trkpt>
      <trkpt lat="46.02123" lon="4.76058">
        <ele>194</ele>
        <time>2017-12-09T11:38:46Z</time>
      </trkpt>
      <trkpt lat="46.02118" lon="4.76061">
        <ele>194</ele>
        <time>2017-12-09T11:38:47Z</time>
      </trkpt>
      <trkpt lat="46.02114" lon="4.76065">
        <ele>194</ele>
        <time>2017-12-09T11:38:48Z</time>
      </trkpt>
      <trkpt lat="46.0211" lon="4.76069">
        <ele>194</ele>
        <time>2017-12-09T11:38:49Z</time>
      </trkpt>
      <trkpt lat="46.02105" lon="4.76072">
        <ele>194</ele>
        <time>2017-12-09T11:38:50Z</time>
      </trkpt>
      <trkpt lat="46.02101" lon="4.76075">
        <ele>195</ele>
        <time>2017-12-09T11:38:51Z</time>
      </trkpt>
      <trkpt lat="46.02096" lon="4.76078">
        <ele>195</ele>
        <time>2017-12-09T11:38:52Z</time>
      </trkpt>
      <trkpt lat="46.02091" lon="4.76081">
        <ele>195</ele>
        <time>2017-12-09T11:38:53Z</time>
      </trkpt>
      <trkpt lat="46.02086" lon="4.76083">
        <ele>196</ele>
        <time>2017-12-09T11:38:54Z</time>
      </trkpt>
      <trkpt lat="46.02081" lon="4.76085">
        <ele>196</ele>
        <time>2017-12-09T11:38:55Z</time>
      </trkpt>
      <trkpt lat="46.02075" lon="4.76086">
        <ele>196</ele>
        <time>2017-12-09T11:38:56Z</time>
      </trkpt>
      <trkpt lat="46.0207" lon="4.76087">
        <ele>196</ele>
        <time>2017-12-09T11:38:57Z</time>
      </trkpt>
      <trkpt lat="46.02066" lon="4.76089">
        <ele>197</ele>
        <time>2017-12-09T11:38:58Z</time>
      </trkpt>
      <trkpt lat="46.02061" lon="4.7609">
        <ele>197</ele>
        <time>2017-12-09T11:38:59Z</time>
      </trkpt>
      <trkpt lat="46.02056" lon="4.76091">
        <ele>197</ele>
        <time>2017-12-09T11:39:00Z</time>
      </trkpt>
      <trkpt lat="46.02051" lon="4.76091">
        <ele>197</ele>
        <time>2017-12-09T11:39:01Z</time>
      </trkpt>
      <trkpt lat="46.02046" lon="4.76092">
        <ele>197</ele>
        <time>2017-12-09T11:39:02Z</time>
      </trkpt>
      <trkpt lat="46.0204" lon="4.76094">
        <ele>197</ele>
        <time>2017-12-09T11:39:03Z</time>
      </trkpt>
      <trkpt lat="46.02035" lon="4.76096">
        <ele>197</ele>
        <time>2017-12-09T11:39:04Z</time>
      </trkpt>
      <trkpt lat="46.02031" lon="4.76097">
        <ele>197</ele>
        <time>2017-12-09T11:39:05Z</time>
      </trkpt>
      <trkpt lat="46.02026" lon="4.76099">
        <ele>197</ele>
        <time>2017-12-09T11:39:06Z</time>
      </trkpt>
      <trkpt lat="46.02021" lon="4.761">
        <ele>197</ele>
        <time>2017-12-09T11:39:07Z</time>
      </trkpt>
      <trkpt lat="46.02016" lon="4.76102">
        <ele>197</ele>
        <time>2017-12-09T11:39:08Z</time>
      </trkpt>
      <trkpt lat="46.02011" lon="4.76103">
        <ele>197</ele>
        <time>2017-12-09T11:39:09Z</time>
      </trkpt>
      <trkpt lat="46.02007" lon="4.76103">
        <ele>197</ele>
        <time>2017-12-09T11:39:10Z</time>
      </trkpt>
      <trkpt lat="46.02" lon="4.76105">
        <ele>197</ele>
        <time>2017-12-09T11:39:11Z</time>
      </trkpt>
      <trkpt lat="46.01992" lon="4.76107">
        <ele>198</ele>
        <time>2017-12-09T11:39:13Z</time>
      </trkpt>
      <trkpt lat="46.01988" lon="4.76108">
        <ele>198</ele>
        <time>2017-12-09T11:39:14Z</time>
      </trkpt>
      <trkpt lat="46.01984" lon="4.76109">
        <ele>198</ele>
        <time>2017-12-09T11:39:15Z</time>
      </trkpt>
      <trkpt lat="46.01979" lon="4.76111">
        <ele>198</ele>
        <time>2017-12-09T11:39:16Z</time>
      </trkpt>
      <trkpt lat="46.01976" lon="4.76112">
        <ele>198</ele>
        <time>2017-12-09T11:39:17Z</time>
      </trkpt>
      <trkpt lat="46.01968" lon="4.76111">
        <ele>198</ele>
        <time>2017-12-09T11:39:18Z</time>
      </trkpt>
      <trkpt lat="46.01959" lon="4.76113">
        <ele>198</ele>
        <time>2017-12-09T11:39:20Z</time>
      </trkpt>
      <trkpt lat="46.01957" lon="4.76113">
        <ele>198</ele>
        <time>2017-12-09T11:39:21Z</time>
      </trkpt>
      <trkpt lat="46.01952" lon="4.76116">
        <ele>198</ele>
        <time>2017-12-09T11:39:22Z</time>
      </trkpt>
      <trkpt lat="46.01947" lon="4.76117">
        <ele>198</ele>
        <time>2017-12-09T11:39:23Z</time>
      </trkpt>
      <trkpt lat="46.01939" lon="4.7612">
        <ele>198</ele>
        <time>2017-12-09T11:39:25Z</time>
      </trkpt>
      <trkpt lat="46.01937" lon="4.76122">
        <ele>198</ele>
        <time>2017-12-09T11:39:26Z</time>
      </trkpt>
      <trkpt lat="46.01932" lon="4.76124">
        <ele>198</ele>
        <time>2017-12-09T11:39:28Z</time>
      </trkpt>
      <trkpt lat="46.01928" lon="4.76124">
        <ele>198</ele>
        <time>2017-12-09T11:39:29Z</time>
      </trkpt>
      <trkpt lat="46.0192" lon="4.76125">
        <ele>198</ele>
        <time>2017-12-09T11:39:31Z</time>
      </trkpt>
      <trkpt lat="46.01916" lon="4.76125">
        <ele>199</ele>
        <time>2017-12-09T11:39:32Z</time>
      </trkpt>
      <trkpt lat="46.01907" lon="4.76128">
        <ele>199</ele>
        <time>2017-12-09T11:39:34Z</time>
      </trkpt>
      <trkpt lat="46.01902" lon="4.76129">
        <ele>199</ele>
        <time>2017-12-09T11:39:35Z</time>
      </trkpt>
      <trkpt lat="46.01898" lon="4.76131">
        <ele>199</ele>
        <time>2017-12-09T11:39:36Z</time>
      </trkpt>
      <trkpt lat="46.01893" lon="4.76131">
        <ele>199</ele>
        <time>2017-12-09T11:39:37Z</time>
      </trkpt>
      <trkpt lat="46.01889" lon="4.76131">
        <ele>199</ele>
        <time>2017-12-09T11:39:38Z</time>
      </trkpt>
      <trkpt lat="46.01884" lon="4.76132">
        <ele>199</ele>
        <time>2017-12-09T11:39:39Z</time>
      </trkpt>
      <trkpt lat="46.01879" lon="4.76132">
        <ele>199</ele>
        <time>2017-12-09T11:39:40Z</time>
      </trkpt>
      <trkpt lat="46.01874" lon="4.76132">
        <ele>199</ele>
        <time>2017-12-09T11:39:41Z</time>
      </trkpt>
      <trkpt lat="46.0187" lon="4.76132">
        <ele>199</ele>
        <time>2017-12-09T11:39:42Z</time>
      </trkpt>
      <trkpt lat="46.01864" lon="4.76134">
        <ele>199</ele>
        <time>2017-12-09T11:39:43Z</time>
      </trkpt>
      <trkpt lat="46.01857" lon="4.76133">
        <ele>199</ele>
        <time>2017-12-09T11:39:46Z</time>
      </trkpt>
      <trkpt lat="46.01854" lon="4.76134">
        <ele>199</ele>
        <time>2017-12-09T11:39:47Z</time>
      </trkpt>
      <trkpt lat="46.01847" lon="4.76134">
        <ele>199</ele>
        <time>2017-12-09T11:39:48Z</time>
      </trkpt>
      <trkpt lat="46.01841" lon="4.76128">
        <ele>199</ele>
        <time>2017-12-09T11:39:49Z</time>
      </trkpt>
      <trkpt lat="46.01835" lon="4.76128">
        <ele>199</ele>
        <time>2017-12-09T11:39:51Z</time>
      </trkpt>
      <trkpt lat="46.0183" lon="4.76135">
        <ele>198</ele>
        <time>2017-12-09T11:39:52Z</time>
      </trkpt>
      <trkpt lat="46.01822" lon="4.76132">
        <ele>198</ele>
        <time>2017-12-09T11:39:53Z</time>
      </trkpt>
      <trkpt lat="46.01816" lon="4.76132">
        <ele>198</ele>
        <time>2017-12-09T11:39:54Z</time>
      </trkpt>
      <trkpt lat="46.01807" lon="4.76132">
        <ele>198</ele>
        <time>2017-12-09T11:39:56Z</time>
      </trkpt>
      <trkpt lat="46.01803" lon="4.76131">
        <ele>198</ele>
        <time>2017-12-09T11:39:57Z</time>
      </trkpt>
      <trkpt lat="46.01795" lon="4.76133">
        <ele>198</ele>
        <time>2017-12-09T11:39:59Z</time>
      </trkpt>
      <trkpt lat="46.01791" lon="4.76129">
        <ele>198</ele>
        <time>2017-12-09T11:40:00Z</time>
      </trkpt>
      <trkpt lat="46.01784" lon="4.76127">
        <ele>198</ele>
        <time>2017-12-09T11:40:02Z</time>
      </trkpt>
      <trkpt lat="46.01776" lon="4.7613">
        <ele>198</ele>
        <time>2017-12-09T11:40:03Z</time>
      </trkpt>
      <trkpt lat="46.01772" lon="4.7613">
        <ele>198</ele>
        <time>2017-12-09T11:40:04Z</time>
      </trkpt>
      <trkpt lat="46.01763" lon="4.76128">
        <ele>198</ele>
        <time>2017-12-09T11:40:05Z</time>
      </trkpt>
      <trkpt lat="46.01754" lon="4.76128">
        <ele>198</ele>
        <time>2017-12-09T11:40:07Z</time>
      </trkpt>
      <trkpt lat="46.01749" lon="4.76127">
        <ele>197</ele>
        <time>2017-12-09T11:40:08Z</time>
      </trkpt>
      <trkpt lat="46.01743" lon="4.76128">
        <ele>197</ele>
        <time>2017-12-09T11:40:09Z</time>
      </trkpt>
      <trkpt lat="46.01739" lon="4.76127">
        <ele>197</ele>
        <time>2017-12-09T11:40:10Z</time>
      </trkpt>
      <trkpt lat="46.01731" lon="4.76126">
        <ele>197</ele>
        <time>2017-12-09T11:40:12Z</time>
      </trkpt>
      <trkpt lat="46.01727" lon="4.76126">
        <ele>197</ele>
        <time>2017-12-09T11:40:13Z</time>
      </trkpt>
      <trkpt lat="46.01718" lon="4.76125">
        <ele>197</ele>
        <time>2017-12-09T11:40:15Z</time>
      </trkpt>
      <trkpt lat="46.01714" lon="4.76124">
        <ele>197</ele>
        <time>2017-12-09T11:40:16Z</time>
      </trkpt>
      <trkpt lat="46.0171" lon="4.76123">
        <ele>198</ele>
        <time>2017-12-09T11:40:17Z</time>
      </trkpt>
      <trkpt lat="46.01705" lon="4.76122">
        <ele>198</ele>
        <time>2017-12-09T11:40:18Z</time>
      </trkpt>
      <trkpt lat="46.01698" lon="4.76122">
        <ele>198</ele>
        <time>2017-12-09T11:40:20Z</time>
      </trkpt>
      <trkpt lat="46.01692" lon="4.76122">
        <ele>198</ele>
        <time>2017-12-09T11:40:21Z</time>
      </trkpt>
      <trkpt lat="46.01684" lon="4.76119">
        <ele>198</ele>
        <time>2017-12-09T11:40:23Z</time>
      </trkpt>
      <trkpt lat="46.01678" lon="4.76118">
        <ele>198</ele>
        <time>2017-12-09T11:40:24Z</time>
      </trkpt>
      <trkpt lat="46.01674" lon="4.76117">
        <ele>198</ele>
        <time>2017-12-09T11:40:25Z</time>
      </trkpt>
      <trkpt lat="46.01668" lon="4.76117">
        <ele>198</ele>
        <time>2017-12-09T11:40:26Z</time>
      </trkpt>
      <trkpt lat="46.01661" lon="4.76115">
        <ele>199</ele>
        <time>2017-12-09T11:40:27Z</time>
      </trkpt>
      <trkpt lat="46.01656" lon="4.76115">
        <ele>199</ele>
        <time>2017-12-09T11:40:28Z</time>
      </trkpt>
      <trkpt lat="46.01651" lon="4.76114">
        <ele>199</ele>
        <time>2017-12-09T11:40:29Z</time>
      </trkpt>
      <trkpt lat="46.01645" lon="4.76114">
        <ele>199</ele>
        <time>2017-12-09T11:40:30Z</time>
      </trkpt>
      <trkpt lat="46.01641" lon="4.76114">
        <ele>199</ele>
        <time>2017-12-09T11:40:31Z</time>
      </trkpt>
      <trkpt lat="46.01636" lon="4.76113">
        <ele>199</ele>
        <time>2017-12-09T11:40:32Z</time>
      </trkpt>
      <trkpt lat="46.0163" lon="4.76113">
        <ele>199</ele>
        <time>2017-12-09T11:40:33Z</time>
      </trkpt>
      <trkpt lat="46.01625" lon="4.76113">
        <ele>199</ele>
        <time>2017-12-09T11:40:34Z</time>
      </trkpt>
      <trkpt lat="46.0162" lon="4.76112">
        <ele>200</ele>
        <time>2017-12-09T11:40:35Z</time>
      </trkpt>
      <trkpt lat="46.01615" lon="4.76112">
        <ele>200</ele>
        <time>2017-12-09T11:40:36Z</time>
      </trkpt>
      <trkpt lat="46.01607" lon="4.7611">
        <ele>200</ele>
        <time>2017-12-09T11:40:38Z</time>
      </trkpt>
      <trkpt lat="46.01602" lon="4.7611">
        <ele>200</ele>
        <time>2017-12-09T11:40:39Z</time>
      </trkpt>
      <trkpt lat="46.01597" lon="4.7611">
        <ele>200</ele>
        <time>2017-12-09T11:40:40Z</time>
      </trkpt>
      <trkpt lat="46.01592" lon="4.76111">
        <ele>200</ele>
        <time>2017-12-09T11:40:41Z</time>
      </trkpt>
      <trkpt lat="46.01588" lon="4.76108">
        <ele>200</ele>
        <time>2017-12-09T11:40:42Z</time>
      </trkpt>
      <trkpt lat="46.01583" lon="4.76107">
        <ele>202</ele>
        <time>2017-12-09T11:40:43Z</time>
      </trkpt>
      <trkpt lat="46.01578" lon="4.76107">
        <ele>202</ele>
        <time>2017-12-09T11:40:44Z</time>
      </trkpt>
      <trkpt lat="46.01573" lon="4.76105">
        <ele>202</ele>
        <time>2017-12-09T11:40:45Z</time>
      </trkpt>
      <trkpt lat="46.01566" lon="4.76102">
        <ele>202</ele>
        <time>2017-12-09T11:40:47Z</time>
      </trkpt>
      <trkpt lat="46.01561" lon="4.76099">
        <ele>202</ele>
        <time>2017-12-09T11:40:48Z</time>
      </trkpt>
      <trkpt lat="46.01557" lon="4.76097">
        <ele>202</ele>
        <time>2017-12-09T11:40:49Z</time>
      </trkpt>
      <trkpt lat="46.01553" lon="4.76095">
        <ele>202</ele>
        <time>2017-12-09T11:40:50Z</time>
      </trkpt>
      <trkpt lat="46.01544" lon="4.76091">
        <ele>202</ele>
        <time>2017-12-09T11:40:52Z</time>
      </trkpt>
      <trkpt lat="46.01539" lon="4.76091">
        <ele>202</ele>
        <time>2017-12-09T11:40:53Z</time>
      </trkpt>
      <trkpt lat="46.01533" lon="4.7609">
        <ele>202</ele>
        <time>2017-12-09T11:40:54Z</time>
      </trkpt>
      <trkpt lat="46.01529" lon="4.76089">
        <ele>202</ele>
        <time>2017-12-09T11:40:55Z</time>
      </trkpt>
      <trkpt lat="46.01524" lon="4.76089">
        <ele>202</ele>
        <time>2017-12-09T11:40:56Z</time>
      </trkpt>
      <trkpt lat="46.01519" lon="4.76088">
        <ele>203</ele>
        <time>2017-12-09T11:40:57Z</time>
      </trkpt>
      <trkpt lat="46.01511" lon="4.76086">
        <ele>203</ele>
        <time>2017-12-09T11:40:59Z</time>
      </trkpt>
      <trkpt lat="46.01507" lon="4.76084">
        <ele>203</ele>
        <time>2017-12-09T11:41:00Z</time>
      </trkpt>
      <trkpt lat="46.01498" lon="4.76082">
        <ele>203</ele>
        <time>2017-12-09T11:41:02Z</time>
      </trkpt>
      <trkpt lat="46.01494" lon="4.76081">
        <ele>203</ele>
        <time>2017-12-09T11:41:03Z</time>
      </trkpt>
      <trkpt lat="46.01486" lon="4.76079">
        <ele>203</ele>
        <time>2017-12-09T11:41:05Z</time>
      </trkpt>
      <trkpt lat="46.01481" lon="4.76078">
        <ele>203</ele>
        <time>2017-12-09T11:41:06Z</time>
      </trkpt>
      <trkpt lat="46.01476" lon="4.76077">
        <ele>203</ele>
        <time>2017-12-09T11:41:07Z</time>
      </trkpt>
      <trkpt lat="46.01471" lon="4.76077">
        <ele>203</ele>
        <time>2017-12-09T11:41:08Z</time>
      </trkpt>
      <trkpt lat="46.01466" lon="4.76076">
        <ele>203</ele>
        <time>2017-12-09T11:41:09Z</time>
      </trkpt>
      <trkpt lat="46.01461" lon="4.76074">
        <ele>203</ele>
        <time>2017-12-09T11:41:10Z</time>
      </trkpt>
      <trkpt lat="46.01456" lon="4.76072">
        <ele>203</ele>
        <time>2017-12-09T11:41:11Z</time>
      </trkpt>
      <trkpt lat="46.01452" lon="4.7607">
        <ele>203</ele>
        <time>2017-12-09T11:41:12Z</time>
      </trkpt>
      <trkpt lat="46.01447" lon="4.76066">
        <ele>203</ele>
        <time>2017-12-09T11:41:13Z</time>
      </trkpt>
      <trkpt lat="46.01443" lon="4.76064">
        <ele>203</ele>
        <time>2017-12-09T11:41:14Z</time>
      </trkpt>
      <trkpt lat="46.01438" lon="4.76062">
        <ele>203</ele>
        <time>2017-12-09T11:41:15Z</time>
      </trkpt>
      <trkpt lat="46.01432" lon="4.76058">
        <ele>203</ele>
        <time>2017-12-09T11:41:16Z</time>
      </trkpt>
      <trkpt lat="46.01426" lon="4.76053">
        <ele>204</ele>
        <time>2017-12-09T11:41:17Z</time>
      </trkpt>
      <trkpt lat="46.01422" lon="4.7605">
        <ele>204</ele>
        <time>2017-12-09T11:41:18Z</time>
      </trkpt>
      <trkpt lat="46.01419" lon="4.76048">
        <ele>204</ele>
        <time>2017-12-09T11:41:20Z</time>
      </trkpt>
      <trkpt lat="46.01413" lon="4.76044">
        <ele>203</ele>
        <time>2017-12-09T11:41:21Z</time>
      </trkpt>
      <trkpt lat="46.01404" lon="4.7604">
        <ele>204</ele>
        <time>2017-12-09T11:41:23Z</time>
      </trkpt>
      <trkpt lat="46.014" lon="4.7604">
        <ele>203</ele>
        <time>2017-12-09T11:41:24Z</time>
      </trkpt>
      <trkpt lat="46.01394" lon="4.76039">
        <ele>203</ele>
        <time>2017-12-09T11:41:25Z</time>
      </trkpt>
      <trkpt lat="46.01389" lon="4.7604">
        <ele>203</ele>
        <time>2017-12-09T11:41:26Z</time>
      </trkpt>
      <trkpt lat="46.01382" lon="4.76043">
        <ele>203</ele>
        <time>2017-12-09T11:41:28Z</time>
      </trkpt>
      <trkpt lat="46.01377" lon="4.76044">
        <ele>203</ele>
        <time>2017-12-09T11:41:29Z</time>
      </trkpt>
      <trkpt lat="46.01372" lon="4.76044">
        <ele>203</ele>
        <time>2017-12-09T11:41:30Z</time>
      </trkpt>
      <trkpt lat="46.01368" lon="4.76045">
        <ele>203</ele>
        <time>2017-12-09T11:41:31Z</time>
      </trkpt>
      <trkpt lat="46.01363" lon="4.76048">
        <ele>203</ele>
        <time>2017-12-09T11:41:32Z</time>
      </trkpt>
      <trkpt lat="46.01359" lon="4.7605">
        <ele>203</ele>
        <time>2017-12-09T11:41:33Z</time>
      </trkpt>
      <trkpt lat="46.01354" lon="4.76051">
        <ele>203</ele>
        <time>2017-12-09T11:41:34Z</time>
      </trkpt>
      <trkpt lat="46.01349" lon="4.76053">
        <ele>203</ele>
        <time>2017-12-09T11:41:35Z</time>
      </trkpt>
      <trkpt lat="46.01341" lon="4.76056">
        <ele>203</ele>
        <time>2017-12-09T11:41:37Z</time>
      </trkpt>
      <trkpt lat="46.01337" lon="4.76057">
        <ele>203</ele>
        <time>2017-12-09T11:41:38Z</time>
      </trkpt>
      <trkpt lat="46.01328" lon="4.76059">
        <ele>203</ele>
        <time>2017-12-09T11:41:40Z</time>
      </trkpt>
      <trkpt lat="46.01323" lon="4.7606">
        <ele>203</ele>
        <time>2017-12-09T11:41:41Z</time>
      </trkpt>
      <trkpt lat="46.01318" lon="4.76061">
        <ele>203</ele>
        <time>2017-12-09T11:41:42Z</time>
      </trkpt>
      <trkpt lat="46.01313" lon="4.76063">
        <ele>203</ele>
        <time>2017-12-09T11:41:43Z</time>
      </trkpt>
      <trkpt lat="46.01309" lon="4.76064">
        <ele>203</ele>
        <time>2017-12-09T11:41:44Z</time>
      </trkpt>
      <trkpt lat="46.01304" lon="4.76065">
        <ele>203</ele>
        <time>2017-12-09T11:41:45Z</time>
      </trkpt>
      <trkpt lat="46.01295" lon="4.76067">
        <ele>203</ele>
        <time>2017-12-09T11:41:47Z</time>
      </trkpt>
      <trkpt lat="46.01291" lon="4.76069">
        <ele>204</ele>
        <time>2017-12-09T11:41:48Z</time>
      </trkpt>
      <trkpt lat="46.01283" lon="4.76069">
        <ele>204</ele>
        <time>2017-12-09T11:41:50Z</time>
      </trkpt>
      <trkpt lat="46.01279" lon="4.76069">
        <ele>204</ele>
        <time>2017-12-09T11:41:51Z</time>
      </trkpt>
      <trkpt lat="46.01271" lon="4.76069">
        <ele>204</ele>
        <time>2017-12-09T11:41:53Z</time>
      </trkpt>
      <trkpt lat="46.01267" lon="4.7607">
        <ele>204</ele>
        <time>2017-12-09T11:41:54Z</time>
      </trkpt>
      <trkpt lat="46.01262" lon="4.76071">
        <ele>204</ele>
        <time>2017-12-09T11:41:55Z</time>
      </trkpt>
      <trkpt lat="46.01257" lon="4.7607">
        <ele>204</ele>
        <time>2017-12-09T11:41:56Z</time>
      </trkpt>
      <trkpt lat="46.01249" lon="4.7607">
        <ele>205</ele>
        <time>2017-12-09T11:41:58Z</time>
      </trkpt>
      <trkpt lat="46.01244" lon="4.76069">
        <ele>205</ele>
        <time>2017-12-09T11:41:59Z</time>
      </trkpt>
      <trkpt lat="46.01236" lon="4.76067">
        <ele>205</ele>
        <time>2017-12-09T11:42:01Z</time>
      </trkpt>
      <trkpt lat="46.01232" lon="4.76066">
        <ele>205</ele>
        <time>2017-12-09T11:42:02Z</time>
      </trkpt>
      <trkpt lat="46.01224" lon="4.76064">
        <ele>206</ele>
        <time>2017-12-09T11:42:04Z</time>
      </trkpt>
      <trkpt lat="46.0122" lon="4.76064">
        <ele>206</ele>
        <time>2017-12-09T11:42:05Z</time>
      </trkpt>
      <trkpt lat="46.01215" lon="4.76063">
        <ele>206</ele>
        <time>2017-12-09T11:42:06Z</time>
      </trkpt>
      <trkpt lat="46.0121" lon="4.76063">
        <ele>206</ele>
        <time>2017-12-09T11:42:07Z</time>
      </trkpt>
      <trkpt lat="46.01205" lon="4.76062">
        <ele>206</ele>
        <time>2017-12-09T11:42:08Z</time>
      </trkpt>
      <trkpt lat="46.01201" lon="4.76061">
        <ele>206</ele>
        <time>2017-12-09T11:42:09Z</time>
      </trkpt>
      <trkpt lat="46.01193" lon="4.76057">
        <ele>206</ele>
        <time>2017-12-09T11:42:11Z</time>
      </trkpt>
      <trkpt lat="46.01188" lon="4.76056">
        <ele>206</ele>
        <time>2017-12-09T11:42:12Z</time>
      </trkpt>
      <trkpt lat="46.01182" lon="4.76054">
        <ele>207</ele>
        <time>2017-12-09T11:42:14Z</time>
      </trkpt>
      <trkpt lat="46.01179" lon="4.76053">
        <ele>207</ele>
        <time>2017-12-09T11:42:15Z</time>
      </trkpt>
      <trkpt lat="46.01171" lon="4.76053">
        <ele>207</ele>
        <time>2017-12-09T11:42:18Z</time>
      </trkpt>
      <trkpt lat="46.01167" lon="4.76053">
        <ele>207</ele>
        <time>2017-12-09T11:42:19Z</time>
      </trkpt>
      <trkpt lat="46.0116" lon="4.76056">
        <ele>208</ele>
        <time>2017-12-09T11:42:23Z</time>
      </trkpt>
      <trkpt lat="46.01155" lon="4.76057">
        <ele>208</ele>
        <time>2017-12-09T11:42:24Z</time>
      </trkpt>
      <trkpt lat="46.0115" lon="4.76057">
        <ele>208</ele>
        <time>2017-12-09T11:42:25Z</time>
      </trkpt>
      <trkpt lat="46.01146" lon="4.76059">
        <ele>208</ele>
        <time>2017-12-09T11:42:26Z</time>
      </trkpt>
      <trkpt lat="46.01138" lon="4.7606">
        <ele>208</ele>
        <time>2017-12-09T11:42:28Z</time>
      </trkpt>
      <trkpt lat="46.01134" lon="4.76061">
        <ele>208</ele>
        <time>2017-12-09T11:42:29Z</time>
      </trkpt>
      <trkpt lat="46.01125" lon="4.76061">
        <ele>208</ele>
        <time>2017-12-09T11:42:31Z</time>
      </trkpt>
      <trkpt lat="46.01121" lon="4.76062">
        <ele>208</ele>
        <time>2017-12-09T11:42:32Z</time>
      </trkpt>
      <trkpt lat="46.01112" lon="4.76063">
        <ele>208</ele>
        <time>2017-12-09T11:42:34Z</time>
      </trkpt>
      <trkpt lat="46.01108" lon="4.76063">
        <ele>208</ele>
        <time>2017-12-09T11:42:35Z</time>
      </trkpt>
      <trkpt lat="46.01104" lon="4.76064">
        <ele>208</ele>
        <time>2017-12-09T11:42:36Z</time>
      </trkpt>
      <trkpt lat="46.01098" lon="4.76065">
        <ele>208</ele>
        <time>2017-12-09T11:42:37Z</time>
      </trkpt>
      <trkpt lat="46.01092" lon="4.76067">
        <ele>208</ele>
        <time>2017-12-09T11:42:39Z</time>
      </trkpt>
      <trkpt lat="46.01087" lon="4.76068">
        <ele>208</ele>
        <time>2017-12-09T11:42:40Z</time>
      </trkpt>
      <trkpt lat="46.01082" lon="4.76069">
        <ele>209</ele>
        <time>2017-12-09T11:42:41Z</time>
      </trkpt>
      <trkpt lat="46.01077" lon="4.76069">
        <ele>209</ele>
        <time>2017-12-09T11:42:42Z</time>
      </trkpt>
      <trkpt lat="46.01069" lon="4.7607">
        <ele>209</ele>
        <time>2017-12-09T11:42:44Z</time>
      </trkpt>
      <trkpt lat="46.01064" lon="4.7607">
        <ele>209</ele>
        <time>2017-12-09T11:42:45Z</time>
      </trkpt>
      <trkpt lat="46.01057" lon="4.7607">
        <ele>209</ele>
        <time>2017-12-09T11:42:47Z</time>
      </trkpt>
      <trkpt lat="46.01053" lon="4.76069">
        <ele>210</ele>
        <time>2017-12-09T11:42:48Z</time>
      </trkpt>
      <trkpt lat="46.01046" lon="4.7607">
        <ele>210</ele>
        <time>2017-12-09T11:42:50Z</time>
      </trkpt>
      <trkpt lat="46.01042" lon="4.7607">
        <ele>210</ele>
        <time>2017-12-09T11:42:51Z</time>
      </trkpt>
      <trkpt lat="46.01033" lon="4.76072">
        <ele>210</ele>
        <time>2017-12-09T11:42:54Z</time>
      </trkpt>
      <trkpt lat="46.0103" lon="4.76071">
        <ele>210</ele>
        <time>2017-12-09T11:42:55Z</time>
      </trkpt>
      <trkpt lat="46.01021" lon="4.76071">
        <ele>210</ele>
        <time>2017-12-09T11:42:57Z</time>
      </trkpt>
      <trkpt lat="46.01017" lon="4.76072">
        <ele>211</ele>
        <time>2017-12-09T11:42:58Z</time>
      </trkpt>
      <trkpt lat="46.01008" lon="4.76073">
        <ele>211</ele>
        <time>2017-12-09T11:43:00Z</time>
      </trkpt>
      <trkpt lat="46.01003" lon="4.76074">
        <ele>211</ele>
        <time>2017-12-09T11:43:01Z</time>
      </trkpt>
      <trkpt lat="46.00998" lon="4.76075">
        <ele>212</ele>
        <time>2017-12-09T11:43:02Z</time>
      </trkpt>
      <trkpt lat="46.00994" lon="4.76076">
        <ele>212</ele>
        <time>2017-12-09T11:43:03Z</time>
      </trkpt>
      <trkpt lat="46.00985" lon="4.76077">
        <ele>212</ele>
        <time>2017-12-09T11:43:05Z</time>
      </trkpt>
      <trkpt lat="46.00981" lon="4.76078">
        <ele>212</ele>
        <time>2017-12-09T11:43:06Z</time>
      </trkpt>
      <trkpt lat="46.00976" lon="4.76078">
        <ele>212</ele>
        <time>2017-12-09T11:43:07Z</time>
      </trkpt>
      <trkpt lat="46.00971" lon="4.76078">
        <ele>212</ele>
        <time>2017-12-09T11:43:08Z</time>
      </trkpt>
      <trkpt lat="46.00966" lon="4.76079">
        <ele>212</ele>
        <time>2017-12-09T11:43:09Z</time>
      </trkpt>
      <trkpt lat="46.00962" lon="4.7608">
        <ele>212</ele>
        <time>2017-12-09T11:43:10Z</time>
      </trkpt>
      <trkpt lat="46.00954" lon="4.76081">
        <ele>212</ele>
        <time>2017-12-09T11:43:12Z</time>
      </trkpt>
      <trkpt lat="46.0095" lon="4.76082">
        <ele>212</ele>
        <time>2017-12-09T11:43:13Z</time>
      </trkpt>
      <trkpt lat="46.00942" lon="4.76084">
        <ele>213</ele>
        <time>2017-12-09T11:43:15Z</time>
      </trkpt>
      <trkpt lat="46.00939" lon="4.76085">
        <ele>213</ele>
        <time>2017-12-09T11:43:16Z</time>
      </trkpt>
      <trkpt lat="46.00931" lon="4.76087">
        <ele>213</ele>
        <time>2017-12-09T11:43:18Z</time>
      </trkpt>
      <trkpt lat="46.00927" lon="4.76088">
        <ele>213</ele>
        <time>2017-12-09T11:43:19Z</time>
      </trkpt>
      <trkpt lat="46.00919" lon="4.7609">
        <ele>213</ele>
        <time>2017-12-09T11:43:21Z</time>
      </trkpt>
      <trkpt lat="46.00916" lon="4.7609">
        <ele>214</ele>
        <time>2017-12-09T11:43:22Z</time>
      </trkpt>
      <trkpt lat="46.00909" lon="4.76092">
        <ele>214</ele>
        <time>2017-12-09T11:43:24Z</time>
      </trkpt>
      <trkpt lat="46.00905" lon="4.76093">
        <ele>214</ele>
        <time>2017-12-09T11:43:25Z</time>
      </trkpt>
      <trkpt lat="46.00898" lon="4.76095">
        <ele>214</ele>
        <time>2017-12-09T11:43:27Z</time>
      </trkpt>
      <trkpt lat="46.00894" lon="4.76096">
        <ele>214</ele>
        <time>2017-12-09T11:43:28Z</time>
      </trkpt>
      <trkpt lat="46.00887" lon="4.76097">
        <ele>215</ele>
        <time>2017-12-09T11:43:30Z</time>
      </trkpt>
      <trkpt lat="46.00883" lon="4.76098">
        <ele>215</ele>
        <time>2017-12-09T11:43:31Z</time>
      </trkpt>
      <trkpt lat="46.00876" lon="4.76101">
        <ele>215</ele>
        <time>2017-12-09T11:43:33Z</time>
      </trkpt>
      <trkpt lat="46.00873" lon="4.76102">
        <ele>215</ele>
        <time>2017-12-09T11:43:34Z</time>
      </trkpt>
      <trkpt lat="46.00865" lon="4.76103">
        <ele>215</ele>
        <time>2017-12-09T11:43:36Z</time>
      </trkpt>
      <trkpt lat="46.00862" lon="4.76104">
        <ele>215</ele>
        <time>2017-12-09T11:43:37Z</time>
      </trkpt>
      <trkpt lat="46.00856" lon="4.76107">
        <ele>215</ele>
        <time>2017-12-09T11:43:39Z</time>
      </trkpt>
      <trkpt lat="46.00853" lon="4.76108">
        <ele>215</ele>
        <time>2017-12-09T11:43:40Z</time>
      </trkpt>
      <trkpt lat="46.00847" lon="4.76108">
        <ele>216</ele>
        <time>2017-12-09T11:43:42Z</time>
      </trkpt>
      <trkpt lat="46.00843" lon="4.76108">
        <ele>216</ele>
        <time>2017-12-09T11:43:43Z</time>
      </trkpt>
      <trkpt lat="46.00837" lon="4.76109">
        <ele>216</ele>
        <time>2017-12-09T11:43:45Z</time>
      </trkpt>
      <trkpt lat="46.00834" lon="4.7611">
        <ele>216</ele>
        <time>2017-12-09T11:43:46Z</time>
      </trkpt>
      <trkpt lat="46.00828" lon="4.76111">
        <ele>218</ele>
        <time>2017-12-09T11:43:48Z</time>
      </trkpt>
      <trkpt lat="46.00825" lon="4.76111">
        <ele>218</ele>
        <time>2017-12-09T11:43:49Z</time>
      </trkpt>
      <trkpt lat="46.00818" lon="4.76112">
        <ele>218</ele>
        <time>2017-12-09T11:43:51Z</time>
      </trkpt>
      <trkpt lat="46.00815" lon="4.76112">
        <ele>218</ele>
        <time>2017-12-09T11:43:52Z</time>
      </trkpt>
      <trkpt lat="46.00806" lon="4.76112">
        <ele>218</ele>
        <time>2017-12-09T11:43:55Z</time>
      </trkpt>
      <trkpt lat="46.00804" lon="4.76112">
        <ele>218</ele>
        <time>2017-12-09T11:43:56Z</time>
      </trkpt>
      <trkpt lat="46.00795" lon="4.76112">
        <ele>219</ele>
        <time>2017-12-09T11:43:59Z</time>
      </trkpt>
      <trkpt lat="46.00793" lon="4.76112">
        <ele>219</ele>
        <time>2017-12-09T11:44:00Z</time>
      </trkpt>
      <trkpt lat="46.00784" lon="4.76113">
        <ele>219</ele>
        <time>2017-12-09T11:44:03Z</time>
      </trkpt>
      <trkpt lat="46.00781" lon="4.76113">
        <ele>219</ele>
        <time>2017-12-09T11:44:04Z</time>
      </trkpt>
      <trkpt lat="46.00772" lon="4.76114">
        <ele>219</ele>
        <time>2017-12-09T11:44:07Z</time>
      </trkpt>
      <trkpt lat="46.0077" lon="4.76114">
        <ele>219</ele>
        <time>2017-12-09T11:44:08Z</time>
      </trkpt>
      <trkpt lat="46.00762" lon="4.76114">
        <ele>219</ele>
        <time>2017-12-09T11:44:11Z</time>
      </trkpt>
      <trkpt lat="46.00759" lon="4.76114">
        <ele>219</ele>
        <time>2017-12-09T11:44:12Z</time>
      </trkpt>
      <trkpt lat="46.00752" lon="4.76115">
        <ele>219</ele>
        <time>2017-12-09T11:44:15Z</time>
      </trkpt>
      <trkpt lat="46.00749" lon="4.76116">
        <ele>223</ele>
        <time>2017-12-09T11:44:16Z</time>
      </trkpt>
      <trkpt lat="46.00741" lon="4.76118">
        <ele>223</ele>
        <time>2017-12-09T11:44:19Z</time>
      </trkpt>
      <trkpt lat="46.00738" lon="4.76118">
        <ele>223</ele>
        <time>2017-12-09T11:44:20Z</time>
      </trkpt>
      <trkpt lat="46.00731" lon="4.76118">
        <ele>224</ele>
        <time>2017-12-09T11:44:23Z</time>
      </trkpt>
      <trkpt lat="46.00728" lon="4.76118">
        <ele>224</ele>
        <time>2017-12-09T11:44:24Z</time>
      </trkpt>
      <trkpt lat="46.00721" lon="4.76118">
        <ele>224</ele>
        <time>2017-12-09T11:44:27Z</time>
      </trkpt>
      <trkpt lat="46.00718" lon="4.76118">
        <ele>224</ele>
        <time>2017-12-09T11:44:28Z</time>
      </trkpt>
      <trkpt lat="46.00711" lon="4.76119">
        <ele>224</ele>
        <time>2017-12-09T11:44:31Z</time>
      </trkpt>
      <trkpt lat="46.00708" lon="4.76119">
        <ele>224</ele>
        <time>2017-12-09T11:44:32Z</time>
      </trkpt>
      <trkpt lat="46.00701" lon="4.7612">
        <ele>225</ele>
        <time>2017-12-09T11:44:35Z</time>
      </trkpt>
      <trkpt lat="46.00699" lon="4.76121">
        <ele>225</ele>
        <time>2017-12-09T11:44:36Z</time>
      </trkpt>
      <trkpt lat="46.00692" lon="4.76125">
        <ele>225</ele>
        <time>2017-12-09T11:44:39Z</time>
      </trkpt>
      <trkpt lat="46.00689" lon="4.76126">
        <ele>225</ele>
        <time>2017-12-09T11:44:40Z</time>
      </trkpt>
      <trkpt lat="46.0068" lon="4.76128">
        <ele>226</ele>
        <time>2017-12-09T11:44:45Z</time>
      </trkpt>
      <trkpt lat="46.00678" lon="4.76128">
        <ele>226</ele>
        <time>2017-12-09T11:44:46Z</time>
      </trkpt>
      <trkpt lat="46.00669" lon="4.76129">
        <ele>226</ele>
        <time>2017-12-09T11:44:50Z</time>
      </trkpt>
      <trkpt lat="46.00667" lon="4.7613">
        <ele>226</ele>
        <time>2017-12-09T11:44:51Z</time>
      </trkpt>
      <trkpt lat="46.0066" lon="4.7613">
        <ele>228</ele>
        <time>2017-12-09T11:44:54Z</time>
      </trkpt>
      <trkpt lat="46.00658" lon="4.7613">
        <ele>228</ele>
        <time>2017-12-09T11:44:55Z</time>
      </trkpt>
      <trkpt lat="46.00651" lon="4.76123">
        <ele>228</ele>
        <time>2017-12-09T11:44:59Z</time>
      </trkpt>
      <trkpt lat="46.0065" lon="4.76121">
        <ele>228</ele>
        <time>2017-12-09T11:45:00Z</time>
      </trkpt>
      <trkpt lat="46.00643" lon="4.76116">
        <ele>228</ele>
        <time>2017-12-09T11:45:04Z</time>
      </trkpt>
      <trkpt lat="46.0064" lon="4.76116">
        <ele>228</ele>
        <time>2017-12-09T11:45:05Z</time>
      </trkpt>
      <trkpt lat="46.00635" lon="4.76124">
        <ele>228</ele>
        <time>2017-12-09T11:45:08Z</time>
      </trkpt>
      <trkpt lat="46.00634" lon="4.76128">
        <ele>228</ele>
        <time>2017-12-09T11:45:09Z</time>
      </trkpt>
      <trkpt lat="46.00634" lon="4.76137">
        <ele>228</ele>
        <time>2017-12-09T11:45:11Z</time>
      </trkpt>
      <trkpt lat="46.00634" lon="4.76141">
        <ele>228</ele>
        <time>2017-12-09T11:45:12Z</time>
      </trkpt>
      <trkpt lat="46.00635" lon="4.7615">
        <ele>228</ele>
        <time>2017-12-09T11:45:14Z</time>
      </trkpt>
      <trkpt lat="46.00635" lon="4.76154">
        <ele>228</ele>
        <time>2017-12-09T11:45:15Z</time>
      </trkpt>
      <trkpt lat="46.00634" lon="4.76163">
        <ele>228</ele>
        <time>2017-12-09T11:45:17Z</time>
      </trkpt>
      <trkpt lat="46.00634" lon="4.76167">
        <ele>230</ele>
        <time>2017-12-09T11:45:18Z</time>
      </trkpt>
      <trkpt lat="46.00633" lon="4.76177">
        <ele>230</ele>
        <time>2017-12-09T11:45:20Z</time>
      </trkpt>
      <trkpt lat="46.00633" lon="4.76181">
        <ele>230</ele>
        <time>2017-12-09T11:45:21Z</time>
      </trkpt>
      <trkpt lat="46.00632" lon="4.76193">
        <ele>230</ele>
        <time>2017-12-09T11:45:24Z</time>
      </trkpt>
      <trkpt lat="46.00631" lon="4.76195">
        <ele>230</ele>
        <time>2017-12-09T11:45:25Z</time>
      </trkpt>
      <trkpt lat="46.00626" lon="4.762">
        <ele>230</ele>
        <time>2017-12-09T11:45:27Z</time>
      </trkpt>
      <trkpt lat="46.00623" lon="4.76202">
        <ele>230</ele>
        <time>2017-12-09T11:45:28Z</time>
      </trkpt>
      <trkpt lat="46.00615" lon="4.76201">
        <ele>230</ele>
        <time>2017-12-09T11:45:30Z</time>
      </trkpt>
      <trkpt lat="46.00612" lon="4.76198">
        <ele>230</ele>
        <time>2017-12-09T11:45:31Z</time>
      </trkpt>
      <trkpt lat="46.00608" lon="4.76195">
        <ele>230</ele>
        <time>2017-12-09T11:45:32Z</time>
      </trkpt>
      <trkpt lat="46.00603" lon="4.76191">
        <ele>230</ele>
        <time>2017-12-09T11:45:33Z</time>
      </trkpt>
      <trkpt lat="46.00598" lon="4.76189">
        <ele>230</ele>
        <time>2017-12-09T11:45:34Z</time>
      </trkpt>
      <trkpt lat="46.00593" lon="4.76188">
        <ele>230</ele>
        <time>2017-12-09T11:45:35Z</time>
      </trkpt>
      <trkpt lat="46.00588" lon="4.76187">
        <ele>230</ele>
        <time>2017-12-09T11:45:36Z</time>
      </trkpt>
      <trkpt lat="46.00583" lon="4.76185">
        <ele>230</ele>
        <time>2017-12-09T11:45:37Z</time>
      </trkpt>
      <trkpt lat="46.00578" lon="4.76185">
        <ele>230</ele>
        <time>2017-12-09T11:45:38Z</time>
      </trkpt>
      <trkpt lat="46.00572" lon="4.76184">
        <ele>230</ele>
        <time>2017-12-09T11:45:39Z</time>
      </trkpt>
      <trkpt lat="46.00566" lon="4.76182">
        <ele>230</ele>
        <time>2017-12-09T11:45:40Z</time>
      </trkpt>
      <trkpt lat="46.0056" lon="4.76179">
        <ele>230</ele>
        <time>2017-12-09T11:45:41Z</time>
      </trkpt>
      <trkpt lat="46.00554" lon="4.76177">
        <ele>230</ele>
        <time>2017-12-09T11:45:42Z</time>
      </trkpt>
      <trkpt lat="46.00547" lon="4.76174">
        <ele>230</ele>
        <time>2017-12-09T11:45:43Z</time>
      </trkpt>
      <trkpt lat="46.00542" lon="4.76169">
        <ele>230</ele>
        <time>2017-12-09T11:45:44Z</time>
      </trkpt>
      <trkpt lat="46.00536" lon="4.76164">
        <ele>228</ele>
        <time>2017-12-09T11:45:45Z</time>
      </trkpt>
      <trkpt lat="46.0053" lon="4.76159">
        <ele>228</ele>
        <time>2017-12-09T11:45:46Z</time>
      </trkpt>
      <trkpt lat="46.00524" lon="4.76153">
        <ele>228</ele>
        <time>2017-12-09T11:45:47Z</time>
      </trkpt>
      <trkpt lat="46.00518" lon="4.76147">
        <ele>228</ele>
        <time>2017-12-09T11:45:48Z</time>
      </trkpt>
      <trkpt lat="46.00512" lon="4.76141">
        <ele>227</ele>
        <time>2017-12-09T11:45:49Z</time>
      </trkpt>
      <trkpt lat="46.00505" lon="4.76135">
        <ele>227</ele>
        <time>2017-12-09T11:45:50Z</time>
      </trkpt>
      <trkpt lat="46.005" lon="4.76128">
        <ele>227</ele>
        <time>2017-12-09T11:45:51Z</time>
      </trkpt>
      <trkpt lat="46.00494" lon="4.76121">
        <ele>227</ele>
        <time>2017-12-09T11:45:52Z</time>
      </trkpt>
      <trkpt lat="46.00488" lon="4.76114">
        <ele>227</ele>
        <time>2017-12-09T11:45:53Z</time>
      </trkpt>
      <trkpt lat="46.00482" lon="4.76108">
        <ele>227</ele>
        <time>2017-12-09T11:45:54Z</time>
      </trkpt>
      <trkpt lat="46.00475" lon="4.76102">
        <ele>227</ele>
        <time>2017-12-09T11:45:55Z</time>
      </trkpt>
      <trkpt lat="46.00468" lon="4.76096">
        <ele>227</ele>
        <time>2017-12-09T11:45:56Z</time>
      </trkpt>
      <trkpt lat="46.00461" lon="4.76091">
        <ele>227</ele>
        <time>2017-12-09T11:45:57Z</time>
      </trkpt>
      <trkpt lat="46.00454" lon="4.76086">
        <ele>227</ele>
        <time>2017-12-09T11:45:58Z</time>
      </trkpt>
      <trkpt lat="46.00449" lon="4.76083">
        <ele>224</ele>
        <time>2017-12-09T11:45:59Z</time>
      </trkpt>
      <trkpt lat="46.00441" lon="4.7608">
        <ele>224</ele>
        <time>2017-12-09T11:46:00Z</time>
      </trkpt>
      <trkpt lat="46.00434" lon="4.76078">
        <ele>224</ele>
        <time>2017-12-09T11:46:01Z</time>
      </trkpt>
      <trkpt lat="46.00426" lon="4.76075">
        <ele>225</ele>
        <time>2017-12-09T11:46:02Z</time>
      </trkpt>
      <trkpt lat="46.00419" lon="4.76075">
        <ele>225</ele>
        <time>2017-12-09T11:46:03Z</time>
      </trkpt>
      <trkpt lat="46.00412" lon="4.76074">
        <ele>226</ele>
        <time>2017-12-09T11:46:04Z</time>
      </trkpt>
      <trkpt lat="46.00405" lon="4.76074">
        <ele>226</ele>
        <time>2017-12-09T11:46:05Z</time>
      </trkpt>
      <trkpt lat="46.00398" lon="4.76075">
        <ele>226</ele>
        <time>2017-12-09T11:46:06Z</time>
      </trkpt>
      <trkpt lat="46.00394" lon="4.76072">
        <ele>226</ele>
        <time>2017-12-09T11:46:07Z</time>
      </trkpt>
      <trkpt lat="46.00388" lon="4.76068">
        <ele>226</ele>
        <time>2017-12-09T11:46:08Z</time>
      </trkpt>
      <trkpt lat="46.00385" lon="4.7606">
        <ele>225</ele>
        <time>2017-12-09T11:46:09Z</time>
      </trkpt>
      <trkpt lat="46.00384" lon="4.76052">
        <ele>225</ele>
        <time>2017-12-09T11:46:10Z</time>
      </trkpt>
      <trkpt lat="46.00383" lon="4.76045">
        <ele>225</ele>
        <time>2017-12-09T11:46:11Z</time>
      </trkpt>
      <trkpt lat="46.00386" lon="4.76039">
        <ele>225</ele>
        <time>2017-12-09T11:46:12Z</time>
      </trkpt>
      <trkpt lat="46.00389" lon="4.76033">
        <ele>225</ele>
        <time>2017-12-09T11:46:13Z</time>
      </trkpt>
      <trkpt lat="46.00393" lon="4.7603">
        <ele>225</ele>
        <time>2017-12-09T11:46:14Z</time>
      </trkpt>
      <trkpt lat="46.00399" lon="4.76024">
        <ele>224</ele>
        <time>2017-12-09T11:46:15Z</time>
      </trkpt>
      <trkpt lat="46.00405" lon="4.76017">
        <ele>223</ele>
        <time>2017-12-09T11:46:16Z</time>
      </trkpt>
      <trkpt lat="46.00408" lon="4.76014">
        <ele>223</ele>
        <time>2017-12-09T11:46:17Z</time>
      </trkpt>
      <trkpt lat="46.00415" lon="4.76008">
        <ele>222</ele>
        <time>2017-12-09T11:46:18Z</time>
      </trkpt>
      <trkpt lat="46.00421" lon="4.76003">
        <ele>221</ele>
        <time>2017-12-09T11:46:19Z</time>
      </trkpt>
      <trkpt lat="46.00426" lon="4.75997">
        <ele>220</ele>
        <time>2017-12-09T11:46:20Z</time>
      </trkpt>
      <trkpt lat="46.0043" lon="4.75993">
        <ele>220</ele>
        <time>2017-12-09T11:46:21Z</time>
      </trkpt>
      <trkpt lat="46.00436" lon="4.75987">
        <ele>220</ele>
        <time>2017-12-09T11:46:22Z</time>
      </trkpt>
      <trkpt lat="46.00442" lon="4.75977">
        <ele>219</ele>
        <time>2017-12-09T11:46:23Z</time>
      </trkpt>
      <trkpt lat="46.00448" lon="4.75969">
        <ele>219</ele>
        <time>2017-12-09T11:46:24Z</time>
      </trkpt>
      <trkpt lat="46.00447" lon="4.75956">
        <ele>219</ele>
        <time>2017-12-09T11:46:25Z</time>
      </trkpt>
      <trkpt lat="46.00447" lon="4.75944">
        <ele>219</ele>
        <time>2017-12-09T11:46:26Z</time>
      </trkpt>
      <trkpt lat="46.00445" lon="4.75933">
        <ele>218</ele>
        <time>2017-12-09T11:46:27Z</time>
      </trkpt>
      <trkpt lat="46.00443" lon="4.75922">
        <ele>218</ele>
        <time>2017-12-09T11:46:28Z</time>
      </trkpt>
      <trkpt lat="46.00439" lon="4.75912">
        <ele>217</ele>
        <time>2017-12-09T11:46:29Z</time>
      </trkpt>
      <trkpt lat="46.00436" lon="4.75902">
        <ele>217</ele>
        <time>2017-12-09T11:46:30Z</time>
      </trkpt>
      <trkpt lat="46.00429" lon="4.7589">
        <ele>217</ele>
        <time>2017-12-09T11:46:31Z</time>
      </trkpt>
      <trkpt lat="46.00425" lon="4.7588">
        <ele>217</ele>
        <time>2017-12-09T11:46:32Z</time>
      </trkpt>
      <trkpt lat="46.00419" lon="4.7587">
        <ele>216</ele>
        <time>2017-12-09T11:46:33Z</time>
      </trkpt>
      <trkpt lat="46.00412" lon="4.7586">
        <ele>215</ele>
        <time>2017-12-09T11:46:34Z</time>
      </trkpt>
      <trkpt lat="46.00406" lon="4.7585">
        <ele>214</ele>
        <time>2017-12-09T11:46:35Z</time>
      </trkpt>
      <trkpt lat="46.004" lon="4.75841">
        <ele>214</ele>
        <time>2017-12-09T11:46:36Z</time>
      </trkpt>
      <trkpt lat="46.00393" lon="4.75831">
        <ele>213</ele>
        <time>2017-12-09T11:46:37Z</time>
      </trkpt>
      <trkpt lat="46.00388" lon="4.75821">
        <ele>213</ele>
        <time>2017-12-09T11:46:38Z</time>
      </trkpt>
      <trkpt lat="46.00383" lon="4.75812">
        <ele>213</ele>
        <time>2017-12-09T11:46:39Z</time>
      </trkpt>
      <trkpt lat="46.00377" lon="4.75804">
        <ele>213</ele>
        <time>2017-12-09T11:46:40Z</time>
      </trkpt>
      <trkpt lat="46.0037" lon="4.75796">
        <ele>213</ele>
        <time>2017-12-09T11:46:41Z</time>
      </trkpt>
      <trkpt lat="46.00365" lon="4.75787">
        <ele>213</ele>
        <time>2017-12-09T11:46:42Z</time>
      </trkpt>
      <trkpt lat="46.0036" lon="4.75779">
        <ele>212</ele>
        <time>2017-12-09T11:46:43Z</time>
      </trkpt>
      <trkpt lat="46.00354" lon="4.75771">
        <ele>212</ele>
        <time>2017-12-09T11:46:44Z</time>
      </trkpt>
      <trkpt lat="46.00349" lon="4.75762">
        <ele>211</ele>
        <time>2017-12-09T11:46:45Z</time>
      </trkpt>
      <trkpt lat="46.00344" lon="4.75752">
        <ele>210</ele>
        <time>2017-12-09T11:46:46Z</time>
      </trkpt>
      <trkpt lat="46.00338" lon="4.75743">
        <ele>209</ele>
        <time>2017-12-09T11:46:47Z</time>
      </trkpt>
      <trkpt lat="46.00333" lon="4.75734">
        <ele>208</ele>
        <time>2017-12-09T11:46:48Z</time>
      </trkpt>
      <trkpt lat="46.00326" lon="4.75726">
        <ele>208</ele>
        <time>2017-12-09T11:46:49Z</time>
      </trkpt>
      <trkpt lat="46.0032" lon="4.75717">
        <ele>208</ele>
        <time>2017-12-09T11:46:50Z</time>
      </trkpt>
      <trkpt lat="46.00316" lon="4.75704">
        <ele>208</ele>
        <time>2017-12-09T11:46:51Z</time>
      </trkpt>
      <trkpt lat="46.0031" lon="4.75695">
        <ele>208</ele>
        <time>2017-12-09T11:46:52Z</time>
      </trkpt>
      <trkpt lat="46.00303" lon="4.75686">
        <ele>208</ele>
        <time>2017-12-09T11:46:53Z</time>
      </trkpt>
      <trkpt lat="46.00298" lon="4.75676">
        <ele>208</ele>
        <time>2017-12-09T11:46:54Z</time>
      </trkpt>
      <trkpt lat="46.00292" lon="4.75667">
        <ele>206</ele>
        <time>2017-12-09T11:46:55Z</time>
      </trkpt>
      <trkpt lat="46.00286" lon="4.75657">
        <ele>207</ele>
        <time>2017-12-09T11:46:56Z</time>
      </trkpt>
      <trkpt lat="46.00279" lon="4.75647">
        <ele>207</ele>
        <time>2017-12-09T11:46:57Z</time>
      </trkpt>
      <trkpt lat="46.00274" lon="4.75638">
        <ele>207</ele>
        <time>2017-12-09T11:46:58Z</time>
      </trkpt>
      <trkpt lat="46.00268" lon="4.75628">
        <ele>206</ele>
        <time>2017-12-09T11:46:59Z</time>
      </trkpt>
      <trkpt lat="46.0026" lon="4.75616">
        <ele>206</ele>
        <time>2017-12-09T11:47:00Z</time>
      </trkpt>
      <trkpt lat="46.00253" lon="4.75607">
        <ele>205</ele>
        <time>2017-12-09T11:47:01Z</time>
      </trkpt>
      <trkpt lat="46.00248" lon="4.75596">
        <ele>209</ele>
        <time>2017-12-09T11:47:02Z</time>
      </trkpt>
      <trkpt lat="46.00242" lon="4.75586">
        <ele>207</ele>
        <time>2017-12-09T11:47:03Z</time>
      </trkpt>
      <trkpt lat="46.00236" lon="4.75575">
        <ele>205</ele>
        <time>2017-12-09T11:47:04Z</time>
      </trkpt>
      <trkpt lat="46.0023" lon="4.75563">
        <ele>206</ele>
        <time>2017-12-09T11:47:05Z</time>
      </trkpt>
      <trkpt lat="46.00226" lon="4.75551">
        <ele>206</ele>
        <time>2017-12-09T11:47:06Z</time>
      </trkpt>
      <trkpt lat="46.00223" lon="4.75537">
        <ele>205</ele>
        <time>2017-12-09T11:47:07Z</time>
      </trkpt>
      <trkpt lat="46.00221" lon="4.75522">
        <ele>204</ele>
        <time>2017-12-09T11:47:08Z</time>
      </trkpt>
      <trkpt lat="46.00221" lon="4.75508">
        <ele>203</ele>
        <time>2017-12-09T11:47:09Z</time>
      </trkpt>
      <trkpt lat="46.0022" lon="4.75494">
        <ele>198</ele>
        <time>2017-12-09T11:47:10Z</time>
      </trkpt>
      <trkpt lat="46.00213" lon="4.75478">
        <ele>198</ele>
        <time>2017-12-09T11:47:11Z</time>
      </trkpt>
      <trkpt lat="46.00213" lon="4.75464">
        <ele>198</ele>
        <time>2017-12-09T11:47:12Z</time>
      </trkpt>
      <trkpt lat="46.00216" lon="4.75447">
        <ele>197</ele>
        <time>2017-12-09T11:47:13Z</time>
      </trkpt>
      <trkpt lat="46.00215" lon="4.75433">
        <ele>196</ele>
        <time>2017-12-09T11:47:14Z</time>
      </trkpt>
      <trkpt lat="46.00215" lon="4.75419">
        <ele>196</ele>
        <time>2017-12-09T11:47:15Z</time>
      </trkpt>
      <trkpt lat="46.00214" lon="4.75403">
        <ele>192</ele>
        <time>2017-12-09T11:47:16Z</time>
      </trkpt>
      <trkpt lat="46.00215" lon="4.75389">
        <ele>192</ele>
        <time>2017-12-09T11:47:17Z</time>
      </trkpt>
      <trkpt lat="46.00215" lon="4.75375">
        <ele>191</ele>
        <time>2017-12-09T11:47:18Z</time>
      </trkpt>
      <trkpt lat="46.00215" lon="4.7536">
        <ele>191</ele>
        <time>2017-12-09T11:47:19Z</time>
      </trkpt>
      <trkpt lat="46.00215" lon="4.75346">
        <ele>190</ele>
        <time>2017-12-09T11:47:20Z</time>
      </trkpt>
      <trkpt lat="46.00215" lon="4.75331">
        <ele>186</ele>
        <time>2017-12-09T11:47:21Z</time>
      </trkpt>
      <trkpt lat="46.00215" lon="4.75316">
        <ele>186</ele>
        <time>2017-12-09T11:47:22Z</time>
      </trkpt>
      <trkpt lat="46.00216" lon="4.75301">
        <ele>185</ele>
        <time>2017-12-09T11:47:23Z</time>
      </trkpt>
      <trkpt lat="46.00215" lon="4.75289">
        <ele>185</ele>
        <time>2017-12-09T11:47:24Z</time>
      </trkpt>
      <trkpt lat="46.00212" lon="4.75276">
        <ele>184</ele>
        <time>2017-12-09T11:47:25Z</time>
      </trkpt>
      <trkpt lat="46.00212" lon="4.75265">
        <ele>184</ele>
        <time>2017-12-09T11:47:26Z</time>
      </trkpt>
      <trkpt lat="46.00211" lon="4.75255">
        <ele>184</ele>
        <time>2017-12-09T11:47:27Z</time>
      </trkpt>
      <trkpt lat="46.00212" lon="4.75245">
        <ele>180</ele>
        <time>2017-12-09T11:47:28Z</time>
      </trkpt>
      <trkpt lat="46.00213" lon="4.75235">
        <ele>180</ele>
        <time>2017-12-09T11:47:29Z</time>
      </trkpt>
      <trkpt lat="46.00213" lon="4.75224">
        <ele>180</ele>
        <time>2017-12-09T11:47:30Z</time>
      </trkpt>
      <trkpt lat="46.00213" lon="4.75213">
        <ele>180</ele>
        <time>2017-12-09T11:47:31Z</time>
      </trkpt>
      <trkpt lat="46.00213" lon="4.75202">
        <ele>179</ele>
        <time>2017-12-09T11:47:32Z</time>
      </trkpt>
      <trkpt lat="46.00212" lon="4.7519">
        <ele>179</ele>
        <time>2017-12-09T11:47:33Z</time>
      </trkpt>
      <trkpt lat="46.00213" lon="4.75181">
        <ele>179</ele>
        <time>2017-12-09T11:47:34Z</time>
      </trkpt>
      <trkpt lat="46.00212" lon="4.75171">
        <ele>179</ele>
        <time>2017-12-09T11:47:35Z</time>
      </trkpt>
      <trkpt lat="46.00212" lon="4.75163">
        <ele>177</ele>
        <time>2017-12-09T11:47:36Z</time>
      </trkpt>
      <trkpt lat="46.00212" lon="4.75156">
        <ele>177</ele>
        <time>2017-12-09T11:47:37Z</time>
      </trkpt>
      <trkpt lat="46.00212" lon="4.75149">
        <ele>177</ele>
        <time>2017-12-09T11:47:38Z</time>
      </trkpt>
      <trkpt lat="46.00213" lon="4.75143">
        <ele>177</ele>
        <time>2017-12-09T11:47:39Z</time>
      </trkpt>
      <trkpt lat="46.00214" lon="4.75132">
        <ele>176</ele>
        <time>2017-12-09T11:47:41Z</time>
      </trkpt>
      <trkpt lat="46.00215" lon="4.75129">
        <ele>176</ele>
        <time>2017-12-09T11:47:42Z</time>
      </trkpt>
      <trkpt lat="46.00216" lon="4.75116">
        <ele>176</ele>
        <time>2017-12-09T11:47:49Z</time>
      </trkpt>
      <trkpt lat="46.00214" lon="4.75114">
        <ele>176</ele>
        <time>2017-12-09T11:47:50Z</time>
      </trkpt>
      <trkpt lat="46.00207" lon="4.75109">
        <ele>176</ele>
        <time>2017-12-09T11:47:53Z</time>
      </trkpt>
      <trkpt lat="46.00204" lon="4.75108">
        <ele>176</ele>
        <time>2017-12-09T11:47:54Z</time>
      </trkpt>
      <trkpt lat="46.00197" lon="4.75107">
        <ele>176</ele>
        <time>2017-12-09T11:47:57Z</time>
      </trkpt>
      <trkpt lat="46.00194" lon="4.75106">
        <ele>176</ele>
        <time>2017-12-09T11:47:58Z</time>
      </trkpt>
      <trkpt lat="46.00186" lon="4.75107">
        <ele>176</ele>
        <time>2017-12-09T11:48:00Z</time>
      </trkpt>
      <trkpt lat="46.00182" lon="4.75108">
        <ele>176</ele>
        <time>2017-12-09T11:48:01Z</time>
      </trkpt>
      <trkpt lat="46.00174" lon="4.75109">
        <ele>176</ele>
        <time>2017-12-09T11:48:03Z</time>
      </trkpt>
      <trkpt lat="46.0017" lon="4.75109">
        <ele>176</ele>
        <time>2017-12-09T11:48:04Z</time>
      </trkpt>
      <trkpt lat="46.00166" lon="4.75111">
        <ele>175</ele>
        <time>2017-12-09T11:48:05Z</time>
      </trkpt>
      <trkpt lat="46.00161" lon="4.75109">
        <ele>175</ele>
        <time>2017-12-09T11:48:06Z</time>
      </trkpt>
      <trkpt lat="46.00155" lon="4.75109">
        <ele>175</ele>
        <time>2017-12-09T11:48:07Z</time>
      </trkpt>
      <trkpt lat="46.0015" lon="4.75107">
        <ele>175</ele>
        <time>2017-12-09T11:48:08Z</time>
      </trkpt>
      <trkpt lat="46.00146" lon="4.75108">
        <ele>175</ele>
        <time>2017-12-09T11:48:09Z</time>
      </trkpt>
      <trkpt lat="46.00141" lon="4.75109">
        <ele>175</ele>
        <time>2017-12-09T11:48:10Z</time>
      </trkpt>
      <trkpt lat="46.00136" lon="4.75109">
        <ele>175</ele>
        <time>2017-12-09T11:48:11Z</time>
      </trkpt>
      <trkpt lat="46.00131" lon="4.7511">
        <ele>175</ele>
        <time>2017-12-09T11:48:12Z</time>
      </trkpt>
      <trkpt lat="46.00123" lon="4.7511">
        <ele>175</ele>
        <time>2017-12-09T11:48:14Z</time>
      </trkpt>
      <trkpt lat="46.00118" lon="4.7511">
        <ele>175</ele>
        <time>2017-12-09T11:48:15Z</time>
      </trkpt>
      <trkpt lat="46.00111" lon="4.75108">
        <ele>175</ele>
        <time>2017-12-09T11:48:16Z</time>
      </trkpt>
      <trkpt lat="46.00107" lon="4.75106">
        <ele>175</ele>
        <time>2017-12-09T11:48:17Z</time>
      </trkpt>
      <trkpt lat="46.00099" lon="4.75105">
        <ele>175</ele>
        <time>2017-12-09T11:48:19Z</time>
      </trkpt>
      <trkpt lat="46.00094" lon="4.75105">
        <ele>174</ele>
        <time>2017-12-09T11:48:20Z</time>
      </trkpt>
      <trkpt lat="46.00089" lon="4.75103">
        <ele>174</ele>
        <time>2017-12-09T11:48:22Z</time>
      </trkpt>
      <trkpt lat="46.00083" lon="4.75102">
        <ele>174</ele>
        <time>2017-12-09T11:48:23Z</time>
      </trkpt>
      <trkpt lat="46.00078" lon="4.75102">
        <ele>174</ele>
        <time>2017-12-09T11:48:24Z</time>
      </trkpt>
      <trkpt lat="46.00074" lon="4.75103">
        <ele>174</ele>
        <time>2017-12-09T11:48:25Z</time>
      </trkpt>
      <trkpt lat="46.00066" lon="4.75101">
        <ele>174</ele>
        <time>2017-12-09T11:48:27Z</time>
      </trkpt>
      <trkpt lat="46.0006" lon="4.75103">
        <ele>174</ele>
        <time>2017-12-09T11:48:28Z</time>
      </trkpt>
      <trkpt lat="46.00053" lon="4.75105">
        <ele>174</ele>
        <time>2017-12-09T11:48:29Z</time>
      </trkpt>
      <trkpt lat="46.00048" lon="4.75105">
        <ele>174</ele>
        <time>2017-12-09T11:48:30Z</time>
      </trkpt>
      <trkpt lat="46.00042" lon="4.75106">
        <ele>174</ele>
        <time>2017-12-09T11:48:31Z</time>
      </trkpt>
      <trkpt lat="46.00036" lon="4.75106">
        <ele>174</ele>
        <time>2017-12-09T11:48:32Z</time>
      </trkpt>
      <trkpt lat="46.00027" lon="4.75107">
        <ele>174</ele>
        <time>2017-12-09T11:48:33Z</time>
      </trkpt>
      <trkpt lat="46.00022" lon="4.75109">
        <ele>174</ele>
        <time>2017-12-09T11:48:34Z</time>
      </trkpt>
      <trkpt lat="46.00016" lon="4.75109">
        <ele>174</ele>
        <time>2017-12-09T11:48:35Z</time>
      </trkpt>
      <trkpt lat="46.00011" lon="4.75111">
        <ele>174</ele>
        <time>2017-12-09T11:48:36Z</time>
      </trkpt>
      <trkpt lat="46.00005" lon="4.75113">
        <ele>174</ele>
        <time>2017-12-09T11:48:37Z</time>
      </trkpt>
      <trkpt lat="46" lon="4.75116">
        <ele>173</ele>
        <time>2017-12-09T11:48:38Z</time>
      </trkpt>
      <trkpt lat="45.99993" lon="4.7512">
        <ele>173</ele>
        <time>2017-12-09T11:48:39Z</time>
      </trkpt>
      <trkpt lat="45.99989" lon="4.75123">
        <ele>173</ele>
        <time>2017-12-09T11:48:40Z</time>
      </trkpt>
      <trkpt lat="45.99982" lon="4.75127">
        <ele>173</ele>
        <time>2017-12-09T11:48:42Z</time>
      </trkpt>
      <trkpt lat="45.99979" lon="4.75127">
        <ele>173</ele>
        <time>2017-12-09T11:48:43Z</time>
      </trkpt>
      <trkpt lat="45.99974" lon="4.75129">
        <ele>173</ele>
        <time>2017-12-09T11:48:44Z</time>
      </trkpt>
      <trkpt lat="45.99969" lon="4.75131">
        <ele>173</ele>
        <time>2017-12-09T11:48:45Z</time>
      </trkpt>
      <trkpt lat="45.99964" lon="4.75135">
        <ele>173</ele>
        <time>2017-12-09T11:48:46Z</time>
      </trkpt>
      <trkpt lat="45.9996" lon="4.75136">
        <ele>173</ele>
        <time>2017-12-09T11:48:47Z</time>
      </trkpt>
      <trkpt lat="45.99955" lon="4.75139">
        <ele>173</ele>
        <time>2017-12-09T11:48:48Z</time>
      </trkpt>
      <trkpt lat="45.9995" lon="4.75141">
        <ele>173</ele>
        <time>2017-12-09T11:48:49Z</time>
      </trkpt>
      <trkpt lat="45.99946" lon="4.75144">
        <ele>173</ele>
        <time>2017-12-09T11:48:50Z</time>
      </trkpt>
      <trkpt lat="45.99942" lon="4.75146">
        <ele>173</ele>
        <time>2017-12-09T11:48:51Z</time>
      </trkpt>
      <trkpt lat="45.99937" lon="4.75148">
        <ele>173</ele>
        <time>2017-12-09T11:48:52Z</time>
      </trkpt>
      <trkpt lat="45.99933" lon="4.7515">
        <ele>173</ele>
        <time>2017-12-09T11:48:53Z</time>
      </trkpt>
      <trkpt lat="45.99929" lon="4.75153">
        <ele>173</ele>
        <time>2017-12-09T11:48:54Z</time>
      </trkpt>
      <trkpt lat="45.99925" lon="4.75155">
        <ele>173</ele>
        <time>2017-12-09T11:48:55Z</time>
      </trkpt>
      <trkpt lat="45.9992" lon="4.75158">
        <ele>173</ele>
        <time>2017-12-09T11:48:56Z</time>
      </trkpt>
      <trkpt lat="45.99911" lon="4.75159">
        <ele>173</ele>
        <time>2017-12-09T11:48:57Z</time>
      </trkpt>
      <trkpt lat="45.99906" lon="4.7516">
        <ele>173</ele>
        <time>2017-12-09T11:48:58Z</time>
      </trkpt>
      <trkpt lat="45.99901" lon="4.75161">
        <ele>172</ele>
        <time>2017-12-09T11:48:59Z</time>
      </trkpt>
      <trkpt lat="45.99897" lon="4.75163">
        <ele>172</ele>
        <time>2017-12-09T11:49:00Z</time>
      </trkpt>
      <trkpt lat="45.99891" lon="4.75165">
        <ele>172</ele>
        <time>2017-12-09T11:49:01Z</time>
      </trkpt>
      <trkpt lat="45.99883" lon="4.7517">
        <ele>174</ele>
        <time>2017-12-09T11:49:03Z</time>
      </trkpt>
      <trkpt lat="45.99877" lon="4.75171">
        <ele>174</ele>
        <time>2017-12-09T11:49:04Z</time>
      </trkpt>
      <trkpt lat="45.9987" lon="4.75175">
        <ele>174</ele>
        <time>2017-12-09T11:49:06Z</time>
      </trkpt>
      <trkpt lat="45.99866" lon="4.75177">
        <ele>174</ele>
        <time>2017-12-09T11:49:07Z</time>
      </trkpt>
      <trkpt lat="45.99858" lon="4.7518">
        <ele>174</ele>
        <time>2017-12-09T11:49:09Z</time>
      </trkpt>
      <trkpt lat="45.99856" lon="4.75182">
        <ele>174</ele>
        <time>2017-12-09T11:49:10Z</time>
      </trkpt>
      <trkpt lat="45.99849" lon="4.75186">
        <ele>174</ele>
        <time>2017-12-09T11:49:12Z</time>
      </trkpt>
      <trkpt lat="45.99844" lon="4.75188">
        <ele>174</ele>
        <time>2017-12-09T11:49:13Z</time>
      </trkpt>
      <trkpt lat="45.99837" lon="4.75191">
        <ele>174</ele>
        <time>2017-12-09T11:49:15Z</time>
      </trkpt>
      <trkpt lat="45.99831" lon="4.75192">
        <ele>174</ele>
        <time>2017-12-09T11:49:16Z</time>
      </trkpt>
      <trkpt lat="45.99827" lon="4.75195">
        <ele>174</ele>
        <time>2017-12-09T11:49:17Z</time>
      </trkpt>
      <trkpt lat="45.99821" lon="4.75196">
        <ele>174</ele>
        <time>2017-12-09T11:49:18Z</time>
      </trkpt>
      <trkpt lat="45.99816" lon="4.75199">
        <ele>174</ele>
        <time>2017-12-09T11:49:19Z</time>
      </trkpt>
      <trkpt lat="45.99811" lon="4.75202">
        <ele>174</ele>
        <time>2017-12-09T11:49:20Z</time>
      </trkpt>
      <trkpt lat="45.99806" lon="4.75205">
        <ele>174</ele>
        <time>2017-12-09T11:49:21Z</time>
      </trkpt>
      <trkpt lat="45.99803" lon="4.75209">
        <ele>174</ele>
        <time>2017-12-09T11:49:22Z</time>
      </trkpt>
      <trkpt lat="45.99798" lon="4.7521">
        <ele>174</ele>
        <time>2017-12-09T11:49:23Z</time>
      </trkpt>
      <trkpt lat="45.99793" lon="4.75213">
        <ele>174</ele>
        <time>2017-12-09T11:49:24Z</time>
      </trkpt>
      <trkpt lat="45.99789" lon="4.75215">
        <ele>174</ele>
        <time>2017-12-09T11:49:25Z</time>
      </trkpt>
      <trkpt lat="45.99784" lon="4.75218">
        <ele>174</ele>
        <time>2017-12-09T11:49:26Z</time>
      </trkpt>
      <trkpt lat="45.99779" lon="4.75219">
        <ele>175</ele>
        <time>2017-12-09T11:49:27Z</time>
      </trkpt>
      <trkpt lat="45.99774" lon="4.75221">
        <ele>175</ele>
        <time>2017-12-09T11:49:28Z</time>
      </trkpt>
      <trkpt lat="45.99769" lon="4.75223">
        <ele>175</ele>
        <time>2017-12-09T11:49:29Z</time>
      </trkpt>
      <trkpt lat="45.99763" lon="4.75225">
        <ele>175</ele>
        <time>2017-12-09T11:49:30Z</time>
      </trkpt>
      <trkpt lat="45.99758" lon="4.75228">
        <ele>175</ele>
        <time>2017-12-09T11:49:31Z</time>
      </trkpt>
      <trkpt lat="45.99752" lon="4.75231">
        <ele>175</ele>
        <time>2017-12-09T11:49:32Z</time>
      </trkpt>
      <trkpt lat="45.99747" lon="4.75232">
        <ele>175</ele>
        <time>2017-12-09T11:49:33Z</time>
      </trkpt>
      <trkpt lat="45.99741" lon="4.75235">
        <ele>175</ele>
        <time>2017-12-09T11:49:34Z</time>
      </trkpt>
      <trkpt lat="45.99735" lon="4.75237">
        <ele>175</ele>
        <time>2017-12-09T11:49:35Z</time>
      </trkpt>
      <trkpt lat="45.9973" lon="4.7524">
        <ele>175</ele>
        <time>2017-12-09T11:49:36Z</time>
      </trkpt>
      <trkpt lat="45.99725" lon="4.75242">
        <ele>175</ele>
        <time>2017-12-09T11:49:37Z</time>
      </trkpt>
      <trkpt lat="45.9972" lon="4.75246">
        <ele>174</ele>
        <time>2017-12-09T11:49:38Z</time>
      </trkpt>
      <trkpt lat="45.99715" lon="4.75248">
        <ele>174</ele>
        <time>2017-12-09T11:49:39Z</time>
      </trkpt>
      <trkpt lat="45.9971" lon="4.7525">
        <ele>174</ele>
        <time>2017-12-09T11:49:40Z</time>
      </trkpt>
      <trkpt lat="45.99705" lon="4.75252">
        <ele>176</ele>
        <time>2017-12-09T11:49:41Z</time>
      </trkpt>
      <trkpt lat="45.997" lon="4.75254">
        <ele>176</ele>
        <time>2017-12-09T11:49:42Z</time>
      </trkpt>
      <trkpt lat="45.99694" lon="4.75258">
        <ele>176</ele>
        <time>2017-12-09T11:49:43Z</time>
      </trkpt>
      <trkpt lat="45.99689" lon="4.75259">
        <ele>176</ele>
        <time>2017-12-09T11:49:44Z</time>
      </trkpt>
      <trkpt lat="45.99684" lon="4.75262">
        <ele>175</ele>
        <time>2017-12-09T11:49:45Z</time>
      </trkpt>
      <trkpt lat="45.99678" lon="4.75263">
        <ele>175</ele>
        <time>2017-12-09T11:49:46Z</time>
      </trkpt>
      <trkpt lat="45.99674" lon="4.75266">
        <ele>175</ele>
        <time>2017-12-09T11:49:47Z</time>
      </trkpt>
      <trkpt lat="45.99669" lon="4.75268">
        <ele>175</ele>
        <time>2017-12-09T11:49:48Z</time>
      </trkpt>
      <trkpt lat="45.99664" lon="4.75269">
        <ele>174</ele>
        <time>2017-12-09T11:49:49Z</time>
      </trkpt>
      <trkpt lat="45.9966" lon="4.75271">
        <ele>174</ele>
        <time>2017-12-09T11:49:50Z</time>
      </trkpt>
      <trkpt lat="45.99651" lon="4.75273">
        <ele>174</ele>
        <time>2017-12-09T11:49:52Z</time>
      </trkpt>
      <trkpt lat="45.99647" lon="4.75272">
        <ele>174</ele>
        <time>2017-12-09T11:49:53Z</time>
      </trkpt>
      <trkpt lat="45.99639" lon="4.75272">
        <ele>174</ele>
        <time>2017-12-09T11:49:55Z</time>
      </trkpt>
      <trkpt lat="45.99635" lon="4.75272">
        <ele>174</ele>
        <time>2017-12-09T11:49:56Z</time>
      </trkpt>
      <trkpt lat="45.99627" lon="4.75271">
        <ele>174</ele>
        <time>2017-12-09T11:49:58Z</time>
      </trkpt>
      <trkpt lat="45.99624" lon="4.75269">
        <ele>174</ele>
        <time>2017-12-09T11:49:59Z</time>
      </trkpt>
      <trkpt lat="45.99616" lon="4.75271">
        <ele>174</ele>
        <time>2017-12-09T11:50:01Z</time>
      </trkpt>
      <trkpt lat="45.99612" lon="4.75271">
        <ele>174</ele>
        <time>2017-12-09T11:50:02Z</time>
      </trkpt>
      <trkpt lat="45.99604" lon="4.75272">
        <ele>173</ele>
        <time>2017-12-09T11:50:04Z</time>
      </trkpt>
      <trkpt lat="45.996" lon="4.75271">
        <ele>173</ele>
        <time>2017-12-09T11:50:05Z</time>
      </trkpt>
      <trkpt lat="45.99592" lon="4.75267">
        <ele>173</ele>
        <time>2017-12-09T11:50:07Z</time>
      </trkpt>
      <trkpt lat="45.99587" lon="4.75265">
        <ele>173</ele>
        <time>2017-12-09T11:50:08Z</time>
      </trkpt>
      <trkpt lat="45.99581" lon="4.75263">
        <ele>172</ele>
        <time>2017-12-09T11:50:09Z</time>
      </trkpt>
      <trkpt lat="45.99577" lon="4.75264">
        <ele>172</ele>
        <time>2017-12-09T11:50:10Z</time>
      </trkpt>
      <trkpt lat="45.99572" lon="4.75266">
        <ele>172</ele>
        <time>2017-12-09T11:50:11Z</time>
      </trkpt>
      <trkpt lat="45.99569" lon="4.75269">
        <ele>172</ele>
        <time>2017-12-09T11:50:12Z</time>
      </trkpt>
      <trkpt lat="45.99563" lon="4.75273">
        <ele>172</ele>
        <time>2017-12-09T11:50:13Z</time>
      </trkpt>
      <trkpt lat="45.9956" lon="4.75277">
        <ele>172</ele>
        <time>2017-12-09T11:50:14Z</time>
      </trkpt>
      <trkpt lat="45.99557" lon="4.75282">
        <ele>172</ele>
        <time>2017-12-09T11:50:15Z</time>
      </trkpt>
      <trkpt lat="45.99552" lon="4.75285">
        <ele>172</ele>
        <time>2017-12-09T11:50:16Z</time>
      </trkpt>
      <trkpt lat="45.99544" lon="4.75291">
        <ele>172</ele>
        <time>2017-12-09T11:50:18Z</time>
      </trkpt>
      <trkpt lat="45.99539" lon="4.75292">
        <ele>172</ele>
        <time>2017-12-09T11:50:19Z</time>
      </trkpt>
      <trkpt lat="45.99534" lon="4.75294">
        <ele>172</ele>
        <time>2017-12-09T11:50:20Z</time>
      </trkpt>
      <trkpt lat="45.99529" lon="4.75295">
        <ele>172</ele>
        <time>2017-12-09T11:50:21Z</time>
      </trkpt>
      <trkpt lat="45.99524" lon="4.75296">
        <ele>172</ele>
        <time>2017-12-09T11:50:22Z</time>
      </trkpt>
      <trkpt lat="45.99519" lon="4.75297">
        <ele>172</ele>
        <time>2017-12-09T11:50:23Z</time>
      </trkpt>
      <trkpt lat="45.99514" lon="4.75297">
        <ele>172</ele>
        <time>2017-12-09T11:50:24Z</time>
      </trkpt>
      <trkpt lat="45.99509" lon="4.75298">
        <ele>172</ele>
        <time>2017-12-09T11:50:25Z</time>
      </trkpt>
      <trkpt lat="45.99504" lon="4.75299">
        <ele>172</ele>
        <time>2017-12-09T11:50:26Z</time>
      </trkpt>
      <trkpt lat="45.99498" lon="4.75301">
        <ele>171</ele>
        <time>2017-12-09T11:50:27Z</time>
      </trkpt>
      <trkpt lat="45.99493" lon="4.75303">
        <ele>171</ele>
        <time>2017-12-09T11:50:28Z</time>
      </trkpt>
      <trkpt lat="45.99487" lon="4.75303">
        <ele>171</ele>
        <time>2017-12-09T11:50:29Z</time>
      </trkpt>
      <trkpt lat="45.99482" lon="4.75304">
        <ele>171</ele>
        <time>2017-12-09T11:50:30Z</time>
      </trkpt>
      <trkpt lat="45.99477" lon="4.75305">
        <ele>171</ele>
        <time>2017-12-09T11:50:31Z</time>
      </trkpt>
      <trkpt lat="45.99472" lon="4.75306">
        <ele>171</ele>
        <time>2017-12-09T11:50:32Z</time>
      </trkpt>
      <trkpt lat="45.99467" lon="4.75306">
        <ele>171</ele>
        <time>2017-12-09T11:50:33Z</time>
      </trkpt>
      <trkpt lat="45.99462" lon="4.75306">
        <ele>171</ele>
        <time>2017-12-09T11:50:34Z</time>
      </trkpt>
      <trkpt lat="45.99457" lon="4.75307">
        <ele>171</ele>
        <time>2017-12-09T11:50:35Z</time>
      </trkpt>
      <trkpt lat="45.99452" lon="4.75307">
        <ele>171</ele>
        <time>2017-12-09T11:50:36Z</time>
      </trkpt>
      <trkpt lat="45.99446" lon="4.75307">
        <ele>171</ele>
        <time>2017-12-09T11:50:37Z</time>
      </trkpt>
      <trkpt lat="45.99441" lon="4.75307">
        <ele>171</ele>
        <time>2017-12-09T11:50:38Z</time>
      </trkpt>
      <trkpt lat="45.99436" lon="4.75307">
        <ele>171</ele>
        <time>2017-12-09T11:50:39Z</time>
      </trkpt>
      <trkpt lat="45.99431" lon="4.75309">
        <ele>171</ele>
        <time>2017-12-09T11:50:40Z</time>
      </trkpt>
      <trkpt lat="45.99427" lon="4.7531">
        <ele>171</ele>
        <time>2017-12-09T11:50:41Z</time>
      </trkpt>
      <trkpt lat="45.99422" lon="4.75312">
        <ele>171</ele>
        <time>2017-12-09T11:50:42Z</time>
      </trkpt>
      <trkpt lat="45.99417" lon="4.75313">
        <ele>171</ele>
        <time>2017-12-09T11:50:43Z</time>
      </trkpt>
      <trkpt lat="45.99412" lon="4.75314">
        <ele>170</ele>
        <time>2017-12-09T11:50:44Z</time>
      </trkpt>
      <trkpt lat="45.99406" lon="4.75317">
        <ele>170</ele>
        <time>2017-12-09T11:50:45Z</time>
      </trkpt>
      <trkpt lat="45.99399" lon="4.7532">
        <ele>170</ele>
        <time>2017-12-09T11:50:46Z</time>
      </trkpt>
      <trkpt lat="45.99395" lon="4.75324">
        <ele>170</ele>
        <time>2017-12-09T11:50:47Z</time>
      </trkpt>
      <trkpt lat="45.9939" lon="4.75328">
        <ele>170</ele>
        <time>2017-12-09T11:50:48Z</time>
      </trkpt>
      <trkpt lat="45.99384" lon="4.75333">
        <ele>170</ele>
        <time>2017-12-09T11:50:49Z</time>
      </trkpt>
      <trkpt lat="45.99379" lon="4.75338">
        <ele>171</ele>
        <time>2017-12-09T11:50:50Z</time>
      </trkpt>
      <trkpt lat="45.99376" lon="4.75345">
        <ele>172</ele>
        <time>2017-12-09T11:50:51Z</time>
      </trkpt>
      <trkpt lat="45.99372" lon="4.75353">
        <ele>172</ele>
        <time>2017-12-09T11:50:52Z</time>
      </trkpt>
      <trkpt lat="45.99369" lon="4.75359">
        <ele>172</ele>
        <time>2017-12-09T11:50:53Z</time>
      </trkpt>
      <trkpt lat="45.99365" lon="4.75366">
        <ele>172</ele>
        <time>2017-12-09T11:50:54Z</time>
      </trkpt>
      <trkpt lat="45.99362" lon="4.75374">
        <ele>172</ele>
        <time>2017-12-09T11:50:55Z</time>
      </trkpt>
      <trkpt lat="45.99358" lon="4.75381">
        <ele>172</ele>
        <time>2017-12-09T11:50:56Z</time>
      </trkpt>
      <trkpt lat="45.99355" lon="4.75386">
        <ele>172</ele>
        <time>2017-12-09T11:50:57Z</time>
      </trkpt>
      <trkpt lat="45.99352" lon="4.75391">
        <ele>172</ele>
        <time>2017-12-09T11:50:58Z</time>
      </trkpt>
      <trkpt lat="45.99349" lon="4.75397">
        <ele>173</ele>
        <time>2017-12-09T11:50:59Z</time>
      </trkpt>
      <trkpt lat="45.99347" lon="4.75406">
        <ele>173</ele>
        <time>2017-12-09T11:51:00Z</time>
      </trkpt>
      <trkpt lat="45.99345" lon="4.75413">
        <ele>173</ele>
        <time>2017-12-09T11:51:01Z</time>
      </trkpt>
      <trkpt lat="45.99344" lon="4.75419">
        <ele>175</ele>
        <time>2017-12-09T11:51:02Z</time>
      </trkpt>
      <trkpt lat="45.99343" lon="4.75428">
        <ele>175</ele>
        <time>2017-12-09T11:51:03Z</time>
      </trkpt>
      <trkpt lat="45.99341" lon="4.75435">
        <ele>176</ele>
        <time>2017-12-09T11:51:04Z</time>
      </trkpt>
      <trkpt lat="45.99339" lon="4.75443">
        <ele>176</ele>
        <time>2017-12-09T11:51:05Z</time>
      </trkpt>
      <trkpt lat="45.99337" lon="4.7545">
        <ele>176</ele>
        <time>2017-12-09T11:51:06Z</time>
      </trkpt>
      <trkpt lat="45.99335" lon="4.75457">
        <ele>177</ele>
        <time>2017-12-09T11:51:07Z</time>
      </trkpt>
      <trkpt lat="45.99333" lon="4.75464">
        <ele>174</ele>
        <time>2017-12-09T11:51:08Z</time>
      </trkpt>
      <trkpt lat="45.99331" lon="4.7547">
        <ele>174</ele>
        <time>2017-12-09T11:51:09Z</time>
      </trkpt>
      <trkpt lat="45.99327" lon="4.75477">
        <ele>175</ele>
        <time>2017-12-09T11:51:10Z</time>
      </trkpt>
      <trkpt lat="45.99324" lon="4.75482">
        <ele>175</ele>
        <time>2017-12-09T11:51:11Z</time>
      </trkpt>
      <trkpt lat="45.9932" lon="4.75487">
        <ele>175</ele>
        <time>2017-12-09T11:51:12Z</time>
      </trkpt>
      <trkpt lat="45.99316" lon="4.75492">
        <ele>175</ele>
        <time>2017-12-09T11:51:13Z</time>
      </trkpt>
      <trkpt lat="45.99312" lon="4.75497">
        <ele>175</ele>
        <time>2017-12-09T11:51:14Z</time>
      </trkpt>
      <trkpt lat="45.9931" lon="4.75502">
        <ele>177</ele>
        <time>2017-12-09T11:51:15Z</time>
      </trkpt>
      <trkpt lat="45.99306" lon="4.75507">
        <ele>177</ele>
        <time>2017-12-09T11:51:16Z</time>
      </trkpt>
      <trkpt lat="45.99301" lon="4.75512">
        <ele>177</ele>
        <time>2017-12-09T11:51:17Z</time>
      </trkpt>
      <trkpt lat="45.99297" lon="4.75516">
        <ele>177</ele>
        <time>2017-12-09T11:51:18Z</time>
      </trkpt>
      <trkpt lat="45.99292" lon="4.75521">
        <ele>177</ele>
        <time>2017-12-09T11:51:19Z</time>
      </trkpt>
      <trkpt lat="45.99287" lon="4.75526">
        <ele>177</ele>
        <time>2017-12-09T11:51:20Z</time>
      </trkpt>
      <trkpt lat="45.99282" lon="4.75531">
        <ele>176</ele>
        <time>2017-12-09T11:51:21Z</time>
      </trkpt>
      <trkpt lat="45.99278" lon="4.75535">
        <ele>176</ele>
        <time>2017-12-09T11:51:22Z</time>
      </trkpt>
      <trkpt lat="45.99272" lon="4.7554">
        <ele>176</ele>
        <time>2017-12-09T11:51:23Z</time>
      </trkpt>
      <trkpt lat="45.99267" lon="4.75543">
        <ele>177</ele>
        <time>2017-12-09T11:51:24Z</time>
      </trkpt>
      <trkpt lat="45.99262" lon="4.75547">
        <ele>177</ele>
        <time>2017-12-09T11:51:25Z</time>
      </trkpt>
      <trkpt lat="45.99258" lon="4.75549">
        <ele>177</ele>
        <time>2017-12-09T11:51:26Z</time>
      </trkpt>
      <trkpt lat="45.99253" lon="4.75551">
        <ele>177</ele>
        <time>2017-12-09T11:51:27Z</time>
      </trkpt>
      <trkpt lat="45.99249" lon="4.75555">
        <ele>175</ele>
        <time>2017-12-09T11:51:28Z</time>
      </trkpt>
      <trkpt lat="45.99244" lon="4.75557">
        <ele>175</ele>
        <time>2017-12-09T11:51:29Z</time>
      </trkpt>
      <trkpt lat="45.9924" lon="4.7556">
        <ele>175</ele>
        <time>2017-12-09T11:51:30Z</time>
      </trkpt>
      <trkpt lat="45.99236" lon="4.75563">
        <ele>175</ele>
        <time>2017-12-09T11:51:31Z</time>
      </trkpt>
      <trkpt lat="45.99231" lon="4.75567">
        <ele>175</ele>
        <time>2017-12-09T11:51:32Z</time>
      </trkpt>
      <trkpt lat="45.99226" lon="4.75569">
        <ele>175</ele>
        <time>2017-12-09T11:51:33Z</time>
      </trkpt>
      <trkpt lat="45.99221" lon="4.75573">
        <ele>175</ele>
        <time>2017-12-09T11:51:34Z</time>
      </trkpt>
      <trkpt lat="45.99216" lon="4.75577">
        <ele>175</ele>
        <time>2017-12-09T11:51:35Z</time>
      </trkpt>
      <trkpt lat="45.99212" lon="4.7558">
        <ele>175</ele>
        <time>2017-12-09T11:51:36Z</time>
      </trkpt>
      <trkpt lat="45.99207" lon="4.75583">
        <ele>175</ele>
        <time>2017-12-09T11:51:37Z</time>
      </trkpt>
      <trkpt lat="45.99201" lon="4.75585">
        <ele>178</ele>
        <time>2017-12-09T11:51:38Z</time>
      </trkpt>
      <trkpt lat="45.99197" lon="4.75588">
        <ele>178</ele>
        <time>2017-12-09T11:51:39Z</time>
      </trkpt>
      <trkpt lat="45.99193" lon="4.75591">
        <ele>178</ele>
        <time>2017-12-09T11:51:40Z</time>
      </trkpt>
      <trkpt lat="45.99189" lon="4.75594">
        <ele>178</ele>
        <time>2017-12-09T11:51:41Z</time>
      </trkpt>
      <trkpt lat="45.99183" lon="4.75596">
        <ele>177</ele>
        <time>2017-12-09T11:51:42Z</time>
      </trkpt>
      <trkpt lat="45.99178" lon="4.75599">
        <ele>177</ele>
        <time>2017-12-09T11:51:43Z</time>
      </trkpt>
      <trkpt lat="45.99174" lon="4.75599">
        <ele>177</ele>
        <time>2017-12-09T11:51:44Z</time>
      </trkpt>
      <trkpt lat="45.99169" lon="4.75601">
        <ele>177</ele>
        <time>2017-12-09T11:51:45Z</time>
      </trkpt>
      <trkpt lat="45.99165" lon="4.75603">
        <ele>176</ele>
        <time>2017-12-09T11:51:46Z</time>
      </trkpt>
      <trkpt lat="45.99159" lon="4.75605">
        <ele>176</ele>
        <time>2017-12-09T11:51:47Z</time>
      </trkpt>
      <trkpt lat="45.99152" lon="4.75605">
        <ele>176</ele>
        <time>2017-12-09T11:51:48Z</time>
      </trkpt>
      <trkpt lat="45.99148" lon="4.75606">
        <ele>176</ele>
        <time>2017-12-09T11:51:49Z</time>
      </trkpt>
      <trkpt lat="45.99139" lon="4.75604">
        <ele>176</ele>
        <time>2017-12-09T11:51:51Z</time>
      </trkpt>
      <trkpt lat="45.99134" lon="4.75605">
        <ele>176</ele>
        <time>2017-12-09T11:51:52Z</time>
      </trkpt>
      <trkpt lat="45.99127" lon="4.75611">
        <ele>177</ele>
        <time>2017-12-09T11:51:54Z</time>
      </trkpt>
      <trkpt lat="45.99123" lon="4.75616">
        <ele>177</ele>
        <time>2017-12-09T11:51:55Z</time>
      </trkpt>
      <trkpt lat="45.99121" lon="4.75622">
        <ele>177</ele>
        <time>2017-12-09T11:51:56Z</time>
      </trkpt>
      <trkpt lat="45.9912" lon="4.75629">
        <ele>177</ele>
        <time>2017-12-09T11:51:57Z</time>
      </trkpt>
      <trkpt lat="45.99117" lon="4.75634">
        <ele>177</ele>
        <time>2017-12-09T11:51:58Z</time>
      </trkpt>
      <trkpt lat="45.99114" lon="4.75639">
        <ele>178</ele>
        <time>2017-12-09T11:51:59Z</time>
      </trkpt>
      <trkpt lat="45.9911" lon="4.75644">
        <ele>178</ele>
        <time>2017-12-09T11:52:00Z</time>
      </trkpt>
      <trkpt lat="45.99105" lon="4.75648">
        <ele>178</ele>
        <time>2017-12-09T11:52:01Z</time>
      </trkpt>
      <trkpt lat="45.99099" lon="4.75651">
        <ele>178</ele>
        <time>2017-12-09T11:52:02Z</time>
      </trkpt>
      <trkpt lat="45.99094" lon="4.75654">
        <ele>178</ele>
        <time>2017-12-09T11:52:03Z</time>
      </trkpt>
      <trkpt lat="45.9909" lon="4.75656">
        <ele>179</ele>
        <time>2017-12-09T11:52:04Z</time>
      </trkpt>
      <trkpt lat="45.99085" lon="4.75656">
        <ele>179</ele>
        <time>2017-12-09T11:52:05Z</time>
      </trkpt>
      <trkpt lat="45.99079" lon="4.75657">
        <ele>179</ele>
        <time>2017-12-09T11:52:06Z</time>
      </trkpt>
      <trkpt lat="45.99074" lon="4.75659">
        <ele>179</ele>
        <time>2017-12-09T11:52:07Z</time>
      </trkpt>
      <trkpt lat="45.9907" lon="4.75659">
        <ele>178</ele>
        <time>2017-12-09T11:52:08Z</time>
      </trkpt>
      <trkpt lat="45.99064" lon="4.75659">
        <ele>178</ele>
        <time>2017-12-09T11:52:09Z</time>
      </trkpt>
      <trkpt lat="45.99059" lon="4.75659">
        <ele>178</ele>
        <time>2017-12-09T11:52:10Z</time>
      </trkpt>
      <trkpt lat="45.99053" lon="4.7566">
        <ele>178</ele>
        <time>2017-12-09T11:52:11Z</time>
      </trkpt>
      <trkpt lat="45.99046" lon="4.75661">
        <ele>178</ele>
        <time>2017-12-09T11:52:12Z</time>
      </trkpt>
      <trkpt lat="45.99038" lon="4.7566">
        <ele>178</ele>
        <time>2017-12-09T11:52:13Z</time>
      </trkpt>
      <trkpt lat="45.99032" lon="4.75659">
        <ele>178</ele>
        <time>2017-12-09T11:52:15Z</time>
      </trkpt>
      <trkpt lat="45.99028" lon="4.75658">
        <ele>178</ele>
        <time>2017-12-09T11:52:16Z</time>
      </trkpt>
      <trkpt lat="45.99022" lon="4.75657">
        <ele>178</ele>
        <time>2017-12-09T11:52:17Z</time>
      </trkpt>
      <trkpt lat="45.99016" lon="4.75657">
        <ele>178</ele>
        <time>2017-12-09T11:52:18Z</time>
      </trkpt>
      <trkpt lat="45.99011" lon="4.75657">
        <ele>178</ele>
        <time>2017-12-09T11:52:19Z</time>
      </trkpt>
      <trkpt lat="45.99006" lon="4.75657">
        <ele>179</ele>
        <time>2017-12-09T11:52:20Z</time>
      </trkpt>
      <trkpt lat="45.99001" lon="4.75658">
        <ele>179</ele>
        <time>2017-12-09T11:52:21Z</time>
      </trkpt>
      <trkpt lat="45.98996" lon="4.75659">
        <ele>179</ele>
        <time>2017-12-09T11:52:22Z</time>
      </trkpt>
      <trkpt lat="45.9899" lon="4.7566">
        <ele>178</ele>
        <time>2017-12-09T11:52:23Z</time>
      </trkpt>
      <trkpt lat="45.98985" lon="4.75661">
        <ele>178</ele>
        <time>2017-12-09T11:52:24Z</time>
      </trkpt>
      <trkpt lat="45.98979" lon="4.75661">
        <ele>178</ele>
        <time>2017-12-09T11:52:25Z</time>
      </trkpt>
      <trkpt lat="45.98973" lon="4.75662">
        <ele>177</ele>
        <time>2017-12-09T11:52:26Z</time>
      </trkpt>
      <trkpt lat="45.98968" lon="4.75663">
        <ele>177</ele>
        <time>2017-12-09T11:52:27Z</time>
      </trkpt>
      <trkpt lat="45.98962" lon="4.75666">
        <ele>177</ele>
        <time>2017-12-09T11:52:28Z</time>
      </trkpt>
      <trkpt lat="45.98956" lon="4.75668">
        <ele>181</ele>
        <time>2017-12-09T11:52:29Z</time>
      </trkpt>
      <trkpt lat="45.98951" lon="4.75669">
        <ele>181</ele>
        <time>2017-12-09T11:52:30Z</time>
      </trkpt>
      <trkpt lat="45.98945" lon="4.75671">
        <ele>181</ele>
        <time>2017-12-09T11:52:31Z</time>
      </trkpt>
      <trkpt lat="45.98939" lon="4.75673">
        <ele>180</ele>
        <time>2017-12-09T11:52:32Z</time>
      </trkpt>
      <trkpt lat="45.98934" lon="4.75676">
        <ele>180</ele>
        <time>2017-12-09T11:52:33Z</time>
      </trkpt>
      <trkpt lat="45.98929" lon="4.75679">
        <ele>180</ele>
        <time>2017-12-09T11:52:34Z</time>
      </trkpt>
      <trkpt lat="45.98924" lon="4.75682">
        <ele>180</ele>
        <time>2017-12-09T11:52:35Z</time>
      </trkpt>
      <trkpt lat="45.98918" lon="4.75685">
        <ele>180</ele>
        <time>2017-12-09T11:52:36Z</time>
      </trkpt>
      <trkpt lat="45.9891" lon="4.75688">
        <ele>179</ele>
        <time>2017-12-09T11:52:38Z</time>
      </trkpt>
      <trkpt lat="45.98906" lon="4.75688">
        <ele>179</ele>
        <time>2017-12-09T11:52:39Z</time>
      </trkpt>
      <trkpt lat="45.989" lon="4.75696">
        <ele>180</ele>
        <time>2017-12-09T11:52:41Z</time>
      </trkpt>
      <trkpt lat="45.98896" lon="4.75699">
        <ele>180</ele>
        <time>2017-12-09T11:52:42Z</time>
      </trkpt>
      <trkpt lat="45.9889" lon="4.75701">
        <ele>180</ele>
        <time>2017-12-09T11:52:43Z</time>
      </trkpt>
      <trkpt lat="45.98885" lon="4.75703">
        <ele>180</ele>
        <time>2017-12-09T11:52:44Z</time>
      </trkpt>
      <trkpt lat="45.9888" lon="4.75705">
        <ele>180</ele>
        <time>2017-12-09T11:52:45Z</time>
      </trkpt>
      <trkpt lat="45.98876" lon="4.75706">
        <ele>180</ele>
        <time>2017-12-09T11:52:46Z</time>
      </trkpt>
      <trkpt lat="45.98871" lon="4.75708">
        <ele>180</ele>
        <time>2017-12-09T11:52:47Z</time>
      </trkpt>
      <trkpt lat="45.98866" lon="4.75709">
        <ele>180</ele>
        <time>2017-12-09T11:52:48Z</time>
      </trkpt>
      <trkpt lat="45.98861" lon="4.75709">
        <ele>180</ele>
        <time>2017-12-09T11:52:49Z</time>
      </trkpt>
      <trkpt lat="45.98856" lon="4.75709">
        <ele>180</ele>
        <time>2017-12-09T11:52:50Z</time>
      </trkpt>
      <trkpt lat="45.98852" lon="4.7571">
        <ele>180</ele>
        <time>2017-12-09T11:52:51Z</time>
      </trkpt>
      <trkpt lat="45.98846" lon="4.75711">
        <ele>180</ele>
        <time>2017-12-09T11:52:52Z</time>
      </trkpt>
      <trkpt lat="45.98842" lon="4.75709">
        <ele>180</ele>
        <time>2017-12-09T11:52:53Z</time>
      </trkpt>
      <trkpt lat="45.98837" lon="4.7571">
        <ele>180</ele>
        <time>2017-12-09T11:52:54Z</time>
      </trkpt>
      <trkpt lat="45.98831" lon="4.75711">
        <ele>179</ele>
        <time>2017-12-09T11:52:55Z</time>
      </trkpt>
      <trkpt lat="45.98826" lon="4.75712">
        <ele>179</ele>
        <time>2017-12-09T11:52:56Z</time>
      </trkpt>
      <trkpt lat="45.98821" lon="4.75713">
        <ele>179</ele>
        <time>2017-12-09T11:52:57Z</time>
      </trkpt>
      <trkpt lat="45.98814" lon="4.75714">
        <ele>179</ele>
        <time>2017-12-09T11:52:58Z</time>
      </trkpt>
      <trkpt lat="45.98809" lon="4.75716">
        <ele>179</ele>
        <time>2017-12-09T11:52:59Z</time>
      </trkpt>
      <trkpt lat="45.98804" lon="4.75716">
        <ele>179</ele>
        <time>2017-12-09T11:53:00Z</time>
      </trkpt>
      <trkpt lat="45.988" lon="4.75715">
        <ele>178</ele>
        <time>2017-12-09T11:53:01Z</time>
      </trkpt>
      <trkpt lat="45.98794" lon="4.75716">
        <ele>178</ele>
        <time>2017-12-09T11:53:02Z</time>
      </trkpt>
      <trkpt lat="45.98786" lon="4.75716">
        <ele>178</ele>
        <time>2017-12-09T11:53:04Z</time>
      </trkpt>
      <trkpt lat="45.98781" lon="4.75715">
        <ele>178</ele>
        <time>2017-12-09T11:53:05Z</time>
      </trkpt>
      <trkpt lat="45.98772" lon="4.75713">
        <ele>178</ele>
        <time>2017-12-09T11:53:07Z</time>
      </trkpt>
      <trkpt lat="45.98768" lon="4.75715">
        <ele>178</ele>
        <time>2017-12-09T11:53:08Z</time>
      </trkpt>
      <trkpt lat="45.98762" lon="4.75719">
        <ele>178</ele>
        <time>2017-12-09T11:53:09Z</time>
      </trkpt>
      <trkpt lat="45.98758" lon="4.75722">
        <ele>178</ele>
        <time>2017-12-09T11:53:10Z</time>
      </trkpt>
      <trkpt lat="45.98753" lon="4.75723">
        <ele>178</ele>
        <time>2017-12-09T11:53:11Z</time>
      </trkpt>
      <trkpt lat="45.98748" lon="4.75724">
        <ele>177</ele>
        <time>2017-12-09T11:53:12Z</time>
      </trkpt>
      <trkpt lat="45.98743" lon="4.75722">
        <ele>177</ele>
        <time>2017-12-09T11:53:13Z</time>
      </trkpt>
      <trkpt lat="45.98737" lon="4.75723">
        <ele>177</ele>
        <time>2017-12-09T11:53:14Z</time>
      </trkpt>
      <trkpt lat="45.98732" lon="4.75724">
        <ele>177</ele>
        <time>2017-12-09T11:53:15Z</time>
      </trkpt>
      <trkpt lat="45.98727" lon="4.75725">
        <ele>177</ele>
        <time>2017-12-09T11:53:16Z</time>
      </trkpt>
      <trkpt lat="45.98722" lon="4.75726">
        <ele>177</ele>
        <time>2017-12-09T11:53:17Z</time>
      </trkpt>
      <trkpt lat="45.98717" lon="4.75726">
        <ele>177</ele>
        <time>2017-12-09T11:53:18Z</time>
      </trkpt>
      <trkpt lat="45.98711" lon="4.75725">
        <ele>177</ele>
        <time>2017-12-09T11:53:19Z</time>
      </trkpt>
      <trkpt lat="45.98707" lon="4.75724">
        <ele>177</ele>
        <time>2017-12-09T11:53:20Z</time>
      </trkpt>
      <trkpt lat="45.98703" lon="4.75724">
        <ele>177</ele>
        <time>2017-12-09T11:53:21Z</time>
      </trkpt>
      <trkpt lat="45.98697" lon="4.75724">
        <ele>177</ele>
        <time>2017-12-09T11:53:22Z</time>
      </trkpt>
      <trkpt lat="45.98691" lon="4.75724">
        <ele>177</ele>
        <time>2017-12-09T11:53:23Z</time>
      </trkpt>
      <trkpt lat="45.98686" lon="4.75724">
        <ele>177</ele>
        <time>2017-12-09T11:53:24Z</time>
      </trkpt>
      <trkpt lat="45.98682" lon="4.75725">
        <ele>177</ele>
        <time>2017-12-09T11:53:25Z</time>
      </trkpt>
      <trkpt lat="45.98677" lon="4.75725">
        <ele>177</ele>
        <time>2017-12-09T11:53:26Z</time>
      </trkpt>
      <trkpt lat="45.98672" lon="4.75725">
        <ele>177</ele>
        <time>2017-12-09T11:53:27Z</time>
      </trkpt>
      <trkpt lat="45.98667" lon="4.75723">
        <ele>177</ele>
        <time>2017-12-09T11:53:28Z</time>
      </trkpt>
      <trkpt lat="45.98661" lon="4.75723">
        <ele>176</ele>
        <time>2017-12-09T11:53:29Z</time>
      </trkpt>
      <trkpt lat="45.98656" lon="4.75724">
        <ele>176</ele>
        <time>2017-12-09T11:53:30Z</time>
      </trkpt>
      <trkpt lat="45.9865" lon="4.75723">
        <ele>176</ele>
        <time>2017-12-09T11:53:31Z</time>
      </trkpt>
      <trkpt lat="45.98644" lon="4.75723">
        <ele>175</ele>
        <time>2017-12-09T11:53:32Z</time>
      </trkpt>
      <trkpt lat="45.98635" lon="4.75725">
        <ele>175</ele>
        <time>2017-12-09T11:53:34Z</time>
      </trkpt>
      <trkpt lat="45.98634" lon="4.75725">
        <ele>175</ele>
        <time>2017-12-09T11:53:35Z</time>
      </trkpt>
      <trkpt lat="45.98626" lon="4.75727">
        <ele>175</ele>
        <time>2017-12-09T11:53:37Z</time>
      </trkpt>
      <trkpt lat="45.98623" lon="4.75726">
        <ele>175</ele>
        <time>2017-12-09T11:53:38Z</time>
      </trkpt>
      <trkpt lat="45.98615" lon="4.75728">
        <ele>175</ele>
        <time>2017-12-09T11:53:42Z</time>
      </trkpt>
      <trkpt lat="45.98611" lon="4.75727">
        <ele>175</ele>
        <time>2017-12-09T11:53:43Z</time>
      </trkpt>
      <trkpt lat="45.98607" lon="4.75728">
        <ele>175</ele>
        <time>2017-12-09T11:53:45Z</time>
      </trkpt>
      <trkpt lat="45.98606" lon="4.75728">
        <ele>175</ele>
        <time>2017-12-09T11:53:46Z</time>
      </trkpt>
      <trkpt lat="45.98606" lon="4.75728">
        <ele>175</ele>
        <time>2017-12-09T11:53:47Z</time>
      </trkpt>
      <trkpt lat="45.98607" lon="4.75727">
        <ele>175</ele>
        <time>2017-12-09T11:53:48Z</time>
      </trkpt>
      <trkpt lat="45.98595" lon="4.75725">
        <ele>174</ele>
        <time>2017-12-09T11:53:49Z</time>
      </trkpt>
      <trkpt lat="45.98587" lon="4.75722">
        <ele>174</ele>
        <time>2017-12-09T11:53:51Z</time>
      </trkpt>
      <trkpt lat="45.9858" lon="4.75722">
        <ele>174</ele>
        <time>2017-12-09T11:53:52Z</time>
      </trkpt>
      <trkpt lat="45.98574" lon="4.75722">
        <ele>174</ele>
        <time>2017-12-09T11:53:53Z</time>
      </trkpt>
      <trkpt lat="45.98571" lon="4.75721">
        <ele>174</ele>
        <time>2017-12-09T11:53:54Z</time>
      </trkpt>
      <trkpt lat="45.98565" lon="4.7572">
        <ele>174</ele>
        <time>2017-12-09T11:53:55Z</time>
      </trkpt>
      <trkpt lat="45.9856" lon="4.75721">
        <ele>174</ele>
        <time>2017-12-09T11:53:56Z</time>
      </trkpt>
      <trkpt lat="45.98555" lon="4.7572">
        <ele>174</ele>
        <time>2017-12-09T11:53:57Z</time>
      </trkpt>
      <trkpt lat="45.98551" lon="4.75719">
        <ele>174</ele>
        <time>2017-12-09T11:53:58Z</time>
      </trkpt>
      <trkpt lat="45.98546" lon="4.75718">
        <ele>174</ele>
        <time>2017-12-09T11:53:59Z</time>
      </trkpt>
      <trkpt lat="45.98541" lon="4.75718">
        <ele>174</ele>
        <time>2017-12-09T11:54:00Z</time>
      </trkpt>
      <trkpt lat="45.98536" lon="4.75717">
        <ele>174</ele>
        <time>2017-12-09T11:54:01Z</time>
      </trkpt>
      <trkpt lat="45.98529" lon="4.75717">
        <ele>174</ele>
        <time>2017-12-09T11:54:02Z</time>
      </trkpt>
      <trkpt lat="45.98524" lon="4.75716">
        <ele>174</ele>
        <time>2017-12-09T11:54:03Z</time>
      </trkpt>
      <trkpt lat="45.98516" lon="4.75714">
        <ele>174</ele>
        <time>2017-12-09T11:54:04Z</time>
      </trkpt>
      <trkpt lat="45.98511" lon="4.75713">
        <ele>174</ele>
        <time>2017-12-09T11:54:05Z</time>
      </trkpt>
      <trkpt lat="45.98507" lon="4.75712">
        <ele>174</ele>
        <time>2017-12-09T11:54:06Z</time>
      </trkpt>
      <trkpt lat="45.98499" lon="4.75711">
        <ele>175</ele>
        <time>2017-12-09T11:54:08Z</time>
      </trkpt>
      <trkpt lat="45.98496" lon="4.7571">
        <ele>175</ele>
        <time>2017-12-09T11:54:09Z</time>
      </trkpt>
      <trkpt lat="45.98491" lon="4.75708">
        <ele>174</ele>
        <time>2017-12-09T11:54:10Z</time>
      </trkpt>
      <trkpt lat="45.98486" lon="4.75706">
        <ele>174</ele>
        <time>2017-12-09T11:54:11Z</time>
      </trkpt>
      <trkpt lat="45.9848" lon="4.75706">
        <ele>174</ele>
        <time>2017-12-09T11:54:12Z</time>
      </trkpt>
      <trkpt lat="45.98476" lon="4.75705">
        <ele>174</ele>
        <time>2017-12-09T11:54:13Z</time>
      </trkpt>
      <trkpt lat="45.98471" lon="4.75705">
        <ele>174</ele>
        <time>2017-12-09T11:54:14Z</time>
      </trkpt>
      <trkpt lat="45.98466" lon="4.75704">
        <ele>174</ele>
        <time>2017-12-09T11:54:15Z</time>
      </trkpt>
      <trkpt lat="45.98458" lon="4.75702">
        <ele>175</ele>
        <time>2017-12-09T11:54:17Z</time>
      </trkpt>
      <trkpt lat="45.98452" lon="4.757">
        <ele>175</ele>
        <time>2017-12-09T11:54:18Z</time>
      </trkpt>
      <trkpt lat="45.98447" lon="4.75701">
        <ele>175</ele>
        <time>2017-12-09T11:54:19Z</time>
      </trkpt>
      <trkpt lat="45.98442" lon="4.757">
        <ele>175</ele>
        <time>2017-12-09T11:54:20Z</time>
      </trkpt>
      <trkpt lat="45.98437" lon="4.75698">
        <ele>175</ele>
        <time>2017-12-09T11:54:21Z</time>
      </trkpt>
      <trkpt lat="45.9843" lon="4.75697">
        <ele>175</ele>
        <time>2017-12-09T11:54:22Z</time>
      </trkpt>
      <trkpt lat="45.98424" lon="4.75696">
        <ele>175</ele>
        <time>2017-12-09T11:54:23Z</time>
      </trkpt>
      <trkpt lat="45.9842" lon="4.75695">
        <ele>175</ele>
        <time>2017-12-09T11:54:24Z</time>
      </trkpt>
      <trkpt lat="45.98414" lon="4.75694">
        <ele>174</ele>
        <time>2017-12-09T11:54:25Z</time>
      </trkpt>
      <trkpt lat="45.9841" lon="4.75696">
        <ele>174</ele>
        <time>2017-12-09T11:54:26Z</time>
      </trkpt>
      <trkpt lat="45.98401" lon="4.75696">
        <ele>174</ele>
        <time>2017-12-09T11:54:27Z</time>
      </trkpt>
      <trkpt lat="45.98397" lon="4.75694">
        <ele>174</ele>
        <time>2017-12-09T11:54:28Z</time>
      </trkpt>
      <trkpt lat="45.98396" lon="4.75706">
        <ele>174</ele>
        <time>2017-12-09T11:54:33Z</time>
      </trkpt>
      <trkpt lat="45.9839" lon="4.75704">
        <ele>174</ele>
        <time>2017-12-09T11:54:34Z</time>
      </trkpt>
      <trkpt lat="45.98384" lon="4.75704">
        <ele>174</ele>
        <time>2017-12-09T11:54:35Z</time>
      </trkpt>
      <trkpt lat="45.98378" lon="4.75702">
        <ele>174</ele>
        <time>2017-12-09T11:54:36Z</time>
      </trkpt>
      <trkpt lat="45.98373" lon="4.757">
        <ele>174</ele>
        <time>2017-12-09T11:54:37Z</time>
      </trkpt>
      <trkpt lat="45.98366" lon="4.757">
        <ele>174</ele>
        <time>2017-12-09T11:54:38Z</time>
      </trkpt>
      <trkpt lat="45.9836" lon="4.75698">
        <ele>174</ele>
        <time>2017-12-09T11:54:39Z</time>
      </trkpt>
      <trkpt lat="45.98353" lon="4.75697">
        <ele>174</ele>
        <time>2017-12-09T11:54:40Z</time>
      </trkpt>
      <trkpt lat="45.98347" lon="4.75696">
        <ele>174</ele>
        <time>2017-12-09T11:54:41Z</time>
      </trkpt>
      <trkpt lat="45.9834" lon="4.75694">
        <ele>174</ele>
        <time>2017-12-09T11:54:42Z</time>
      </trkpt>
      <trkpt lat="45.98336" lon="4.75692">
        <ele>174</ele>
        <time>2017-12-09T11:54:43Z</time>
      </trkpt>
      <trkpt lat="45.9833" lon="4.7569">
        <ele>174</ele>
        <time>2017-12-09T11:54:44Z</time>
      </trkpt>
      <trkpt lat="45.98323" lon="4.7569">
        <ele>174</ele>
        <time>2017-12-09T11:54:45Z</time>
      </trkpt>
      <trkpt lat="45.98317" lon="4.7569">
        <ele>174</ele>
        <time>2017-12-09T11:54:46Z</time>
      </trkpt>
      <trkpt lat="45.9831" lon="4.7569">
        <ele>174</ele>
        <time>2017-12-09T11:54:47Z</time>
      </trkpt>
      <trkpt lat="45.98304" lon="4.7569">
        <ele>174</ele>
        <time>2017-12-09T11:54:48Z</time>
      </trkpt>
      <trkpt lat="45.98298" lon="4.75689">
        <ele>174</ele>
        <time>2017-12-09T11:54:49Z</time>
      </trkpt>
      <trkpt lat="45.98291" lon="4.75689">
        <ele>174</ele>
        <time>2017-12-09T11:54:50Z</time>
      </trkpt>
      <trkpt lat="45.98286" lon="4.75688">
        <ele>174</ele>
        <time>2017-12-09T11:54:51Z</time>
      </trkpt>
      <trkpt lat="45.9828" lon="4.75686">
        <ele>174</ele>
        <time>2017-12-09T11:54:52Z</time>
      </trkpt>
      <trkpt lat="45.98276" lon="4.75685">
        <ele>174</ele>
        <time>2017-12-09T11:54:53Z</time>
      </trkpt>
      <trkpt lat="45.98269" lon="4.75683">
        <ele>173</ele>
        <time>2017-12-09T11:54:54Z</time>
      </trkpt>
      <trkpt lat="45.98263" lon="4.75681">
        <ele>173</ele>
        <time>2017-12-09T11:54:55Z</time>
      </trkpt>
      <trkpt lat="45.98259" lon="4.75682">
        <ele>173</ele>
        <time>2017-12-09T11:54:56Z</time>
      </trkpt>
      <trkpt lat="45.98254" lon="4.75682">
        <ele>173</ele>
        <time>2017-12-09T11:54:57Z</time>
      </trkpt>
      <trkpt lat="45.98249" lon="4.75682">
        <ele>173</ele>
        <time>2017-12-09T11:54:58Z</time>
      </trkpt>
      <trkpt lat="45.98244" lon="4.75683">
        <ele>173</ele>
        <time>2017-12-09T11:54:59Z</time>
      </trkpt>
      <trkpt lat="45.98239" lon="4.75684">
        <ele>174</ele>
        <time>2017-12-09T11:55:00Z</time>
      </trkpt>
      <trkpt lat="45.98234" lon="4.75686">
        <ele>174</ele>
        <time>2017-12-09T11:55:01Z</time>
      </trkpt>
      <trkpt lat="45.98229" lon="4.75686">
        <ele>174</ele>
        <time>2017-12-09T11:55:02Z</time>
      </trkpt>
      <trkpt lat="45.98223" lon="4.75687">
        <ele>174</ele>
        <time>2017-12-09T11:55:03Z</time>
      </trkpt>
      <trkpt lat="45.98217" lon="4.75688">
        <ele>174</ele>
        <time>2017-12-09T11:55:04Z</time>
      </trkpt>
      <trkpt lat="45.98211" lon="4.75689">
        <ele>174</ele>
        <time>2017-12-09T11:55:05Z</time>
      </trkpt>
      <trkpt lat="45.98206" lon="4.75689">
        <ele>174</ele>
        <time>2017-12-09T11:55:06Z</time>
      </trkpt>
      <trkpt lat="45.98198" lon="4.75691">
        <ele>174</ele>
        <time>2017-12-09T11:55:08Z</time>
      </trkpt>
      <trkpt lat="45.98194" lon="4.75691">
        <ele>174</ele>
        <time>2017-12-09T11:55:09Z</time>
      </trkpt>
      <trkpt lat="45.98185" lon="4.75691">
        <ele>174</ele>
        <time>2017-12-09T11:55:11Z</time>
      </trkpt>
      <trkpt lat="45.98182" lon="4.75691">
        <ele>174</ele>
        <time>2017-12-09T11:55:12Z</time>
      </trkpt>
      <trkpt lat="45.98177" lon="4.75691">
        <ele>174</ele>
        <time>2017-12-09T11:55:13Z</time>
      </trkpt>
      <trkpt lat="45.98172" lon="4.75692">
        <ele>174</ele>
        <time>2017-12-09T11:55:14Z</time>
      </trkpt>
      <trkpt lat="45.98164" lon="4.75691">
        <ele>174</ele>
        <time>2017-12-09T11:55:16Z</time>
      </trkpt>
      <trkpt lat="45.98158" lon="4.75692">
        <ele>174</ele>
        <time>2017-12-09T11:55:17Z</time>
      </trkpt>
      <trkpt lat="45.98152" lon="4.75693">
        <ele>174</ele>
        <time>2017-12-09T11:55:18Z</time>
      </trkpt>
      <trkpt lat="45.98146" lon="4.75693">
        <ele>174</ele>
        <time>2017-12-09T11:55:19Z</time>
      </trkpt>
      <trkpt lat="45.98139" lon="4.75693">
        <ele>174</ele>
        <time>2017-12-09T11:55:20Z</time>
      </trkpt>
      <trkpt lat="45.98133" lon="4.75695">
        <ele>174</ele>
        <time>2017-12-09T11:55:21Z</time>
      </trkpt>
      <trkpt lat="45.98126" lon="4.75695">
        <ele>174</ele>
        <time>2017-12-09T11:55:22Z</time>
      </trkpt>
      <trkpt lat="45.98121" lon="4.75696">
        <ele>174</ele>
        <time>2017-12-09T11:55:23Z</time>
      </trkpt>
      <trkpt lat="45.98115" lon="4.75697">
        <ele>174</ele>
        <time>2017-12-09T11:55:24Z</time>
      </trkpt>
      <trkpt lat="45.98109" lon="4.75697">
        <ele>174</ele>
        <time>2017-12-09T11:55:25Z</time>
      </trkpt>
      <trkpt lat="45.98104" lon="4.75697">
        <ele>174</ele>
        <time>2017-12-09T11:55:26Z</time>
      </trkpt>
      <trkpt lat="45.98099" lon="4.75697">
        <ele>174</ele>
        <time>2017-12-09T11:55:27Z</time>
      </trkpt>
      <trkpt lat="45.9809" lon="4.75697">
        <ele>174</ele>
        <time>2017-12-09T11:55:29Z</time>
      </trkpt>
      <trkpt lat="45.98086" lon="4.75697">
        <ele>174</ele>
        <time>2017-12-09T11:55:30Z</time>
      </trkpt>
      <trkpt lat="45.9808" lon="4.75698">
        <ele>174</ele>
        <time>2017-12-09T11:55:31Z</time>
      </trkpt>
      <trkpt lat="45.98075" lon="4.75699">
        <ele>174</ele>
        <time>2017-12-09T11:55:32Z</time>
      </trkpt>
      <trkpt lat="45.98069" lon="4.75699">
        <ele>174</ele>
        <time>2017-12-09T11:55:33Z</time>
      </trkpt>
      <trkpt lat="45.98064" lon="4.75699">
        <ele>174</ele>
        <time>2017-12-09T11:55:34Z</time>
      </trkpt>
      <trkpt lat="45.98058" lon="4.757">
        <ele>174</ele>
        <time>2017-12-09T11:55:35Z</time>
      </trkpt>
      <trkpt lat="45.98052" lon="4.75701">
        <ele>174</ele>
        <time>2017-12-09T11:55:36Z</time>
      </trkpt>
      <trkpt lat="45.98046" lon="4.75703">
        <ele>174</ele>
        <time>2017-12-09T11:55:37Z</time>
      </trkpt>
      <trkpt lat="45.98041" lon="4.75705">
        <ele>174</ele>
        <time>2017-12-09T11:55:38Z</time>
      </trkpt>
      <trkpt lat="45.98036" lon="4.75706">
        <ele>174</ele>
        <time>2017-12-09T11:55:39Z</time>
      </trkpt>
      <trkpt lat="45.98031" lon="4.75708">
        <ele>174</ele>
        <time>2017-12-09T11:55:40Z</time>
      </trkpt>
      <trkpt lat="45.98023" lon="4.75711">
        <ele>174</ele>
        <time>2017-12-09T11:55:42Z</time>
      </trkpt>
      <trkpt lat="45.98018" lon="4.75713">
        <ele>174</ele>
        <time>2017-12-09T11:55:43Z</time>
      </trkpt>
      <trkpt lat="45.98009" lon="4.75715">
        <ele>174</ele>
        <time>2017-12-09T11:55:45Z</time>
      </trkpt>
      <trkpt lat="45.98005" lon="4.75715">
        <ele>174</ele>
        <time>2017-12-09T11:55:46Z</time>
      </trkpt>
      <trkpt lat="45.98" lon="4.75717">
        <ele>174</ele>
        <time>2017-12-09T11:55:47Z</time>
      </trkpt>
      <trkpt lat="45.97996" lon="4.75718">
        <ele>174</ele>
        <time>2017-12-09T11:55:48Z</time>
      </trkpt>
      <trkpt lat="45.97988" lon="4.75722">
        <ele>174</ele>
        <time>2017-12-09T11:55:50Z</time>
      </trkpt>
      <trkpt lat="45.97984" lon="4.75723">
        <ele>174</ele>
        <time>2017-12-09T11:55:51Z</time>
      </trkpt>
      <trkpt lat="45.97979" lon="4.75726">
        <ele>174</ele>
        <time>2017-12-09T11:55:52Z</time>
      </trkpt>
      <trkpt lat="45.97975" lon="4.75727">
        <ele>174</ele>
        <time>2017-12-09T11:55:53Z</time>
      </trkpt>
      <trkpt lat="45.97967" lon="4.75726">
        <ele>174</ele>
        <time>2017-12-09T11:55:55Z</time>
      </trkpt>
      <trkpt lat="45.97962" lon="4.75725">
        <ele>174</ele>
        <time>2017-12-09T11:55:56Z</time>
      </trkpt>
      <trkpt lat="45.97954" lon="4.75722">
        <ele>174</ele>
        <time>2017-12-09T11:55:58Z</time>
      </trkpt>
      <trkpt lat="45.97948" lon="4.7572">
        <ele>174</ele>
        <time>2017-12-09T11:55:59Z</time>
      </trkpt>
      <trkpt lat="45.97943" lon="4.75718">
        <ele>174</ele>
        <time>2017-12-09T11:56:00Z</time>
      </trkpt>
      <trkpt lat="45.97937" lon="4.75715">
        <ele>174</ele>
        <time>2017-12-09T11:56:01Z</time>
      </trkpt>
      <trkpt lat="45.97931" lon="4.75712">
        <ele>174</ele>
        <time>2017-12-09T11:56:02Z</time>
      </trkpt>
      <trkpt lat="45.97925" lon="4.75709">
        <ele>174</ele>
        <time>2017-12-09T11:56:03Z</time>
      </trkpt>
      <trkpt lat="45.97921" lon="4.75704">
        <ele>174</ele>
        <time>2017-12-09T11:56:04Z</time>
      </trkpt>
      <trkpt lat="45.97916" lon="4.75701">
        <ele>175</ele>
        <time>2017-12-09T11:56:05Z</time>
      </trkpt>
      <trkpt lat="45.9791" lon="4.75699">
        <ele>175</ele>
        <time>2017-12-09T11:56:06Z</time>
      </trkpt>
      <trkpt lat="45.97904" lon="4.75696">
        <ele>175</ele>
        <time>2017-12-09T11:56:07Z</time>
      </trkpt>
      <trkpt lat="45.979" lon="4.75692">
        <ele>175</ele>
        <time>2017-12-09T11:56:08Z</time>
      </trkpt>
      <trkpt lat="45.97895" lon="4.75689">
        <ele>175</ele>
        <time>2017-12-09T11:56:09Z</time>
      </trkpt>
      <trkpt lat="45.97889" lon="4.75686">
        <ele>175</ele>
        <time>2017-12-09T11:56:10Z</time>
      </trkpt>
      <trkpt lat="45.97884" lon="4.75684">
        <ele>175</ele>
        <time>2017-12-09T11:56:11Z</time>
      </trkpt>
      <trkpt lat="45.97877" lon="4.75682">
        <ele>175</ele>
        <time>2017-12-09T11:56:12Z</time>
      </trkpt>
      <trkpt lat="45.97872" lon="4.7568">
        <ele>175</ele>
        <time>2017-12-09T11:56:13Z</time>
      </trkpt>
      <trkpt lat="45.97865" lon="4.75679">
        <ele>175</ele>
        <time>2017-12-09T11:56:14Z</time>
      </trkpt>
      <trkpt lat="45.97859" lon="4.75677">
        <ele>175</ele>
        <time>2017-12-09T11:56:15Z</time>
      </trkpt>
      <trkpt lat="45.97853" lon="4.75676">
        <ele>175</ele>
        <time>2017-12-09T11:56:16Z</time>
      </trkpt>
      <trkpt lat="45.97848" lon="4.75675">
        <ele>175</ele>
        <time>2017-12-09T11:56:17Z</time>
      </trkpt>
      <trkpt lat="45.97842" lon="4.75674">
        <ele>175</ele>
        <time>2017-12-09T11:56:18Z</time>
      </trkpt>
      <trkpt lat="45.97835" lon="4.75673">
        <ele>175</ele>
        <time>2017-12-09T11:56:19Z</time>
      </trkpt>
      <trkpt lat="45.97827" lon="4.75673">
        <ele>175</ele>
        <time>2017-12-09T11:56:20Z</time>
      </trkpt>
      <trkpt lat="45.97821" lon="4.75671">
        <ele>175</ele>
        <time>2017-12-09T11:56:21Z</time>
      </trkpt>
      <trkpt lat="45.97815" lon="4.75671">
        <ele>175</ele>
        <time>2017-12-09T11:56:22Z</time>
      </trkpt>
      <trkpt lat="45.9781" lon="4.7567">
        <ele>175</ele>
        <time>2017-12-09T11:56:23Z</time>
      </trkpt>
      <trkpt lat="45.97803" lon="4.75669">
        <ele>175</ele>
        <time>2017-12-09T11:56:24Z</time>
      </trkpt>
      <trkpt lat="45.97796" lon="4.75668">
        <ele>174</ele>
        <time>2017-12-09T11:56:25Z</time>
      </trkpt>
      <trkpt lat="45.9779" lon="4.75667">
        <ele>174</ele>
        <time>2017-12-09T11:56:26Z</time>
      </trkpt>
      <trkpt lat="45.97783" lon="4.75668">
        <ele>174</ele>
        <time>2017-12-09T11:56:27Z</time>
      </trkpt>
      <trkpt lat="45.97778" lon="4.75668">
        <ele>174</ele>
        <time>2017-12-09T11:56:28Z</time>
      </trkpt>
      <trkpt lat="45.97772" lon="4.75668">
        <ele>174</ele>
        <time>2017-12-09T11:56:29Z</time>
      </trkpt>
      <trkpt lat="45.97766" lon="4.75667">
        <ele>173</ele>
        <time>2017-12-09T11:56:30Z</time>
      </trkpt>
      <trkpt lat="45.9776" lon="4.75669">
        <ele>173</ele>
        <time>2017-12-09T11:56:31Z</time>
      </trkpt>
      <trkpt lat="45.97755" lon="4.75669">
        <ele>173</ele>
        <time>2017-12-09T11:56:32Z</time>
      </trkpt>
      <trkpt lat="45.97751" lon="4.75669">
        <ele>172</ele>
        <time>2017-12-09T11:56:33Z</time>
      </trkpt>
      <trkpt lat="45.97745" lon="4.7567">
        <ele>172</ele>
        <time>2017-12-09T11:56:34Z</time>
      </trkpt>
      <trkpt lat="45.9774" lon="4.7567">
        <ele>172</ele>
        <time>2017-12-09T11:56:35Z</time>
      </trkpt>
      <trkpt lat="45.97735" lon="4.75669">
        <ele>172</ele>
        <time>2017-12-09T11:56:36Z</time>
      </trkpt>
      <trkpt lat="45.9773" lon="4.75669">
        <ele>172</ele>
        <time>2017-12-09T11:56:37Z</time>
      </trkpt>
      <trkpt lat="45.97725" lon="4.75669">
        <ele>172</ele>
        <time>2017-12-09T11:56:38Z</time>
      </trkpt>
      <trkpt lat="45.9772" lon="4.75671">
        <ele>171</ele>
        <time>2017-12-09T11:56:39Z</time>
      </trkpt>
      <trkpt lat="45.97716" lon="4.75671">
        <ele>171</ele>
        <time>2017-12-09T11:56:40Z</time>
      </trkpt>
      <trkpt lat="45.97711" lon="4.75671">
        <ele>171</ele>
        <time>2017-12-09T11:56:41Z</time>
      </trkpt>
      <trkpt lat="45.97705" lon="4.75671">
        <ele>171</ele>
        <time>2017-12-09T11:56:42Z</time>
      </trkpt>
      <trkpt lat="45.977" lon="4.75672">
        <ele>171</ele>
        <time>2017-12-09T11:56:43Z</time>
      </trkpt>
      <trkpt lat="45.97694" lon="4.75672">
        <ele>171</ele>
        <time>2017-12-09T11:56:44Z</time>
      </trkpt>
      <trkpt lat="45.9769" lon="4.75671">
        <ele>171</ele>
        <time>2017-12-09T11:56:45Z</time>
      </trkpt>
      <trkpt lat="45.97684" lon="4.75671">
        <ele>170</ele>
        <time>2017-12-09T11:56:46Z</time>
      </trkpt>
      <trkpt lat="45.97679" lon="4.7567">
        <ele>170</ele>
        <time>2017-12-09T11:56:47Z</time>
      </trkpt>
      <trkpt lat="45.97672" lon="4.75671">
        <ele>170</ele>
        <time>2017-12-09T11:56:49Z</time>
      </trkpt>
      <trkpt lat="45.97667" lon="4.75671">
        <ele>169</ele>
        <time>2017-12-09T11:56:50Z</time>
      </trkpt>
      <trkpt lat="45.97662" lon="4.75673">
        <ele>170</ele>
        <time>2017-12-09T11:56:51Z</time>
      </trkpt>
      <trkpt lat="45.97657" lon="4.75673">
        <ele>170</ele>
        <time>2017-12-09T11:56:52Z</time>
      </trkpt>
      <trkpt lat="45.97648" lon="4.75672">
        <ele>170</ele>
        <time>2017-12-09T11:56:54Z</time>
      </trkpt>
      <trkpt lat="45.9764" lon="4.75671">
        <ele>170</ele>
        <time>2017-12-09T11:56:55Z</time>
      </trkpt>
      <trkpt lat="45.97633" lon="4.75671">
        <ele>170</ele>
        <time>2017-12-09T11:56:56Z</time>
      </trkpt>
      <trkpt lat="45.97627" lon="4.75672">
        <ele>171</ele>
        <time>2017-12-09T11:56:57Z</time>
      </trkpt>
      <trkpt lat="45.97621" lon="4.75672">
        <ele>171</ele>
        <time>2017-12-09T11:56:58Z</time>
      </trkpt>
      <trkpt lat="45.97615" lon="4.75674">
        <ele>171</ele>
        <time>2017-12-09T11:56:59Z</time>
      </trkpt>
      <trkpt lat="45.9761" lon="4.75676">
        <ele>171</ele>
        <time>2017-12-09T11:57:00Z</time>
      </trkpt>
      <trkpt lat="45.97606" lon="4.7568">
        <ele>171</ele>
        <time>2017-12-09T11:57:01Z</time>
      </trkpt>
      <trkpt lat="45.976" lon="4.75684">
        <ele>171</ele>
        <time>2017-12-09T11:57:02Z</time>
      </trkpt>
      <trkpt lat="45.97595" lon="4.75686">
        <ele>171</ele>
        <time>2017-12-09T11:57:03Z</time>
      </trkpt>
      <trkpt lat="45.97587" lon="4.75682">
        <ele>171</ele>
        <time>2017-12-09T11:57:05Z</time>
      </trkpt>
      <trkpt lat="45.97584" lon="4.75678">
        <ele>171</ele>
        <time>2017-12-09T11:57:06Z</time>
      </trkpt>
      <trkpt lat="45.9758" lon="4.75674">
        <ele>171</ele>
        <time>2017-12-09T11:57:07Z</time>
      </trkpt>
      <trkpt lat="45.97576" lon="4.75671">
        <ele>171</ele>
        <time>2017-12-09T11:57:08Z</time>
      </trkpt>
      <trkpt lat="45.97572" lon="4.75669">
        <ele>171</ele>
        <time>2017-12-09T11:57:09Z</time>
      </trkpt>
      <trkpt lat="45.97567" lon="4.75668">
        <ele>171</ele>
        <time>2017-12-09T11:57:10Z</time>
      </trkpt>
      <trkpt lat="45.97562" lon="4.75667">
        <ele>170</ele>
        <time>2017-12-09T11:57:11Z</time>
      </trkpt>
      <trkpt lat="45.97557" lon="4.75664">
        <ele>169</ele>
        <time>2017-12-09T11:57:12Z</time>
      </trkpt>
      <trkpt lat="45.97552" lon="4.75662">
        <ele>169</ele>
        <time>2017-12-09T11:57:13Z</time>
      </trkpt>
      <trkpt lat="45.97547" lon="4.75661">
        <ele>169</ele>
        <time>2017-12-09T11:57:14Z</time>
      </trkpt>
      <trkpt lat="45.9754" lon="4.75661">
        <ele>169</ele>
        <time>2017-12-09T11:57:15Z</time>
      </trkpt>
      <trkpt lat="45.97535" lon="4.75663">
        <ele>169</ele>
        <time>2017-12-09T11:57:16Z</time>
      </trkpt>
      <trkpt lat="45.97529" lon="4.75666">
        <ele>169</ele>
        <time>2017-12-09T11:57:17Z</time>
      </trkpt>
      <trkpt lat="45.97524" lon="4.75669">
        <ele>171</ele>
        <time>2017-12-09T11:57:18Z</time>
      </trkpt>
      <trkpt lat="45.9752" lon="4.75671">
        <ele>171</ele>
        <time>2017-12-09T11:57:19Z</time>
      </trkpt>
      <trkpt lat="45.97514" lon="4.75673">
        <ele>171</ele>
        <time>2017-12-09T11:57:20Z</time>
      </trkpt>
      <trkpt lat="45.9751" lon="4.75675">
        <ele>171</ele>
        <time>2017-12-09T11:57:21Z</time>
      </trkpt>
      <trkpt lat="45.97505" lon="4.75677">
        <ele>171</ele>
        <time>2017-12-09T11:57:22Z</time>
      </trkpt>
      <trkpt lat="45.97499" lon="4.75677">
        <ele>170</ele>
        <time>2017-12-09T11:57:23Z</time>
      </trkpt>
      <trkpt lat="45.97493" lon="4.75679">
        <ele>170</ele>
        <time>2017-12-09T11:57:24Z</time>
      </trkpt>
      <trkpt lat="45.97489" lon="4.75679">
        <ele>171</ele>
        <time>2017-12-09T11:57:25Z</time>
      </trkpt>
      <trkpt lat="45.97483" lon="4.7568">
        <ele>171</ele>
        <time>2017-12-09T11:57:26Z</time>
      </trkpt>
      <trkpt lat="45.97478" lon="4.75682">
        <ele>171</ele>
        <time>2017-12-09T11:57:27Z</time>
      </trkpt>
      <trkpt lat="45.97473" lon="4.75682">
        <ele>171</ele>
        <time>2017-12-09T11:57:28Z</time>
      </trkpt>
      <trkpt lat="45.97469" lon="4.75683">
        <ele>171</ele>
        <time>2017-12-09T11:57:29Z</time>
      </trkpt>
      <trkpt lat="45.97464" lon="4.75682">
        <ele>171</ele>
        <time>2017-12-09T11:57:30Z</time>
      </trkpt>
      <trkpt lat="45.97458" lon="4.75682">
        <ele>171</ele>
        <time>2017-12-09T11:57:31Z</time>
      </trkpt>
      <trkpt lat="45.97451" lon="4.75681">
        <ele>170</ele>
        <time>2017-12-09T11:57:32Z</time>
      </trkpt>
      <trkpt lat="45.97445" lon="4.75682">
        <ele>170</ele>
        <time>2017-12-09T11:57:33Z</time>
      </trkpt>
      <trkpt lat="45.97439" lon="4.75682">
        <ele>170</ele>
        <time>2017-12-09T11:57:34Z</time>
      </trkpt>
      <trkpt lat="45.97434" lon="4.75682">
        <ele>170</ele>
        <time>2017-12-09T11:57:35Z</time>
      </trkpt>
      <trkpt lat="45.97429" lon="4.75682">
        <ele>170</ele>
        <time>2017-12-09T11:57:36Z</time>
      </trkpt>
      <trkpt lat="45.97422" lon="4.75682">
        <ele>170</ele>
        <time>2017-12-09T11:57:37Z</time>
      </trkpt>
      <trkpt lat="45.97415" lon="4.75683">
        <ele>171</ele>
        <time>2017-12-09T11:57:38Z</time>
      </trkpt>
      <trkpt lat="45.97409" lon="4.75683">
        <ele>172</ele>
        <time>2017-12-09T11:57:39Z</time>
      </trkpt>
      <trkpt lat="45.97402" lon="4.75683">
        <ele>172</ele>
        <time>2017-12-09T11:57:40Z</time>
      </trkpt>
      <trkpt lat="45.97397" lon="4.75684">
        <ele>172</ele>
        <time>2017-12-09T11:57:41Z</time>
      </trkpt>
      <trkpt lat="45.97391" lon="4.75684">
        <ele>173</ele>
        <time>2017-12-09T11:57:42Z</time>
      </trkpt>
      <trkpt lat="45.97386" lon="4.75686">
        <ele>173</ele>
        <time>2017-12-09T11:57:43Z</time>
      </trkpt>
      <trkpt lat="45.97381" lon="4.75686">
        <ele>173</ele>
        <time>2017-12-09T11:57:44Z</time>
      </trkpt>
      <trkpt lat="45.97376" lon="4.75686">
        <ele>174</ele>
        <time>2017-12-09T11:57:45Z</time>
      </trkpt>
      <trkpt lat="45.97371" lon="4.75688">
        <ele>174</ele>
        <time>2017-12-09T11:57:46Z</time>
      </trkpt>
      <trkpt lat="45.97363" lon="4.75686">
        <ele>174</ele>
        <time>2017-12-09T11:57:48Z</time>
      </trkpt>
      <trkpt lat="45.97358" lon="4.75685">
        <ele>174</ele>
        <time>2017-12-09T11:57:49Z</time>
      </trkpt>
      <trkpt lat="45.97353" lon="4.75685">
        <ele>175</ele>
        <time>2017-12-09T11:57:50Z</time>
      </trkpt>
      <trkpt lat="45.97345" lon="4.75683">
        <ele>175</ele>
        <time>2017-12-09T11:57:51Z</time>
      </trkpt>
      <trkpt lat="45.9734" lon="4.75683">
        <ele>175</ele>
        <time>2017-12-09T11:57:52Z</time>
      </trkpt>
      <trkpt lat="45.97335" lon="4.75682">
        <ele>175</ele>
        <time>2017-12-09T11:57:53Z</time>
      </trkpt>
      <trkpt lat="45.9733" lon="4.75681">
        <ele>176</ele>
        <time>2017-12-09T11:57:54Z</time>
      </trkpt>
      <trkpt lat="45.97324" lon="4.7568">
        <ele>176</ele>
        <time>2017-12-09T11:57:55Z</time>
      </trkpt>
      <trkpt lat="45.97319" lon="4.75679">
        <ele>176</ele>
        <time>2017-12-09T11:57:56Z</time>
      </trkpt>
      <trkpt lat="45.97313" lon="4.75678">
        <ele>176</ele>
        <time>2017-12-09T11:57:57Z</time>
      </trkpt>
      <trkpt lat="45.97307" lon="4.75678">
        <ele>176</ele>
        <time>2017-12-09T11:57:58Z</time>
      </trkpt>
      <trkpt lat="45.97301" lon="4.75676">
        <ele>176</ele>
        <time>2017-12-09T11:57:59Z</time>
      </trkpt>
      <trkpt lat="45.97296" lon="4.75675">
        <ele>176</ele>
        <time>2017-12-09T11:58:00Z</time>
      </trkpt>
      <trkpt lat="45.97291" lon="4.75673">
        <ele>176</ele>
        <time>2017-12-09T11:58:01Z</time>
      </trkpt>
      <trkpt lat="45.97287" lon="4.75669">
        <ele>176</ele>
        <time>2017-12-09T11:58:02Z</time>
      </trkpt>
      <trkpt lat="45.97281" lon="4.75669">
        <ele>176</ele>
        <time>2017-12-09T11:58:03Z</time>
      </trkpt>
      <trkpt lat="45.97276" lon="4.75668">
        <ele>176</ele>
        <time>2017-12-09T11:58:04Z</time>
      </trkpt>
      <trkpt lat="45.97271" lon="4.75667">
        <ele>176</ele>
        <time>2017-12-09T11:58:05Z</time>
      </trkpt>
      <trkpt lat="45.97266" lon="4.75666">
        <ele>173</ele>
        <time>2017-12-09T11:58:06Z</time>
      </trkpt>
      <trkpt lat="45.97262" lon="4.75664">
        <ele>173</ele>
        <time>2017-12-09T11:58:07Z</time>
      </trkpt>
      <trkpt lat="45.97253" lon="4.75661">
        <ele>173</ele>
        <time>2017-12-09T11:58:09Z</time>
      </trkpt>
      <trkpt lat="45.97249" lon="4.7566">
        <ele>174</ele>
        <time>2017-12-09T11:58:10Z</time>
      </trkpt>
      <trkpt lat="45.97245" lon="4.75658">
        <ele>173</ele>
        <time>2017-12-09T11:58:11Z</time>
      </trkpt>
      <trkpt lat="45.9724" lon="4.75656">
        <ele>173</ele>
        <time>2017-12-09T11:58:12Z</time>
      </trkpt>
      <trkpt lat="45.97234" lon="4.75654">
        <ele>173</ele>
        <time>2017-12-09T11:58:13Z</time>
      </trkpt>
      <trkpt lat="45.97229" lon="4.75652">
        <ele>173</ele>
        <time>2017-12-09T11:58:14Z</time>
      </trkpt>
      <trkpt lat="45.97223" lon="4.75651">
        <ele>173</ele>
        <time>2017-12-09T11:58:15Z</time>
      </trkpt>
      <trkpt lat="45.97217" lon="4.75649">
        <ele>173</ele>
        <time>2017-12-09T11:58:16Z</time>
      </trkpt>
      <trkpt lat="45.97212" lon="4.75647">
        <ele>173</ele>
        <time>2017-12-09T11:58:17Z</time>
      </trkpt>
      <trkpt lat="45.97207" lon="4.75645">
        <ele>173</ele>
        <time>2017-12-09T11:58:18Z</time>
      </trkpt>
      <trkpt lat="45.97201" lon="4.75642">
        <ele>173</ele>
        <time>2017-12-09T11:58:19Z</time>
      </trkpt>
      <trkpt lat="45.97197" lon="4.75639">
        <ele>173</ele>
        <time>2017-12-09T11:58:20Z</time>
      </trkpt>
      <trkpt lat="45.97191" lon="4.75638">
        <ele>173</ele>
        <time>2017-12-09T11:58:21Z</time>
      </trkpt>
      <trkpt lat="45.97183" lon="4.75635">
        <ele>174</ele>
        <time>2017-12-09T11:58:22Z</time>
      </trkpt>
      <trkpt lat="45.97176" lon="4.75632">
        <ele>174</ele>
        <time>2017-12-09T11:58:23Z</time>
      </trkpt>
      <trkpt lat="45.9717" lon="4.75629">
        <ele>174</ele>
        <time>2017-12-09T11:58:24Z</time>
      </trkpt>
      <trkpt lat="45.97166" lon="4.75626">
        <ele>176</ele>
        <time>2017-12-09T11:58:25Z</time>
      </trkpt>
      <trkpt lat="45.9716" lon="4.75623">
        <ele>176</ele>
        <time>2017-12-09T11:58:26Z</time>
      </trkpt>
      <trkpt lat="45.97157" lon="4.7562">
        <ele>176</ele>
        <time>2017-12-09T11:58:27Z</time>
      </trkpt>
      <trkpt lat="45.97149" lon="4.75617">
        <ele>176</ele>
        <time>2017-12-09T11:58:28Z</time>
      </trkpt>
      <trkpt lat="45.97144" lon="4.75614">
        <ele>176</ele>
        <time>2017-12-09T11:58:29Z</time>
      </trkpt>
      <trkpt lat="45.9714" lon="4.75611">
        <ele>176</ele>
        <time>2017-12-09T11:58:30Z</time>
      </trkpt>
      <trkpt lat="45.97134" lon="4.75609">
        <ele>176</ele>
        <time>2017-12-09T11:58:31Z</time>
      </trkpt>
      <trkpt lat="45.97128" lon="4.75607">
        <ele>176</ele>
        <time>2017-12-09T11:58:32Z</time>
      </trkpt>
      <trkpt lat="45.97124" lon="4.75603">
        <ele>176</ele>
        <time>2017-12-09T11:58:33Z</time>
      </trkpt>
      <trkpt lat="45.97117" lon="4.756">
        <ele>176</ele>
        <time>2017-12-09T11:58:34Z</time>
      </trkpt>
      <trkpt lat="45.97112" lon="4.75599">
        <ele>176</ele>
        <time>2017-12-09T11:58:35Z</time>
      </trkpt>
      <trkpt lat="45.97107" lon="4.75596">
        <ele>176</ele>
        <time>2017-12-09T11:58:36Z</time>
      </trkpt>
      <trkpt lat="45.97101" lon="4.75594">
        <ele>176</ele>
        <time>2017-12-09T11:58:37Z</time>
      </trkpt>
      <trkpt lat="45.97095" lon="4.75592">
        <ele>176</ele>
        <time>2017-12-09T11:58:38Z</time>
      </trkpt>
      <trkpt lat="45.9709" lon="4.7559">
        <ele>176</ele>
        <time>2017-12-09T11:58:39Z</time>
      </trkpt>
      <trkpt lat="45.97083" lon="4.75588">
        <ele>176</ele>
        <time>2017-12-09T11:58:40Z</time>
      </trkpt>
      <trkpt lat="45.97078" lon="4.75586">
        <ele>177</ele>
        <time>2017-12-09T11:58:41Z</time>
      </trkpt>
      <trkpt lat="45.97074" lon="4.75584">
        <ele>177</ele>
        <time>2017-12-09T11:58:42Z</time>
      </trkpt>
      <trkpt lat="45.97068" lon="4.75582">
        <ele>174</ele>
        <time>2017-12-09T11:58:43Z</time>
      </trkpt>
      <trkpt lat="45.97061" lon="4.7558">
        <ele>174</ele>
        <time>2017-12-09T11:58:44Z</time>
      </trkpt>
      <trkpt lat="45.97056" lon="4.75578">
        <ele>174</ele>
        <time>2017-12-09T11:58:45Z</time>
      </trkpt>
      <trkpt lat="45.9705" lon="4.75575">
        <ele>173</ele>
        <time>2017-12-09T11:58:46Z</time>
      </trkpt>
      <trkpt lat="45.97044" lon="4.75572">
        <ele>173</ele>
        <time>2017-12-09T11:58:47Z</time>
      </trkpt>
      <trkpt lat="45.97039" lon="4.7557">
        <ele>174</ele>
        <time>2017-12-09T11:58:48Z</time>
      </trkpt>
      <trkpt lat="45.97033" lon="4.75568">
        <ele>174</ele>
        <time>2017-12-09T11:58:49Z</time>
      </trkpt>
      <trkpt lat="45.97027" lon="4.75565">
        <ele>174</ele>
        <time>2017-12-09T11:58:50Z</time>
      </trkpt>
      <trkpt lat="45.97021" lon="4.75563">
        <ele>174</ele>
        <time>2017-12-09T11:58:51Z</time>
      </trkpt>
      <trkpt lat="45.97016" lon="4.7556">
        <ele>174</ele>
        <time>2017-12-09T11:58:52Z</time>
      </trkpt>
      <trkpt lat="45.9701" lon="4.75558">
        <ele>174</ele>
        <time>2017-12-09T11:58:53Z</time>
      </trkpt>
      <trkpt lat="45.97005" lon="4.75557">
        <ele>174</ele>
        <time>2017-12-09T11:58:54Z</time>
      </trkpt>
      <trkpt lat="45.97001" lon="4.75554">
        <ele>174</ele>
        <time>2017-12-09T11:58:55Z</time>
      </trkpt>
      <trkpt lat="45.96995" lon="4.75552">
        <ele>175</ele>
        <time>2017-12-09T11:58:56Z</time>
      </trkpt>
      <trkpt lat="45.96989" lon="4.7555">
        <ele>175</ele>
        <time>2017-12-09T11:58:57Z</time>
      </trkpt>
      <trkpt lat="45.96984" lon="4.75548">
        <ele>175</ele>
        <time>2017-12-09T11:58:58Z</time>
      </trkpt>
      <trkpt lat="45.96978" lon="4.75546">
        <ele>175</ele>
        <time>2017-12-09T11:58:59Z</time>
      </trkpt>
      <trkpt lat="45.96973" lon="4.75544">
        <ele>175</ele>
        <time>2017-12-09T11:59:00Z</time>
      </trkpt>
      <trkpt lat="45.96967" lon="4.75542">
        <ele>175</ele>
        <time>2017-12-09T11:59:01Z</time>
      </trkpt>
      <trkpt lat="45.96962" lon="4.75541">
        <ele>175</ele>
        <time>2017-12-09T11:59:02Z</time>
      </trkpt>
      <trkpt lat="45.96956" lon="4.75539">
        <ele>175</ele>
        <time>2017-12-09T11:59:03Z</time>
      </trkpt>
      <trkpt lat="45.96951" lon="4.75537">
        <ele>175</ele>
        <time>2017-12-09T11:59:04Z</time>
      </trkpt>
      <trkpt lat="45.96945" lon="4.75536">
        <ele>175</ele>
        <time>2017-12-09T11:59:05Z</time>
      </trkpt>
      <trkpt lat="45.9694" lon="4.75533">
        <ele>175</ele>
        <time>2017-12-09T11:59:06Z</time>
      </trkpt>
      <trkpt lat="45.96933" lon="4.7553">
        <ele>175</ele>
        <time>2017-12-09T11:59:07Z</time>
      </trkpt>
      <trkpt lat="45.96927" lon="4.75528">
        <ele>175</ele>
        <time>2017-12-09T11:59:08Z</time>
      </trkpt>
      <trkpt lat="45.96922" lon="4.75527">
        <ele>175</ele>
        <time>2017-12-09T11:59:09Z</time>
      </trkpt>
      <trkpt lat="45.96916" lon="4.75525">
        <ele>178</ele>
        <time>2017-12-09T11:59:10Z</time>
      </trkpt>
      <trkpt lat="45.96912" lon="4.75521">
        <ele>177</ele>
        <time>2017-12-09T11:59:11Z</time>
      </trkpt>
      <trkpt lat="45.96906" lon="4.75519">
        <ele>178</ele>
        <time>2017-12-09T11:59:12Z</time>
      </trkpt>
      <trkpt lat="45.96901" lon="4.75517">
        <ele>178</ele>
        <time>2017-12-09T11:59:13Z</time>
      </trkpt>
      <trkpt lat="45.96896" lon="4.75515">
        <ele>178</ele>
        <time>2017-12-09T11:59:14Z</time>
      </trkpt>
      <trkpt lat="45.96887" lon="4.75512">
        <ele>178</ele>
        <time>2017-12-09T11:59:15Z</time>
      </trkpt>
      <trkpt lat="45.96882" lon="4.75509">
        <ele>178</ele>
        <time>2017-12-09T11:59:16Z</time>
      </trkpt>
      <trkpt lat="45.96877" lon="4.75507">
        <ele>178</ele>
        <time>2017-12-09T11:59:17Z</time>
      </trkpt>
      <trkpt lat="45.96872" lon="4.75505">
        <ele>179</ele>
        <time>2017-12-09T11:59:18Z</time>
      </trkpt>
      <trkpt lat="45.96867" lon="4.75503">
        <ele>178</ele>
        <time>2017-12-09T11:59:19Z</time>
      </trkpt>
      <trkpt lat="45.96862" lon="4.75501">
        <ele>178</ele>
        <time>2017-12-09T11:59:20Z</time>
      </trkpt>
      <trkpt lat="45.96858" lon="4.755">
        <ele>172</ele>
        <time>2017-12-09T11:59:21Z</time>
      </trkpt>
      <trkpt lat="45.96853" lon="4.75498">
        <ele>172</ele>
        <time>2017-12-09T11:59:22Z</time>
      </trkpt>
      <trkpt lat="45.96847" lon="4.75496">
        <ele>172</ele>
        <time>2017-12-09T11:59:23Z</time>
      </trkpt>
      <trkpt lat="45.96842" lon="4.75494">
        <ele>173</ele>
        <time>2017-12-09T11:59:24Z</time>
      </trkpt>
      <trkpt lat="45.96837" lon="4.75493">
        <ele>173</ele>
        <time>2017-12-09T11:59:25Z</time>
      </trkpt>
      <trkpt lat="45.96832" lon="4.7549">
        <ele>174</ele>
        <time>2017-12-09T11:59:26Z</time>
      </trkpt>
      <trkpt lat="45.96826" lon="4.75488">
        <ele>174</ele>
        <time>2017-12-09T11:59:27Z</time>
      </trkpt>
      <trkpt lat="45.96821" lon="4.75486">
        <ele>174</ele>
        <time>2017-12-09T11:59:28Z</time>
      </trkpt>
      <trkpt lat="45.96816" lon="4.75483">
        <ele>174</ele>
        <time>2017-12-09T11:59:29Z</time>
      </trkpt>
      <trkpt lat="45.96811" lon="4.7548">
        <ele>174</ele>
        <time>2017-12-09T11:59:30Z</time>
      </trkpt>
      <trkpt lat="45.96806" lon="4.75478">
        <ele>174</ele>
        <time>2017-12-09T11:59:31Z</time>
      </trkpt>
      <trkpt lat="45.968" lon="4.75476">
        <ele>174</ele>
        <time>2017-12-09T11:59:32Z</time>
      </trkpt>
      <trkpt lat="45.96795" lon="4.75473">
        <ele>174</ele>
        <time>2017-12-09T11:59:33Z</time>
      </trkpt>
      <trkpt lat="45.9679" lon="4.75471">
        <ele>174</ele>
        <time>2017-12-09T11:59:34Z</time>
      </trkpt>
      <trkpt lat="45.96785" lon="4.75468">
        <ele>174</ele>
        <time>2017-12-09T11:59:35Z</time>
      </trkpt>
      <trkpt lat="45.9678" lon="4.75466">
        <ele>174</ele>
        <time>2017-12-09T11:59:36Z</time>
      </trkpt>
      <trkpt lat="45.96771" lon="4.75463">
        <ele>174</ele>
        <time>2017-12-09T11:59:38Z</time>
      </trkpt>
      <trkpt lat="45.96766" lon="4.75461">
        <ele>174</ele>
        <time>2017-12-09T11:59:39Z</time>
      </trkpt>
      <trkpt lat="45.96761" lon="4.75458">
        <ele>174</ele>
        <time>2017-12-09T11:59:40Z</time>
      </trkpt>
      <trkpt lat="45.96753" lon="4.75456">
        <ele>174</ele>
        <time>2017-12-09T11:59:41Z</time>
      </trkpt>
      <trkpt lat="45.96748" lon="4.75453">
        <ele>179</ele>
        <time>2017-12-09T11:59:42Z</time>
      </trkpt>
      <trkpt lat="45.96743" lon="4.75451">
        <ele>179</ele>
        <time>2017-12-09T11:59:43Z</time>
      </trkpt>
      <trkpt lat="45.96738" lon="4.75448">
        <ele>179</ele>
        <time>2017-12-09T11:59:44Z</time>
      </trkpt>
      <trkpt lat="45.96733" lon="4.75445">
        <ele>178</ele>
        <time>2017-12-09T11:59:45Z</time>
      </trkpt>
      <trkpt lat="45.96728" lon="4.75443">
        <ele>178</ele>
        <time>2017-12-09T11:59:46Z</time>
      </trkpt>
      <trkpt lat="45.96724" lon="4.75441">
        <ele>179</ele>
        <time>2017-12-09T11:59:47Z</time>
      </trkpt>
      <trkpt lat="45.96719" lon="4.75439">
        <ele>179</ele>
        <time>2017-12-09T11:59:48Z</time>
      </trkpt>
      <trkpt lat="45.96714" lon="4.75437">
        <ele>179</ele>
        <time>2017-12-09T11:59:49Z</time>
      </trkpt>
      <trkpt lat="45.9671" lon="4.75435">
        <ele>179</ele>
        <time>2017-12-09T11:59:50Z</time>
      </trkpt>
      <trkpt lat="45.96705" lon="4.75432">
        <ele>179</ele>
        <time>2017-12-09T11:59:51Z</time>
      </trkpt>
      <trkpt lat="45.96701" lon="4.75428">
        <ele>179</ele>
        <time>2017-12-09T11:59:52Z</time>
      </trkpt>
      <trkpt lat="45.96696" lon="4.75425">
        <ele>179</ele>
        <time>2017-12-09T11:59:53Z</time>
      </trkpt>
      <trkpt lat="45.96692" lon="4.75423">
        <ele>179</ele>
        <time>2017-12-09T11:59:54Z</time>
      </trkpt>
      <trkpt lat="45.96687" lon="4.75421">
        <ele>179</ele>
        <time>2017-12-09T11:59:55Z</time>
      </trkpt>
      <trkpt lat="45.96682" lon="4.75417">
        <ele>178</ele>
        <time>2017-12-09T11:59:56Z</time>
      </trkpt>
      <trkpt lat="45.96677" lon="4.75414">
        <ele>173</ele>
        <time>2017-12-09T11:59:57Z</time>
      </trkpt>
      <trkpt lat="45.96672" lon="4.75411">
        <ele>174</ele>
        <time>2017-12-09T11:59:58Z</time>
      </trkpt>
      <trkpt lat="45.96668" lon="4.7541">
        <ele>174</ele>
        <time>2017-12-09T11:59:59Z</time>
      </trkpt>
      <trkpt lat="45.96663" lon="4.75407">
        <ele>177</ele>
        <time>2017-12-09T12:00:00Z</time>
      </trkpt>
      <trkpt lat="45.96658" lon="4.75405">
        <ele>178</ele>
        <time>2017-12-09T12:00:01Z</time>
      </trkpt>
      <trkpt lat="45.96654" lon="4.75402">
        <ele>178</ele>
        <time>2017-12-09T12:00:02Z</time>
      </trkpt>
      <trkpt lat="45.96649" lon="4.754">
        <ele>178</ele>
        <time>2017-12-09T12:00:03Z</time>
      </trkpt>
      <trkpt lat="45.96644" lon="4.75398">
        <ele>179</ele>
        <time>2017-12-09T12:00:04Z</time>
      </trkpt>
      <trkpt lat="45.96639" lon="4.75394">
        <ele>179</ele>
        <time>2017-12-09T12:00:05Z</time>
      </trkpt>
      <trkpt lat="45.96634" lon="4.75392">
        <ele>180</ele>
        <time>2017-12-09T12:00:06Z</time>
      </trkpt>
      <trkpt lat="45.96629" lon="4.75388">
        <ele>180</ele>
        <time>2017-12-09T12:00:07Z</time>
      </trkpt>
      <trkpt lat="45.96624" lon="4.75387">
        <ele>181</ele>
        <time>2017-12-09T12:00:08Z</time>
      </trkpt>
      <trkpt lat="45.96618" lon="4.75385">
        <ele>181</ele>
        <time>2017-12-09T12:00:09Z</time>
      </trkpt>
      <trkpt lat="45.96613" lon="4.75383">
        <ele>182</ele>
        <time>2017-12-09T12:00:10Z</time>
      </trkpt>
      <trkpt lat="45.96608" lon="4.75381">
        <ele>182</ele>
        <time>2017-12-09T12:00:11Z</time>
      </trkpt>
      <trkpt lat="45.96604" lon="4.75378">
        <ele>182</ele>
        <time>2017-12-09T12:00:12Z</time>
      </trkpt>
      <trkpt lat="45.96599" lon="4.75375">
        <ele>182</ele>
        <time>2017-12-09T12:00:13Z</time>
      </trkpt>
      <trkpt lat="45.96589" lon="4.75376">
        <ele>182</ele>
        <time>2017-12-09T12:00:14Z</time>
      </trkpt>
      <trkpt lat="45.96582" lon="4.75368">
        <ele>190</ele>
        <time>2017-12-09T12:00:16Z</time>
      </trkpt>
      <trkpt lat="45.96578" lon="4.75365">
        <ele>189</ele>
        <time>2017-12-09T12:00:17Z</time>
      </trkpt>
      <trkpt lat="45.96573" lon="4.75361">
        <ele>189</ele>
        <time>2017-12-09T12:00:18Z</time>
      </trkpt>
      <trkpt lat="45.96568" lon="4.75359">
        <ele>189</ele>
        <time>2017-12-09T12:00:19Z</time>
      </trkpt>
      <trkpt lat="45.96564" lon="4.75356">
        <ele>189</ele>
        <time>2017-12-09T12:00:20Z</time>
      </trkpt>
      <trkpt lat="45.96559" lon="4.75353">
        <ele>189</ele>
        <time>2017-12-09T12:00:21Z</time>
      </trkpt>
      <trkpt lat="45.96554" lon="4.75348">
        <ele>189</ele>
        <time>2017-12-09T12:00:22Z</time>
      </trkpt>
      <trkpt lat="45.9655" lon="4.75345">
        <ele>189</ele>
        <time>2017-12-09T12:00:23Z</time>
      </trkpt>
      <trkpt lat="45.96545" lon="4.75342">
        <ele>190</ele>
        <time>2017-12-09T12:00:24Z</time>
      </trkpt>
      <trkpt lat="45.9654" lon="4.75339">
        <ele>190</ele>
        <time>2017-12-09T12:00:25Z</time>
      </trkpt>
      <trkpt lat="45.96534" lon="4.75337">
        <ele>190</ele>
        <time>2017-12-09T12:00:26Z</time>
      </trkpt>
      <trkpt lat="45.96531" lon="4.75334">
        <ele>190</ele>
        <time>2017-12-09T12:00:27Z</time>
      </trkpt>
      <trkpt lat="45.96526" lon="4.75331">
        <ele>180</ele>
        <time>2017-12-09T12:00:28Z</time>
      </trkpt>
      <trkpt lat="45.96521" lon="4.75329">
        <ele>180</ele>
        <time>2017-12-09T12:00:29Z</time>
      </trkpt>
      <trkpt lat="45.96517" lon="4.75326">
        <ele>181</ele>
        <time>2017-12-09T12:00:30Z</time>
      </trkpt>
      <trkpt lat="45.96512" lon="4.75322">
        <ele>181</ele>
        <time>2017-12-09T12:00:31Z</time>
      </trkpt>
      <trkpt lat="45.96507" lon="4.7532">
        <ele>182</ele>
        <time>2017-12-09T12:00:32Z</time>
      </trkpt>
      <trkpt lat="45.96503" lon="4.75315">
        <ele>181</ele>
        <time>2017-12-09T12:00:33Z</time>
      </trkpt>
      <trkpt lat="45.96498" lon="4.75312">
        <ele>186</ele>
        <time>2017-12-09T12:00:34Z</time>
      </trkpt>
      <trkpt lat="45.96492" lon="4.75309">
        <ele>186</ele>
        <time>2017-12-09T12:00:35Z</time>
      </trkpt>
      <trkpt lat="45.96487" lon="4.75307">
        <ele>186</ele>
        <time>2017-12-09T12:00:36Z</time>
      </trkpt>
      <trkpt lat="45.96483" lon="4.75304">
        <ele>186</ele>
        <time>2017-12-09T12:00:37Z</time>
      </trkpt>
      <trkpt lat="45.96479" lon="4.75302">
        <ele>186</ele>
        <time>2017-12-09T12:00:38Z</time>
      </trkpt>
      <trkpt lat="45.96474" lon="4.753">
        <ele>186</ele>
        <time>2017-12-09T12:00:39Z</time>
      </trkpt>
      <trkpt lat="45.96469" lon="4.75298">
        <ele>186</ele>
        <time>2017-12-09T12:00:40Z</time>
      </trkpt>
      <trkpt lat="45.96464" lon="4.75297">
        <ele>186</ele>
        <time>2017-12-09T12:00:41Z</time>
      </trkpt>
      <trkpt lat="45.96459" lon="4.75294">
        <ele>186</ele>
        <time>2017-12-09T12:00:42Z</time>
      </trkpt>
      <trkpt lat="45.96454" lon="4.75292">
        <ele>187</ele>
        <time>2017-12-09T12:00:43Z</time>
      </trkpt>
      <trkpt lat="45.96448" lon="4.7529">
        <ele>187</ele>
        <time>2017-12-09T12:00:44Z</time>
      </trkpt>
      <trkpt lat="45.96445" lon="4.75286">
        <ele>187</ele>
        <time>2017-12-09T12:00:45Z</time>
      </trkpt>
      <trkpt lat="45.96441" lon="4.75284">
        <ele>187</ele>
        <time>2017-12-09T12:00:46Z</time>
      </trkpt>
      <trkpt lat="45.96435" lon="4.75281">
        <ele>186</ele>
        <time>2017-12-09T12:00:47Z</time>
      </trkpt>
      <trkpt lat="45.9643" lon="4.75279">
        <ele>186</ele>
        <time>2017-12-09T12:00:48Z</time>
      </trkpt>
      <trkpt lat="45.96426" lon="4.75276">
        <ele>186</ele>
        <time>2017-12-09T12:00:49Z</time>
      </trkpt>
      <trkpt lat="45.96421" lon="4.75275">
        <ele>186</ele>
        <time>2017-12-09T12:00:50Z</time>
      </trkpt>
      <trkpt lat="45.96416" lon="4.75273">
        <ele>191</ele>
        <time>2017-12-09T12:00:51Z</time>
      </trkpt>
      <trkpt lat="45.9641" lon="4.75272">
        <ele>191</ele>
        <time>2017-12-09T12:00:52Z</time>
      </trkpt>
      <trkpt lat="45.96404" lon="4.7527">
        <ele>191</ele>
        <time>2017-12-09T12:00:53Z</time>
      </trkpt>
      <trkpt lat="45.964" lon="4.75266">
        <ele>191</ele>
        <time>2017-12-09T12:00:54Z</time>
      </trkpt>
      <trkpt lat="45.96395" lon="4.75261">
        <ele>191</ele>
        <time>2017-12-09T12:00:55Z</time>
      </trkpt>
      <trkpt lat="45.9639" lon="4.7526">
        <ele>192</ele>
        <time>2017-12-09T12:00:56Z</time>
      </trkpt>
      <trkpt lat="45.96386" lon="4.75259">
        <ele>192</ele>
        <time>2017-12-09T12:00:57Z</time>
      </trkpt>
      <trkpt lat="45.9638" lon="4.75253">
        <ele>192</ele>
        <time>2017-12-09T12:00:59Z</time>
      </trkpt>
      <trkpt lat="45.96375" lon="4.75252">
        <ele>193</ele>
        <time>2017-12-09T12:01:00Z</time>
      </trkpt>
      <trkpt lat="45.96373" lon="4.75245">
        <ele>180</ele>
        <time>2017-12-09T12:01:02Z</time>
      </trkpt>
      <trkpt lat="45.96368" lon="4.75243">
        <ele>180</ele>
        <time>2017-12-09T12:01:03Z</time>
      </trkpt>
      <trkpt lat="45.96365" lon="4.7524">
        <ele>181</ele>
        <time>2017-12-09T12:01:04Z</time>
      </trkpt>
      <trkpt lat="45.96358" lon="4.75238">
        <ele>181</ele>
        <time>2017-12-09T12:01:05Z</time>
      </trkpt>
      <trkpt lat="45.96353" lon="4.75235">
        <ele>182</ele>
        <time>2017-12-09T12:01:07Z</time>
      </trkpt>
      <trkpt lat="45.96346" lon="4.75231">
        <ele>182</ele>
        <time>2017-12-09T12:01:08Z</time>
      </trkpt>
      <trkpt lat="45.96338" lon="4.75227">
        <ele>181</ele>
        <time>2017-12-09T12:01:10Z</time>
      </trkpt>
      <trkpt lat="45.96334" lon="4.75224">
        <ele>181</ele>
        <time>2017-12-09T12:01:11Z</time>
      </trkpt>
      <trkpt lat="45.9633" lon="4.75221">
        <ele>185</ele>
        <time>2017-12-09T12:01:12Z</time>
      </trkpt>
      <trkpt lat="45.96325" lon="4.7522">
        <ele>185</ele>
        <time>2017-12-09T12:01:13Z</time>
      </trkpt>
      <trkpt lat="45.9632" lon="4.75219">
        <ele>185</ele>
        <time>2017-12-09T12:01:14Z</time>
      </trkpt>
      <trkpt lat="45.96315" lon="4.75217">
        <ele>185</ele>
        <time>2017-12-09T12:01:15Z</time>
      </trkpt>
      <trkpt lat="45.96309" lon="4.75215">
        <ele>185</ele>
        <time>2017-12-09T12:01:16Z</time>
      </trkpt>
      <trkpt lat="45.96303" lon="4.75214">
        <ele>185</ele>
        <time>2017-12-09T12:01:17Z</time>
      </trkpt>
      <trkpt lat="45.96298" lon="4.75212">
        <ele>185</ele>
        <time>2017-12-09T12:01:18Z</time>
      </trkpt>
      <trkpt lat="45.96293" lon="4.75209">
        <ele>185</ele>
        <time>2017-12-09T12:01:19Z</time>
      </trkpt>
      <trkpt lat="45.96285" lon="4.75208">
        <ele>185</ele>
        <time>2017-12-09T12:01:21Z</time>
      </trkpt>
      <trkpt lat="45.96281" lon="4.75206">
        <ele>185</ele>
        <time>2017-12-09T12:01:22Z</time>
      </trkpt>
      <trkpt lat="45.96276" lon="4.75206">
        <ele>185</ele>
        <time>2017-12-09T12:01:23Z</time>
      </trkpt>
      <trkpt lat="45.96268" lon="4.75203">
        <ele>185</ele>
        <time>2017-12-09T12:01:24Z</time>
      </trkpt>
      <trkpt lat="45.96259" lon="4.752">
        <ele>185</ele>
        <time>2017-12-09T12:01:26Z</time>
      </trkpt>
      <trkpt lat="45.96253" lon="4.75196">
        <ele>185</ele>
        <time>2017-12-09T12:01:27Z</time>
      </trkpt>
      <trkpt lat="45.96246" lon="4.75192">
        <ele>191</ele>
        <time>2017-12-09T12:01:29Z</time>
      </trkpt>
      <trkpt lat="45.96241" lon="4.75189">
        <ele>191</ele>
        <time>2017-12-09T12:01:30Z</time>
      </trkpt>
      <trkpt lat="45.96235" lon="4.75187">
        <ele>191</ele>
        <time>2017-12-09T12:01:31Z</time>
      </trkpt>
      <trkpt lat="45.96231" lon="4.75184">
        <ele>191</ele>
        <time>2017-12-09T12:01:32Z</time>
      </trkpt>
      <trkpt lat="45.96227" lon="4.75181">
        <ele>191</ele>
        <time>2017-12-09T12:01:33Z</time>
      </trkpt>
      <trkpt lat="45.96223" lon="4.75178">
        <ele>192</ele>
        <time>2017-12-09T12:01:34Z</time>
      </trkpt>
      <trkpt lat="45.96218" lon="4.75175">
        <ele>192</ele>
        <time>2017-12-09T12:01:35Z</time>
      </trkpt>
      <trkpt lat="45.96212" lon="4.75173">
        <ele>193</ele>
        <time>2017-12-09T12:01:36Z</time>
      </trkpt>
      <trkpt lat="45.96205" lon="4.75166">
        <ele>185</ele>
        <time>2017-12-09T12:01:38Z</time>
      </trkpt>
      <trkpt lat="45.962" lon="4.75164">
        <ele>186</ele>
        <time>2017-12-09T12:01:39Z</time>
      </trkpt>
      <trkpt lat="45.96193" lon="4.75157">
        <ele>186</ele>
        <time>2017-12-09T12:01:41Z</time>
      </trkpt>
      <trkpt lat="45.96189" lon="4.75153">
        <ele>187</ele>
        <time>2017-12-09T12:01:42Z</time>
      </trkpt>
      <trkpt lat="45.96184" lon="4.7515">
        <ele>187</ele>
        <time>2017-12-09T12:01:43Z</time>
      </trkpt>
      <trkpt lat="45.9618" lon="4.75147">
        <ele>187</ele>
        <time>2017-12-09T12:01:44Z</time>
      </trkpt>
      <trkpt lat="45.96175" lon="4.75139">
        <ele>186</ele>
        <time>2017-12-09T12:01:46Z</time>
      </trkpt>
      <trkpt lat="45.96171" lon="4.75135">
        <ele>185</ele>
        <time>2017-12-09T12:01:47Z</time>
      </trkpt>
      <trkpt lat="45.96163" lon="4.75129">
        <ele>190</ele>
        <time>2017-12-09T12:01:49Z</time>
      </trkpt>
      <trkpt lat="45.96158" lon="4.75126">
        <ele>190</ele>
        <time>2017-12-09T12:01:50Z</time>
      </trkpt>
      <trkpt lat="45.96154" lon="4.75122">
        <ele>189</ele>
        <time>2017-12-09T12:01:51Z</time>
      </trkpt>
      <trkpt lat="45.9615" lon="4.75117">
        <ele>189</ele>
        <time>2017-12-09T12:01:52Z</time>
      </trkpt>
      <trkpt lat="45.96146" lon="4.75114">
        <ele>188</ele>
        <time>2017-12-09T12:01:53Z</time>
      </trkpt>
      <trkpt lat="45.96143" lon="4.7511">
        <ele>188</ele>
        <time>2017-12-09T12:01:54Z</time>
      </trkpt>
      <trkpt lat="45.96138" lon="4.75101">
        <ele>188</ele>
        <time>2017-12-09T12:01:56Z</time>
      </trkpt>
      <trkpt lat="45.96135" lon="4.75097">
        <ele>188</ele>
        <time>2017-12-09T12:01:57Z</time>
      </trkpt>
      <trkpt lat="45.96132" lon="4.75092">
        <ele>188</ele>
        <time>2017-12-09T12:01:58Z</time>
      </trkpt>
      <trkpt lat="45.96128" lon="4.75088">
        <ele>188</ele>
        <time>2017-12-09T12:01:59Z</time>
      </trkpt>
      <trkpt lat="45.96124" lon="4.75084">
        <ele>189</ele>
        <time>2017-12-09T12:02:00Z</time>
      </trkpt>
      <trkpt lat="45.9612" lon="4.75081">
        <ele>183</ele>
        <time>2017-12-09T12:02:01Z</time>
      </trkpt>
      <trkpt lat="45.96112" lon="4.75075">
        <ele>183</ele>
        <time>2017-12-09T12:02:03Z</time>
      </trkpt>
      <trkpt lat="45.96108" lon="4.75072">
        <ele>184</ele>
        <time>2017-12-09T12:02:04Z</time>
      </trkpt>
      <trkpt lat="45.96102" lon="4.75066">
        <ele>184</ele>
        <time>2017-12-09T12:02:06Z</time>
      </trkpt>
      <trkpt lat="45.96098" lon="4.75064">
        <ele>184</ele>
        <time>2017-12-09T12:02:07Z</time>
      </trkpt>
      <trkpt lat="45.96091" lon="4.75059">
        <ele>184</ele>
        <time>2017-12-09T12:02:09Z</time>
      </trkpt>
      <trkpt lat="45.96086" lon="4.75059">
        <ele>184</ele>
        <time>2017-12-09T12:02:10Z</time>
      </trkpt>
      <trkpt lat="45.9608" lon="4.75053">
        <ele>188</ele>
        <time>2017-12-09T12:02:12Z</time>
      </trkpt>
      <trkpt lat="45.96076" lon="4.75051">
        <ele>188</ele>
        <time>2017-12-09T12:02:13Z</time>
      </trkpt>
      <trkpt lat="45.96071" lon="4.7505">
        <ele>188</ele>
        <time>2017-12-09T12:02:14Z</time>
      </trkpt>
      <trkpt lat="45.96067" lon="4.75048">
        <ele>188</ele>
        <time>2017-12-09T12:02:15Z</time>
      </trkpt>
      <trkpt lat="45.9606" lon="4.75044">
        <ele>188</ele>
        <time>2017-12-09T12:02:17Z</time>
      </trkpt>
      <trkpt lat="45.96056" lon="4.75044">
        <ele>188</ele>
        <time>2017-12-09T12:02:18Z</time>
      </trkpt>
      <trkpt lat="45.96051" lon="4.75045">
        <ele>188</ele>
        <time>2017-12-09T12:02:19Z</time>
      </trkpt>
      <trkpt lat="45.96047" lon="4.75045">
        <ele>189</ele>
        <time>2017-12-09T12:02:20Z</time>
      </trkpt>
      <trkpt lat="45.9604" lon="4.75047">
        <ele>189</ele>
        <time>2017-12-09T12:02:22Z</time>
      </trkpt>
      <trkpt lat="45.96037" lon="4.75048">
        <ele>189</ele>
        <time>2017-12-09T12:02:23Z</time>
      </trkpt>
      <trkpt lat="45.96029" lon="4.7505">
        <ele>189</ele>
        <time>2017-12-09T12:02:25Z</time>
      </trkpt>
      <trkpt lat="45.96026" lon="4.75051">
        <ele>190</ele>
        <time>2017-12-09T12:02:26Z</time>
      </trkpt>
      <trkpt lat="45.96018" lon="4.75056">
        <ele>190</ele>
        <time>2017-12-09T12:02:28Z</time>
      </trkpt>
      <trkpt lat="45.96014" lon="4.75059">
        <ele>191</ele>
        <time>2017-12-09T12:02:29Z</time>
      </trkpt>
      <trkpt lat="45.96007" lon="4.75062">
        <ele>191</ele>
        <time>2017-12-09T12:02:31Z</time>
      </trkpt>
      <trkpt lat="45.96001" lon="4.75063">
        <ele>191</ele>
        <time>2017-12-09T12:02:32Z</time>
      </trkpt>
      <trkpt lat="45.9599" lon="4.75064">
        <ele>192</ele>
        <time>2017-12-09T12:02:33Z</time>
      </trkpt>
      <trkpt lat="45.95984" lon="4.75066">
        <ele>192</ele>
        <time>2017-12-09T12:02:35Z</time>
      </trkpt>
      <trkpt lat="45.95978" lon="4.75068">
        <ele>191</ele>
        <time>2017-12-09T12:02:36Z</time>
      </trkpt>
      <trkpt lat="45.9597" lon="4.75075">
        <ele>191</ele>
        <time>2017-12-09T12:02:38Z</time>
      </trkpt>
      <trkpt lat="45.95967" lon="4.75076">
        <ele>191</ele>
        <time>2017-12-09T12:02:39Z</time>
      </trkpt>
      <trkpt lat="45.95961" lon="4.7508">
        <ele>191</ele>
        <time>2017-12-09T12:02:41Z</time>
      </trkpt>
      <trkpt lat="45.95956" lon="4.75081">
        <ele>191</ele>
        <time>2017-12-09T12:02:42Z</time>
      </trkpt>
      <trkpt lat="45.95949" lon="4.75085">
        <ele>193</ele>
        <time>2017-12-09T12:02:44Z</time>
      </trkpt>
      <trkpt lat="45.95946" lon="4.75086">
        <ele>193</ele>
        <time>2017-12-09T12:02:45Z</time>
      </trkpt>
      <trkpt lat="45.95938" lon="4.7509">
        <ele>192</ele>
        <time>2017-12-09T12:02:47Z</time>
      </trkpt>
      <trkpt lat="45.95933" lon="4.75092">
        <ele>192</ele>
        <time>2017-12-09T12:02:48Z</time>
      </trkpt>
      <trkpt lat="45.95925" lon="4.75095">
        <ele>192</ele>
        <time>2017-12-09T12:02:50Z</time>
      </trkpt>
      <trkpt lat="45.95922" lon="4.75097">
        <ele>192</ele>
        <time>2017-12-09T12:02:51Z</time>
      </trkpt>
      <trkpt lat="45.95915" lon="4.75101">
        <ele>190</ele>
        <time>2017-12-09T12:02:53Z</time>
      </trkpt>
      <trkpt lat="45.95911" lon="4.75103">
        <ele>191</ele>
        <time>2017-12-09T12:02:54Z</time>
      </trkpt>
      <trkpt lat="45.95904" lon="4.75108">
        <ele>191</ele>
        <time>2017-12-09T12:02:56Z</time>
      </trkpt>
      <trkpt lat="45.959" lon="4.75111">
        <ele>191</ele>
        <time>2017-12-09T12:02:57Z</time>
      </trkpt>
      <trkpt lat="45.95892" lon="4.75116">
        <ele>191</ele>
        <time>2017-12-09T12:02:59Z</time>
      </trkpt>
      <trkpt lat="45.95889" lon="4.75119">
        <ele>191</ele>
        <time>2017-12-09T12:03:00Z</time>
      </trkpt>
      <trkpt lat="45.95881" lon="4.75126">
        <ele>191</ele>
        <time>2017-12-09T12:03:02Z</time>
      </trkpt>
      <trkpt lat="45.95878" lon="4.75129">
        <ele>191</ele>
        <time>2017-12-09T12:03:03Z</time>
      </trkpt>
      <trkpt lat="45.95874" lon="4.75133">
        <ele>191</ele>
        <time>2017-12-09T12:03:04Z</time>
      </trkpt>
      <trkpt lat="45.9587" lon="4.75137">
        <ele>191</ele>
        <time>2017-12-09T12:03:05Z</time>
      </trkpt>
      <trkpt lat="45.95866" lon="4.75142">
        <ele>191</ele>
        <time>2017-12-09T12:03:06Z</time>
      </trkpt>
      <trkpt lat="45.95862" lon="4.75146">
        <ele>191</ele>
        <time>2017-12-09T12:03:07Z</time>
      </trkpt>
      <trkpt lat="45.95858" lon="4.7515">
        <ele>191</ele>
        <time>2017-12-09T12:03:08Z</time>
      </trkpt>
      <trkpt lat="45.95855" lon="4.75155">
        <ele>191</ele>
        <time>2017-12-09T12:03:09Z</time>
      </trkpt>
      <trkpt lat="45.95851" lon="4.75159">
        <ele>191</ele>
        <time>2017-12-09T12:03:10Z</time>
      </trkpt>
      <trkpt lat="45.95848" lon="4.75164">
        <ele>192</ele>
        <time>2017-12-09T12:03:11Z</time>
      </trkpt>
      <trkpt lat="45.95843" lon="4.7517">
        <ele>192</ele>
        <time>2017-12-09T12:03:12Z</time>
      </trkpt>
      <trkpt lat="45.95839" lon="4.75174">
        <ele>192</ele>
        <time>2017-12-09T12:03:13Z</time>
      </trkpt>
      <trkpt lat="45.95835" lon="4.75179">
        <ele>193</ele>
        <time>2017-12-09T12:03:14Z</time>
      </trkpt>
      <trkpt lat="45.95831" lon="4.75183">
        <ele>192</ele>
        <time>2017-12-09T12:03:15Z</time>
      </trkpt>
      <trkpt lat="45.95826" lon="4.75192">
        <ele>193</ele>
        <time>2017-12-09T12:03:17Z</time>
      </trkpt>
      <trkpt lat="45.95823" lon="4.75196">
        <ele>193</ele>
        <time>2017-12-09T12:03:18Z</time>
      </trkpt>
      <trkpt lat="45.95817" lon="4.75205">
        <ele>193</ele>
        <time>2017-12-09T12:03:20Z</time>
      </trkpt>
      <trkpt lat="45.95814" lon="4.75209">
        <ele>193</ele>
        <time>2017-12-09T12:03:21Z</time>
      </trkpt>
      <trkpt lat="45.95811" lon="4.75215">
        <ele>193</ele>
        <time>2017-12-09T12:03:22Z</time>
      </trkpt>
      <trkpt lat="45.95808" lon="4.7522">
        <ele>193</ele>
        <time>2017-12-09T12:03:23Z</time>
      </trkpt>
      <trkpt lat="45.95804" lon="4.75224">
        <ele>193</ele>
        <time>2017-12-09T12:03:24Z</time>
      </trkpt>
      <trkpt lat="45.95799" lon="4.75228">
        <ele>193</ele>
        <time>2017-12-09T12:03:25Z</time>
      </trkpt>
      <trkpt lat="45.95796" lon="4.75233">
        <ele>193</ele>
        <time>2017-12-09T12:03:26Z</time>
      </trkpt>
      <trkpt lat="45.95791" lon="4.75237">
        <ele>193</ele>
        <time>2017-12-09T12:03:27Z</time>
      </trkpt>
      <trkpt lat="45.95784" lon="4.75245">
        <ele>193</ele>
        <time>2017-12-09T12:03:29Z</time>
      </trkpt>
      <trkpt lat="45.95781" lon="4.75249">
        <ele>193</ele>
        <time>2017-12-09T12:03:30Z</time>
      </trkpt>
      <trkpt lat="45.95777" lon="4.75253">
        <ele>193</ele>
        <time>2017-12-09T12:03:31Z</time>
      </trkpt>
      <trkpt lat="45.95773" lon="4.75258">
        <ele>193</ele>
        <time>2017-12-09T12:03:32Z</time>
      </trkpt>
      <trkpt lat="45.95769" lon="4.75262">
        <ele>193</ele>
        <time>2017-12-09T12:03:33Z</time>
      </trkpt>
      <trkpt lat="45.95766" lon="4.75266">
        <ele>193</ele>
        <time>2017-12-09T12:03:34Z</time>
      </trkpt>
      <trkpt lat="45.95763" lon="4.7527">
        <ele>193</ele>
        <time>2017-12-09T12:03:35Z</time>
      </trkpt>
      <trkpt lat="45.95759" lon="4.75273">
        <ele>193</ele>
        <time>2017-12-09T12:03:36Z</time>
      </trkpt>
      <trkpt lat="45.95753" lon="4.75281">
        <ele>193</ele>
        <time>2017-12-09T12:03:38Z</time>
      </trkpt>
      <trkpt lat="45.95749" lon="4.75285">
        <ele>193</ele>
        <time>2017-12-09T12:03:39Z</time>
      </trkpt>
      <trkpt lat="45.95743" lon="4.75292">
        <ele>193</ele>
        <time>2017-12-09T12:03:41Z</time>
      </trkpt>
      <trkpt lat="45.95739" lon="4.75297">
        <ele>193</ele>
        <time>2017-12-09T12:03:42Z</time>
      </trkpt>
      <trkpt lat="45.95733" lon="4.75305">
        <ele>193</ele>
        <time>2017-12-09T12:03:44Z</time>
      </trkpt>
      <trkpt lat="45.95729" lon="4.75311">
        <ele>193</ele>
        <time>2017-12-09T12:03:45Z</time>
      </trkpt>
      <trkpt lat="45.95724" lon="4.75314">
        <ele>193</ele>
        <time>2017-12-09T12:03:46Z</time>
      </trkpt>
      <trkpt lat="45.9572" lon="4.75318">
        <ele>193</ele>
        <time>2017-12-09T12:03:47Z</time>
      </trkpt>
      <trkpt lat="45.95716" lon="4.75323">
        <ele>193</ele>
        <time>2017-12-09T12:03:48Z</time>
      </trkpt>
      <trkpt lat="45.95713" lon="4.75328">
        <ele>193</ele>
        <time>2017-12-09T12:03:49Z</time>
      </trkpt>
      <trkpt lat="45.95709" lon="4.75332">
        <ele>193</ele>
        <time>2017-12-09T12:03:50Z</time>
      </trkpt>
      <trkpt lat="45.95705" lon="4.75335">
        <ele>193</ele>
        <time>2017-12-09T12:03:51Z</time>
      </trkpt>
      <trkpt lat="45.95697" lon="4.75342">
        <ele>193</ele>
        <time>2017-12-09T12:03:53Z</time>
      </trkpt>
      <trkpt lat="45.95694" lon="4.75346">
        <ele>193</ele>
        <time>2017-12-09T12:03:54Z</time>
      </trkpt>
      <trkpt lat="45.9569" lon="4.7535">
        <ele>193</ele>
        <time>2017-12-09T12:03:55Z</time>
      </trkpt>
      <trkpt lat="45.95686" lon="4.75354">
        <ele>193</ele>
        <time>2017-12-09T12:03:56Z</time>
      </trkpt>
      <trkpt lat="45.95681" lon="4.75357">
        <ele>193</ele>
        <time>2017-12-09T12:03:57Z</time>
      </trkpt>
      <trkpt lat="45.95675" lon="4.75361">
        <ele>193</ele>
        <time>2017-12-09T12:03:58Z</time>
      </trkpt>
      <trkpt lat="45.95671" lon="4.75364">
        <ele>193</ele>
        <time>2017-12-09T12:03:59Z</time>
      </trkpt>
      <trkpt lat="45.95666" lon="4.75368">
        <ele>193</ele>
        <time>2017-12-09T12:04:00Z</time>
      </trkpt>
      <trkpt lat="45.95662" lon="4.75372">
        <ele>193</ele>
        <time>2017-12-09T12:04:01Z</time>
      </trkpt>
      <trkpt lat="45.95657" lon="4.75376">
        <ele>193</ele>
        <time>2017-12-09T12:04:02Z</time>
      </trkpt>
      <trkpt lat="45.95651" lon="4.75381">
        <ele>193</ele>
        <time>2017-12-09T12:04:03Z</time>
      </trkpt>
      <trkpt lat="45.95646" lon="4.75385">
        <ele>193</ele>
        <time>2017-12-09T12:04:04Z</time>
      </trkpt>
      <trkpt lat="45.95641" lon="4.7539">
        <ele>193</ele>
        <time>2017-12-09T12:04:05Z</time>
      </trkpt>
      <trkpt lat="45.95635" lon="4.75395">
        <ele>193</ele>
        <time>2017-12-09T12:04:06Z</time>
      </trkpt>
      <trkpt lat="45.95629" lon="4.75399">
        <ele>193</ele>
        <time>2017-12-09T12:04:07Z</time>
      </trkpt>
      <trkpt lat="45.95624" lon="4.75403">
        <ele>193</ele>
        <time>2017-12-09T12:04:08Z</time>
      </trkpt>
      <trkpt lat="45.95618" lon="4.75407">
        <ele>193</ele>
        <time>2017-12-09T12:04:09Z</time>
      </trkpt>
      <trkpt lat="45.95612" lon="4.75411">
        <ele>193</ele>
        <time>2017-12-09T12:04:10Z</time>
      </trkpt>
      <trkpt lat="45.95606" lon="4.75415">
        <ele>193</ele>
        <time>2017-12-09T12:04:11Z</time>
      </trkpt>
      <trkpt lat="45.956" lon="4.75419">
        <ele>192</ele>
        <time>2017-12-09T12:04:12Z</time>
      </trkpt>
      <trkpt lat="45.95594" lon="4.75422">
        <ele>192</ele>
        <time>2017-12-09T12:04:13Z</time>
      </trkpt>
      <trkpt lat="45.95587" lon="4.75426">
        <ele>192</ele>
        <time>2017-12-09T12:04:14Z</time>
      </trkpt>
      <trkpt lat="45.9558" lon="4.75431">
        <ele>190</ele>
        <time>2017-12-09T12:04:15Z</time>
      </trkpt>
      <trkpt lat="45.95575" lon="4.75435">
        <ele>190</ele>
        <time>2017-12-09T12:04:16Z</time>
      </trkpt>
      <trkpt lat="45.9557" lon="4.75438">
        <ele>189</ele>
        <time>2017-12-09T12:04:17Z</time>
      </trkpt>
      <trkpt lat="45.95565" lon="4.7544">
        <ele>189</ele>
        <time>2017-12-09T12:04:18Z</time>
      </trkpt>
      <trkpt lat="45.95557" lon="4.75442">
        <ele>188</ele>
        <time>2017-12-09T12:04:19Z</time>
      </trkpt>
      <trkpt lat="45.95551" lon="4.75445">
        <ele>188</ele>
        <time>2017-12-09T12:04:20Z</time>
      </trkpt>
      <trkpt lat="45.95545" lon="4.75446">
        <ele>188</ele>
        <time>2017-12-09T12:04:21Z</time>
      </trkpt>
      <trkpt lat="45.95538" lon="4.75446">
        <ele>187</ele>
        <time>2017-12-09T12:04:22Z</time>
      </trkpt>
      <trkpt lat="45.95531" lon="4.75442">
        <ele>187</ele>
        <time>2017-12-09T12:04:23Z</time>
      </trkpt>
      <trkpt lat="45.95527" lon="4.75437">
        <ele>187</ele>
        <time>2017-12-09T12:04:24Z</time>
      </trkpt>
      <trkpt lat="45.95522" lon="4.75428">
        <ele>187</ele>
        <time>2017-12-09T12:04:25Z</time>
      </trkpt>
      <trkpt lat="45.9552" lon="4.7542">
        <ele>187</ele>
        <time>2017-12-09T12:04:26Z</time>
      </trkpt>
      <trkpt lat="45.95515" lon="4.75411">
        <ele>187</ele>
        <time>2017-12-09T12:04:27Z</time>
      </trkpt>
      <trkpt lat="45.95513" lon="4.75404">
        <ele>187</ele>
        <time>2017-12-09T12:04:28Z</time>
      </trkpt>
      <trkpt lat="45.95512" lon="4.75398">
        <ele>188</ele>
        <time>2017-12-09T12:04:29Z</time>
      </trkpt>
      <trkpt lat="45.95509" lon="4.75392">
        <ele>188</ele>
        <time>2017-12-09T12:04:30Z</time>
      </trkpt>
      <trkpt lat="45.95503" lon="4.75382">
        <ele>188</ele>
        <time>2017-12-09T12:04:32Z</time>
      </trkpt>
      <trkpt lat="45.95501" lon="4.75376">
        <ele>189</ele>
        <time>2017-12-09T12:04:33Z</time>
      </trkpt>
      <trkpt lat="45.95499" lon="4.75368">
        <ele>186</ele>
        <time>2017-12-09T12:04:34Z</time>
      </trkpt>
      <trkpt lat="45.95496" lon="4.75363">
        <ele>186</ele>
        <time>2017-12-09T12:04:35Z</time>
      </trkpt>
      <trkpt lat="45.95493" lon="4.75356">
        <ele>186</ele>
        <time>2017-12-09T12:04:36Z</time>
      </trkpt>
      <trkpt lat="45.9549" lon="4.75351">
        <ele>186</ele>
        <time>2017-12-09T12:04:37Z</time>
      </trkpt>
      <trkpt lat="45.95486" lon="4.75345">
        <ele>187</ele>
        <time>2017-12-09T12:04:38Z</time>
      </trkpt>
      <trkpt lat="45.95483" lon="4.75339">
        <ele>187</ele>
        <time>2017-12-09T12:04:39Z</time>
      </trkpt>
      <trkpt lat="45.9548" lon="4.75333">
        <ele>188</ele>
        <time>2017-12-09T12:04:40Z</time>
      </trkpt>
      <trkpt lat="45.95477" lon="4.75326">
        <ele>188</ele>
        <time>2017-12-09T12:04:41Z</time>
      </trkpt>
      <trkpt lat="45.95475" lon="4.75321">
        <ele>188</ele>
        <time>2017-12-09T12:04:42Z</time>
      </trkpt>
      <trkpt lat="45.95471" lon="4.75315">
        <ele>188</ele>
        <time>2017-12-09T12:04:43Z</time>
      </trkpt>
      <trkpt lat="45.95468" lon="4.7531">
        <ele>188</ele>
        <time>2017-12-09T12:04:44Z</time>
      </trkpt>
      <trkpt lat="45.95465" lon="4.75304">
        <ele>188</ele>
        <time>2017-12-09T12:04:45Z</time>
      </trkpt>
      <trkpt lat="45.95462" lon="4.75298">
        <ele>188</ele>
        <time>2017-12-09T12:04:46Z</time>
      </trkpt>
      <trkpt lat="45.95458" lon="4.75293">
        <ele>188</ele>
        <time>2017-12-09T12:04:47Z</time>
      </trkpt>
      <trkpt lat="45.95455" lon="4.75286">
        <ele>189</ele>
        <time>2017-12-09T12:04:48Z</time>
      </trkpt>
      <trkpt lat="45.95452" lon="4.7528">
        <ele>189</ele>
        <time>2017-12-09T12:04:49Z</time>
      </trkpt>
      <trkpt lat="45.95448" lon="4.75274">
        <ele>189</ele>
        <time>2017-12-09T12:04:50Z</time>
      </trkpt>
      <trkpt lat="45.95445" lon="4.75268">
        <ele>189</ele>
        <time>2017-12-09T12:04:51Z</time>
      </trkpt>
      <trkpt lat="45.95441" lon="4.75264">
        <ele>189</ele>
        <time>2017-12-09T12:04:52Z</time>
      </trkpt>
      <trkpt lat="45.95437" lon="4.75258">
        <ele>189</ele>
        <time>2017-12-09T12:04:53Z</time>
      </trkpt>
      <trkpt lat="45.95433" lon="4.75251">
        <ele>189</ele>
        <time>2017-12-09T12:04:54Z</time>
      </trkpt>
      <trkpt lat="45.95431" lon="4.75247">
        <ele>190</ele>
        <time>2017-12-09T12:04:55Z</time>
      </trkpt>
      <trkpt lat="45.95428" lon="4.75241">
        <ele>190</ele>
        <time>2017-12-09T12:04:56Z</time>
      </trkpt>
      <trkpt lat="45.95424" lon="4.75235">
        <ele>190</ele>
        <time>2017-12-09T12:04:57Z</time>
      </trkpt>
      <trkpt lat="45.9542" lon="4.75231">
        <ele>190</ele>
        <time>2017-12-09T12:04:58Z</time>
      </trkpt>
      <trkpt lat="45.95416" lon="4.75224">
        <ele>189</ele>
        <time>2017-12-09T12:04:59Z</time>
      </trkpt>
      <trkpt lat="45.95413" lon="4.75218">
        <ele>189</ele>
        <time>2017-12-09T12:05:00Z</time>
      </trkpt>
      <trkpt lat="45.9541" lon="4.75212">
        <ele>189</ele>
        <time>2017-12-09T12:05:01Z</time>
      </trkpt>
      <trkpt lat="45.95407" lon="4.75206">
        <ele>189</ele>
        <time>2017-12-09T12:05:02Z</time>
      </trkpt>
      <trkpt lat="45.95404" lon="4.752">
        <ele>189</ele>
        <time>2017-12-09T12:05:03Z</time>
      </trkpt>
      <trkpt lat="45.95401" lon="4.75196">
        <ele>189</ele>
        <time>2017-12-09T12:05:04Z</time>
      </trkpt>
      <trkpt lat="45.95396" lon="4.75192">
        <ele>189</ele>
        <time>2017-12-09T12:05:05Z</time>
      </trkpt>
      <trkpt lat="45.95395" lon="4.75185">
        <ele>189</ele>
        <time>2017-12-09T12:05:06Z</time>
      </trkpt>
      <trkpt lat="45.95392" lon="4.7518">
        <ele>189</ele>
        <time>2017-12-09T12:05:07Z</time>
      </trkpt>
      <trkpt lat="45.95389" lon="4.75175">
        <ele>189</ele>
        <time>2017-12-09T12:05:08Z</time>
      </trkpt>
      <trkpt lat="45.95386" lon="4.7517">
        <ele>189</ele>
        <time>2017-12-09T12:05:09Z</time>
      </trkpt>
      <trkpt lat="45.95382" lon="4.75165">
        <ele>191</ele>
        <time>2017-12-09T12:05:10Z</time>
      </trkpt>
      <trkpt lat="45.95381" lon="4.75159">
        <ele>191</ele>
        <time>2017-12-09T12:05:11Z</time>
      </trkpt>
      <trkpt lat="45.95378" lon="4.75153">
        <ele>191</ele>
        <time>2017-12-09T12:05:12Z</time>
      </trkpt>
      <trkpt lat="45.95374" lon="4.75148">
        <ele>191</ele>
        <time>2017-12-09T12:05:13Z</time>
      </trkpt>
      <trkpt lat="45.95369" lon="4.75137">
        <ele>191</ele>
        <time>2017-12-09T12:05:15Z</time>
      </trkpt>
      <trkpt lat="45.95366" lon="4.75132">
        <ele>191</ele>
        <time>2017-12-09T12:05:16Z</time>
      </trkpt>
      <trkpt lat="45.95363" lon="4.75125">
        <ele>191</ele>
        <time>2017-12-09T12:05:17Z</time>
      </trkpt>
      <trkpt lat="45.95359" lon="4.7512">
        <ele>191</ele>
        <time>2017-12-09T12:05:18Z</time>
      </trkpt>
      <trkpt lat="45.95356" lon="4.75116">
        <ele>192</ele>
        <time>2017-12-09T12:05:19Z</time>
      </trkpt>
      <trkpt lat="45.95352" lon="4.7511">
        <ele>192</ele>
        <time>2017-12-09T12:05:20Z</time>
      </trkpt>
      <trkpt lat="45.95349" lon="4.75105">
        <ele>192</ele>
        <time>2017-12-09T12:05:21Z</time>
      </trkpt>
      <trkpt lat="45.95346" lon="4.751">
        <ele>192</ele>
        <time>2017-12-09T12:05:22Z</time>
      </trkpt>
      <trkpt lat="45.95343" lon="4.75093">
        <ele>192</ele>
        <time>2017-12-09T12:05:23Z</time>
      </trkpt>
      <trkpt lat="45.95339" lon="4.75089">
        <ele>193</ele>
        <time>2017-12-09T12:05:24Z</time>
      </trkpt>
      <trkpt lat="45.95335" lon="4.75085">
        <ele>193</ele>
        <time>2017-12-09T12:05:25Z</time>
      </trkpt>
      <trkpt lat="45.95331" lon="4.7508">
        <ele>193</ele>
        <time>2017-12-09T12:05:26Z</time>
      </trkpt>
      <trkpt lat="45.95325" lon="4.75071">
        <ele>192</ele>
        <time>2017-12-09T12:05:28Z</time>
      </trkpt>
      <trkpt lat="45.95321" lon="4.75065">
        <ele>192</ele>
        <time>2017-12-09T12:05:29Z</time>
      </trkpt>
      <trkpt lat="45.95317" lon="4.75061">
        <ele>192</ele>
        <time>2017-12-09T12:05:30Z</time>
      </trkpt>
      <trkpt lat="45.95314" lon="4.75055">
        <ele>192</ele>
        <time>2017-12-09T12:05:31Z</time>
      </trkpt>
      <trkpt lat="45.9531" lon="4.7505">
        <ele>192</ele>
        <time>2017-12-09T12:05:32Z</time>
      </trkpt>
      <trkpt lat="45.95307" lon="4.75046">
        <ele>192</ele>
        <time>2017-12-09T12:05:33Z</time>
      </trkpt>
      <trkpt lat="45.95305" lon="4.75039">
        <ele>192</ele>
        <time>2017-12-09T12:05:34Z</time>
      </trkpt>
      <trkpt lat="45.95301" lon="4.75034">
        <ele>192</ele>
        <time>2017-12-09T12:05:35Z</time>
      </trkpt>
      <trkpt lat="45.95299" lon="4.75027">
        <ele>192</ele>
        <time>2017-12-09T12:05:36Z</time>
      </trkpt>
      <trkpt lat="45.95296" lon="4.75022">
        <ele>191</ele>
        <time>2017-12-09T12:05:37Z</time>
      </trkpt>
      <trkpt lat="45.95291" lon="4.75017">
        <ele>191</ele>
        <time>2017-12-09T12:05:38Z</time>
      </trkpt>
      <trkpt lat="45.95288" lon="4.75012">
        <ele>191</ele>
        <time>2017-12-09T12:05:39Z</time>
      </trkpt>
      <trkpt lat="45.95285" lon="4.75005">
        <ele>191</ele>
        <time>2017-12-09T12:05:40Z</time>
      </trkpt>
      <trkpt lat="45.95282" lon="4.74999">
        <ele>192</ele>
        <time>2017-12-09T12:05:41Z</time>
      </trkpt>
      <trkpt lat="45.95279" lon="4.74994">
        <ele>192</ele>
        <time>2017-12-09T12:05:42Z</time>
      </trkpt>
      <trkpt lat="45.95276" lon="4.74988">
        <ele>192</ele>
        <time>2017-12-09T12:05:43Z</time>
      </trkpt>
      <trkpt lat="45.95272" lon="4.74983">
        <ele>192</ele>
        <time>2017-12-09T12:05:44Z</time>
      </trkpt>
      <trkpt lat="45.95269" lon="4.74978">
        <ele>192</ele>
        <time>2017-12-09T12:05:45Z</time>
      </trkpt>
      <trkpt lat="45.95265" lon="4.74972">
        <ele>192</ele>
        <time>2017-12-09T12:05:46Z</time>
      </trkpt>
      <trkpt lat="45.95262" lon="4.74967">
        <ele>192</ele>
        <time>2017-12-09T12:05:47Z</time>
      </trkpt>
      <trkpt lat="45.95258" lon="4.74962">
        <ele>192</ele>
        <time>2017-12-09T12:05:48Z</time>
      </trkpt>
      <trkpt lat="45.95255" lon="4.74957">
        <ele>192</ele>
        <time>2017-12-09T12:05:49Z</time>
      </trkpt>
      <trkpt lat="45.95251" lon="4.74952">
        <ele>192</ele>
        <time>2017-12-09T12:05:50Z</time>
      </trkpt>
      <trkpt lat="45.95248" lon="4.74947">
        <ele>192</ele>
        <time>2017-12-09T12:05:51Z</time>
      </trkpt>
      <trkpt lat="45.95245" lon="4.74942">
        <ele>192</ele>
        <time>2017-12-09T12:05:52Z</time>
      </trkpt>
      <trkpt lat="45.95242" lon="4.74936">
        <ele>192</ele>
        <time>2017-12-09T12:05:53Z</time>
      </trkpt>
      <trkpt lat="45.95238" lon="4.74931">
        <ele>192</ele>
        <time>2017-12-09T12:05:54Z</time>
      </trkpt>
      <trkpt lat="45.95235" lon="4.74926">
        <ele>192</ele>
        <time>2017-12-09T12:05:55Z</time>
      </trkpt>
      <trkpt lat="45.9523" lon="4.74916">
        <ele>193</ele>
        <time>2017-12-09T12:05:57Z</time>
      </trkpt>
      <trkpt lat="45.95228" lon="4.74911">
        <ele>193</ele>
        <time>2017-12-09T12:05:58Z</time>
      </trkpt>
      <trkpt lat="45.95225" lon="4.74905">
        <ele>193</ele>
        <time>2017-12-09T12:05:59Z</time>
      </trkpt>
      <trkpt lat="45.95222" lon="4.749">
        <ele>193</ele>
        <time>2017-12-09T12:06:00Z</time>
      </trkpt>
      <trkpt lat="45.95219" lon="4.74895">
        <ele>193</ele>
        <time>2017-12-09T12:06:01Z</time>
      </trkpt>
      <trkpt lat="45.95215" lon="4.74889">
        <ele>193</ele>
        <time>2017-12-09T12:06:02Z</time>
      </trkpt>
      <trkpt lat="45.95211" lon="4.74883">
        <ele>193</ele>
        <time>2017-12-09T12:06:03Z</time>
      </trkpt>
      <trkpt lat="45.95207" lon="4.74879">
        <ele>194</ele>
        <time>2017-12-09T12:06:04Z</time>
      </trkpt>
      <trkpt lat="45.95203" lon="4.74874">
        <ele>194</ele>
        <time>2017-12-09T12:06:05Z</time>
      </trkpt>
      <trkpt lat="45.952" lon="4.74868">
        <ele>194</ele>
        <time>2017-12-09T12:06:06Z</time>
      </trkpt>
      <trkpt lat="45.95196" lon="4.74862">
        <ele>194</ele>
        <time>2017-12-09T12:06:07Z</time>
      </trkpt>
      <trkpt lat="45.95193" lon="4.74855">
        <ele>194</ele>
        <time>2017-12-09T12:06:08Z</time>
      </trkpt>
      <trkpt lat="45.95189" lon="4.7485">
        <ele>194</ele>
        <time>2017-12-09T12:06:09Z</time>
      </trkpt>
      <trkpt lat="45.95185" lon="4.74844">
        <ele>194</ele>
        <time>2017-12-09T12:06:10Z</time>
      </trkpt>
      <trkpt lat="45.95181" lon="4.7484">
        <ele>194</ele>
        <time>2017-12-09T12:06:11Z</time>
      </trkpt>
      <trkpt lat="45.95177" lon="4.74835">
        <ele>194</ele>
        <time>2017-12-09T12:06:12Z</time>
      </trkpt>
      <trkpt lat="45.95173" lon="4.74829">
        <ele>194</ele>
        <time>2017-12-09T12:06:13Z</time>
      </trkpt>
      <trkpt lat="45.9517" lon="4.74824">
        <ele>194</ele>
        <time>2017-12-09T12:06:14Z</time>
      </trkpt>
      <trkpt lat="45.95166" lon="4.74819">
        <ele>194</ele>
        <time>2017-12-09T12:06:15Z</time>
      </trkpt>
      <trkpt lat="45.95163" lon="4.74814">
        <ele>194</ele>
        <time>2017-12-09T12:06:16Z</time>
      </trkpt>
      <trkpt lat="45.95159" lon="4.74809">
        <ele>194</ele>
        <time>2017-12-09T12:06:17Z</time>
      </trkpt>
      <trkpt lat="45.95154" lon="4.74804">
        <ele>194</ele>
        <time>2017-12-09T12:06:18Z</time>
      </trkpt>
      <trkpt lat="45.9515" lon="4.74798">
        <ele>194</ele>
        <time>2017-12-09T12:06:19Z</time>
      </trkpt>
      <trkpt lat="45.95147" lon="4.74792">
        <ele>194</ele>
        <time>2017-12-09T12:06:20Z</time>
      </trkpt>
      <trkpt lat="45.95143" lon="4.74786">
        <ele>194</ele>
        <time>2017-12-09T12:06:21Z</time>
      </trkpt>
      <trkpt lat="45.9514" lon="4.7478">
        <ele>194</ele>
        <time>2017-12-09T12:06:22Z</time>
      </trkpt>
      <trkpt lat="45.95137" lon="4.74773">
        <ele>194</ele>
        <time>2017-12-09T12:06:23Z</time>
      </trkpt>
      <trkpt lat="45.95133" lon="4.74767">
        <ele>194</ele>
        <time>2017-12-09T12:06:24Z</time>
      </trkpt>
      <trkpt lat="45.95129" lon="4.74761">
        <ele>194</ele>
        <time>2017-12-09T12:06:25Z</time>
      </trkpt>
      <trkpt lat="45.95125" lon="4.74753">
        <ele>194</ele>
        <time>2017-12-09T12:06:26Z</time>
      </trkpt>
      <trkpt lat="45.95122" lon="4.74747">
        <ele>194</ele>
        <time>2017-12-09T12:06:27Z</time>
      </trkpt>
      <trkpt lat="45.95119" lon="4.74742">
        <ele>194</ele>
        <time>2017-12-09T12:06:28Z</time>
      </trkpt>
      <trkpt lat="45.95115" lon="4.74736">
        <ele>194</ele>
        <time>2017-12-09T12:06:29Z</time>
      </trkpt>
      <trkpt lat="45.95112" lon="4.7473">
        <ele>194</ele>
        <time>2017-12-09T12:06:30Z</time>
      </trkpt>
      <trkpt lat="45.95108" lon="4.74723">
        <ele>194</ele>
        <time>2017-12-09T12:06:31Z</time>
      </trkpt>
      <trkpt lat="45.95104" lon="4.74717">
        <ele>194</ele>
        <time>2017-12-09T12:06:32Z</time>
      </trkpt>
      <trkpt lat="45.951" lon="4.74711">
        <ele>194</ele>
        <time>2017-12-09T12:06:33Z</time>
      </trkpt>
      <trkpt lat="45.95097" lon="4.74706">
        <ele>194</ele>
        <time>2017-12-09T12:06:34Z</time>
      </trkpt>
      <trkpt lat="45.95093" lon="4.747">
        <ele>194</ele>
        <time>2017-12-09T12:06:35Z</time>
      </trkpt>
      <trkpt lat="45.9509" lon="4.74695">
        <ele>194</ele>
        <time>2017-12-09T12:06:36Z</time>
      </trkpt>
      <trkpt lat="45.95086" lon="4.7469">
        <ele>195</ele>
        <time>2017-12-09T12:06:37Z</time>
      </trkpt>
      <trkpt lat="45.95081" lon="4.74683">
        <ele>194</ele>
        <time>2017-12-09T12:06:38Z</time>
      </trkpt>
      <trkpt lat="45.95078" lon="4.74677">
        <ele>194</ele>
        <time>2017-12-09T12:06:39Z</time>
      </trkpt>
      <trkpt lat="45.95075" lon="4.74671">
        <ele>195</ele>
        <time>2017-12-09T12:06:40Z</time>
      </trkpt>
      <trkpt lat="45.95071" lon="4.74665">
        <ele>195</ele>
        <time>2017-12-09T12:06:41Z</time>
      </trkpt>
      <trkpt lat="45.95068" lon="4.74659">
        <ele>195</ele>
        <time>2017-12-09T12:06:42Z</time>
      </trkpt>
      <trkpt lat="45.95065" lon="4.74653">
        <ele>195</ele>
        <time>2017-12-09T12:06:43Z</time>
      </trkpt>
      <trkpt lat="45.95061" lon="4.74647">
        <ele>194</ele>
        <time>2017-12-09T12:06:44Z</time>
      </trkpt>
      <trkpt lat="45.95057" lon="4.74641">
        <ele>194</ele>
        <time>2017-12-09T12:06:45Z</time>
      </trkpt>
      <trkpt lat="45.95053" lon="4.74634">
        <ele>194</ele>
        <time>2017-12-09T12:06:46Z</time>
      </trkpt>
      <trkpt lat="45.9505" lon="4.74627">
        <ele>194</ele>
        <time>2017-12-09T12:06:47Z</time>
      </trkpt>
      <trkpt lat="45.95047" lon="4.74619">
        <ele>194</ele>
        <time>2017-12-09T12:06:48Z</time>
      </trkpt>
      <trkpt lat="45.95043" lon="4.74612">
        <ele>194</ele>
        <time>2017-12-09T12:06:49Z</time>
      </trkpt>
      <trkpt lat="45.95039" lon="4.74605">
        <ele>194</ele>
        <time>2017-12-09T12:06:50Z</time>
      </trkpt>
      <trkpt lat="45.95036" lon="4.74599">
        <ele>194</ele>
        <time>2017-12-09T12:06:51Z</time>
      </trkpt>
      <trkpt lat="45.95032" lon="4.74592">
        <ele>194</ele>
        <time>2017-12-09T12:06:52Z</time>
      </trkpt>
      <trkpt lat="45.95029" lon="4.74586">
        <ele>194</ele>
        <time>2017-12-09T12:06:53Z</time>
      </trkpt>
      <trkpt lat="45.95027" lon="4.74579">
        <ele>194</ele>
        <time>2017-12-09T12:06:54Z</time>
      </trkpt>
      <trkpt lat="45.95023" lon="4.74572">
        <ele>194</ele>
        <time>2017-12-09T12:06:55Z</time>
      </trkpt>
      <trkpt lat="45.95019" lon="4.74566">
        <ele>194</ele>
        <time>2017-12-09T12:06:56Z</time>
      </trkpt>
      <trkpt lat="45.95016" lon="4.74561">
        <ele>194</ele>
        <time>2017-12-09T12:06:57Z</time>
      </trkpt>
      <trkpt lat="45.95011" lon="4.74553">
        <ele>194</ele>
        <time>2017-12-09T12:06:58Z</time>
      </trkpt>
      <trkpt lat="45.95009" lon="4.74548">
        <ele>194</ele>
        <time>2017-12-09T12:06:59Z</time>
      </trkpt>
      <trkpt lat="45.95006" lon="4.74542">
        <ele>194</ele>
        <time>2017-12-09T12:07:00Z</time>
      </trkpt>
      <trkpt lat="45.95002" lon="4.74536">
        <ele>194</ele>
        <time>2017-12-09T12:07:01Z</time>
      </trkpt>
      <trkpt lat="45.94999" lon="4.7453">
        <ele>193</ele>
        <time>2017-12-09T12:07:02Z</time>
      </trkpt>
      <trkpt lat="45.94994" lon="4.74523">
        <ele>193</ele>
        <time>2017-12-09T12:07:03Z</time>
      </trkpt>
      <trkpt lat="45.94991" lon="4.74517">
        <ele>193</ele>
        <time>2017-12-09T12:07:04Z</time>
      </trkpt>
      <trkpt lat="45.94988" lon="4.74511">
        <ele>193</ele>
        <time>2017-12-09T12:07:05Z</time>
      </trkpt>
      <trkpt lat="45.94985" lon="4.74504">
        <ele>193</ele>
        <time>2017-12-09T12:07:06Z</time>
      </trkpt>
      <trkpt lat="45.94981" lon="4.74497">
        <ele>193</ele>
        <time>2017-12-09T12:07:07Z</time>
      </trkpt>
      <trkpt lat="45.94978" lon="4.7449">
        <ele>193</ele>
        <time>2017-12-09T12:07:08Z</time>
      </trkpt>
      <trkpt lat="45.94974" lon="4.74482">
        <ele>193</ele>
        <time>2017-12-09T12:07:09Z</time>
      </trkpt>
      <trkpt lat="45.9497" lon="4.74475">
        <ele>193</ele>
        <time>2017-12-09T12:07:10Z</time>
      </trkpt>
      <trkpt lat="45.94967" lon="4.74468">
        <ele>193</ele>
        <time>2017-12-09T12:07:11Z</time>
      </trkpt>
      <trkpt lat="45.94963" lon="4.74461">
        <ele>193</ele>
        <time>2017-12-09T12:07:12Z</time>
      </trkpt>
      <trkpt lat="45.9496" lon="4.74455">
        <ele>192</ele>
        <time>2017-12-09T12:07:13Z</time>
      </trkpt>
      <trkpt lat="45.94957" lon="4.74447">
        <ele>192</ele>
        <time>2017-12-09T12:07:14Z</time>
      </trkpt>
      <trkpt lat="45.94953" lon="4.74437">
        <ele>192</ele>
        <time>2017-12-09T12:07:15Z</time>
      </trkpt>
      <trkpt lat="45.94949" lon="4.7443">
        <ele>192</ele>
        <time>2017-12-09T12:07:16Z</time>
      </trkpt>
      <trkpt lat="45.94945" lon="4.74422">
        <ele>192</ele>
        <time>2017-12-09T12:07:17Z</time>
      </trkpt>
      <trkpt lat="45.9494" lon="4.74414">
        <ele>192</ele>
        <time>2017-12-09T12:07:18Z</time>
      </trkpt>
      <trkpt lat="45.94935" lon="4.74405">
        <ele>192</ele>
        <time>2017-12-09T12:07:19Z</time>
      </trkpt>
      <trkpt lat="45.9493" lon="4.74397">
        <ele>192</ele>
        <time>2017-12-09T12:07:20Z</time>
      </trkpt>
      <trkpt lat="45.94926" lon="4.7439">
        <ele>192</ele>
        <time>2017-12-09T12:07:21Z</time>
      </trkpt>
      <trkpt lat="45.94922" lon="4.74383">
        <ele>192</ele>
        <time>2017-12-09T12:07:22Z</time>
      </trkpt>
      <trkpt lat="45.94919" lon="4.74375">
        <ele>192</ele>
        <time>2017-12-09T12:07:23Z</time>
      </trkpt>
      <trkpt lat="45.94915" lon="4.74368">
        <ele>191</ele>
        <time>2017-12-09T12:07:24Z</time>
      </trkpt>
      <trkpt lat="45.9491" lon="4.7436">
        <ele>191</ele>
        <time>2017-12-09T12:07:25Z</time>
      </trkpt>
      <trkpt lat="45.94906" lon="4.74353">
        <ele>191</ele>
        <time>2017-12-09T12:07:26Z</time>
      </trkpt>
      <trkpt lat="45.94902" lon="4.74347">
        <ele>191</ele>
        <time>2017-12-09T12:07:27Z</time>
      </trkpt>
      <trkpt lat="45.94898" lon="4.7434">
        <ele>191</ele>
        <time>2017-12-09T12:07:28Z</time>
      </trkpt>
      <trkpt lat="45.94895" lon="4.74333">
        <ele>191</ele>
        <time>2017-12-09T12:07:29Z</time>
      </trkpt>
      <trkpt lat="45.94892" lon="4.74327">
        <ele>191</ele>
        <time>2017-12-09T12:07:30Z</time>
      </trkpt>
      <trkpt lat="45.94888" lon="4.74319">
        <ele>191</ele>
        <time>2017-12-09T12:07:31Z</time>
      </trkpt>
      <trkpt lat="45.94885" lon="4.74312">
        <ele>191</ele>
        <time>2017-12-09T12:07:32Z</time>
      </trkpt>
      <trkpt lat="45.94881" lon="4.74305">
        <ele>191</ele>
        <time>2017-12-09T12:07:33Z</time>
      </trkpt>
      <trkpt lat="45.94877" lon="4.74297">
        <ele>191</ele>
        <time>2017-12-09T12:07:34Z</time>
      </trkpt>
      <trkpt lat="45.94874" lon="4.7429">
        <ele>191</ele>
        <time>2017-12-09T12:07:35Z</time>
      </trkpt>
      <trkpt lat="45.9487" lon="4.74283">
        <ele>191</ele>
        <time>2017-12-09T12:07:36Z</time>
      </trkpt>
      <trkpt lat="45.94866" lon="4.74274">
        <ele>191</ele>
        <time>2017-12-09T12:07:37Z</time>
      </trkpt>
      <trkpt lat="45.94862" lon="4.74266">
        <ele>190</ele>
        <time>2017-12-09T12:07:38Z</time>
      </trkpt>
      <trkpt lat="45.94858" lon="4.74258">
        <ele>190</ele>
        <time>2017-12-09T12:07:39Z</time>
      </trkpt>
      <trkpt lat="45.94854" lon="4.7425">
        <ele>190</ele>
        <time>2017-12-09T12:07:40Z</time>
      </trkpt>
      <trkpt lat="45.94851" lon="4.74242">
        <ele>190</ele>
        <time>2017-12-09T12:07:41Z</time>
      </trkpt>
      <trkpt lat="45.94847" lon="4.74235">
        <ele>190</ele>
        <time>2017-12-09T12:07:42Z</time>
      </trkpt>
      <trkpt lat="45.94843" lon="4.74228">
        <ele>190</ele>
        <time>2017-12-09T12:07:43Z</time>
      </trkpt>
      <trkpt lat="45.94839" lon="4.74221">
        <ele>190</ele>
        <time>2017-12-09T12:07:44Z</time>
      </trkpt>
      <trkpt lat="45.94836" lon="4.74213">
        <ele>190</ele>
        <time>2017-12-09T12:07:45Z</time>
      </trkpt>
      <trkpt lat="45.94833" lon="4.74206">
        <ele>189</ele>
        <time>2017-12-09T12:07:46Z</time>
      </trkpt>
      <trkpt lat="45.9483" lon="4.742">
        <ele>189</ele>
        <time>2017-12-09T12:07:47Z</time>
      </trkpt>
      <trkpt lat="45.94827" lon="4.74193">
        <ele>189</ele>
        <time>2017-12-09T12:07:48Z</time>
      </trkpt>
      <trkpt lat="45.94824" lon="4.74187">
        <ele>189</ele>
        <time>2017-12-09T12:07:49Z</time>
      </trkpt>
      <trkpt lat="45.94821" lon="4.74181">
        <ele>189</ele>
        <time>2017-12-09T12:07:50Z</time>
      </trkpt>
      <trkpt lat="45.94817" lon="4.74176">
        <ele>189</ele>
        <time>2017-12-09T12:07:51Z</time>
      </trkpt>
      <trkpt lat="45.94814" lon="4.7417">
        <ele>189</ele>
        <time>2017-12-09T12:07:52Z</time>
      </trkpt>
      <trkpt lat="45.94811" lon="4.74164">
        <ele>189</ele>
        <time>2017-12-09T12:07:53Z</time>
      </trkpt>
      <trkpt lat="45.94808" lon="4.74158">
        <ele>189</ele>
        <time>2017-12-09T12:07:54Z</time>
      </trkpt>
      <trkpt lat="45.94804" lon="4.74151">
        <ele>189</ele>
        <time>2017-12-09T12:07:55Z</time>
      </trkpt>
      <trkpt lat="45.948" lon="4.74145">
        <ele>189</ele>
        <time>2017-12-09T12:07:56Z</time>
      </trkpt>
      <trkpt lat="45.94796" lon="4.74138">
        <ele>189</ele>
        <time>2017-12-09T12:07:57Z</time>
      </trkpt>
      <trkpt lat="45.94792" lon="4.74132">
        <ele>189</ele>
        <time>2017-12-09T12:07:58Z</time>
      </trkpt>
      <trkpt lat="45.94787" lon="4.74125">
        <ele>189</ele>
        <time>2017-12-09T12:07:59Z</time>
      </trkpt>
      <trkpt lat="45.94783" lon="4.74118">
        <ele>189</ele>
        <time>2017-12-09T12:08:00Z</time>
      </trkpt>
      <trkpt lat="45.94779" lon="4.74112">
        <ele>189</ele>
        <time>2017-12-09T12:08:01Z</time>
      </trkpt>
      <trkpt lat="45.94774" lon="4.74106">
        <ele>189</ele>
        <time>2017-12-09T12:08:02Z</time>
      </trkpt>
      <trkpt lat="45.9477" lon="4.741">
        <ele>189</ele>
        <time>2017-12-09T12:08:03Z</time>
      </trkpt>
      <trkpt lat="45.94765" lon="4.74095">
        <ele>189</ele>
        <time>2017-12-09T12:08:04Z</time>
      </trkpt>
      <trkpt lat="45.94762" lon="4.74089">
        <ele>189</ele>
        <time>2017-12-09T12:08:05Z</time>
      </trkpt>
      <trkpt lat="45.94757" lon="4.74085">
        <ele>189</ele>
        <time>2017-12-09T12:08:06Z</time>
      </trkpt>
      <trkpt lat="45.94753" lon="4.7408">
        <ele>189</ele>
        <time>2017-12-09T12:08:07Z</time>
      </trkpt>
      <trkpt lat="45.94749" lon="4.74076">
        <ele>189</ele>
        <time>2017-12-09T12:08:08Z</time>
      </trkpt>
      <trkpt lat="45.94744" lon="4.7407">
        <ele>188</ele>
        <time>2017-12-09T12:08:09Z</time>
      </trkpt>
      <trkpt lat="45.9474" lon="4.74065">
        <ele>188</ele>
        <time>2017-12-09T12:08:10Z</time>
      </trkpt>
      <trkpt lat="45.94736" lon="4.74059">
        <ele>188</ele>
        <time>2017-12-09T12:08:11Z</time>
      </trkpt>
      <trkpt lat="45.94733" lon="4.74054">
        <ele>188</ele>
        <time>2017-12-09T12:08:12Z</time>
      </trkpt>
      <trkpt lat="45.94728" lon="4.74049">
        <ele>188</ele>
        <time>2017-12-09T12:08:13Z</time>
      </trkpt>
      <trkpt lat="45.94724" lon="4.74043">
        <ele>187</ele>
        <time>2017-12-09T12:08:14Z</time>
      </trkpt>
      <trkpt lat="45.9472" lon="4.74038">
        <ele>187</ele>
        <time>2017-12-09T12:08:15Z</time>
      </trkpt>
      <trkpt lat="45.94716" lon="4.74033">
        <ele>187</ele>
        <time>2017-12-09T12:08:16Z</time>
      </trkpt>
      <trkpt lat="45.94712" lon="4.74028">
        <ele>187</ele>
        <time>2017-12-09T12:08:17Z</time>
      </trkpt>
      <trkpt lat="45.94709" lon="4.74023">
        <ele>187</ele>
        <time>2017-12-09T12:08:18Z</time>
      </trkpt>
      <trkpt lat="45.94703" lon="4.74013">
        <ele>187</ele>
        <time>2017-12-09T12:08:20Z</time>
      </trkpt>
      <trkpt lat="45.947" lon="4.74009">
        <ele>187</ele>
        <time>2017-12-09T12:08:21Z</time>
      </trkpt>
      <trkpt lat="45.94696" lon="4.74003">
        <ele>187</ele>
        <time>2017-12-09T12:08:22Z</time>
      </trkpt>
      <trkpt lat="45.94692" lon="4.73998">
        <ele>187</ele>
        <time>2017-12-09T12:08:23Z</time>
      </trkpt>
      <trkpt lat="45.94688" lon="4.73992">
        <ele>187</ele>
        <time>2017-12-09T12:08:24Z</time>
      </trkpt>
      <trkpt lat="45.94684" lon="4.73987">
        <ele>187</ele>
        <time>2017-12-09T12:08:25Z</time>
      </trkpt>
      <trkpt lat="45.9468" lon="4.73981">
        <ele>187</ele>
        <time>2017-12-09T12:08:26Z</time>
      </trkpt>
      <trkpt lat="45.94676" lon="4.73975">
        <ele>187</ele>
        <time>2017-12-09T12:08:27Z</time>
      </trkpt>
      <trkpt lat="45.94672" lon="4.73969">
        <ele>187</ele>
        <time>2017-12-09T12:08:28Z</time>
      </trkpt>
      <trkpt lat="45.94667" lon="4.73963">
        <ele>187</ele>
        <time>2017-12-09T12:08:29Z</time>
      </trkpt>
      <trkpt lat="45.94662" lon="4.73957">
        <ele>187</ele>
        <time>2017-12-09T12:08:30Z</time>
      </trkpt>
      <trkpt lat="45.94658" lon="4.73952">
        <ele>187</ele>
        <time>2017-12-09T12:08:31Z</time>
      </trkpt>
      <trkpt lat="45.94654" lon="4.73947">
        <ele>187</ele>
        <time>2017-12-09T12:08:32Z</time>
      </trkpt>
      <trkpt lat="45.9465" lon="4.73941">
        <ele>187</ele>
        <time>2017-12-09T12:08:33Z</time>
      </trkpt>
      <trkpt lat="45.94645" lon="4.73935">
        <ele>187</ele>
        <time>2017-12-09T12:08:34Z</time>
      </trkpt>
      <trkpt lat="45.9464" lon="4.7393">
        <ele>187</ele>
        <time>2017-12-09T12:08:35Z</time>
      </trkpt>
      <trkpt lat="45.94636" lon="4.73924">
        <ele>187</ele>
        <time>2017-12-09T12:08:36Z</time>
      </trkpt>
      <trkpt lat="45.94632" lon="4.73919">
        <ele>187</ele>
        <time>2017-12-09T12:08:37Z</time>
      </trkpt>
      <trkpt lat="45.94627" lon="4.73914">
        <ele>187</ele>
        <time>2017-12-09T12:08:38Z</time>
      </trkpt>
      <trkpt lat="45.94623" lon="4.73908">
        <ele>187</ele>
        <time>2017-12-09T12:08:39Z</time>
      </trkpt>
      <trkpt lat="45.9462" lon="4.73904">
        <ele>187</ele>
        <time>2017-12-09T12:08:40Z</time>
      </trkpt>
      <trkpt lat="45.94616" lon="4.73899">
        <ele>187</ele>
        <time>2017-12-09T12:08:41Z</time>
      </trkpt>
      <trkpt lat="45.94611" lon="4.73895">
        <ele>187</ele>
        <time>2017-12-09T12:08:42Z</time>
      </trkpt>
      <trkpt lat="45.94607" lon="4.7389">
        <ele>187</ele>
        <time>2017-12-09T12:08:43Z</time>
      </trkpt>
      <trkpt lat="45.94603" lon="4.73885">
        <ele>187</ele>
        <time>2017-12-09T12:08:44Z</time>
      </trkpt>
      <trkpt lat="45.94598" lon="4.7388">
        <ele>187</ele>
        <time>2017-12-09T12:08:45Z</time>
      </trkpt>
      <trkpt lat="45.94593" lon="4.73875">
        <ele>187</ele>
        <time>2017-12-09T12:08:46Z</time>
      </trkpt>
      <trkpt lat="45.94588" lon="4.73869">
        <ele>187</ele>
        <time>2017-12-09T12:08:47Z</time>
      </trkpt>
      <trkpt lat="45.94583" lon="4.73864">
        <ele>186</ele>
        <time>2017-12-09T12:08:48Z</time>
      </trkpt>
      <trkpt lat="45.9458" lon="4.73857">
        <ele>186</ele>
        <time>2017-12-09T12:08:49Z</time>
      </trkpt>
      <trkpt lat="45.94576" lon="4.73851">
        <ele>186</ele>
        <time>2017-12-09T12:08:50Z</time>
      </trkpt>
      <trkpt lat="45.94571" lon="4.73846">
        <ele>186</ele>
        <time>2017-12-09T12:08:51Z</time>
      </trkpt>
      <trkpt lat="45.94566" lon="4.73841">
        <ele>186</ele>
        <time>2017-12-09T12:08:52Z</time>
      </trkpt>
      <trkpt lat="45.94562" lon="4.73837">
        <ele>186</ele>
        <time>2017-12-09T12:08:53Z</time>
      </trkpt>
      <trkpt lat="45.94557" lon="4.73833">
        <ele>186</ele>
        <time>2017-12-09T12:08:54Z</time>
      </trkpt>
      <trkpt lat="45.94553" lon="4.73829">
        <ele>186</ele>
        <time>2017-12-09T12:08:55Z</time>
      </trkpt>
      <trkpt lat="45.94549" lon="4.73825">
        <ele>186</ele>
        <time>2017-12-09T12:08:56Z</time>
      </trkpt>
      <trkpt lat="45.94546" lon="4.73821">
        <ele>186</ele>
        <time>2017-12-09T12:08:57Z</time>
      </trkpt>
      <trkpt lat="45.94541" lon="4.73817">
        <ele>186</ele>
        <time>2017-12-09T12:08:58Z</time>
      </trkpt>
      <trkpt lat="45.94538" lon="4.73812">
        <ele>186</ele>
        <time>2017-12-09T12:08:59Z</time>
      </trkpt>
      <trkpt lat="45.94534" lon="4.73808">
        <ele>186</ele>
        <time>2017-12-09T12:09:00Z</time>
      </trkpt>
      <trkpt lat="45.9453" lon="4.73804">
        <ele>186</ele>
        <time>2017-12-09T12:09:01Z</time>
      </trkpt>
      <trkpt lat="45.94526" lon="4.73799">
        <ele>186</ele>
        <time>2017-12-09T12:09:02Z</time>
      </trkpt>
      <trkpt lat="45.94522" lon="4.73795">
        <ele>186</ele>
        <time>2017-12-09T12:09:03Z</time>
      </trkpt>
      <trkpt lat="45.94518" lon="4.7379">
        <ele>186</ele>
        <time>2017-12-09T12:09:04Z</time>
      </trkpt>
      <trkpt lat="45.94513" lon="4.73785">
        <ele>186</ele>
        <time>2017-12-09T12:09:05Z</time>
      </trkpt>
      <trkpt lat="45.94509" lon="4.73781">
        <ele>186</ele>
        <time>2017-12-09T12:09:06Z</time>
      </trkpt>
      <trkpt lat="45.94505" lon="4.73776">
        <ele>186</ele>
        <time>2017-12-09T12:09:07Z</time>
      </trkpt>
      <trkpt lat="45.94501" lon="4.73773">
        <ele>186</ele>
        <time>2017-12-09T12:09:08Z</time>
      </trkpt>
      <trkpt lat="45.94496" lon="4.73768">
        <ele>186</ele>
        <time>2017-12-09T12:09:09Z</time>
      </trkpt>
      <trkpt lat="45.94493" lon="4.73764">
        <ele>186</ele>
        <time>2017-12-09T12:09:10Z</time>
      </trkpt>
      <trkpt lat="45.9449" lon="4.73757">
        <ele>186</ele>
        <time>2017-12-09T12:09:11Z</time>
      </trkpt>
      <trkpt lat="45.94489" lon="4.7375">
        <ele>186</ele>
        <time>2017-12-09T12:09:12Z</time>
      </trkpt>
      <trkpt lat="45.94487" lon="4.73742">
        <ele>186</ele>
        <time>2017-12-09T12:09:13Z</time>
      </trkpt>
      <trkpt lat="45.94489" lon="4.73735">
        <ele>186</ele>
        <time>2017-12-09T12:09:14Z</time>
      </trkpt>
      <trkpt lat="45.9449" lon="4.73726">
        <ele>186</ele>
        <time>2017-12-09T12:09:15Z</time>
      </trkpt>
      <trkpt lat="45.94491" lon="4.73718">
        <ele>186</ele>
        <time>2017-12-09T12:09:16Z</time>
      </trkpt>
      <trkpt lat="45.94493" lon="4.7371">
        <ele>186</ele>
        <time>2017-12-09T12:09:17Z</time>
      </trkpt>
      <trkpt lat="45.94494" lon="4.73702">
        <ele>186</ele>
        <time>2017-12-09T12:09:18Z</time>
      </trkpt>
      <trkpt lat="45.94494" lon="4.73695">
        <ele>186</ele>
        <time>2017-12-09T12:09:19Z</time>
      </trkpt>
      <trkpt lat="45.94494" lon="4.73687">
        <ele>186</ele>
        <time>2017-12-09T12:09:20Z</time>
      </trkpt>
      <trkpt lat="45.94495" lon="4.7368">
        <ele>185</ele>
        <time>2017-12-09T12:09:21Z</time>
      </trkpt>
      <trkpt lat="45.94496" lon="4.73672">
        <ele>185</ele>
        <time>2017-12-09T12:09:22Z</time>
      </trkpt>
      <trkpt lat="45.94497" lon="4.73666">
        <ele>185</ele>
        <time>2017-12-09T12:09:23Z</time>
      </trkpt>
      <trkpt lat="45.94498" lon="4.73659">
        <ele>185</ele>
        <time>2017-12-09T12:09:24Z</time>
      </trkpt>
      <trkpt lat="45.945" lon="4.73651">
        <ele>185</ele>
        <time>2017-12-09T12:09:25Z</time>
      </trkpt>
      <trkpt lat="45.94501" lon="4.73644">
        <ele>184</ele>
        <time>2017-12-09T12:09:26Z</time>
      </trkpt>
      <trkpt lat="45.94502" lon="4.73637">
        <ele>184</ele>
        <time>2017-12-09T12:09:27Z</time>
      </trkpt>
      <trkpt lat="45.94502" lon="4.73629">
        <ele>184</ele>
        <time>2017-12-09T12:09:28Z</time>
      </trkpt>
      <trkpt lat="45.94503" lon="4.73621">
        <ele>184</ele>
        <time>2017-12-09T12:09:29Z</time>
      </trkpt>
      <trkpt lat="45.94504" lon="4.73613">
        <ele>184</ele>
        <time>2017-12-09T12:09:30Z</time>
      </trkpt>
      <trkpt lat="45.94505" lon="4.73605">
        <ele>184</ele>
        <time>2017-12-09T12:09:31Z</time>
      </trkpt>
      <trkpt lat="45.94505" lon="4.73597">
        <ele>184</ele>
        <time>2017-12-09T12:09:32Z</time>
      </trkpt>
      <trkpt lat="45.94506" lon="4.73589">
        <ele>185</ele>
        <time>2017-12-09T12:09:33Z</time>
      </trkpt>
      <trkpt lat="45.94506" lon="4.73581">
        <ele>184</ele>
        <time>2017-12-09T12:09:34Z</time>
      </trkpt>
      <trkpt lat="45.94507" lon="4.73572">
        <ele>184</ele>
        <time>2017-12-09T12:09:35Z</time>
      </trkpt>
      <trkpt lat="45.94507" lon="4.73564">
        <ele>184</ele>
        <time>2017-12-09T12:09:36Z</time>
      </trkpt>
      <trkpt lat="45.94507" lon="4.73556">
        <ele>183</ele>
        <time>2017-12-09T12:09:37Z</time>
      </trkpt>
      <trkpt lat="45.94508" lon="4.73548">
        <ele>183</ele>
        <time>2017-12-09T12:09:38Z</time>
      </trkpt>
      <trkpt lat="45.94509" lon="4.73539">
        <ele>183</ele>
        <time>2017-12-09T12:09:39Z</time>
      </trkpt>
      <trkpt lat="45.9451" lon="4.73531">
        <ele>183</ele>
        <time>2017-12-09T12:09:40Z</time>
      </trkpt>
      <trkpt lat="45.9451" lon="4.73522">
        <ele>183</ele>
        <time>2017-12-09T12:09:41Z</time>
      </trkpt>
      <trkpt lat="45.9451" lon="4.73513">
        <ele>183</ele>
        <time>2017-12-09T12:09:42Z</time>
      </trkpt>
      <trkpt lat="45.94511" lon="4.73504">
        <ele>183</ele>
        <time>2017-12-09T12:09:43Z</time>
      </trkpt>
      <trkpt lat="45.94511" lon="4.73495">
        <ele>182</ele>
        <time>2017-12-09T12:09:44Z</time>
      </trkpt>
      <trkpt lat="45.94511" lon="4.73486">
        <ele>182</ele>
        <time>2017-12-09T12:09:45Z</time>
      </trkpt>
      <trkpt lat="45.94511" lon="4.73476">
        <ele>182</ele>
        <time>2017-12-09T12:09:46Z</time>
      </trkpt>
      <trkpt lat="45.94511" lon="4.73467">
        <ele>181</ele>
        <time>2017-12-09T12:09:47Z</time>
      </trkpt>
      <trkpt lat="45.94511" lon="4.73458">
        <ele>181</ele>
        <time>2017-12-09T12:09:48Z</time>
      </trkpt>
      <trkpt lat="45.94511" lon="4.73449">
        <ele>181</ele>
        <time>2017-12-09T12:09:49Z</time>
      </trkpt>
      <trkpt lat="45.94511" lon="4.73439">
        <ele>181</ele>
        <time>2017-12-09T12:09:50Z</time>
      </trkpt>
      <trkpt lat="45.9451" lon="4.7343">
        <ele>180</ele>
        <time>2017-12-09T12:09:51Z</time>
      </trkpt>
      <trkpt lat="45.9451" lon="4.73419">
        <ele>180</ele>
        <time>2017-12-09T12:09:52Z</time>
      </trkpt>
      <trkpt lat="45.94509" lon="4.7341">
        <ele>179</ele>
        <time>2017-12-09T12:09:53Z</time>
      </trkpt>
      <trkpt lat="45.94508" lon="4.734">
        <ele>179</ele>
        <time>2017-12-09T12:09:54Z</time>
      </trkpt>
      <trkpt lat="45.94506" lon="4.73391">
        <ele>179</ele>
        <time>2017-12-09T12:09:55Z</time>
      </trkpt>
      <trkpt lat="45.94504" lon="4.73382">
        <ele>179</ele>
        <time>2017-12-09T12:09:56Z</time>
      </trkpt>
      <trkpt lat="45.94503" lon="4.73372">
        <ele>178</ele>
        <time>2017-12-09T12:09:57Z</time>
      </trkpt>
      <trkpt lat="45.94503" lon="4.73362">
        <ele>178</ele>
        <time>2017-12-09T12:09:58Z</time>
      </trkpt>
      <trkpt lat="45.94502" lon="4.73352">
        <ele>178</ele>
        <time>2017-12-09T12:09:59Z</time>
      </trkpt>
      <trkpt lat="45.94501" lon="4.73342">
        <ele>177</ele>
        <time>2017-12-09T12:10:00Z</time>
      </trkpt>
      <trkpt lat="45.945" lon="4.73332">
        <ele>177</ele>
        <time>2017-12-09T12:10:01Z</time>
      </trkpt>
      <trkpt lat="45.94499" lon="4.73322">
        <ele>177</ele>
        <time>2017-12-09T12:10:02Z</time>
      </trkpt>
      <trkpt lat="45.94498" lon="4.73313">
        <ele>177</ele>
        <time>2017-12-09T12:10:03Z</time>
      </trkpt>
      <trkpt lat="45.94497" lon="4.73302">
        <ele>177</ele>
        <time>2017-12-09T12:10:04Z</time>
      </trkpt>
      <trkpt lat="45.94495" lon="4.73292">
        <ele>177</ele>
        <time>2017-12-09T12:10:05Z</time>
      </trkpt>
      <trkpt lat="45.94494" lon="4.73282">
        <ele>177</ele>
        <time>2017-12-09T12:10:06Z</time>
      </trkpt>
      <trkpt lat="45.94493" lon="4.73272">
        <ele>177</ele>
        <time>2017-12-09T12:10:07Z</time>
      </trkpt>
      <trkpt lat="45.94492" lon="4.73262">
        <ele>176</ele>
        <time>2017-12-09T12:10:08Z</time>
      </trkpt>
      <trkpt lat="45.94491" lon="4.73252">
        <ele>176</ele>
        <time>2017-12-09T12:10:09Z</time>
      </trkpt>
      <trkpt lat="45.9449" lon="4.73242">
        <ele>175</ele>
        <time>2017-12-09T12:10:10Z</time>
      </trkpt>
      <trkpt lat="45.94488" lon="4.7323">
        <ele>175</ele>
        <time>2017-12-09T12:10:11Z</time>
      </trkpt>
      <trkpt lat="45.94487" lon="4.7322">
        <ele>175</ele>
        <time>2017-12-09T12:10:12Z</time>
      </trkpt>
      <trkpt lat="45.94485" lon="4.7321">
        <ele>175</ele>
        <time>2017-12-09T12:10:13Z</time>
      </trkpt>
      <trkpt lat="45.94483" lon="4.73199">
        <ele>174</ele>
        <time>2017-12-09T12:10:14Z</time>
      </trkpt>
      <trkpt lat="45.94482" lon="4.73189">
        <ele>174</ele>
        <time>2017-12-09T12:10:15Z</time>
      </trkpt>
      <trkpt lat="45.94481" lon="4.73179">
        <ele>174</ele>
        <time>2017-12-09T12:10:16Z</time>
      </trkpt>
      <trkpt lat="45.94481" lon="4.7317">
        <ele>174</ele>
        <time>2017-12-09T12:10:17Z</time>
      </trkpt>
      <trkpt lat="45.94479" lon="4.73161">
        <ele>173</ele>
        <time>2017-12-09T12:10:18Z</time>
      </trkpt>
      <trkpt lat="45.94478" lon="4.73151">
        <ele>173</ele>
        <time>2017-12-09T12:10:19Z</time>
      </trkpt>
      <trkpt lat="45.94477" lon="4.73141">
        <ele>172</ele>
        <time>2017-12-09T12:10:20Z</time>
      </trkpt>
      <trkpt lat="45.94476" lon="4.73131">
        <ele>172</ele>
        <time>2017-12-09T12:10:21Z</time>
      </trkpt>
      <trkpt lat="45.94475" lon="4.73123">
        <ele>172</ele>
        <time>2017-12-09T12:10:22Z</time>
      </trkpt>
      <trkpt lat="45.94473" lon="4.73111">
        <ele>172</ele>
        <time>2017-12-09T12:10:23Z</time>
      </trkpt>
      <trkpt lat="45.94471" lon="4.73101">
        <ele>172</ele>
        <time>2017-12-09T12:10:24Z</time>
      </trkpt>
      <trkpt lat="45.94471" lon="4.73088">
        <ele>172</ele>
        <time>2017-12-09T12:10:25Z</time>
      </trkpt>
      <trkpt lat="45.94469" lon="4.73079">
        <ele>170</ele>
        <time>2017-12-09T12:10:26Z</time>
      </trkpt>
      <trkpt lat="45.94468" lon="4.7307">
        <ele>170</ele>
        <time>2017-12-09T12:10:27Z</time>
      </trkpt>
      <trkpt lat="45.94467" lon="4.73061">
        <ele>170</ele>
        <time>2017-12-09T12:10:28Z</time>
      </trkpt>
      <trkpt lat="45.94466" lon="4.73053">
        <ele>170</ele>
        <time>2017-12-09T12:10:29Z</time>
      </trkpt>
      <trkpt lat="45.94465" lon="4.73045">
        <ele>170</ele>
        <time>2017-12-09T12:10:30Z</time>
      </trkpt>
      <trkpt lat="45.94463" lon="4.73036">
        <ele>170</ele>
        <time>2017-12-09T12:10:31Z</time>
      </trkpt>
      <trkpt lat="45.94462" lon="4.73028">
        <ele>169</ele>
        <time>2017-12-09T12:10:32Z</time>
      </trkpt>
      <trkpt lat="45.94461" lon="4.73019">
        <ele>169</ele>
        <time>2017-12-09T12:10:33Z</time>
      </trkpt>
      <trkpt lat="45.94461" lon="4.73011">
        <ele>169</ele>
        <time>2017-12-09T12:10:34Z</time>
      </trkpt>
      <trkpt lat="45.9446" lon="4.73003">
        <ele>169</ele>
        <time>2017-12-09T12:10:35Z</time>
      </trkpt>
      <trkpt lat="45.94459" lon="4.72995">
        <ele>168</ele>
        <time>2017-12-09T12:10:36Z</time>
      </trkpt>
      <trkpt lat="45.94457" lon="4.72986">
        <ele>168</ele>
        <time>2017-12-09T12:10:37Z</time>
      </trkpt>
      <trkpt lat="45.94456" lon="4.72978">
        <ele>167</ele>
        <time>2017-12-09T12:10:38Z</time>
      </trkpt>
      <trkpt lat="45.94455" lon="4.7297">
        <ele>167</ele>
        <time>2017-12-09T12:10:39Z</time>
      </trkpt>
      <trkpt lat="45.94454" lon="4.72961">
        <ele>167</ele>
        <time>2017-12-09T12:10:40Z</time>
      </trkpt>
      <trkpt lat="45.94452" lon="4.72953">
        <ele>167</ele>
        <time>2017-12-09T12:10:41Z</time>
      </trkpt>
      <trkpt lat="45.94452" lon="4.72946">
        <ele>167</ele>
        <time>2017-12-09T12:10:42Z</time>
      </trkpt>
      <trkpt lat="45.9445" lon="4.72939">
        <ele>167</ele>
        <time>2017-12-09T12:10:43Z</time>
      </trkpt>
      <trkpt lat="45.94449" lon="4.72932">
        <ele>167</ele>
        <time>2017-12-09T12:10:44Z</time>
      </trkpt>
      <trkpt lat="45.94447" lon="4.72926">
        <ele>167</ele>
        <time>2017-12-09T12:10:45Z</time>
      </trkpt>
      <trkpt lat="45.94446" lon="4.72919">
        <ele>167</ele>
        <time>2017-12-09T12:10:46Z</time>
      </trkpt>
      <trkpt lat="45.94445" lon="4.72913">
        <ele>166</ele>
        <time>2017-12-09T12:10:47Z</time>
      </trkpt>
      <trkpt lat="45.94444" lon="4.72906">
        <ele>166</ele>
        <time>2017-12-09T12:10:48Z</time>
      </trkpt>
      <trkpt lat="45.94443" lon="4.72899">
        <ele>166</ele>
        <time>2017-12-09T12:10:49Z</time>
      </trkpt>
      <trkpt lat="45.94441" lon="4.72887">
        <ele>166</ele>
        <time>2017-12-09T12:10:51Z</time>
      </trkpt>
      <trkpt lat="45.9444" lon="4.72881">
        <ele>166</ele>
        <time>2017-12-09T12:10:52Z</time>
      </trkpt>
      <trkpt lat="45.94439" lon="4.72874">
        <ele>166</ele>
        <time>2017-12-09T12:10:53Z</time>
      </trkpt>
      <trkpt lat="45.94437" lon="4.72866">
        <ele>166</ele>
        <time>2017-12-09T12:10:54Z</time>
      </trkpt>
      <trkpt lat="45.94435" lon="4.7286">
        <ele>166</ele>
        <time>2017-12-09T12:10:55Z</time>
      </trkpt>
      <trkpt lat="45.94434" lon="4.72853">
        <ele>166</ele>
        <time>2017-12-09T12:10:56Z</time>
      </trkpt>
      <trkpt lat="45.94433" lon="4.72845">
        <ele>166</ele>
        <time>2017-12-09T12:10:57Z</time>
      </trkpt>
      <trkpt lat="45.94432" lon="4.72838">
        <ele>166</ele>
        <time>2017-12-09T12:10:58Z</time>
      </trkpt>
      <trkpt lat="45.94431" lon="4.7283">
        <ele>167</ele>
        <time>2017-12-09T12:10:59Z</time>
      </trkpt>
      <trkpt lat="45.9443" lon="4.72822">
        <ele>167</ele>
        <time>2017-12-09T12:11:00Z</time>
      </trkpt>
      <trkpt lat="45.94429" lon="4.72813">
        <ele>167</ele>
        <time>2017-12-09T12:11:01Z</time>
      </trkpt>
      <trkpt lat="45.94428" lon="4.72805">
        <ele>167</ele>
        <time>2017-12-09T12:11:02Z</time>
      </trkpt>
      <trkpt lat="45.94426" lon="4.72796">
        <ele>168</ele>
        <time>2017-12-09T12:11:03Z</time>
      </trkpt>
      <trkpt lat="45.94425" lon="4.72787">
        <ele>168</ele>
        <time>2017-12-09T12:11:04Z</time>
      </trkpt>
      <trkpt lat="45.94424" lon="4.72778">
        <ele>168</ele>
        <time>2017-12-09T12:11:05Z</time>
      </trkpt>
      <trkpt lat="45.94422" lon="4.72769">
        <ele>169</ele>
        <time>2017-12-09T12:11:06Z</time>
      </trkpt>
      <trkpt lat="45.94421" lon="4.7276">
        <ele>170</ele>
        <time>2017-12-09T12:11:07Z</time>
      </trkpt>
      <trkpt lat="45.9442" lon="4.7275">
        <ele>171</ele>
        <time>2017-12-09T12:11:08Z</time>
      </trkpt>
      <trkpt lat="45.94418" lon="4.7274">
        <ele>171</ele>
        <time>2017-12-09T12:11:09Z</time>
      </trkpt>
      <trkpt lat="45.94417" lon="4.72732">
        <ele>171</ele>
        <time>2017-12-09T12:11:10Z</time>
      </trkpt>
      <trkpt lat="45.94416" lon="4.72723">
        <ele>172</ele>
        <time>2017-12-09T12:11:11Z</time>
      </trkpt>
      <trkpt lat="45.94414" lon="4.72712">
        <ele>172</ele>
        <time>2017-12-09T12:11:12Z</time>
      </trkpt>
      <trkpt lat="45.94413" lon="4.72702">
        <ele>172</ele>
        <time>2017-12-09T12:11:13Z</time>
      </trkpt>
      <trkpt lat="45.94412" lon="4.72693">
        <ele>173</ele>
        <time>2017-12-09T12:11:14Z</time>
      </trkpt>
      <trkpt lat="45.94412" lon="4.72685">
        <ele>173</ele>
        <time>2017-12-09T12:11:15Z</time>
      </trkpt>
      <trkpt lat="45.94412" lon="4.72676">
        <ele>173</ele>
        <time>2017-12-09T12:11:16Z</time>
      </trkpt>
      <trkpt lat="45.94411" lon="4.72668">
        <ele>174</ele>
        <time>2017-12-09T12:11:17Z</time>
      </trkpt>
      <trkpt lat="45.9441" lon="4.7266">
        <ele>174</ele>
        <time>2017-12-09T12:11:18Z</time>
      </trkpt>
      <trkpt lat="45.94409" lon="4.72652">
        <ele>174</ele>
        <time>2017-12-09T12:11:19Z</time>
      </trkpt>
      <trkpt lat="45.94409" lon="4.72643">
        <ele>174</ele>
        <time>2017-12-09T12:11:20Z</time>
      </trkpt>
      <trkpt lat="45.94408" lon="4.72636">
        <ele>174</ele>
        <time>2017-12-09T12:11:21Z</time>
      </trkpt>
      <trkpt lat="45.94408" lon="4.72627">
        <ele>174</ele>
        <time>2017-12-09T12:11:22Z</time>
      </trkpt>
      <trkpt lat="45.94407" lon="4.72621">
        <ele>173</ele>
        <time>2017-12-09T12:11:23Z</time>
      </trkpt>
      <trkpt lat="45.94407" lon="4.72613">
        <ele>173</ele>
        <time>2017-12-09T12:11:24Z</time>
      </trkpt>
      <trkpt lat="45.94406" lon="4.72607">
        <ele>173</ele>
        <time>2017-12-09T12:11:25Z</time>
      </trkpt>
      <trkpt lat="45.94404" lon="4.726">
        <ele>173</ele>
        <time>2017-12-09T12:11:26Z</time>
      </trkpt>
      <trkpt lat="45.94403" lon="4.72593">
        <ele>173</ele>
        <time>2017-12-09T12:11:27Z</time>
      </trkpt>
      <trkpt lat="45.94401" lon="4.72585">
        <ele>173</ele>
        <time>2017-12-09T12:11:28Z</time>
      </trkpt>
      <trkpt lat="45.94401" lon="4.72578">
        <ele>173</ele>
        <time>2017-12-09T12:11:29Z</time>
      </trkpt>
      <trkpt lat="45.94399" lon="4.7257">
        <ele>173</ele>
        <time>2017-12-09T12:11:30Z</time>
      </trkpt>
      <trkpt lat="45.94397" lon="4.72561">
        <ele>173</ele>
        <time>2017-12-09T12:11:31Z</time>
      </trkpt>
      <trkpt lat="45.94395" lon="4.72553">
        <ele>173</ele>
        <time>2017-12-09T12:11:32Z</time>
      </trkpt>
      <trkpt lat="45.94394" lon="4.72545">
        <ele>173</ele>
        <time>2017-12-09T12:11:33Z</time>
      </trkpt>
      <trkpt lat="45.9439" lon="4.72537">
        <ele>174</ele>
        <time>2017-12-09T12:11:34Z</time>
      </trkpt>
      <trkpt lat="45.94389" lon="4.72528">
        <ele>174</ele>
        <time>2017-12-09T12:11:35Z</time>
      </trkpt>
      <trkpt lat="45.94386" lon="4.7252">
        <ele>174</ele>
        <time>2017-12-09T12:11:36Z</time>
      </trkpt>
      <trkpt lat="45.94384" lon="4.72512">
        <ele>174</ele>
        <time>2017-12-09T12:11:37Z</time>
      </trkpt>
      <trkpt lat="45.94382" lon="4.72505">
        <ele>174</ele>
        <time>2017-12-09T12:11:38Z</time>
      </trkpt>
      <trkpt lat="45.94379" lon="4.72499">
        <ele>173</ele>
        <time>2017-12-09T12:11:39Z</time>
      </trkpt>
      <trkpt lat="45.94376" lon="4.72492">
        <ele>173</ele>
        <time>2017-12-09T12:11:40Z</time>
      </trkpt>
      <trkpt lat="45.94375" lon="4.72486">
        <ele>173</ele>
        <time>2017-12-09T12:11:41Z</time>
      </trkpt>
      <trkpt lat="45.94374" lon="4.72479">
        <ele>173</ele>
        <time>2017-12-09T12:11:42Z</time>
      </trkpt>
      <trkpt lat="45.94372" lon="4.72473">
        <ele>173</ele>
        <time>2017-12-09T12:11:43Z</time>
      </trkpt>
      <trkpt lat="45.9437" lon="4.72466">
        <ele>173</ele>
        <time>2017-12-09T12:11:44Z</time>
      </trkpt>
      <trkpt lat="45.94367" lon="4.7246">
        <ele>173</ele>
        <time>2017-12-09T12:11:45Z</time>
      </trkpt>
      <trkpt lat="45.94365" lon="4.72454">
        <ele>173</ele>
        <time>2017-12-09T12:11:46Z</time>
      </trkpt>
      <trkpt lat="45.94362" lon="4.72448">
        <ele>173</ele>
        <time>2017-12-09T12:11:47Z</time>
      </trkpt>
      <trkpt lat="45.94359" lon="4.72444">
        <ele>173</ele>
        <time>2017-12-09T12:11:48Z</time>
      </trkpt>
      <trkpt lat="45.94356" lon="4.72437">
        <ele>173</ele>
        <time>2017-12-09T12:11:49Z</time>
      </trkpt>
      <trkpt lat="45.94354" lon="4.7243">
        <ele>173</ele>
        <time>2017-12-09T12:11:50Z</time>
      </trkpt>
      <trkpt lat="45.94353" lon="4.72423">
        <ele>173</ele>
        <time>2017-12-09T12:11:51Z</time>
      </trkpt>
      <trkpt lat="45.9435" lon="4.72416">
        <ele>173</ele>
        <time>2017-12-09T12:11:52Z</time>
      </trkpt>
      <trkpt lat="45.94346" lon="4.7241">
        <ele>173</ele>
        <time>2017-12-09T12:11:53Z</time>
      </trkpt>
      <trkpt lat="45.94345" lon="4.72403">
        <ele>172</ele>
        <time>2017-12-09T12:11:54Z</time>
      </trkpt>
      <trkpt lat="45.94341" lon="4.72397">
        <ele>172</ele>
        <time>2017-12-09T12:11:55Z</time>
      </trkpt>
      <trkpt lat="45.94339" lon="4.72391">
        <ele>172</ele>
        <time>2017-12-09T12:11:56Z</time>
      </trkpt>
      <trkpt lat="45.94336" lon="4.72384">
        <ele>172</ele>
        <time>2017-12-09T12:11:57Z</time>
      </trkpt>
      <trkpt lat="45.94332" lon="4.72379">
        <ele>172</ele>
        <time>2017-12-09T12:11:58Z</time>
      </trkpt>
      <trkpt lat="45.94329" lon="4.72373">
        <ele>172</ele>
        <time>2017-12-09T12:11:59Z</time>
      </trkpt>
      <trkpt lat="45.94328" lon="4.72366">
        <ele>172</ele>
        <time>2017-12-09T12:12:00Z</time>
      </trkpt>
      <trkpt lat="45.94326" lon="4.7236">
        <ele>172</ele>
        <time>2017-12-09T12:12:01Z</time>
      </trkpt>
      <trkpt lat="45.94323" lon="4.72354">
        <ele>172</ele>
        <time>2017-12-09T12:12:02Z</time>
      </trkpt>
      <trkpt lat="45.9432" lon="4.72348">
        <ele>172</ele>
        <time>2017-12-09T12:12:03Z</time>
      </trkpt>
      <trkpt lat="45.94317" lon="4.72342">
        <ele>172</ele>
        <time>2017-12-09T12:12:04Z</time>
      </trkpt>
      <trkpt lat="45.94315" lon="4.72335">
        <ele>172</ele>
        <time>2017-12-09T12:12:05Z</time>
      </trkpt>
      <trkpt lat="45.94309" lon="4.72328">
        <ele>172</ele>
        <time>2017-12-09T12:12:06Z</time>
      </trkpt>
      <trkpt lat="45.94306" lon="4.72323">
        <ele>171</ele>
        <time>2017-12-09T12:12:07Z</time>
      </trkpt>
      <trkpt lat="45.94302" lon="4.72316">
        <ele>171</ele>
        <time>2017-12-09T12:12:08Z</time>
      </trkpt>
      <trkpt lat="45.94297" lon="4.72309">
        <ele>171</ele>
        <time>2017-12-09T12:12:09Z</time>
      </trkpt>
      <trkpt lat="45.94294" lon="4.72301">
        <ele>171</ele>
        <time>2017-12-09T12:12:10Z</time>
      </trkpt>
      <trkpt lat="45.9429" lon="4.72293">
        <ele>171</ele>
        <time>2017-12-09T12:12:11Z</time>
      </trkpt>
      <trkpt lat="45.94287" lon="4.72288">
        <ele>171</ele>
        <time>2017-12-09T12:12:12Z</time>
      </trkpt>
      <trkpt lat="45.94283" lon="4.72283">
        <ele>171</ele>
        <time>2017-12-09T12:12:13Z</time>
      </trkpt>
      <trkpt lat="45.94279" lon="4.72279">
        <ele>171</ele>
        <time>2017-12-09T12:12:14Z</time>
      </trkpt>
      <trkpt lat="45.94273" lon="4.72277">
        <ele>171</ele>
        <time>2017-12-09T12:12:15Z</time>
      </trkpt>
      <trkpt lat="45.94269" lon="4.72276">
        <ele>171</ele>
        <time>2017-12-09T12:12:16Z</time>
      </trkpt>
      <trkpt lat="45.94265" lon="4.72276">
        <ele>171</ele>
        <time>2017-12-09T12:12:17Z</time>
      </trkpt>
      <trkpt lat="45.9426" lon="4.72279">
        <ele>171</ele>
        <time>2017-12-09T12:12:18Z</time>
      </trkpt>
      <trkpt lat="45.94256" lon="4.72281">
        <ele>171</ele>
        <time>2017-12-09T12:12:19Z</time>
      </trkpt>
      <trkpt lat="45.94251" lon="4.72283">
        <ele>171</ele>
        <time>2017-12-09T12:12:20Z</time>
      </trkpt>
      <trkpt lat="45.94246" lon="4.72285">
        <ele>171</ele>
        <time>2017-12-09T12:12:21Z</time>
      </trkpt>
      <trkpt lat="45.9424" lon="4.72287">
        <ele>171</ele>
        <time>2017-12-09T12:12:22Z</time>
      </trkpt>
      <trkpt lat="45.94234" lon="4.72289">
        <ele>171</ele>
        <time>2017-12-09T12:12:23Z</time>
      </trkpt>
      <trkpt lat="45.94229" lon="4.72289">
        <ele>171</ele>
        <time>2017-12-09T12:12:24Z</time>
      </trkpt>
      <trkpt lat="45.94223" lon="4.72289">
        <ele>171</ele>
        <time>2017-12-09T12:12:25Z</time>
      </trkpt>
      <trkpt lat="45.94217" lon="4.7229">
        <ele>171</ele>
        <time>2017-12-09T12:12:26Z</time>
      </trkpt>
      <trkpt lat="45.94212" lon="4.7229">
        <ele>171</ele>
        <time>2017-12-09T12:12:27Z</time>
      </trkpt>
      <trkpt lat="45.94206" lon="4.7229">
        <ele>171</ele>
        <time>2017-12-09T12:12:28Z</time>
      </trkpt>
      <trkpt lat="45.94201" lon="4.7229">
        <ele>171</ele>
        <time>2017-12-09T12:12:29Z</time>
      </trkpt>
      <trkpt lat="45.94196" lon="4.72289">
        <ele>171</ele>
        <time>2017-12-09T12:12:30Z</time>
      </trkpt>
      <trkpt lat="45.9419" lon="4.72289">
        <ele>171</ele>
        <time>2017-12-09T12:12:31Z</time>
      </trkpt>
      <trkpt lat="45.94184" lon="4.72289">
        <ele>171</ele>
        <time>2017-12-09T12:12:32Z</time>
      </trkpt>
      <trkpt lat="45.9418" lon="4.72289">
        <ele>171</ele>
        <time>2017-12-09T12:12:33Z</time>
      </trkpt>
      <trkpt lat="45.94175" lon="4.72285">
        <ele>171</ele>
        <time>2017-12-09T12:12:34Z</time>
      </trkpt>
      <trkpt lat="45.9417" lon="4.72285">
        <ele>171</ele>
        <time>2017-12-09T12:12:35Z</time>
      </trkpt>
      <trkpt lat="45.94165" lon="4.72282">
        <ele>171</ele>
        <time>2017-12-09T12:12:36Z</time>
      </trkpt>
      <trkpt lat="45.94158" lon="4.7228">
        <ele>171</ele>
        <time>2017-12-09T12:12:37Z</time>
      </trkpt>
      <trkpt lat="45.94151" lon="4.72278">
        <ele>171</ele>
        <time>2017-12-09T12:12:38Z</time>
      </trkpt>
      <trkpt lat="45.94146" lon="4.72276">
        <ele>171</ele>
        <time>2017-12-09T12:12:39Z</time>
      </trkpt>
      <trkpt lat="45.94141" lon="4.72274">
        <ele>171</ele>
        <time>2017-12-09T12:12:40Z</time>
      </trkpt>
      <trkpt lat="45.94134" lon="4.72271">
        <ele>171</ele>
        <time>2017-12-09T12:12:41Z</time>
      </trkpt>
      <trkpt lat="45.94128" lon="4.72268">
        <ele>171</ele>
        <time>2017-12-09T12:12:42Z</time>
      </trkpt>
      <trkpt lat="45.94123" lon="4.72265">
        <ele>171</ele>
        <time>2017-12-09T12:12:43Z</time>
      </trkpt>
      <trkpt lat="45.94117" lon="4.72264">
        <ele>171</ele>
        <time>2017-12-09T12:12:44Z</time>
      </trkpt>
      <trkpt lat="45.94112" lon="4.72263">
        <ele>171</ele>
        <time>2017-12-09T12:12:45Z</time>
      </trkpt>
      <trkpt lat="45.94106" lon="4.72262">
        <ele>171</ele>
        <time>2017-12-09T12:12:46Z</time>
      </trkpt>
      <trkpt lat="45.941" lon="4.72263">
        <ele>171</ele>
        <time>2017-12-09T12:12:47Z</time>
      </trkpt>
      <trkpt lat="45.94093" lon="4.72263">
        <ele>171</ele>
        <time>2017-12-09T12:12:48Z</time>
      </trkpt>
      <trkpt lat="45.94088" lon="4.72264">
        <ele>171</ele>
        <time>2017-12-09T12:12:49Z</time>
      </trkpt>
      <trkpt lat="45.94082" lon="4.72267">
        <ele>171</ele>
        <time>2017-12-09T12:12:50Z</time>
      </trkpt>
      <trkpt lat="45.94078" lon="4.7227">
        <ele>171</ele>
        <time>2017-12-09T12:12:51Z</time>
      </trkpt>
      <trkpt lat="45.94073" lon="4.72274">
        <ele>171</ele>
        <time>2017-12-09T12:12:52Z</time>
      </trkpt>
      <trkpt lat="45.94068" lon="4.72277">
        <ele>171</ele>
        <time>2017-12-09T12:12:53Z</time>
      </trkpt>
      <trkpt lat="45.94063" lon="4.72281">
        <ele>171</ele>
        <time>2017-12-09T12:12:54Z</time>
      </trkpt>
      <trkpt lat="45.94059" lon="4.72286">
        <ele>171</ele>
        <time>2017-12-09T12:12:55Z</time>
      </trkpt>
      <trkpt lat="45.94055" lon="4.72292">
        <ele>171</ele>
        <time>2017-12-09T12:12:56Z</time>
      </trkpt>
      <trkpt lat="45.94051" lon="4.72297">
        <ele>171</ele>
        <time>2017-12-09T12:12:57Z</time>
      </trkpt>
      <trkpt lat="45.94047" lon="4.72303">
        <ele>171</ele>
        <time>2017-12-09T12:12:58Z</time>
      </trkpt>
      <trkpt lat="45.94043" lon="4.72308">
        <ele>171</ele>
        <time>2017-12-09T12:12:59Z</time>
      </trkpt>
      <trkpt lat="45.94039" lon="4.72313">
        <ele>171</ele>
        <time>2017-12-09T12:13:00Z</time>
      </trkpt>
      <trkpt lat="45.94034" lon="4.72318">
        <ele>171</ele>
        <time>2017-12-09T12:13:01Z</time>
      </trkpt>
      <trkpt lat="45.94029" lon="4.72325">
        <ele>171</ele>
        <time>2017-12-09T12:13:02Z</time>
      </trkpt>
      <trkpt lat="45.94025" lon="4.7233">
        <ele>171</ele>
        <time>2017-12-09T12:13:03Z</time>
      </trkpt>
      <trkpt lat="45.94022" lon="4.72336">
        <ele>171</ele>
        <time>2017-12-09T12:13:04Z</time>
      </trkpt>
      <trkpt lat="45.94017" lon="4.72341">
        <ele>171</ele>
        <time>2017-12-09T12:13:05Z</time>
      </trkpt>
      <trkpt lat="45.94013" lon="4.72346">
        <ele>171</ele>
        <time>2017-12-09T12:13:06Z</time>
      </trkpt>
      <trkpt lat="45.94009" lon="4.72353">
        <ele>171</ele>
        <time>2017-12-09T12:13:07Z</time>
      </trkpt>
      <trkpt lat="45.94005" lon="4.72357">
        <ele>171</ele>
        <time>2017-12-09T12:13:08Z</time>
      </trkpt>
      <trkpt lat="45.94002" lon="4.72363">
        <ele>171</ele>
        <time>2017-12-09T12:13:09Z</time>
      </trkpt>
      <trkpt lat="45.93999" lon="4.72368">
        <ele>171</ele>
        <time>2017-12-09T12:13:10Z</time>
      </trkpt>
      <trkpt lat="45.93995" lon="4.72373">
        <ele>171</ele>
        <time>2017-12-09T12:13:11Z</time>
      </trkpt>
      <trkpt lat="45.93992" lon="4.72376">
        <ele>171</ele>
        <time>2017-12-09T12:13:12Z</time>
      </trkpt>
      <trkpt lat="45.93989" lon="4.72381">
        <ele>171</ele>
        <time>2017-12-09T12:13:13Z</time>
      </trkpt>
      <trkpt lat="45.93985" lon="4.72386">
        <ele>171</ele>
        <time>2017-12-09T12:13:14Z</time>
      </trkpt>
      <trkpt lat="45.93981" lon="4.7239">
        <ele>171</ele>
        <time>2017-12-09T12:13:15Z</time>
      </trkpt>
      <trkpt lat="45.93977" lon="4.72395">
        <ele>171</ele>
        <time>2017-12-09T12:13:16Z</time>
      </trkpt>
      <trkpt lat="45.93973" lon="4.72399">
        <ele>171</ele>
        <time>2017-12-09T12:13:17Z</time>
      </trkpt>
      <trkpt lat="45.93969" lon="4.72404">
        <ele>171</ele>
        <time>2017-12-09T12:13:18Z</time>
      </trkpt>
      <trkpt lat="45.93965" lon="4.72409">
        <ele>171</ele>
        <time>2017-12-09T12:13:19Z</time>
      </trkpt>
      <trkpt lat="45.9396" lon="4.72415">
        <ele>171</ele>
        <time>2017-12-09T12:13:20Z</time>
      </trkpt>
      <trkpt lat="45.93956" lon="4.72419">
        <ele>171</ele>
        <time>2017-12-09T12:13:21Z</time>
      </trkpt>
      <trkpt lat="45.93952" lon="4.72425">
        <ele>171</ele>
        <time>2017-12-09T12:13:22Z</time>
      </trkpt>
      <trkpt lat="45.93948" lon="4.72431">
        <ele>171</ele>
        <time>2017-12-09T12:13:23Z</time>
      </trkpt>
      <trkpt lat="45.93943" lon="4.72436">
        <ele>171</ele>
        <time>2017-12-09T12:13:24Z</time>
      </trkpt>
      <trkpt lat="45.9394" lon="4.72443">
        <ele>171</ele>
        <time>2017-12-09T12:13:25Z</time>
      </trkpt>
      <trkpt lat="45.93936" lon="4.72447">
        <ele>171</ele>
        <time>2017-12-09T12:13:26Z</time>
      </trkpt>
      <trkpt lat="45.93931" lon="4.72453">
        <ele>171</ele>
        <time>2017-12-09T12:13:27Z</time>
      </trkpt>
      <trkpt lat="45.93926" lon="4.72458">
        <ele>171</ele>
        <time>2017-12-09T12:13:28Z</time>
      </trkpt>
      <trkpt lat="45.93921" lon="4.72462">
        <ele>171</ele>
        <time>2017-12-09T12:13:29Z</time>
      </trkpt>
      <trkpt lat="45.93917" lon="4.72468">
        <ele>171</ele>
        <time>2017-12-09T12:13:30Z</time>
      </trkpt>
      <trkpt lat="45.93913" lon="4.72474">
        <ele>172</ele>
        <time>2017-12-09T12:13:31Z</time>
      </trkpt>
      <trkpt lat="45.93909" lon="4.72479">
        <ele>172</ele>
        <time>2017-12-09T12:13:32Z</time>
      </trkpt>
      <trkpt lat="45.93905" lon="4.72483">
        <ele>172</ele>
        <time>2017-12-09T12:13:33Z</time>
      </trkpt>
      <trkpt lat="45.939" lon="4.72488">
        <ele>172</ele>
        <time>2017-12-09T12:13:34Z</time>
      </trkpt>
      <trkpt lat="45.93897" lon="4.72494">
        <ele>172</ele>
        <time>2017-12-09T12:13:35Z</time>
      </trkpt>
      <trkpt lat="45.93893" lon="4.725">
        <ele>172</ele>
        <time>2017-12-09T12:13:36Z</time>
      </trkpt>
      <trkpt lat="45.93889" lon="4.72505">
        <ele>173</ele>
        <time>2017-12-09T12:13:37Z</time>
      </trkpt>
      <trkpt lat="45.93885" lon="4.72509">
        <ele>173</ele>
        <time>2017-12-09T12:13:38Z</time>
      </trkpt>
      <trkpt lat="45.93878" lon="4.72511">
        <ele>173</ele>
        <time>2017-12-09T12:13:40Z</time>
      </trkpt>
      <trkpt lat="45.93873" lon="4.72511">
        <ele>173</ele>
        <time>2017-12-09T12:13:41Z</time>
      </trkpt>
      <trkpt lat="45.93868" lon="4.72508">
        <ele>173</ele>
        <time>2017-12-09T12:13:42Z</time>
      </trkpt>
      <trkpt lat="45.93864" lon="4.72506">
        <ele>173</ele>
        <time>2017-12-09T12:13:43Z</time>
      </trkpt>
      <trkpt lat="45.93858" lon="4.72501">
        <ele>173</ele>
        <time>2017-12-09T12:13:45Z</time>
      </trkpt>
      <trkpt lat="45.93855" lon="4.72499">
        <ele>173</ele>
        <time>2017-12-09T12:13:46Z</time>
      </trkpt>
      <trkpt lat="45.93848" lon="4.72495">
        <ele>173</ele>
        <time>2017-12-09T12:13:48Z</time>
      </trkpt>
      <trkpt lat="45.93844" lon="4.72494">
        <ele>173</ele>
        <time>2017-12-09T12:13:49Z</time>
      </trkpt>
      <trkpt lat="45.93834" lon="4.72471">
        <ele>173</ele>
        <time>2017-12-09T12:13:50Z</time>
      </trkpt>
      <trkpt lat="45.93825" lon="4.72468">
        <ele>172</ele>
        <time>2017-12-09T12:13:51Z</time>
      </trkpt>
      <trkpt lat="45.93817" lon="4.72465">
        <ele>172</ele>
        <time>2017-12-09T12:13:53Z</time>
      </trkpt>
      <trkpt lat="45.93814" lon="4.72462">
        <ele>172</ele>
        <time>2017-12-09T12:13:54Z</time>
      </trkpt>
      <trkpt lat="45.93809" lon="4.72454">
        <ele>172</ele>
        <time>2017-12-09T12:13:57Z</time>
      </trkpt>
      <trkpt lat="45.93805" lon="4.7245">
        <ele>172</ele>
        <time>2017-12-09T12:13:58Z</time>
      </trkpt>
      <trkpt lat="45.93802" lon="4.72445">
        <ele>172</ele>
        <time>2017-12-09T12:13:59Z</time>
      </trkpt>
      <trkpt lat="45.93797" lon="4.72441">
        <ele>172</ele>
        <time>2017-12-09T12:14:00Z</time>
      </trkpt>
      <trkpt lat="45.93793" lon="4.72438">
        <ele>172</ele>
        <time>2017-12-09T12:14:01Z</time>
      </trkpt>
      <trkpt lat="45.93788" lon="4.72434">
        <ele>172</ele>
        <time>2017-12-09T12:14:02Z</time>
      </trkpt>
      <trkpt lat="45.93782" lon="4.7243">
        <ele>172</ele>
        <time>2017-12-09T12:14:03Z</time>
      </trkpt>
      <trkpt lat="45.93779" lon="4.72426">
        <ele>172</ele>
        <time>2017-12-09T12:14:04Z</time>
      </trkpt>
      <trkpt lat="45.93772" lon="4.72417">
        <ele>171</ele>
        <time>2017-12-09T12:14:06Z</time>
      </trkpt>
      <trkpt lat="45.93768" lon="4.72413">
        <ele>171</ele>
        <time>2017-12-09T12:14:07Z</time>
      </trkpt>
      <trkpt lat="45.93765" lon="4.72408">
        <ele>171</ele>
        <time>2017-12-09T12:14:08Z</time>
      </trkpt>
      <trkpt lat="45.9376" lon="4.72404">
        <ele>171</ele>
        <time>2017-12-09T12:14:09Z</time>
      </trkpt>
      <trkpt lat="45.93757" lon="4.72399">
        <ele>171</ele>
        <time>2017-12-09T12:14:10Z</time>
      </trkpt>
      <trkpt lat="45.93753" lon="4.72396">
        <ele>171</ele>
        <time>2017-12-09T12:14:11Z</time>
      </trkpt>
      <trkpt lat="45.93749" lon="4.72392">
        <ele>171</ele>
        <time>2017-12-09T12:14:12Z</time>
      </trkpt>
      <trkpt lat="45.93744" lon="4.72389">
        <ele>171</ele>
        <time>2017-12-09T12:14:13Z</time>
      </trkpt>
      <trkpt lat="45.93737" lon="4.72382">
        <ele>171</ele>
        <time>2017-12-09T12:14:15Z</time>
      </trkpt>
      <trkpt lat="45.93733" lon="4.72378">
        <ele>171</ele>
        <time>2017-12-09T12:14:16Z</time>
      </trkpt>
      <trkpt lat="45.93726" lon="4.72371">
        <ele>172</ele>
        <time>2017-12-09T12:14:18Z</time>
      </trkpt>
      <trkpt lat="45.9372" lon="4.72366">
        <ele>172</ele>
        <time>2017-12-09T12:14:19Z</time>
      </trkpt>
      <trkpt lat="45.93716" lon="4.72362">
        <ele>172</ele>
        <time>2017-12-09T12:14:20Z</time>
      </trkpt>
      <trkpt lat="45.93711" lon="4.72359">
        <ele>172</ele>
        <time>2017-12-09T12:14:21Z</time>
      </trkpt>
      <trkpt lat="45.93706" lon="4.72356">
        <ele>171</ele>
        <time>2017-12-09T12:14:22Z</time>
      </trkpt>
      <trkpt lat="45.93702" lon="4.72355">
        <ele>171</ele>
        <time>2017-12-09T12:14:23Z</time>
      </trkpt>
      <trkpt lat="45.93693" lon="4.72348">
        <ele>171</ele>
        <time>2017-12-09T12:14:24Z</time>
      </trkpt>
      <trkpt lat="45.93694" lon="4.72342">
        <ele>171</ele>
        <time>2017-12-09T12:14:25Z</time>
      </trkpt>
      <trkpt lat="45.93691" lon="4.72334">
        <ele>171</ele>
        <time>2017-12-09T12:14:26Z</time>
      </trkpt>
      <trkpt lat="45.93687" lon="4.7233">
        <ele>172</ele>
        <time>2017-12-09T12:14:27Z</time>
      </trkpt>
      <trkpt lat="45.93683" lon="4.72324">
        <ele>172</ele>
        <time>2017-12-09T12:14:28Z</time>
      </trkpt>
      <trkpt lat="45.93678" lon="4.7232">
        <ele>171</ele>
        <time>2017-12-09T12:14:29Z</time>
      </trkpt>
      <trkpt lat="45.93674" lon="4.72317">
        <ele>172</ele>
        <time>2017-12-09T12:14:30Z</time>
      </trkpt>
      <trkpt lat="45.93669" lon="4.72313">
        <ele>172</ele>
        <time>2017-12-09T12:14:31Z</time>
      </trkpt>
      <trkpt lat="45.93665" lon="4.72309">
        <ele>172</ele>
        <time>2017-12-09T12:14:32Z</time>
      </trkpt>
      <trkpt lat="45.93657" lon="4.72303">
        <ele>172</ele>
        <time>2017-12-09T12:14:34Z</time>
      </trkpt>
      <trkpt lat="45.93652" lon="4.723">
        <ele>172</ele>
        <time>2017-12-09T12:14:35Z</time>
      </trkpt>
      <trkpt lat="45.93647" lon="4.72294">
        <ele>172</ele>
        <time>2017-12-09T12:14:37Z</time>
      </trkpt>
      <trkpt lat="45.93642" lon="4.72291">
        <ele>172</ele>
        <time>2017-12-09T12:14:38Z</time>
      </trkpt>
      <trkpt lat="45.93636" lon="4.72284">
        <ele>172</ele>
        <time>2017-12-09T12:14:40Z</time>
      </trkpt>
      <trkpt lat="45.93633" lon="4.72281">
        <ele>172</ele>
        <time>2017-12-09T12:14:41Z</time>
      </trkpt>
      <trkpt lat="45.93625" lon="4.72275">
        <ele>172</ele>
        <time>2017-12-09T12:14:43Z</time>
      </trkpt>
      <trkpt lat="45.93621" lon="4.72272">
        <ele>172</ele>
        <time>2017-12-09T12:14:44Z</time>
      </trkpt>
      <trkpt lat="45.93617" lon="4.72268">
        <ele>172</ele>
        <time>2017-12-09T12:14:45Z</time>
      </trkpt>
      <trkpt lat="45.93614" lon="4.72262">
        <ele>172</ele>
        <time>2017-12-09T12:14:46Z</time>
      </trkpt>
      <trkpt lat="45.9361" lon="4.72259">
        <ele>172</ele>
        <time>2017-12-09T12:14:47Z</time>
      </trkpt>
      <trkpt lat="45.93605" lon="4.72255">
        <ele>173</ele>
        <time>2017-12-09T12:14:48Z</time>
      </trkpt>
      <trkpt lat="45.93598" lon="4.72248">
        <ele>173</ele>
        <time>2017-12-09T12:14:50Z</time>
      </trkpt>
      <trkpt lat="45.93594" lon="4.72246">
        <ele>173</ele>
        <time>2017-12-09T12:14:51Z</time>
      </trkpt>
      <trkpt lat="45.93587" lon="4.72238">
        <ele>173</ele>
        <time>2017-12-09T12:14:54Z</time>
      </trkpt>
      <trkpt lat="45.93585" lon="4.72235">
        <ele>173</ele>
        <time>2017-12-09T12:14:55Z</time>
      </trkpt>
      <trkpt lat="45.9358" lon="4.72231">
        <ele>173</ele>
        <time>2017-12-09T12:14:57Z</time>
      </trkpt>
      <trkpt lat="45.93577" lon="4.72229">
        <ele>173</ele>
        <time>2017-12-09T12:14:58Z</time>
      </trkpt>
      <trkpt lat="45.93571" lon="4.72225">
        <ele>173</ele>
        <time>2017-12-09T12:15:00Z</time>
      </trkpt>
      <trkpt lat="45.93567" lon="4.72223">
        <ele>173</ele>
        <time>2017-12-09T12:15:01Z</time>
      </trkpt>
      <trkpt lat="45.93559" lon="4.72222">
        <ele>173</ele>
        <time>2017-12-09T12:15:03Z</time>
      </trkpt>
      <trkpt lat="45.93555" lon="4.72224">
        <ele>173</ele>
        <time>2017-12-09T12:15:04Z</time>
      </trkpt>
      <trkpt lat="45.93551" lon="4.72233">
        <ele>172</ele>
        <time>2017-12-09T12:15:05Z</time>
      </trkpt>
      <trkpt lat="45.93549" lon="4.72235">
        <ele>172</ele>
        <time>2017-12-09T12:15:06Z</time>
      </trkpt>
      <trkpt lat="45.93545" lon="4.72245">
        <ele>172</ele>
        <time>2017-12-09T12:15:08Z</time>
      </trkpt>
      <trkpt lat="45.93543" lon="4.72249">
        <ele>172</ele>
        <time>2017-12-09T12:15:09Z</time>
      </trkpt>
      <trkpt lat="45.9354" lon="4.72255">
        <ele>172</ele>
        <time>2017-12-09T12:15:10Z</time>
      </trkpt>
      <trkpt lat="45.93537" lon="4.7226">
        <ele>172</ele>
        <time>2017-12-09T12:15:11Z</time>
      </trkpt>
      <trkpt lat="45.93531" lon="4.72269">
        <ele>172</ele>
        <time>2017-12-09T12:15:13Z</time>
      </trkpt>
      <trkpt lat="45.93529" lon="4.72275">
        <ele>172</ele>
        <time>2017-12-09T12:15:14Z</time>
      </trkpt>
      <trkpt lat="45.93526" lon="4.7228">
        <ele>172</ele>
        <time>2017-12-09T12:15:15Z</time>
      </trkpt>
      <trkpt lat="45.93524" lon="4.72285">
        <ele>172</ele>
        <time>2017-12-09T12:15:16Z</time>
      </trkpt>
      <trkpt lat="45.93521" lon="4.72291">
        <ele>172</ele>
        <time>2017-12-09T12:15:17Z</time>
      </trkpt>
      <trkpt lat="45.93517" lon="4.72295">
        <ele>172</ele>
        <time>2017-12-09T12:15:18Z</time>
      </trkpt>
      <trkpt lat="45.93514" lon="4.72301">
        <ele>172</ele>
        <time>2017-12-09T12:15:19Z</time>
      </trkpt>
      <trkpt lat="45.9351" lon="4.72308">
        <ele>173</ele>
        <time>2017-12-09T12:15:20Z</time>
      </trkpt>
      <trkpt lat="45.93506" lon="4.72314">
        <ele>173</ele>
        <time>2017-12-09T12:15:21Z</time>
      </trkpt>
      <trkpt lat="45.93502" lon="4.72321">
        <ele>173</ele>
        <time>2017-12-09T12:15:22Z</time>
      </trkpt>
      <trkpt lat="45.93498" lon="4.7233">
        <ele>173</ele>
        <time>2017-12-09T12:15:23Z</time>
      </trkpt>
      <trkpt lat="45.93494" lon="4.72336">
        <ele>173</ele>
        <time>2017-12-09T12:15:24Z</time>
      </trkpt>
      <trkpt lat="45.9349" lon="4.72341">
        <ele>173</ele>
        <time>2017-12-09T12:15:25Z</time>
      </trkpt>
      <trkpt lat="45.93487" lon="4.72346">
        <ele>173</ele>
        <time>2017-12-09T12:15:26Z</time>
      </trkpt>
      <trkpt lat="45.93481" lon="4.72352">
        <ele>173</ele>
        <time>2017-12-09T12:15:27Z</time>
      </trkpt>
      <trkpt lat="45.93477" lon="4.72357">
        <ele>173</ele>
        <time>2017-12-09T12:15:28Z</time>
      </trkpt>
      <trkpt lat="45.93473" lon="4.7236">
        <ele>173</ele>
        <time>2017-12-09T12:15:29Z</time>
      </trkpt>
      <trkpt lat="45.9347" lon="4.72367">
        <ele>173</ele>
        <time>2017-12-09T12:15:30Z</time>
      </trkpt>
      <trkpt lat="45.93463" lon="4.72374">
        <ele>173</ele>
        <time>2017-12-09T12:15:32Z</time>
      </trkpt>
      <trkpt lat="45.93459" lon="4.72378">
        <ele>173</ele>
        <time>2017-12-09T12:15:33Z</time>
      </trkpt>
      <trkpt lat="45.93455" lon="4.72382">
        <ele>173</ele>
        <time>2017-12-09T12:15:34Z</time>
      </trkpt>
      <trkpt lat="45.9345" lon="4.72386">
        <ele>173</ele>
        <time>2017-12-09T12:15:35Z</time>
      </trkpt>
      <trkpt lat="45.93445" lon="4.7239">
        <ele>173</ele>
        <time>2017-12-09T12:15:36Z</time>
      </trkpt>
      <trkpt lat="45.93441" lon="4.72392">
        <ele>173</ele>
        <time>2017-12-09T12:15:37Z</time>
      </trkpt>
      <trkpt lat="45.93436" lon="4.72394">
        <ele>173</ele>
        <time>2017-12-09T12:15:38Z</time>
      </trkpt>
      <trkpt lat="45.9343" lon="4.72395">
        <ele>173</ele>
        <time>2017-12-09T12:15:39Z</time>
      </trkpt>
      <trkpt lat="45.93426" lon="4.724">
        <ele>174</ele>
        <time>2017-12-09T12:15:40Z</time>
      </trkpt>
      <trkpt lat="45.93424" lon="4.72406">
        <ele>174</ele>
        <time>2017-12-09T12:15:41Z</time>
      </trkpt>
      <trkpt lat="45.93415" lon="4.72408">
        <ele>174</ele>
        <time>2017-12-09T12:15:43Z</time>
      </trkpt>
      <trkpt lat="45.9341" lon="4.72407">
        <ele>174</ele>
        <time>2017-12-09T12:15:44Z</time>
      </trkpt>
      <trkpt lat="45.93404" lon="4.72405">
        <ele>174</ele>
        <time>2017-12-09T12:15:46Z</time>
      </trkpt>
      <trkpt lat="45.934" lon="4.72411">
        <ele>174</ele>
        <time>2017-12-09T12:15:47Z</time>
      </trkpt>
      <trkpt lat="45.93398" lon="4.72415">
        <ele>174</ele>
        <time>2017-12-09T12:15:48Z</time>
      </trkpt>
      <trkpt lat="45.93393" lon="4.72425">
        <ele>173</ele>
        <time>2017-12-09T12:15:49Z</time>
      </trkpt>
      <trkpt lat="45.93393" lon="4.72437">
        <ele>173</ele>
        <time>2017-12-09T12:15:51Z</time>
      </trkpt>
      <trkpt lat="45.93395" lon="4.72447">
        <ele>173</ele>
        <time>2017-12-09T12:15:52Z</time>
      </trkpt>
      <trkpt lat="45.93395" lon="4.72456">
        <ele>173</ele>
        <time>2017-12-09T12:15:53Z</time>
      </trkpt>
      <trkpt lat="45.93394" lon="4.72464">
        <ele>173</ele>
        <time>2017-12-09T12:15:54Z</time>
      </trkpt>
      <trkpt lat="45.93391" lon="4.72472">
        <ele>173</ele>
        <time>2017-12-09T12:15:55Z</time>
      </trkpt>
      <trkpt lat="45.93387" lon="4.72478">
        <ele>173</ele>
        <time>2017-12-09T12:15:56Z</time>
      </trkpt>
      <trkpt lat="45.93382" lon="4.72483">
        <ele>173</ele>
        <time>2017-12-09T12:15:57Z</time>
      </trkpt>
      <trkpt lat="45.93378" lon="4.72489">
        <ele>173</ele>
        <time>2017-12-09T12:15:58Z</time>
      </trkpt>
      <trkpt lat="45.93373" lon="4.72494">
        <ele>173</ele>
        <time>2017-12-09T12:15:59Z</time>
      </trkpt>
      <trkpt lat="45.93368" lon="4.725">
        <ele>173</ele>
        <time>2017-12-09T12:16:00Z</time>
      </trkpt>
      <trkpt lat="45.93363" lon="4.72503">
        <ele>172</ele>
        <time>2017-12-09T12:16:01Z</time>
      </trkpt>
      <trkpt lat="45.93359" lon="4.72507">
        <ele>172</ele>
        <time>2017-12-09T12:16:02Z</time>
      </trkpt>
      <trkpt lat="45.93354" lon="4.72512">
        <ele>172</ele>
        <time>2017-12-09T12:16:03Z</time>
      </trkpt>
      <trkpt lat="45.9335" lon="4.72516">
        <ele>172</ele>
        <time>2017-12-09T12:16:04Z</time>
      </trkpt>
      <trkpt lat="45.93345" lon="4.72521">
        <ele>172</ele>
        <time>2017-12-09T12:16:05Z</time>
      </trkpt>
      <trkpt lat="45.93342" lon="4.72526">
        <ele>172</ele>
        <time>2017-12-09T12:16:06Z</time>
      </trkpt>
      <trkpt lat="45.93338" lon="4.7253">
        <ele>172</ele>
        <time>2017-12-09T12:16:07Z</time>
      </trkpt>
      <trkpt lat="45.93334" lon="4.72534">
        <ele>172</ele>
        <time>2017-12-09T12:16:08Z</time>
      </trkpt>
      <trkpt lat="45.93329" lon="4.72543">
        <ele>172</ele>
        <time>2017-12-09T12:16:10Z</time>
      </trkpt>
      <trkpt lat="45.93325" lon="4.72547">
        <ele>172</ele>
        <time>2017-12-09T12:16:11Z</time>
      </trkpt>
      <trkpt lat="45.93321" lon="4.72552">
        <ele>172</ele>
        <time>2017-12-09T12:16:12Z</time>
      </trkpt>
      <trkpt lat="45.93318" lon="4.72556">
        <ele>171</ele>
        <time>2017-12-09T12:16:13Z</time>
      </trkpt>
      <trkpt lat="45.93315" lon="4.72559">
        <ele>171</ele>
        <time>2017-12-09T12:16:14Z</time>
      </trkpt>
      <trkpt lat="45.93307" lon="4.72564">
        <ele>171</ele>
        <time>2017-12-09T12:16:15Z</time>
      </trkpt>
      <trkpt lat="45.93302" lon="4.72569">
        <ele>171</ele>
        <time>2017-12-09T12:16:16Z</time>
      </trkpt>
      <trkpt lat="45.93295" lon="4.72574">
        <ele>171</ele>
        <time>2017-12-09T12:16:17Z</time>
      </trkpt>
      <trkpt lat="45.93289" lon="4.72579">
        <ele>171</ele>
        <time>2017-12-09T12:16:18Z</time>
      </trkpt>
      <trkpt lat="45.93286" lon="4.72584">
        <ele>170</ele>
        <time>2017-12-09T12:16:19Z</time>
      </trkpt>
      <trkpt lat="45.93283" lon="4.72589">
        <ele>170</ele>
        <time>2017-12-09T12:16:20Z</time>
      </trkpt>
      <trkpt lat="45.93278" lon="4.72595">
        <ele>170</ele>
        <time>2017-12-09T12:16:21Z</time>
      </trkpt>
      <trkpt lat="45.93274" lon="4.726">
        <ele>170</ele>
        <time>2017-12-09T12:16:22Z</time>
      </trkpt>
      <trkpt lat="45.9327" lon="4.72606">
        <ele>170</ele>
        <time>2017-12-09T12:16:23Z</time>
      </trkpt>
      <trkpt lat="45.93266" lon="4.7261">
        <ele>170</ele>
        <time>2017-12-09T12:16:24Z</time>
      </trkpt>
      <trkpt lat="45.93262" lon="4.72614">
        <ele>170</ele>
        <time>2017-12-09T12:16:25Z</time>
      </trkpt>
      <trkpt lat="45.93259" lon="4.72618">
        <ele>170</ele>
        <time>2017-12-09T12:16:26Z</time>
      </trkpt>
      <trkpt lat="45.93256" lon="4.72624">
        <ele>170</ele>
        <time>2017-12-09T12:16:27Z</time>
      </trkpt>
      <trkpt lat="45.93252" lon="4.72628">
        <ele>170</ele>
        <time>2017-12-09T12:16:28Z</time>
      </trkpt>
      <trkpt lat="45.93247" lon="4.72632">
        <ele>170</ele>
        <time>2017-12-09T12:16:29Z</time>
      </trkpt>
      <trkpt lat="45.93243" lon="4.72637">
        <ele>170</ele>
        <time>2017-12-09T12:16:30Z</time>
      </trkpt>
      <trkpt lat="45.93239" lon="4.72641">
        <ele>170</ele>
        <time>2017-12-09T12:16:31Z</time>
      </trkpt>
      <trkpt lat="45.93236" lon="4.72645">
        <ele>170</ele>
        <time>2017-12-09T12:16:32Z</time>
      </trkpt>
      <trkpt lat="45.93231" lon="4.7265">
        <ele>170</ele>
        <time>2017-12-09T12:16:33Z</time>
      </trkpt>
      <trkpt lat="45.93227" lon="4.72654">
        <ele>170</ele>
        <time>2017-12-09T12:16:34Z</time>
      </trkpt>
      <trkpt lat="45.93223" lon="4.72658">
        <ele>170</ele>
        <time>2017-12-09T12:16:35Z</time>
      </trkpt>
      <trkpt lat="45.9322" lon="4.72662">
        <ele>170</ele>
        <time>2017-12-09T12:16:36Z</time>
      </trkpt>
      <trkpt lat="45.93216" lon="4.72667">
        <ele>169</ele>
        <time>2017-12-09T12:16:37Z</time>
      </trkpt>
      <trkpt lat="45.93211" lon="4.72671">
        <ele>169</ele>
        <time>2017-12-09T12:16:38Z</time>
      </trkpt>
      <trkpt lat="45.93207" lon="4.72676">
        <ele>169</ele>
        <time>2017-12-09T12:16:39Z</time>
      </trkpt>
      <trkpt lat="45.93202" lon="4.72682">
        <ele>169</ele>
        <time>2017-12-09T12:16:40Z</time>
      </trkpt>
      <trkpt lat="45.93198" lon="4.72687">
        <ele>169</ele>
        <time>2017-12-09T12:16:41Z</time>
      </trkpt>
      <trkpt lat="45.93192" lon="4.72692">
        <ele>169</ele>
        <time>2017-12-09T12:16:42Z</time>
      </trkpt>
      <trkpt lat="45.93189" lon="4.72696">
        <ele>169</ele>
        <time>2017-12-09T12:16:43Z</time>
      </trkpt>
      <trkpt lat="45.93185" lon="4.72701">
        <ele>169</ele>
        <time>2017-12-09T12:16:44Z</time>
      </trkpt>
      <trkpt lat="45.9318" lon="4.72707">
        <ele>169</ele>
        <time>2017-12-09T12:16:45Z</time>
      </trkpt>
      <trkpt lat="45.93176" lon="4.72712">
        <ele>169</ele>
        <time>2017-12-09T12:16:46Z</time>
      </trkpt>
      <trkpt lat="45.93171" lon="4.72716">
        <ele>170</ele>
        <time>2017-12-09T12:16:47Z</time>
      </trkpt>
      <trkpt lat="45.93167" lon="4.72719">
        <ele>170</ele>
        <time>2017-12-09T12:16:48Z</time>
      </trkpt>
      <trkpt lat="45.93161" lon="4.72725">
        <ele>170</ele>
        <time>2017-12-09T12:16:49Z</time>
      </trkpt>
      <trkpt lat="45.93156" lon="4.7273">
        <ele>170</ele>
        <time>2017-12-09T12:16:50Z</time>
      </trkpt>
      <trkpt lat="45.93152" lon="4.72735">
        <ele>170</ele>
        <time>2017-12-09T12:16:51Z</time>
      </trkpt>
      <trkpt lat="45.93147" lon="4.7274">
        <ele>170</ele>
        <time>2017-12-09T12:16:52Z</time>
      </trkpt>
      <trkpt lat="45.93143" lon="4.72745">
        <ele>170</ele>
        <time>2017-12-09T12:16:53Z</time>
      </trkpt>
      <trkpt lat="45.93138" lon="4.7275">
        <ele>170</ele>
        <time>2017-12-09T12:16:54Z</time>
      </trkpt>
      <trkpt lat="45.93134" lon="4.72755">
        <ele>171</ele>
        <time>2017-12-09T12:16:55Z</time>
      </trkpt>
      <trkpt lat="45.9313" lon="4.72761">
        <ele>171</ele>
        <time>2017-12-09T12:16:56Z</time>
      </trkpt>
      <trkpt lat="45.93126" lon="4.72766">
        <ele>171</ele>
        <time>2017-12-09T12:16:57Z</time>
      </trkpt>
      <trkpt lat="45.93122" lon="4.72771">
        <ele>171</ele>
        <time>2017-12-09T12:16:58Z</time>
      </trkpt>
      <trkpt lat="45.93118" lon="4.72777">
        <ele>171</ele>
        <time>2017-12-09T12:16:59Z</time>
      </trkpt>
      <trkpt lat="45.93114" lon="4.72782">
        <ele>171</ele>
        <time>2017-12-09T12:17:00Z</time>
      </trkpt>
      <trkpt lat="45.9311" lon="4.72786">
        <ele>171</ele>
        <time>2017-12-09T12:17:01Z</time>
      </trkpt>
      <trkpt lat="45.93106" lon="4.72792">
        <ele>171</ele>
        <time>2017-12-09T12:17:02Z</time>
      </trkpt>
      <trkpt lat="45.93103" lon="4.72796">
        <ele>171</ele>
        <time>2017-12-09T12:17:03Z</time>
      </trkpt>
      <trkpt lat="45.93098" lon="4.72802">
        <ele>171</ele>
        <time>2017-12-09T12:17:04Z</time>
      </trkpt>
      <trkpt lat="45.93094" lon="4.72807">
        <ele>172</ele>
        <time>2017-12-09T12:17:05Z</time>
      </trkpt>
      <trkpt lat="45.93089" lon="4.72811">
        <ele>172</ele>
        <time>2017-12-09T12:17:06Z</time>
      </trkpt>
      <trkpt lat="45.93085" lon="4.72815">
        <ele>172</ele>
        <time>2017-12-09T12:17:07Z</time>
      </trkpt>
      <trkpt lat="45.93082" lon="4.72819">
        <ele>173</ele>
        <time>2017-12-09T12:17:09Z</time>
      </trkpt>
      <trkpt lat="45.93083" lon="4.72829">
        <ele>173</ele>
        <time>2017-12-09T12:17:10Z</time>
      </trkpt>
      <trkpt lat="45.93083" lon="4.72836">
        <ele>173</ele>
        <time>2017-12-09T12:17:12Z</time>
      </trkpt>
      <trkpt lat="45.93085" lon="4.7286">
        <ele>172</ele>
        <time>2017-12-09T12:17:13Z</time>
      </trkpt>
      <trkpt lat="45.93079" lon="4.72862">
        <ele>172</ele>
        <time>2017-12-09T12:17:14Z</time>
      </trkpt>
      <trkpt lat="45.93067" lon="4.72858">
        <ele>172</ele>
        <time>2017-12-09T12:17:15Z</time>
      </trkpt>
      <trkpt lat="45.93057" lon="4.72859">
        <ele>172</ele>
        <time>2017-12-09T12:17:16Z</time>
      </trkpt>
      <trkpt lat="45.93052" lon="4.72863">
        <ele>172</ele>
        <time>2017-12-09T12:17:17Z</time>
      </trkpt>
      <trkpt lat="45.93045" lon="4.72868">
        <ele>172</ele>
        <time>2017-12-09T12:17:18Z</time>
      </trkpt>
      <trkpt lat="45.9304" lon="4.72874">
        <ele>172</ele>
        <time>2017-12-09T12:17:19Z</time>
      </trkpt>
      <trkpt lat="45.93036" lon="4.72878">
        <ele>172</ele>
        <time>2017-12-09T12:17:20Z</time>
      </trkpt>
      <trkpt lat="45.93032" lon="4.72883">
        <ele>172</ele>
        <time>2017-12-09T12:17:21Z</time>
      </trkpt>
      <trkpt lat="45.93028" lon="4.72888">
        <ele>172</ele>
        <time>2017-12-09T12:17:22Z</time>
      </trkpt>
      <trkpt lat="45.93023" lon="4.72894">
        <ele>172</ele>
        <time>2017-12-09T12:17:23Z</time>
      </trkpt>
      <trkpt lat="45.93019" lon="4.72898">
        <ele>172</ele>
        <time>2017-12-09T12:17:24Z</time>
      </trkpt>
      <trkpt lat="45.93016" lon="4.72905">
        <ele>172</ele>
        <time>2017-12-09T12:17:25Z</time>
      </trkpt>
      <trkpt lat="45.93012" lon="4.72909">
        <ele>171</ele>
        <time>2017-12-09T12:17:26Z</time>
      </trkpt>
      <trkpt lat="45.93008" lon="4.72914">
        <ele>171</ele>
        <time>2017-12-09T12:17:27Z</time>
      </trkpt>
      <trkpt lat="45.93004" lon="4.7292">
        <ele>171</ele>
        <time>2017-12-09T12:17:28Z</time>
      </trkpt>
      <trkpt lat="45.92999" lon="4.72924">
        <ele>171</ele>
        <time>2017-12-09T12:17:29Z</time>
      </trkpt>
      <trkpt lat="45.92995" lon="4.72929">
        <ele>171</ele>
        <time>2017-12-09T12:17:30Z</time>
      </trkpt>
      <trkpt lat="45.92991" lon="4.72934">
        <ele>171</ele>
        <time>2017-12-09T12:17:31Z</time>
      </trkpt>
      <trkpt lat="45.92987" lon="4.72938">
        <ele>171</ele>
        <time>2017-12-09T12:17:32Z</time>
      </trkpt>
      <trkpt lat="45.92983" lon="4.72945">
        <ele>171</ele>
        <time>2017-12-09T12:17:33Z</time>
      </trkpt>
      <trkpt lat="45.92979" lon="4.7295">
        <ele>171</ele>
        <time>2017-12-09T12:17:34Z</time>
      </trkpt>
      <trkpt lat="45.92974" lon="4.72954">
        <ele>171</ele>
        <time>2017-12-09T12:17:35Z</time>
      </trkpt>
      <trkpt lat="45.9297" lon="4.72958">
        <ele>171</ele>
        <time>2017-12-09T12:17:36Z</time>
      </trkpt>
      <trkpt lat="45.92967" lon="4.72963">
        <ele>171</ele>
        <time>2017-12-09T12:17:37Z</time>
      </trkpt>
      <trkpt lat="45.92962" lon="4.72967">
        <ele>171</ele>
        <time>2017-12-09T12:17:38Z</time>
      </trkpt>
      <trkpt lat="45.92957" lon="4.72971">
        <ele>171</ele>
        <time>2017-12-09T12:17:39Z</time>
      </trkpt>
      <trkpt lat="45.92954" lon="4.72976">
        <ele>171</ele>
        <time>2017-12-09T12:17:40Z</time>
      </trkpt>
      <trkpt lat="45.9295" lon="4.72981">
        <ele>171</ele>
        <time>2017-12-09T12:17:41Z</time>
      </trkpt>
      <trkpt lat="45.92946" lon="4.72985">
        <ele>171</ele>
        <time>2017-12-09T12:17:42Z</time>
      </trkpt>
      <trkpt lat="45.92942" lon="4.7299">
        <ele>171</ele>
        <time>2017-12-09T12:17:43Z</time>
      </trkpt>
      <trkpt lat="45.92937" lon="4.72995">
        <ele>171</ele>
        <time>2017-12-09T12:17:44Z</time>
      </trkpt>
      <trkpt lat="45.92933" lon="4.73">
        <ele>172</ele>
        <time>2017-12-09T12:17:45Z</time>
      </trkpt>
      <trkpt lat="45.92928" lon="4.73004">
        <ele>172</ele>
        <time>2017-12-09T12:17:46Z</time>
      </trkpt>
      <trkpt lat="45.92924" lon="4.73009">
        <ele>172</ele>
        <time>2017-12-09T12:17:47Z</time>
      </trkpt>
      <trkpt lat="45.9292" lon="4.73013">
        <ele>172</ele>
        <time>2017-12-09T12:17:48Z</time>
      </trkpt>
      <trkpt lat="45.92917" lon="4.73018">
        <ele>172</ele>
        <time>2017-12-09T12:17:49Z</time>
      </trkpt>
      <trkpt lat="45.92913" lon="4.73024">
        <ele>172</ele>
        <time>2017-12-09T12:17:50Z</time>
      </trkpt>
      <trkpt lat="45.9291" lon="4.73028">
        <ele>172</ele>
        <time>2017-12-09T12:17:51Z</time>
      </trkpt>
      <trkpt lat="45.92906" lon="4.73034">
        <ele>172</ele>
        <time>2017-12-09T12:17:52Z</time>
      </trkpt>
      <trkpt lat="45.92903" lon="4.73039">
        <ele>172</ele>
        <time>2017-12-09T12:17:53Z</time>
      </trkpt>
      <trkpt lat="45.929" lon="4.73045">
        <ele>172</ele>
        <time>2017-12-09T12:17:54Z</time>
      </trkpt>
      <trkpt lat="45.92896" lon="4.73049">
        <ele>172</ele>
        <time>2017-12-09T12:17:55Z</time>
      </trkpt>
      <trkpt lat="45.92893" lon="4.73054">
        <ele>172</ele>
        <time>2017-12-09T12:17:56Z</time>
      </trkpt>
      <trkpt lat="45.9289" lon="4.7306">
        <ele>172</ele>
        <time>2017-12-09T12:17:57Z</time>
      </trkpt>
      <trkpt lat="45.92888" lon="4.73065">
        <ele>172</ele>
        <time>2017-12-09T12:17:58Z</time>
      </trkpt>
      <trkpt lat="45.92884" lon="4.73069">
        <ele>172</ele>
        <time>2017-12-09T12:17:59Z</time>
      </trkpt>
      <trkpt lat="45.9288" lon="4.73074">
        <ele>172</ele>
        <time>2017-12-09T12:18:00Z</time>
      </trkpt>
      <trkpt lat="45.92873" lon="4.73082">
        <ele>172</ele>
        <time>2017-12-09T12:18:02Z</time>
      </trkpt>
      <trkpt lat="45.9287" lon="4.73086">
        <ele>172</ele>
        <time>2017-12-09T12:18:03Z</time>
      </trkpt>
      <trkpt lat="45.92864" lon="4.73095">
        <ele>171</ele>
        <time>2017-12-09T12:18:05Z</time>
      </trkpt>
      <trkpt lat="45.92861" lon="4.73099">
        <ele>171</ele>
        <time>2017-12-09T12:18:06Z</time>
      </trkpt>
      <trkpt lat="45.92853" lon="4.73097">
        <ele>171</ele>
        <time>2017-12-09T12:18:08Z</time>
      </trkpt>
      <trkpt lat="45.9285" lon="4.73094">
        <ele>171</ele>
        <time>2017-12-09T12:18:09Z</time>
      </trkpt>
      <trkpt lat="45.92846" lon="4.73087">
        <ele>171</ele>
        <time>2017-12-09T12:18:10Z</time>
      </trkpt>
      <trkpt lat="45.92845" lon="4.7308">
        <ele>171</ele>
        <time>2017-12-09T12:18:11Z</time>
      </trkpt>
      <trkpt lat="45.92845" lon="4.73069">
        <ele>171</ele>
        <time>2017-12-09T12:18:13Z</time>
      </trkpt>
      <trkpt lat="45.92844" lon="4.73062">
        <ele>171</ele>
        <time>2017-12-09T12:18:14Z</time>
      </trkpt>
      <trkpt lat="45.92843" lon="4.73055">
        <ele>171</ele>
        <time>2017-12-09T12:18:15Z</time>
      </trkpt>
      <trkpt lat="45.92842" lon="4.73048">
        <ele>171</ele>
        <time>2017-12-09T12:18:16Z</time>
      </trkpt>
      <trkpt lat="45.92841" lon="4.7304">
        <ele>171</ele>
        <time>2017-12-09T12:18:17Z</time>
      </trkpt>
      <trkpt lat="45.92838" lon="4.73032">
        <ele>171</ele>
        <time>2017-12-09T12:18:18Z</time>
      </trkpt>
      <trkpt lat="45.92835" lon="4.73024">
        <ele>171</ele>
        <time>2017-12-09T12:18:19Z</time>
      </trkpt>
      <trkpt lat="45.92834" lon="4.73016">
        <ele>171</ele>
        <time>2017-12-09T12:18:20Z</time>
      </trkpt>
      <trkpt lat="45.92833" lon="4.73009">
        <ele>170</ele>
        <time>2017-12-09T12:18:21Z</time>
      </trkpt>
      <trkpt lat="45.92832" lon="4.73002">
        <ele>170</ele>
        <time>2017-12-09T12:18:22Z</time>
      </trkpt>
      <trkpt lat="45.92832" lon="4.72995">
        <ele>170</ele>
        <time>2017-12-09T12:18:23Z</time>
      </trkpt>
      <trkpt lat="45.92832" lon="4.72987">
        <ele>170</ele>
        <time>2017-12-09T12:18:24Z</time>
      </trkpt>
      <trkpt lat="45.9283" lon="4.7298">
        <ele>170</ele>
        <time>2017-12-09T12:18:25Z</time>
      </trkpt>
      <trkpt lat="45.92829" lon="4.72973">
        <ele>170</ele>
        <time>2017-12-09T12:18:26Z</time>
      </trkpt>
      <trkpt lat="45.92829" lon="4.72966">
        <ele>170</ele>
        <time>2017-12-09T12:18:27Z</time>
      </trkpt>
      <trkpt lat="45.92827" lon="4.72958">
        <ele>170</ele>
        <time>2017-12-09T12:18:28Z</time>
      </trkpt>
      <trkpt lat="45.92827" lon="4.72951">
        <ele>170</ele>
        <time>2017-12-09T12:18:29Z</time>
      </trkpt>
      <trkpt lat="45.92828" lon="4.72942">
        <ele>170</ele>
        <time>2017-12-09T12:18:30Z</time>
      </trkpt>
      <trkpt lat="45.92828" lon="4.72935">
        <ele>170</ele>
        <time>2017-12-09T12:18:31Z</time>
      </trkpt>
      <trkpt lat="45.92827" lon="4.72928">
        <ele>170</ele>
        <time>2017-12-09T12:18:32Z</time>
      </trkpt>
      <trkpt lat="45.92826" lon="4.7292">
        <ele>170</ele>
        <time>2017-12-09T12:18:33Z</time>
      </trkpt>
      <trkpt lat="45.92826" lon="4.72911">
        <ele>170</ele>
        <time>2017-12-09T12:18:34Z</time>
      </trkpt>
      <trkpt lat="45.92825" lon="4.72903">
        <ele>170</ele>
        <time>2017-12-09T12:18:35Z</time>
      </trkpt>
      <trkpt lat="45.92825" lon="4.72894">
        <ele>170</ele>
        <time>2017-12-09T12:18:36Z</time>
      </trkpt>
      <trkpt lat="45.92824" lon="4.72887">
        <ele>170</ele>
        <time>2017-12-09T12:18:37Z</time>
      </trkpt>
      <trkpt lat="45.92823" lon="4.72879">
        <ele>170</ele>
        <time>2017-12-09T12:18:38Z</time>
      </trkpt>
      <trkpt lat="45.92821" lon="4.72872">
        <ele>170</ele>
        <time>2017-12-09T12:18:39Z</time>
      </trkpt>
      <trkpt lat="45.9282" lon="4.72865">
        <ele>170</ele>
        <time>2017-12-09T12:18:40Z</time>
      </trkpt>
      <trkpt lat="45.92818" lon="4.72859">
        <ele>170</ele>
        <time>2017-12-09T12:18:41Z</time>
      </trkpt>
      <trkpt lat="45.92816" lon="4.72853">
        <ele>170</ele>
        <time>2017-12-09T12:18:42Z</time>
      </trkpt>
      <trkpt lat="45.92815" lon="4.72844">
        <ele>170</ele>
        <time>2017-12-09T12:18:43Z</time>
      </trkpt>
      <trkpt lat="45.92814" lon="4.72838">
        <ele>170</ele>
        <time>2017-12-09T12:18:44Z</time>
      </trkpt>
      <trkpt lat="45.92812" lon="4.72826">
        <ele>171</ele>
        <time>2017-12-09T12:18:46Z</time>
      </trkpt>
      <trkpt lat="45.92811" lon="4.72819">
        <ele>171</ele>
        <time>2017-12-09T12:18:47Z</time>
      </trkpt>
      <trkpt lat="45.92809" lon="4.72813">
        <ele>171</ele>
        <time>2017-12-09T12:18:48Z</time>
      </trkpt>
      <trkpt lat="45.92808" lon="4.72807">
        <ele>171</ele>
        <time>2017-12-09T12:18:49Z</time>
      </trkpt>
      <trkpt lat="45.92806" lon="4.72795">
        <ele>171</ele>
        <time>2017-12-09T12:18:51Z</time>
      </trkpt>
      <trkpt lat="45.92804" lon="4.7279">
        <ele>171</ele>
        <time>2017-12-09T12:18:52Z</time>
      </trkpt>
      <trkpt lat="45.92799" lon="4.72783">
        <ele>171</ele>
        <time>2017-12-09T12:18:54Z</time>
      </trkpt>
      <trkpt lat="45.92795" lon="4.72784">
        <ele>171</ele>
        <time>2017-12-09T12:18:55Z</time>
      </trkpt>
      <trkpt lat="45.9279" lon="4.72788">
        <ele>171</ele>
        <time>2017-12-09T12:18:57Z</time>
      </trkpt>
      <trkpt lat="45.92786" lon="4.7279">
        <ele>170</ele>
        <time>2017-12-09T12:18:58Z</time>
      </trkpt>
      <trkpt lat="45.92782" lon="4.72792">
        <ele>170</ele>
        <time>2017-12-09T12:18:59Z</time>
      </trkpt>
      <trkpt lat="45.92777" lon="4.72795">
        <ele>170</ele>
        <time>2017-12-09T12:19:00Z</time>
      </trkpt>
      <trkpt lat="45.92771" lon="4.72798">
        <ele>170</ele>
        <time>2017-12-09T12:19:01Z</time>
      </trkpt>
      <trkpt lat="45.92768" lon="4.72805">
        <ele>170</ele>
        <time>2017-12-09T12:19:02Z</time>
      </trkpt>
      <trkpt lat="45.92764" lon="4.72809">
        <ele>170</ele>
        <time>2017-12-09T12:19:03Z</time>
      </trkpt>
      <trkpt lat="45.92757" lon="4.72813">
        <ele>170</ele>
        <time>2017-12-09T12:19:04Z</time>
      </trkpt>
      <trkpt lat="45.92752" lon="4.72817">
        <ele>170</ele>
        <time>2017-12-09T12:19:05Z</time>
      </trkpt>
      <trkpt lat="45.92747" lon="4.7282">
        <ele>169</ele>
        <time>2017-12-09T12:19:06Z</time>
      </trkpt>
      <trkpt lat="45.92741" lon="4.72824">
        <ele>169</ele>
        <time>2017-12-09T12:19:07Z</time>
      </trkpt>
      <trkpt lat="45.92736" lon="4.72828">
        <ele>169</ele>
        <time>2017-12-09T12:19:08Z</time>
      </trkpt>
      <trkpt lat="45.92732" lon="4.72834">
        <ele>169</ele>
        <time>2017-12-09T12:19:09Z</time>
      </trkpt>
      <trkpt lat="45.92727" lon="4.72838">
        <ele>169</ele>
        <time>2017-12-09T12:19:10Z</time>
      </trkpt>
      <trkpt lat="45.92722" lon="4.72841">
        <ele>169</ele>
        <time>2017-12-09T12:19:11Z</time>
      </trkpt>
      <trkpt lat="45.92717" lon="4.72846">
        <ele>169</ele>
        <time>2017-12-09T12:19:12Z</time>
      </trkpt>
      <trkpt lat="45.92713" lon="4.72849">
        <ele>169</ele>
        <time>2017-12-09T12:19:13Z</time>
      </trkpt>
      <trkpt lat="45.92707" lon="4.72853">
        <ele>169</ele>
        <time>2017-12-09T12:19:14Z</time>
      </trkpt>
      <trkpt lat="45.92703" lon="4.72858">
        <ele>169</ele>
        <time>2017-12-09T12:19:15Z</time>
      </trkpt>
      <trkpt lat="45.92698" lon="4.72861">
        <ele>169</ele>
        <time>2017-12-09T12:19:16Z</time>
      </trkpt>
      <trkpt lat="45.92694" lon="4.72864">
        <ele>169</ele>
        <time>2017-12-09T12:19:17Z</time>
      </trkpt>
      <trkpt lat="45.92689" lon="4.72867">
        <ele>169</ele>
        <time>2017-12-09T12:19:18Z</time>
      </trkpt>
      <trkpt lat="45.92684" lon="4.72871">
        <ele>169</ele>
        <time>2017-12-09T12:19:19Z</time>
      </trkpt>
      <trkpt lat="45.92679" lon="4.72874">
        <ele>169</ele>
        <time>2017-12-09T12:19:20Z</time>
      </trkpt>
      <trkpt lat="45.92674" lon="4.72878">
        <ele>170</ele>
        <time>2017-12-09T12:19:21Z</time>
      </trkpt>
      <trkpt lat="45.9267" lon="4.72882">
        <ele>170</ele>
        <time>2017-12-09T12:19:22Z</time>
      </trkpt>
      <trkpt lat="45.92666" lon="4.72886">
        <ele>169</ele>
        <time>2017-12-09T12:19:23Z</time>
      </trkpt>
      <trkpt lat="45.9266" lon="4.7289">
        <ele>169</ele>
        <time>2017-12-09T12:19:24Z</time>
      </trkpt>
      <trkpt lat="45.92656" lon="4.72893">
        <ele>169</ele>
        <time>2017-12-09T12:19:25Z</time>
      </trkpt>
      <trkpt lat="45.92651" lon="4.72897">
        <ele>169</ele>
        <time>2017-12-09T12:19:26Z</time>
      </trkpt>
      <trkpt lat="45.92647" lon="4.729">
        <ele>169</ele>
        <time>2017-12-09T12:19:27Z</time>
      </trkpt>
      <trkpt lat="45.92643" lon="4.72904">
        <ele>169</ele>
        <time>2017-12-09T12:19:28Z</time>
      </trkpt>
      <trkpt lat="45.92638" lon="4.72908">
        <ele>169</ele>
        <time>2017-12-09T12:19:29Z</time>
      </trkpt>
      <trkpt lat="45.92634" lon="4.72912">
        <ele>169</ele>
        <time>2017-12-09T12:19:30Z</time>
      </trkpt>
      <trkpt lat="45.9263" lon="4.72915">
        <ele>169</ele>
        <time>2017-12-09T12:19:31Z</time>
      </trkpt>
      <trkpt lat="45.92626" lon="4.72918">
        <ele>170</ele>
        <time>2017-12-09T12:19:32Z</time>
      </trkpt>
      <trkpt lat="45.92622" lon="4.72922">
        <ele>169</ele>
        <time>2017-12-09T12:19:33Z</time>
      </trkpt>
      <trkpt lat="45.92617" lon="4.72927">
        <ele>169</ele>
        <time>2017-12-09T12:19:34Z</time>
      </trkpt>
      <trkpt lat="45.92613" lon="4.72931">
        <ele>169</ele>
        <time>2017-12-09T12:19:35Z</time>
      </trkpt>
      <trkpt lat="45.92608" lon="4.72936">
        <ele>169</ele>
        <time>2017-12-09T12:19:36Z</time>
      </trkpt>
      <trkpt lat="45.92603" lon="4.72941">
        <ele>169</ele>
        <time>2017-12-09T12:19:37Z</time>
      </trkpt>
      <trkpt lat="45.92597" lon="4.72948">
        <ele>169</ele>
        <time>2017-12-09T12:19:38Z</time>
      </trkpt>
      <trkpt lat="45.92592" lon="4.72953">
        <ele>169</ele>
        <time>2017-12-09T12:19:39Z</time>
      </trkpt>
      <trkpt lat="45.92587" lon="4.72958">
        <ele>169</ele>
        <time>2017-12-09T12:19:40Z</time>
      </trkpt>
      <trkpt lat="45.92583" lon="4.72963">
        <ele>169</ele>
        <time>2017-12-09T12:19:41Z</time>
      </trkpt>
      <trkpt lat="45.92578" lon="4.72968">
        <ele>169</ele>
        <time>2017-12-09T12:19:42Z</time>
      </trkpt>
      <trkpt lat="45.92573" lon="4.72973">
        <ele>169</ele>
        <time>2017-12-09T12:19:43Z</time>
      </trkpt>
      <trkpt lat="45.92569" lon="4.72977">
        <ele>169</ele>
        <time>2017-12-09T12:19:44Z</time>
      </trkpt>
      <trkpt lat="45.92564" lon="4.72982">
        <ele>169</ele>
        <time>2017-12-09T12:19:45Z</time>
      </trkpt>
      <trkpt lat="45.92559" lon="4.72986">
        <ele>169</ele>
        <time>2017-12-09T12:19:46Z</time>
      </trkpt>
      <trkpt lat="45.92555" lon="4.7299">
        <ele>169</ele>
        <time>2017-12-09T12:19:47Z</time>
      </trkpt>
      <trkpt lat="45.92551" lon="4.72995">
        <ele>169</ele>
        <time>2017-12-09T12:19:48Z</time>
      </trkpt>
      <trkpt lat="45.92545" lon="4.72999">
        <ele>169</ele>
        <time>2017-12-09T12:19:49Z</time>
      </trkpt>
      <trkpt lat="45.92541" lon="4.73004">
        <ele>169</ele>
        <time>2017-12-09T12:19:50Z</time>
      </trkpt>
      <trkpt lat="45.92536" lon="4.73009">
        <ele>169</ele>
        <time>2017-12-09T12:19:51Z</time>
      </trkpt>
      <trkpt lat="45.92532" lon="4.73013">
        <ele>169</ele>
        <time>2017-12-09T12:19:52Z</time>
      </trkpt>
      <trkpt lat="45.92527" lon="4.73015">
        <ele>169</ele>
        <time>2017-12-09T12:19:53Z</time>
      </trkpt>
      <trkpt lat="45.92523" lon="4.73019">
        <ele>169</ele>
        <time>2017-12-09T12:19:54Z</time>
      </trkpt>
      <trkpt lat="45.92518" lon="4.73024">
        <ele>169</ele>
        <time>2017-12-09T12:19:55Z</time>
      </trkpt>
      <trkpt lat="45.92513" lon="4.73032">
        <ele>169</ele>
        <time>2017-12-09T12:19:56Z</time>
      </trkpt>
      <trkpt lat="45.92508" lon="4.73036">
        <ele>169</ele>
        <time>2017-12-09T12:19:57Z</time>
      </trkpt>
      <trkpt lat="45.92504" lon="4.73042">
        <ele>169</ele>
        <time>2017-12-09T12:19:58Z</time>
      </trkpt>
      <trkpt lat="45.925" lon="4.73045">
        <ele>170</ele>
        <time>2017-12-09T12:19:59Z</time>
      </trkpt>
      <trkpt lat="45.92495" lon="4.73048">
        <ele>170</ele>
        <time>2017-12-09T12:20:00Z</time>
      </trkpt>
      <trkpt lat="45.92491" lon="4.73051">
        <ele>170</ele>
        <time>2017-12-09T12:20:01Z</time>
      </trkpt>
      <trkpt lat="45.92487" lon="4.73056">
        <ele>170</ele>
        <time>2017-12-09T12:20:02Z</time>
      </trkpt>
      <trkpt lat="45.92483" lon="4.73059">
        <ele>170</ele>
        <time>2017-12-09T12:20:03Z</time>
      </trkpt>
      <trkpt lat="45.92479" lon="4.73062">
        <ele>170</ele>
        <time>2017-12-09T12:20:04Z</time>
      </trkpt>
      <trkpt lat="45.92474" lon="4.73065">
        <ele>170</ele>
        <time>2017-12-09T12:20:05Z</time>
      </trkpt>
      <trkpt lat="45.9247" lon="4.73068">
        <ele>170</ele>
        <time>2017-12-09T12:20:06Z</time>
      </trkpt>
      <trkpt lat="45.92466" lon="4.73072">
        <ele>170</ele>
        <time>2017-12-09T12:20:07Z</time>
      </trkpt>
      <trkpt lat="45.92462" lon="4.73075">
        <ele>170</ele>
        <time>2017-12-09T12:20:08Z</time>
      </trkpt>
      <trkpt lat="45.92459" lon="4.73078">
        <ele>170</ele>
        <time>2017-12-09T12:20:09Z</time>
      </trkpt>
      <trkpt lat="45.92455" lon="4.73082">
        <ele>170</ele>
        <time>2017-12-09T12:20:10Z</time>
      </trkpt>
      <trkpt lat="45.92447" lon="4.73088">
        <ele>170</ele>
        <time>2017-12-09T12:20:12Z</time>
      </trkpt>
      <trkpt lat="45.92443" lon="4.73092">
        <ele>170</ele>
        <time>2017-12-09T12:20:13Z</time>
      </trkpt>
      <trkpt lat="45.92438" lon="4.73096">
        <ele>171</ele>
        <time>2017-12-09T12:20:14Z</time>
      </trkpt>
      <trkpt lat="45.92434" lon="4.73099">
        <ele>171</ele>
        <time>2017-12-09T12:20:15Z</time>
      </trkpt>
      <trkpt lat="45.92429" lon="4.73102">
        <ele>171</ele>
        <time>2017-12-09T12:20:16Z</time>
      </trkpt>
      <trkpt lat="45.92426" lon="4.73107">
        <ele>171</ele>
        <time>2017-12-09T12:20:17Z</time>
      </trkpt>
      <trkpt lat="45.92421" lon="4.7311">
        <ele>170</ele>
        <time>2017-12-09T12:20:18Z</time>
      </trkpt>
      <trkpt lat="45.92417" lon="4.73113">
        <ele>170</ele>
        <time>2017-12-09T12:20:19Z</time>
      </trkpt>
      <trkpt lat="45.92414" lon="4.73118">
        <ele>171</ele>
        <time>2017-12-09T12:20:20Z</time>
      </trkpt>
      <trkpt lat="45.9241" lon="4.73124">
        <ele>171</ele>
        <time>2017-12-09T12:20:21Z</time>
      </trkpt>
      <trkpt lat="45.92409" lon="4.73131">
        <ele>171</ele>
        <time>2017-12-09T12:20:22Z</time>
      </trkpt>
      <trkpt lat="45.92409" lon="4.73139">
        <ele>171</ele>
        <time>2017-12-09T12:20:23Z</time>
      </trkpt>
      <trkpt lat="45.92408" lon="4.73146">
        <ele>171</ele>
        <time>2017-12-09T12:20:24Z</time>
      </trkpt>
      <trkpt lat="45.92409" lon="4.73154">
        <ele>170</ele>
        <time>2017-12-09T12:20:25Z</time>
      </trkpt>
      <trkpt lat="45.92409" lon="4.7316">
        <ele>170</ele>
        <time>2017-12-09T12:20:26Z</time>
      </trkpt>
      <trkpt lat="45.92409" lon="4.73168">
        <ele>170</ele>
        <time>2017-12-09T12:20:27Z</time>
      </trkpt>
      <trkpt lat="45.92408" lon="4.73176">
        <ele>171</ele>
        <time>2017-12-09T12:20:28Z</time>
      </trkpt>
      <trkpt lat="45.92409" lon="4.73183">
        <ele>171</ele>
        <time>2017-12-09T12:20:29Z</time>
      </trkpt>
      <trkpt lat="45.92409" lon="4.73194">
        <ele>171</ele>
        <time>2017-12-09T12:20:31Z</time>
      </trkpt>
      <trkpt lat="45.92409" lon="4.73202">
        <ele>171</ele>
        <time>2017-12-09T12:20:32Z</time>
      </trkpt>
      <trkpt lat="45.9241" lon="4.7321">
        <ele>171</ele>
        <time>2017-12-09T12:20:33Z</time>
      </trkpt>
      <trkpt lat="45.9241" lon="4.73217">
        <ele>171</ele>
        <time>2017-12-09T12:20:34Z</time>
      </trkpt>
      <trkpt lat="45.9241" lon="4.73224">
        <ele>171</ele>
        <time>2017-12-09T12:20:35Z</time>
      </trkpt>
      <trkpt lat="45.9241" lon="4.73231">
        <ele>171</ele>
        <time>2017-12-09T12:20:36Z</time>
      </trkpt>
      <trkpt lat="45.9241" lon="4.73237">
        <ele>171</ele>
        <time>2017-12-09T12:20:37Z</time>
      </trkpt>
      <trkpt lat="45.9241" lon="4.73245">
        <ele>171</ele>
        <time>2017-12-09T12:20:38Z</time>
      </trkpt>
      <trkpt lat="45.92411" lon="4.73253">
        <ele>171</ele>
        <time>2017-12-09T12:20:39Z</time>
      </trkpt>
      <trkpt lat="45.92413" lon="4.73259">
        <ele>171</ele>
        <time>2017-12-09T12:20:40Z</time>
      </trkpt>
      <trkpt lat="45.92413" lon="4.73267">
        <ele>171</ele>
        <time>2017-12-09T12:20:41Z</time>
      </trkpt>
      <trkpt lat="45.92414" lon="4.73274">
        <ele>171</ele>
        <time>2017-12-09T12:20:42Z</time>
      </trkpt>
      <trkpt lat="45.92415" lon="4.73281">
        <ele>171</ele>
        <time>2017-12-09T12:20:43Z</time>
      </trkpt>
      <trkpt lat="45.92415" lon="4.73289">
        <ele>171</ele>
        <time>2017-12-09T12:20:44Z</time>
      </trkpt>
      <trkpt lat="45.92415" lon="4.73295">
        <ele>171</ele>
        <time>2017-12-09T12:20:45Z</time>
      </trkpt>
      <trkpt lat="45.92415" lon="4.73303">
        <ele>171</ele>
        <time>2017-12-09T12:20:46Z</time>
      </trkpt>
      <trkpt lat="45.92416" lon="4.7331">
        <ele>171</ele>
        <time>2017-12-09T12:20:47Z</time>
      </trkpt>
      <trkpt lat="45.92417" lon="4.73319">
        <ele>171</ele>
        <time>2017-12-09T12:20:48Z</time>
      </trkpt>
      <trkpt lat="45.92418" lon="4.73327">
        <ele>171</ele>
        <time>2017-12-09T12:20:49Z</time>
      </trkpt>
      <trkpt lat="45.92418" lon="4.73334">
        <ele>171</ele>
        <time>2017-12-09T12:20:50Z</time>
      </trkpt>
      <trkpt lat="45.9242" lon="4.73341">
        <ele>171</ele>
        <time>2017-12-09T12:20:51Z</time>
      </trkpt>
      <trkpt lat="45.92421" lon="4.73349">
        <ele>171</ele>
        <time>2017-12-09T12:20:52Z</time>
      </trkpt>
      <trkpt lat="45.92422" lon="4.73356">
        <ele>171</ele>
        <time>2017-12-09T12:20:53Z</time>
      </trkpt>
      <trkpt lat="45.92422" lon="4.73362">
        <ele>172</ele>
        <time>2017-12-09T12:20:54Z</time>
      </trkpt>
      <trkpt lat="45.92423" lon="4.73369">
        <ele>172</ele>
        <time>2017-12-09T12:20:55Z</time>
      </trkpt>
      <trkpt lat="45.92423" lon="4.73376">
        <ele>172</ele>
        <time>2017-12-09T12:20:56Z</time>
      </trkpt>
      <trkpt lat="45.92424" lon="4.73382">
        <ele>172</ele>
        <time>2017-12-09T12:20:57Z</time>
      </trkpt>
      <trkpt lat="45.92425" lon="4.7339">
        <ele>172</ele>
        <time>2017-12-09T12:20:58Z</time>
      </trkpt>
      <trkpt lat="45.92428" lon="4.73397">
        <ele>172</ele>
        <time>2017-12-09T12:20:59Z</time>
      </trkpt>
      <trkpt lat="45.92429" lon="4.73403">
        <ele>172</ele>
        <time>2017-12-09T12:21:00Z</time>
      </trkpt>
      <trkpt lat="45.92431" lon="4.73409">
        <ele>172</ele>
        <time>2017-12-09T12:21:01Z</time>
      </trkpt>
      <trkpt lat="45.92434" lon="4.73414">
        <ele>172</ele>
        <time>2017-12-09T12:21:02Z</time>
      </trkpt>
      <trkpt lat="45.92438" lon="4.73419">
        <ele>173</ele>
        <time>2017-12-09T12:21:03Z</time>
      </trkpt>
      <trkpt lat="45.92444" lon="4.73422">
        <ele>173</ele>
        <time>2017-12-09T12:21:04Z</time>
      </trkpt>
      <trkpt lat="45.92448" lon="4.73425">
        <ele>173</ele>
        <time>2017-12-09T12:21:05Z</time>
      </trkpt>
      <trkpt lat="45.92452" lon="4.73429">
        <ele>173</ele>
        <time>2017-12-09T12:21:06Z</time>
      </trkpt>
      <trkpt lat="45.92456" lon="4.73433">
        <ele>173</ele>
        <time>2017-12-09T12:21:07Z</time>
      </trkpt>
      <trkpt lat="45.9246" lon="4.73438">
        <ele>173</ele>
        <time>2017-12-09T12:21:08Z</time>
      </trkpt>
      <trkpt lat="45.92464" lon="4.73444">
        <ele>173</ele>
        <time>2017-12-09T12:21:09Z</time>
      </trkpt>
      <trkpt lat="45.92468" lon="4.73452">
        <ele>173</ele>
        <time>2017-12-09T12:21:10Z</time>
      </trkpt>
      <trkpt lat="45.9247" lon="4.7346">
        <ele>173</ele>
        <time>2017-12-09T12:21:11Z</time>
      </trkpt>
      <trkpt lat="45.92471" lon="4.73466">
        <ele>173</ele>
        <time>2017-12-09T12:21:12Z</time>
      </trkpt>
      <trkpt lat="45.92472" lon="4.73473">
        <ele>173</ele>
        <time>2017-12-09T12:21:13Z</time>
      </trkpt>
      <trkpt lat="45.92472" lon="4.7348">
        <ele>173</ele>
        <time>2017-12-09T12:21:14Z</time>
      </trkpt>
      <trkpt lat="45.92472" lon="4.73488">
        <ele>173</ele>
        <time>2017-12-09T12:21:15Z</time>
      </trkpt>
      <trkpt lat="45.92473" lon="4.73494">
        <ele>173</ele>
        <time>2017-12-09T12:21:16Z</time>
      </trkpt>
      <trkpt lat="45.92472" lon="4.73505">
        <ele>174</ele>
        <time>2017-12-09T12:21:18Z</time>
      </trkpt>
      <trkpt lat="45.92472" lon="4.73511">
        <ele>174</ele>
        <time>2017-12-09T12:21:19Z</time>
      </trkpt>
      <trkpt lat="45.92472" lon="4.73523">
        <ele>174</ele>
        <time>2017-12-09T12:21:21Z</time>
      </trkpt>
      <trkpt lat="45.92472" lon="4.73529">
        <ele>174</ele>
        <time>2017-12-09T12:21:22Z</time>
      </trkpt>
      <trkpt lat="45.92473" lon="4.73541">
        <ele>174</ele>
        <time>2017-12-09T12:21:24Z</time>
      </trkpt>
      <trkpt lat="45.92472" lon="4.73547">
        <ele>173</ele>
        <time>2017-12-09T12:21:25Z</time>
      </trkpt>
      <trkpt lat="45.92471" lon="4.73558">
        <ele>173</ele>
        <time>2017-12-09T12:21:27Z</time>
      </trkpt>
      <trkpt lat="45.92472" lon="4.73563">
        <ele>173</ele>
        <time>2017-12-09T12:21:28Z</time>
      </trkpt>
      <trkpt lat="45.92473" lon="4.7357">
        <ele>173</ele>
        <time>2017-12-09T12:21:29Z</time>
      </trkpt>
      <trkpt lat="45.92473" lon="4.73578">
        <ele>173</ele>
        <time>2017-12-09T12:21:30Z</time>
      </trkpt>
      <trkpt lat="45.92474" lon="4.73586">
        <ele>174</ele>
        <time>2017-12-09T12:21:31Z</time>
      </trkpt>
      <trkpt lat="45.92473" lon="4.73594">
        <ele>174</ele>
        <time>2017-12-09T12:21:32Z</time>
      </trkpt>
      <trkpt lat="45.92474" lon="4.73603">
        <ele>174</ele>
        <time>2017-12-09T12:21:33Z</time>
      </trkpt>
      <trkpt lat="45.92473" lon="4.73611">
        <ele>174</ele>
        <time>2017-12-09T12:21:34Z</time>
      </trkpt>
      <trkpt lat="45.92474" lon="4.73617">
        <ele>174</ele>
        <time>2017-12-09T12:21:35Z</time>
      </trkpt>
      <trkpt lat="45.92475" lon="4.73625">
        <ele>174</ele>
        <time>2017-12-09T12:21:36Z</time>
      </trkpt>
      <trkpt lat="45.92476" lon="4.73631">
        <ele>174</ele>
        <time>2017-12-09T12:21:37Z</time>
      </trkpt>
      <trkpt lat="45.92476" lon="4.73639">
        <ele>174</ele>
        <time>2017-12-09T12:21:38Z</time>
      </trkpt>
      <trkpt lat="45.92476" lon="4.73645">
        <ele>174</ele>
        <time>2017-12-09T12:21:39Z</time>
      </trkpt>
      <trkpt lat="45.92477" lon="4.73652">
        <ele>174</ele>
        <time>2017-12-09T12:21:40Z</time>
      </trkpt>
      <trkpt lat="45.92475" lon="4.73664">
        <ele>174</ele>
        <time>2017-12-09T12:21:42Z</time>
      </trkpt>
      <trkpt lat="45.92473" lon="4.7367">
        <ele>174</ele>
        <time>2017-12-09T12:21:43Z</time>
      </trkpt>
      <trkpt lat="45.92472" lon="4.7368">
        <ele>174</ele>
        <time>2017-12-09T12:21:45Z</time>
      </trkpt>
      <trkpt lat="45.9247" lon="4.73686">
        <ele>174</ele>
        <time>2017-12-09T12:21:46Z</time>
      </trkpt>
      <trkpt lat="45.92469" lon="4.73698">
        <ele>174</ele>
        <time>2017-12-09T12:21:50Z</time>
      </trkpt>
      <trkpt lat="45.92469" lon="4.73701">
        <ele>174</ele>
        <time>2017-12-09T12:21:51Z</time>
      </trkpt>
      <trkpt lat="45.9247" lon="4.73704">
        <ele>174</ele>
        <time>2017-12-09T12:22:03Z</time>
      </trkpt>
      <trkpt lat="45.9247" lon="4.73705">
        <ele>174</ele>
        <time>2017-12-09T12:22:04Z</time>
      </trkpt>
      <trkpt lat="45.9247" lon="4.73705">
        <ele>174</ele>
        <time>2017-12-09T12:22:05Z</time>
      </trkpt>
      <trkpt lat="45.92466" lon="4.73713">
        <ele>174</ele>
        <time>2017-12-09T12:22:36.367Z</time>
      </trkpt>
    </trkseg>
  </trk>
</gpx>